<?xml version="1.0" encoding="UTF-8" standalone="no" ?>
<gpx xmlns="http://www.topografix.com/GPX/1/1" xmlns:xsi="http://www.w3.org/2001/XMLSchema-instance" xsi:schemaLocation="http://www.topografix.com/GPX/1/1 http://www.topografix.com/GPX/1/1/gpx.xsd" version="1.1" creator="VisuGPX - https://www.visugpx.com">
  <metadata>
    <name>Trek au Ladakh</name>
    <desc><![CDATA[Trek au Ladakh - Septembre 2015]]></desc>
  </metadata>
  <trk>
    <name><![CDATA[Hinju  (3800m) - Camp de Hinju (3920m)]]></name>
    <trkseg>
      <trkpt lat="34.18672" lon="76.93541">
        <ele>3794</ele>
        <time>2015-08-28T10:16:26Z</time>
      </trkpt>
      <trkpt lat="34.1867" lon="76.93541">
        <ele>3795</ele>
        <time>2015-08-28T10:18:05Z</time>
      </trkpt>
      <trkpt lat="34.1867" lon="76.93542">
        <ele>3795.2</ele>
        <time>2015-08-28T10:18:06Z</time>
      </trkpt>
      <trkpt lat="34.18669" lon="76.93552">
        <ele>3796.2</ele>
        <time>2015-08-28T10:18:24Z</time>
      </trkpt>
      <trkpt lat="34.18669" lon="76.93551">
        <ele>3796.6</ele>
        <time>2015-08-28T10:18:48Z</time>
      </trkpt>
      <trkpt lat="34.18671" lon="76.93549">
        <ele>3796.6</ele>
        <time>2015-08-28T10:18:50Z</time>
      </trkpt>
      <trkpt lat="34.18672" lon="76.93548">
        <ele>3796.4</ele>
        <time>2015-08-28T10:18:52Z</time>
      </trkpt>
      <trkpt lat="34.1867" lon="76.93543">
        <ele>3795.2</ele>
        <time>2015-08-28T10:19:04Z</time>
      </trkpt>
      <trkpt lat="34.18672" lon="76.9353">
        <ele>3795.2</ele>
        <time>2015-08-28T10:20:07Z</time>
      </trkpt>
      <trkpt lat="34.18672" lon="76.93533">
        <ele>3795.2</ele>
        <time>2015-08-28T10:20:10Z</time>
      </trkpt>
      <trkpt lat="34.18671" lon="76.93535">
        <ele>3795.2</ele>
        <time>2015-08-28T10:20:12Z</time>
      </trkpt>
      <trkpt lat="34.18671" lon="76.93538">
        <ele>3795.4</ele>
        <time>2015-08-28T10:20:14Z</time>
      </trkpt>
      <trkpt lat="34.1867" lon="76.93543">
        <ele>3795.4</ele>
        <time>2015-08-28T10:20:18Z</time>
      </trkpt>
      <trkpt lat="34.1867" lon="76.93546">
        <ele>3795.4</ele>
        <time>2015-08-28T10:20:22Z</time>
      </trkpt>
      <trkpt lat="34.1867" lon="76.93553">
        <ele>3796.2</ele>
        <time>2015-08-28T10:20:31Z</time>
      </trkpt>
      <trkpt lat="34.18671" lon="76.93564">
        <ele>3795.8</ele>
        <time>2015-08-28T10:20:41Z</time>
      </trkpt>
      <trkpt lat="34.18671" lon="76.93565">
        <ele>3795.6</ele>
        <time>2015-08-28T10:20:43Z</time>
      </trkpt>
      <trkpt lat="34.18669" lon="76.93579">
        <ele>3796.8</ele>
        <time>2015-08-28T10:22:02Z</time>
      </trkpt>
      <trkpt lat="34.18672" lon="76.93578">
        <ele>3797.2</ele>
        <time>2015-08-28T10:22:27Z</time>
      </trkpt>
      <trkpt lat="34.18673" lon="76.93575">
        <ele>3796.2</ele>
        <time>2015-08-28T10:23:01Z</time>
      </trkpt>
      <trkpt lat="34.18672" lon="76.93584">
        <ele>3797.2</ele>
        <time>2015-08-28T10:23:20Z</time>
      </trkpt>
      <trkpt lat="34.18665" lon="76.93603">
        <ele>3797.8</ele>
        <time>2015-08-28T10:23:48Z</time>
      </trkpt>
      <trkpt lat="34.18664" lon="76.93607">
        <ele>3798.2</ele>
        <time>2015-08-28T10:23:53Z</time>
      </trkpt>
      <trkpt lat="34.18663" lon="76.93611">
        <ele>3799.2</ele>
        <time>2015-08-28T10:23:57Z</time>
      </trkpt>
      <trkpt lat="34.18662" lon="76.93625">
        <ele>3799.6</ele>
        <time>2015-08-28T10:24:14Z</time>
      </trkpt>
      <trkpt lat="34.1866" lon="76.93633">
        <ele>3799.8</ele>
        <time>2015-08-28T10:24:21Z</time>
      </trkpt>
      <trkpt lat="34.18658" lon="76.93635">
        <ele>3799.8</ele>
        <time>2015-08-28T10:24:23Z</time>
      </trkpt>
      <trkpt lat="34.18658" lon="76.93638">
        <ele>3800.2</ele>
        <time>2015-08-28T10:24:25Z</time>
      </trkpt>
      <trkpt lat="34.18657" lon="76.93639">
        <ele>3800.4</ele>
        <time>2015-08-28T10:24:26Z</time>
      </trkpt>
      <trkpt lat="34.18656" lon="76.9364">
        <ele>3800.6</ele>
        <time>2015-08-28T10:24:27Z</time>
      </trkpt>
      <trkpt lat="34.18654" lon="76.93654">
        <ele>3801.4</ele>
        <time>2015-08-28T10:24:44Z</time>
      </trkpt>
      <trkpt lat="34.18652" lon="76.93656">
        <ele>3801.6</ele>
        <time>2015-08-28T10:24:47Z</time>
      </trkpt>
      <trkpt lat="34.18653" lon="76.93667">
        <ele>3801.8</ele>
        <time>2015-08-28T10:24:58Z</time>
      </trkpt>
      <trkpt lat="34.1865" lon="76.93676">
        <ele>3802.2</ele>
        <time>2015-08-28T10:25:09Z</time>
      </trkpt>
      <trkpt lat="34.18649" lon="76.93678">
        <ele>3802.2</ele>
        <time>2015-08-28T10:25:11Z</time>
      </trkpt>
      <trkpt lat="34.18648" lon="76.93683">
        <ele>3802.2</ele>
        <time>2015-08-28T10:25:16Z</time>
      </trkpt>
      <trkpt lat="34.18649" lon="76.93688">
        <ele>3802.4</ele>
        <time>2015-08-28T10:25:20Z</time>
      </trkpt>
      <trkpt lat="34.18646" lon="76.93694">
        <ele>3802.8</ele>
        <time>2015-08-28T10:25:27Z</time>
      </trkpt>
      <trkpt lat="34.18639" lon="76.9371">
        <ele>3803.4</ele>
        <time>2015-08-28T10:26:11Z</time>
      </trkpt>
      <trkpt lat="34.18639" lon="76.93711">
        <ele>3803.6</ele>
        <time>2015-08-28T10:26:13Z</time>
      </trkpt>
      <trkpt lat="34.18646" lon="76.93722">
        <ele>3804.6</ele>
        <time>2015-08-28T10:26:31Z</time>
      </trkpt>
      <trkpt lat="34.18648" lon="76.93727">
        <ele>3805.6</ele>
        <time>2015-08-28T10:26:39Z</time>
      </trkpt>
      <trkpt lat="34.18644" lon="76.93733">
        <ele>3806.8</ele>
        <time>2015-08-28T10:26:50Z</time>
      </trkpt>
      <trkpt lat="34.18643" lon="76.93738">
        <ele>3807.8</ele>
        <time>2015-08-28T10:26:58Z</time>
      </trkpt>
      <trkpt lat="34.18636" lon="76.93751">
        <ele>3808.6</ele>
        <time>2015-08-28T10:27:16Z</time>
      </trkpt>
      <trkpt lat="34.18634" lon="76.93755">
        <ele>3808.6</ele>
        <time>2015-08-28T10:27:20Z</time>
      </trkpt>
      <trkpt lat="34.18634" lon="76.93758">
        <ele>3808.6</ele>
        <time>2015-08-28T10:27:24Z</time>
      </trkpt>
      <trkpt lat="34.18633" lon="76.93764">
        <ele>3808.8</ele>
        <time>2015-08-28T10:27:31Z</time>
      </trkpt>
      <trkpt lat="34.1863" lon="76.9377">
        <ele>3810</ele>
        <time>2015-08-28T10:27:40Z</time>
      </trkpt>
      <trkpt lat="34.18627" lon="76.9378">
        <ele>3810.4</ele>
        <time>2015-08-28T10:27:58Z</time>
      </trkpt>
      <trkpt lat="34.18622" lon="76.93795">
        <ele>3810.4</ele>
        <time>2015-08-28T10:28:12Z</time>
      </trkpt>
      <trkpt lat="34.1862" lon="76.93798">
        <ele>3810.4</ele>
        <time>2015-08-28T10:28:14Z</time>
      </trkpt>
      <trkpt lat="34.18618" lon="76.93804">
        <ele>3810.6</ele>
        <time>2015-08-28T10:28:20Z</time>
      </trkpt>
      <trkpt lat="34.18618" lon="76.93806">
        <ele>3810.8</ele>
        <time>2015-08-28T10:28:22Z</time>
      </trkpt>
      <trkpt lat="34.18619" lon="76.9381">
        <ele>3811</ele>
        <time>2015-08-28T10:28:29Z</time>
      </trkpt>
      <trkpt lat="34.18616" lon="76.93818">
        <ele>3811.2</ele>
        <time>2015-08-28T10:28:36Z</time>
      </trkpt>
      <trkpt lat="34.18615" lon="76.93827">
        <ele>3811.6</ele>
        <time>2015-08-28T10:28:48Z</time>
      </trkpt>
      <trkpt lat="34.18611" lon="76.93842">
        <ele>3811.6</ele>
        <time>2015-08-28T10:29:02Z</time>
      </trkpt>
      <trkpt lat="34.18605" lon="76.93849">
        <ele>3811.8</ele>
        <time>2015-08-28T10:29:11Z</time>
      </trkpt>
      <trkpt lat="34.18604" lon="76.93853">
        <ele>3811.8</ele>
        <time>2015-08-28T10:29:15Z</time>
      </trkpt>
      <trkpt lat="34.18603" lon="76.93855">
        <ele>3811.8</ele>
        <time>2015-08-28T10:29:17Z</time>
      </trkpt>
      <trkpt lat="34.18601" lon="76.93867">
        <ele>3812</ele>
        <time>2015-08-28T10:29:32Z</time>
      </trkpt>
      <trkpt lat="34.18597" lon="76.93885">
        <ele>3813</ele>
        <time>2015-08-28T10:29:52Z</time>
      </trkpt>
      <trkpt lat="34.18595" lon="76.93891">
        <ele>3812.8</ele>
        <time>2015-08-28T10:29:57Z</time>
      </trkpt>
      <trkpt lat="34.18595" lon="76.93894">
        <ele>3812.8</ele>
        <time>2015-08-28T10:30:00Z</time>
      </trkpt>
      <trkpt lat="34.18595" lon="76.93898">
        <ele>3813</ele>
        <time>2015-08-28T10:30:04Z</time>
      </trkpt>
      <trkpt lat="34.18596" lon="76.93899">
        <ele>3813</ele>
        <time>2015-08-28T10:30:05Z</time>
      </trkpt>
      <trkpt lat="34.18596" lon="76.93903">
        <ele>3813</ele>
        <time>2015-08-28T10:30:09Z</time>
      </trkpt>
      <trkpt lat="34.18596" lon="76.93908">
        <ele>3813.4</ele>
        <time>2015-08-28T10:30:13Z</time>
      </trkpt>
      <trkpt lat="34.18596" lon="76.9391">
        <ele>3813.4</ele>
        <time>2015-08-28T10:30:15Z</time>
      </trkpt>
      <trkpt lat="34.18594" lon="76.93921">
        <ele>3814</ele>
        <time>2015-08-28T10:30:28Z</time>
      </trkpt>
      <trkpt lat="34.18588" lon="76.93935">
        <ele>3815</ele>
        <time>2015-08-28T10:30:51Z</time>
      </trkpt>
      <trkpt lat="34.18589" lon="76.93949">
        <ele>3815.4</ele>
        <time>2015-08-28T10:31:07Z</time>
      </trkpt>
      <trkpt lat="34.1859" lon="76.93965">
        <ele>3815.4</ele>
        <time>2015-08-28T10:31:51Z</time>
      </trkpt>
      <trkpt lat="34.1859" lon="76.93966">
        <ele>3815.2</ele>
        <time>2015-08-28T10:31:53Z</time>
      </trkpt>
      <trkpt lat="34.1859" lon="76.93967">
        <ele>3815.2</ele>
        <time>2015-08-28T10:31:54Z</time>
      </trkpt>
      <trkpt lat="34.18587" lon="76.93971">
        <ele>3815.2</ele>
        <time>2015-08-28T10:31:58Z</time>
      </trkpt>
      <trkpt lat="34.18587" lon="76.93972">
        <ele>3815.2</ele>
        <time>2015-08-28T10:32:00Z</time>
      </trkpt>
      <trkpt lat="34.18584" lon="76.9399">
        <ele>3815</ele>
        <time>2015-08-28T10:32:15Z</time>
      </trkpt>
      <trkpt lat="34.18583" lon="76.93991">
        <ele>3815.2</ele>
        <time>2015-08-28T10:32:17Z</time>
      </trkpt>
      <trkpt lat="34.18579" lon="76.93998">
        <ele>3815.6</ele>
        <time>2015-08-28T10:32:24Z</time>
      </trkpt>
      <trkpt lat="34.18579" lon="76.94002">
        <ele>3815.6</ele>
        <time>2015-08-28T10:32:27Z</time>
      </trkpt>
      <trkpt lat="34.18578" lon="76.94007">
        <ele>3815.8</ele>
        <time>2015-08-28T10:32:32Z</time>
      </trkpt>
      <trkpt lat="34.18577" lon="76.94009">
        <ele>3816</ele>
        <time>2015-08-28T10:32:34Z</time>
      </trkpt>
      <trkpt lat="34.18568" lon="76.94024">
        <ele>3817.2</ele>
        <time>2015-08-28T10:32:54Z</time>
      </trkpt>
      <trkpt lat="34.18567" lon="76.94025">
        <ele>3817.2</ele>
        <time>2015-08-28T10:32:55Z</time>
      </trkpt>
      <trkpt lat="34.18567" lon="76.94026">
        <ele>3817.4</ele>
        <time>2015-08-28T10:32:57Z</time>
      </trkpt>
      <trkpt lat="34.18566" lon="76.94035">
        <ele>3818.2</ele>
        <time>2015-08-28T10:33:08Z</time>
      </trkpt>
      <trkpt lat="34.18553" lon="76.94051">
        <ele>3819</ele>
        <time>2015-08-28T10:33:30Z</time>
      </trkpt>
      <trkpt lat="34.1855" lon="76.94053">
        <ele>3819.2</ele>
        <time>2015-08-28T10:33:33Z</time>
      </trkpt>
      <trkpt lat="34.18538" lon="76.94069">
        <ele>3819.4</ele>
        <time>2015-08-28T10:33:56Z</time>
      </trkpt>
      <trkpt lat="34.18524" lon="76.94084">
        <ele>3819.8</ele>
        <time>2015-08-28T10:34:16Z</time>
      </trkpt>
      <trkpt lat="34.18519" lon="76.94089">
        <ele>3820.2</ele>
        <time>2015-08-28T10:34:27Z</time>
      </trkpt>
      <trkpt lat="34.18506" lon="76.94105">
        <ele>3820.6</ele>
        <time>2015-08-28T10:34:48Z</time>
      </trkpt>
      <trkpt lat="34.18504" lon="76.94107">
        <ele>3821</ele>
        <time>2015-08-28T10:34:51Z</time>
      </trkpt>
      <trkpt lat="34.18502" lon="76.94108">
        <ele>3821.4</ele>
        <time>2015-08-28T10:34:53Z</time>
      </trkpt>
      <trkpt lat="34.18489" lon="76.94123">
        <ele>3822</ele>
        <time>2015-08-28T10:35:13Z</time>
      </trkpt>
      <trkpt lat="34.18475" lon="76.94138">
        <ele>3821.6</ele>
        <time>2015-08-28T10:35:31Z</time>
      </trkpt>
      <trkpt lat="34.18474" lon="76.94138">
        <ele>3821.6</ele>
        <time>2015-08-28T10:35:32Z</time>
      </trkpt>
      <trkpt lat="34.18473" lon="76.94143">
        <ele>3820.8</ele>
        <time>2015-08-28T10:35:37Z</time>
      </trkpt>
      <trkpt lat="34.18472" lon="76.94145">
        <ele>3821</ele>
        <time>2015-08-28T10:35:40Z</time>
      </trkpt>
      <trkpt lat="34.18472" lon="76.9415">
        <ele>3821.2</ele>
        <time>2015-08-28T10:35:44Z</time>
      </trkpt>
      <trkpt lat="34.18472" lon="76.94153">
        <ele>3821.2</ele>
        <time>2015-08-28T10:35:46Z</time>
      </trkpt>
      <trkpt lat="34.18465" lon="76.94171">
        <ele>3821.4</ele>
        <time>2015-08-28T10:36:07Z</time>
      </trkpt>
      <trkpt lat="34.18464" lon="76.94174">
        <ele>3821.6</ele>
        <time>2015-08-28T10:36:10Z</time>
      </trkpt>
      <trkpt lat="34.18463" lon="76.94177">
        <ele>3821.8</ele>
        <time>2015-08-28T10:36:14Z</time>
      </trkpt>
      <trkpt lat="34.18462" lon="76.94179">
        <ele>3821.4</ele>
        <time>2015-08-28T10:36:17Z</time>
      </trkpt>
      <trkpt lat="34.1846" lon="76.94182">
        <ele>3821.2</ele>
        <time>2015-08-28T10:36:22Z</time>
      </trkpt>
      <trkpt lat="34.18455" lon="76.94189">
        <ele>3821.6</ele>
        <time>2015-08-28T10:36:29Z</time>
      </trkpt>
      <trkpt lat="34.18451" lon="76.94195">
        <ele>3821.8</ele>
        <time>2015-08-28T10:36:36Z</time>
      </trkpt>
      <trkpt lat="34.18446" lon="76.94198">
        <ele>3822.4</ele>
        <time>2015-08-28T10:36:42Z</time>
      </trkpt>
      <trkpt lat="34.18433" lon="76.94213">
        <ele>3823.6</ele>
        <time>2015-08-28T10:37:01Z</time>
      </trkpt>
      <trkpt lat="34.18432" lon="76.94213">
        <ele>3823.6</ele>
        <time>2015-08-28T10:37:02Z</time>
      </trkpt>
      <trkpt lat="34.1843" lon="76.94215">
        <ele>3824</ele>
        <time>2015-08-28T10:37:05Z</time>
      </trkpt>
      <trkpt lat="34.18426" lon="76.94229">
        <ele>3824.6</ele>
        <time>2015-08-28T10:37:21Z</time>
      </trkpt>
      <trkpt lat="34.18425" lon="76.94231">
        <ele>3824.6</ele>
        <time>2015-08-28T10:37:23Z</time>
      </trkpt>
      <trkpt lat="34.18424" lon="76.94233">
        <ele>3824.8</ele>
        <time>2015-08-28T10:37:25Z</time>
      </trkpt>
      <trkpt lat="34.18423" lon="76.94235">
        <ele>3824.6</ele>
        <time>2015-08-28T10:37:27Z</time>
      </trkpt>
      <trkpt lat="34.18422" lon="76.94238">
        <ele>3824.6</ele>
        <time>2015-08-28T10:37:29Z</time>
      </trkpt>
      <trkpt lat="34.18412" lon="76.94256">
        <ele>3824.4</ele>
        <time>2015-08-28T10:37:49Z</time>
      </trkpt>
      <trkpt lat="34.18406" lon="76.94266">
        <ele>3824.8</ele>
        <time>2015-08-28T10:38:00Z</time>
      </trkpt>
      <trkpt lat="34.18404" lon="76.94271">
        <ele>3825.6</ele>
        <time>2015-08-28T10:38:04Z</time>
      </trkpt>
      <trkpt lat="34.18395" lon="76.9429">
        <ele>3826</ele>
        <time>2015-08-28T10:38:23Z</time>
      </trkpt>
      <trkpt lat="34.18388" lon="76.94311">
        <ele>3826.2</ele>
        <time>2015-08-28T10:38:45Z</time>
      </trkpt>
      <trkpt lat="34.18384" lon="76.94318">
        <ele>3826.6</ele>
        <time>2015-08-28T10:38:54Z</time>
      </trkpt>
      <trkpt lat="34.18381" lon="76.94331">
        <ele>3827.6</ele>
        <time>2015-08-28T10:39:15Z</time>
      </trkpt>
      <trkpt lat="34.18378" lon="76.9434">
        <ele>3827.8</ele>
        <time>2015-08-28T10:39:25Z</time>
      </trkpt>
      <trkpt lat="34.18373" lon="76.94344">
        <ele>3827.4</ele>
        <time>2015-08-28T10:39:35Z</time>
      </trkpt>
      <trkpt lat="34.18373" lon="76.94345">
        <ele>3827.4</ele>
        <time>2015-08-28T10:39:37Z</time>
      </trkpt>
      <trkpt lat="34.18361" lon="76.94349">
        <ele>3828</ele>
        <time>2015-08-28T10:40:09Z</time>
      </trkpt>
      <trkpt lat="34.18359" lon="76.9435">
        <ele>3828.2</ele>
        <time>2015-08-28T10:40:11Z</time>
      </trkpt>
      <trkpt lat="34.18358" lon="76.94351">
        <ele>3828.4</ele>
        <time>2015-08-28T10:40:13Z</time>
      </trkpt>
      <trkpt lat="34.18357" lon="76.94352">
        <ele>3828.6</ele>
        <time>2015-08-28T10:40:15Z</time>
      </trkpt>
      <trkpt lat="34.18353" lon="76.94353">
        <ele>3828.8</ele>
        <time>2015-08-28T10:40:19Z</time>
      </trkpt>
      <trkpt lat="34.18347" lon="76.94361">
        <ele>3828.6</ele>
        <time>2015-08-28T10:40:27Z</time>
      </trkpt>
      <trkpt lat="34.18338" lon="76.94364">
        <ele>3828.8</ele>
        <time>2015-08-28T10:40:37Z</time>
      </trkpt>
      <trkpt lat="34.18335" lon="76.94374">
        <ele>3829.6</ele>
        <time>2015-08-28T10:41:16Z</time>
      </trkpt>
      <trkpt lat="34.18334" lon="76.94374">
        <ele>3829.6</ele>
        <time>2015-08-28T10:41:17Z</time>
      </trkpt>
      <trkpt lat="34.1832" lon="76.94382">
        <ele>3830.4</ele>
        <time>2015-08-28T10:41:55Z</time>
      </trkpt>
      <trkpt lat="34.18318" lon="76.94386">
        <ele>3830.8</ele>
        <time>2015-08-28T10:41:59Z</time>
      </trkpt>
      <trkpt lat="34.18315" lon="76.94389">
        <ele>3831.4</ele>
        <time>2015-08-28T10:42:04Z</time>
      </trkpt>
      <trkpt lat="34.18312" lon="76.94396">
        <ele>3831.8</ele>
        <time>2015-08-28T10:42:10Z</time>
      </trkpt>
      <trkpt lat="34.18306" lon="76.94405">
        <ele>3832.8</ele>
        <time>2015-08-28T10:42:26Z</time>
      </trkpt>
      <trkpt lat="34.18302" lon="76.94416">
        <ele>3833.8</ele>
        <time>2015-08-28T10:42:52Z</time>
      </trkpt>
      <trkpt lat="34.18299" lon="76.94432">
        <ele>3834.6</ele>
        <time>2015-08-28T10:43:24Z</time>
      </trkpt>
      <trkpt lat="34.18298" lon="76.94435">
        <ele>3834.8</ele>
        <time>2015-08-28T10:43:27Z</time>
      </trkpt>
      <trkpt lat="34.18297" lon="76.94435">
        <ele>3834.8</ele>
        <time>2015-08-28T10:43:28Z</time>
      </trkpt>
      <trkpt lat="34.18294" lon="76.94443">
        <ele>3836</ele>
        <time>2015-08-28T10:43:36Z</time>
      </trkpt>
      <trkpt lat="34.18287" lon="76.94454">
        <ele>3837</ele>
        <time>2015-08-28T10:43:50Z</time>
      </trkpt>
      <trkpt lat="34.18282" lon="76.94461">
        <ele>3838</ele>
        <time>2015-08-28T10:44:02Z</time>
      </trkpt>
      <trkpt lat="34.18274" lon="76.94478">
        <ele>3839</ele>
        <time>2015-08-28T10:44:27Z</time>
      </trkpt>
      <trkpt lat="34.18264" lon="76.94493">
        <ele>3839.8</ele>
        <time>2015-08-28T10:44:48Z</time>
      </trkpt>
      <trkpt lat="34.18253" lon="76.9451">
        <ele>3839.8</ele>
        <time>2015-08-28T10:45:10Z</time>
      </trkpt>
      <trkpt lat="34.18252" lon="76.94511">
        <ele>3839.8</ele>
        <time>2015-08-28T10:45:11Z</time>
      </trkpt>
      <trkpt lat="34.1824" lon="76.94521">
        <ele>3840.2</ele>
        <time>2015-08-28T10:45:28Z</time>
      </trkpt>
      <trkpt lat="34.18239" lon="76.94523">
        <ele>3840.4</ele>
        <time>2015-08-28T10:45:30Z</time>
      </trkpt>
      <trkpt lat="34.18237" lon="76.94526">
        <ele>3841.4</ele>
        <time>2015-08-28T10:45:37Z</time>
      </trkpt>
      <trkpt lat="34.18226" lon="76.94543">
        <ele>3842.4</ele>
        <time>2015-08-28T10:46:08Z</time>
      </trkpt>
      <trkpt lat="34.18226" lon="76.94544">
        <ele>3842.4</ele>
        <time>2015-08-28T10:46:09Z</time>
      </trkpt>
      <trkpt lat="34.18219" lon="76.94554">
        <ele>3843.4</ele>
        <time>2015-08-28T10:46:26Z</time>
      </trkpt>
      <trkpt lat="34.1821" lon="76.94572">
        <ele>3844.4</ele>
        <time>2015-08-28T10:46:54Z</time>
      </trkpt>
      <trkpt lat="34.18209" lon="76.94575">
        <ele>3844.4</ele>
        <time>2015-08-28T10:46:57Z</time>
      </trkpt>
      <trkpt lat="34.18208" lon="76.94577">
        <ele>3844.6</ele>
        <time>2015-08-28T10:46:59Z</time>
      </trkpt>
      <trkpt lat="34.18197" lon="76.94595">
        <ele>3845.4</ele>
        <time>2015-08-28T10:47:25Z</time>
      </trkpt>
      <trkpt lat="34.18196" lon="76.94598">
        <ele>3845.4</ele>
        <time>2015-08-28T10:47:28Z</time>
      </trkpt>
      <trkpt lat="34.1819" lon="76.9461">
        <ele>3846.4</ele>
        <time>2015-08-28T10:47:44Z</time>
      </trkpt>
      <trkpt lat="34.18181" lon="76.9463">
        <ele>3846.4</ele>
        <time>2015-08-28T10:48:05Z</time>
      </trkpt>
      <trkpt lat="34.18177" lon="76.94643">
        <ele>3846.8</ele>
        <time>2015-08-28T10:48:23Z</time>
      </trkpt>
      <trkpt lat="34.18166" lon="76.94661">
        <ele>3845.6</ele>
        <time>2015-08-28T10:48:46Z</time>
      </trkpt>
      <trkpt lat="34.18165" lon="76.94663">
        <ele>3845.4</ele>
        <time>2015-08-28T10:48:48Z</time>
      </trkpt>
      <trkpt lat="34.18165" lon="76.94668">
        <ele>3844.8</ele>
        <time>2015-08-28T10:48:54Z</time>
      </trkpt>
      <trkpt lat="34.18165" lon="76.9468">
        <ele>3844.2</ele>
        <time>2015-08-28T10:49:09Z</time>
      </trkpt>
      <trkpt lat="34.18163" lon="76.94686">
        <ele>3843.4</ele>
        <time>2015-08-28T10:49:17Z</time>
      </trkpt>
      <trkpt lat="34.18162" lon="76.94687">
        <ele>3843.2</ele>
        <time>2015-08-28T10:49:18Z</time>
      </trkpt>
      <trkpt lat="34.18162" lon="76.94687">
        <ele>3843.2</ele>
        <time>2015-08-28T10:49:19Z</time>
      </trkpt>
      <trkpt lat="34.18153" lon="76.94691">
        <ele>3843.6</ele>
        <time>2015-08-28T10:49:57Z</time>
      </trkpt>
      <trkpt lat="34.18147" lon="76.94694">
        <ele>3844.4</ele>
        <time>2015-08-28T10:50:37Z</time>
      </trkpt>
      <trkpt lat="34.18139" lon="76.94698">
        <ele>3845.4</ele>
        <time>2015-08-28T10:50:50Z</time>
      </trkpt>
      <trkpt lat="34.18135" lon="76.94702">
        <ele>3846.4</ele>
        <time>2015-08-28T10:51:01Z</time>
      </trkpt>
      <trkpt lat="34.1813" lon="76.94703">
        <ele>3847.6</ele>
        <time>2015-08-28T10:51:16Z</time>
      </trkpt>
      <trkpt lat="34.18124" lon="76.94705">
        <ele>3848.6</ele>
        <time>2015-08-28T10:51:24Z</time>
      </trkpt>
      <trkpt lat="34.1812" lon="76.94708">
        <ele>3849.6</ele>
        <time>2015-08-28T10:51:32Z</time>
      </trkpt>
      <trkpt lat="34.18112" lon="76.94719">
        <ele>3850.8</ele>
        <time>2015-08-28T10:51:52Z</time>
      </trkpt>
      <trkpt lat="34.18104" lon="76.94726">
        <ele>3851.8</ele>
        <time>2015-08-28T10:52:05Z</time>
      </trkpt>
      <trkpt lat="34.18103" lon="76.94735">
        <ele>3852.8</ele>
        <time>2015-08-28T10:52:21Z</time>
      </trkpt>
      <trkpt lat="34.18103" lon="76.9474">
        <ele>3853.8</ele>
        <time>2015-08-28T10:52:30Z</time>
      </trkpt>
      <trkpt lat="34.181" lon="76.94748">
        <ele>3855</ele>
        <time>2015-08-28T10:52:40Z</time>
      </trkpt>
      <trkpt lat="34.18097" lon="76.94761">
        <ele>3856</ele>
        <time>2015-08-28T10:52:55Z</time>
      </trkpt>
      <trkpt lat="34.18093" lon="76.94782">
        <ele>3856.8</ele>
        <time>2015-08-28T10:53:23Z</time>
      </trkpt>
      <trkpt lat="34.18092" lon="76.94803">
        <ele>3857</ele>
        <time>2015-08-28T10:53:48Z</time>
      </trkpt>
      <trkpt lat="34.1809" lon="76.94819">
        <ele>3857.4</ele>
        <time>2015-08-28T10:54:05Z</time>
      </trkpt>
      <trkpt lat="34.18087" lon="76.94836">
        <ele>3858</ele>
        <time>2015-08-28T10:54:22Z</time>
      </trkpt>
      <trkpt lat="34.18088" lon="76.94841">
        <ele>3859.2</ele>
        <time>2015-08-28T10:54:34Z</time>
      </trkpt>
      <trkpt lat="34.18086" lon="76.94855">
        <ele>3860.2</ele>
        <time>2015-08-28T10:54:48Z</time>
      </trkpt>
      <trkpt lat="34.18084" lon="76.94871">
        <ele>3861.2</ele>
        <time>2015-08-28T10:55:05Z</time>
      </trkpt>
      <trkpt lat="34.18079" lon="76.94892">
        <ele>3862.2</ele>
        <time>2015-08-28T10:55:28Z</time>
      </trkpt>
      <trkpt lat="34.18078" lon="76.94895">
        <ele>3862.2</ele>
        <time>2015-08-28T10:55:31Z</time>
      </trkpt>
      <trkpt lat="34.18078" lon="76.94903">
        <ele>3863.4</ele>
        <time>2015-08-28T10:55:44Z</time>
      </trkpt>
      <trkpt lat="34.18075" lon="76.94912">
        <ele>3864.4</ele>
        <time>2015-08-28T10:55:54Z</time>
      </trkpt>
      <trkpt lat="34.1807" lon="76.94922">
        <ele>3865.4</ele>
        <time>2015-08-28T10:56:07Z</time>
      </trkpt>
      <trkpt lat="34.18068" lon="76.9493">
        <ele>3866.4</ele>
        <time>2015-08-28T10:56:17Z</time>
      </trkpt>
      <trkpt lat="34.18063" lon="76.94938">
        <ele>3867.6</ele>
        <time>2015-08-28T10:56:27Z</time>
      </trkpt>
      <trkpt lat="34.18058" lon="76.94943">
        <ele>3867.4</ele>
        <time>2015-08-28T10:57:36Z</time>
      </trkpt>
      <trkpt lat="34.18047" lon="76.94949">
        <ele>3866.6</ele>
        <time>2015-08-28T10:58:24Z</time>
      </trkpt>
      <trkpt lat="34.18047" lon="76.94949">
        <ele>3866.6</ele>
        <time>2015-08-28T10:58:36Z</time>
      </trkpt>
      <trkpt lat="34.1804" lon="76.94948">
        <ele>3866</ele>
        <time>2015-08-28T10:58:44Z</time>
      </trkpt>
      <trkpt lat="34.18037" lon="76.94947">
        <ele>3865.8</ele>
        <time>2015-08-28T10:58:47Z</time>
      </trkpt>
      <trkpt lat="34.1803" lon="76.94947">
        <ele>3865.8</ele>
        <time>2015-08-28T10:58:54Z</time>
      </trkpt>
      <trkpt lat="34.18025" lon="76.94948">
        <ele>3865.6</ele>
        <time>2015-08-28T10:58:59Z</time>
      </trkpt>
      <trkpt lat="34.18025" lon="76.94948">
        <ele>3865.4</ele>
        <time>2015-08-28T10:59:00Z</time>
      </trkpt>
      <trkpt lat="34.18023" lon="76.94948">
        <ele>3865.2</ele>
        <time>2015-08-28T10:59:03Z</time>
      </trkpt>
      <trkpt lat="34.18016" lon="76.94955">
        <ele>3866.6</ele>
        <time>2015-08-28T10:59:21Z</time>
      </trkpt>
      <trkpt lat="34.18013" lon="76.94961">
        <ele>3867.6</ele>
        <time>2015-08-28T10:59:31Z</time>
      </trkpt>
      <trkpt lat="34.18011" lon="76.94974">
        <ele>3868.6</ele>
        <time>2015-08-28T10:59:46Z</time>
      </trkpt>
      <trkpt lat="34.18008" lon="76.94989">
        <ele>3869.6</ele>
        <time>2015-08-28T11:00:03Z</time>
      </trkpt>
      <trkpt lat="34.18002" lon="76.94999">
        <ele>3870.6</ele>
        <time>2015-08-28T11:00:20Z</time>
      </trkpt>
      <trkpt lat="34.17998" lon="76.95013">
        <ele>3871.8</ele>
        <time>2015-08-28T11:00:37Z</time>
      </trkpt>
      <trkpt lat="34.17997" lon="76.95028">
        <ele>3872.8</ele>
        <time>2015-08-28T11:00:52Z</time>
      </trkpt>
      <trkpt lat="34.17998" lon="76.95034">
        <ele>3873</ele>
        <time>2015-08-28T11:00:59Z</time>
      </trkpt>
      <trkpt lat="34.17998" lon="76.95037">
        <ele>3873.4</ele>
        <time>2015-08-28T11:01:03Z</time>
      </trkpt>
      <trkpt lat="34.17995" lon="76.95042">
        <ele>3873.6</ele>
        <time>2015-08-28T11:01:08Z</time>
      </trkpt>
      <trkpt lat="34.17995" lon="76.95044">
        <ele>3873.8</ele>
        <time>2015-08-28T11:01:10Z</time>
      </trkpt>
      <trkpt lat="34.17988" lon="76.95054">
        <ele>3874.8</ele>
        <time>2015-08-28T11:01:25Z</time>
      </trkpt>
      <trkpt lat="34.17982" lon="76.95062">
        <ele>3875.8</ele>
        <time>2015-08-28T11:01:39Z</time>
      </trkpt>
      <trkpt lat="34.1797" lon="76.95078">
        <ele>3876.4</ele>
        <time>2015-08-28T11:02:08Z</time>
      </trkpt>
      <trkpt lat="34.17964" lon="76.95085">
        <ele>3877</ele>
        <time>2015-08-28T11:02:22Z</time>
      </trkpt>
      <trkpt lat="34.17958" lon="76.95091">
        <ele>3878.2</ele>
        <time>2015-08-28T11:02:34Z</time>
      </trkpt>
      <trkpt lat="34.17954" lon="76.95098">
        <ele>3878.6</ele>
        <time>2015-08-28T11:02:41Z</time>
      </trkpt>
      <trkpt lat="34.17946" lon="76.95098">
        <ele>3879.2</ele>
        <time>2015-08-28T11:02:52Z</time>
      </trkpt>
      <trkpt lat="34.1794" lon="76.95102">
        <ele>3880.2</ele>
        <time>2015-08-28T11:03:00Z</time>
      </trkpt>
      <trkpt lat="34.17932" lon="76.9511">
        <ele>3881.4</ele>
        <time>2015-08-28T11:03:16Z</time>
      </trkpt>
      <trkpt lat="34.17925" lon="76.95119">
        <ele>3882.4</ele>
        <time>2015-08-28T11:03:31Z</time>
      </trkpt>
      <trkpt lat="34.17914" lon="76.95135">
        <ele>3883.2</ele>
        <time>2015-08-28T11:03:58Z</time>
      </trkpt>
      <trkpt lat="34.17912" lon="76.95137">
        <ele>3883.4</ele>
        <time>2015-08-28T11:04:03Z</time>
      </trkpt>
      <trkpt lat="34.17906" lon="76.95142">
        <ele>3884.4</ele>
        <time>2015-08-28T11:04:16Z</time>
      </trkpt>
      <trkpt lat="34.179" lon="76.95153">
        <ele>3885</ele>
        <time>2015-08-28T11:04:25Z</time>
      </trkpt>
      <trkpt lat="34.17899" lon="76.95154">
        <ele>3885</ele>
        <time>2015-08-28T11:04:27Z</time>
      </trkpt>
      <trkpt lat="34.17894" lon="76.95155">
        <ele>3885.6</ele>
        <time>2015-08-28T11:04:35Z</time>
      </trkpt>
      <trkpt lat="34.17889" lon="76.95156">
        <ele>3886.6</ele>
        <time>2015-08-28T11:04:43Z</time>
      </trkpt>
      <trkpt lat="34.17876" lon="76.95167">
        <ele>3887.6</ele>
        <time>2015-08-28T11:05:04Z</time>
      </trkpt>
      <trkpt lat="34.17869" lon="76.95181">
        <ele>3888.8</ele>
        <time>2015-08-28T11:05:23Z</time>
      </trkpt>
      <trkpt lat="34.17865" lon="76.95183">
        <ele>3889.8</ele>
        <time>2015-08-28T11:05:33Z</time>
      </trkpt>
      <trkpt lat="34.17849" lon="76.95189">
        <ele>3890.8</ele>
        <time>2015-08-28T11:05:53Z</time>
      </trkpt>
      <trkpt lat="34.17848" lon="76.9519">
        <ele>3890.8</ele>
        <time>2015-08-28T11:05:54Z</time>
      </trkpt>
      <trkpt lat="34.17831" lon="76.95193">
        <ele>3892</ele>
        <time>2015-08-28T11:06:14Z</time>
      </trkpt>
      <trkpt lat="34.17815" lon="76.95203">
        <ele>3891.6</ele>
        <time>2015-08-28T11:06:34Z</time>
      </trkpt>
      <trkpt lat="34.17802" lon="76.95219">
        <ele>3892.2</ele>
        <time>2015-08-28T11:07:01Z</time>
      </trkpt>
      <trkpt lat="34.1779" lon="76.95231">
        <ele>3892.2</ele>
        <time>2015-08-28T11:07:41Z</time>
      </trkpt>
      <trkpt lat="34.17786" lon="76.95241">
        <ele>3893</ele>
        <time>2015-08-28T11:07:50Z</time>
      </trkpt>
      <trkpt lat="34.17786" lon="76.95242">
        <ele>3893</ele>
        <time>2015-08-28T11:07:51Z</time>
      </trkpt>
      <trkpt lat="34.17777" lon="76.95251">
        <ele>3894</ele>
        <time>2015-08-28T11:08:05Z</time>
      </trkpt>
      <trkpt lat="34.17764" lon="76.95259">
        <ele>3895.2</ele>
        <time>2015-08-28T11:08:29Z</time>
      </trkpt>
      <trkpt lat="34.1776" lon="76.95264">
        <ele>3895.4</ele>
        <time>2015-08-28T11:08:34Z</time>
      </trkpt>
      <trkpt lat="34.17746" lon="76.95275">
        <ele>3895.8</ele>
        <time>2015-08-28T11:08:55Z</time>
      </trkpt>
      <trkpt lat="34.17745" lon="76.95277">
        <ele>3896</ele>
        <time>2015-08-28T11:08:57Z</time>
      </trkpt>
      <trkpt lat="34.17744" lon="76.95278">
        <ele>3896.2</ele>
        <time>2015-08-28T11:08:58Z</time>
      </trkpt>
      <trkpt lat="34.17741" lon="76.95282">
        <ele>3896.4</ele>
        <time>2015-08-28T11:09:03Z</time>
      </trkpt>
      <trkpt lat="34.17732" lon="76.95295">
        <ele>3897.2</ele>
        <time>2015-08-28T11:09:19Z</time>
      </trkpt>
      <trkpt lat="34.17723" lon="76.95307">
        <ele>3898.2</ele>
        <time>2015-08-28T11:09:32Z</time>
      </trkpt>
      <trkpt lat="34.17716" lon="76.95318">
        <ele>3898.8</ele>
        <time>2015-08-28T11:09:38Z</time>
      </trkpt>
      <trkpt lat="34.17716" lon="76.95316">
        <ele>3899</ele>
        <time>2015-08-28T11:09:42Z</time>
      </trkpt>
      <trkpt lat="34.17718" lon="76.95315">
        <ele>3899.4</ele>
        <time>2015-08-28T11:09:46Z</time>
      </trkpt>
      <trkpt lat="34.17718" lon="76.95323">
        <ele>3900.4</ele>
        <time>2015-08-28T11:09:58Z</time>
      </trkpt>
      <trkpt lat="34.17719" lon="76.95328">
        <ele>3901.4</ele>
        <time>2015-08-28T11:10:07Z</time>
      </trkpt>
      <trkpt lat="34.17721" lon="76.95331">
        <ele>3902.4</ele>
        <time>2015-08-28T11:10:18Z</time>
      </trkpt>
      <trkpt lat="34.17724" lon="76.95332">
        <ele>3903.4</ele>
        <time>2015-08-28T11:10:29Z</time>
      </trkpt>
      <trkpt lat="34.17725" lon="76.95339">
        <ele>3904.6</ele>
        <time>2015-08-28T11:10:38Z</time>
      </trkpt>
      <trkpt lat="34.17721" lon="76.95349">
        <ele>3905.6</ele>
        <time>2015-08-28T11:10:53Z</time>
      </trkpt>
      <trkpt lat="34.17718" lon="76.95361">
        <ele>3906.6</ele>
        <time>2015-08-28T11:11:07Z</time>
      </trkpt>
      <trkpt lat="34.17711" lon="76.9537">
        <ele>3907.6</ele>
        <time>2015-08-28T11:11:23Z</time>
      </trkpt>
      <trkpt lat="34.17711" lon="76.95367">
        <ele>3907.8</ele>
        <time>2015-08-28T11:11:25Z</time>
      </trkpt>
      <trkpt lat="34.17712" lon="76.9537">
        <ele>3908.8</ele>
        <time>2015-08-28T11:11:32Z</time>
      </trkpt>
      <trkpt lat="34.1771" lon="76.95385">
        <ele>3909</ele>
        <time>2015-08-28T11:12:07Z</time>
      </trkpt>
      <trkpt lat="34.17711" lon="76.95387">
        <ele>3908.8</ele>
        <time>2015-08-28T11:12:09Z</time>
      </trkpt>
      <trkpt lat="34.17711" lon="76.9539">
        <ele>3908.8</ele>
        <time>2015-08-28T11:12:11Z</time>
      </trkpt>
      <trkpt lat="34.1772" lon="76.95406">
        <ele>3908</ele>
        <time>2015-08-28T11:12:40Z</time>
      </trkpt>
      <trkpt lat="34.17715" lon="76.95417">
        <ele>3908.4</ele>
        <time>2015-08-28T11:12:51Z</time>
      </trkpt>
      <trkpt lat="34.1771" lon="76.95427">
        <ele>3908.4</ele>
        <time>2015-08-28T11:13:12Z</time>
      </trkpt>
      <trkpt lat="34.17717" lon="76.95447">
        <ele>3909.8</ele>
        <time>2015-08-28T11:13:31Z</time>
      </trkpt>
      <trkpt lat="34.17717" lon="76.95448">
        <ele>3909.8</ele>
        <time>2015-08-28T11:13:32Z</time>
      </trkpt>
      <trkpt lat="34.17714" lon="76.95459">
        <ele>3911</ele>
        <time>2015-08-28T11:13:44Z</time>
      </trkpt>
      <trkpt lat="34.17713" lon="76.95467">
        <ele>3912</ele>
        <time>2015-08-28T11:13:54Z</time>
      </trkpt>
      <trkpt lat="34.17709" lon="76.95481">
        <ele>3913.2</ele>
        <time>2015-08-28T11:14:10Z</time>
      </trkpt>
      <trkpt lat="34.17709" lon="76.95495">
        <ele>3914.2</ele>
        <time>2015-08-28T11:14:26Z</time>
      </trkpt>
      <trkpt lat="34.1771" lon="76.95501">
        <ele>3914.6</ele>
        <time>2015-08-28T11:14:31Z</time>
      </trkpt>
      <trkpt lat="34.17711" lon="76.95503">
        <ele>3914.6</ele>
        <time>2015-08-28T11:14:33Z</time>
      </trkpt>
      <trkpt lat="34.17711" lon="76.95506">
        <ele>3915</ele>
        <time>2015-08-28T11:14:35Z</time>
      </trkpt>
      <trkpt lat="34.17712" lon="76.95507">
        <ele>3915.2</ele>
        <time>2015-08-28T11:14:37Z</time>
      </trkpt>
      <trkpt lat="34.17713" lon="76.95508">
        <ele>3915.2</ele>
        <time>2015-08-28T11:14:38Z</time>
      </trkpt>
      <trkpt lat="34.17719" lon="76.95517">
        <ele>3916.4</ele>
        <time>2015-08-28T11:14:58Z</time>
      </trkpt>
      <trkpt lat="34.17723" lon="76.95516">
        <ele>3917.4</ele>
        <time>2015-08-28T11:15:06Z</time>
      </trkpt>
      <trkpt lat="34.17728" lon="76.95515">
        <ele>3918.6</ele>
        <time>2015-08-28T11:15:15Z</time>
      </trkpt>
      <trkpt lat="34.17733" lon="76.95513">
        <ele>3919.6</ele>
        <time>2015-08-28T11:15:24Z</time>
      </trkpt>
      <trkpt lat="34.17734" lon="76.95513">
        <ele>3920.4</ele>
        <time>2015-08-28T11:15:28Z</time>
      </trkpt>
      <trkpt lat="34.17734" lon="76.95512">
        <ele>3916.2</ele>
        <time>2015-08-28T11:15:33Z</time>
      </trkpt>
    </trkseg>
  </trk>
  <trk>
    <name><![CDATA[Camp d'Hinju (3920m) - Konze La Pass (4890m) - Camp de Sumda Chemno (4240m)]]></name>
    <trkseg>
      <trkpt lat="34.17733" lon="76.95507">
        <ele>3927.2</ele>
        <time>2015-08-29T02:44:45Z</time>
      </trkpt>
      <trkpt lat="34.17716" lon="76.95515">
        <ele>3926.2</ele>
        <time>2015-08-29T02:45:03Z</time>
      </trkpt>
      <trkpt lat="34.17714" lon="76.95513">
        <ele>3925.2</ele>
        <time>2015-08-29T02:45:11Z</time>
      </trkpt>
      <trkpt lat="34.17707" lon="76.95512">
        <ele>3924.2</ele>
        <time>2015-08-29T02:45:20Z</time>
      </trkpt>
      <trkpt lat="34.17706" lon="76.95511">
        <ele>3924</ele>
        <time>2015-08-29T02:45:21Z</time>
      </trkpt>
      <trkpt lat="34.17706" lon="76.95511">
        <ele>3923.6</ele>
        <time>2015-08-29T02:45:23Z</time>
      </trkpt>
      <trkpt lat="34.17705" lon="76.95511">
        <ele>3923</ele>
        <time>2015-08-29T02:45:26Z</time>
      </trkpt>
      <trkpt lat="34.17699" lon="76.95518">
        <ele>3922.2</ele>
        <time>2015-08-29T02:45:36Z</time>
      </trkpt>
      <trkpt lat="34.17699" lon="76.9552">
        <ele>3922.4</ele>
        <time>2015-08-29T02:45:39Z</time>
      </trkpt>
      <trkpt lat="34.17699" lon="76.95538">
        <ele>3923.6</ele>
        <time>2015-08-29T02:46:05Z</time>
      </trkpt>
      <trkpt lat="34.17695" lon="76.95546">
        <ele>3924</ele>
        <time>2015-08-29T02:46:17Z</time>
      </trkpt>
      <trkpt lat="34.17693" lon="76.95555">
        <ele>3924.8</ele>
        <time>2015-08-29T02:46:29Z</time>
      </trkpt>
      <trkpt lat="34.1769" lon="76.95558">
        <ele>3925</ele>
        <time>2015-08-29T02:46:34Z</time>
      </trkpt>
      <trkpt lat="34.17685" lon="76.95569">
        <ele>3926.2</ele>
        <time>2015-08-29T02:46:50Z</time>
      </trkpt>
      <trkpt lat="34.17681" lon="76.95578">
        <ele>3927.2</ele>
        <time>2015-08-29T02:47:00Z</time>
      </trkpt>
      <trkpt lat="34.17673" lon="76.95588">
        <ele>3928</ele>
        <time>2015-08-29T02:47:20Z</time>
      </trkpt>
      <trkpt lat="34.17677" lon="76.95597">
        <ele>3928.2</ele>
        <time>2015-08-29T02:47:27Z</time>
      </trkpt>
      <trkpt lat="34.17678" lon="76.95599">
        <ele>3928.4</ele>
        <time>2015-08-29T02:47:29Z</time>
      </trkpt>
      <trkpt lat="34.17678" lon="76.95616">
        <ele>3929.4</ele>
        <time>2015-08-29T02:47:50Z</time>
      </trkpt>
      <trkpt lat="34.17674" lon="76.95618">
        <ele>3930</ele>
        <time>2015-08-29T02:47:55Z</time>
      </trkpt>
      <trkpt lat="34.17674" lon="76.95622">
        <ele>3930</ele>
        <time>2015-08-29T02:47:58Z</time>
      </trkpt>
      <trkpt lat="34.17674" lon="76.95627">
        <ele>3929.8</ele>
        <time>2015-08-29T02:48:04Z</time>
      </trkpt>
      <trkpt lat="34.17672" lon="76.95632">
        <ele>3930.4</ele>
        <time>2015-08-29T02:48:09Z</time>
      </trkpt>
      <trkpt lat="34.17672" lon="76.95633">
        <ele>3930.4</ele>
        <time>2015-08-29T02:48:11Z</time>
      </trkpt>
      <trkpt lat="34.17662" lon="76.95645">
        <ele>3930.8</ele>
        <time>2015-08-29T02:48:28Z</time>
      </trkpt>
      <trkpt lat="34.17653" lon="76.95666">
        <ele>3931.4</ele>
        <time>2015-08-29T02:49:01Z</time>
      </trkpt>
      <trkpt lat="34.17655" lon="76.95674">
        <ele>3931.4</ele>
        <time>2015-08-29T02:49:09Z</time>
      </trkpt>
      <trkpt lat="34.17655" lon="76.95675">
        <ele>3931.4</ele>
        <time>2015-08-29T02:49:11Z</time>
      </trkpt>
      <trkpt lat="34.17648" lon="76.95683">
        <ele>3932.4</ele>
        <time>2015-08-29T02:49:28Z</time>
      </trkpt>
      <trkpt lat="34.17648" lon="76.95683">
        <ele>3932.4</ele>
        <time>2015-08-29T02:49:29Z</time>
      </trkpt>
      <trkpt lat="34.17647" lon="76.9569">
        <ele>3932.4</ele>
        <time>2015-08-29T02:49:34Z</time>
      </trkpt>
      <trkpt lat="34.17645" lon="76.95695">
        <ele>3933.4</ele>
        <time>2015-08-29T02:49:43Z</time>
      </trkpt>
      <trkpt lat="34.17646" lon="76.95707">
        <ele>3934.4</ele>
        <time>2015-08-29T02:50:01Z</time>
      </trkpt>
      <trkpt lat="34.17641" lon="76.95714">
        <ele>3935.6</ele>
        <time>2015-08-29T02:50:16Z</time>
      </trkpt>
      <trkpt lat="34.17639" lon="76.95726">
        <ele>3936.2</ele>
        <time>2015-08-29T02:50:30Z</time>
      </trkpt>
      <trkpt lat="34.17638" lon="76.95727">
        <ele>3936.2</ele>
        <time>2015-08-29T02:50:32Z</time>
      </trkpt>
      <trkpt lat="34.17636" lon="76.95731">
        <ele>3936.6</ele>
        <time>2015-08-29T02:50:37Z</time>
      </trkpt>
      <trkpt lat="34.17632" lon="76.95738">
        <ele>3937.2</ele>
        <time>2015-08-29T02:50:45Z</time>
      </trkpt>
      <trkpt lat="34.17625" lon="76.9575">
        <ele>3937.2</ele>
        <time>2015-08-29T02:51:04Z</time>
      </trkpt>
      <trkpt lat="34.17624" lon="76.95752">
        <ele>3937.6</ele>
        <time>2015-08-29T02:51:10Z</time>
      </trkpt>
      <trkpt lat="34.17624" lon="76.95757">
        <ele>3938.6</ele>
        <time>2015-08-29T02:51:18Z</time>
      </trkpt>
      <trkpt lat="34.17621" lon="76.95763">
        <ele>3939.4</ele>
        <time>2015-08-29T02:51:27Z</time>
      </trkpt>
      <trkpt lat="34.17624" lon="76.95774">
        <ele>3939.6</ele>
        <time>2015-08-29T02:51:39Z</time>
      </trkpt>
      <trkpt lat="34.17625" lon="76.95775">
        <ele>3939.8</ele>
        <time>2015-08-29T02:51:40Z</time>
      </trkpt>
      <trkpt lat="34.17625" lon="76.95776">
        <ele>3940</ele>
        <time>2015-08-29T02:51:42Z</time>
      </trkpt>
      <trkpt lat="34.17622" lon="76.95777">
        <ele>3940.4</ele>
        <time>2015-08-29T02:51:45Z</time>
      </trkpt>
      <trkpt lat="34.17618" lon="76.95781">
        <ele>3940.6</ele>
        <time>2015-08-29T02:51:51Z</time>
      </trkpt>
      <trkpt lat="34.17615" lon="76.95782">
        <ele>3940.8</ele>
        <time>2015-08-29T02:51:54Z</time>
      </trkpt>
      <trkpt lat="34.17615" lon="76.95783">
        <ele>3940.8</ele>
        <time>2015-08-29T02:51:55Z</time>
      </trkpt>
      <trkpt lat="34.17607" lon="76.95791">
        <ele>3941.6</ele>
        <time>2015-08-29T02:52:11Z</time>
      </trkpt>
      <trkpt lat="34.17605" lon="76.95793">
        <ele>3941.6</ele>
        <time>2015-08-29T02:52:14Z</time>
      </trkpt>
      <trkpt lat="34.17604" lon="76.95794">
        <ele>3941.6</ele>
        <time>2015-08-29T02:52:16Z</time>
      </trkpt>
      <trkpt lat="34.17604" lon="76.95795">
        <ele>3941.8</ele>
        <time>2015-08-29T02:52:18Z</time>
      </trkpt>
      <trkpt lat="34.17602" lon="76.95809">
        <ele>3942.6</ele>
        <time>2015-08-29T02:52:37Z</time>
      </trkpt>
      <trkpt lat="34.17603" lon="76.95812">
        <ele>3942.8</ele>
        <time>2015-08-29T02:52:39Z</time>
      </trkpt>
      <trkpt lat="34.17605" lon="76.95814">
        <ele>3943</ele>
        <time>2015-08-29T02:52:41Z</time>
      </trkpt>
      <trkpt lat="34.17605" lon="76.95815">
        <ele>3943</ele>
        <time>2015-08-29T02:52:42Z</time>
      </trkpt>
      <trkpt lat="34.17597" lon="76.95822">
        <ele>3943.8</ele>
        <time>2015-08-29T02:52:57Z</time>
      </trkpt>
      <trkpt lat="34.17594" lon="76.95824">
        <ele>3944</ele>
        <time>2015-08-29T02:53:01Z</time>
      </trkpt>
      <trkpt lat="34.1759" lon="76.95832">
        <ele>3944.8</ele>
        <time>2015-08-29T02:53:13Z</time>
      </trkpt>
      <trkpt lat="34.17586" lon="76.95835">
        <ele>3945</ele>
        <time>2015-08-29T02:53:20Z</time>
      </trkpt>
      <trkpt lat="34.17578" lon="76.95845">
        <ele>3946</ele>
        <time>2015-08-29T02:53:38Z</time>
      </trkpt>
      <trkpt lat="34.17575" lon="76.95853">
        <ele>3946.8</ele>
        <time>2015-08-29T02:53:52Z</time>
      </trkpt>
      <trkpt lat="34.17575" lon="76.95855">
        <ele>3947</ele>
        <time>2015-08-29T02:53:57Z</time>
      </trkpt>
      <trkpt lat="34.17579" lon="76.95854">
        <ele>3947.2</ele>
        <time>2015-08-29T02:54:12Z</time>
      </trkpt>
      <trkpt lat="34.17579" lon="76.95856">
        <ele>3947.6</ele>
        <time>2015-08-29T02:54:14Z</time>
      </trkpt>
      <trkpt lat="34.17572" lon="76.95862">
        <ele>3948</ele>
        <time>2015-08-29T02:54:31Z</time>
      </trkpt>
      <trkpt lat="34.1757" lon="76.95864">
        <ele>3948</ele>
        <time>2015-08-29T02:54:35Z</time>
      </trkpt>
      <trkpt lat="34.17567" lon="76.95863">
        <ele>3948.4</ele>
        <time>2015-08-29T02:54:38Z</time>
      </trkpt>
      <trkpt lat="34.1756" lon="76.95869">
        <ele>3949.2</ele>
        <time>2015-08-29T02:54:48Z</time>
      </trkpt>
      <trkpt lat="34.17556" lon="76.95872">
        <ele>3950.2</ele>
        <time>2015-08-29T02:54:59Z</time>
      </trkpt>
      <trkpt lat="34.17555" lon="76.95875">
        <ele>3950.6</ele>
        <time>2015-08-29T02:55:02Z</time>
      </trkpt>
      <trkpt lat="34.17552" lon="76.95877">
        <ele>3951.2</ele>
        <time>2015-08-29T02:55:07Z</time>
      </trkpt>
      <trkpt lat="34.17552" lon="76.95878">
        <ele>3951.4</ele>
        <time>2015-08-29T02:55:08Z</time>
      </trkpt>
      <trkpt lat="34.17549" lon="76.95878">
        <ele>3952.2</ele>
        <time>2015-08-29T02:55:15Z</time>
      </trkpt>
      <trkpt lat="34.17547" lon="76.95878">
        <ele>3952.4</ele>
        <time>2015-08-29T02:55:20Z</time>
      </trkpt>
      <trkpt lat="34.17545" lon="76.95882">
        <ele>3953.4</ele>
        <time>2015-08-29T02:55:30Z</time>
      </trkpt>
      <trkpt lat="34.17541" lon="76.95888">
        <ele>3954.4</ele>
        <time>2015-08-29T02:55:44Z</time>
      </trkpt>
      <trkpt lat="34.17536" lon="76.9589">
        <ele>3955.6</ele>
        <time>2015-08-29T02:55:54Z</time>
      </trkpt>
      <trkpt lat="34.17536" lon="76.95894">
        <ele>3956.8</ele>
        <time>2015-08-29T02:56:02Z</time>
      </trkpt>
      <trkpt lat="34.17533" lon="76.95899">
        <ele>3957.8</ele>
        <time>2015-08-29T02:56:12Z</time>
      </trkpt>
      <trkpt lat="34.17525" lon="76.95904">
        <ele>3958.8</ele>
        <time>2015-08-29T02:56:24Z</time>
      </trkpt>
      <trkpt lat="34.17525" lon="76.95905">
        <ele>3959</ele>
        <time>2015-08-29T02:56:26Z</time>
      </trkpt>
      <trkpt lat="34.1752" lon="76.95909">
        <ele>3959.8</ele>
        <time>2015-08-29T02:56:35Z</time>
      </trkpt>
      <trkpt lat="34.17516" lon="76.95911">
        <ele>3961</ele>
        <time>2015-08-29T02:56:44Z</time>
      </trkpt>
      <trkpt lat="34.17513" lon="76.95913">
        <ele>3962</ele>
        <time>2015-08-29T02:56:53Z</time>
      </trkpt>
      <trkpt lat="34.17512" lon="76.9592">
        <ele>3963.2</ele>
        <time>2015-08-29T02:57:00Z</time>
      </trkpt>
      <trkpt lat="34.17509" lon="76.95926">
        <ele>3964.2</ele>
        <time>2015-08-29T02:57:09Z</time>
      </trkpt>
      <trkpt lat="34.17509" lon="76.9593">
        <ele>3965.2</ele>
        <time>2015-08-29T02:57:17Z</time>
      </trkpt>
      <trkpt lat="34.17509" lon="76.95931">
        <ele>3965.4</ele>
        <time>2015-08-29T02:57:18Z</time>
      </trkpt>
      <trkpt lat="34.17505" lon="76.9593">
        <ele>3966.4</ele>
        <time>2015-08-29T02:57:29Z</time>
      </trkpt>
      <trkpt lat="34.17511" lon="76.95931">
        <ele>3965.6</ele>
        <time>2015-08-29T02:57:45Z</time>
      </trkpt>
      <trkpt lat="34.17513" lon="76.95934">
        <ele>3966.4</ele>
        <time>2015-08-29T02:57:49Z</time>
      </trkpt>
      <trkpt lat="34.17506" lon="76.95945">
        <ele>3967.4</ele>
        <time>2015-08-29T02:58:04Z</time>
      </trkpt>
      <trkpt lat="34.17503" lon="76.9595">
        <ele>3968.6</ele>
        <time>2015-08-29T02:58:12Z</time>
      </trkpt>
      <trkpt lat="34.17501" lon="76.95957">
        <ele>3969.6</ele>
        <time>2015-08-29T02:58:41Z</time>
      </trkpt>
      <trkpt lat="34.17494" lon="76.95963">
        <ele>3970.6</ele>
        <time>2015-08-29T02:58:58Z</time>
      </trkpt>
      <trkpt lat="34.17488" lon="76.95967">
        <ele>3971.4</ele>
        <time>2015-08-29T02:59:06Z</time>
      </trkpt>
      <trkpt lat="34.17486" lon="76.9597">
        <ele>3971.6</ele>
        <time>2015-08-29T02:59:08Z</time>
      </trkpt>
      <trkpt lat="34.17486" lon="76.95972">
        <ele>3971.8</ele>
        <time>2015-08-29T02:59:10Z</time>
      </trkpt>
      <trkpt lat="34.17485" lon="76.95973">
        <ele>3972</ele>
        <time>2015-08-29T02:59:12Z</time>
      </trkpt>
      <trkpt lat="34.17482" lon="76.95976">
        <ele>3972.2</ele>
        <time>2015-08-29T02:59:16Z</time>
      </trkpt>
      <trkpt lat="34.17481" lon="76.95977">
        <ele>3972.4</ele>
        <time>2015-08-29T02:59:19Z</time>
      </trkpt>
      <trkpt lat="34.1748" lon="76.95979">
        <ele>3972.6</ele>
        <time>2015-08-29T02:59:21Z</time>
      </trkpt>
      <trkpt lat="34.1748" lon="76.95979">
        <ele>3972.8</ele>
        <time>2015-08-29T02:59:22Z</time>
      </trkpt>
      <trkpt lat="34.17478" lon="76.95986">
        <ele>3974</ele>
        <time>2015-08-29T02:59:34Z</time>
      </trkpt>
      <trkpt lat="34.17469" lon="76.95993">
        <ele>3975</ele>
        <time>2015-08-29T02:59:49Z</time>
      </trkpt>
      <trkpt lat="34.17465" lon="76.96002">
        <ele>3975.6</ele>
        <time>2015-08-29T03:00:02Z</time>
      </trkpt>
      <trkpt lat="34.17463" lon="76.96003">
        <ele>3975.8</ele>
        <time>2015-08-29T03:00:05Z</time>
      </trkpt>
      <trkpt lat="34.17461" lon="76.96004">
        <ele>3976</ele>
        <time>2015-08-29T03:00:07Z</time>
      </trkpt>
      <trkpt lat="34.1746" lon="76.96005">
        <ele>3976.2</ele>
        <time>2015-08-29T03:00:10Z</time>
      </trkpt>
      <trkpt lat="34.17455" lon="76.96009">
        <ele>3977</ele>
        <time>2015-08-29T03:00:22Z</time>
      </trkpt>
      <trkpt lat="34.17453" lon="76.9601">
        <ele>3977.2</ele>
        <time>2015-08-29T03:00:24Z</time>
      </trkpt>
      <trkpt lat="34.17448" lon="76.96018">
        <ele>3978</ele>
        <time>2015-08-29T03:00:36Z</time>
      </trkpt>
      <trkpt lat="34.17442" lon="76.96029">
        <ele>3979</ele>
        <time>2015-08-29T03:00:52Z</time>
      </trkpt>
      <trkpt lat="34.1744" lon="76.9603">
        <ele>3979</ele>
        <time>2015-08-29T03:00:54Z</time>
      </trkpt>
      <trkpt lat="34.17439" lon="76.96032">
        <ele>3979.2</ele>
        <time>2015-08-29T03:00:56Z</time>
      </trkpt>
      <trkpt lat="34.17433" lon="76.9604">
        <ele>3980</ele>
        <time>2015-08-29T03:01:11Z</time>
      </trkpt>
      <trkpt lat="34.17429" lon="76.96046">
        <ele>3980.6</ele>
        <time>2015-08-29T03:01:23Z</time>
      </trkpt>
      <trkpt lat="34.17421" lon="76.96051">
        <ele>3981.2</ele>
        <time>2015-08-29T03:01:36Z</time>
      </trkpt>
      <trkpt lat="34.17414" lon="76.96057">
        <ele>3982.2</ele>
        <time>2015-08-29T03:01:48Z</time>
      </trkpt>
      <trkpt lat="34.17407" lon="76.96064">
        <ele>3983.2</ele>
        <time>2015-08-29T03:02:00Z</time>
      </trkpt>
      <trkpt lat="34.174" lon="76.96066">
        <ele>3984.4</ele>
        <time>2015-08-29T03:02:13Z</time>
      </trkpt>
      <trkpt lat="34.17395" lon="76.96069">
        <ele>3985.4</ele>
        <time>2015-08-29T03:02:28Z</time>
      </trkpt>
      <trkpt lat="34.17389" lon="76.96071">
        <ele>3986.4</ele>
        <time>2015-08-29T03:02:42Z</time>
      </trkpt>
      <trkpt lat="34.17383" lon="76.96072">
        <ele>3987.4</ele>
        <time>2015-08-29T03:02:53Z</time>
      </trkpt>
      <trkpt lat="34.17382" lon="76.96075">
        <ele>3988</ele>
        <time>2015-08-29T03:02:56Z</time>
      </trkpt>
      <trkpt lat="34.1738" lon="76.96077">
        <ele>3988.4</ele>
        <time>2015-08-29T03:03:01Z</time>
      </trkpt>
      <trkpt lat="34.17373" lon="76.9608">
        <ele>3989.4</ele>
        <time>2015-08-29T03:03:12Z</time>
      </trkpt>
      <trkpt lat="34.17367" lon="76.96079">
        <ele>3990.6</ele>
        <time>2015-08-29T03:03:26Z</time>
      </trkpt>
      <trkpt lat="34.17359" lon="76.96085">
        <ele>3991.6</ele>
        <time>2015-08-29T03:03:40Z</time>
      </trkpt>
      <trkpt lat="34.17357" lon="76.96093">
        <ele>3992.8</ele>
        <time>2015-08-29T03:03:51Z</time>
      </trkpt>
      <trkpt lat="34.17349" lon="76.96098">
        <ele>3993.8</ele>
        <time>2015-08-29T03:04:06Z</time>
      </trkpt>
      <trkpt lat="34.17341" lon="76.96104">
        <ele>3994.8</ele>
        <time>2015-08-29T03:04:23Z</time>
      </trkpt>
      <trkpt lat="34.17341" lon="76.96106">
        <ele>3995.2</ele>
        <time>2015-08-29T03:04:28Z</time>
      </trkpt>
      <trkpt lat="34.1734" lon="76.96108">
        <ele>3995.8</ele>
        <time>2015-08-29T03:04:33Z</time>
      </trkpt>
      <trkpt lat="34.17335" lon="76.96116">
        <ele>3996.8</ele>
        <time>2015-08-29T03:04:44Z</time>
      </trkpt>
      <trkpt lat="34.17333" lon="76.96119">
        <ele>3997</ele>
        <time>2015-08-29T03:04:48Z</time>
      </trkpt>
      <trkpt lat="34.17329" lon="76.96126">
        <ele>3998</ele>
        <time>2015-08-29T03:05:00Z</time>
      </trkpt>
      <trkpt lat="34.17324" lon="76.9613">
        <ele>3999</ele>
        <time>2015-08-29T03:05:15Z</time>
      </trkpt>
      <trkpt lat="34.17317" lon="76.96132">
        <ele>4000</ele>
        <time>2015-08-29T03:05:27Z</time>
      </trkpt>
      <trkpt lat="34.17311" lon="76.96135">
        <ele>4001</ele>
        <time>2015-08-29T03:05:39Z</time>
      </trkpt>
      <trkpt lat="34.17305" lon="76.96139">
        <ele>4002</ele>
        <time>2015-08-29T03:05:52Z</time>
      </trkpt>
      <trkpt lat="34.17297" lon="76.96139">
        <ele>4003.2</ele>
        <time>2015-08-29T03:06:02Z</time>
      </trkpt>
      <trkpt lat="34.1729" lon="76.9614">
        <ele>4004.2</ele>
        <time>2015-08-29T03:06:15Z</time>
      </trkpt>
      <trkpt lat="34.17282" lon="76.96146">
        <ele>4005.4</ele>
        <time>2015-08-29T03:06:30Z</time>
      </trkpt>
      <trkpt lat="34.1728" lon="76.96152">
        <ele>4006.4</ele>
        <time>2015-08-29T03:06:46Z</time>
      </trkpt>
      <trkpt lat="34.17274" lon="76.96158">
        <ele>4007.4</ele>
        <time>2015-08-29T03:06:57Z</time>
      </trkpt>
      <trkpt lat="34.17268" lon="76.96164">
        <ele>4008.4</ele>
        <time>2015-08-29T03:07:09Z</time>
      </trkpt>
      <trkpt lat="34.17263" lon="76.96166">
        <ele>4009.6</ele>
        <time>2015-08-29T03:07:18Z</time>
      </trkpt>
      <trkpt lat="34.17259" lon="76.96174">
        <ele>4010.6</ele>
        <time>2015-08-29T03:07:32Z</time>
      </trkpt>
      <trkpt lat="34.17254" lon="76.96181">
        <ele>4011.6</ele>
        <time>2015-08-29T03:07:46Z</time>
      </trkpt>
      <trkpt lat="34.17248" lon="76.96187">
        <ele>4012.6</ele>
        <time>2015-08-29T03:07:58Z</time>
      </trkpt>
      <trkpt lat="34.17244" lon="76.96192">
        <ele>4013.2</ele>
        <time>2015-08-29T03:08:08Z</time>
      </trkpt>
      <trkpt lat="34.17241" lon="76.96194">
        <ele>4013.6</ele>
        <time>2015-08-29T03:08:14Z</time>
      </trkpt>
      <trkpt lat="34.17235" lon="76.96202">
        <ele>4014.8</ele>
        <time>2015-08-29T03:08:32Z</time>
      </trkpt>
      <trkpt lat="34.17231" lon="76.96209">
        <ele>4015.8</ele>
        <time>2015-08-29T03:08:46Z</time>
      </trkpt>
      <trkpt lat="34.17224" lon="76.96215">
        <ele>4016.8</ele>
        <time>2015-08-29T03:09:03Z</time>
      </trkpt>
      <trkpt lat="34.17219" lon="76.96213">
        <ele>4018</ele>
        <time>2015-08-29T03:09:16Z</time>
      </trkpt>
      <trkpt lat="34.1721" lon="76.96214">
        <ele>4019</ele>
        <time>2015-08-29T03:09:31Z</time>
      </trkpt>
      <trkpt lat="34.17204" lon="76.96219">
        <ele>4020</ele>
        <time>2015-08-29T03:09:45Z</time>
      </trkpt>
      <trkpt lat="34.17198" lon="76.96227">
        <ele>4021</ele>
        <time>2015-08-29T03:09:59Z</time>
      </trkpt>
      <trkpt lat="34.17191" lon="76.96231">
        <ele>4022.2</ele>
        <time>2015-08-29T03:10:13Z</time>
      </trkpt>
      <trkpt lat="34.17186" lon="76.96231">
        <ele>4023.2</ele>
        <time>2015-08-29T03:10:24Z</time>
      </trkpt>
      <trkpt lat="34.17181" lon="76.96235">
        <ele>4024.2</ele>
        <time>2015-08-29T03:10:36Z</time>
      </trkpt>
      <trkpt lat="34.17175" lon="76.96236">
        <ele>4025.2</ele>
        <time>2015-08-29T03:10:49Z</time>
      </trkpt>
      <trkpt lat="34.1717" lon="76.9624">
        <ele>4026.4</ele>
        <time>2015-08-29T03:11:00Z</time>
      </trkpt>
      <trkpt lat="34.17164" lon="76.96244">
        <ele>4027.4</ele>
        <time>2015-08-29T03:11:13Z</time>
      </trkpt>
      <trkpt lat="34.17159" lon="76.96256">
        <ele>4028.4</ele>
        <time>2015-08-29T03:11:26Z</time>
      </trkpt>
      <trkpt lat="34.17156" lon="76.96258">
        <ele>4029.6</ele>
        <time>2015-08-29T03:11:37Z</time>
      </trkpt>
      <trkpt lat="34.17151" lon="76.96262">
        <ele>4030.6</ele>
        <time>2015-08-29T03:11:55Z</time>
      </trkpt>
      <trkpt lat="34.17146" lon="76.96265">
        <ele>4031</ele>
        <time>2015-08-29T03:11:58Z</time>
      </trkpt>
      <trkpt lat="34.17145" lon="76.96267">
        <ele>4031</ele>
        <time>2015-08-29T03:12:01Z</time>
      </trkpt>
      <trkpt lat="34.17144" lon="76.96271">
        <ele>4031.4</ele>
        <time>2015-08-29T03:12:03Z</time>
      </trkpt>
      <trkpt lat="34.17141" lon="76.96274">
        <ele>4031.6</ele>
        <time>2015-08-29T03:12:10Z</time>
      </trkpt>
      <trkpt lat="34.17139" lon="76.96279">
        <ele>4032.6</ele>
        <time>2015-08-29T03:12:19Z</time>
      </trkpt>
      <trkpt lat="34.17133" lon="76.96285">
        <ele>4033.6</ele>
        <time>2015-08-29T03:12:36Z</time>
      </trkpt>
      <trkpt lat="34.17126" lon="76.96291">
        <ele>4034.6</ele>
        <time>2015-08-29T03:12:51Z</time>
      </trkpt>
      <trkpt lat="34.17125" lon="76.96292">
        <ele>4034.8</ele>
        <time>2015-08-29T03:12:53Z</time>
      </trkpt>
      <trkpt lat="34.17122" lon="76.96292">
        <ele>4035.8</ele>
        <time>2015-08-29T03:13:01Z</time>
      </trkpt>
      <trkpt lat="34.17117" lon="76.96298">
        <ele>4036.8</ele>
        <time>2015-08-29T03:13:14Z</time>
      </trkpt>
      <trkpt lat="34.17114" lon="76.96301">
        <ele>4038</ele>
        <time>2015-08-29T03:13:27Z</time>
      </trkpt>
      <trkpt lat="34.17108" lon="76.96305">
        <ele>4039</ele>
        <time>2015-08-29T03:13:42Z</time>
      </trkpt>
      <trkpt lat="34.17102" lon="76.96306">
        <ele>4040</ele>
        <time>2015-08-29T03:13:54Z</time>
      </trkpt>
      <trkpt lat="34.17095" lon="76.96311">
        <ele>4041</ele>
        <time>2015-08-29T03:14:09Z</time>
      </trkpt>
      <trkpt lat="34.17089" lon="76.96311">
        <ele>4042.2</ele>
        <time>2015-08-29T03:14:20Z</time>
      </trkpt>
      <trkpt lat="34.17087" lon="76.96313">
        <ele>4043.2</ele>
        <time>2015-08-29T03:14:30Z</time>
      </trkpt>
      <trkpt lat="34.17081" lon="76.96319">
        <ele>4044.2</ele>
        <time>2015-08-29T03:14:42Z</time>
      </trkpt>
      <trkpt lat="34.17077" lon="76.96323">
        <ele>4045.2</ele>
        <time>2015-08-29T03:14:53Z</time>
      </trkpt>
      <trkpt lat="34.17071" lon="76.9633">
        <ele>4046.4</ele>
        <time>2015-08-29T03:15:05Z</time>
      </trkpt>
      <trkpt lat="34.17067" lon="76.96336">
        <ele>4047.4</ele>
        <time>2015-08-29T03:15:18Z</time>
      </trkpt>
      <trkpt lat="34.17064" lon="76.96337">
        <ele>4047.8</ele>
        <time>2015-08-29T03:15:22Z</time>
      </trkpt>
      <trkpt lat="34.1706" lon="76.96335">
        <ele>4048.4</ele>
        <time>2015-08-29T03:15:29Z</time>
      </trkpt>
      <trkpt lat="34.17052" lon="76.9634">
        <ele>4049.2</ele>
        <time>2015-08-29T03:15:42Z</time>
      </trkpt>
      <trkpt lat="34.1705" lon="76.96345">
        <ele>4049.6</ele>
        <time>2015-08-29T03:15:50Z</time>
      </trkpt>
      <trkpt lat="34.17045" lon="76.96348">
        <ele>4050.6</ele>
        <time>2015-08-29T03:16:01Z</time>
      </trkpt>
      <trkpt lat="34.17039" lon="76.96356">
        <ele>4051.6</ele>
        <time>2015-08-29T03:16:16Z</time>
      </trkpt>
      <trkpt lat="34.17032" lon="76.96358">
        <ele>4052.8</ele>
        <time>2015-08-29T03:16:30Z</time>
      </trkpt>
      <trkpt lat="34.1703" lon="76.96368">
        <ele>4053.4</ele>
        <time>2015-08-29T03:16:38Z</time>
      </trkpt>
      <trkpt lat="34.17029" lon="76.96369">
        <ele>4053.8</ele>
        <time>2015-08-29T03:16:40Z</time>
      </trkpt>
      <trkpt lat="34.17023" lon="76.96377">
        <ele>4054.8</ele>
        <time>2015-08-29T03:16:57Z</time>
      </trkpt>
      <trkpt lat="34.17018" lon="76.9638">
        <ele>4056</ele>
        <time>2015-08-29T03:17:07Z</time>
      </trkpt>
      <trkpt lat="34.17013" lon="76.96393">
        <ele>4057</ele>
        <time>2015-08-29T03:17:21Z</time>
      </trkpt>
      <trkpt lat="34.17008" lon="76.96406">
        <ele>4058</ele>
        <time>2015-08-29T03:17:40Z</time>
      </trkpt>
      <trkpt lat="34.17001" lon="76.96415">
        <ele>4059</ele>
        <time>2015-08-29T03:17:57Z</time>
      </trkpt>
      <trkpt lat="34.16995" lon="76.96421">
        <ele>4060</ele>
        <time>2015-08-29T03:18:07Z</time>
      </trkpt>
      <trkpt lat="34.16993" lon="76.96431">
        <ele>4059.6</ele>
        <time>2015-08-29T03:18:18Z</time>
      </trkpt>
      <trkpt lat="34.16996" lon="76.96443">
        <ele>4059.8</ele>
        <time>2015-08-29T03:18:30Z</time>
      </trkpt>
      <trkpt lat="34.16996" lon="76.96445">
        <ele>4059.8</ele>
        <time>2015-08-29T03:18:33Z</time>
      </trkpt>
      <trkpt lat="34.17" lon="76.96467">
        <ele>4060.8</ele>
        <time>2015-08-29T03:18:54Z</time>
      </trkpt>
      <trkpt lat="34.16999" lon="76.96471">
        <ele>4061</ele>
        <time>2015-08-29T03:18:57Z</time>
      </trkpt>
      <trkpt lat="34.16999" lon="76.96474">
        <ele>4061.2</ele>
        <time>2015-08-29T03:19:00Z</time>
      </trkpt>
      <trkpt lat="34.17" lon="76.96476">
        <ele>4061.4</ele>
        <time>2015-08-29T03:19:02Z</time>
      </trkpt>
      <trkpt lat="34.16997" lon="76.96478">
        <ele>4061.4</ele>
        <time>2015-08-29T03:19:07Z</time>
      </trkpt>
      <trkpt lat="34.1699" lon="76.96478">
        <ele>4062</ele>
        <time>2015-08-29T03:19:18Z</time>
      </trkpt>
      <trkpt lat="34.16985" lon="76.96476">
        <ele>4062.4</ele>
        <time>2015-08-29T03:19:23Z</time>
      </trkpt>
      <trkpt lat="34.16984" lon="76.96475">
        <ele>4062.6</ele>
        <time>2015-08-29T03:19:25Z</time>
      </trkpt>
      <trkpt lat="34.16976" lon="76.96471">
        <ele>4062.8</ele>
        <time>2015-08-29T03:19:34Z</time>
      </trkpt>
      <trkpt lat="34.16975" lon="76.96471">
        <ele>4063</ele>
        <time>2015-08-29T03:19:36Z</time>
      </trkpt>
      <trkpt lat="34.16969" lon="76.96488">
        <ele>4063</ele>
        <time>2015-08-29T03:19:50Z</time>
      </trkpt>
      <trkpt lat="34.16966" lon="76.965">
        <ele>4063</ele>
        <time>2015-08-29T03:19:57Z</time>
      </trkpt>
      <trkpt lat="34.16964" lon="76.96501">
        <ele>4063.2</ele>
        <time>2015-08-29T03:20:00Z</time>
      </trkpt>
      <trkpt lat="34.16962" lon="76.96515">
        <ele>4063.6</ele>
        <time>2015-08-29T03:20:24Z</time>
      </trkpt>
      <trkpt lat="34.16956" lon="76.96527">
        <ele>4064</ele>
        <time>2015-08-29T03:20:36Z</time>
      </trkpt>
      <trkpt lat="34.16952" lon="76.96534">
        <ele>4064.2</ele>
        <time>2015-08-29T03:20:46Z</time>
      </trkpt>
      <trkpt lat="34.16948" lon="76.96549">
        <ele>4065</ele>
        <time>2015-08-29T03:21:01Z</time>
      </trkpt>
      <trkpt lat="34.16946" lon="76.96571">
        <ele>4064.8</ele>
        <time>2015-08-29T03:21:25Z</time>
      </trkpt>
      <trkpt lat="34.16942" lon="76.96593">
        <ele>4065</ele>
        <time>2015-08-29T03:21:43Z</time>
      </trkpt>
      <trkpt lat="34.1694" lon="76.96603">
        <ele>4065</ele>
        <time>2015-08-29T03:21:52Z</time>
      </trkpt>
      <trkpt lat="34.16939" lon="76.96607">
        <ele>4065</ele>
        <time>2015-08-29T03:21:56Z</time>
      </trkpt>
      <trkpt lat="34.16939" lon="76.96613">
        <ele>4065.2</ele>
        <time>2015-08-29T03:22:01Z</time>
      </trkpt>
      <trkpt lat="34.16937" lon="76.96619">
        <ele>4065.2</ele>
        <time>2015-08-29T03:22:06Z</time>
      </trkpt>
      <trkpt lat="34.16921" lon="76.96632">
        <ele>4065.4</ele>
        <time>2015-08-29T03:22:29Z</time>
      </trkpt>
      <trkpt lat="34.16915" lon="76.96639">
        <ele>4066.2</ele>
        <time>2015-08-29T03:22:42Z</time>
      </trkpt>
      <trkpt lat="34.16913" lon="76.96653">
        <ele>4067.2</ele>
        <time>2015-08-29T03:22:51Z</time>
      </trkpt>
      <trkpt lat="34.16913" lon="76.96652">
        <ele>4067.4</ele>
        <time>2015-08-29T03:22:52Z</time>
      </trkpt>
      <trkpt lat="34.16913" lon="76.96654">
        <ele>4067.6</ele>
        <time>2015-08-29T03:22:54Z</time>
      </trkpt>
      <trkpt lat="34.16912" lon="76.96662">
        <ele>4068.4</ele>
        <time>2015-08-29T03:23:06Z</time>
      </trkpt>
      <trkpt lat="34.16914" lon="76.96683">
        <ele>4068.6</ele>
        <time>2015-08-29T03:23:27Z</time>
      </trkpt>
      <trkpt lat="34.16914" lon="76.96685">
        <ele>4068.4</ele>
        <time>2015-08-29T03:23:29Z</time>
      </trkpt>
      <trkpt lat="34.16918" lon="76.96697">
        <ele>4067.4</ele>
        <time>2015-08-29T03:23:39Z</time>
      </trkpt>
      <trkpt lat="34.16927" lon="76.96716">
        <ele>4066.8</ele>
        <time>2015-08-29T03:24:00Z</time>
      </trkpt>
      <trkpt lat="34.16927" lon="76.96736">
        <ele>4066.4</ele>
        <time>2015-08-29T03:24:20Z</time>
      </trkpt>
      <trkpt lat="34.16927" lon="76.96736">
        <ele>4066.4</ele>
        <time>2015-08-29T03:24:21Z</time>
      </trkpt>
      <trkpt lat="34.16922" lon="76.96751">
        <ele>4066.8</ele>
        <time>2015-08-29T03:24:33Z</time>
      </trkpt>
      <trkpt lat="34.16915" lon="76.96771">
        <ele>4067.2</ele>
        <time>2015-08-29T03:24:54Z</time>
      </trkpt>
      <trkpt lat="34.1691" lon="76.96786">
        <ele>4067.8</ele>
        <time>2015-08-29T03:25:10Z</time>
      </trkpt>
      <trkpt lat="34.16906" lon="76.96794">
        <ele>4068</ele>
        <time>2015-08-29T03:25:19Z</time>
      </trkpt>
      <trkpt lat="34.16904" lon="76.96804">
        <ele>4068.4</ele>
        <time>2015-08-29T03:25:30Z</time>
      </trkpt>
      <trkpt lat="34.16904" lon="76.96807">
        <ele>4068.4</ele>
        <time>2015-08-29T03:25:33Z</time>
      </trkpt>
      <trkpt lat="34.16902" lon="76.96819">
        <ele>4069.4</ele>
        <time>2015-08-29T03:25:49Z</time>
      </trkpt>
      <trkpt lat="34.16896" lon="76.96833">
        <ele>4070.4</ele>
        <time>2015-08-29T03:26:07Z</time>
      </trkpt>
      <trkpt lat="34.1689" lon="76.96838">
        <ele>4071.6</ele>
        <time>2015-08-29T03:26:19Z</time>
      </trkpt>
      <trkpt lat="34.16885" lon="76.9685">
        <ele>4072.6</ele>
        <time>2015-08-29T03:26:35Z</time>
      </trkpt>
      <trkpt lat="34.16883" lon="76.96862">
        <ele>4073.2</ele>
        <time>2015-08-29T03:26:51Z</time>
      </trkpt>
      <trkpt lat="34.16882" lon="76.96864">
        <ele>4073.4</ele>
        <time>2015-08-29T03:26:54Z</time>
      </trkpt>
      <trkpt lat="34.16882" lon="76.96865">
        <ele>4073.6</ele>
        <time>2015-08-29T03:26:55Z</time>
      </trkpt>
      <trkpt lat="34.16881" lon="76.96873">
        <ele>4074.6</ele>
        <time>2015-08-29T03:27:06Z</time>
      </trkpt>
      <trkpt lat="34.16878" lon="76.96877">
        <ele>4075.6</ele>
        <time>2015-08-29T03:27:16Z</time>
      </trkpt>
      <trkpt lat="34.16873" lon="76.96887">
        <ele>4076.8</ele>
        <time>2015-08-29T03:27:32Z</time>
      </trkpt>
      <trkpt lat="34.1687" lon="76.96892">
        <ele>4077.8</ele>
        <time>2015-08-29T03:27:45Z</time>
      </trkpt>
      <trkpt lat="34.16856" lon="76.96907">
        <ele>4078.8</ele>
        <time>2015-08-29T03:28:16Z</time>
      </trkpt>
      <trkpt lat="34.1685" lon="76.96911">
        <ele>4079.8</ele>
        <time>2015-08-29T03:28:29Z</time>
      </trkpt>
      <trkpt lat="34.16836" lon="76.96918">
        <ele>4080.8</ele>
        <time>2015-08-29T03:28:53Z</time>
      </trkpt>
      <trkpt lat="34.1683" lon="76.96923">
        <ele>4082</ele>
        <time>2015-08-29T03:29:09Z</time>
      </trkpt>
      <trkpt lat="34.16816" lon="76.9692">
        <ele>4083</ele>
        <time>2015-08-29T03:29:23Z</time>
      </trkpt>
      <trkpt lat="34.1681" lon="76.96926">
        <ele>4084</ele>
        <time>2015-08-29T03:29:35Z</time>
      </trkpt>
      <trkpt lat="34.16806" lon="76.96924">
        <ele>4085</ele>
        <time>2015-08-29T03:29:46Z</time>
      </trkpt>
      <trkpt lat="34.16801" lon="76.96935">
        <ele>4086</ele>
        <time>2015-08-29T03:29:57Z</time>
      </trkpt>
      <trkpt lat="34.16797" lon="76.96939">
        <ele>4087.2</ele>
        <time>2015-08-29T03:30:08Z</time>
      </trkpt>
      <trkpt lat="34.16794" lon="76.96943">
        <ele>4088.2</ele>
        <time>2015-08-29T03:30:20Z</time>
      </trkpt>
      <trkpt lat="34.16793" lon="76.96951">
        <ele>4089.2</ele>
        <time>2015-08-29T03:30:30Z</time>
      </trkpt>
      <trkpt lat="34.16791" lon="76.96955">
        <ele>4090.2</ele>
        <time>2015-08-29T03:30:41Z</time>
      </trkpt>
      <trkpt lat="34.16787" lon="76.96967">
        <ele>4091.4</ele>
        <time>2015-08-29T03:30:59Z</time>
      </trkpt>
      <trkpt lat="34.16785" lon="76.9697">
        <ele>4091.6</ele>
        <time>2015-08-29T03:31:03Z</time>
      </trkpt>
      <trkpt lat="34.16781" lon="76.96978">
        <ele>4092.4</ele>
        <time>2015-08-29T03:31:13Z</time>
      </trkpt>
      <trkpt lat="34.16775" lon="76.96985">
        <ele>4093.4</ele>
        <time>2015-08-29T03:31:31Z</time>
      </trkpt>
      <trkpt lat="34.16764" lon="76.97002">
        <ele>4094.2</ele>
        <time>2015-08-29T03:31:57Z</time>
      </trkpt>
      <trkpt lat="34.16763" lon="76.97004">
        <ele>4094.4</ele>
        <time>2015-08-29T03:31:59Z</time>
      </trkpt>
      <trkpt lat="34.16758" lon="76.97015">
        <ele>4095</ele>
        <time>2015-08-29T03:32:13Z</time>
      </trkpt>
      <trkpt lat="34.16755" lon="76.97015">
        <ele>4095</ele>
        <time>2015-08-29T03:32:17Z</time>
      </trkpt>
      <trkpt lat="34.16752" lon="76.97018">
        <ele>4095.4</ele>
        <time>2015-08-29T03:32:22Z</time>
      </trkpt>
      <trkpt lat="34.16749" lon="76.97026">
        <ele>4096.6</ele>
        <time>2015-08-29T03:32:34Z</time>
      </trkpt>
      <trkpt lat="34.16748" lon="76.97028">
        <ele>4097.2</ele>
        <time>2015-08-29T03:32:37Z</time>
      </trkpt>
      <trkpt lat="34.16747" lon="76.97028">
        <ele>4097.6</ele>
        <time>2015-08-29T03:32:40Z</time>
      </trkpt>
      <trkpt lat="34.16746" lon="76.97028">
        <ele>4097.6</ele>
        <time>2015-08-29T03:32:41Z</time>
      </trkpt>
      <trkpt lat="34.16736" lon="76.97028">
        <ele>4098.6</ele>
        <time>2015-08-29T03:33:02Z</time>
      </trkpt>
      <trkpt lat="34.16727" lon="76.97035">
        <ele>4099.8</ele>
        <time>2015-08-29T03:33:17Z</time>
      </trkpt>
      <trkpt lat="34.16721" lon="76.97038">
        <ele>4100.8</ele>
        <time>2015-08-29T03:33:28Z</time>
      </trkpt>
      <trkpt lat="34.16714" lon="76.97045">
        <ele>4101.8</ele>
        <time>2015-08-29T03:33:43Z</time>
      </trkpt>
      <trkpt lat="34.16706" lon="76.97051">
        <ele>4103</ele>
        <time>2015-08-29T03:34:00Z</time>
      </trkpt>
      <trkpt lat="34.16695" lon="76.97057">
        <ele>4104</ele>
        <time>2015-08-29T03:34:15Z</time>
      </trkpt>
      <trkpt lat="34.16682" lon="76.97064">
        <ele>4105</ele>
        <time>2015-08-29T03:34:37Z</time>
      </trkpt>
      <trkpt lat="34.16675" lon="76.97068">
        <ele>4106</ele>
        <time>2015-08-29T03:34:50Z</time>
      </trkpt>
      <trkpt lat="34.1667" lon="76.97072">
        <ele>4107.2</ele>
        <time>2015-08-29T03:35:01Z</time>
      </trkpt>
      <trkpt lat="34.16664" lon="76.97076">
        <ele>4108.2</ele>
        <time>2015-08-29T03:35:11Z</time>
      </trkpt>
      <trkpt lat="34.16659" lon="76.97079">
        <ele>4109.2</ele>
        <time>2015-08-29T03:35:22Z</time>
      </trkpt>
      <trkpt lat="34.16657" lon="76.97085">
        <ele>4110.2</ele>
        <time>2015-08-29T03:35:30Z</time>
      </trkpt>
      <trkpt lat="34.16657" lon="76.97093">
        <ele>4111.2</ele>
        <time>2015-08-29T03:35:39Z</time>
      </trkpt>
      <trkpt lat="34.16655" lon="76.97096">
        <ele>4112.4</ele>
        <time>2015-08-29T03:35:49Z</time>
      </trkpt>
      <trkpt lat="34.16652" lon="76.97098">
        <ele>4113.4</ele>
        <time>2015-08-29T03:36:02Z</time>
      </trkpt>
      <trkpt lat="34.1665" lon="76.971">
        <ele>4114.6</ele>
        <time>2015-08-29T03:36:11Z</time>
      </trkpt>
      <trkpt lat="34.16642" lon="76.97113">
        <ele>4115.6</ele>
        <time>2015-08-29T03:36:28Z</time>
      </trkpt>
      <trkpt lat="34.16639" lon="76.97115">
        <ele>4116.8</ele>
        <time>2015-08-29T03:36:35Z</time>
      </trkpt>
      <trkpt lat="34.16634" lon="76.97124">
        <ele>4117.8</ele>
        <time>2015-08-29T03:36:46Z</time>
      </trkpt>
      <trkpt lat="34.16634" lon="76.97124">
        <ele>4118</ele>
        <time>2015-08-29T03:36:47Z</time>
      </trkpt>
      <trkpt lat="34.16625" lon="76.97127">
        <ele>4119</ele>
        <time>2015-08-29T03:37:08Z</time>
      </trkpt>
      <trkpt lat="34.16622" lon="76.97126">
        <ele>4120</ele>
        <time>2015-08-29T03:37:20Z</time>
      </trkpt>
      <trkpt lat="34.16616" lon="76.97131">
        <ele>4121</ele>
        <time>2015-08-29T03:37:32Z</time>
      </trkpt>
      <trkpt lat="34.16608" lon="76.97133">
        <ele>4122.2</ele>
        <time>2015-08-29T03:37:46Z</time>
      </trkpt>
      <trkpt lat="34.16606" lon="76.97133">
        <ele>4123.2</ele>
        <time>2015-08-29T03:37:56Z</time>
      </trkpt>
      <trkpt lat="34.16603" lon="76.97136">
        <ele>4124.4</ele>
        <time>2015-08-29T03:38:02Z</time>
      </trkpt>
      <trkpt lat="34.16599" lon="76.97137">
        <ele>4125.4</ele>
        <time>2015-08-29T03:38:10Z</time>
      </trkpt>
      <trkpt lat="34.16594" lon="76.97143">
        <ele>4126.4</ele>
        <time>2015-08-29T03:38:24Z</time>
      </trkpt>
      <trkpt lat="34.16591" lon="76.97147">
        <ele>4127.4</ele>
        <time>2015-08-29T03:38:35Z</time>
      </trkpt>
      <trkpt lat="34.16585" lon="76.97148">
        <ele>4128.4</ele>
        <time>2015-08-29T03:38:45Z</time>
      </trkpt>
      <trkpt lat="34.16579" lon="76.97165">
        <ele>4129.6</ele>
        <time>2015-08-29T03:39:05Z</time>
      </trkpt>
      <trkpt lat="34.16582" lon="76.97168">
        <ele>4130.6</ele>
        <time>2015-08-29T03:39:17Z</time>
      </trkpt>
      <trkpt lat="34.16585" lon="76.97176">
        <ele>4131.6</ele>
        <time>2015-08-29T03:39:38Z</time>
      </trkpt>
      <trkpt lat="34.16582" lon="76.97179">
        <ele>4131.6</ele>
        <time>2015-08-29T03:40:08Z</time>
      </trkpt>
      <trkpt lat="34.1659" lon="76.9718">
        <ele>4132</ele>
        <time>2015-08-29T03:40:16Z</time>
      </trkpt>
      <trkpt lat="34.16574" lon="76.97174">
        <ele>4131.2</ele>
        <time>2015-08-29T03:40:37Z</time>
      </trkpt>
      <trkpt lat="34.16568" lon="76.97165">
        <ele>4131.8</ele>
        <time>2015-08-29T03:40:44Z</time>
      </trkpt>
      <trkpt lat="34.16587" lon="76.97174">
        <ele>4131.4</ele>
        <time>2015-08-29T03:41:16Z</time>
      </trkpt>
      <trkpt lat="34.16586" lon="76.9718">
        <ele>4131.4</ele>
        <time>2015-08-29T03:41:31Z</time>
      </trkpt>
      <trkpt lat="34.16587" lon="76.9718">
        <ele>4131.2</ele>
        <time>2015-08-29T03:41:32Z</time>
      </trkpt>
      <trkpt lat="34.16586" lon="76.9718">
        <ele>4131.2</ele>
        <time>2015-08-29T03:41:34Z</time>
      </trkpt>
      <trkpt lat="34.16591" lon="76.97184">
        <ele>4131.6</ele>
        <time>2015-08-29T03:42:04Z</time>
      </trkpt>
      <trkpt lat="34.16593" lon="76.97179">
        <ele>4132.4</ele>
        <time>2015-08-29T03:42:16Z</time>
      </trkpt>
      <trkpt lat="34.16593" lon="76.97176">
        <ele>4132.4</ele>
        <time>2015-08-29T03:42:20Z</time>
      </trkpt>
      <trkpt lat="34.16581" lon="76.97165">
        <ele>4131.2</ele>
        <time>2015-08-29T03:42:53Z</time>
      </trkpt>
      <trkpt lat="34.16585" lon="76.97168">
        <ele>4131.6</ele>
        <time>2015-08-29T03:43:48Z</time>
      </trkpt>
      <trkpt lat="34.16583" lon="76.9717">
        <ele>4131.4</ele>
        <time>2015-08-29T03:43:55Z</time>
      </trkpt>
      <trkpt lat="34.16585" lon="76.97174">
        <ele>4131.4</ele>
        <time>2015-08-29T03:43:59Z</time>
      </trkpt>
      <trkpt lat="34.16574" lon="76.97163">
        <ele>4131</ele>
        <time>2015-08-29T03:44:52Z</time>
      </trkpt>
      <trkpt lat="34.16566" lon="76.97164">
        <ele>4132.6</ele>
        <time>2015-08-29T03:45:10Z</time>
      </trkpt>
      <trkpt lat="34.16564" lon="76.97167">
        <ele>4133.8</ele>
        <time>2015-08-29T03:45:18Z</time>
      </trkpt>
      <trkpt lat="34.1656" lon="76.97169">
        <ele>4134.8</ele>
        <time>2015-08-29T03:45:26Z</time>
      </trkpt>
      <trkpt lat="34.16557" lon="76.97171">
        <ele>4136</ele>
        <time>2015-08-29T03:45:35Z</time>
      </trkpt>
      <trkpt lat="34.16551" lon="76.97175">
        <ele>4137</ele>
        <time>2015-08-29T03:45:48Z</time>
      </trkpt>
      <trkpt lat="34.16545" lon="76.97181">
        <ele>4138</ele>
        <time>2015-08-29T03:45:56Z</time>
      </trkpt>
      <trkpt lat="34.16538" lon="76.97188">
        <ele>4139.2</ele>
        <time>2015-08-29T03:46:11Z</time>
      </trkpt>
      <trkpt lat="34.16535" lon="76.97186">
        <ele>4140.2</ele>
        <time>2015-08-29T03:46:21Z</time>
      </trkpt>
      <trkpt lat="34.1653" lon="76.97188">
        <ele>4141.2</ele>
        <time>2015-08-29T03:46:33Z</time>
      </trkpt>
      <trkpt lat="34.16525" lon="76.97191">
        <ele>4142.4</ele>
        <time>2015-08-29T03:46:42Z</time>
      </trkpt>
      <trkpt lat="34.16524" lon="76.97194">
        <ele>4142.8</ele>
        <time>2015-08-29T03:46:45Z</time>
      </trkpt>
      <trkpt lat="34.16523" lon="76.97198">
        <ele>4143.4</ele>
        <time>2015-08-29T03:46:49Z</time>
      </trkpt>
      <trkpt lat="34.16518" lon="76.97205">
        <ele>4144.4</ele>
        <time>2015-08-29T03:46:59Z</time>
      </trkpt>
      <trkpt lat="34.16513" lon="76.97205">
        <ele>4145.6</ele>
        <time>2015-08-29T03:47:11Z</time>
      </trkpt>
      <trkpt lat="34.16509" lon="76.97208">
        <ele>4146.6</ele>
        <time>2015-08-29T03:47:22Z</time>
      </trkpt>
      <trkpt lat="34.16504" lon="76.97215">
        <ele>4147.4</ele>
        <time>2015-08-29T03:47:30Z</time>
      </trkpt>
      <trkpt lat="34.16503" lon="76.97214">
        <ele>4147.6</ele>
        <time>2015-08-29T03:47:33Z</time>
      </trkpt>
      <trkpt lat="34.16495" lon="76.97222">
        <ele>4148.6</ele>
        <time>2015-08-29T03:47:51Z</time>
      </trkpt>
      <trkpt lat="34.16493" lon="76.97233">
        <ele>4149</ele>
        <time>2015-08-29T03:47:57Z</time>
      </trkpt>
      <trkpt lat="34.16492" lon="76.97235">
        <ele>4149.6</ele>
        <time>2015-08-29T03:48:03Z</time>
      </trkpt>
      <trkpt lat="34.16488" lon="76.97245">
        <ele>4150.6</ele>
        <time>2015-08-29T03:48:14Z</time>
      </trkpt>
      <trkpt lat="34.16487" lon="76.97246">
        <ele>4150.8</ele>
        <time>2015-08-29T03:48:15Z</time>
      </trkpt>
      <trkpt lat="34.16484" lon="76.97249">
        <ele>4151.8</ele>
        <time>2015-08-29T03:48:22Z</time>
      </trkpt>
      <trkpt lat="34.16482" lon="76.97247">
        <ele>4153</ele>
        <time>2015-08-29T03:48:33Z</time>
      </trkpt>
      <trkpt lat="34.16479" lon="76.97249">
        <ele>4154</ele>
        <time>2015-08-29T03:48:42Z</time>
      </trkpt>
      <trkpt lat="34.16476" lon="76.97247">
        <ele>4155</ele>
        <time>2015-08-29T03:48:57Z</time>
      </trkpt>
      <trkpt lat="34.1647" lon="76.97249">
        <ele>4156</ele>
        <time>2015-08-29T03:49:09Z</time>
      </trkpt>
      <trkpt lat="34.16466" lon="76.97258">
        <ele>4157.2</ele>
        <time>2015-08-29T03:49:20Z</time>
      </trkpt>
      <trkpt lat="34.1646" lon="76.97258">
        <ele>4158.2</ele>
        <time>2015-08-29T03:49:39Z</time>
      </trkpt>
      <trkpt lat="34.16455" lon="76.97263">
        <ele>4159.2</ele>
        <time>2015-08-29T03:49:47Z</time>
      </trkpt>
      <trkpt lat="34.16451" lon="76.97276">
        <ele>4160</ele>
        <time>2015-08-29T03:49:56Z</time>
      </trkpt>
      <trkpt lat="34.16449" lon="76.97279">
        <ele>4160.4</ele>
        <time>2015-08-29T03:50:00Z</time>
      </trkpt>
      <trkpt lat="34.16447" lon="76.97285">
        <ele>4160.6</ele>
        <time>2015-08-29T03:50:03Z</time>
      </trkpt>
      <trkpt lat="34.16446" lon="76.97285">
        <ele>4161</ele>
        <time>2015-08-29T03:50:07Z</time>
      </trkpt>
      <trkpt lat="34.16444" lon="76.97282">
        <ele>4161.4</ele>
        <time>2015-08-29T03:50:11Z</time>
      </trkpt>
      <trkpt lat="34.1644" lon="76.97282">
        <ele>4162.6</ele>
        <time>2015-08-29T03:50:19Z</time>
      </trkpt>
      <trkpt lat="34.16437" lon="76.97281">
        <ele>4163.6</ele>
        <time>2015-08-29T03:50:26Z</time>
      </trkpt>
      <trkpt lat="34.16434" lon="76.97282">
        <ele>4164.8</ele>
        <time>2015-08-29T03:50:33Z</time>
      </trkpt>
      <trkpt lat="34.1643" lon="76.97283">
        <ele>4165.8</ele>
        <time>2015-08-29T03:50:44Z</time>
      </trkpt>
      <trkpt lat="34.16426" lon="76.97285">
        <ele>4166.8</ele>
        <time>2015-08-29T03:50:54Z</time>
      </trkpt>
      <trkpt lat="34.16422" lon="76.97302">
        <ele>4167.8</ele>
        <time>2015-08-29T03:51:02Z</time>
      </trkpt>
      <trkpt lat="34.16419" lon="76.97305">
        <ele>4168</ele>
        <time>2015-08-29T03:51:05Z</time>
      </trkpt>
      <trkpt lat="34.16415" lon="76.97314">
        <ele>4168.8</ele>
        <time>2015-08-29T03:51:19Z</time>
      </trkpt>
      <trkpt lat="34.16412" lon="76.97315">
        <ele>4169.8</ele>
        <time>2015-08-29T03:51:44Z</time>
      </trkpt>
      <trkpt lat="34.16415" lon="76.97315">
        <ele>4169.8</ele>
        <time>2015-08-29T03:51:53Z</time>
      </trkpt>
      <trkpt lat="34.16409" lon="76.97325">
        <ele>4169.8</ele>
        <time>2015-08-29T03:51:59Z</time>
      </trkpt>
      <trkpt lat="34.16419" lon="76.97322">
        <ele>4170</ele>
        <time>2015-08-29T03:52:34Z</time>
      </trkpt>
      <trkpt lat="34.16413" lon="76.97337">
        <ele>4170.8</ele>
        <time>2015-08-29T03:53:10Z</time>
      </trkpt>
      <trkpt lat="34.16413" lon="76.97337">
        <ele>4171</ele>
        <time>2015-08-29T03:53:11Z</time>
      </trkpt>
      <trkpt lat="34.16408" lon="76.97349">
        <ele>4172</ele>
        <time>2015-08-29T03:53:30Z</time>
      </trkpt>
      <trkpt lat="34.16409" lon="76.97357">
        <ele>4173</ele>
        <time>2015-08-29T03:53:42Z</time>
      </trkpt>
      <trkpt lat="34.16406" lon="76.97372">
        <ele>4172.8</ele>
        <time>2015-08-29T03:54:03Z</time>
      </trkpt>
      <trkpt lat="34.16404" lon="76.97374">
        <ele>4173</ele>
        <time>2015-08-29T03:54:06Z</time>
      </trkpt>
      <trkpt lat="34.164" lon="76.97382">
        <ele>4173.8</ele>
        <time>2015-08-29T03:54:17Z</time>
      </trkpt>
      <trkpt lat="34.16399" lon="76.97383">
        <ele>4174</ele>
        <time>2015-08-29T03:54:18Z</time>
      </trkpt>
      <trkpt lat="34.16399" lon="76.97383">
        <ele>4174</ele>
        <time>2015-08-29T03:54:19Z</time>
      </trkpt>
      <trkpt lat="34.16397" lon="76.97378">
        <ele>4175</ele>
        <time>2015-08-29T03:54:26Z</time>
      </trkpt>
      <trkpt lat="34.16393" lon="76.97376">
        <ele>4176.2</ele>
        <time>2015-08-29T03:54:34Z</time>
      </trkpt>
      <trkpt lat="34.1639" lon="76.97374">
        <ele>4177.2</ele>
        <time>2015-08-29T03:54:42Z</time>
      </trkpt>
      <trkpt lat="34.16386" lon="76.97371">
        <ele>4178.2</ele>
        <time>2015-08-29T03:54:49Z</time>
      </trkpt>
      <trkpt lat="34.1638" lon="76.97367">
        <ele>4179.2</ele>
        <time>2015-08-29T03:55:00Z</time>
      </trkpt>
      <trkpt lat="34.16379" lon="76.97367">
        <ele>4179.4</ele>
        <time>2015-08-29T03:55:02Z</time>
      </trkpt>
      <trkpt lat="34.16377" lon="76.97381">
        <ele>4180.2</ele>
        <time>2015-08-29T03:55:16Z</time>
      </trkpt>
      <trkpt lat="34.16374" lon="76.97395">
        <ele>4181.2</ele>
        <time>2015-08-29T03:55:32Z</time>
      </trkpt>
      <trkpt lat="34.1637" lon="76.97407">
        <ele>4182.4</ele>
        <time>2015-08-29T03:55:48Z</time>
      </trkpt>
      <trkpt lat="34.16366" lon="76.97425">
        <ele>4183</ele>
        <time>2015-08-29T03:56:09Z</time>
      </trkpt>
      <trkpt lat="34.16366" lon="76.97426">
        <ele>4183</ele>
        <time>2015-08-29T03:56:11Z</time>
      </trkpt>
      <trkpt lat="34.16366" lon="76.97433">
        <ele>4183</ele>
        <time>2015-08-29T03:56:19Z</time>
      </trkpt>
      <trkpt lat="34.16366" lon="76.97436">
        <ele>4182.8</ele>
        <time>2015-08-29T03:56:22Z</time>
      </trkpt>
      <trkpt lat="34.16366" lon="76.97444">
        <ele>4182.4</ele>
        <time>2015-08-29T03:56:29Z</time>
      </trkpt>
      <trkpt lat="34.16368" lon="76.97448">
        <ele>4182</ele>
        <time>2015-08-29T03:56:34Z</time>
      </trkpt>
      <trkpt lat="34.16372" lon="76.97467">
        <ele>4181.6</ele>
        <time>2015-08-29T03:56:56Z</time>
      </trkpt>
      <trkpt lat="34.16374" lon="76.97471">
        <ele>4182</ele>
        <time>2015-08-29T03:57:02Z</time>
      </trkpt>
      <trkpt lat="34.16374" lon="76.9749">
        <ele>4182.2</ele>
        <time>2015-08-29T03:57:22Z</time>
      </trkpt>
      <trkpt lat="34.16376" lon="76.97505">
        <ele>4181.2</ele>
        <time>2015-08-29T03:57:43Z</time>
      </trkpt>
      <trkpt lat="34.16376" lon="76.97527">
        <ele>4181.2</ele>
        <time>2015-08-29T03:58:08Z</time>
      </trkpt>
      <trkpt lat="34.16375" lon="76.97549">
        <ele>4182</ele>
        <time>2015-08-29T03:58:30Z</time>
      </trkpt>
      <trkpt lat="34.16375" lon="76.97552">
        <ele>4182.2</ele>
        <time>2015-08-29T03:58:34Z</time>
      </trkpt>
      <trkpt lat="34.16371" lon="76.97557">
        <ele>4182.6</ele>
        <time>2015-08-29T03:58:40Z</time>
      </trkpt>
      <trkpt lat="34.1637" lon="76.97562">
        <ele>4183</ele>
        <time>2015-08-29T03:58:45Z</time>
      </trkpt>
      <trkpt lat="34.16371" lon="76.97565">
        <ele>4183.4</ele>
        <time>2015-08-29T03:58:51Z</time>
      </trkpt>
      <trkpt lat="34.1637" lon="76.97576">
        <ele>4183.8</ele>
        <time>2015-08-29T03:59:03Z</time>
      </trkpt>
      <trkpt lat="34.16369" lon="76.97582">
        <ele>4184</ele>
        <time>2015-08-29T03:59:11Z</time>
      </trkpt>
      <trkpt lat="34.16368" lon="76.97584">
        <ele>4184</ele>
        <time>2015-08-29T03:59:13Z</time>
      </trkpt>
      <trkpt lat="34.16367" lon="76.97587">
        <ele>4184.4</ele>
        <time>2015-08-29T03:59:17Z</time>
      </trkpt>
      <trkpt lat="34.16366" lon="76.97609">
        <ele>4185.2</ele>
        <time>2015-08-29T03:59:44Z</time>
      </trkpt>
      <trkpt lat="34.16365" lon="76.97611">
        <ele>4185.4</ele>
        <time>2015-08-29T03:59:47Z</time>
      </trkpt>
      <trkpt lat="34.16361" lon="76.97633">
        <ele>4186</ele>
        <time>2015-08-29T04:00:13Z</time>
      </trkpt>
      <trkpt lat="34.16361" lon="76.97637">
        <ele>4186.4</ele>
        <time>2015-08-29T04:00:18Z</time>
      </trkpt>
      <trkpt lat="34.16359" lon="76.97647">
        <ele>4187.2</ele>
        <time>2015-08-29T04:00:31Z</time>
      </trkpt>
      <trkpt lat="34.16358" lon="76.97648">
        <ele>4187.2</ele>
        <time>2015-08-29T04:00:32Z</time>
      </trkpt>
      <trkpt lat="34.16356" lon="76.97652">
        <ele>4187.4</ele>
        <time>2015-08-29T04:00:36Z</time>
      </trkpt>
      <trkpt lat="34.16355" lon="76.9766">
        <ele>4188.6</ele>
        <time>2015-08-29T04:00:48Z</time>
      </trkpt>
      <trkpt lat="34.16356" lon="76.97667">
        <ele>4189.6</ele>
        <time>2015-08-29T04:01:01Z</time>
      </trkpt>
      <trkpt lat="34.16354" lon="76.97683">
        <ele>4190</ele>
        <time>2015-08-29T04:01:18Z</time>
      </trkpt>
      <trkpt lat="34.1635" lon="76.97692">
        <ele>4190.6</ele>
        <time>2015-08-29T04:01:25Z</time>
      </trkpt>
      <trkpt lat="34.16349" lon="76.97704">
        <ele>4191</ele>
        <time>2015-08-29T04:01:41Z</time>
      </trkpt>
      <trkpt lat="34.16355" lon="76.9771">
        <ele>4191.6</ele>
        <time>2015-08-29T04:01:52Z</time>
      </trkpt>
      <trkpt lat="34.16354" lon="76.97718">
        <ele>4192.6</ele>
        <time>2015-08-29T04:02:06Z</time>
      </trkpt>
      <trkpt lat="34.16354" lon="76.97733">
        <ele>4193.6</ele>
        <time>2015-08-29T04:02:21Z</time>
      </trkpt>
      <trkpt lat="34.16354" lon="76.97735">
        <ele>4193.8</ele>
        <time>2015-08-29T04:02:23Z</time>
      </trkpt>
      <trkpt lat="34.16357" lon="76.97745">
        <ele>4194.4</ele>
        <time>2015-08-29T04:02:33Z</time>
      </trkpt>
      <trkpt lat="34.16355" lon="76.97748">
        <ele>4194.8</ele>
        <time>2015-08-29T04:02:38Z</time>
      </trkpt>
      <trkpt lat="34.1635" lon="76.97757">
        <ele>4195.8</ele>
        <time>2015-08-29T04:02:51Z</time>
      </trkpt>
      <trkpt lat="34.16358" lon="76.97766">
        <ele>4196.8</ele>
        <time>2015-08-29T04:03:13Z</time>
      </trkpt>
      <trkpt lat="34.16357" lon="76.97765">
        <ele>4197.2</ele>
        <time>2015-08-29T04:03:16Z</time>
      </trkpt>
      <trkpt lat="34.16355" lon="76.97771">
        <ele>4197</ele>
        <time>2015-08-29T04:03:22Z</time>
      </trkpt>
      <trkpt lat="34.16356" lon="76.97772">
        <ele>4197.2</ele>
        <time>2015-08-29T04:03:25Z</time>
      </trkpt>
      <trkpt lat="34.16354" lon="76.97778">
        <ele>4198</ele>
        <time>2015-08-29T04:03:31Z</time>
      </trkpt>
      <trkpt lat="34.16361" lon="76.97788">
        <ele>4198</ele>
        <time>2015-08-29T04:03:46Z</time>
      </trkpt>
      <trkpt lat="34.1636" lon="76.97788">
        <ele>4198.2</ele>
        <time>2015-08-29T04:03:47Z</time>
      </trkpt>
      <trkpt lat="34.16359" lon="76.97805">
        <ele>4199.2</ele>
        <time>2015-08-29T04:04:08Z</time>
      </trkpt>
      <trkpt lat="34.16355" lon="76.97813">
        <ele>4200.2</ele>
        <time>2015-08-29T04:04:20Z</time>
      </trkpt>
      <trkpt lat="34.16347" lon="76.97829">
        <ele>4201.2</ele>
        <time>2015-08-29T04:04:43Z</time>
      </trkpt>
      <trkpt lat="34.16345" lon="76.97838">
        <ele>4202.4</ele>
        <time>2015-08-29T04:04:57Z</time>
      </trkpt>
      <trkpt lat="34.16343" lon="76.97851">
        <ele>4203.4</ele>
        <time>2015-08-29T04:05:10Z</time>
      </trkpt>
      <trkpt lat="34.16337" lon="76.97867">
        <ele>4204.4</ele>
        <time>2015-08-29T04:05:29Z</time>
      </trkpt>
      <trkpt lat="34.16334" lon="76.97879">
        <ele>4205.4</ele>
        <time>2015-08-29T04:05:44Z</time>
      </trkpt>
      <trkpt lat="34.16334" lon="76.97882">
        <ele>4205.6</ele>
        <time>2015-08-29T04:05:47Z</time>
      </trkpt>
      <trkpt lat="34.1633" lon="76.97887">
        <ele>4206.4</ele>
        <time>2015-08-29T04:05:59Z</time>
      </trkpt>
      <trkpt lat="34.1633" lon="76.97897">
        <ele>4207.6</ele>
        <time>2015-08-29T04:06:10Z</time>
      </trkpt>
      <trkpt lat="34.16329" lon="76.97905">
        <ele>4208.4</ele>
        <time>2015-08-29T04:06:18Z</time>
      </trkpt>
      <trkpt lat="34.16328" lon="76.97907">
        <ele>4208.6</ele>
        <time>2015-08-29T04:06:20Z</time>
      </trkpt>
      <trkpt lat="34.16325" lon="76.97909">
        <ele>4209</ele>
        <time>2015-08-29T04:06:23Z</time>
      </trkpt>
      <trkpt lat="34.16319" lon="76.97913">
        <ele>4209.8</ele>
        <time>2015-08-29T04:06:30Z</time>
      </trkpt>
      <trkpt lat="34.16323" lon="76.97916">
        <ele>4210.8</ele>
        <time>2015-08-29T04:06:41Z</time>
      </trkpt>
      <trkpt lat="34.1632" lon="76.97926">
        <ele>4211.8</ele>
        <time>2015-08-29T04:06:52Z</time>
      </trkpt>
      <trkpt lat="34.16321" lon="76.97932">
        <ele>4212.8</ele>
        <time>2015-08-29T04:07:02Z</time>
      </trkpt>
      <trkpt lat="34.16321" lon="76.97937">
        <ele>4214</ele>
        <time>2015-08-29T04:07:11Z</time>
      </trkpt>
      <trkpt lat="34.16317" lon="76.97945">
        <ele>4215</ele>
        <time>2015-08-29T04:07:23Z</time>
      </trkpt>
      <trkpt lat="34.16316" lon="76.97949">
        <ele>4215.4</ele>
        <time>2015-08-29T04:07:26Z</time>
      </trkpt>
      <trkpt lat="34.16316" lon="76.97956">
        <ele>4216.2</ele>
        <time>2015-08-29T04:07:34Z</time>
      </trkpt>
      <trkpt lat="34.16325" lon="76.97957">
        <ele>4217.2</ele>
        <time>2015-08-29T04:07:43Z</time>
      </trkpt>
      <trkpt lat="34.16321" lon="76.97962">
        <ele>4218.2</ele>
        <time>2015-08-29T04:07:52Z</time>
      </trkpt>
      <trkpt lat="34.16318" lon="76.97967">
        <ele>4218.8</ele>
        <time>2015-08-29T04:08:00Z</time>
      </trkpt>
      <trkpt lat="34.16318" lon="76.97968">
        <ele>4219.2</ele>
        <time>2015-08-29T04:08:03Z</time>
      </trkpt>
      <trkpt lat="34.16317" lon="76.97968">
        <ele>4219.2</ele>
        <time>2015-08-29T04:08:04Z</time>
      </trkpt>
      <trkpt lat="34.16314" lon="76.97973">
        <ele>4220.2</ele>
        <time>2015-08-29T04:08:17Z</time>
      </trkpt>
      <trkpt lat="34.16311" lon="76.97982">
        <ele>4221.4</ele>
        <time>2015-08-29T04:08:26Z</time>
      </trkpt>
      <trkpt lat="34.16306" lon="76.9799">
        <ele>4221.6</ele>
        <time>2015-08-29T04:08:34Z</time>
      </trkpt>
      <trkpt lat="34.16302" lon="76.97994">
        <ele>4222.2</ele>
        <time>2015-08-29T04:08:40Z</time>
      </trkpt>
      <trkpt lat="34.16302" lon="76.97994">
        <ele>4222.4</ele>
        <time>2015-08-29T04:08:41Z</time>
      </trkpt>
      <trkpt lat="34.16304" lon="76.98002">
        <ele>4223.4</ele>
        <time>2015-08-29T04:08:56Z</time>
      </trkpt>
      <trkpt lat="34.16303" lon="76.98009">
        <ele>4224.4</ele>
        <time>2015-08-29T04:09:06Z</time>
      </trkpt>
      <trkpt lat="34.16301" lon="76.98021">
        <ele>4225</ele>
        <time>2015-08-29T04:09:19Z</time>
      </trkpt>
      <trkpt lat="34.16301" lon="76.98028">
        <ele>4225.4</ele>
        <time>2015-08-29T04:09:27Z</time>
      </trkpt>
      <trkpt lat="34.16299" lon="76.98034">
        <ele>4226.6</ele>
        <time>2015-08-29T04:09:39Z</time>
      </trkpt>
      <trkpt lat="34.16299" lon="76.98039">
        <ele>4227.6</ele>
        <time>2015-08-29T04:09:51Z</time>
      </trkpt>
      <trkpt lat="34.16296" lon="76.98048">
        <ele>4228.6</ele>
        <time>2015-08-29T04:10:12Z</time>
      </trkpt>
      <trkpt lat="34.16295" lon="76.9805">
        <ele>4228.6</ele>
        <time>2015-08-29T04:10:14Z</time>
      </trkpt>
      <trkpt lat="34.16294" lon="76.98053">
        <ele>4228.6</ele>
        <time>2015-08-29T04:10:16Z</time>
      </trkpt>
      <trkpt lat="34.16289" lon="76.98062">
        <ele>4228.6</ele>
        <time>2015-08-29T04:10:23Z</time>
      </trkpt>
      <trkpt lat="34.16288" lon="76.98064">
        <ele>4228.4</ele>
        <time>2015-08-29T04:10:25Z</time>
      </trkpt>
      <trkpt lat="34.16282" lon="76.98078">
        <ele>4229.6</ele>
        <time>2015-08-29T04:10:45Z</time>
      </trkpt>
      <trkpt lat="34.16274" lon="76.98093">
        <ele>4230.6</ele>
        <time>2015-08-29T04:11:08Z</time>
      </trkpt>
      <trkpt lat="34.16273" lon="76.98095">
        <ele>4230.4</ele>
        <time>2015-08-29T04:11:11Z</time>
      </trkpt>
      <trkpt lat="34.16271" lon="76.98098">
        <ele>4230.8</ele>
        <time>2015-08-29T04:11:14Z</time>
      </trkpt>
      <trkpt lat="34.16271" lon="76.98103">
        <ele>4230.8</ele>
        <time>2015-08-29T04:11:17Z</time>
      </trkpt>
      <trkpt lat="34.1627" lon="76.98106">
        <ele>4231</ele>
        <time>2015-08-29T04:11:21Z</time>
      </trkpt>
      <trkpt lat="34.16269" lon="76.98109">
        <ele>4231.2</ele>
        <time>2015-08-29T04:11:25Z</time>
      </trkpt>
      <trkpt lat="34.16268" lon="76.98112">
        <ele>4231.4</ele>
        <time>2015-08-29T04:11:29Z</time>
      </trkpt>
      <trkpt lat="34.16268" lon="76.98113">
        <ele>4231.8</ele>
        <time>2015-08-29T04:11:32Z</time>
      </trkpt>
      <trkpt lat="34.16262" lon="76.98132">
        <ele>4232.4</ele>
        <time>2015-08-29T04:12:01Z</time>
      </trkpt>
      <trkpt lat="34.16262" lon="76.98135">
        <ele>4232.4</ele>
        <time>2015-08-29T04:12:04Z</time>
      </trkpt>
      <trkpt lat="34.1626" lon="76.98144">
        <ele>4232.8</ele>
        <time>2015-08-29T04:12:09Z</time>
      </trkpt>
      <trkpt lat="34.16259" lon="76.98145">
        <ele>4232.8</ele>
        <time>2015-08-29T04:12:10Z</time>
      </trkpt>
      <trkpt lat="34.16264" lon="76.98157">
        <ele>4233.6</ele>
        <time>2015-08-29T04:12:23Z</time>
      </trkpt>
      <trkpt lat="34.16264" lon="76.98162">
        <ele>4233.8</ele>
        <time>2015-08-29T04:12:29Z</time>
      </trkpt>
      <trkpt lat="34.16264" lon="76.98163">
        <ele>4233.8</ele>
        <time>2015-08-29T04:12:30Z</time>
      </trkpt>
      <trkpt lat="34.16264" lon="76.98166">
        <ele>4234</ele>
        <time>2015-08-29T04:12:33Z</time>
      </trkpt>
      <trkpt lat="34.16274" lon="76.9818">
        <ele>4234.4</ele>
        <time>2015-08-29T04:12:56Z</time>
      </trkpt>
      <trkpt lat="34.16274" lon="76.98184">
        <ele>4234</ele>
        <time>2015-08-29T04:13:02Z</time>
      </trkpt>
      <trkpt lat="34.16273" lon="76.98185">
        <ele>4233.8</ele>
        <time>2015-08-29T04:13:06Z</time>
      </trkpt>
      <trkpt lat="34.16271" lon="76.98187">
        <ele>4232.8</ele>
        <time>2015-08-29T04:13:17Z</time>
      </trkpt>
      <trkpt lat="34.16267" lon="76.98196">
        <ele>4234</ele>
        <time>2015-08-29T04:13:42Z</time>
      </trkpt>
      <trkpt lat="34.16268" lon="76.98195">
        <ele>4235</ele>
        <time>2015-08-29T04:13:49Z</time>
      </trkpt>
      <trkpt lat="34.16276" lon="76.98194">
        <ele>4235.4</ele>
        <time>2015-08-29T04:13:55Z</time>
      </trkpt>
      <trkpt lat="34.16276" lon="76.98197">
        <ele>4236</ele>
        <time>2015-08-29T04:13:58Z</time>
      </trkpt>
      <trkpt lat="34.16275" lon="76.98201">
        <ele>4236.6</ele>
        <time>2015-08-29T04:14:02Z</time>
      </trkpt>
      <trkpt lat="34.16274" lon="76.98202">
        <ele>4236.8</ele>
        <time>2015-08-29T04:14:04Z</time>
      </trkpt>
      <trkpt lat="34.16273" lon="76.98202">
        <ele>4237</ele>
        <time>2015-08-29T04:14:06Z</time>
      </trkpt>
      <trkpt lat="34.1627" lon="76.98203">
        <ele>4238</ele>
        <time>2015-08-29T04:14:15Z</time>
      </trkpt>
      <trkpt lat="34.16266" lon="76.98203">
        <ele>4239.2</ele>
        <time>2015-08-29T04:14:25Z</time>
      </trkpt>
      <trkpt lat="34.16263" lon="76.98211">
        <ele>4240</ele>
        <time>2015-08-29T04:14:35Z</time>
      </trkpt>
      <trkpt lat="34.16263" lon="76.98211">
        <ele>4240.2</ele>
        <time>2015-08-29T04:14:37Z</time>
      </trkpt>
      <trkpt lat="34.16261" lon="76.98216">
        <ele>4241.2</ele>
        <time>2015-08-29T04:14:47Z</time>
      </trkpt>
      <trkpt lat="34.16261" lon="76.9822">
        <ele>4242.2</ele>
        <time>2015-08-29T04:14:56Z</time>
      </trkpt>
      <trkpt lat="34.16259" lon="76.98221">
        <ele>4242.6</ele>
        <time>2015-08-29T04:14:58Z</time>
      </trkpt>
      <trkpt lat="34.16259" lon="76.9822">
        <ele>4242.6</ele>
        <time>2015-08-29T04:15:00Z</time>
      </trkpt>
      <trkpt lat="34.16263" lon="76.98221">
        <ele>4243.4</ele>
        <time>2015-08-29T04:15:17Z</time>
      </trkpt>
      <trkpt lat="34.16263" lon="76.9823">
        <ele>4244.4</ele>
        <time>2015-08-29T04:15:32Z</time>
      </trkpt>
      <trkpt lat="34.16264" lon="76.98231">
        <ele>4244.4</ele>
        <time>2015-08-29T04:15:34Z</time>
      </trkpt>
      <trkpt lat="34.16271" lon="76.98249">
        <ele>4245.2</ele>
        <time>2015-08-29T04:15:55Z</time>
      </trkpt>
      <trkpt lat="34.16269" lon="76.98252">
        <ele>4245.6</ele>
        <time>2015-08-29T04:15:59Z</time>
      </trkpt>
      <trkpt lat="34.16264" lon="76.98264">
        <ele>4246.2</ele>
        <time>2015-08-29T04:16:15Z</time>
      </trkpt>
      <trkpt lat="34.16267" lon="76.98266">
        <ele>4246</ele>
        <time>2015-08-29T04:16:17Z</time>
      </trkpt>
      <trkpt lat="34.16267" lon="76.98268">
        <ele>4246.2</ele>
        <time>2015-08-29T04:16:20Z</time>
      </trkpt>
      <trkpt lat="34.16263" lon="76.98288">
        <ele>4246</ele>
        <time>2015-08-29T04:16:49Z</time>
      </trkpt>
      <trkpt lat="34.16259" lon="76.98302">
        <ele>4246</ele>
        <time>2015-08-29T04:16:59Z</time>
      </trkpt>
      <trkpt lat="34.16258" lon="76.98305">
        <ele>4246</ele>
        <time>2015-08-29T04:17:01Z</time>
      </trkpt>
      <trkpt lat="34.16255" lon="76.98312">
        <ele>4246.6</ele>
        <time>2015-08-29T04:17:06Z</time>
      </trkpt>
      <trkpt lat="34.16253" lon="76.98318">
        <ele>4247</ele>
        <time>2015-08-29T04:17:10Z</time>
      </trkpt>
      <trkpt lat="34.16253" lon="76.98321">
        <ele>4247.2</ele>
        <time>2015-08-29T04:17:14Z</time>
      </trkpt>
      <trkpt lat="34.16253" lon="76.98328">
        <ele>4247.2</ele>
        <time>2015-08-29T04:17:23Z</time>
      </trkpt>
      <trkpt lat="34.16251" lon="76.98335">
        <ele>4247.6</ele>
        <time>2015-08-29T04:17:43Z</time>
      </trkpt>
      <trkpt lat="34.16246" lon="76.98353">
        <ele>4248.4</ele>
        <time>2015-08-29T04:18:03Z</time>
      </trkpt>
      <trkpt lat="34.16246" lon="76.98358">
        <ele>4248.8</ele>
        <time>2015-08-29T04:18:06Z</time>
      </trkpt>
      <trkpt lat="34.16243" lon="76.98363">
        <ele>4248.8</ele>
        <time>2015-08-29T04:18:08Z</time>
      </trkpt>
      <trkpt lat="34.16242" lon="76.98366">
        <ele>4249</ele>
        <time>2015-08-29T04:18:10Z</time>
      </trkpt>
      <trkpt lat="34.16236" lon="76.98375">
        <ele>4249.8</ele>
        <time>2015-08-29T04:18:29Z</time>
      </trkpt>
      <trkpt lat="34.16231" lon="76.98384">
        <ele>4250</ele>
        <time>2015-08-29T04:18:36Z</time>
      </trkpt>
      <trkpt lat="34.16228" lon="76.98385">
        <ele>4250.2</ele>
        <time>2015-08-29T04:18:39Z</time>
      </trkpt>
      <trkpt lat="34.16233" lon="76.98385">
        <ele>4250.8</ele>
        <time>2015-08-29T04:18:44Z</time>
      </trkpt>
      <trkpt lat="34.16235" lon="76.98385">
        <ele>4251.2</ele>
        <time>2015-08-29T04:18:46Z</time>
      </trkpt>
      <trkpt lat="34.1623" lon="76.98397">
        <ele>4251.4</ele>
        <time>2015-08-29T04:19:05Z</time>
      </trkpt>
      <trkpt lat="34.16227" lon="76.98405">
        <ele>4251.6</ele>
        <time>2015-08-29T04:19:09Z</time>
      </trkpt>
      <trkpt lat="34.16226" lon="76.98405">
        <ele>4251.8</ele>
        <time>2015-08-29T04:19:11Z</time>
      </trkpt>
      <trkpt lat="34.16226" lon="76.98407">
        <ele>4252</ele>
        <time>2015-08-29T04:19:15Z</time>
      </trkpt>
      <trkpt lat="34.16221" lon="76.98415">
        <ele>4253</ele>
        <time>2015-08-29T04:19:29Z</time>
      </trkpt>
      <trkpt lat="34.16221" lon="76.98416">
        <ele>4253</ele>
        <time>2015-08-29T04:19:30Z</time>
      </trkpt>
      <trkpt lat="34.16218" lon="76.98423">
        <ele>4254</ele>
        <time>2015-08-29T04:19:40Z</time>
      </trkpt>
      <trkpt lat="34.1622" lon="76.98426">
        <ele>4254.6</ele>
        <time>2015-08-29T04:19:46Z</time>
      </trkpt>
      <trkpt lat="34.16218" lon="76.98429">
        <ele>4255</ele>
        <time>2015-08-29T04:19:51Z</time>
      </trkpt>
      <trkpt lat="34.16219" lon="76.98439">
        <ele>4256</ele>
        <time>2015-08-29T04:20:02Z</time>
      </trkpt>
      <trkpt lat="34.16218" lon="76.98442">
        <ele>4256.4</ele>
        <time>2015-08-29T04:20:06Z</time>
      </trkpt>
      <trkpt lat="34.16216" lon="76.98445">
        <ele>4257.2</ele>
        <time>2015-08-29T04:20:12Z</time>
      </trkpt>
      <trkpt lat="34.16208" lon="76.98457">
        <ele>4258.2</ele>
        <time>2015-08-29T04:20:28Z</time>
      </trkpt>
      <trkpt lat="34.16209" lon="76.98462">
        <ele>4259.2</ele>
        <time>2015-08-29T04:20:38Z</time>
      </trkpt>
      <trkpt lat="34.16208" lon="76.98472">
        <ele>4260.4</ele>
        <time>2015-08-29T04:21:07Z</time>
      </trkpt>
      <trkpt lat="34.16207" lon="76.98474">
        <ele>4260.6</ele>
        <time>2015-08-29T04:21:11Z</time>
      </trkpt>
      <trkpt lat="34.16201" lon="76.98478">
        <ele>4261.4</ele>
        <time>2015-08-29T04:21:18Z</time>
      </trkpt>
      <trkpt lat="34.162" lon="76.98484">
        <ele>4262</ele>
        <time>2015-08-29T04:21:24Z</time>
      </trkpt>
      <trkpt lat="34.162" lon="76.98486">
        <ele>4262.4</ele>
        <time>2015-08-29T04:21:27Z</time>
      </trkpt>
      <trkpt lat="34.16201" lon="76.98495">
        <ele>4263.4</ele>
        <time>2015-08-29T04:22:00Z</time>
      </trkpt>
      <trkpt lat="34.16197" lon="76.98502">
        <ele>4263.8</ele>
        <time>2015-08-29T04:22:05Z</time>
      </trkpt>
      <trkpt lat="34.16194" lon="76.98506">
        <ele>4264.4</ele>
        <time>2015-08-29T04:22:12Z</time>
      </trkpt>
      <trkpt lat="34.16193" lon="76.98517">
        <ele>4265.2</ele>
        <time>2015-08-29T04:22:28Z</time>
      </trkpt>
      <trkpt lat="34.1619" lon="76.98519">
        <ele>4265.6</ele>
        <time>2015-08-29T04:22:34Z</time>
      </trkpt>
      <trkpt lat="34.16189" lon="76.98527">
        <ele>4266.6</ele>
        <time>2015-08-29T04:22:48Z</time>
      </trkpt>
      <trkpt lat="34.16178" lon="76.9854">
        <ele>4267.6</ele>
        <time>2015-08-29T04:23:02Z</time>
      </trkpt>
      <trkpt lat="34.1617" lon="76.98541">
        <ele>4268</ele>
        <time>2015-08-29T04:23:21Z</time>
      </trkpt>
      <trkpt lat="34.16167" lon="76.98543">
        <ele>4267.8</ele>
        <time>2015-08-29T04:23:27Z</time>
      </trkpt>
      <trkpt lat="34.16166" lon="76.98538">
        <ele>4267.6</ele>
        <time>2015-08-29T04:23:34Z</time>
      </trkpt>
      <trkpt lat="34.16166" lon="76.98537">
        <ele>4267.4</ele>
        <time>2015-08-29T04:23:36Z</time>
      </trkpt>
      <trkpt lat="34.16172" lon="76.98542">
        <ele>4268.4</ele>
        <time>2015-08-29T04:24:09Z</time>
      </trkpt>
      <trkpt lat="34.16163" lon="76.98551">
        <ele>4268.2</ele>
        <time>2015-08-29T04:24:24Z</time>
      </trkpt>
      <trkpt lat="34.16179" lon="76.98548">
        <ele>4268.6</ele>
        <time>2015-08-29T04:24:30Z</time>
      </trkpt>
      <trkpt lat="34.1618" lon="76.98548">
        <ele>4268.8</ele>
        <time>2015-08-29T04:24:31Z</time>
      </trkpt>
      <trkpt lat="34.16181" lon="76.98549">
        <ele>4268.8</ele>
        <time>2015-08-29T04:24:32Z</time>
      </trkpt>
      <trkpt lat="34.16181" lon="76.98551">
        <ele>4269.4</ele>
        <time>2015-08-29T04:24:36Z</time>
      </trkpt>
      <trkpt lat="34.16181" lon="76.98552">
        <ele>4269.8</ele>
        <time>2015-08-29T04:24:38Z</time>
      </trkpt>
      <trkpt lat="34.16177" lon="76.98571">
        <ele>4270</ele>
        <time>2015-08-29T04:25:02Z</time>
      </trkpt>
      <trkpt lat="34.16176" lon="76.98583">
        <ele>4270.2</ele>
        <time>2015-08-29T04:25:12Z</time>
      </trkpt>
      <trkpt lat="34.16176" lon="76.98592">
        <ele>4270.8</ele>
        <time>2015-08-29T04:25:22Z</time>
      </trkpt>
      <trkpt lat="34.16174" lon="76.98593">
        <ele>4271</ele>
        <time>2015-08-29T04:25:25Z</time>
      </trkpt>
      <trkpt lat="34.16175" lon="76.98596">
        <ele>4271</ele>
        <time>2015-08-29T04:25:28Z</time>
      </trkpt>
      <trkpt lat="34.16176" lon="76.98596">
        <ele>4271.2</ele>
        <time>2015-08-29T04:25:29Z</time>
      </trkpt>
      <trkpt lat="34.16176" lon="76.98596">
        <ele>4271</ele>
        <time>2015-08-29T04:25:32Z</time>
      </trkpt>
      <trkpt lat="34.16173" lon="76.98611">
        <ele>4271.6</ele>
        <time>2015-08-29T04:25:50Z</time>
      </trkpt>
      <trkpt lat="34.16171" lon="76.98615">
        <ele>4272</ele>
        <time>2015-08-29T04:25:53Z</time>
      </trkpt>
      <trkpt lat="34.16178" lon="76.98622">
        <ele>4272.4</ele>
        <time>2015-08-29T04:26:10Z</time>
      </trkpt>
      <trkpt lat="34.16173" lon="76.98626">
        <ele>4273</ele>
        <time>2015-08-29T04:26:18Z</time>
      </trkpt>
      <trkpt lat="34.16172" lon="76.98627">
        <ele>4273</ele>
        <time>2015-08-29T04:26:19Z</time>
      </trkpt>
      <trkpt lat="34.16169" lon="76.98634">
        <ele>4273.6</ele>
        <time>2015-08-29T04:26:26Z</time>
      </trkpt>
      <trkpt lat="34.16166" lon="76.98639">
        <ele>4274</ele>
        <time>2015-08-29T04:26:29Z</time>
      </trkpt>
      <trkpt lat="34.16165" lon="76.98639">
        <ele>4274</ele>
        <time>2015-08-29T04:26:30Z</time>
      </trkpt>
      <trkpt lat="34.16167" lon="76.98643">
        <ele>4274.4</ele>
        <time>2015-08-29T04:26:35Z</time>
      </trkpt>
      <trkpt lat="34.16168" lon="76.98647">
        <ele>4275</ele>
        <time>2015-08-29T04:26:45Z</time>
      </trkpt>
      <trkpt lat="34.16166" lon="76.98655">
        <ele>4276</ele>
        <time>2015-08-29T04:26:59Z</time>
      </trkpt>
      <trkpt lat="34.16166" lon="76.98656">
        <ele>4276.2</ele>
        <time>2015-08-29T04:27:01Z</time>
      </trkpt>
      <trkpt lat="34.16166" lon="76.98672">
        <ele>4277.2</ele>
        <time>2015-08-29T04:27:20Z</time>
      </trkpt>
      <trkpt lat="34.1616" lon="76.98686">
        <ele>4278</ele>
        <time>2015-08-29T04:27:40Z</time>
      </trkpt>
      <trkpt lat="34.16161" lon="76.98688">
        <ele>4278.2</ele>
        <time>2015-08-29T04:27:44Z</time>
      </trkpt>
      <trkpt lat="34.16164" lon="76.98697">
        <ele>4279</ele>
        <time>2015-08-29T04:27:57Z</time>
      </trkpt>
      <trkpt lat="34.16167" lon="76.98699">
        <ele>4279.4</ele>
        <time>2015-08-29T04:28:03Z</time>
      </trkpt>
      <trkpt lat="34.16163" lon="76.98702">
        <ele>4279.6</ele>
        <time>2015-08-29T04:28:07Z</time>
      </trkpt>
      <trkpt lat="34.1616" lon="76.98711">
        <ele>4280</ele>
        <time>2015-08-29T04:28:19Z</time>
      </trkpt>
      <trkpt lat="34.16159" lon="76.98721">
        <ele>4279.4</ele>
        <time>2015-08-29T04:28:41Z</time>
      </trkpt>
      <trkpt lat="34.16157" lon="76.98732">
        <ele>4280.2</ele>
        <time>2015-08-29T04:29:00Z</time>
      </trkpt>
      <trkpt lat="34.16154" lon="76.9874">
        <ele>4280</ele>
        <time>2015-08-29T04:29:08Z</time>
      </trkpt>
      <trkpt lat="34.16155" lon="76.9875">
        <ele>4280</ele>
        <time>2015-08-29T04:29:19Z</time>
      </trkpt>
      <trkpt lat="34.16154" lon="76.98752">
        <ele>4280.4</ele>
        <time>2015-08-29T04:29:24Z</time>
      </trkpt>
      <trkpt lat="34.1615" lon="76.98758">
        <ele>4281.2</ele>
        <time>2015-08-29T04:29:30Z</time>
      </trkpt>
      <trkpt lat="34.16149" lon="76.9876">
        <ele>4281.6</ele>
        <time>2015-08-29T04:29:33Z</time>
      </trkpt>
      <trkpt lat="34.16151" lon="76.98761">
        <ele>4281.8</ele>
        <time>2015-08-29T04:29:34Z</time>
      </trkpt>
      <trkpt lat="34.16154" lon="76.98764">
        <ele>4282.2</ele>
        <time>2015-08-29T04:29:38Z</time>
      </trkpt>
      <trkpt lat="34.16151" lon="76.98772">
        <ele>4282.6</ele>
        <time>2015-08-29T04:29:48Z</time>
      </trkpt>
      <trkpt lat="34.16149" lon="76.98774">
        <ele>4282.8</ele>
        <time>2015-08-29T04:29:50Z</time>
      </trkpt>
      <trkpt lat="34.16142" lon="76.98779">
        <ele>4283.6</ele>
        <time>2015-08-29T04:29:58Z</time>
      </trkpt>
      <trkpt lat="34.1614" lon="76.98778">
        <ele>4283.6</ele>
        <time>2015-08-29T04:30:00Z</time>
      </trkpt>
      <trkpt lat="34.16135" lon="76.98781">
        <ele>4283.8</ele>
        <time>2015-08-29T04:30:06Z</time>
      </trkpt>
      <trkpt lat="34.16125" lon="76.98799">
        <ele>4284.4</ele>
        <time>2015-08-29T04:30:23Z</time>
      </trkpt>
      <trkpt lat="34.16123" lon="76.98805">
        <ele>4284.8</ele>
        <time>2015-08-29T04:30:27Z</time>
      </trkpt>
      <trkpt lat="34.16116" lon="76.98812">
        <ele>4285.8</ele>
        <time>2015-08-29T04:30:40Z</time>
      </trkpt>
      <trkpt lat="34.1611" lon="76.98814">
        <ele>4286.4</ele>
        <time>2015-08-29T04:30:47Z</time>
      </trkpt>
      <trkpt lat="34.16108" lon="76.98815">
        <ele>4286.8</ele>
        <time>2015-08-29T04:30:51Z</time>
      </trkpt>
      <trkpt lat="34.16107" lon="76.98818">
        <ele>4287.4</ele>
        <time>2015-08-29T04:30:59Z</time>
      </trkpt>
      <trkpt lat="34.16107" lon="76.98825">
        <ele>4287.8</ele>
        <time>2015-08-29T04:31:07Z</time>
      </trkpt>
      <trkpt lat="34.16108" lon="76.98827">
        <ele>4288</ele>
        <time>2015-08-29T04:31:08Z</time>
      </trkpt>
      <trkpt lat="34.16108" lon="76.98828">
        <ele>4288.2</ele>
        <time>2015-08-29T04:31:10Z</time>
      </trkpt>
      <trkpt lat="34.16106" lon="76.98832">
        <ele>4289</ele>
        <time>2015-08-29T04:31:17Z</time>
      </trkpt>
      <trkpt lat="34.16096" lon="76.9884">
        <ele>4290</ele>
        <time>2015-08-29T04:31:50Z</time>
      </trkpt>
      <trkpt lat="34.16086" lon="76.98855">
        <ele>4291</ele>
        <time>2015-08-29T04:32:05Z</time>
      </trkpt>
      <trkpt lat="34.16086" lon="76.98856">
        <ele>4291.2</ele>
        <time>2015-08-29T04:32:06Z</time>
      </trkpt>
      <trkpt lat="34.16079" lon="76.98857">
        <ele>4292</ele>
        <time>2015-08-29T04:32:18Z</time>
      </trkpt>
      <trkpt lat="34.16074" lon="76.98859">
        <ele>4293</ele>
        <time>2015-08-29T04:32:32Z</time>
      </trkpt>
      <trkpt lat="34.16064" lon="76.98861">
        <ele>4294</ele>
        <time>2015-08-29T04:32:46Z</time>
      </trkpt>
      <trkpt lat="34.16067" lon="76.98871">
        <ele>4294.6</ele>
        <time>2015-08-29T04:32:54Z</time>
      </trkpt>
      <trkpt lat="34.16072" lon="76.98875">
        <ele>4295.2</ele>
        <time>2015-08-29T04:32:59Z</time>
      </trkpt>
      <trkpt lat="34.16069" lon="76.98881">
        <ele>4295.4</ele>
        <time>2015-08-29T04:33:04Z</time>
      </trkpt>
      <trkpt lat="34.16064" lon="76.98883">
        <ele>4295.4</ele>
        <time>2015-08-29T04:33:06Z</time>
      </trkpt>
      <trkpt lat="34.16045" lon="76.98885">
        <ele>4296.2</ele>
        <time>2015-08-29T04:33:17Z</time>
      </trkpt>
      <trkpt lat="34.16038" lon="76.98891">
        <ele>4296.6</ele>
        <time>2015-08-29T04:33:28Z</time>
      </trkpt>
      <trkpt lat="34.16041" lon="76.98905">
        <ele>4297.2</ele>
        <time>2015-08-29T04:33:43Z</time>
      </trkpt>
      <trkpt lat="34.16042" lon="76.98909">
        <ele>4297.2</ele>
        <time>2015-08-29T04:33:46Z</time>
      </trkpt>
      <trkpt lat="34.16032" lon="76.98918">
        <ele>4297.6</ele>
        <time>2015-08-29T04:33:59Z</time>
      </trkpt>
      <trkpt lat="34.16024" lon="76.9893">
        <ele>4298.2</ele>
        <time>2015-08-29T04:34:20Z</time>
      </trkpt>
      <trkpt lat="34.16022" lon="76.9893">
        <ele>4298.4</ele>
        <time>2015-08-29T04:34:23Z</time>
      </trkpt>
      <trkpt lat="34.16017" lon="76.98931">
        <ele>4298.8</ele>
        <time>2015-08-29T04:34:30Z</time>
      </trkpt>
      <trkpt lat="34.16015" lon="76.98935">
        <ele>4299</ele>
        <time>2015-08-29T04:34:33Z</time>
      </trkpt>
      <trkpt lat="34.16014" lon="76.98938">
        <ele>4299.4</ele>
        <time>2015-08-29T04:34:36Z</time>
      </trkpt>
      <trkpt lat="34.16014" lon="76.98939">
        <ele>4299.4</ele>
        <time>2015-08-29T04:34:37Z</time>
      </trkpt>
      <trkpt lat="34.16013" lon="76.98944">
        <ele>4299.6</ele>
        <time>2015-08-29T04:34:42Z</time>
      </trkpt>
      <trkpt lat="34.16011" lon="76.98946">
        <ele>4299.6</ele>
        <time>2015-08-29T04:34:45Z</time>
      </trkpt>
      <trkpt lat="34.16009" lon="76.98946">
        <ele>4299.8</ele>
        <time>2015-08-29T04:34:47Z</time>
      </trkpt>
      <trkpt lat="34.16007" lon="76.98948">
        <ele>4299.8</ele>
        <time>2015-08-29T04:34:51Z</time>
      </trkpt>
      <trkpt lat="34.16006" lon="76.9895">
        <ele>4300</ele>
        <time>2015-08-29T04:34:53Z</time>
      </trkpt>
      <trkpt lat="34.16005" lon="76.98952">
        <ele>4300.4</ele>
        <time>2015-08-29T04:34:56Z</time>
      </trkpt>
      <trkpt lat="34.15996" lon="76.98955">
        <ele>4301.4</ele>
        <time>2015-08-29T04:35:08Z</time>
      </trkpt>
      <trkpt lat="34.15991" lon="76.98958">
        <ele>4302</ele>
        <time>2015-08-29T04:35:15Z</time>
      </trkpt>
      <trkpt lat="34.15984" lon="76.98962">
        <ele>4302.4</ele>
        <time>2015-08-29T04:35:23Z</time>
      </trkpt>
      <trkpt lat="34.15983" lon="76.98959">
        <ele>4303.4</ele>
        <time>2015-08-29T04:35:34Z</time>
      </trkpt>
      <trkpt lat="34.15978" lon="76.98969">
        <ele>4304.4</ele>
        <time>2015-08-29T04:35:46Z</time>
      </trkpt>
      <trkpt lat="34.1597" lon="76.98974">
        <ele>4305.6</ele>
        <time>2015-08-29T04:35:57Z</time>
      </trkpt>
      <trkpt lat="34.15969" lon="76.98975">
        <ele>4305.8</ele>
        <time>2015-08-29T04:35:59Z</time>
      </trkpt>
      <trkpt lat="34.15966" lon="76.98976">
        <ele>4306.6</ele>
        <time>2015-08-29T04:36:08Z</time>
      </trkpt>
      <trkpt lat="34.15964" lon="76.98983">
        <ele>4306.4</ele>
        <time>2015-08-29T04:36:16Z</time>
      </trkpt>
      <trkpt lat="34.15961" lon="76.98992">
        <ele>4306.6</ele>
        <time>2015-08-29T04:36:30Z</time>
      </trkpt>
      <trkpt lat="34.15955" lon="76.98999">
        <ele>4307.6</ele>
        <time>2015-08-29T04:36:47Z</time>
      </trkpt>
      <trkpt lat="34.15954" lon="76.99001">
        <ele>4307.6</ele>
        <time>2015-08-29T04:36:49Z</time>
      </trkpt>
      <trkpt lat="34.15953" lon="76.99001">
        <ele>4307.8</ele>
        <time>2015-08-29T04:36:50Z</time>
      </trkpt>
      <trkpt lat="34.15943" lon="76.99008">
        <ele>4308.6</ele>
        <time>2015-08-29T04:37:04Z</time>
      </trkpt>
      <trkpt lat="34.15942" lon="76.99008">
        <ele>4308.8</ele>
        <time>2015-08-29T04:37:05Z</time>
      </trkpt>
      <trkpt lat="34.1594" lon="76.99009">
        <ele>4309</ele>
        <time>2015-08-29T04:37:08Z</time>
      </trkpt>
      <trkpt lat="34.15936" lon="76.99014">
        <ele>4309.6</ele>
        <time>2015-08-29T04:37:19Z</time>
      </trkpt>
      <trkpt lat="34.15934" lon="76.99027">
        <ele>4310.4</ele>
        <time>2015-08-29T04:37:35Z</time>
      </trkpt>
      <trkpt lat="34.15933" lon="76.99033">
        <ele>4310.8</ele>
        <time>2015-08-29T04:37:40Z</time>
      </trkpt>
      <trkpt lat="34.15928" lon="76.99034">
        <ele>4311.4</ele>
        <time>2015-08-29T04:37:46Z</time>
      </trkpt>
      <trkpt lat="34.15922" lon="76.99034">
        <ele>4311.8</ele>
        <time>2015-08-29T04:37:52Z</time>
      </trkpt>
      <trkpt lat="34.15919" lon="76.99035">
        <ele>4312</ele>
        <time>2015-08-29T04:37:55Z</time>
      </trkpt>
      <trkpt lat="34.15917" lon="76.99037">
        <ele>4312</ele>
        <time>2015-08-29T04:37:57Z</time>
      </trkpt>
      <trkpt lat="34.15911" lon="76.99048">
        <ele>4312.2</ele>
        <time>2015-08-29T04:38:06Z</time>
      </trkpt>
      <trkpt lat="34.1591" lon="76.9905">
        <ele>4312.8</ele>
        <time>2015-08-29T04:38:11Z</time>
      </trkpt>
      <trkpt lat="34.15905" lon="76.99052">
        <ele>4313.8</ele>
        <time>2015-08-29T04:38:21Z</time>
      </trkpt>
      <trkpt lat="34.15896" lon="76.99052">
        <ele>4315</ele>
        <time>2015-08-29T04:38:34Z</time>
      </trkpt>
      <trkpt lat="34.15885" lon="76.99057">
        <ele>4316</ele>
        <time>2015-08-29T04:38:48Z</time>
      </trkpt>
      <trkpt lat="34.15884" lon="76.99058">
        <ele>4316.2</ele>
        <time>2015-08-29T04:38:50Z</time>
      </trkpt>
      <trkpt lat="34.1588" lon="76.99062">
        <ele>4317</ele>
        <time>2015-08-29T04:39:00Z</time>
      </trkpt>
      <trkpt lat="34.1588" lon="76.99063">
        <ele>4317</ele>
        <time>2015-08-29T04:39:01Z</time>
      </trkpt>
      <trkpt lat="34.15879" lon="76.99065">
        <ele>4317.2</ele>
        <time>2015-08-29T04:39:03Z</time>
      </trkpt>
      <trkpt lat="34.15877" lon="76.99073">
        <ele>4318</ele>
        <time>2015-08-29T04:39:12Z</time>
      </trkpt>
      <trkpt lat="34.15876" lon="76.99079">
        <ele>4318.4</ele>
        <time>2015-08-29T04:39:16Z</time>
      </trkpt>
      <trkpt lat="34.15874" lon="76.9908">
        <ele>4318.6</ele>
        <time>2015-08-29T04:39:19Z</time>
      </trkpt>
      <trkpt lat="34.15873" lon="76.9908">
        <ele>4318.8</ele>
        <time>2015-08-29T04:39:21Z</time>
      </trkpt>
      <trkpt lat="34.15872" lon="76.99082">
        <ele>4319</ele>
        <time>2015-08-29T04:39:23Z</time>
      </trkpt>
      <trkpt lat="34.1587" lon="76.99082">
        <ele>4319.2</ele>
        <time>2015-08-29T04:39:25Z</time>
      </trkpt>
      <trkpt lat="34.15868" lon="76.99085">
        <ele>4319.2</ele>
        <time>2015-08-29T04:39:28Z</time>
      </trkpt>
      <trkpt lat="34.15871" lon="76.99095">
        <ele>4320.2</ele>
        <time>2015-08-29T04:39:38Z</time>
      </trkpt>
      <trkpt lat="34.15869" lon="76.99101">
        <ele>4321.2</ele>
        <time>2015-08-29T04:39:51Z</time>
      </trkpt>
      <trkpt lat="34.15865" lon="76.99106">
        <ele>4321.8</ele>
        <time>2015-08-29T04:39:58Z</time>
      </trkpt>
      <trkpt lat="34.15861" lon="76.99109">
        <ele>4322.2</ele>
        <time>2015-08-29T04:40:03Z</time>
      </trkpt>
      <trkpt lat="34.15852" lon="76.99117">
        <ele>4323.4</ele>
        <time>2015-08-29T04:40:14Z</time>
      </trkpt>
      <trkpt lat="34.15845" lon="76.99121">
        <ele>4324.4</ele>
        <time>2015-08-29T04:40:26Z</time>
      </trkpt>
      <trkpt lat="34.15845" lon="76.9913">
        <ele>4325</ele>
        <time>2015-08-29T04:40:33Z</time>
      </trkpt>
      <trkpt lat="34.15844" lon="76.99133">
        <ele>4325.2</ele>
        <time>2015-08-29T04:40:37Z</time>
      </trkpt>
      <trkpt lat="34.15844" lon="76.99135">
        <ele>4325.6</ele>
        <time>2015-08-29T04:40:41Z</time>
      </trkpt>
      <trkpt lat="34.15843" lon="76.99142">
        <ele>4326.6</ele>
        <time>2015-08-29T04:40:52Z</time>
      </trkpt>
      <trkpt lat="34.15844" lon="76.99151">
        <ele>4327.6</ele>
        <time>2015-08-29T04:41:04Z</time>
      </trkpt>
      <trkpt lat="34.15843" lon="76.99153">
        <ele>4327.8</ele>
        <time>2015-08-29T04:41:06Z</time>
      </trkpt>
      <trkpt lat="34.15841" lon="76.99155">
        <ele>4328</ele>
        <time>2015-08-29T04:41:09Z</time>
      </trkpt>
      <trkpt lat="34.15834" lon="76.9916">
        <ele>4328.6</ele>
        <time>2015-08-29T04:41:21Z</time>
      </trkpt>
      <trkpt lat="34.15832" lon="76.99161">
        <ele>4329</ele>
        <time>2015-08-29T04:41:24Z</time>
      </trkpt>
      <trkpt lat="34.1583" lon="76.99163">
        <ele>4329.6</ele>
        <time>2015-08-29T04:41:27Z</time>
      </trkpt>
      <trkpt lat="34.15828" lon="76.99163">
        <ele>4329.8</ele>
        <time>2015-08-29T04:41:28Z</time>
      </trkpt>
      <trkpt lat="34.15827" lon="76.99163">
        <ele>4330</ele>
        <time>2015-08-29T04:41:29Z</time>
      </trkpt>
      <trkpt lat="34.15825" lon="76.99162">
        <ele>4330.4</ele>
        <time>2015-08-29T04:41:31Z</time>
      </trkpt>
      <trkpt lat="34.15821" lon="76.99164">
        <ele>4330.8</ele>
        <time>2015-08-29T04:41:39Z</time>
      </trkpt>
      <trkpt lat="34.15819" lon="76.99168">
        <ele>4331.8</ele>
        <time>2015-08-29T04:41:47Z</time>
      </trkpt>
      <trkpt lat="34.15823" lon="76.99177">
        <ele>4333</ele>
        <time>2015-08-29T04:41:56Z</time>
      </trkpt>
      <trkpt lat="34.15815" lon="76.99177">
        <ele>4333.4</ele>
        <time>2015-08-29T04:42:00Z</time>
      </trkpt>
      <trkpt lat="34.15815" lon="76.9918">
        <ele>4333.6</ele>
        <time>2015-08-29T04:42:04Z</time>
      </trkpt>
      <trkpt lat="34.15814" lon="76.99182">
        <ele>4334</ele>
        <time>2015-08-29T04:42:08Z</time>
      </trkpt>
      <trkpt lat="34.15807" lon="76.99189">
        <ele>4335.2</ele>
        <time>2015-08-29T04:42:23Z</time>
      </trkpt>
      <trkpt lat="34.15802" lon="76.9919">
        <ele>4336.2</ele>
        <time>2015-08-29T04:42:31Z</time>
      </trkpt>
      <trkpt lat="34.15802" lon="76.99198">
        <ele>4337.2</ele>
        <time>2015-08-29T04:42:41Z</time>
      </trkpt>
      <trkpt lat="34.15801" lon="76.992">
        <ele>4337.4</ele>
        <time>2015-08-29T04:42:43Z</time>
      </trkpt>
      <trkpt lat="34.15799" lon="76.99209">
        <ele>4338.2</ele>
        <time>2015-08-29T04:42:56Z</time>
      </trkpt>
      <trkpt lat="34.15794" lon="76.99206">
        <ele>4339.4</ele>
        <time>2015-08-29T04:43:05Z</time>
      </trkpt>
      <trkpt lat="34.15787" lon="76.9921">
        <ele>4340.4</ele>
        <time>2015-08-29T04:43:16Z</time>
      </trkpt>
      <trkpt lat="34.15784" lon="76.99211">
        <ele>4341</ele>
        <time>2015-08-29T04:43:20Z</time>
      </trkpt>
      <trkpt lat="34.15782" lon="76.99211">
        <ele>4341.2</ele>
        <time>2015-08-29T04:43:22Z</time>
      </trkpt>
      <trkpt lat="34.15782" lon="76.99213">
        <ele>4341.4</ele>
        <time>2015-08-29T04:43:25Z</time>
      </trkpt>
      <trkpt lat="34.15782" lon="76.99219">
        <ele>4342.6</ele>
        <time>2015-08-29T04:43:34Z</time>
      </trkpt>
      <trkpt lat="34.15781" lon="76.9923">
        <ele>4343.6</ele>
        <time>2015-08-29T04:43:45Z</time>
      </trkpt>
      <trkpt lat="34.1578" lon="76.99231">
        <ele>4343.6</ele>
        <time>2015-08-29T04:43:46Z</time>
      </trkpt>
      <trkpt lat="34.15778" lon="76.99236">
        <ele>4344.6</ele>
        <time>2015-08-29T04:43:55Z</time>
      </trkpt>
      <trkpt lat="34.15774" lon="76.9924">
        <ele>4345.6</ele>
        <time>2015-08-29T04:44:03Z</time>
      </trkpt>
      <trkpt lat="34.15769" lon="76.99244">
        <ele>4346.4</ele>
        <time>2015-08-29T04:44:10Z</time>
      </trkpt>
      <trkpt lat="34.15768" lon="76.99245">
        <ele>4346.6</ele>
        <time>2015-08-29T04:44:12Z</time>
      </trkpt>
      <trkpt lat="34.15768" lon="76.99245">
        <ele>4346.8</ele>
        <time>2015-08-29T04:44:14Z</time>
      </trkpt>
      <trkpt lat="34.15766" lon="76.99251">
        <ele>4347.4</ele>
        <time>2015-08-29T04:44:23Z</time>
      </trkpt>
      <trkpt lat="34.15767" lon="76.99252">
        <ele>4347.6</ele>
        <time>2015-08-29T04:44:25Z</time>
      </trkpt>
      <trkpt lat="34.15766" lon="76.99253">
        <ele>4347.8</ele>
        <time>2015-08-29T04:44:27Z</time>
      </trkpt>
      <trkpt lat="34.15761" lon="76.99257">
        <ele>4348.8</ele>
        <time>2015-08-29T04:44:38Z</time>
      </trkpt>
      <trkpt lat="34.15756" lon="76.99261">
        <ele>4350</ele>
        <time>2015-08-29T04:44:50Z</time>
      </trkpt>
      <trkpt lat="34.15757" lon="76.99271">
        <ele>4351</ele>
        <time>2015-08-29T04:45:02Z</time>
      </trkpt>
      <trkpt lat="34.15756" lon="76.99277">
        <ele>4352</ele>
        <time>2015-08-29T04:45:11Z</time>
      </trkpt>
      <trkpt lat="34.15753" lon="76.9928">
        <ele>4353.2</ele>
        <time>2015-08-29T04:45:21Z</time>
      </trkpt>
      <trkpt lat="34.15752" lon="76.9929">
        <ele>4354.2</ele>
        <time>2015-08-29T04:45:32Z</time>
      </trkpt>
      <trkpt lat="34.15746" lon="76.99295">
        <ele>4355.4</ele>
        <time>2015-08-29T04:45:40Z</time>
      </trkpt>
      <trkpt lat="34.15745" lon="76.99297">
        <ele>4356</ele>
        <time>2015-08-29T04:45:47Z</time>
      </trkpt>
      <trkpt lat="34.15745" lon="76.99298">
        <ele>4356.4</ele>
        <time>2015-08-29T04:45:49Z</time>
      </trkpt>
      <trkpt lat="34.15742" lon="76.99303">
        <ele>4357.4</ele>
        <time>2015-08-29T04:46:01Z</time>
      </trkpt>
      <trkpt lat="34.15737" lon="76.99305">
        <ele>4358.4</ele>
        <time>2015-08-29T04:46:13Z</time>
      </trkpt>
      <trkpt lat="34.15732" lon="76.99312">
        <ele>4359.4</ele>
        <time>2015-08-29T04:46:23Z</time>
      </trkpt>
      <trkpt lat="34.15731" lon="76.99323">
        <ele>4360.6</ele>
        <time>2015-08-29T04:46:32Z</time>
      </trkpt>
      <trkpt lat="34.15728" lon="76.99329">
        <ele>4361.8</ele>
        <time>2015-08-29T04:46:44Z</time>
      </trkpt>
      <trkpt lat="34.15729" lon="76.99335">
        <ele>4362.8</ele>
        <time>2015-08-29T04:46:51Z</time>
      </trkpt>
      <trkpt lat="34.15732" lon="76.99339">
        <ele>4363.2</ele>
        <time>2015-08-29T04:46:57Z</time>
      </trkpt>
      <trkpt lat="34.15728" lon="76.99339">
        <ele>4363.8</ele>
        <time>2015-08-29T04:47:03Z</time>
      </trkpt>
      <trkpt lat="34.15726" lon="76.99338">
        <ele>4364</ele>
        <time>2015-08-29T04:47:05Z</time>
      </trkpt>
      <trkpt lat="34.15721" lon="76.99339">
        <ele>4364.8</ele>
        <time>2015-08-29T04:47:14Z</time>
      </trkpt>
      <trkpt lat="34.15715" lon="76.99348">
        <ele>4365.8</ele>
        <time>2015-08-29T04:47:25Z</time>
      </trkpt>
      <trkpt lat="34.15708" lon="76.99351">
        <ele>4367</ele>
        <time>2015-08-29T04:47:35Z</time>
      </trkpt>
      <trkpt lat="34.15694" lon="76.99366">
        <ele>4371.2</ele>
        <time>2015-08-29T04:48:17Z</time>
      </trkpt>
      <trkpt lat="34.15695" lon="76.99373">
        <ele>4371.6</ele>
        <time>2015-08-29T04:48:20Z</time>
      </trkpt>
      <trkpt lat="34.15697" lon="76.99381">
        <ele>4372.2</ele>
        <time>2015-08-29T04:48:26Z</time>
      </trkpt>
      <trkpt lat="34.15696" lon="76.99383">
        <ele>4372.4</ele>
        <time>2015-08-29T04:48:28Z</time>
      </trkpt>
      <trkpt lat="34.15695" lon="76.99416">
        <ele>4377.6</ele>
        <time>2015-08-29T04:49:35Z</time>
      </trkpt>
      <trkpt lat="34.15678" lon="76.99473">
        <ele>4385.8</ele>
        <time>2015-08-29T04:51:19Z</time>
      </trkpt>
      <trkpt lat="34.15668" lon="76.99468">
        <ele>4387</ele>
        <time>2015-08-29T04:52:34Z</time>
      </trkpt>
      <trkpt lat="34.15667" lon="76.9947">
        <ele>4386</ele>
        <time>2015-08-29T04:55:09Z</time>
      </trkpt>
      <trkpt lat="34.15668" lon="76.99472">
        <ele>4386</ele>
        <time>2015-08-29T04:55:12Z</time>
      </trkpt>
      <trkpt lat="34.15668" lon="76.99469">
        <ele>4385.8</ele>
        <time>2015-08-29T04:55:26Z</time>
      </trkpt>
      <trkpt lat="34.15668" lon="76.99467">
        <ele>4385.8</ele>
        <time>2015-08-29T04:55:29Z</time>
      </trkpt>
      <trkpt lat="34.15667" lon="76.99468">
        <ele>4387</ele>
        <time>2015-08-29T04:56:30Z</time>
      </trkpt>
      <trkpt lat="34.15665" lon="76.99468">
        <ele>4387.6</ele>
        <time>2015-08-29T04:56:40Z</time>
      </trkpt>
      <trkpt lat="34.15668" lon="76.99471">
        <ele>4388</ele>
        <time>2015-08-29T04:57:26Z</time>
      </trkpt>
      <trkpt lat="34.15675" lon="76.99473">
        <ele>4388</ele>
        <time>2015-08-29T04:57:36Z</time>
      </trkpt>
      <trkpt lat="34.15672" lon="76.99472">
        <ele>4388.2</ele>
        <time>2015-08-29T04:57:39Z</time>
      </trkpt>
      <trkpt lat="34.1567" lon="76.99471">
        <ele>4388</ele>
        <time>2015-08-29T04:57:41Z</time>
      </trkpt>
      <trkpt lat="34.15669" lon="76.9947">
        <ele>4388</ele>
        <time>2015-08-29T04:57:43Z</time>
      </trkpt>
      <trkpt lat="34.15668" lon="76.99468">
        <ele>4387.8</ele>
        <time>2015-08-29T04:57:46Z</time>
      </trkpt>
      <trkpt lat="34.15666" lon="76.99471">
        <ele>4388.2</ele>
        <time>2015-08-29T04:58:04Z</time>
      </trkpt>
      <trkpt lat="34.15667" lon="76.99473">
        <ele>4388</ele>
        <time>2015-08-29T04:58:06Z</time>
      </trkpt>
      <trkpt lat="34.15662" lon="76.99461">
        <ele>4387.4</ele>
        <time>2015-08-29T04:58:19Z</time>
      </trkpt>
      <trkpt lat="34.15663" lon="76.99467">
        <ele>4388</ele>
        <time>2015-08-29T04:58:25Z</time>
      </trkpt>
      <trkpt lat="34.15661" lon="76.99469">
        <ele>4389</ele>
        <time>2015-08-29T04:58:57Z</time>
      </trkpt>
      <trkpt lat="34.15665" lon="76.99476">
        <ele>4389.2</ele>
        <time>2015-08-29T04:59:05Z</time>
      </trkpt>
      <trkpt lat="34.15665" lon="76.99478">
        <ele>4389.2</ele>
        <time>2015-08-29T04:59:08Z</time>
      </trkpt>
      <trkpt lat="34.15665" lon="76.99485">
        <ele>4390</ele>
        <time>2015-08-29T04:59:20Z</time>
      </trkpt>
      <trkpt lat="34.15662" lon="76.99489">
        <ele>4391.2</ele>
        <time>2015-08-29T04:59:34Z</time>
      </trkpt>
      <trkpt lat="34.15659" lon="76.99498">
        <ele>4391.4</ele>
        <time>2015-08-29T04:59:59Z</time>
      </trkpt>
      <trkpt lat="34.15653" lon="76.99503">
        <ele>4391.4</ele>
        <time>2015-08-29T05:00:07Z</time>
      </trkpt>
      <trkpt lat="34.1565" lon="76.9951">
        <ele>4392.2</ele>
        <time>2015-08-29T05:00:22Z</time>
      </trkpt>
      <trkpt lat="34.15644" lon="76.99524">
        <ele>4393.2</ele>
        <time>2015-08-29T05:00:47Z</time>
      </trkpt>
      <trkpt lat="34.15644" lon="76.99531">
        <ele>4394.2</ele>
        <time>2015-08-29T05:00:57Z</time>
      </trkpt>
      <trkpt lat="34.15645" lon="76.99534">
        <ele>4394.4</ele>
        <time>2015-08-29T05:01:00Z</time>
      </trkpt>
      <trkpt lat="34.15643" lon="76.99539">
        <ele>4395.4</ele>
        <time>2015-08-29T05:01:09Z</time>
      </trkpt>
      <trkpt lat="34.15645" lon="76.99542">
        <ele>4395.6</ele>
        <time>2015-08-29T05:01:13Z</time>
      </trkpt>
      <trkpt lat="34.15648" lon="76.99544">
        <ele>4395.6</ele>
        <time>2015-08-29T05:01:15Z</time>
      </trkpt>
      <trkpt lat="34.15646" lon="76.99544">
        <ele>4395.6</ele>
        <time>2015-08-29T05:01:17Z</time>
      </trkpt>
      <trkpt lat="34.15644" lon="76.99543">
        <ele>4395.6</ele>
        <time>2015-08-29T05:01:19Z</time>
      </trkpt>
      <trkpt lat="34.1564" lon="76.99544">
        <ele>4395.8</ele>
        <time>2015-08-29T05:01:23Z</time>
      </trkpt>
      <trkpt lat="34.15636" lon="76.99545">
        <ele>4396.2</ele>
        <time>2015-08-29T05:01:26Z</time>
      </trkpt>
      <trkpt lat="34.15635" lon="76.99545">
        <ele>4396.4</ele>
        <time>2015-08-29T05:01:28Z</time>
      </trkpt>
      <trkpt lat="34.15634" lon="76.99545">
        <ele>4396.4</ele>
        <time>2015-08-29T05:01:29Z</time>
      </trkpt>
      <trkpt lat="34.15625" lon="76.99541">
        <ele>4397.4</ele>
        <time>2015-08-29T05:01:41Z</time>
      </trkpt>
      <trkpt lat="34.15623" lon="76.99544">
        <ele>4398.4</ele>
        <time>2015-08-29T05:02:01Z</time>
      </trkpt>
      <trkpt lat="34.15629" lon="76.99552">
        <ele>4398.6</ele>
        <time>2015-08-29T05:02:06Z</time>
      </trkpt>
      <trkpt lat="34.15626" lon="76.99558">
        <ele>4398.8</ele>
        <time>2015-08-29T05:02:13Z</time>
      </trkpt>
      <trkpt lat="34.15622" lon="76.99559">
        <ele>4399.4</ele>
        <time>2015-08-29T05:02:19Z</time>
      </trkpt>
      <trkpt lat="34.15621" lon="76.99559">
        <ele>4399.6</ele>
        <time>2015-08-29T05:02:20Z</time>
      </trkpt>
      <trkpt lat="34.15615" lon="76.9956">
        <ele>4399.8</ele>
        <time>2015-08-29T05:02:23Z</time>
      </trkpt>
      <trkpt lat="34.1561" lon="76.99558">
        <ele>4400.6</ele>
        <time>2015-08-29T05:02:31Z</time>
      </trkpt>
      <trkpt lat="34.15607" lon="76.9956">
        <ele>4401.6</ele>
        <time>2015-08-29T05:02:40Z</time>
      </trkpt>
      <trkpt lat="34.15602" lon="76.99563">
        <ele>4402.6</ele>
        <time>2015-08-29T05:02:53Z</time>
      </trkpt>
      <trkpt lat="34.15611" lon="76.99573">
        <ele>4403.2</ele>
        <time>2015-08-29T05:03:01Z</time>
      </trkpt>
      <trkpt lat="34.15615" lon="76.9958">
        <ele>4403.8</ele>
        <time>2015-08-29T05:03:06Z</time>
      </trkpt>
      <trkpt lat="34.15605" lon="76.99582">
        <ele>4404.8</ele>
        <time>2015-08-29T05:03:20Z</time>
      </trkpt>
      <trkpt lat="34.15597" lon="76.99584">
        <ele>4405.4</ele>
        <time>2015-08-29T05:03:28Z</time>
      </trkpt>
      <trkpt lat="34.15593" lon="76.99586">
        <ele>4405.8</ele>
        <time>2015-08-29T05:03:34Z</time>
      </trkpt>
      <trkpt lat="34.15597" lon="76.99591">
        <ele>4406.2</ele>
        <time>2015-08-29T05:03:39Z</time>
      </trkpt>
      <trkpt lat="34.15593" lon="76.99597">
        <ele>4406.8</ele>
        <time>2015-08-29T05:03:49Z</time>
      </trkpt>
      <trkpt lat="34.15579" lon="76.99599">
        <ele>4407.8</ele>
        <time>2015-08-29T05:04:05Z</time>
      </trkpt>
      <trkpt lat="34.15569" lon="76.99593">
        <ele>4408.2</ele>
        <time>2015-08-29T05:04:11Z</time>
      </trkpt>
      <trkpt lat="34.15568" lon="76.99593">
        <ele>4408.4</ele>
        <time>2015-08-29T05:04:13Z</time>
      </trkpt>
      <trkpt lat="34.15568" lon="76.99595">
        <ele>4408.6</ele>
        <time>2015-08-29T05:04:15Z</time>
      </trkpt>
      <trkpt lat="34.1557" lon="76.99597">
        <ele>4409</ele>
        <time>2015-08-29T05:04:18Z</time>
      </trkpt>
      <trkpt lat="34.1557" lon="76.99604">
        <ele>4410</ele>
        <time>2015-08-29T05:04:31Z</time>
      </trkpt>
      <trkpt lat="34.15566" lon="76.99608">
        <ele>4411.2</ele>
        <time>2015-08-29T05:04:43Z</time>
      </trkpt>
      <trkpt lat="34.15562" lon="76.99617">
        <ele>4412.2</ele>
        <time>2015-08-29T05:04:55Z</time>
      </trkpt>
      <trkpt lat="34.15559" lon="76.99622">
        <ele>4413.2</ele>
        <time>2015-08-29T05:05:06Z</time>
      </trkpt>
      <trkpt lat="34.15557" lon="76.99623">
        <ele>4413.6</ele>
        <time>2015-08-29T05:05:09Z</time>
      </trkpt>
      <trkpt lat="34.15556" lon="76.99625">
        <ele>4414</ele>
        <time>2015-08-29T05:05:14Z</time>
      </trkpt>
      <trkpt lat="34.15557" lon="76.99626">
        <ele>4414.4</ele>
        <time>2015-08-29T05:05:18Z</time>
      </trkpt>
      <trkpt lat="34.15555" lon="76.9963">
        <ele>4415.4</ele>
        <time>2015-08-29T05:05:29Z</time>
      </trkpt>
      <trkpt lat="34.15547" lon="76.99634">
        <ele>4416.4</ele>
        <time>2015-08-29T05:05:46Z</time>
      </trkpt>
      <trkpt lat="34.15546" lon="76.9964">
        <ele>4417.4</ele>
        <time>2015-08-29T05:06:01Z</time>
      </trkpt>
      <trkpt lat="34.15542" lon="76.99648">
        <ele>4418.6</ele>
        <time>2015-08-29T05:06:14Z</time>
      </trkpt>
      <trkpt lat="34.15538" lon="76.99651">
        <ele>4419.6</ele>
        <time>2015-08-29T05:06:26Z</time>
      </trkpt>
      <trkpt lat="34.15541" lon="76.99663">
        <ele>4420.6</ele>
        <time>2015-08-29T05:06:40Z</time>
      </trkpt>
      <trkpt lat="34.15537" lon="76.99665">
        <ele>4421.2</ele>
        <time>2015-08-29T05:06:48Z</time>
      </trkpt>
      <trkpt lat="34.15536" lon="76.99673">
        <ele>4421.6</ele>
        <time>2015-08-29T05:07:00Z</time>
      </trkpt>
      <trkpt lat="34.15531" lon="76.99681">
        <ele>4422.6</ele>
        <time>2015-08-29T05:07:14Z</time>
      </trkpt>
      <trkpt lat="34.15528" lon="76.99689">
        <ele>4423.4</ele>
        <time>2015-08-29T05:07:29Z</time>
      </trkpt>
      <trkpt lat="34.15526" lon="76.99692">
        <ele>4423.6</ele>
        <time>2015-08-29T05:07:37Z</time>
      </trkpt>
      <trkpt lat="34.15525" lon="76.99696">
        <ele>4424.6</ele>
        <time>2015-08-29T05:07:52Z</time>
      </trkpt>
      <trkpt lat="34.15521" lon="76.99704">
        <ele>4425.4</ele>
        <time>2015-08-29T05:08:05Z</time>
      </trkpt>
      <trkpt lat="34.15518" lon="76.99706">
        <ele>4425.8</ele>
        <time>2015-08-29T05:08:13Z</time>
      </trkpt>
      <trkpt lat="34.15521" lon="76.99714">
        <ele>4426.8</ele>
        <time>2015-08-29T05:08:22Z</time>
      </trkpt>
      <trkpt lat="34.15517" lon="76.99721">
        <ele>4428</ele>
        <time>2015-08-29T05:08:39Z</time>
      </trkpt>
      <trkpt lat="34.15519" lon="76.99728">
        <ele>4429</ele>
        <time>2015-08-29T05:08:50Z</time>
      </trkpt>
      <trkpt lat="34.1551" lon="76.99732">
        <ele>4430</ele>
        <time>2015-08-29T05:09:04Z</time>
      </trkpt>
      <trkpt lat="34.15506" lon="76.99738">
        <ele>4431</ele>
        <time>2015-08-29T05:09:16Z</time>
      </trkpt>
      <trkpt lat="34.15507" lon="76.99743">
        <ele>4432</ele>
        <time>2015-08-29T05:09:27Z</time>
      </trkpt>
      <trkpt lat="34.15506" lon="76.99752">
        <ele>4433</ele>
        <time>2015-08-29T05:09:40Z</time>
      </trkpt>
      <trkpt lat="34.15504" lon="76.99759">
        <ele>4434.2</ele>
        <time>2015-08-29T05:09:51Z</time>
      </trkpt>
      <trkpt lat="34.155" lon="76.99761">
        <ele>4435.2</ele>
        <time>2015-08-29T05:09:59Z</time>
      </trkpt>
      <trkpt lat="34.15495" lon="76.99761">
        <ele>4436.4</ele>
        <time>2015-08-29T05:10:15Z</time>
      </trkpt>
      <trkpt lat="34.15491" lon="76.99763">
        <ele>4436.6</ele>
        <time>2015-08-29T05:10:19Z</time>
      </trkpt>
      <trkpt lat="34.15487" lon="76.99768">
        <ele>4437.4</ele>
        <time>2015-08-29T05:10:27Z</time>
      </trkpt>
      <trkpt lat="34.1548" lon="76.99775">
        <ele>4438.4</ele>
        <time>2015-08-29T05:10:42Z</time>
      </trkpt>
      <trkpt lat="34.15479" lon="76.99777">
        <ele>4439.4</ele>
        <time>2015-08-29T05:10:51Z</time>
      </trkpt>
      <trkpt lat="34.15486" lon="76.99786">
        <ele>4440.6</ele>
        <time>2015-08-29T05:11:07Z</time>
      </trkpt>
      <trkpt lat="34.15486" lon="76.99792">
        <ele>4441.6</ele>
        <time>2015-08-29T05:11:18Z</time>
      </trkpt>
      <trkpt lat="34.15479" lon="76.99797">
        <ele>4442</ele>
        <time>2015-08-29T05:11:28Z</time>
      </trkpt>
      <trkpt lat="34.15478" lon="76.99803">
        <ele>4442.4</ele>
        <time>2015-08-29T05:11:37Z</time>
      </trkpt>
      <trkpt lat="34.15477" lon="76.99803">
        <ele>4442.6</ele>
        <time>2015-08-29T05:11:41Z</time>
      </trkpt>
      <trkpt lat="34.1547" lon="76.99806">
        <ele>4443.8</ele>
        <time>2015-08-29T05:11:53Z</time>
      </trkpt>
      <trkpt lat="34.15469" lon="76.99805">
        <ele>4444.2</ele>
        <time>2015-08-29T05:11:58Z</time>
      </trkpt>
      <trkpt lat="34.15466" lon="76.99807">
        <ele>4444.6</ele>
        <time>2015-08-29T05:12:03Z</time>
      </trkpt>
      <trkpt lat="34.15464" lon="76.99808">
        <ele>4444.8</ele>
        <time>2015-08-29T05:12:05Z</time>
      </trkpt>
      <trkpt lat="34.15464" lon="76.99808">
        <ele>4444.8</ele>
        <time>2015-08-29T05:12:06Z</time>
      </trkpt>
      <trkpt lat="34.1546" lon="76.99812">
        <ele>4445.8</ele>
        <time>2015-08-29T05:12:17Z</time>
      </trkpt>
      <trkpt lat="34.15455" lon="76.99825">
        <ele>4447</ele>
        <time>2015-08-29T05:12:32Z</time>
      </trkpt>
      <trkpt lat="34.15453" lon="76.99828">
        <ele>4448</ele>
        <time>2015-08-29T05:12:45Z</time>
      </trkpt>
      <trkpt lat="34.1545" lon="76.99834">
        <ele>4449</ele>
        <time>2015-08-29T05:12:59Z</time>
      </trkpt>
      <trkpt lat="34.15451" lon="76.99842">
        <ele>4450.2</ele>
        <time>2015-08-29T05:13:08Z</time>
      </trkpt>
      <trkpt lat="34.15447" lon="76.99844">
        <ele>4451.2</ele>
        <time>2015-08-29T05:13:18Z</time>
      </trkpt>
      <trkpt lat="34.15444" lon="76.99844">
        <ele>4452.4</ele>
        <time>2015-08-29T05:13:30Z</time>
      </trkpt>
      <trkpt lat="34.15442" lon="76.99854">
        <ele>4453.4</ele>
        <time>2015-08-29T05:13:44Z</time>
      </trkpt>
      <trkpt lat="34.15441" lon="76.99855">
        <ele>4454.4</ele>
        <time>2015-08-29T05:13:54Z</time>
      </trkpt>
      <trkpt lat="34.15434" lon="76.99856">
        <ele>4455.4</ele>
        <time>2015-08-29T05:14:07Z</time>
      </trkpt>
      <trkpt lat="34.15423" lon="76.99862">
        <ele>4456.6</ele>
        <time>2015-08-29T05:14:23Z</time>
      </trkpt>
      <trkpt lat="34.15418" lon="76.99868">
        <ele>4457.6</ele>
        <time>2015-08-29T05:14:36Z</time>
      </trkpt>
      <trkpt lat="34.15416" lon="76.99876">
        <ele>4458.6</ele>
        <time>2015-08-29T05:14:52Z</time>
      </trkpt>
      <trkpt lat="34.15419" lon="76.99883">
        <ele>4459.6</ele>
        <time>2015-08-29T05:15:04Z</time>
      </trkpt>
      <trkpt lat="34.1542" lon="76.99884">
        <ele>4459.6</ele>
        <time>2015-08-29T05:15:06Z</time>
      </trkpt>
      <trkpt lat="34.15417" lon="76.99887">
        <ele>4460.8</ele>
        <time>2015-08-29T05:15:20Z</time>
      </trkpt>
      <trkpt lat="34.15416" lon="76.99886">
        <ele>4461.8</ele>
        <time>2015-08-29T05:15:33Z</time>
      </trkpt>
      <trkpt lat="34.15416" lon="76.99895">
        <ele>4462.8</ele>
        <time>2015-08-29T05:15:47Z</time>
      </trkpt>
      <trkpt lat="34.15409" lon="76.99902">
        <ele>4464</ele>
        <time>2015-08-29T05:16:03Z</time>
      </trkpt>
      <trkpt lat="34.15402" lon="76.99905">
        <ele>4465</ele>
        <time>2015-08-29T05:16:18Z</time>
      </trkpt>
      <trkpt lat="34.15402" lon="76.99908">
        <ele>4466</ele>
        <time>2015-08-29T05:16:25Z</time>
      </trkpt>
      <trkpt lat="34.15399" lon="76.9991">
        <ele>4467.2</ele>
        <time>2015-08-29T05:16:38Z</time>
      </trkpt>
      <trkpt lat="34.15406" lon="76.99918">
        <ele>4467.8</ele>
        <time>2015-08-29T05:16:45Z</time>
      </trkpt>
      <trkpt lat="34.15403" lon="76.99921">
        <ele>4468</ele>
        <time>2015-08-29T05:16:51Z</time>
      </trkpt>
      <trkpt lat="34.15402" lon="76.9992">
        <ele>4468.2</ele>
        <time>2015-08-29T05:16:52Z</time>
      </trkpt>
      <trkpt lat="34.15401" lon="76.99919">
        <ele>4468.4</ele>
        <time>2015-08-29T05:16:54Z</time>
      </trkpt>
      <trkpt lat="34.15391" lon="76.99923">
        <ele>4468.8</ele>
        <time>2015-08-29T05:17:20Z</time>
      </trkpt>
      <trkpt lat="34.15396" lon="76.99917">
        <ele>4468.6</ele>
        <time>2015-08-29T05:17:55Z</time>
      </trkpt>
      <trkpt lat="34.15391" lon="76.9992">
        <ele>4468.2</ele>
        <time>2015-08-29T05:17:57Z</time>
      </trkpt>
      <trkpt lat="34.15392" lon="76.99917">
        <ele>4468.4</ele>
        <time>2015-08-29T05:18:03Z</time>
      </trkpt>
      <trkpt lat="34.15392" lon="76.99923">
        <ele>4468.8</ele>
        <time>2015-08-29T05:18:43Z</time>
      </trkpt>
      <trkpt lat="34.15392" lon="76.99925">
        <ele>4469</ele>
        <time>2015-08-29T05:18:54Z</time>
      </trkpt>
      <trkpt lat="34.15391" lon="76.99916">
        <ele>4468</ele>
        <time>2015-08-29T05:19:46Z</time>
      </trkpt>
      <trkpt lat="34.1539" lon="76.99913">
        <ele>4468.2</ele>
        <time>2015-08-29T05:19:54Z</time>
      </trkpt>
      <trkpt lat="34.15394" lon="76.9993">
        <ele>4468.4</ele>
        <time>2015-08-29T05:20:29Z</time>
      </trkpt>
      <trkpt lat="34.15392" lon="76.99937">
        <ele>4468.2</ele>
        <time>2015-08-29T05:21:01Z</time>
      </trkpt>
      <trkpt lat="34.15397" lon="76.9993">
        <ele>4467.2</ele>
        <time>2015-08-29T05:21:38Z</time>
      </trkpt>
      <trkpt lat="34.15395" lon="76.99927">
        <ele>4467.2</ele>
        <time>2015-08-29T05:21:41Z</time>
      </trkpt>
      <trkpt lat="34.15395" lon="76.99905">
        <ele>4467.2</ele>
        <time>2015-08-29T05:21:59Z</time>
      </trkpt>
      <trkpt lat="34.15393" lon="76.99903">
        <ele>4467.6</ele>
        <time>2015-08-29T05:22:12Z</time>
      </trkpt>
      <trkpt lat="34.15397" lon="76.99913">
        <ele>4468.2</ele>
        <time>2015-08-29T05:22:24Z</time>
      </trkpt>
      <trkpt lat="34.15397" lon="76.99915">
        <ele>4468.2</ele>
        <time>2015-08-29T05:22:25Z</time>
      </trkpt>
      <trkpt lat="34.15397" lon="76.99917">
        <ele>4468.2</ele>
        <time>2015-08-29T05:22:26Z</time>
      </trkpt>
      <trkpt lat="34.15397" lon="76.99918">
        <ele>4468.4</ele>
        <time>2015-08-29T05:22:28Z</time>
      </trkpt>
      <trkpt lat="34.15398" lon="76.99919">
        <ele>4469.2</ele>
        <time>2015-08-29T05:22:34Z</time>
      </trkpt>
      <trkpt lat="34.1539" lon="76.99919">
        <ele>4469.2</ele>
        <time>2015-08-29T05:22:44Z</time>
      </trkpt>
      <trkpt lat="34.15392" lon="76.9992">
        <ele>4469.6</ele>
        <time>2015-08-29T05:23:13Z</time>
      </trkpt>
      <trkpt lat="34.15394" lon="76.99922">
        <ele>4469.6</ele>
        <time>2015-08-29T05:23:31Z</time>
      </trkpt>
      <trkpt lat="34.15395" lon="76.99927">
        <ele>4470</ele>
        <time>2015-08-29T05:23:45Z</time>
      </trkpt>
      <trkpt lat="34.15395" lon="76.99926">
        <ele>4469.8</ele>
        <time>2015-08-29T05:23:47Z</time>
      </trkpt>
      <trkpt lat="34.15397" lon="76.99925">
        <ele>4470.2</ele>
        <time>2015-08-29T05:23:54Z</time>
      </trkpt>
      <trkpt lat="34.15398" lon="76.99921">
        <ele>4470.2</ele>
        <time>2015-08-29T05:23:57Z</time>
      </trkpt>
      <trkpt lat="34.15398" lon="76.99919">
        <ele>4470.2</ele>
        <time>2015-08-29T05:23:59Z</time>
      </trkpt>
      <trkpt lat="34.15393" lon="76.99921">
        <ele>4469.2</ele>
        <time>2015-08-29T05:24:21Z</time>
      </trkpt>
      <trkpt lat="34.1539" lon="76.99922">
        <ele>4470.2</ele>
        <time>2015-08-29T05:24:38Z</time>
      </trkpt>
      <trkpt lat="34.15391" lon="76.99921">
        <ele>4469.2</ele>
        <time>2015-08-29T05:24:58Z</time>
      </trkpt>
      <trkpt lat="34.15395" lon="76.99921">
        <ele>4468.6</ele>
        <time>2015-08-29T05:25:51Z</time>
      </trkpt>
      <trkpt lat="34.15395" lon="76.99915">
        <ele>4468.2</ele>
        <time>2015-08-29T05:26:04Z</time>
      </trkpt>
      <trkpt lat="34.15394" lon="76.99934">
        <ele>4468.6</ele>
        <time>2015-08-29T05:26:38Z</time>
      </trkpt>
      <trkpt lat="34.15395" lon="76.9993">
        <ele>4468.2</ele>
        <time>2015-08-29T05:27:27Z</time>
      </trkpt>
      <trkpt lat="34.15397" lon="76.9992">
        <ele>4468.6</ele>
        <time>2015-08-29T05:27:34Z</time>
      </trkpt>
      <trkpt lat="34.15403" lon="76.99919">
        <ele>4469</ele>
        <time>2015-08-29T05:27:38Z</time>
      </trkpt>
      <trkpt lat="34.15403" lon="76.99918">
        <ele>4468.6</ele>
        <time>2015-08-29T05:27:41Z</time>
      </trkpt>
      <trkpt lat="34.15395" lon="76.99921">
        <ele>4469.2</ele>
        <time>2015-08-29T05:27:51Z</time>
      </trkpt>
      <trkpt lat="34.15396" lon="76.99919">
        <ele>4469.2</ele>
        <time>2015-08-29T05:27:52Z</time>
      </trkpt>
      <trkpt lat="34.15392" lon="76.99922">
        <ele>4470.2</ele>
        <time>2015-08-29T05:27:59Z</time>
      </trkpt>
      <trkpt lat="34.15389" lon="76.99924">
        <ele>4471.2</ele>
        <time>2015-08-29T05:28:08Z</time>
      </trkpt>
      <trkpt lat="34.15381" lon="76.99937">
        <ele>4472.4</ele>
        <time>2015-08-29T05:28:40Z</time>
      </trkpt>
      <trkpt lat="34.15377" lon="76.99939">
        <ele>4473.4</ele>
        <time>2015-08-29T05:28:45Z</time>
      </trkpt>
      <trkpt lat="34.1537" lon="76.99946">
        <ele>4474.4</ele>
        <time>2015-08-29T05:29:03Z</time>
      </trkpt>
      <trkpt lat="34.15368" lon="76.99952">
        <ele>4475</ele>
        <time>2015-08-29T05:29:14Z</time>
      </trkpt>
      <trkpt lat="34.15367" lon="76.99953">
        <ele>4475.6</ele>
        <time>2015-08-29T05:29:25Z</time>
      </trkpt>
      <trkpt lat="34.15365" lon="76.99952">
        <ele>4476.6</ele>
        <time>2015-08-29T05:29:32Z</time>
      </trkpt>
      <trkpt lat="34.15363" lon="76.99952">
        <ele>4477.6</ele>
        <time>2015-08-29T05:29:40Z</time>
      </trkpt>
      <trkpt lat="34.15357" lon="76.99953">
        <ele>4478.6</ele>
        <time>2015-08-29T05:29:49Z</time>
      </trkpt>
      <trkpt lat="34.15356" lon="76.99954">
        <ele>4478.6</ele>
        <time>2015-08-29T05:29:52Z</time>
      </trkpt>
      <trkpt lat="34.15356" lon="76.99954">
        <ele>4479.6</ele>
        <time>2015-08-29T05:30:03Z</time>
      </trkpt>
      <trkpt lat="34.1535" lon="76.99959">
        <ele>4480.8</ele>
        <time>2015-08-29T05:30:18Z</time>
      </trkpt>
      <trkpt lat="34.15348" lon="76.99965">
        <ele>4482</ele>
        <time>2015-08-29T05:30:26Z</time>
      </trkpt>
      <trkpt lat="34.15345" lon="76.99971">
        <ele>4483</ele>
        <time>2015-08-29T05:30:40Z</time>
      </trkpt>
      <trkpt lat="34.15343" lon="76.99977">
        <ele>4484</ele>
        <time>2015-08-29T05:30:50Z</time>
      </trkpt>
      <trkpt lat="34.1534" lon="76.99983">
        <ele>4485.2</ele>
        <time>2015-08-29T05:31:01Z</time>
      </trkpt>
      <trkpt lat="34.15339" lon="76.99986">
        <ele>4486.2</ele>
        <time>2015-08-29T05:31:10Z</time>
      </trkpt>
      <trkpt lat="34.15334" lon="76.99991">
        <ele>4487.4</ele>
        <time>2015-08-29T05:31:21Z</time>
      </trkpt>
      <trkpt lat="34.15333" lon="76.99994">
        <ele>4487.8</ele>
        <time>2015-08-29T05:31:25Z</time>
      </trkpt>
      <trkpt lat="34.15329" lon="76.99997">
        <ele>4488.4</ele>
        <time>2015-08-29T05:31:31Z</time>
      </trkpt>
      <trkpt lat="34.15331" lon="77">
        <ele>4489.4</ele>
        <time>2015-08-29T05:31:42Z</time>
      </trkpt>
      <trkpt lat="34.15329" lon="77">
        <ele>4490.4</ele>
        <time>2015-08-29T05:31:51Z</time>
      </trkpt>
      <trkpt lat="34.15331" lon="77.00006">
        <ele>4491.2</ele>
        <time>2015-08-29T05:31:57Z</time>
      </trkpt>
      <trkpt lat="34.15328" lon="77.00008">
        <ele>4491.6</ele>
        <time>2015-08-29T05:32:01Z</time>
      </trkpt>
      <trkpt lat="34.1532" lon="77.00012">
        <ele>4492.6</ele>
        <time>2015-08-29T05:32:11Z</time>
      </trkpt>
      <trkpt lat="34.15318" lon="77.00012">
        <ele>4493</ele>
        <time>2015-08-29T05:32:13Z</time>
      </trkpt>
      <trkpt lat="34.15315" lon="77.00013">
        <ele>4493.6</ele>
        <time>2015-08-29T05:32:19Z</time>
      </trkpt>
      <trkpt lat="34.15311" lon="77.00012">
        <ele>4494.8</ele>
        <time>2015-08-29T05:32:30Z</time>
      </trkpt>
      <trkpt lat="34.15305" lon="77.00016">
        <ele>4495.8</ele>
        <time>2015-08-29T05:32:43Z</time>
      </trkpt>
      <trkpt lat="34.153" lon="77.00022">
        <ele>4496.8</ele>
        <time>2015-08-29T05:32:55Z</time>
      </trkpt>
      <trkpt lat="34.15297" lon="77.0002">
        <ele>4497.8</ele>
        <time>2015-08-29T05:33:04Z</time>
      </trkpt>
      <trkpt lat="34.15293" lon="77.00021">
        <ele>4499</ele>
        <time>2015-08-29T05:33:14Z</time>
      </trkpt>
      <trkpt lat="34.15289" lon="77.00022">
        <ele>4500</ele>
        <time>2015-08-29T05:33:23Z</time>
      </trkpt>
      <trkpt lat="34.15285" lon="77.00023">
        <ele>4501.2</ele>
        <time>2015-08-29T05:33:34Z</time>
      </trkpt>
      <trkpt lat="34.15279" lon="77.00022">
        <ele>4502.2</ele>
        <time>2015-08-29T05:33:42Z</time>
      </trkpt>
      <trkpt lat="34.15277" lon="77.00024">
        <ele>4502.8</ele>
        <time>2015-08-29T05:33:46Z</time>
      </trkpt>
      <trkpt lat="34.15274" lon="77.00028">
        <ele>4503.4</ele>
        <time>2015-08-29T05:33:58Z</time>
      </trkpt>
      <trkpt lat="34.15273" lon="77.00028">
        <ele>4504.4</ele>
        <time>2015-08-29T05:34:08Z</time>
      </trkpt>
      <trkpt lat="34.15271" lon="77.00029">
        <ele>4505.4</ele>
        <time>2015-08-29T05:34:15Z</time>
      </trkpt>
      <trkpt lat="34.15265" lon="77.00039">
        <ele>4506.6</ele>
        <time>2015-08-29T05:34:28Z</time>
      </trkpt>
      <trkpt lat="34.1526" lon="77.00043">
        <ele>4507.8</ele>
        <time>2015-08-29T05:34:34Z</time>
      </trkpt>
      <trkpt lat="34.15257" lon="77.00048">
        <ele>4508.2</ele>
        <time>2015-08-29T05:34:41Z</time>
      </trkpt>
      <trkpt lat="34.15257" lon="77.00048">
        <ele>4508.8</ele>
        <time>2015-08-29T05:34:46Z</time>
      </trkpt>
      <trkpt lat="34.15254" lon="77.0005">
        <ele>4509.8</ele>
        <time>2015-08-29T05:34:57Z</time>
      </trkpt>
      <trkpt lat="34.1525" lon="77.0005">
        <ele>4511</ele>
        <time>2015-08-29T05:35:05Z</time>
      </trkpt>
      <trkpt lat="34.15247" lon="77.00051">
        <ele>4512</ele>
        <time>2015-08-29T05:35:12Z</time>
      </trkpt>
      <trkpt lat="34.1524" lon="77.00056">
        <ele>4513.2</ele>
        <time>2015-08-29T05:35:31Z</time>
      </trkpt>
      <trkpt lat="34.15238" lon="77.00059">
        <ele>4514.2</ele>
        <time>2015-08-29T05:35:38Z</time>
      </trkpt>
      <trkpt lat="34.15236" lon="77.00067">
        <ele>4515.2</ele>
        <time>2015-08-29T05:35:47Z</time>
      </trkpt>
      <trkpt lat="34.15227" lon="77.00064">
        <ele>4516.2</ele>
        <time>2015-08-29T05:35:59Z</time>
      </trkpt>
      <trkpt lat="34.15223" lon="77.00065">
        <ele>4517.4</ele>
        <time>2015-08-29T05:36:09Z</time>
      </trkpt>
      <trkpt lat="34.1522" lon="77.00067">
        <ele>4518.4</ele>
        <time>2015-08-29T05:36:17Z</time>
      </trkpt>
      <trkpt lat="34.15218" lon="77.00065">
        <ele>4519.4</ele>
        <time>2015-08-29T05:36:26Z</time>
      </trkpt>
      <trkpt lat="34.15213" lon="77.00072">
        <ele>4520.4</ele>
        <time>2015-08-29T05:36:38Z</time>
      </trkpt>
      <trkpt lat="34.15208" lon="77.00073">
        <ele>4521.4</ele>
        <time>2015-08-29T05:36:50Z</time>
      </trkpt>
      <trkpt lat="34.15207" lon="77.00074">
        <ele>4522.6</ele>
        <time>2015-08-29T05:37:03Z</time>
      </trkpt>
      <trkpt lat="34.15205" lon="77.00072">
        <ele>4523.6</ele>
        <time>2015-08-29T05:37:13Z</time>
      </trkpt>
      <trkpt lat="34.15204" lon="77.00075">
        <ele>4524.6</ele>
        <time>2015-08-29T05:37:18Z</time>
      </trkpt>
      <trkpt lat="34.15202" lon="77.00079">
        <ele>4525.4</ele>
        <time>2015-08-29T05:37:26Z</time>
      </trkpt>
      <trkpt lat="34.15203" lon="77.00081">
        <ele>4525.6</ele>
        <time>2015-08-29T05:37:30Z</time>
      </trkpt>
      <trkpt lat="34.152" lon="77.00089">
        <ele>4526.8</ele>
        <time>2015-08-29T05:37:44Z</time>
      </trkpt>
      <trkpt lat="34.15197" lon="77.00093">
        <ele>4527.8</ele>
        <time>2015-08-29T05:37:53Z</time>
      </trkpt>
      <trkpt lat="34.15199" lon="77.00102">
        <ele>4529</ele>
        <time>2015-08-29T05:38:17Z</time>
      </trkpt>
      <trkpt lat="34.15199" lon="77.00103">
        <ele>4529.6</ele>
        <time>2015-08-29T05:38:23Z</time>
      </trkpt>
      <trkpt lat="34.152" lon="77.00104">
        <ele>4530</ele>
        <time>2015-08-29T05:38:27Z</time>
      </trkpt>
      <trkpt lat="34.15199" lon="77.00108">
        <ele>4531.2</ele>
        <time>2015-08-29T05:38:39Z</time>
      </trkpt>
      <trkpt lat="34.15199" lon="77.00109">
        <ele>4532.2</ele>
        <time>2015-08-29T05:38:51Z</time>
      </trkpt>
      <trkpt lat="34.152" lon="77.00113">
        <ele>4533.2</ele>
        <time>2015-08-29T05:38:58Z</time>
      </trkpt>
      <trkpt lat="34.152" lon="77.00111">
        <ele>4534.4</ele>
        <time>2015-08-29T05:39:16Z</time>
      </trkpt>
      <trkpt lat="34.15198" lon="77.00115">
        <ele>4535.4</ele>
        <time>2015-08-29T05:39:24Z</time>
      </trkpt>
      <trkpt lat="34.15198" lon="77.00121">
        <ele>4535.6</ele>
        <time>2015-08-29T05:39:28Z</time>
      </trkpt>
      <trkpt lat="34.15199" lon="77.00124">
        <ele>4536.6</ele>
        <time>2015-08-29T05:39:35Z</time>
      </trkpt>
      <trkpt lat="34.152" lon="77.00125">
        <ele>4537.6</ele>
        <time>2015-08-29T05:39:45Z</time>
      </trkpt>
      <trkpt lat="34.15199" lon="77.00125">
        <ele>4537.8</ele>
        <time>2015-08-29T05:39:46Z</time>
      </trkpt>
      <trkpt lat="34.15202" lon="77.00125">
        <ele>4538.8</ele>
        <time>2015-08-29T05:39:54Z</time>
      </trkpt>
      <trkpt lat="34.15206" lon="77.00127">
        <ele>4539.8</ele>
        <time>2015-08-29T05:40:01Z</time>
      </trkpt>
      <trkpt lat="34.15208" lon="77.00127">
        <ele>4540.4</ele>
        <time>2015-08-29T05:40:06Z</time>
      </trkpt>
      <trkpt lat="34.15209" lon="77.00128">
        <ele>4540.8</ele>
        <time>2015-08-29T05:40:10Z</time>
      </trkpt>
      <trkpt lat="34.15213" lon="77.00126">
        <ele>4541.8</ele>
        <time>2015-08-29T05:40:19Z</time>
      </trkpt>
      <trkpt lat="34.15228" lon="77.00124">
        <ele>4543</ele>
        <time>2015-08-29T05:40:52Z</time>
      </trkpt>
      <trkpt lat="34.15228" lon="77.00126">
        <ele>4543.8</ele>
        <time>2015-08-29T05:40:58Z</time>
      </trkpt>
      <trkpt lat="34.15229" lon="77.00127">
        <ele>4544.2</ele>
        <time>2015-08-29T05:41:00Z</time>
      </trkpt>
      <trkpt lat="34.15229" lon="77.00132">
        <ele>4545.2</ele>
        <time>2015-08-29T05:41:08Z</time>
      </trkpt>
      <trkpt lat="34.15228" lon="77.00137">
        <ele>4546.2</ele>
        <time>2015-08-29T05:41:29Z</time>
      </trkpt>
      <trkpt lat="34.15227" lon="77.00141">
        <ele>4547.4</ele>
        <time>2015-08-29T05:41:35Z</time>
      </trkpt>
      <trkpt lat="34.15226" lon="77.00143">
        <ele>4548.4</ele>
        <time>2015-08-29T05:41:40Z</time>
      </trkpt>
      <trkpt lat="34.15224" lon="77.00146">
        <ele>4548.6</ele>
        <time>2015-08-29T05:41:46Z</time>
      </trkpt>
      <trkpt lat="34.15224" lon="77.00148">
        <ele>4549.4</ele>
        <time>2015-08-29T05:41:52Z</time>
      </trkpt>
      <trkpt lat="34.15226" lon="77.00154">
        <ele>4550.4</ele>
        <time>2015-08-29T05:42:03Z</time>
      </trkpt>
      <trkpt lat="34.15226" lon="77.00158">
        <ele>4551.4</ele>
        <time>2015-08-29T05:42:12Z</time>
      </trkpt>
      <trkpt lat="34.15224" lon="77.00162">
        <ele>4552.6</ele>
        <time>2015-08-29T05:42:21Z</time>
      </trkpt>
      <trkpt lat="34.15223" lon="77.00163">
        <ele>4553.6</ele>
        <time>2015-08-29T05:42:29Z</time>
      </trkpt>
      <trkpt lat="34.15222" lon="77.00168">
        <ele>4554.6</ele>
        <time>2015-08-29T05:42:40Z</time>
      </trkpt>
      <trkpt lat="34.1522" lon="77.00169">
        <ele>4555.8</ele>
        <time>2015-08-29T05:42:49Z</time>
      </trkpt>
      <trkpt lat="34.15221" lon="77.00171">
        <ele>4556.8</ele>
        <time>2015-08-29T05:43:06Z</time>
      </trkpt>
      <trkpt lat="34.15225" lon="77.00175">
        <ele>4557.8</ele>
        <time>2015-08-29T05:43:15Z</time>
      </trkpt>
      <trkpt lat="34.15232" lon="77.00179">
        <ele>4558.8</ele>
        <time>2015-08-29T05:43:24Z</time>
      </trkpt>
      <trkpt lat="34.1524" lon="77.00179">
        <ele>4560</ele>
        <time>2015-08-29T05:43:40Z</time>
      </trkpt>
      <trkpt lat="34.15243" lon="77.00176">
        <ele>4560.2</ele>
        <time>2015-08-29T05:43:48Z</time>
      </trkpt>
      <trkpt lat="34.15251" lon="77.00175">
        <ele>4561</ele>
        <time>2015-08-29T05:44:07Z</time>
      </trkpt>
      <trkpt lat="34.15255" lon="77.00172">
        <ele>4562.2</ele>
        <time>2015-08-29T05:44:14Z</time>
      </trkpt>
      <trkpt lat="34.15266" lon="77.0017">
        <ele>4563.2</ele>
        <time>2015-08-29T05:44:32Z</time>
      </trkpt>
      <trkpt lat="34.1527" lon="77.0017">
        <ele>4564.4</ele>
        <time>2015-08-29T05:44:47Z</time>
      </trkpt>
      <trkpt lat="34.15271" lon="77.0017">
        <ele>4564.6</ele>
        <time>2015-08-29T05:44:51Z</time>
      </trkpt>
      <trkpt lat="34.15274" lon="77.0017">
        <ele>4565.4</ele>
        <time>2015-08-29T05:44:59Z</time>
      </trkpt>
      <trkpt lat="34.15286" lon="77.00168">
        <ele>4566.4</ele>
        <time>2015-08-29T05:45:19Z</time>
      </trkpt>
      <trkpt lat="34.15291" lon="77.00164">
        <ele>4567.4</ele>
        <time>2015-08-29T05:45:28Z</time>
      </trkpt>
      <trkpt lat="34.15296" lon="77.00163">
        <ele>4568.6</ele>
        <time>2015-08-29T05:45:40Z</time>
      </trkpt>
      <trkpt lat="34.15301" lon="77.00164">
        <ele>4569.6</ele>
        <time>2015-08-29T05:45:57Z</time>
      </trkpt>
      <trkpt lat="34.15307" lon="77.00168">
        <ele>4570.6</ele>
        <time>2015-08-29T05:46:12Z</time>
      </trkpt>
      <trkpt lat="34.1531" lon="77.00166">
        <ele>4570.6</ele>
        <time>2015-08-29T05:46:18Z</time>
      </trkpt>
      <trkpt lat="34.15315" lon="77.00166">
        <ele>4571.8</ele>
        <time>2015-08-29T05:46:29Z</time>
      </trkpt>
      <trkpt lat="34.15326" lon="77.00168">
        <ele>4572.8</ele>
        <time>2015-08-29T05:46:46Z</time>
      </trkpt>
      <trkpt lat="34.15332" lon="77.00169">
        <ele>4573.8</ele>
        <time>2015-08-29T05:46:55Z</time>
      </trkpt>
      <trkpt lat="34.15335" lon="77.00171">
        <ele>4575</ele>
        <time>2015-08-29T05:47:05Z</time>
      </trkpt>
      <trkpt lat="34.1534" lon="77.00174">
        <ele>4576</ele>
        <time>2015-08-29T05:47:15Z</time>
      </trkpt>
      <trkpt lat="34.15347" lon="77.00176">
        <ele>4577.2</ele>
        <time>2015-08-29T05:47:24Z</time>
      </trkpt>
      <trkpt lat="34.15349" lon="77.00178">
        <ele>4578.2</ele>
        <time>2015-08-29T05:47:31Z</time>
      </trkpt>
      <trkpt lat="34.1535" lon="77.0018">
        <ele>4579.2</ele>
        <time>2015-08-29T05:47:37Z</time>
      </trkpt>
      <trkpt lat="34.15354" lon="77.00181">
        <ele>4579.6</ele>
        <time>2015-08-29T05:47:41Z</time>
      </trkpt>
      <trkpt lat="34.15362" lon="77.00187">
        <ele>4580.4</ele>
        <time>2015-08-29T05:48:06Z</time>
      </trkpt>
      <trkpt lat="34.15369" lon="77.00185">
        <ele>4581.4</ele>
        <time>2015-08-29T05:48:19Z</time>
      </trkpt>
      <trkpt lat="34.1538" lon="77.00181">
        <ele>4582.4</ele>
        <time>2015-08-29T05:48:41Z</time>
      </trkpt>
      <trkpt lat="34.15385" lon="77.00178">
        <ele>4583.6</ele>
        <time>2015-08-29T05:48:54Z</time>
      </trkpt>
      <trkpt lat="34.15388" lon="77.00177">
        <ele>4584.6</ele>
        <time>2015-08-29T05:49:02Z</time>
      </trkpt>
      <trkpt lat="34.15396" lon="77.00176">
        <ele>4585.6</ele>
        <time>2015-08-29T05:49:17Z</time>
      </trkpt>
      <trkpt lat="34.15406" lon="77.00175">
        <ele>4586.6</ele>
        <time>2015-08-29T05:49:36Z</time>
      </trkpt>
      <trkpt lat="34.15409" lon="77.00176">
        <ele>4587.8</ele>
        <time>2015-08-29T05:49:44Z</time>
      </trkpt>
      <trkpt lat="34.15411" lon="77.00172">
        <ele>4588.8</ele>
        <time>2015-08-29T05:49:54Z</time>
      </trkpt>
      <trkpt lat="34.15414" lon="77.00171">
        <ele>4589.8</ele>
        <time>2015-08-29T05:50:04Z</time>
      </trkpt>
      <trkpt lat="34.15414" lon="77.00171">
        <ele>4590</ele>
        <time>2015-08-29T05:50:05Z</time>
      </trkpt>
      <trkpt lat="34.15417" lon="77.00165">
        <ele>4591</ele>
        <time>2015-08-29T05:50:19Z</time>
      </trkpt>
      <trkpt lat="34.15423" lon="77.00164">
        <ele>4592</ele>
        <time>2015-08-29T05:50:28Z</time>
      </trkpt>
      <trkpt lat="34.15425" lon="77.00169">
        <ele>4593.2</ele>
        <time>2015-08-29T05:50:39Z</time>
      </trkpt>
      <trkpt lat="34.15424" lon="77.00174">
        <ele>4594.2</ele>
        <time>2015-08-29T05:50:52Z</time>
      </trkpt>
      <trkpt lat="34.15422" lon="77.00177">
        <ele>4595.2</ele>
        <time>2015-08-29T05:51:01Z</time>
      </trkpt>
      <trkpt lat="34.15421" lon="77.0018">
        <ele>4596.2</ele>
        <time>2015-08-29T05:51:13Z</time>
      </trkpt>
      <trkpt lat="34.15422" lon="77.00182">
        <ele>4597.2</ele>
        <time>2015-08-29T05:51:23Z</time>
      </trkpt>
      <trkpt lat="34.15418" lon="77.00184">
        <ele>4598.4</ele>
        <time>2015-08-29T05:51:39Z</time>
      </trkpt>
      <trkpt lat="34.15415" lon="77.00189">
        <ele>4599.4</ele>
        <time>2015-08-29T05:51:49Z</time>
      </trkpt>
      <trkpt lat="34.15416" lon="77.00195">
        <ele>4600.4</ele>
        <time>2015-08-29T05:51:58Z</time>
      </trkpt>
      <trkpt lat="34.15415" lon="77.00198">
        <ele>4601.6</ele>
        <time>2015-08-29T05:52:07Z</time>
      </trkpt>
      <trkpt lat="34.1542" lon="77.00202">
        <ele>4602</ele>
        <time>2015-08-29T05:52:11Z</time>
      </trkpt>
      <trkpt lat="34.15421" lon="77.00203">
        <ele>4602.2</ele>
        <time>2015-08-29T05:52:13Z</time>
      </trkpt>
      <trkpt lat="34.1542" lon="77.00204">
        <ele>4602.6</ele>
        <time>2015-08-29T05:52:17Z</time>
      </trkpt>
      <trkpt lat="34.15415" lon="77.00206">
        <ele>4603.8</ele>
        <time>2015-08-29T05:52:27Z</time>
      </trkpt>
      <trkpt lat="34.15412" lon="77.00209">
        <ele>4604.8</ele>
        <time>2015-08-29T05:52:36Z</time>
      </trkpt>
      <trkpt lat="34.1541" lon="77.00212">
        <ele>4605.8</ele>
        <time>2015-08-29T05:52:45Z</time>
      </trkpt>
      <trkpt lat="34.15408" lon="77.00215">
        <ele>4606.8</ele>
        <time>2015-08-29T05:52:55Z</time>
      </trkpt>
      <trkpt lat="34.15407" lon="77.00219">
        <ele>4608</ele>
        <time>2015-08-29T05:53:05Z</time>
      </trkpt>
      <trkpt lat="34.15404" lon="77.00221">
        <ele>4609</ele>
        <time>2015-08-29T05:53:14Z</time>
      </trkpt>
      <trkpt lat="34.15402" lon="77.00225">
        <ele>4610</ele>
        <time>2015-08-29T05:53:24Z</time>
      </trkpt>
      <trkpt lat="34.15402" lon="77.00226">
        <ele>4611.2</ele>
        <time>2015-08-29T05:53:37Z</time>
      </trkpt>
      <trkpt lat="34.154" lon="77.00229">
        <ele>4612.2</ele>
        <time>2015-08-29T05:53:45Z</time>
      </trkpt>
      <trkpt lat="34.15395" lon="77.0023">
        <ele>4613.2</ele>
        <time>2015-08-29T05:53:55Z</time>
      </trkpt>
      <trkpt lat="34.15393" lon="77.00233">
        <ele>4614.4</ele>
        <time>2015-08-29T05:54:05Z</time>
      </trkpt>
      <trkpt lat="34.1539" lon="77.00233">
        <ele>4615.4</ele>
        <time>2015-08-29T05:54:13Z</time>
      </trkpt>
      <trkpt lat="34.15389" lon="77.00237">
        <ele>4616.4</ele>
        <time>2015-08-29T05:54:24Z</time>
      </trkpt>
      <trkpt lat="34.15386" lon="77.0024">
        <ele>4617.4</ele>
        <time>2015-08-29T05:54:36Z</time>
      </trkpt>
      <trkpt lat="34.15383" lon="77.00244">
        <ele>4618.6</ele>
        <time>2015-08-29T05:54:46Z</time>
      </trkpt>
      <trkpt lat="34.1538" lon="77.00246">
        <ele>4619.6</ele>
        <time>2015-08-29T05:54:55Z</time>
      </trkpt>
      <trkpt lat="34.15378" lon="77.00245">
        <ele>4620.8</ele>
        <time>2015-08-29T05:55:02Z</time>
      </trkpt>
      <trkpt lat="34.15372" lon="77.0025">
        <ele>4621.8</ele>
        <time>2015-08-29T05:55:20Z</time>
      </trkpt>
      <trkpt lat="34.1537" lon="77.00252">
        <ele>4623</ele>
        <time>2015-08-29T05:55:31Z</time>
      </trkpt>
      <trkpt lat="34.15367" lon="77.00258">
        <ele>4624</ele>
        <time>2015-08-29T05:55:41Z</time>
      </trkpt>
      <trkpt lat="34.15365" lon="77.0026">
        <ele>4625</ele>
        <time>2015-08-29T05:55:51Z</time>
      </trkpt>
      <trkpt lat="34.15362" lon="77.00267">
        <ele>4626</ele>
        <time>2015-08-29T05:56:01Z</time>
      </trkpt>
      <trkpt lat="34.15362" lon="77.00274">
        <ele>4627.2</ele>
        <time>2015-08-29T05:56:12Z</time>
      </trkpt>
      <trkpt lat="34.15359" lon="77.00275">
        <ele>4628.2</ele>
        <time>2015-08-29T05:56:22Z</time>
      </trkpt>
      <trkpt lat="34.15358" lon="77.00277">
        <ele>4629.2</ele>
        <time>2015-08-29T05:56:31Z</time>
      </trkpt>
      <trkpt lat="34.15355" lon="77.00281">
        <ele>4630.4</ele>
        <time>2015-08-29T05:56:44Z</time>
      </trkpt>
      <trkpt lat="34.15351" lon="77.00283">
        <ele>4631.6</ele>
        <time>2015-08-29T05:57:00Z</time>
      </trkpt>
      <trkpt lat="34.1535" lon="77.00286">
        <ele>4632.6</ele>
        <time>2015-08-29T05:57:09Z</time>
      </trkpt>
      <trkpt lat="34.15348" lon="77.00293">
        <ele>4633.6</ele>
        <time>2015-08-29T05:57:22Z</time>
      </trkpt>
      <trkpt lat="34.15344" lon="77.00295">
        <ele>4634.6</ele>
        <time>2015-08-29T05:57:33Z</time>
      </trkpt>
      <trkpt lat="34.15345" lon="77.003">
        <ele>4635.8</ele>
        <time>2015-08-29T05:57:44Z</time>
      </trkpt>
      <trkpt lat="34.15342" lon="77.00304">
        <ele>4636.8</ele>
        <time>2015-08-29T05:57:57Z</time>
      </trkpt>
      <trkpt lat="34.15339" lon="77.00309">
        <ele>4637.8</ele>
        <time>2015-08-29T05:58:12Z</time>
      </trkpt>
      <trkpt lat="34.15338" lon="77.00314">
        <ele>4638.8</ele>
        <time>2015-08-29T05:58:22Z</time>
      </trkpt>
      <trkpt lat="34.15335" lon="77.00316">
        <ele>4639.8</ele>
        <time>2015-08-29T05:58:33Z</time>
      </trkpt>
      <trkpt lat="34.15333" lon="77.00316">
        <ele>4641</ele>
        <time>2015-08-29T05:58:42Z</time>
      </trkpt>
      <trkpt lat="34.15332" lon="77.00321">
        <ele>4642</ele>
        <time>2015-08-29T05:58:51Z</time>
      </trkpt>
      <trkpt lat="34.15331" lon="77.00323">
        <ele>4643</ele>
        <time>2015-08-29T05:59:00Z</time>
      </trkpt>
      <trkpt lat="34.1533" lon="77.00325">
        <ele>4644</ele>
        <time>2015-08-29T05:59:11Z</time>
      </trkpt>
      <trkpt lat="34.15328" lon="77.0033">
        <ele>4645.2</ele>
        <time>2015-08-29T05:59:21Z</time>
      </trkpt>
      <trkpt lat="34.15326" lon="77.00333">
        <ele>4646.2</ele>
        <time>2015-08-29T05:59:30Z</time>
      </trkpt>
      <trkpt lat="34.15324" lon="77.00336">
        <ele>4647.2</ele>
        <time>2015-08-29T05:59:40Z</time>
      </trkpt>
      <trkpt lat="34.15321" lon="77.00338">
        <ele>4648.4</ele>
        <time>2015-08-29T05:59:50Z</time>
      </trkpt>
      <trkpt lat="34.15318" lon="77.00341">
        <ele>4649.4</ele>
        <time>2015-08-29T06:00:01Z</time>
      </trkpt>
      <trkpt lat="34.15317" lon="77.00343">
        <ele>4649.8</ele>
        <time>2015-08-29T06:00:05Z</time>
      </trkpt>
      <trkpt lat="34.15316" lon="77.00346">
        <ele>4650.6</ele>
        <time>2015-08-29T06:00:12Z</time>
      </trkpt>
      <trkpt lat="34.15315" lon="77.00348">
        <ele>4651.6</ele>
        <time>2015-08-29T06:00:22Z</time>
      </trkpt>
      <trkpt lat="34.15314" lon="77.0035">
        <ele>4652.6</ele>
        <time>2015-08-29T06:00:31Z</time>
      </trkpt>
      <trkpt lat="34.15313" lon="77.0035">
        <ele>4653.8</ele>
        <time>2015-08-29T06:00:42Z</time>
      </trkpt>
      <trkpt lat="34.1531" lon="77.00359">
        <ele>4655</ele>
        <time>2015-08-29T06:00:52Z</time>
      </trkpt>
      <trkpt lat="34.15309" lon="77.00362">
        <ele>4656</ele>
        <time>2015-08-29T06:00:59Z</time>
      </trkpt>
      <trkpt lat="34.15312" lon="77.00365">
        <ele>4657.2</ele>
        <time>2015-08-29T06:01:15Z</time>
      </trkpt>
      <trkpt lat="34.15313" lon="77.00366">
        <ele>4658.2</ele>
        <time>2015-08-29T06:01:28Z</time>
      </trkpt>
      <trkpt lat="34.15314" lon="77.00366">
        <ele>4659.4</ele>
        <time>2015-08-29T06:01:33Z</time>
      </trkpt>
      <trkpt lat="34.15316" lon="77.00367">
        <ele>4660.4</ele>
        <time>2015-08-29T06:01:47Z</time>
      </trkpt>
      <trkpt lat="34.15315" lon="77.00368">
        <ele>4661.6</ele>
        <time>2015-08-29T06:01:56Z</time>
      </trkpt>
      <trkpt lat="34.15314" lon="77.00371">
        <ele>4662.6</ele>
        <time>2015-08-29T06:02:04Z</time>
      </trkpt>
      <trkpt lat="34.15312" lon="77.00375">
        <ele>4663.6</ele>
        <time>2015-08-29T06:02:18Z</time>
      </trkpt>
      <trkpt lat="34.15311" lon="77.0038">
        <ele>4664.8</ele>
        <time>2015-08-29T06:02:28Z</time>
      </trkpt>
      <trkpt lat="34.15312" lon="77.00384">
        <ele>4665.8</ele>
        <time>2015-08-29T06:02:36Z</time>
      </trkpt>
      <trkpt lat="34.15311" lon="77.00385">
        <ele>4666.8</ele>
        <time>2015-08-29T06:02:42Z</time>
      </trkpt>
      <trkpt lat="34.15308" lon="77.00394">
        <ele>4667.8</ele>
        <time>2015-08-29T06:03:01Z</time>
      </trkpt>
      <trkpt lat="34.15305" lon="77.00401">
        <ele>4668.8</ele>
        <time>2015-08-29T06:03:15Z</time>
      </trkpt>
      <trkpt lat="34.15304" lon="77.00402">
        <ele>4669.8</ele>
        <time>2015-08-29T06:03:23Z</time>
      </trkpt>
      <trkpt lat="34.15303" lon="77.00408">
        <ele>4671</ele>
        <time>2015-08-29T06:03:35Z</time>
      </trkpt>
      <trkpt lat="34.15307" lon="77.00413">
        <ele>4672</ele>
        <time>2015-08-29T06:03:43Z</time>
      </trkpt>
      <trkpt lat="34.15306" lon="77.00414">
        <ele>4673</ele>
        <time>2015-08-29T06:03:53Z</time>
      </trkpt>
      <trkpt lat="34.15305" lon="77.00415">
        <ele>4674</ele>
        <time>2015-08-29T06:04:04Z</time>
      </trkpt>
      <trkpt lat="34.15304" lon="77.00418">
        <ele>4675</ele>
        <time>2015-08-29T06:04:13Z</time>
      </trkpt>
      <trkpt lat="34.15305" lon="77.00421">
        <ele>4676.2</ele>
        <time>2015-08-29T06:04:21Z</time>
      </trkpt>
      <trkpt lat="34.15301" lon="77.00425">
        <ele>4677.2</ele>
        <time>2015-08-29T06:04:32Z</time>
      </trkpt>
      <trkpt lat="34.15299" lon="77.00433">
        <ele>4678.2</ele>
        <time>2015-08-29T06:04:43Z</time>
      </trkpt>
      <trkpt lat="34.15299" lon="77.00435">
        <ele>4679.4</ele>
        <time>2015-08-29T06:04:52Z</time>
      </trkpt>
      <trkpt lat="34.15295" lon="77.00437">
        <ele>4680.4</ele>
        <time>2015-08-29T06:05:05Z</time>
      </trkpt>
      <trkpt lat="34.15295" lon="77.0044">
        <ele>4681.4</ele>
        <time>2015-08-29T06:05:17Z</time>
      </trkpt>
      <trkpt lat="34.15296" lon="77.00443">
        <ele>4682.4</ele>
        <time>2015-08-29T06:05:28Z</time>
      </trkpt>
      <trkpt lat="34.15295" lon="77.00447">
        <ele>4683.6</ele>
        <time>2015-08-29T06:05:41Z</time>
      </trkpt>
      <trkpt lat="34.15294" lon="77.00453">
        <ele>4684.6</ele>
        <time>2015-08-29T06:05:54Z</time>
      </trkpt>
      <trkpt lat="34.15291" lon="77.00452">
        <ele>4685.6</ele>
        <time>2015-08-29T06:06:03Z</time>
      </trkpt>
      <trkpt lat="34.15289" lon="77.00453">
        <ele>4686.8</ele>
        <time>2015-08-29T06:06:15Z</time>
      </trkpt>
      <trkpt lat="34.15287" lon="77.0046">
        <ele>4687.8</ele>
        <time>2015-08-29T06:06:28Z</time>
      </trkpt>
      <trkpt lat="34.15283" lon="77.00463">
        <ele>4688.8</ele>
        <time>2015-08-29T06:06:44Z</time>
      </trkpt>
      <trkpt lat="34.15279" lon="77.00463">
        <ele>4690</ele>
        <time>2015-08-29T06:06:56Z</time>
      </trkpt>
      <trkpt lat="34.15275" lon="77.0047">
        <ele>4691.2</ele>
        <time>2015-08-29T06:07:10Z</time>
      </trkpt>
      <trkpt lat="34.15274" lon="77.00474">
        <ele>4692.2</ele>
        <time>2015-08-29T06:07:21Z</time>
      </trkpt>
      <trkpt lat="34.15273" lon="77.00476">
        <ele>4693.2</ele>
        <time>2015-08-29T06:07:30Z</time>
      </trkpt>
      <trkpt lat="34.15273" lon="77.00483">
        <ele>4694.4</ele>
        <time>2015-08-29T06:07:56Z</time>
      </trkpt>
      <trkpt lat="34.15271" lon="77.00486">
        <ele>4695.4</ele>
        <time>2015-08-29T06:08:03Z</time>
      </trkpt>
      <trkpt lat="34.15267" lon="77.00485">
        <ele>4696.6</ele>
        <time>2015-08-29T06:08:13Z</time>
      </trkpt>
      <trkpt lat="34.15266" lon="77.0049">
        <ele>4697.6</ele>
        <time>2015-08-29T06:08:30Z</time>
      </trkpt>
      <trkpt lat="34.15261" lon="77.00498">
        <ele>4698.6</ele>
        <time>2015-08-29T06:08:43Z</time>
      </trkpt>
      <trkpt lat="34.15262" lon="77.00498">
        <ele>4699.8</ele>
        <time>2015-08-29T06:09:01Z</time>
      </trkpt>
      <trkpt lat="34.1526" lon="77.00503">
        <ele>4700.8</ele>
        <time>2015-08-29T06:09:15Z</time>
      </trkpt>
      <trkpt lat="34.15259" lon="77.00504">
        <ele>4701.2</ele>
        <time>2015-08-29T06:09:17Z</time>
      </trkpt>
      <trkpt lat="34.15259" lon="77.00506">
        <ele>4702</ele>
        <time>2015-08-29T06:09:23Z</time>
      </trkpt>
      <trkpt lat="34.15258" lon="77.0051">
        <ele>4703</ele>
        <time>2015-08-29T06:09:31Z</time>
      </trkpt>
      <trkpt lat="34.15254" lon="77.00514">
        <ele>4704.2</ele>
        <time>2015-08-29T06:09:46Z</time>
      </trkpt>
      <trkpt lat="34.15257" lon="77.00516">
        <ele>4705</ele>
        <time>2015-08-29T06:10:04Z</time>
      </trkpt>
      <trkpt lat="34.15257" lon="77.00518">
        <ele>4705.2</ele>
        <time>2015-08-29T06:10:09Z</time>
      </trkpt>
      <trkpt lat="34.15256" lon="77.00519">
        <ele>4706.4</ele>
        <time>2015-08-29T06:10:33Z</time>
      </trkpt>
      <trkpt lat="34.15256" lon="77.00524">
        <ele>4707.4</ele>
        <time>2015-08-29T06:10:44Z</time>
      </trkpt>
      <trkpt lat="34.15254" lon="77.00529">
        <ele>4708.4</ele>
        <time>2015-08-29T06:10:58Z</time>
      </trkpt>
      <trkpt lat="34.15252" lon="77.00531">
        <ele>4709.4</ele>
        <time>2015-08-29T06:11:06Z</time>
      </trkpt>
      <trkpt lat="34.15252" lon="77.00533">
        <ele>4710.4</ele>
        <time>2015-08-29T06:11:16Z</time>
      </trkpt>
      <trkpt lat="34.15252" lon="77.00538">
        <ele>4711.6</ele>
        <time>2015-08-29T06:11:36Z</time>
      </trkpt>
      <trkpt lat="34.15249" lon="77.00537">
        <ele>4712.8</ele>
        <time>2015-08-29T06:11:44Z</time>
      </trkpt>
      <trkpt lat="34.15246" lon="77.00538">
        <ele>4713.8</ele>
        <time>2015-08-29T06:11:51Z</time>
      </trkpt>
      <trkpt lat="34.15242" lon="77.00544">
        <ele>4714.8</ele>
        <time>2015-08-29T06:12:02Z</time>
      </trkpt>
      <trkpt lat="34.15241" lon="77.00549">
        <ele>4715.8</ele>
        <time>2015-08-29T06:12:12Z</time>
      </trkpt>
      <trkpt lat="34.15236" lon="77.00552">
        <ele>4715.8</ele>
        <time>2015-08-29T06:12:41Z</time>
      </trkpt>
      <trkpt lat="34.1524" lon="77.00551">
        <ele>4716.2</ele>
        <time>2015-08-29T06:12:45Z</time>
      </trkpt>
      <trkpt lat="34.15244" lon="77.00549">
        <ele>4716.4</ele>
        <time>2015-08-29T06:13:27Z</time>
      </trkpt>
      <trkpt lat="34.15237" lon="77.00553">
        <ele>4715.8</ele>
        <time>2015-08-29T06:14:54Z</time>
      </trkpt>
      <trkpt lat="34.15229" lon="77.00557">
        <ele>4715</ele>
        <time>2015-08-29T06:15:19Z</time>
      </trkpt>
      <trkpt lat="34.15229" lon="77.00557">
        <ele>4714.8</ele>
        <time>2015-08-29T06:15:20Z</time>
      </trkpt>
      <trkpt lat="34.15235" lon="77.00548">
        <ele>4715.8</ele>
        <time>2015-08-29T06:15:43Z</time>
      </trkpt>
      <trkpt lat="34.15233" lon="77.0055">
        <ele>4716.8</ele>
        <time>2015-08-29T06:16:18Z</time>
      </trkpt>
      <trkpt lat="34.15232" lon="77.00547">
        <ele>4718</ele>
        <time>2015-08-29T06:16:44Z</time>
      </trkpt>
      <trkpt lat="34.15235" lon="77.00543">
        <ele>4718.4</ele>
        <time>2015-08-29T06:16:59Z</time>
      </trkpt>
      <trkpt lat="34.15228" lon="77.00557">
        <ele>4718</ele>
        <time>2015-08-29T06:17:45Z</time>
      </trkpt>
      <trkpt lat="34.15222" lon="77.0056">
        <ele>4718.8</ele>
        <time>2015-08-29T06:18:08Z</time>
      </trkpt>
      <trkpt lat="34.15218" lon="77.00559">
        <ele>4719.2</ele>
        <time>2015-08-29T06:18:36Z</time>
      </trkpt>
      <trkpt lat="34.15225" lon="77.00557">
        <ele>4719.2</ele>
        <time>2015-08-29T06:19:02Z</time>
      </trkpt>
      <trkpt lat="34.15221" lon="77.00559">
        <ele>4719.2</ele>
        <time>2015-08-29T06:19:04Z</time>
      </trkpt>
      <trkpt lat="34.1523" lon="77.00563">
        <ele>4720.2</ele>
        <time>2015-08-29T06:19:30Z</time>
      </trkpt>
      <trkpt lat="34.15233" lon="77.00562">
        <ele>4720.4</ele>
        <time>2015-08-29T06:19:33Z</time>
      </trkpt>
      <trkpt lat="34.15233" lon="77.00565">
        <ele>4721.4</ele>
        <time>2015-08-29T06:19:45Z</time>
      </trkpt>
      <trkpt lat="34.15232" lon="77.00566">
        <ele>4722.4</ele>
        <time>2015-08-29T06:19:57Z</time>
      </trkpt>
      <trkpt lat="34.15233" lon="77.00565">
        <ele>4723.4</ele>
        <time>2015-08-29T06:20:04Z</time>
      </trkpt>
      <trkpt lat="34.15233" lon="77.00569">
        <ele>4724.6</ele>
        <time>2015-08-29T06:20:22Z</time>
      </trkpt>
      <trkpt lat="34.15231" lon="77.00572">
        <ele>4725.6</ele>
        <time>2015-08-29T06:20:28Z</time>
      </trkpt>
      <trkpt lat="34.15227" lon="77.00571">
        <ele>4726.6</ele>
        <time>2015-08-29T06:20:45Z</time>
      </trkpt>
      <trkpt lat="34.15225" lon="77.00572">
        <ele>4727.8</ele>
        <time>2015-08-29T06:20:57Z</time>
      </trkpt>
      <trkpt lat="34.15221" lon="77.00574">
        <ele>4728.8</ele>
        <time>2015-08-29T06:21:09Z</time>
      </trkpt>
      <trkpt lat="34.15221" lon="77.00571">
        <ele>4729.8</ele>
        <time>2015-08-29T06:21:17Z</time>
      </trkpt>
      <trkpt lat="34.15218" lon="77.00573">
        <ele>4731</ele>
        <time>2015-08-29T06:21:34Z</time>
      </trkpt>
      <trkpt lat="34.15216" lon="77.00577">
        <ele>4732</ele>
        <time>2015-08-29T06:21:52Z</time>
      </trkpt>
      <trkpt lat="34.15217" lon="77.0058">
        <ele>4733</ele>
        <time>2015-08-29T06:22:02Z</time>
      </trkpt>
      <trkpt lat="34.15214" lon="77.00583">
        <ele>4734.2</ele>
        <time>2015-08-29T06:22:12Z</time>
      </trkpt>
      <trkpt lat="34.15213" lon="77.00583">
        <ele>4735.2</ele>
        <time>2015-08-29T06:22:21Z</time>
      </trkpt>
      <trkpt lat="34.1521" lon="77.00587">
        <ele>4736.2</ele>
        <time>2015-08-29T06:22:36Z</time>
      </trkpt>
      <trkpt lat="34.15209" lon="77.00588">
        <ele>4737.4</ele>
        <time>2015-08-29T06:22:47Z</time>
      </trkpt>
      <trkpt lat="34.15209" lon="77.00589">
        <ele>4737.6</ele>
        <time>2015-08-29T06:22:50Z</time>
      </trkpt>
      <trkpt lat="34.15206" lon="77.0059">
        <ele>4738.4</ele>
        <time>2015-08-29T06:22:59Z</time>
      </trkpt>
      <trkpt lat="34.15205" lon="77.00595">
        <ele>4739.4</ele>
        <time>2015-08-29T06:23:27Z</time>
      </trkpt>
      <trkpt lat="34.15204" lon="77.00599">
        <ele>4740.6</ele>
        <time>2015-08-29T06:24:01Z</time>
      </trkpt>
      <trkpt lat="34.15205" lon="77.00605">
        <ele>4741.6</ele>
        <time>2015-08-29T06:24:13Z</time>
      </trkpt>
      <trkpt lat="34.1521" lon="77.00605">
        <ele>4742.2</ele>
        <time>2015-08-29T06:24:22Z</time>
      </trkpt>
      <trkpt lat="34.15214" lon="77.00604">
        <ele>4742.8</ele>
        <time>2015-08-29T06:24:25Z</time>
      </trkpt>
      <trkpt lat="34.15214" lon="77.00604">
        <ele>4743.8</ele>
        <time>2015-08-29T06:24:31Z</time>
      </trkpt>
      <trkpt lat="34.15212" lon="77.00605">
        <ele>4745</ele>
        <time>2015-08-29T06:24:37Z</time>
      </trkpt>
      <trkpt lat="34.15207" lon="77.00607">
        <ele>4746</ele>
        <time>2015-08-29T06:24:51Z</time>
      </trkpt>
      <trkpt lat="34.15206" lon="77.00609">
        <ele>4747</ele>
        <time>2015-08-29T06:25:01Z</time>
      </trkpt>
      <trkpt lat="34.15202" lon="77.00614">
        <ele>4748.2</ele>
        <time>2015-08-29T06:25:21Z</time>
      </trkpt>
      <trkpt lat="34.152" lon="77.00617">
        <ele>4749.2</ele>
        <time>2015-08-29T06:25:31Z</time>
      </trkpt>
      <trkpt lat="34.152" lon="77.00622">
        <ele>4750.4</ele>
        <time>2015-08-29T06:25:53Z</time>
      </trkpt>
      <trkpt lat="34.15198" lon="77.00624">
        <ele>4751.4</ele>
        <time>2015-08-29T06:26:05Z</time>
      </trkpt>
      <trkpt lat="34.15207" lon="77.00623">
        <ele>4752.6</ele>
        <time>2015-08-29T06:26:27Z</time>
      </trkpt>
      <trkpt lat="34.15209" lon="77.00623">
        <ele>4753.2</ele>
        <time>2015-08-29T06:26:34Z</time>
      </trkpt>
      <trkpt lat="34.1521" lon="77.00623">
        <ele>4753.6</ele>
        <time>2015-08-29T06:26:36Z</time>
      </trkpt>
      <trkpt lat="34.15211" lon="77.00626">
        <ele>4754.6</ele>
        <time>2015-08-29T06:26:49Z</time>
      </trkpt>
      <trkpt lat="34.15209" lon="77.00628">
        <ele>4755.6</ele>
        <time>2015-08-29T06:26:59Z</time>
      </trkpt>
      <trkpt lat="34.1521" lon="77.0063">
        <ele>4756.8</ele>
        <time>2015-08-29T06:27:07Z</time>
      </trkpt>
      <trkpt lat="34.15206" lon="77.00632">
        <ele>4757.8</ele>
        <time>2015-08-29T06:27:19Z</time>
      </trkpt>
      <trkpt lat="34.15203" lon="77.00632">
        <ele>4759</ele>
        <time>2015-08-29T06:27:31Z</time>
      </trkpt>
      <trkpt lat="34.15204" lon="77.00635">
        <ele>4760</ele>
        <time>2015-08-29T06:27:42Z</time>
      </trkpt>
      <trkpt lat="34.15201" lon="77.00643">
        <ele>4761</ele>
        <time>2015-08-29T06:27:58Z</time>
      </trkpt>
      <trkpt lat="34.15202" lon="77.00645">
        <ele>4762.2</ele>
        <time>2015-08-29T06:28:07Z</time>
      </trkpt>
      <trkpt lat="34.15204" lon="77.00647">
        <ele>4763.4</ele>
        <time>2015-08-29T06:28:41Z</time>
      </trkpt>
      <trkpt lat="34.15208" lon="77.00648">
        <ele>4764.4</ele>
        <time>2015-08-29T06:28:59Z</time>
      </trkpt>
      <trkpt lat="34.15212" lon="77.00648">
        <ele>4765.6</ele>
        <time>2015-08-29T06:29:03Z</time>
      </trkpt>
      <trkpt lat="34.15213" lon="77.00649">
        <ele>4766.8</ele>
        <time>2015-08-29T06:29:11Z</time>
      </trkpt>
      <trkpt lat="34.15212" lon="77.00648">
        <ele>4767.8</ele>
        <time>2015-08-29T06:29:23Z</time>
      </trkpt>
      <trkpt lat="34.1521" lon="77.00653">
        <ele>4768.8</ele>
        <time>2015-08-29T06:29:34Z</time>
      </trkpt>
      <trkpt lat="34.1521" lon="77.00659">
        <ele>4769.8</ele>
        <time>2015-08-29T06:29:46Z</time>
      </trkpt>
      <trkpt lat="34.15206" lon="77.00663">
        <ele>4771</ele>
        <time>2015-08-29T06:30:06Z</time>
      </trkpt>
      <trkpt lat="34.15207" lon="77.00662">
        <ele>4771.4</ele>
        <time>2015-08-29T06:30:13Z</time>
      </trkpt>
      <trkpt lat="34.15201" lon="77.00662">
        <ele>4771.6</ele>
        <time>2015-08-29T06:31:27Z</time>
      </trkpt>
      <trkpt lat="34.15209" lon="77.00663">
        <ele>4771.8</ele>
        <time>2015-08-29T06:31:43Z</time>
      </trkpt>
      <trkpt lat="34.1521" lon="77.00663">
        <ele>4772</ele>
        <time>2015-08-29T06:31:44Z</time>
      </trkpt>
      <trkpt lat="34.15198" lon="77.00661">
        <ele>4772.2</ele>
        <time>2015-08-29T06:32:21Z</time>
      </trkpt>
      <trkpt lat="34.15202" lon="77.0066">
        <ele>4772.2</ele>
        <time>2015-08-29T06:33:26Z</time>
      </trkpt>
      <trkpt lat="34.15205" lon="77.00659">
        <ele>4772.4</ele>
        <time>2015-08-29T06:34:56Z</time>
      </trkpt>
      <trkpt lat="34.15207" lon="77.00662">
        <ele>4773</ele>
        <time>2015-08-29T06:35:14Z</time>
      </trkpt>
      <trkpt lat="34.15209" lon="77.00662">
        <ele>4774</ele>
        <time>2015-08-29T06:35:23Z</time>
      </trkpt>
      <trkpt lat="34.15209" lon="77.00664">
        <ele>4775.2</ele>
        <time>2015-08-29T06:35:30Z</time>
      </trkpt>
      <trkpt lat="34.15208" lon="77.00666">
        <ele>4776.2</ele>
        <time>2015-08-29T06:35:36Z</time>
      </trkpt>
      <trkpt lat="34.15204" lon="77.00668">
        <ele>4777.2</ele>
        <time>2015-08-29T06:35:44Z</time>
      </trkpt>
      <trkpt lat="34.15209" lon="77.00673">
        <ele>4778.2</ele>
        <time>2015-08-29T06:36:01Z</time>
      </trkpt>
      <trkpt lat="34.1521" lon="77.00675">
        <ele>4779.4</ele>
        <time>2015-08-29T06:36:11Z</time>
      </trkpt>
      <trkpt lat="34.15209" lon="77.0068">
        <ele>4780.4</ele>
        <time>2015-08-29T06:36:23Z</time>
      </trkpt>
      <trkpt lat="34.15207" lon="77.00684">
        <ele>4781.4</ele>
        <time>2015-08-29T06:36:37Z</time>
      </trkpt>
      <trkpt lat="34.15206" lon="77.00689">
        <ele>4782.4</ele>
        <time>2015-08-29T06:36:52Z</time>
      </trkpt>
      <trkpt lat="34.15206" lon="77.00691">
        <ele>4783.6</ele>
        <time>2015-08-29T06:37:01Z</time>
      </trkpt>
      <trkpt lat="34.15201" lon="77.00696">
        <ele>4784.6</ele>
        <time>2015-08-29T06:37:12Z</time>
      </trkpt>
      <trkpt lat="34.15198" lon="77.007">
        <ele>4785.8</ele>
        <time>2015-08-29T06:37:29Z</time>
      </trkpt>
      <trkpt lat="34.15204" lon="77.00701">
        <ele>4786.8</ele>
        <time>2015-08-29T06:37:44Z</time>
      </trkpt>
      <trkpt lat="34.152" lon="77.00707">
        <ele>4787.8</ele>
        <time>2015-08-29T06:37:56Z</time>
      </trkpt>
      <trkpt lat="34.15198" lon="77.00709">
        <ele>4788.8</ele>
        <time>2015-08-29T06:38:05Z</time>
      </trkpt>
      <trkpt lat="34.15201" lon="77.00713">
        <ele>4790</ele>
        <time>2015-08-29T06:38:28Z</time>
      </trkpt>
      <trkpt lat="34.15208" lon="77.0071">
        <ele>4791</ele>
        <time>2015-08-29T06:38:43Z</time>
      </trkpt>
      <trkpt lat="34.1521" lon="77.00712">
        <ele>4792.2</ele>
        <time>2015-08-29T06:38:49Z</time>
      </trkpt>
      <trkpt lat="34.1521" lon="77.00715">
        <ele>4793.2</ele>
        <time>2015-08-29T06:38:56Z</time>
      </trkpt>
      <trkpt lat="34.15208" lon="77.00719">
        <ele>4794.2</ele>
        <time>2015-08-29T06:39:06Z</time>
      </trkpt>
      <trkpt lat="34.15206" lon="77.00722">
        <ele>4795.2</ele>
        <time>2015-08-29T06:39:16Z</time>
      </trkpt>
      <trkpt lat="34.15204" lon="77.00727">
        <ele>4796.4</ele>
        <time>2015-08-29T06:39:32Z</time>
      </trkpt>
      <trkpt lat="34.152" lon="77.00731">
        <ele>4797.4</ele>
        <time>2015-08-29T06:39:45Z</time>
      </trkpt>
      <trkpt lat="34.15196" lon="77.00735">
        <ele>4798.4</ele>
        <time>2015-08-29T06:39:56Z</time>
      </trkpt>
      <trkpt lat="34.15192" lon="77.00739">
        <ele>4799.4</ele>
        <time>2015-08-29T06:40:09Z</time>
      </trkpt>
      <trkpt lat="34.15188" lon="77.00746">
        <ele>4800.4</ele>
        <time>2015-08-29T06:40:27Z</time>
      </trkpt>
      <trkpt lat="34.15186" lon="77.00746">
        <ele>4800.6</ele>
        <time>2015-08-29T06:40:29Z</time>
      </trkpt>
      <trkpt lat="34.15185" lon="77.0075">
        <ele>4801.6</ele>
        <time>2015-08-29T06:40:42Z</time>
      </trkpt>
      <trkpt lat="34.15189" lon="77.00754">
        <ele>4802.6</ele>
        <time>2015-08-29T06:40:52Z</time>
      </trkpt>
      <trkpt lat="34.15181" lon="77.00755">
        <ele>4803.4</ele>
        <time>2015-08-29T06:41:02Z</time>
      </trkpt>
      <trkpt lat="34.15181" lon="77.00755">
        <ele>4803.8</ele>
        <time>2015-08-29T06:41:04Z</time>
      </trkpt>
      <trkpt lat="34.15184" lon="77.0076">
        <ele>4804.8</ele>
        <time>2015-08-29T06:41:20Z</time>
      </trkpt>
      <trkpt lat="34.15186" lon="77.00762">
        <ele>4804.8</ele>
        <time>2015-08-29T06:41:22Z</time>
      </trkpt>
      <trkpt lat="34.15189" lon="77.00765">
        <ele>4805.8</ele>
        <time>2015-08-29T06:41:32Z</time>
      </trkpt>
      <trkpt lat="34.15186" lon="77.00766">
        <ele>4807</ele>
        <time>2015-08-29T06:41:38Z</time>
      </trkpt>
      <trkpt lat="34.1518" lon="77.00769">
        <ele>4808.2</ele>
        <time>2015-08-29T06:41:50Z</time>
      </trkpt>
      <trkpt lat="34.15177" lon="77.00772">
        <ele>4809.2</ele>
        <time>2015-08-29T06:42:03Z</time>
      </trkpt>
      <trkpt lat="34.15175" lon="77.00769">
        <ele>4810</ele>
        <time>2015-08-29T06:42:12Z</time>
      </trkpt>
      <trkpt lat="34.15174" lon="77.00768">
        <ele>4810.2</ele>
        <time>2015-08-29T06:42:23Z</time>
      </trkpt>
      <trkpt lat="34.15176" lon="77.0077">
        <ele>4810.2</ele>
        <time>2015-08-29T06:42:28Z</time>
      </trkpt>
      <trkpt lat="34.15177" lon="77.0077">
        <ele>4809.8</ele>
        <time>2015-08-29T06:42:30Z</time>
      </trkpt>
      <trkpt lat="34.1517" lon="77.00775">
        <ele>4811.2</ele>
        <time>2015-08-29T06:43:06Z</time>
      </trkpt>
      <trkpt lat="34.15165" lon="77.0078">
        <ele>4812.4</ele>
        <time>2015-08-29T06:43:16Z</time>
      </trkpt>
      <trkpt lat="34.15162" lon="77.00783">
        <ele>4813.4</ele>
        <time>2015-08-29T06:43:22Z</time>
      </trkpt>
      <trkpt lat="34.15162" lon="77.00788">
        <ele>4814.6</ele>
        <time>2015-08-29T06:43:32Z</time>
      </trkpt>
      <trkpt lat="34.15163" lon="77.00793">
        <ele>4815.6</ele>
        <time>2015-08-29T06:43:41Z</time>
      </trkpt>
      <trkpt lat="34.15163" lon="77.00796">
        <ele>4816.8</ele>
        <time>2015-08-29T06:43:50Z</time>
      </trkpt>
      <trkpt lat="34.15161" lon="77.00801">
        <ele>4817.8</ele>
        <time>2015-08-29T06:44:00Z</time>
      </trkpt>
      <trkpt lat="34.15159" lon="77.00803">
        <ele>4818.8</ele>
        <time>2015-08-29T06:44:06Z</time>
      </trkpt>
      <trkpt lat="34.15152" lon="77.00809">
        <ele>4820</ele>
        <time>2015-08-29T06:44:23Z</time>
      </trkpt>
      <trkpt lat="34.15156" lon="77.0081">
        <ele>4821</ele>
        <time>2015-08-29T06:44:43Z</time>
      </trkpt>
      <trkpt lat="34.15153" lon="77.00815">
        <ele>4822.2</ele>
        <time>2015-08-29T06:45:10Z</time>
      </trkpt>
      <trkpt lat="34.15151" lon="77.00817">
        <ele>4823.2</ele>
        <time>2015-08-29T06:45:20Z</time>
      </trkpt>
      <trkpt lat="34.15163" lon="77.00817">
        <ele>4824.2</ele>
        <time>2015-08-29T06:45:58Z</time>
      </trkpt>
      <trkpt lat="34.15169" lon="77.00814">
        <ele>4825.4</ele>
        <time>2015-08-29T06:46:17Z</time>
      </trkpt>
      <trkpt lat="34.15167" lon="77.00817">
        <ele>4826.4</ele>
        <time>2015-08-29T06:46:27Z</time>
      </trkpt>
      <trkpt lat="34.15164" lon="77.00818">
        <ele>4827.4</ele>
        <time>2015-08-29T06:46:32Z</time>
      </trkpt>
      <trkpt lat="34.15158" lon="77.00818">
        <ele>4828.2</ele>
        <time>2015-08-29T06:46:38Z</time>
      </trkpt>
      <trkpt lat="34.15157" lon="77.00818">
        <ele>4828.4</ele>
        <time>2015-08-29T06:46:39Z</time>
      </trkpt>
      <trkpt lat="34.15155" lon="77.00818">
        <ele>4828.8</ele>
        <time>2015-08-29T06:46:42Z</time>
      </trkpt>
      <trkpt lat="34.15154" lon="77.00819">
        <ele>4829.4</ele>
        <time>2015-08-29T06:46:48Z</time>
      </trkpt>
      <trkpt lat="34.15154" lon="77.00824">
        <ele>4830.6</ele>
        <time>2015-08-29T06:46:59Z</time>
      </trkpt>
      <trkpt lat="34.15154" lon="77.00827">
        <ele>4831.8</ele>
        <time>2015-08-29T06:47:05Z</time>
      </trkpt>
      <trkpt lat="34.15153" lon="77.0083">
        <ele>4832.8</ele>
        <time>2015-08-29T06:47:27Z</time>
      </trkpt>
      <trkpt lat="34.15149" lon="77.00831">
        <ele>4833.8</ele>
        <time>2015-08-29T06:47:37Z</time>
      </trkpt>
      <trkpt lat="34.1515" lon="77.00833">
        <ele>4834.8</ele>
        <time>2015-08-29T06:47:44Z</time>
      </trkpt>
      <trkpt lat="34.15146" lon="77.00842">
        <ele>4836</ele>
        <time>2015-08-29T06:48:00Z</time>
      </trkpt>
      <trkpt lat="34.15142" lon="77.00842">
        <ele>4837</ele>
        <time>2015-08-29T06:48:11Z</time>
      </trkpt>
      <trkpt lat="34.15143" lon="77.00845">
        <ele>4838</ele>
        <time>2015-08-29T06:48:35Z</time>
      </trkpt>
      <trkpt lat="34.1514" lon="77.00849">
        <ele>4839</ele>
        <time>2015-08-29T06:48:50Z</time>
      </trkpt>
      <trkpt lat="34.15136" lon="77.0085">
        <ele>4840.2</ele>
        <time>2015-08-29T06:48:58Z</time>
      </trkpt>
      <trkpt lat="34.15136" lon="77.0085">
        <ele>4841.2</ele>
        <time>2015-08-29T06:49:06Z</time>
      </trkpt>
      <trkpt lat="34.15132" lon="77.00853">
        <ele>4842.2</ele>
        <time>2015-08-29T06:49:18Z</time>
      </trkpt>
      <trkpt lat="34.15126" lon="77.00854">
        <ele>4843.4</ele>
        <time>2015-08-29T06:49:28Z</time>
      </trkpt>
      <trkpt lat="34.15123" lon="77.00856">
        <ele>4844.6</ele>
        <time>2015-08-29T06:49:35Z</time>
      </trkpt>
      <trkpt lat="34.1512" lon="77.00858">
        <ele>4845.6</ele>
        <time>2015-08-29T06:49:43Z</time>
      </trkpt>
      <trkpt lat="34.15121" lon="77.00863">
        <ele>4846.6</ele>
        <time>2015-08-29T06:50:02Z</time>
      </trkpt>
      <trkpt lat="34.15122" lon="77.00864">
        <ele>4847.8</ele>
        <time>2015-08-29T06:50:08Z</time>
      </trkpt>
      <trkpt lat="34.15124" lon="77.00866">
        <ele>4848.8</ele>
        <time>2015-08-29T06:50:18Z</time>
      </trkpt>
      <trkpt lat="34.15119" lon="77.00867">
        <ele>4849.8</ele>
        <time>2015-08-29T06:51:11Z</time>
      </trkpt>
      <trkpt lat="34.15116" lon="77.0087">
        <ele>4851.2</ele>
        <time>2015-08-29T06:51:17Z</time>
      </trkpt>
      <trkpt lat="34.15115" lon="77.00871">
        <ele>4852.4</ele>
        <time>2015-08-29T06:51:31Z</time>
      </trkpt>
      <trkpt lat="34.15115" lon="77.00872">
        <ele>4853.4</ele>
        <time>2015-08-29T06:51:41Z</time>
      </trkpt>
      <trkpt lat="34.15108" lon="77.00875">
        <ele>4854.6</ele>
        <time>2015-08-29T06:52:10Z</time>
      </trkpt>
      <trkpt lat="34.1511" lon="77.0088">
        <ele>4855.6</ele>
        <time>2015-08-29T06:52:26Z</time>
      </trkpt>
      <trkpt lat="34.15106" lon="77.00882">
        <ele>4856.6</ele>
        <time>2015-08-29T06:52:36Z</time>
      </trkpt>
      <trkpt lat="34.15105" lon="77.00882">
        <ele>4856.8</ele>
        <time>2015-08-29T06:52:37Z</time>
      </trkpt>
      <trkpt lat="34.15103" lon="77.00883">
        <ele>4857.8</ele>
        <time>2015-08-29T06:52:43Z</time>
      </trkpt>
      <trkpt lat="34.15103" lon="77.00883">
        <ele>4859.2</ele>
        <time>2015-08-29T06:52:48Z</time>
      </trkpt>
      <trkpt lat="34.15098" lon="77.00885">
        <ele>4860.2</ele>
        <time>2015-08-29T06:53:03Z</time>
      </trkpt>
      <trkpt lat="34.15097" lon="77.00886">
        <ele>4861</ele>
        <time>2015-08-29T06:53:24Z</time>
      </trkpt>
      <trkpt lat="34.15097" lon="77.00887">
        <ele>4861.2</ele>
        <time>2015-08-29T06:53:25Z</time>
      </trkpt>
      <trkpt lat="34.15096" lon="77.00885">
        <ele>4860.8</ele>
        <time>2015-08-29T06:53:40Z</time>
      </trkpt>
      <trkpt lat="34.15093" lon="77.00886">
        <ele>4862.2</ele>
        <time>2015-08-29T06:53:44Z</time>
      </trkpt>
      <trkpt lat="34.15088" lon="77.00891">
        <ele>4863.2</ele>
        <time>2015-08-29T06:53:59Z</time>
      </trkpt>
      <trkpt lat="34.15084" lon="77.00892">
        <ele>4863.8</ele>
        <time>2015-08-29T06:54:02Z</time>
      </trkpt>
      <trkpt lat="34.15083" lon="77.00893">
        <ele>4864.4</ele>
        <time>2015-08-29T06:54:05Z</time>
      </trkpt>
      <trkpt lat="34.15086" lon="77.00899">
        <ele>4865.4</ele>
        <time>2015-08-29T06:54:16Z</time>
      </trkpt>
      <trkpt lat="34.15087" lon="77.009">
        <ele>4865.4</ele>
        <time>2015-08-29T06:54:17Z</time>
      </trkpt>
      <trkpt lat="34.15086" lon="77.00904">
        <ele>4866.6</ele>
        <time>2015-08-29T06:54:25Z</time>
      </trkpt>
      <trkpt lat="34.15085" lon="77.00905">
        <ele>4867.6</ele>
        <time>2015-08-29T06:54:32Z</time>
      </trkpt>
      <trkpt lat="34.15086" lon="77.00906">
        <ele>4866.6</ele>
        <time>2015-08-29T06:54:41Z</time>
      </trkpt>
      <trkpt lat="34.15093" lon="77.00906">
        <ele>4867.6</ele>
        <time>2015-08-29T06:54:51Z</time>
      </trkpt>
      <trkpt lat="34.15096" lon="77.00906">
        <ele>4867.8</ele>
        <time>2015-08-29T06:55:00Z</time>
      </trkpt>
      <trkpt lat="34.15097" lon="77.00907">
        <ele>4869</ele>
        <time>2015-08-29T06:55:03Z</time>
      </trkpt>
      <trkpt lat="34.15101" lon="77.00911">
        <ele>4870</ele>
        <time>2015-08-29T06:55:18Z</time>
      </trkpt>
      <trkpt lat="34.15102" lon="77.00913">
        <ele>4871.2</ele>
        <time>2015-08-29T06:55:28Z</time>
      </trkpt>
      <trkpt lat="34.15105" lon="77.00915">
        <ele>4872.4</ele>
        <time>2015-08-29T06:55:37Z</time>
      </trkpt>
      <trkpt lat="34.15106" lon="77.00916">
        <ele>4873.4</ele>
        <time>2015-08-29T06:55:42Z</time>
      </trkpt>
      <trkpt lat="34.1511" lon="77.00915">
        <ele>4873.2</ele>
        <time>2015-08-29T06:55:59Z</time>
      </trkpt>
      <trkpt lat="34.15104" lon="77.00914">
        <ele>4872.4</ele>
        <time>2015-08-29T06:56:02Z</time>
      </trkpt>
      <trkpt lat="34.15108" lon="77.00915">
        <ele>4872</ele>
        <time>2015-08-29T06:56:08Z</time>
      </trkpt>
      <trkpt lat="34.15111" lon="77.00916">
        <ele>4873.2</ele>
        <time>2015-08-29T06:56:12Z</time>
      </trkpt>
      <trkpt lat="34.15112" lon="77.00917">
        <ele>4873.6</ele>
        <time>2015-08-29T06:56:13Z</time>
      </trkpt>
      <trkpt lat="34.15114" lon="77.00918">
        <ele>4874.6</ele>
        <time>2015-08-29T06:56:17Z</time>
      </trkpt>
      <trkpt lat="34.15117" lon="77.00921">
        <ele>4875.8</ele>
        <time>2015-08-29T06:56:26Z</time>
      </trkpt>
      <trkpt lat="34.15117" lon="77.00922">
        <ele>4877</ele>
        <time>2015-08-29T06:56:29Z</time>
      </trkpt>
      <trkpt lat="34.15121" lon="77.00924">
        <ele>4878.2</ele>
        <time>2015-08-29T06:56:46Z</time>
      </trkpt>
      <trkpt lat="34.15122" lon="77.00925">
        <ele>4879.2</ele>
        <time>2015-08-29T06:56:49Z</time>
      </trkpt>
      <trkpt lat="34.15125" lon="77.00929">
        <ele>4880.4</ele>
        <time>2015-08-29T06:57:03Z</time>
      </trkpt>
      <trkpt lat="34.15125" lon="77.00929">
        <ele>4881.4</ele>
        <time>2015-08-29T06:57:06Z</time>
      </trkpt>
      <trkpt lat="34.15124" lon="77.00931">
        <ele>4882.2</ele>
        <time>2015-08-29T06:57:09Z</time>
      </trkpt>
      <trkpt lat="34.15123" lon="77.00932">
        <ele>4882.4</ele>
        <time>2015-08-29T06:57:11Z</time>
      </trkpt>
      <trkpt lat="34.15123" lon="77.00936">
        <ele>4883.6</ele>
        <time>2015-08-29T06:57:16Z</time>
      </trkpt>
      <trkpt lat="34.1512" lon="77.00938">
        <ele>4884.8</ele>
        <time>2015-08-29T06:57:20Z</time>
      </trkpt>
      <trkpt lat="34.15119" lon="77.0094">
        <ele>4886</ele>
        <time>2015-08-29T06:57:35Z</time>
      </trkpt>
      <trkpt lat="34.15123" lon="77.0094">
        <ele>4887</ele>
        <time>2015-08-29T06:57:49Z</time>
      </trkpt>
      <trkpt lat="34.15115" lon="77.00948">
        <ele>4888.2</ele>
        <time>2015-08-29T06:58:07Z</time>
      </trkpt>
      <trkpt lat="34.15124" lon="77.00958">
        <ele>4889</ele>
        <time>2015-08-29T06:58:17Z</time>
      </trkpt>
      <trkpt lat="34.15126" lon="77.0096">
        <ele>4889.2</ele>
        <time>2015-08-29T06:58:22Z</time>
      </trkpt>
      <trkpt lat="34.15125" lon="77.00963">
        <ele>4890.4</ele>
        <time>2015-08-29T06:58:27Z</time>
      </trkpt>
      <trkpt lat="34.15127" lon="77.00967">
        <ele>4891.4</ele>
        <time>2015-08-29T06:58:31Z</time>
      </trkpt>
      <trkpt lat="34.15129" lon="77.0097">
        <ele>4892</ele>
        <time>2015-08-29T06:58:35Z</time>
      </trkpt>
      <trkpt lat="34.1513" lon="77.00976">
        <ele>4892</ele>
        <time>2015-08-29T06:58:43Z</time>
      </trkpt>
      <trkpt lat="34.15129" lon="77.0098">
        <ele>4892.6</ele>
        <time>2015-08-29T06:58:46Z</time>
      </trkpt>
      <trkpt lat="34.15129" lon="77.00983">
        <ele>4892.8</ele>
        <time>2015-08-29T06:58:49Z</time>
      </trkpt>
      <trkpt lat="34.15127" lon="77.00988">
        <ele>4891.4</ele>
        <time>2015-08-29T06:59:18Z</time>
      </trkpt>
      <trkpt lat="34.15122" lon="77.0099">
        <ele>4891.8</ele>
        <time>2015-08-29T06:59:36Z</time>
      </trkpt>
      <trkpt lat="34.15123" lon="77.00985">
        <ele>4892.6</ele>
        <time>2015-08-29T06:59:54Z</time>
      </trkpt>
      <trkpt lat="34.15119" lon="77.00989">
        <ele>4893</ele>
        <time>2015-08-29T06:59:57Z</time>
      </trkpt>
      <trkpt lat="34.15115" lon="77.00986">
        <ele>4892.8</ele>
        <time>2015-08-29T07:00:00Z</time>
      </trkpt>
      <trkpt lat="34.15122" lon="77.00987">
        <ele>4892.8</ele>
        <time>2015-08-29T07:00:13Z</time>
      </trkpt>
      <trkpt lat="34.1512" lon="77.00991">
        <ele>4892.6</ele>
        <time>2015-08-29T07:00:27Z</time>
      </trkpt>
      <trkpt lat="34.15119" lon="77.00993">
        <ele>4892.4</ele>
        <time>2015-08-29T07:00:29Z</time>
      </trkpt>
      <trkpt lat="34.15121" lon="77.00987">
        <ele>4893.2</ele>
        <time>2015-08-29T07:00:35Z</time>
      </trkpt>
      <trkpt lat="34.15124" lon="77.00983">
        <ele>4893.6</ele>
        <time>2015-08-29T07:00:44Z</time>
      </trkpt>
      <trkpt lat="34.15116" lon="77.00983">
        <ele>4894.6</ele>
        <time>2015-08-29T07:00:51Z</time>
      </trkpt>
      <trkpt lat="34.15113" lon="77.00983">
        <ele>4896</ele>
        <time>2015-08-29T07:00:53Z</time>
      </trkpt>
      <trkpt lat="34.1511" lon="77.00983">
        <ele>4897.2</ele>
        <time>2015-08-29T07:00:55Z</time>
      </trkpt>
      <trkpt lat="34.15108" lon="77.00983">
        <ele>4898.4</ele>
        <time>2015-08-29T07:00:57Z</time>
      </trkpt>
      <trkpt lat="34.15105" lon="77.00983">
        <ele>4899.8</ele>
        <time>2015-08-29T07:01:00Z</time>
      </trkpt>
      <trkpt lat="34.15105" lon="77.00982">
        <ele>4900.8</ele>
        <time>2015-08-29T07:01:02Z</time>
      </trkpt>
      <trkpt lat="34.15104" lon="77.00977">
        <ele>4899.6</ele>
        <time>2015-08-29T07:01:12Z</time>
      </trkpt>
      <trkpt lat="34.15095" lon="77.00975">
        <ele>4899.4</ele>
        <time>2015-08-29T07:01:39Z</time>
      </trkpt>
      <trkpt lat="34.15097" lon="77.00975">
        <ele>4900.8</ele>
        <time>2015-08-29T07:01:42Z</time>
      </trkpt>
      <trkpt lat="34.15098" lon="77.00974">
        <ele>4899.6</ele>
        <time>2015-08-29T07:01:54Z</time>
      </trkpt>
      <trkpt lat="34.15099" lon="77.00974">
        <ele>4898.6</ele>
        <time>2015-08-29T07:01:57Z</time>
      </trkpt>
      <trkpt lat="34.15102" lon="77.00978">
        <ele>4898.6</ele>
        <time>2015-08-29T07:02:01Z</time>
      </trkpt>
      <trkpt lat="34.15103" lon="77.00981">
        <ele>4899</ele>
        <time>2015-08-29T07:02:04Z</time>
      </trkpt>
      <trkpt lat="34.15105" lon="77.00985">
        <ele>4898.2</ele>
        <time>2015-08-29T07:02:11Z</time>
      </trkpt>
      <trkpt lat="34.15105" lon="77.00986">
        <ele>4897.6</ele>
        <time>2015-08-29T07:02:16Z</time>
      </trkpt>
      <trkpt lat="34.15107" lon="77.0099">
        <ele>4896.4</ele>
        <time>2015-08-29T07:02:26Z</time>
      </trkpt>
      <trkpt lat="34.15106" lon="77.0099">
        <ele>4895.2</ele>
        <time>2015-08-29T07:02:29Z</time>
      </trkpt>
      <trkpt lat="34.15108" lon="77.00993">
        <ele>4894.2</ele>
        <time>2015-08-29T07:02:35Z</time>
      </trkpt>
      <trkpt lat="34.15112" lon="77.00993">
        <ele>4894.2</ele>
        <time>2015-08-29T07:02:36Z</time>
      </trkpt>
      <trkpt lat="34.15114" lon="77.00994">
        <ele>4894</ele>
        <time>2015-08-29T07:02:38Z</time>
      </trkpt>
      <trkpt lat="34.15114" lon="77.00999">
        <ele>4893.2</ele>
        <time>2015-08-29T07:02:48Z</time>
      </trkpt>
      <trkpt lat="34.15114" lon="77.01">
        <ele>4893</ele>
        <time>2015-08-29T07:02:50Z</time>
      </trkpt>
      <trkpt lat="34.15118" lon="77.01002">
        <ele>4893</ele>
        <time>2015-08-29T07:02:53Z</time>
      </trkpt>
      <trkpt lat="34.15117" lon="77.00993">
        <ele>4894.2</ele>
        <time>2015-08-29T07:03:40Z</time>
      </trkpt>
      <trkpt lat="34.1512" lon="77.00993">
        <ele>4894.2</ele>
        <time>2015-08-29T07:04:25Z</time>
      </trkpt>
      <trkpt lat="34.15115" lon="77.00996">
        <ele>4895.2</ele>
        <time>2015-08-29T07:05:03Z</time>
      </trkpt>
      <trkpt lat="34.15117" lon="77.00996">
        <ele>4894.4</ele>
        <time>2015-08-29T07:05:07Z</time>
      </trkpt>
      <trkpt lat="34.15117" lon="77.00996">
        <ele>4894.2</ele>
        <time>2015-08-29T07:05:08Z</time>
      </trkpt>
      <trkpt lat="34.15117" lon="77.00996">
        <ele>4895.2</ele>
        <time>2015-08-29T07:05:15Z</time>
      </trkpt>
      <trkpt lat="34.15119" lon="77.00993">
        <ele>4896.2</ele>
        <time>2015-08-29T07:05:44Z</time>
      </trkpt>
      <trkpt lat="34.1512" lon="77.00996">
        <ele>4896.8</ele>
        <time>2015-08-29T07:05:50Z</time>
      </trkpt>
      <trkpt lat="34.15119" lon="77.00995">
        <ele>4897.2</ele>
        <time>2015-08-29T07:05:57Z</time>
      </trkpt>
      <trkpt lat="34.15116" lon="77.00997">
        <ele>4896</ele>
        <time>2015-08-29T07:06:18Z</time>
      </trkpt>
      <trkpt lat="34.15116" lon="77.00995">
        <ele>4895</ele>
        <time>2015-08-29T07:06:55Z</time>
      </trkpt>
      <trkpt lat="34.15116" lon="77.00988">
        <ele>4894.2</ele>
        <time>2015-08-29T07:07:05Z</time>
      </trkpt>
      <trkpt lat="34.15107" lon="77.01">
        <ele>4894.2</ele>
        <time>2015-08-29T07:07:11Z</time>
      </trkpt>
      <trkpt lat="34.15107" lon="77.01001">
        <ele>4894</ele>
        <time>2015-08-29T07:07:13Z</time>
      </trkpt>
      <trkpt lat="34.15108" lon="77.01003">
        <ele>4893.8</ele>
        <time>2015-08-29T07:07:14Z</time>
      </trkpt>
      <trkpt lat="34.15099" lon="77.01001">
        <ele>4894.4</ele>
        <time>2015-08-29T07:07:36Z</time>
      </trkpt>
      <trkpt lat="34.15098" lon="77.01">
        <ele>4894.8</ele>
        <time>2015-08-29T07:07:39Z</time>
      </trkpt>
      <trkpt lat="34.15091" lon="77.01006">
        <ele>4893.8</ele>
        <time>2015-08-29T07:07:52Z</time>
      </trkpt>
      <trkpt lat="34.15083" lon="77.01006">
        <ele>4892.8</ele>
        <time>2015-08-29T07:08:14Z</time>
      </trkpt>
      <trkpt lat="34.15083" lon="77.01011">
        <ele>4891.8</ele>
        <time>2015-08-29T07:08:26Z</time>
      </trkpt>
      <trkpt lat="34.15087" lon="77.0101">
        <ele>4890.8</ele>
        <time>2015-08-29T07:08:49Z</time>
      </trkpt>
      <trkpt lat="34.15088" lon="77.01006">
        <ele>4890.6</ele>
        <time>2015-08-29T07:09:06Z</time>
      </trkpt>
      <trkpt lat="34.15078" lon="77.0101">
        <ele>4889.6</ele>
        <time>2015-08-29T07:09:32Z</time>
      </trkpt>
      <trkpt lat="34.15077" lon="77.01012">
        <ele>4889.4</ele>
        <time>2015-08-29T07:09:34Z</time>
      </trkpt>
      <trkpt lat="34.15072" lon="77.01019">
        <ele>4888.6</ele>
        <time>2015-08-29T07:09:46Z</time>
      </trkpt>
      <trkpt lat="34.15069" lon="77.01024">
        <ele>4888.2</ele>
        <time>2015-08-29T07:09:51Z</time>
      </trkpt>
      <trkpt lat="34.1507" lon="77.01027">
        <ele>4887.6</ele>
        <time>2015-08-29T07:09:56Z</time>
      </trkpt>
      <trkpt lat="34.1507" lon="77.01031">
        <ele>4886.4</ele>
        <time>2015-08-29T07:10:03Z</time>
      </trkpt>
      <trkpt lat="34.15067" lon="77.0103">
        <ele>4885.4</ele>
        <time>2015-08-29T07:10:09Z</time>
      </trkpt>
      <trkpt lat="34.15064" lon="77.0103">
        <ele>4885</ele>
        <time>2015-08-29T07:10:14Z</time>
      </trkpt>
      <trkpt lat="34.15052" lon="77.01043">
        <ele>4885.4</ele>
        <time>2015-08-29T07:10:18Z</time>
      </trkpt>
      <trkpt lat="34.15056" lon="77.01041">
        <ele>4884.4</ele>
        <time>2015-08-29T07:10:35Z</time>
      </trkpt>
      <trkpt lat="34.15056" lon="77.01042">
        <ele>4883.4</ele>
        <time>2015-08-29T07:10:56Z</time>
      </trkpt>
      <trkpt lat="34.15049" lon="77.01052">
        <ele>4882.4</ele>
        <time>2015-08-29T07:11:06Z</time>
      </trkpt>
      <trkpt lat="34.15047" lon="77.01058">
        <ele>4881.4</ele>
        <time>2015-08-29T07:11:11Z</time>
      </trkpt>
      <trkpt lat="34.15046" lon="77.01059">
        <ele>4881.2</ele>
        <time>2015-08-29T07:11:13Z</time>
      </trkpt>
      <trkpt lat="34.15046" lon="77.01061">
        <ele>4880.2</ele>
        <time>2015-08-29T07:11:23Z</time>
      </trkpt>
      <trkpt lat="34.15045" lon="77.01061">
        <ele>4879</ele>
        <time>2015-08-29T07:11:36Z</time>
      </trkpt>
      <trkpt lat="34.15046" lon="77.0106">
        <ele>4878</ele>
        <time>2015-08-29T07:11:43Z</time>
      </trkpt>
      <trkpt lat="34.15043" lon="77.0106">
        <ele>4876.8</ele>
        <time>2015-08-29T07:11:53Z</time>
      </trkpt>
      <trkpt lat="34.15033" lon="77.01072">
        <ele>4875.8</ele>
        <time>2015-08-29T07:12:07Z</time>
      </trkpt>
      <trkpt lat="34.1503" lon="77.01075">
        <ele>4875.2</ele>
        <time>2015-08-29T07:12:10Z</time>
      </trkpt>
      <trkpt lat="34.1503" lon="77.01076">
        <ele>4874.2</ele>
        <time>2015-08-29T07:12:12Z</time>
      </trkpt>
      <trkpt lat="34.1503" lon="77.01079">
        <ele>4873</ele>
        <time>2015-08-29T07:12:15Z</time>
      </trkpt>
      <trkpt lat="34.15026" lon="77.01087">
        <ele>4872.2</ele>
        <time>2015-08-29T07:12:22Z</time>
      </trkpt>
      <trkpt lat="34.15026" lon="77.01089">
        <ele>4872</ele>
        <time>2015-08-29T07:12:24Z</time>
      </trkpt>
      <trkpt lat="34.15022" lon="77.011">
        <ele>4871</ele>
        <time>2015-08-29T07:12:33Z</time>
      </trkpt>
      <trkpt lat="34.15022" lon="77.01107">
        <ele>4869.8</ele>
        <time>2015-08-29T07:12:40Z</time>
      </trkpt>
      <trkpt lat="34.15012" lon="77.01127">
        <ele>4868.8</ele>
        <time>2015-08-29T07:12:56Z</time>
      </trkpt>
      <trkpt lat="34.15002" lon="77.01141">
        <ele>4867.8</ele>
        <time>2015-08-29T07:13:11Z</time>
      </trkpt>
      <trkpt lat="34.14994" lon="77.01161">
        <ele>4867.8</ele>
        <time>2015-08-29T07:13:34Z</time>
      </trkpt>
      <trkpt lat="34.14992" lon="77.01165">
        <ele>4868.2</ele>
        <time>2015-08-29T07:13:40Z</time>
      </trkpt>
      <trkpt lat="34.14992" lon="77.01175">
        <ele>4866.4</ele>
        <time>2015-08-29T07:13:50Z</time>
      </trkpt>
      <trkpt lat="34.1499" lon="77.01179">
        <ele>4865.2</ele>
        <time>2015-08-29T07:13:53Z</time>
      </trkpt>
      <trkpt lat="34.14988" lon="77.01184">
        <ele>4864.8</ele>
        <time>2015-08-29T07:13:56Z</time>
      </trkpt>
      <trkpt lat="34.14982" lon="77.01189">
        <ele>4864.8</ele>
        <time>2015-08-29T07:14:02Z</time>
      </trkpt>
      <trkpt lat="34.14982" lon="77.01203">
        <ele>4864.2</ele>
        <time>2015-08-29T07:14:14Z</time>
      </trkpt>
      <trkpt lat="34.14968" lon="77.01216">
        <ele>4863.2</ele>
        <time>2015-08-29T07:14:33Z</time>
      </trkpt>
      <trkpt lat="34.14972" lon="77.01221">
        <ele>4862</ele>
        <time>2015-08-29T07:14:40Z</time>
      </trkpt>
      <trkpt lat="34.1497" lon="77.01223">
        <ele>4862.2</ele>
        <time>2015-08-29T07:15:36Z</time>
      </trkpt>
      <trkpt lat="34.1497" lon="77.01223">
        <ele>4863</ele>
        <time>2015-08-29T07:15:39Z</time>
      </trkpt>
      <trkpt lat="34.14955" lon="77.01225">
        <ele>4862.8</ele>
        <time>2015-08-29T07:16:11Z</time>
      </trkpt>
      <trkpt lat="34.14949" lon="77.01218">
        <ele>4862</ele>
        <time>2015-08-29T07:16:37Z</time>
      </trkpt>
      <trkpt lat="34.14949" lon="77.01217">
        <ele>4863.2</ele>
        <time>2015-08-29T07:16:43Z</time>
      </trkpt>
      <trkpt lat="34.1495" lon="77.01219">
        <ele>4863.6</ele>
        <time>2015-08-29T07:16:54Z</time>
      </trkpt>
      <trkpt lat="34.14951" lon="77.01219">
        <ele>4863.6</ele>
        <time>2015-08-29T07:16:55Z</time>
      </trkpt>
      <trkpt lat="34.14951" lon="77.01214">
        <ele>4863</ele>
        <time>2015-08-29T07:17:00Z</time>
      </trkpt>
      <trkpt lat="34.14951" lon="77.01219">
        <ele>4863.4</ele>
        <time>2015-08-29T07:17:28Z</time>
      </trkpt>
      <trkpt lat="34.14951" lon="77.01215">
        <ele>4862.8</ele>
        <time>2015-08-29T07:17:37Z</time>
      </trkpt>
      <trkpt lat="34.14947" lon="77.01216">
        <ele>4862.6</ele>
        <time>2015-08-29T07:18:17Z</time>
      </trkpt>
      <trkpt lat="34.14949" lon="77.01214">
        <ele>4864.4</ele>
        <time>2015-08-29T07:18:59Z</time>
      </trkpt>
      <trkpt lat="34.14949" lon="77.01214">
        <ele>4863.2</ele>
        <time>2015-08-29T07:19:07Z</time>
      </trkpt>
      <trkpt lat="34.1495" lon="77.01214">
        <ele>4864.2</ele>
        <time>2015-08-29T07:19:20Z</time>
      </trkpt>
      <trkpt lat="34.14953" lon="77.01212">
        <ele>4863.2</ele>
        <time>2015-08-29T07:20:07Z</time>
      </trkpt>
      <trkpt lat="34.14951" lon="77.01217">
        <ele>4863.8</ele>
        <time>2015-08-29T07:20:34Z</time>
      </trkpt>
      <trkpt lat="34.14954" lon="77.0121">
        <ele>4864.2</ele>
        <time>2015-08-29T07:20:50Z</time>
      </trkpt>
      <trkpt lat="34.14956" lon="77.01206">
        <ele>4865.4</ele>
        <time>2015-08-29T07:21:02Z</time>
      </trkpt>
      <trkpt lat="34.14952" lon="77.01218">
        <ele>4864.6</ele>
        <time>2015-08-29T07:21:32Z</time>
      </trkpt>
      <trkpt lat="34.14951" lon="77.01218">
        <ele>4864.4</ele>
        <time>2015-08-29T07:21:33Z</time>
      </trkpt>
      <trkpt lat="34.14951" lon="77.01218">
        <ele>4863.6</ele>
        <time>2015-08-29T07:21:42Z</time>
      </trkpt>
      <trkpt lat="34.14952" lon="77.01214">
        <ele>4865.4</ele>
        <time>2015-08-29T07:22:15Z</time>
      </trkpt>
      <trkpt lat="34.14952" lon="77.01214">
        <ele>4866.6</ele>
        <time>2015-08-29T07:22:17Z</time>
      </trkpt>
      <trkpt lat="34.14954" lon="77.01212">
        <ele>4865.2</ele>
        <time>2015-08-29T07:22:23Z</time>
      </trkpt>
      <trkpt lat="34.14952" lon="77.01214">
        <ele>4864</ele>
        <time>2015-08-29T07:22:28Z</time>
      </trkpt>
      <trkpt lat="34.14946" lon="77.01221">
        <ele>4863.6</ele>
        <time>2015-08-29T07:22:35Z</time>
      </trkpt>
      <trkpt lat="34.14954" lon="77.01208">
        <ele>4864</ele>
        <time>2015-08-29T07:22:48Z</time>
      </trkpt>
      <trkpt lat="34.14955" lon="77.01207">
        <ele>4864.2</ele>
        <time>2015-08-29T07:22:50Z</time>
      </trkpt>
      <trkpt lat="34.14951" lon="77.01219">
        <ele>4865.2</ele>
        <time>2015-08-29T07:23:35Z</time>
      </trkpt>
      <trkpt lat="34.14953" lon="77.01213">
        <ele>4865</ele>
        <time>2015-08-29T07:24:27Z</time>
      </trkpt>
      <trkpt lat="34.14951" lon="77.01213">
        <ele>4866.2</ele>
        <time>2015-08-29T07:24:38Z</time>
      </trkpt>
      <trkpt lat="34.14946" lon="77.01219">
        <ele>4867.2</ele>
        <time>2015-08-29T07:24:50Z</time>
      </trkpt>
      <trkpt lat="34.14961" lon="77.01209">
        <ele>4866.4</ele>
        <time>2015-08-29T07:25:26Z</time>
      </trkpt>
      <trkpt lat="34.14961" lon="77.01208">
        <ele>4866.2</ele>
        <time>2015-08-29T07:25:28Z</time>
      </trkpt>
      <trkpt lat="34.14965" lon="77.01199">
        <ele>4866</ele>
        <time>2015-08-29T07:25:40Z</time>
      </trkpt>
      <trkpt lat="34.14961" lon="77.01205">
        <ele>4866</ele>
        <time>2015-08-29T07:25:42Z</time>
      </trkpt>
      <trkpt lat="34.14955" lon="77.01212">
        <ele>4865.4</ele>
        <time>2015-08-29T07:25:46Z</time>
      </trkpt>
      <trkpt lat="34.14952" lon="77.01213">
        <ele>4865.2</ele>
        <time>2015-08-29T07:25:49Z</time>
      </trkpt>
      <trkpt lat="34.14952" lon="77.01212">
        <ele>4865</ele>
        <time>2015-08-29T07:25:50Z</time>
      </trkpt>
      <trkpt lat="34.14951" lon="77.0121">
        <ele>4866.2</ele>
        <time>2015-08-29T07:26:26Z</time>
      </trkpt>
      <trkpt lat="34.14952" lon="77.0121">
        <ele>4865.8</ele>
        <time>2015-08-29T07:26:46Z</time>
      </trkpt>
      <trkpt lat="34.14953" lon="77.01209">
        <ele>4865.6</ele>
        <time>2015-08-29T07:26:48Z</time>
      </trkpt>
      <trkpt lat="34.14956" lon="77.01207">
        <ele>4865.4</ele>
        <time>2015-08-29T07:26:51Z</time>
      </trkpt>
      <trkpt lat="34.14953" lon="77.01212">
        <ele>4865.2</ele>
        <time>2015-08-29T07:27:13Z</time>
      </trkpt>
      <trkpt lat="34.14951" lon="77.01214">
        <ele>4866.4</ele>
        <time>2015-08-29T07:27:38Z</time>
      </trkpt>
      <trkpt lat="34.14951" lon="77.01214">
        <ele>4865.4</ele>
        <time>2015-08-29T07:27:51Z</time>
      </trkpt>
      <trkpt lat="34.14952" lon="77.01214">
        <ele>4866.4</ele>
        <time>2015-08-29T07:28:26Z</time>
      </trkpt>
      <trkpt lat="34.14954" lon="77.01209">
        <ele>4867.6</ele>
        <time>2015-08-29T07:28:54Z</time>
      </trkpt>
      <trkpt lat="34.14955" lon="77.01212">
        <ele>4866.6</ele>
        <time>2015-08-29T07:29:41Z</time>
      </trkpt>
      <trkpt lat="34.14951" lon="77.01219">
        <ele>4867.6</ele>
        <time>2015-08-29T07:29:58Z</time>
      </trkpt>
      <trkpt lat="34.14951" lon="77.01215">
        <ele>4868.8</ele>
        <time>2015-08-29T07:30:15Z</time>
      </trkpt>
      <trkpt lat="34.1495" lon="77.01215">
        <ele>4869.8</ele>
        <time>2015-08-29T07:30:28Z</time>
      </trkpt>
      <trkpt lat="34.1495" lon="77.01212">
        <ele>4868.4</ele>
        <time>2015-08-29T07:30:36Z</time>
      </trkpt>
      <trkpt lat="34.14953" lon="77.01209">
        <ele>4867.6</ele>
        <time>2015-08-29T07:30:54Z</time>
      </trkpt>
      <trkpt lat="34.1495" lon="77.01214">
        <ele>4867.2</ele>
        <time>2015-08-29T07:31:19Z</time>
      </trkpt>
      <trkpt lat="34.14949" lon="77.01216">
        <ele>4866.2</ele>
        <time>2015-08-29T07:31:23Z</time>
      </trkpt>
      <trkpt lat="34.14951" lon="77.01213">
        <ele>4867.2</ele>
        <time>2015-08-29T07:31:57Z</time>
      </trkpt>
      <trkpt lat="34.14951" lon="77.01214">
        <ele>4867.6</ele>
        <time>2015-08-29T07:32:03Z</time>
      </trkpt>
      <trkpt lat="34.14951" lon="77.01212">
        <ele>4867.4</ele>
        <time>2015-08-29T07:32:31Z</time>
      </trkpt>
      <trkpt lat="34.1495" lon="77.01215">
        <ele>4866.2</ele>
        <time>2015-08-29T07:33:02Z</time>
      </trkpt>
      <trkpt lat="34.14953" lon="77.01212">
        <ele>4866.6</ele>
        <time>2015-08-29T07:33:11Z</time>
      </trkpt>
      <trkpt lat="34.14953" lon="77.01208">
        <ele>4866.6</ele>
        <time>2015-08-29T07:33:21Z</time>
      </trkpt>
      <trkpt lat="34.14951" lon="77.01217">
        <ele>4867.2</ele>
        <time>2015-08-29T07:33:44Z</time>
      </trkpt>
      <trkpt lat="34.14957" lon="77.01213">
        <ele>4867.4</ele>
        <time>2015-08-29T07:33:49Z</time>
      </trkpt>
      <trkpt lat="34.14959" lon="77.01211">
        <ele>4867.6</ele>
        <time>2015-08-29T07:33:52Z</time>
      </trkpt>
      <trkpt lat="34.14958" lon="77.0121">
        <ele>4867.4</ele>
        <time>2015-08-29T07:33:58Z</time>
      </trkpt>
      <trkpt lat="34.14952" lon="77.01213">
        <ele>4868.4</ele>
        <time>2015-08-29T07:34:25Z</time>
      </trkpt>
      <trkpt lat="34.14952" lon="77.01215">
        <ele>4867.2</ele>
        <time>2015-08-29T07:34:33Z</time>
      </trkpt>
      <trkpt lat="34.14952" lon="77.01212">
        <ele>4866.2</ele>
        <time>2015-08-29T07:34:51Z</time>
      </trkpt>
      <trkpt lat="34.1495" lon="77.01213">
        <ele>4867.2</ele>
        <time>2015-08-29T07:35:03Z</time>
      </trkpt>
      <trkpt lat="34.14952" lon="77.01213">
        <ele>4868.4</ele>
        <time>2015-08-29T07:35:16Z</time>
      </trkpt>
      <trkpt lat="34.14953" lon="77.01211">
        <ele>4867.4</ele>
        <time>2015-08-29T07:35:29Z</time>
      </trkpt>
      <trkpt lat="34.14953" lon="77.0121">
        <ele>4868.4</ele>
        <time>2015-08-29T07:35:37Z</time>
      </trkpt>
      <trkpt lat="34.1495" lon="77.01214">
        <ele>4867.4</ele>
        <time>2015-08-29T07:36:19Z</time>
      </trkpt>
      <trkpt lat="34.14954" lon="77.01213">
        <ele>4867.6</ele>
        <time>2015-08-29T07:36:32Z</time>
      </trkpt>
      <trkpt lat="34.14954" lon="77.01219">
        <ele>4868.2</ele>
        <time>2015-08-29T07:36:37Z</time>
      </trkpt>
      <trkpt lat="34.14951" lon="77.01217">
        <ele>4867.2</ele>
        <time>2015-08-29T07:36:51Z</time>
      </trkpt>
      <trkpt lat="34.14946" lon="77.01212">
        <ele>4868</ele>
        <time>2015-08-29T07:37:00Z</time>
      </trkpt>
      <trkpt lat="34.14947" lon="77.01215">
        <ele>4868</ele>
        <time>2015-08-29T07:37:02Z</time>
      </trkpt>
      <trkpt lat="34.14946" lon="77.01218">
        <ele>4868.2</ele>
        <time>2015-08-29T07:37:04Z</time>
      </trkpt>
      <trkpt lat="34.14944" lon="77.01219">
        <ele>4866.4</ele>
        <time>2015-08-29T07:37:13Z</time>
      </trkpt>
      <trkpt lat="34.14944" lon="77.01219">
        <ele>4866</ele>
        <time>2015-08-29T07:37:14Z</time>
      </trkpt>
      <trkpt lat="34.14945" lon="77.01218">
        <ele>4865</ele>
        <time>2015-08-29T07:37:18Z</time>
      </trkpt>
      <trkpt lat="34.14945" lon="77.01215">
        <ele>4866</ele>
        <time>2015-08-29T07:37:31Z</time>
      </trkpt>
      <trkpt lat="34.14941" lon="77.01213">
        <ele>4866</ele>
        <time>2015-08-29T07:37:36Z</time>
      </trkpt>
      <trkpt lat="34.14948" lon="77.01214">
        <ele>4865.8</ele>
        <time>2015-08-29T07:37:42Z</time>
      </trkpt>
      <trkpt lat="34.14953" lon="77.01223">
        <ele>4867.2</ele>
        <time>2015-08-29T07:37:52Z</time>
      </trkpt>
      <trkpt lat="34.1495" lon="77.01225">
        <ele>4868.2</ele>
        <time>2015-08-29T07:38:05Z</time>
      </trkpt>
      <trkpt lat="34.14946" lon="77.01222">
        <ele>4868</ele>
        <time>2015-08-29T07:38:09Z</time>
      </trkpt>
      <trkpt lat="34.14951" lon="77.01223">
        <ele>4867.2</ele>
        <time>2015-08-29T07:38:23Z</time>
      </trkpt>
      <trkpt lat="34.14949" lon="77.01223">
        <ele>4868.2</ele>
        <time>2015-08-29T07:38:49Z</time>
      </trkpt>
      <trkpt lat="34.1495" lon="77.01216">
        <ele>4868.8</ele>
        <time>2015-08-29T07:39:48Z</time>
      </trkpt>
      <trkpt lat="34.14949" lon="77.01214">
        <ele>4867.6</ele>
        <time>2015-08-29T07:40:14Z</time>
      </trkpt>
      <trkpt lat="34.14949" lon="77.01214">
        <ele>4867.2</ele>
        <time>2015-08-29T07:40:21Z</time>
      </trkpt>
      <trkpt lat="34.14946" lon="77.01217">
        <ele>4868.2</ele>
        <time>2015-08-29T07:40:42Z</time>
      </trkpt>
      <trkpt lat="34.14948" lon="77.01216">
        <ele>4867.4</ele>
        <time>2015-08-29T07:41:44Z</time>
      </trkpt>
      <trkpt lat="34.14948" lon="77.01217">
        <ele>4869.4</ele>
        <time>2015-08-29T07:42:11Z</time>
      </trkpt>
      <trkpt lat="34.14948" lon="77.01216">
        <ele>4870.6</ele>
        <time>2015-08-29T07:42:18Z</time>
      </trkpt>
      <trkpt lat="34.14949" lon="77.01215">
        <ele>4869.2</ele>
        <time>2015-08-29T07:42:33Z</time>
      </trkpt>
      <trkpt lat="34.14948" lon="77.01216">
        <ele>4868.2</ele>
        <time>2015-08-29T07:42:44Z</time>
      </trkpt>
      <trkpt lat="34.14948" lon="77.01217">
        <ele>4868.6</ele>
        <time>2015-08-29T07:42:59Z</time>
      </trkpt>
      <trkpt lat="34.14949" lon="77.01217">
        <ele>4869.4</ele>
        <time>2015-08-29T07:43:02Z</time>
      </trkpt>
      <trkpt lat="34.1495" lon="77.01217">
        <ele>4868.2</ele>
        <time>2015-08-29T07:43:23Z</time>
      </trkpt>
      <trkpt lat="34.1495" lon="77.01218">
        <ele>4867.2</ele>
        <time>2015-08-29T07:43:29Z</time>
      </trkpt>
      <trkpt lat="34.1495" lon="77.01218">
        <ele>4868.4</ele>
        <time>2015-08-29T07:43:41Z</time>
      </trkpt>
      <trkpt lat="34.1495" lon="77.01218">
        <ele>4869.8</ele>
        <time>2015-08-29T07:43:45Z</time>
      </trkpt>
      <trkpt lat="34.1495" lon="77.01218">
        <ele>4868.6</ele>
        <time>2015-08-29T07:43:53Z</time>
      </trkpt>
      <trkpt lat="34.1495" lon="77.01217">
        <ele>4867.6</ele>
        <time>2015-08-29T07:44:05Z</time>
      </trkpt>
      <trkpt lat="34.1495" lon="77.01217">
        <ele>4867.6</ele>
        <time>2015-08-29T07:44:08Z</time>
      </trkpt>
      <trkpt lat="34.1495" lon="77.01217">
        <ele>4868.6</ele>
        <time>2015-08-29T07:44:32Z</time>
      </trkpt>
      <trkpt lat="34.14949" lon="77.01217">
        <ele>4869.6</ele>
        <time>2015-08-29T07:44:37Z</time>
      </trkpt>
      <trkpt lat="34.14949" lon="77.01217">
        <ele>4870.6</ele>
        <time>2015-08-29T07:44:41Z</time>
      </trkpt>
      <trkpt lat="34.14949" lon="77.01217">
        <ele>4871.8</ele>
        <time>2015-08-29T07:44:44Z</time>
      </trkpt>
      <trkpt lat="34.14949" lon="77.01217">
        <ele>4872.8</ele>
        <time>2015-08-29T07:44:48Z</time>
      </trkpt>
      <trkpt lat="34.14949" lon="77.01217">
        <ele>4871.8</ele>
        <time>2015-08-29T07:45:02Z</time>
      </trkpt>
      <trkpt lat="34.14949" lon="77.01216">
        <ele>4870.8</ele>
        <time>2015-08-29T07:45:07Z</time>
      </trkpt>
      <trkpt lat="34.14948" lon="77.01216">
        <ele>4869.6</ele>
        <time>2015-08-29T07:45:23Z</time>
      </trkpt>
      <trkpt lat="34.14948" lon="77.01216">
        <ele>4868.4</ele>
        <time>2015-08-29T07:45:33Z</time>
      </trkpt>
      <trkpt lat="34.14948" lon="77.01215">
        <ele>4869.4</ele>
        <time>2015-08-29T07:46:00Z</time>
      </trkpt>
      <trkpt lat="34.14948" lon="77.01215">
        <ele>4869.6</ele>
        <time>2015-08-29T07:46:02Z</time>
      </trkpt>
      <trkpt lat="34.14947" lon="77.01217">
        <ele>4869.4</ele>
        <time>2015-08-29T07:46:52Z</time>
      </trkpt>
      <trkpt lat="34.14949" lon="77.01217">
        <ele>4868.8</ele>
        <time>2015-08-29T07:48:31Z</time>
      </trkpt>
      <trkpt lat="34.14949" lon="77.01217">
        <ele>4870.6</ele>
        <time>2015-08-29T07:48:52Z</time>
      </trkpt>
      <trkpt lat="34.14948" lon="77.01216">
        <ele>4871.6</ele>
        <time>2015-08-29T07:49:39Z</time>
      </trkpt>
      <trkpt lat="34.14949" lon="77.01216">
        <ele>4872.6</ele>
        <time>2015-08-29T07:50:05Z</time>
      </trkpt>
      <trkpt lat="34.14949" lon="77.01216">
        <ele>4871.6</ele>
        <time>2015-08-29T07:50:30Z</time>
      </trkpt>
      <trkpt lat="34.14949" lon="77.01215">
        <ele>4871.2</ele>
        <time>2015-08-29T07:50:50Z</time>
      </trkpt>
      <trkpt lat="34.14948" lon="77.01214">
        <ele>4870.6</ele>
        <time>2015-08-29T07:51:20Z</time>
      </trkpt>
      <trkpt lat="34.14948" lon="77.01212">
        <ele>4871.6</ele>
        <time>2015-08-29T07:51:51Z</time>
      </trkpt>
      <trkpt lat="34.14948" lon="77.01212">
        <ele>4872</ele>
        <time>2015-08-29T07:51:55Z</time>
      </trkpt>
      <trkpt lat="34.14948" lon="77.01213">
        <ele>4872.8</ele>
        <time>2015-08-29T07:51:59Z</time>
      </trkpt>
      <trkpt lat="34.14948" lon="77.01213">
        <ele>4871.6</ele>
        <time>2015-08-29T07:52:06Z</time>
      </trkpt>
      <trkpt lat="34.14948" lon="77.01216">
        <ele>4871.6</ele>
        <time>2015-08-29T07:53:09Z</time>
      </trkpt>
      <trkpt lat="34.14947" lon="77.01218">
        <ele>4872.8</ele>
        <time>2015-08-29T07:54:02Z</time>
      </trkpt>
      <trkpt lat="34.14946" lon="77.01217">
        <ele>4873</ele>
        <time>2015-08-29T07:54:05Z</time>
      </trkpt>
      <trkpt lat="34.14947" lon="77.01216">
        <ele>4873</ele>
        <time>2015-08-29T07:54:07Z</time>
      </trkpt>
      <trkpt lat="34.14949" lon="77.01211">
        <ele>4874</ele>
        <time>2015-08-29T07:54:31Z</time>
      </trkpt>
      <trkpt lat="34.14947" lon="77.01213">
        <ele>4873.4</ele>
        <time>2015-08-29T07:54:36Z</time>
      </trkpt>
      <trkpt lat="34.14947" lon="77.01212">
        <ele>4873.4</ele>
        <time>2015-08-29T07:54:38Z</time>
      </trkpt>
      <trkpt lat="34.14947" lon="77.01214">
        <ele>4873.2</ele>
        <time>2015-08-29T07:54:40Z</time>
      </trkpt>
      <trkpt lat="34.14949" lon="77.01216">
        <ele>4875.8</ele>
        <time>2015-08-29T07:55:10Z</time>
      </trkpt>
      <trkpt lat="34.14947" lon="77.01219">
        <ele>4876.8</ele>
        <time>2015-08-29T07:55:12Z</time>
      </trkpt>
      <trkpt lat="34.1495" lon="77.01226">
        <ele>4875.2</ele>
        <time>2015-08-29T07:55:28Z</time>
      </trkpt>
      <trkpt lat="34.1495" lon="77.01227">
        <ele>4874.2</ele>
        <time>2015-08-29T07:55:29Z</time>
      </trkpt>
      <trkpt lat="34.14951" lon="77.01227">
        <ele>4873.2</ele>
        <time>2015-08-29T07:55:30Z</time>
      </trkpt>
      <trkpt lat="34.14951" lon="77.01228">
        <ele>4872</ele>
        <time>2015-08-29T07:55:32Z</time>
      </trkpt>
      <trkpt lat="34.14953" lon="77.01229">
        <ele>4870.8</ele>
        <time>2015-08-29T07:55:35Z</time>
      </trkpt>
      <trkpt lat="34.14959" lon="77.01234">
        <ele>4872.2</ele>
        <time>2015-08-29T07:56:10Z</time>
      </trkpt>
      <trkpt lat="34.14961" lon="77.01232">
        <ele>4871</ele>
        <time>2015-08-29T07:56:35Z</time>
      </trkpt>
      <trkpt lat="34.14961" lon="77.01233">
        <ele>4871</ele>
        <time>2015-08-29T07:56:38Z</time>
      </trkpt>
      <trkpt lat="34.14949" lon="77.01235">
        <ele>4872.2</ele>
        <time>2015-08-29T07:57:24Z</time>
      </trkpt>
      <trkpt lat="34.14949" lon="77.01235">
        <ele>4871</ele>
        <time>2015-08-29T07:57:33Z</time>
      </trkpt>
      <trkpt lat="34.1495" lon="77.01238">
        <ele>4870</ele>
        <time>2015-08-29T07:57:56Z</time>
      </trkpt>
      <trkpt lat="34.14951" lon="77.0124">
        <ele>4869.2</ele>
        <time>2015-08-29T07:57:59Z</time>
      </trkpt>
      <trkpt lat="34.14951" lon="77.01243">
        <ele>4868.8</ele>
        <time>2015-08-29T07:58:05Z</time>
      </trkpt>
      <trkpt lat="34.1495" lon="77.01243">
        <ele>4868.8</ele>
        <time>2015-08-29T07:58:06Z</time>
      </trkpt>
      <trkpt lat="34.14947" lon="77.01245">
        <ele>4867.8</ele>
        <time>2015-08-29T07:58:15Z</time>
      </trkpt>
      <trkpt lat="34.14949" lon="77.01251">
        <ele>4867</ele>
        <time>2015-08-29T07:58:25Z</time>
      </trkpt>
      <trkpt lat="34.1495" lon="77.01252">
        <ele>4866.8</ele>
        <time>2015-08-29T07:58:27Z</time>
      </trkpt>
      <trkpt lat="34.14957" lon="77.01255">
        <ele>4865.6</ele>
        <time>2015-08-29T07:58:33Z</time>
      </trkpt>
      <trkpt lat="34.1496" lon="77.01257">
        <ele>4865.4</ele>
        <time>2015-08-29T07:58:36Z</time>
      </trkpt>
      <trkpt lat="34.14956" lon="77.01259">
        <ele>4864.6</ele>
        <time>2015-08-29T07:58:51Z</time>
      </trkpt>
      <trkpt lat="34.14954" lon="77.01265">
        <ele>4863.4</ele>
        <time>2015-08-29T07:58:59Z</time>
      </trkpt>
      <trkpt lat="34.14952" lon="77.01271">
        <ele>4863</ele>
        <time>2015-08-29T07:59:06Z</time>
      </trkpt>
      <trkpt lat="34.14951" lon="77.01275">
        <ele>4862.4</ele>
        <time>2015-08-29T07:59:09Z</time>
      </trkpt>
      <trkpt lat="34.1495" lon="77.01276">
        <ele>4862.2</ele>
        <time>2015-08-29T07:59:11Z</time>
      </trkpt>
      <trkpt lat="34.14949" lon="77.01282">
        <ele>4861.2</ele>
        <time>2015-08-29T07:59:20Z</time>
      </trkpt>
      <trkpt lat="34.14955" lon="77.01288">
        <ele>4860</ele>
        <time>2015-08-29T07:59:23Z</time>
      </trkpt>
      <trkpt lat="34.14955" lon="77.01288">
        <ele>4859</ele>
        <time>2015-08-29T07:59:28Z</time>
      </trkpt>
      <trkpt lat="34.14954" lon="77.01292">
        <ele>4858.8</ele>
        <time>2015-08-29T07:59:35Z</time>
      </trkpt>
      <trkpt lat="34.14953" lon="77.01294">
        <ele>4858.6</ele>
        <time>2015-08-29T07:59:38Z</time>
      </trkpt>
      <trkpt lat="34.14952" lon="77.01294">
        <ele>4857.6</ele>
        <time>2015-08-29T07:59:41Z</time>
      </trkpt>
      <trkpt lat="34.1495" lon="77.01297">
        <ele>4856.6</ele>
        <time>2015-08-29T07:59:45Z</time>
      </trkpt>
      <trkpt lat="34.14947" lon="77.013">
        <ele>4856.6</ele>
        <time>2015-08-29T07:59:48Z</time>
      </trkpt>
      <trkpt lat="34.14946" lon="77.01301">
        <ele>4856.4</ele>
        <time>2015-08-29T07:59:50Z</time>
      </trkpt>
      <trkpt lat="34.14946" lon="77.01301">
        <ele>4855.4</ele>
        <time>2015-08-29T07:59:53Z</time>
      </trkpt>
      <trkpt lat="34.14942" lon="77.01303">
        <ele>4854.2</ele>
        <time>2015-08-29T07:59:57Z</time>
      </trkpt>
      <trkpt lat="34.1494" lon="77.01306">
        <ele>4854</ele>
        <time>2015-08-29T07:59:58Z</time>
      </trkpt>
      <trkpt lat="34.1494" lon="77.01312">
        <ele>4853.2</ele>
        <time>2015-08-29T08:00:05Z</time>
      </trkpt>
      <trkpt lat="34.14943" lon="77.01314">
        <ele>4851.8</ele>
        <time>2015-08-29T08:00:09Z</time>
      </trkpt>
      <trkpt lat="34.14943" lon="77.01315">
        <ele>4851.4</ele>
        <time>2015-08-29T08:00:10Z</time>
      </trkpt>
      <trkpt lat="34.14946" lon="77.01316">
        <ele>4850.6</ele>
        <time>2015-08-29T08:00:12Z</time>
      </trkpt>
      <trkpt lat="34.14948" lon="77.01317">
        <ele>4850.4</ele>
        <time>2015-08-29T08:00:13Z</time>
      </trkpt>
      <trkpt lat="34.14948" lon="77.01319">
        <ele>4849.8</ele>
        <time>2015-08-29T08:00:15Z</time>
      </trkpt>
      <trkpt lat="34.14947" lon="77.01321">
        <ele>4849.6</ele>
        <time>2015-08-29T08:00:17Z</time>
      </trkpt>
      <trkpt lat="34.14946" lon="77.01322">
        <ele>4849.4</ele>
        <time>2015-08-29T08:00:19Z</time>
      </trkpt>
      <trkpt lat="34.14945" lon="77.01324">
        <ele>4848.6</ele>
        <time>2015-08-29T08:00:25Z</time>
      </trkpt>
      <trkpt lat="34.14937" lon="77.01329">
        <ele>4847.6</ele>
        <time>2015-08-29T08:00:39Z</time>
      </trkpt>
      <trkpt lat="34.14937" lon="77.01331">
        <ele>4846.2</ele>
        <time>2015-08-29T08:00:42Z</time>
      </trkpt>
      <trkpt lat="34.14934" lon="77.01344">
        <ele>4845.2</ele>
        <time>2015-08-29T08:00:57Z</time>
      </trkpt>
      <trkpt lat="34.14931" lon="77.01352">
        <ele>4844.4</ele>
        <time>2015-08-29T08:01:06Z</time>
      </trkpt>
      <trkpt lat="34.1493" lon="77.01357">
        <ele>4844</ele>
        <time>2015-08-29T08:01:09Z</time>
      </trkpt>
      <trkpt lat="34.14932" lon="77.01359">
        <ele>4843</ele>
        <time>2015-08-29T08:01:11Z</time>
      </trkpt>
      <trkpt lat="34.14933" lon="77.01359">
        <ele>4842</ele>
        <time>2015-08-29T08:01:13Z</time>
      </trkpt>
      <trkpt lat="34.14934" lon="77.0136">
        <ele>4841</ele>
        <time>2015-08-29T08:01:15Z</time>
      </trkpt>
      <trkpt lat="34.14933" lon="77.01366">
        <ele>4840</ele>
        <time>2015-08-29T08:01:21Z</time>
      </trkpt>
      <trkpt lat="34.1493" lon="77.01368">
        <ele>4839.6</ele>
        <time>2015-08-29T08:01:26Z</time>
      </trkpt>
      <trkpt lat="34.14927" lon="77.0137">
        <ele>4838.6</ele>
        <time>2015-08-29T08:01:29Z</time>
      </trkpt>
      <trkpt lat="34.14926" lon="77.01371">
        <ele>4838</ele>
        <time>2015-08-29T08:01:31Z</time>
      </trkpt>
      <trkpt lat="34.14926" lon="77.01372">
        <ele>4837.6</ele>
        <time>2015-08-29T08:01:32Z</time>
      </trkpt>
      <trkpt lat="34.14926" lon="77.01374">
        <ele>4836.4</ele>
        <time>2015-08-29T08:01:35Z</time>
      </trkpt>
      <trkpt lat="34.14928" lon="77.01379">
        <ele>4835.2</ele>
        <time>2015-08-29T08:01:39Z</time>
      </trkpt>
      <trkpt lat="34.1493" lon="77.01384">
        <ele>4834</ele>
        <time>2015-08-29T08:01:43Z</time>
      </trkpt>
      <trkpt lat="34.1493" lon="77.01387">
        <ele>4833.8</ele>
        <time>2015-08-29T08:01:45Z</time>
      </trkpt>
      <trkpt lat="34.14931" lon="77.01391">
        <ele>4833</ele>
        <time>2015-08-29T08:01:49Z</time>
      </trkpt>
      <trkpt lat="34.1493" lon="77.01401">
        <ele>4832.4</ele>
        <time>2015-08-29T08:01:58Z</time>
      </trkpt>
      <trkpt lat="34.14928" lon="77.01406">
        <ele>4831.8</ele>
        <time>2015-08-29T08:02:03Z</time>
      </trkpt>
      <trkpt lat="34.14926" lon="77.01409">
        <ele>4830.6</ele>
        <time>2015-08-29T08:02:07Z</time>
      </trkpt>
      <trkpt lat="34.14928" lon="77.01412">
        <ele>4829.6</ele>
        <time>2015-08-29T08:02:18Z</time>
      </trkpt>
      <trkpt lat="34.1493" lon="77.01416">
        <ele>4828.4</ele>
        <time>2015-08-29T08:02:23Z</time>
      </trkpt>
      <trkpt lat="34.14939" lon="77.01418">
        <ele>4827.2</ele>
        <time>2015-08-29T08:02:30Z</time>
      </trkpt>
      <trkpt lat="34.1495" lon="77.01417">
        <ele>4826</ele>
        <time>2015-08-29T08:02:37Z</time>
      </trkpt>
      <trkpt lat="34.14952" lon="77.01415">
        <ele>4825</ele>
        <time>2015-08-29T08:02:41Z</time>
      </trkpt>
      <trkpt lat="34.14949" lon="77.01424">
        <ele>4823.8</ele>
        <time>2015-08-29T08:02:48Z</time>
      </trkpt>
      <trkpt lat="34.14949" lon="77.01424">
        <ele>4823.6</ele>
        <time>2015-08-29T08:02:49Z</time>
      </trkpt>
      <trkpt lat="34.1495" lon="77.01428">
        <ele>4823</ele>
        <time>2015-08-29T08:02:53Z</time>
      </trkpt>
      <trkpt lat="34.14951" lon="77.0143">
        <ele>4822.8</ele>
        <time>2015-08-29T08:02:55Z</time>
      </trkpt>
      <trkpt lat="34.14952" lon="77.01435">
        <ele>4821.6</ele>
        <time>2015-08-29T08:03:00Z</time>
      </trkpt>
      <trkpt lat="34.14952" lon="77.01436">
        <ele>4820.6</ele>
        <time>2015-08-29T08:03:03Z</time>
      </trkpt>
      <trkpt lat="34.14954" lon="77.01439">
        <ele>4819.4</ele>
        <time>2015-08-29T08:03:08Z</time>
      </trkpt>
      <trkpt lat="34.14957" lon="77.01442">
        <ele>4818.4</ele>
        <time>2015-08-29T08:03:13Z</time>
      </trkpt>
      <trkpt lat="34.14962" lon="77.01441">
        <ele>4817.2</ele>
        <time>2015-08-29T08:03:17Z</time>
      </trkpt>
      <trkpt lat="34.14965" lon="77.01443">
        <ele>4816.2</ele>
        <time>2015-08-29T08:03:21Z</time>
      </trkpt>
      <trkpt lat="34.14967" lon="77.01444">
        <ele>4816</ele>
        <time>2015-08-29T08:03:22Z</time>
      </trkpt>
      <trkpt lat="34.14971" lon="77.01448">
        <ele>4815.6</ele>
        <time>2015-08-29T08:03:25Z</time>
      </trkpt>
      <trkpt lat="34.14972" lon="77.01451">
        <ele>4815.4</ele>
        <time>2015-08-29T08:03:27Z</time>
      </trkpt>
      <trkpt lat="34.14971" lon="77.01453">
        <ele>4815.2</ele>
        <time>2015-08-29T08:03:29Z</time>
      </trkpt>
      <trkpt lat="34.14971" lon="77.01453">
        <ele>4815</ele>
        <time>2015-08-29T08:03:30Z</time>
      </trkpt>
      <trkpt lat="34.1497" lon="77.01456">
        <ele>4814.4</ele>
        <time>2015-08-29T08:03:33Z</time>
      </trkpt>
      <trkpt lat="34.1497" lon="77.01461">
        <ele>4813.8</ele>
        <time>2015-08-29T08:03:37Z</time>
      </trkpt>
      <trkpt lat="34.1497" lon="77.01463">
        <ele>4813.4</ele>
        <time>2015-08-29T08:03:39Z</time>
      </trkpt>
      <trkpt lat="34.14971" lon="77.01466">
        <ele>4812.4</ele>
        <time>2015-08-29T08:03:42Z</time>
      </trkpt>
      <trkpt lat="34.14974" lon="77.01468">
        <ele>4811.4</ele>
        <time>2015-08-29T08:03:47Z</time>
      </trkpt>
      <trkpt lat="34.14974" lon="77.01469">
        <ele>4811.2</ele>
        <time>2015-08-29T08:03:48Z</time>
      </trkpt>
      <trkpt lat="34.14976" lon="77.01476">
        <ele>4810.2</ele>
        <time>2015-08-29T08:03:53Z</time>
      </trkpt>
      <trkpt lat="34.14975" lon="77.01483">
        <ele>4809.2</ele>
        <time>2015-08-29T08:03:59Z</time>
      </trkpt>
      <trkpt lat="34.14978" lon="77.01489">
        <ele>4808.4</ele>
        <time>2015-08-29T08:04:04Z</time>
      </trkpt>
      <trkpt lat="34.14982" lon="77.01492">
        <ele>4808.2</ele>
        <time>2015-08-29T08:04:06Z</time>
      </trkpt>
      <trkpt lat="34.14981" lon="77.01494">
        <ele>4807.6</ele>
        <time>2015-08-29T08:04:09Z</time>
      </trkpt>
      <trkpt lat="34.1498" lon="77.01495">
        <ele>4807</ele>
        <time>2015-08-29T08:04:11Z</time>
      </trkpt>
      <trkpt lat="34.14978" lon="77.01495">
        <ele>4805.8</ele>
        <time>2015-08-29T08:04:15Z</time>
      </trkpt>
      <trkpt lat="34.14977" lon="77.01496">
        <ele>4804.8</ele>
        <time>2015-08-29T08:04:19Z</time>
      </trkpt>
      <trkpt lat="34.14974" lon="77.01498">
        <ele>4803.4</ele>
        <time>2015-08-29T08:04:26Z</time>
      </trkpt>
      <trkpt lat="34.14974" lon="77.015">
        <ele>4802.4</ele>
        <time>2015-08-29T08:04:30Z</time>
      </trkpt>
      <trkpt lat="34.14974" lon="77.01501">
        <ele>4801.4</ele>
        <time>2015-08-29T08:04:36Z</time>
      </trkpt>
      <trkpt lat="34.14985" lon="77.01508">
        <ele>4800.2</ele>
        <time>2015-08-29T08:04:47Z</time>
      </trkpt>
      <trkpt lat="34.14987" lon="77.01509">
        <ele>4799.8</ele>
        <time>2015-08-29T08:04:49Z</time>
      </trkpt>
      <trkpt lat="34.14989" lon="77.0151">
        <ele>4799.2</ele>
        <time>2015-08-29T08:04:52Z</time>
      </trkpt>
      <trkpt lat="34.14989" lon="77.01512">
        <ele>4799</ele>
        <time>2015-08-29T08:04:53Z</time>
      </trkpt>
      <trkpt lat="34.14986" lon="77.01513">
        <ele>4798.6</ele>
        <time>2015-08-29T08:04:55Z</time>
      </trkpt>
      <trkpt lat="34.14985" lon="77.01514">
        <ele>4798.2</ele>
        <time>2015-08-29T08:04:57Z</time>
      </trkpt>
      <trkpt lat="34.14984" lon="77.01515">
        <ele>4798</ele>
        <time>2015-08-29T08:04:58Z</time>
      </trkpt>
      <trkpt lat="34.1498" lon="77.01517">
        <ele>4796.8</ele>
        <time>2015-08-29T08:05:02Z</time>
      </trkpt>
      <trkpt lat="34.14978" lon="77.01518">
        <ele>4795.6</ele>
        <time>2015-08-29T08:05:06Z</time>
      </trkpt>
      <trkpt lat="34.1498" lon="77.0152">
        <ele>4794.6</ele>
        <time>2015-08-29T08:05:10Z</time>
      </trkpt>
      <trkpt lat="34.14983" lon="77.01523">
        <ele>4793.6</ele>
        <time>2015-08-29T08:05:22Z</time>
      </trkpt>
      <trkpt lat="34.14984" lon="77.01525">
        <ele>4792.4</ele>
        <time>2015-08-29T08:05:27Z</time>
      </trkpt>
      <trkpt lat="34.14988" lon="77.01525">
        <ele>4791.4</ele>
        <time>2015-08-29T08:05:31Z</time>
      </trkpt>
      <trkpt lat="34.14993" lon="77.0153">
        <ele>4790.4</ele>
        <time>2015-08-29T08:05:39Z</time>
      </trkpt>
      <trkpt lat="34.14997" lon="77.01532">
        <ele>4789.4</ele>
        <time>2015-08-29T08:05:43Z</time>
      </trkpt>
      <trkpt lat="34.15002" lon="77.01535">
        <ele>4788.2</ele>
        <time>2015-08-29T08:05:48Z</time>
      </trkpt>
      <trkpt lat="34.15003" lon="77.01537">
        <ele>4786.8</ele>
        <time>2015-08-29T08:05:51Z</time>
      </trkpt>
      <trkpt lat="34.15001" lon="77.01541">
        <ele>4785.8</ele>
        <time>2015-08-29T08:05:56Z</time>
      </trkpt>
      <trkpt lat="34.15009" lon="77.01545">
        <ele>4785.8</ele>
        <time>2015-08-29T08:05:58Z</time>
      </trkpt>
      <trkpt lat="34.15009" lon="77.01546">
        <ele>4786</ele>
        <time>2015-08-29T08:06:00Z</time>
      </trkpt>
      <trkpt lat="34.15009" lon="77.01548">
        <ele>4785.8</ele>
        <time>2015-08-29T08:06:02Z</time>
      </trkpt>
      <trkpt lat="34.15009" lon="77.01551">
        <ele>4785.4</ele>
        <time>2015-08-29T08:06:04Z</time>
      </trkpt>
      <trkpt lat="34.1501" lon="77.01554">
        <ele>4784.8</ele>
        <time>2015-08-29T08:06:07Z</time>
      </trkpt>
      <trkpt lat="34.15008" lon="77.01558">
        <ele>4783.8</ele>
        <time>2015-08-29T08:06:14Z</time>
      </trkpt>
      <trkpt lat="34.15009" lon="77.01556">
        <ele>4782.8</ele>
        <time>2015-08-29T08:06:18Z</time>
      </trkpt>
      <trkpt lat="34.15008" lon="77.0156">
        <ele>4781.6</ele>
        <time>2015-08-29T08:06:23Z</time>
      </trkpt>
      <trkpt lat="34.15007" lon="77.01561">
        <ele>4780.6</ele>
        <time>2015-08-29T08:06:26Z</time>
      </trkpt>
      <trkpt lat="34.15004" lon="77.01563">
        <ele>4779.6</ele>
        <time>2015-08-29T08:06:35Z</time>
      </trkpt>
      <trkpt lat="34.15002" lon="77.01569">
        <ele>4778.4</ele>
        <time>2015-08-29T08:06:38Z</time>
      </trkpt>
      <trkpt lat="34.15002" lon="77.01574">
        <ele>4777.4</ele>
        <time>2015-08-29T08:06:43Z</time>
      </trkpt>
      <trkpt lat="34.15004" lon="77.01576">
        <ele>4776.4</ele>
        <time>2015-08-29T08:06:46Z</time>
      </trkpt>
      <trkpt lat="34.15006" lon="77.01576">
        <ele>4776.2</ele>
        <time>2015-08-29T08:06:47Z</time>
      </trkpt>
      <trkpt lat="34.15006" lon="77.01577">
        <ele>4776</ele>
        <time>2015-08-29T08:06:48Z</time>
      </trkpt>
      <trkpt lat="34.15011" lon="77.01579">
        <ele>4775</ele>
        <time>2015-08-29T08:06:52Z</time>
      </trkpt>
      <trkpt lat="34.15013" lon="77.01581">
        <ele>4774.8</ele>
        <time>2015-08-29T08:06:55Z</time>
      </trkpt>
      <trkpt lat="34.15016" lon="77.01583">
        <ele>4773.8</ele>
        <time>2015-08-29T08:07:00Z</time>
      </trkpt>
      <trkpt lat="34.15018" lon="77.01584">
        <ele>4773</ele>
        <time>2015-08-29T08:07:04Z</time>
      </trkpt>
      <trkpt lat="34.15016" lon="77.01587">
        <ele>4772.6</ele>
        <time>2015-08-29T08:07:07Z</time>
      </trkpt>
      <trkpt lat="34.15017" lon="77.01589">
        <ele>4772</ele>
        <time>2015-08-29T08:07:10Z</time>
      </trkpt>
      <trkpt lat="34.15016" lon="77.01592">
        <ele>4771.6</ele>
        <time>2015-08-29T08:07:13Z</time>
      </trkpt>
      <trkpt lat="34.15021" lon="77.01593">
        <ele>4770.2</ele>
        <time>2015-08-29T08:07:18Z</time>
      </trkpt>
      <trkpt lat="34.15024" lon="77.01594">
        <ele>4769</ele>
        <time>2015-08-29T08:07:21Z</time>
      </trkpt>
      <trkpt lat="34.15027" lon="77.01597">
        <ele>4768</ele>
        <time>2015-08-29T08:07:25Z</time>
      </trkpt>
      <trkpt lat="34.15027" lon="77.01597">
        <ele>4767.8</ele>
        <time>2015-08-29T08:07:26Z</time>
      </trkpt>
      <trkpt lat="34.15024" lon="77.01603">
        <ele>4766.8</ele>
        <time>2015-08-29T08:07:38Z</time>
      </trkpt>
      <trkpt lat="34.15023" lon="77.01607">
        <ele>4765.8</ele>
        <time>2015-08-29T08:07:44Z</time>
      </trkpt>
      <trkpt lat="34.15025" lon="77.01611">
        <ele>4764.6</ele>
        <time>2015-08-29T08:07:50Z</time>
      </trkpt>
      <trkpt lat="34.15024" lon="77.01614">
        <ele>4763.6</ele>
        <time>2015-08-29T08:07:55Z</time>
      </trkpt>
      <trkpt lat="34.15022" lon="77.01616">
        <ele>4762.4</ele>
        <time>2015-08-29T08:08:01Z</time>
      </trkpt>
      <trkpt lat="34.15021" lon="77.01617">
        <ele>4761.4</ele>
        <time>2015-08-29T08:08:04Z</time>
      </trkpt>
      <trkpt lat="34.1502" lon="77.01619">
        <ele>4760.2</ele>
        <time>2015-08-29T08:08:08Z</time>
      </trkpt>
      <trkpt lat="34.15021" lon="77.01621">
        <ele>4759</ele>
        <time>2015-08-29T08:08:12Z</time>
      </trkpt>
      <trkpt lat="34.15023" lon="77.01624">
        <ele>4757.8</ele>
        <time>2015-08-29T08:08:18Z</time>
      </trkpt>
      <trkpt lat="34.1503" lon="77.01632">
        <ele>4756.8</ele>
        <time>2015-08-29T08:08:29Z</time>
      </trkpt>
      <trkpt lat="34.1503" lon="77.01634">
        <ele>4756.8</ele>
        <time>2015-08-29T08:08:30Z</time>
      </trkpt>
      <trkpt lat="34.15035" lon="77.01638">
        <ele>4756</ele>
        <time>2015-08-29T08:08:33Z</time>
      </trkpt>
      <trkpt lat="34.15035" lon="77.01639">
        <ele>4755.8</ele>
        <time>2015-08-29T08:08:34Z</time>
      </trkpt>
      <trkpt lat="34.15034" lon="77.0164">
        <ele>4754.8</ele>
        <time>2015-08-29T08:08:37Z</time>
      </trkpt>
      <trkpt lat="34.15033" lon="77.01642">
        <ele>4753.4</ele>
        <time>2015-08-29T08:08:41Z</time>
      </trkpt>
      <trkpt lat="34.15033" lon="77.01645">
        <ele>4752.4</ele>
        <time>2015-08-29T08:08:45Z</time>
      </trkpt>
      <trkpt lat="34.15034" lon="77.01648">
        <ele>4751.2</ele>
        <time>2015-08-29T08:08:49Z</time>
      </trkpt>
      <trkpt lat="34.15032" lon="77.01649">
        <ele>4750.2</ele>
        <time>2015-08-29T08:08:53Z</time>
      </trkpt>
      <trkpt lat="34.15028" lon="77.01653">
        <ele>4749</ele>
        <time>2015-08-29T08:08:57Z</time>
      </trkpt>
      <trkpt lat="34.15029" lon="77.01655">
        <ele>4748.2</ele>
        <time>2015-08-29T08:08:59Z</time>
      </trkpt>
      <trkpt lat="34.1503" lon="77.01655">
        <ele>4747.8</ele>
        <time>2015-08-29T08:09:00Z</time>
      </trkpt>
      <trkpt lat="34.15036" lon="77.01657">
        <ele>4746.6</ele>
        <time>2015-08-29T08:09:06Z</time>
      </trkpt>
      <trkpt lat="34.15039" lon="77.01658">
        <ele>4745.6</ele>
        <time>2015-08-29T08:09:11Z</time>
      </trkpt>
      <trkpt lat="34.15047" lon="77.01658">
        <ele>4744.8</ele>
        <time>2015-08-29T08:09:17Z</time>
      </trkpt>
      <trkpt lat="34.15047" lon="77.01658">
        <ele>4744.4</ele>
        <time>2015-08-29T08:09:18Z</time>
      </trkpt>
      <trkpt lat="34.15049" lon="77.01657">
        <ele>4743.4</ele>
        <time>2015-08-29T08:09:23Z</time>
      </trkpt>
      <trkpt lat="34.15052" lon="77.01655">
        <ele>4742.4</ele>
        <time>2015-08-29T08:09:29Z</time>
      </trkpt>
      <trkpt lat="34.15054" lon="77.01654">
        <ele>4741.2</ele>
        <time>2015-08-29T08:09:34Z</time>
      </trkpt>
      <trkpt lat="34.15057" lon="77.01653">
        <ele>4740</ele>
        <time>2015-08-29T08:09:37Z</time>
      </trkpt>
      <trkpt lat="34.15065" lon="77.01657">
        <ele>4738.6</ele>
        <time>2015-08-29T08:09:49Z</time>
      </trkpt>
      <trkpt lat="34.15066" lon="77.01654">
        <ele>4737.4</ele>
        <time>2015-08-29T08:09:54Z</time>
      </trkpt>
      <trkpt lat="34.15066" lon="77.01651">
        <ele>4736.2</ele>
        <time>2015-08-29T08:09:57Z</time>
      </trkpt>
      <trkpt lat="34.15067" lon="77.01647">
        <ele>4734.8</ele>
        <time>2015-08-29T08:10:00Z</time>
      </trkpt>
      <trkpt lat="34.15067" lon="77.01642">
        <ele>4733.4</ele>
        <time>2015-08-29T08:10:04Z</time>
      </trkpt>
      <trkpt lat="34.15068" lon="77.01639">
        <ele>4732.8</ele>
        <time>2015-08-29T08:10:06Z</time>
      </trkpt>
      <trkpt lat="34.15068" lon="77.01638">
        <ele>4732.4</ele>
        <time>2015-08-29T08:10:07Z</time>
      </trkpt>
      <trkpt lat="34.15068" lon="77.01636">
        <ele>4731.4</ele>
        <time>2015-08-29T08:10:09Z</time>
      </trkpt>
      <trkpt lat="34.15069" lon="77.01635">
        <ele>4730.6</ele>
        <time>2015-08-29T08:10:11Z</time>
      </trkpt>
      <trkpt lat="34.15071" lon="77.01633">
        <ele>4730.2</ele>
        <time>2015-08-29T08:10:13Z</time>
      </trkpt>
      <trkpt lat="34.1507" lon="77.01629">
        <ele>4730</ele>
        <time>2015-08-29T08:10:16Z</time>
      </trkpt>
      <trkpt lat="34.15072" lon="77.01629">
        <ele>4730</ele>
        <time>2015-08-29T08:10:18Z</time>
      </trkpt>
      <trkpt lat="34.1507" lon="77.01628">
        <ele>4729</ele>
        <time>2015-08-29T08:10:22Z</time>
      </trkpt>
      <trkpt lat="34.15071" lon="77.01627">
        <ele>4727.4</ele>
        <time>2015-08-29T08:10:26Z</time>
      </trkpt>
      <trkpt lat="34.15074" lon="77.01626">
        <ele>4726.4</ele>
        <time>2015-08-29T08:10:30Z</time>
      </trkpt>
      <trkpt lat="34.15079" lon="77.01619">
        <ele>4725.4</ele>
        <time>2015-08-29T08:10:38Z</time>
      </trkpt>
      <trkpt lat="34.1508" lon="77.01617">
        <ele>4725.2</ele>
        <time>2015-08-29T08:10:40Z</time>
      </trkpt>
      <trkpt lat="34.15083" lon="77.01619">
        <ele>4725</ele>
        <time>2015-08-29T08:10:42Z</time>
      </trkpt>
      <trkpt lat="34.15085" lon="77.01618">
        <ele>4724.2</ele>
        <time>2015-08-29T08:10:46Z</time>
      </trkpt>
      <trkpt lat="34.15089" lon="77.01617">
        <ele>4722.8</ele>
        <time>2015-08-29T08:10:51Z</time>
      </trkpt>
      <trkpt lat="34.15092" lon="77.01618">
        <ele>4721.8</ele>
        <time>2015-08-29T08:10:56Z</time>
      </trkpt>
      <trkpt lat="34.15092" lon="77.01615">
        <ele>4720.4</ele>
        <time>2015-08-29T08:11:00Z</time>
      </trkpt>
      <trkpt lat="34.15092" lon="77.0161">
        <ele>4719.4</ele>
        <time>2015-08-29T08:11:04Z</time>
      </trkpt>
      <trkpt lat="34.15094" lon="77.01608">
        <ele>4718.8</ele>
        <time>2015-08-29T08:11:06Z</time>
      </trkpt>
      <trkpt lat="34.15096" lon="77.01604">
        <ele>4718</ele>
        <time>2015-08-29T08:11:09Z</time>
      </trkpt>
      <trkpt lat="34.15097" lon="77.016">
        <ele>4717</ele>
        <time>2015-08-29T08:11:12Z</time>
      </trkpt>
      <trkpt lat="34.15097" lon="77.01597">
        <ele>4716.6</ele>
        <time>2015-08-29T08:11:14Z</time>
      </trkpt>
      <trkpt lat="34.15097" lon="77.01596">
        <ele>4715.8</ele>
        <time>2015-08-29T08:11:16Z</time>
      </trkpt>
      <trkpt lat="34.15097" lon="77.01592">
        <ele>4714.8</ele>
        <time>2015-08-29T08:11:19Z</time>
      </trkpt>
      <trkpt lat="34.151" lon="77.01588">
        <ele>4713.6</ele>
        <time>2015-08-29T08:11:24Z</time>
      </trkpt>
      <trkpt lat="34.15103" lon="77.01585">
        <ele>4713.4</ele>
        <time>2015-08-29T08:11:26Z</time>
      </trkpt>
      <trkpt lat="34.15106" lon="77.01581">
        <ele>4712.6</ele>
        <time>2015-08-29T08:11:29Z</time>
      </trkpt>
      <trkpt lat="34.15109" lon="77.0158">
        <ele>4711.4</ele>
        <time>2015-08-29T08:11:33Z</time>
      </trkpt>
      <trkpt lat="34.1511" lon="77.01577">
        <ele>4710.4</ele>
        <time>2015-08-29T08:11:38Z</time>
      </trkpt>
      <trkpt lat="34.15111" lon="77.01575">
        <ele>4710.2</ele>
        <time>2015-08-29T08:11:40Z</time>
      </trkpt>
      <trkpt lat="34.15112" lon="77.01573">
        <ele>4709.4</ele>
        <time>2015-08-29T08:11:43Z</time>
      </trkpt>
      <trkpt lat="34.15118" lon="77.01569">
        <ele>4708.2</ele>
        <time>2015-08-29T08:11:49Z</time>
      </trkpt>
      <trkpt lat="34.15119" lon="77.01569">
        <ele>4708</ele>
        <time>2015-08-29T08:11:50Z</time>
      </trkpt>
      <trkpt lat="34.15121" lon="77.01567">
        <ele>4707</ele>
        <time>2015-08-29T08:11:53Z</time>
      </trkpt>
      <trkpt lat="34.15124" lon="77.01563">
        <ele>4706.2</ele>
        <time>2015-08-29T08:11:57Z</time>
      </trkpt>
      <trkpt lat="34.15125" lon="77.01561">
        <ele>4706</ele>
        <time>2015-08-29T08:11:59Z</time>
      </trkpt>
      <trkpt lat="34.15127" lon="77.01562">
        <ele>4705.8</ele>
        <time>2015-08-29T08:12:01Z</time>
      </trkpt>
      <trkpt lat="34.15128" lon="77.01563">
        <ele>4704.6</ele>
        <time>2015-08-29T08:12:06Z</time>
      </trkpt>
      <trkpt lat="34.15131" lon="77.01564">
        <ele>4703.6</ele>
        <time>2015-08-29T08:12:09Z</time>
      </trkpt>
      <trkpt lat="34.15132" lon="77.01562">
        <ele>4702.8</ele>
        <time>2015-08-29T08:12:11Z</time>
      </trkpt>
      <trkpt lat="34.15133" lon="77.01558">
        <ele>4702.4</ele>
        <time>2015-08-29T08:12:13Z</time>
      </trkpt>
      <trkpt lat="34.15136" lon="77.01552">
        <ele>4701.2</ele>
        <time>2015-08-29T08:12:18Z</time>
      </trkpt>
      <trkpt lat="34.15139" lon="77.01546">
        <ele>4700</ele>
        <time>2015-08-29T08:12:24Z</time>
      </trkpt>
      <trkpt lat="34.1514" lon="77.01545">
        <ele>4699.8</ele>
        <time>2015-08-29T08:12:25Z</time>
      </trkpt>
      <trkpt lat="34.15144" lon="77.01543">
        <ele>4699</ele>
        <time>2015-08-29T08:12:29Z</time>
      </trkpt>
      <trkpt lat="34.15151" lon="77.01539">
        <ele>4697.8</ele>
        <time>2015-08-29T08:12:36Z</time>
      </trkpt>
      <trkpt lat="34.15157" lon="77.01536">
        <ele>4696.8</ele>
        <time>2015-08-29T08:12:43Z</time>
      </trkpt>
      <trkpt lat="34.15144" lon="77.0153">
        <ele>4695.8</ele>
        <time>2015-08-29T08:12:51Z</time>
      </trkpt>
      <trkpt lat="34.15145" lon="77.01533">
        <ele>4695.4</ele>
        <time>2015-08-29T08:12:54Z</time>
      </trkpt>
      <trkpt lat="34.15148" lon="77.01536">
        <ele>4694.6</ele>
        <time>2015-08-29T08:12:57Z</time>
      </trkpt>
      <trkpt lat="34.15148" lon="77.01542">
        <ele>4693.6</ele>
        <time>2015-08-29T08:13:02Z</time>
      </trkpt>
      <trkpt lat="34.15144" lon="77.01552">
        <ele>4692.6</ele>
        <time>2015-08-29T08:13:13Z</time>
      </trkpt>
      <trkpt lat="34.15145" lon="77.01553">
        <ele>4692.6</ele>
        <time>2015-08-29T08:13:14Z</time>
      </trkpt>
      <trkpt lat="34.15146" lon="77.01557">
        <ele>4692</ele>
        <time>2015-08-29T08:13:17Z</time>
      </trkpt>
      <trkpt lat="34.15147" lon="77.01559">
        <ele>4691.4</ele>
        <time>2015-08-29T08:13:19Z</time>
      </trkpt>
      <trkpt lat="34.1515" lon="77.01562">
        <ele>4690.4</ele>
        <time>2015-08-29T08:13:23Z</time>
      </trkpt>
      <trkpt lat="34.1515" lon="77.01564">
        <ele>4689.4</ele>
        <time>2015-08-29T08:13:27Z</time>
      </trkpt>
      <trkpt lat="34.15147" lon="77.01568">
        <ele>4688.2</ele>
        <time>2015-08-29T08:13:33Z</time>
      </trkpt>
      <trkpt lat="34.15151" lon="77.0157">
        <ele>4687.6</ele>
        <time>2015-08-29T08:13:35Z</time>
      </trkpt>
      <trkpt lat="34.15154" lon="77.01573">
        <ele>4687</ele>
        <time>2015-08-29T08:13:39Z</time>
      </trkpt>
      <trkpt lat="34.15157" lon="77.0158">
        <ele>4686</ele>
        <time>2015-08-29T08:13:46Z</time>
      </trkpt>
      <trkpt lat="34.15158" lon="77.01581">
        <ele>4640.6</ele>
        <time>2015-08-29T08:13:47Z</time>
      </trkpt>
      <trkpt lat="34.15158" lon="77.01579">
        <ele>4685</ele>
        <time>2015-08-29T08:13:52Z</time>
      </trkpt>
      <trkpt lat="34.15157" lon="77.01582">
        <ele>4684.8</ele>
        <time>2015-08-29T08:14:00Z</time>
      </trkpt>
      <trkpt lat="34.15159" lon="77.01584">
        <ele>4640.6</ele>
        <time>2015-08-29T08:14:05Z</time>
      </trkpt>
      <trkpt lat="34.15159" lon="77.01582">
        <ele>4685</ele>
        <time>2015-08-29T08:14:10Z</time>
      </trkpt>
      <trkpt lat="34.15161" lon="77.01589">
        <ele>4683.8</ele>
        <time>2015-08-29T08:14:28Z</time>
      </trkpt>
      <trkpt lat="34.15159" lon="77.01595">
        <ele>4682.8</ele>
        <time>2015-08-29T08:14:35Z</time>
      </trkpt>
      <trkpt lat="34.15159" lon="77.01598">
        <ele>4681.6</ele>
        <time>2015-08-29T08:14:40Z</time>
      </trkpt>
      <trkpt lat="34.15159" lon="77.01602">
        <ele>4680.2</ele>
        <time>2015-08-29T08:14:45Z</time>
      </trkpt>
      <trkpt lat="34.15159" lon="77.01606">
        <ele>4679.2</ele>
        <time>2015-08-29T08:14:49Z</time>
      </trkpt>
      <trkpt lat="34.15162" lon="77.01605">
        <ele>4678</ele>
        <time>2015-08-29T08:14:53Z</time>
      </trkpt>
      <trkpt lat="34.15165" lon="77.01604">
        <ele>4677</ele>
        <time>2015-08-29T08:14:55Z</time>
      </trkpt>
      <trkpt lat="34.15168" lon="77.01604">
        <ele>4676</ele>
        <time>2015-08-29T08:14:58Z</time>
      </trkpt>
      <trkpt lat="34.15172" lon="77.01603">
        <ele>4674.8</ele>
        <time>2015-08-29T08:15:03Z</time>
      </trkpt>
      <trkpt lat="34.1518" lon="77.01602">
        <ele>4673.8</ele>
        <time>2015-08-29T08:15:12Z</time>
      </trkpt>
      <trkpt lat="34.15183" lon="77.01601">
        <ele>4672.8</ele>
        <time>2015-08-29T08:15:16Z</time>
      </trkpt>
      <trkpt lat="34.15184" lon="77.01601">
        <ele>4671.8</ele>
        <time>2015-08-29T08:15:20Z</time>
      </trkpt>
      <trkpt lat="34.15187" lon="77.016">
        <ele>4670.6</ele>
        <time>2015-08-29T08:15:23Z</time>
      </trkpt>
      <trkpt lat="34.1519" lon="77.01597">
        <ele>4669.6</ele>
        <time>2015-08-29T08:15:26Z</time>
      </trkpt>
      <trkpt lat="34.15191" lon="77.01596">
        <ele>4669.4</ele>
        <time>2015-08-29T08:15:27Z</time>
      </trkpt>
      <trkpt lat="34.15192" lon="77.01592">
        <ele>4669</ele>
        <time>2015-08-29T08:15:29Z</time>
      </trkpt>
      <trkpt lat="34.15191" lon="77.01593">
        <ele>4668.8</ele>
        <time>2015-08-29T08:15:32Z</time>
      </trkpt>
      <trkpt lat="34.15189" lon="77.01601">
        <ele>4668.4</ele>
        <time>2015-08-29T08:15:41Z</time>
      </trkpt>
      <trkpt lat="34.15189" lon="77.01604">
        <ele>4668</ele>
        <time>2015-08-29T08:15:44Z</time>
      </trkpt>
      <trkpt lat="34.1519" lon="77.01608">
        <ele>4667.4</ele>
        <time>2015-08-29T08:15:48Z</time>
      </trkpt>
      <trkpt lat="34.15191" lon="77.01612">
        <ele>4666.4</ele>
        <time>2015-08-29T08:15:53Z</time>
      </trkpt>
      <trkpt lat="34.15193" lon="77.01612">
        <ele>4664.8</ele>
        <time>2015-08-29T08:15:57Z</time>
      </trkpt>
      <trkpt lat="34.15196" lon="77.01615">
        <ele>4664.2</ele>
        <time>2015-08-29T08:15:59Z</time>
      </trkpt>
      <trkpt lat="34.15197" lon="77.01623">
        <ele>4663.6</ele>
        <time>2015-08-29T08:16:08Z</time>
      </trkpt>
      <trkpt lat="34.15197" lon="77.01628">
        <ele>4662.6</ele>
        <time>2015-08-29T08:16:13Z</time>
      </trkpt>
      <trkpt lat="34.15197" lon="77.01629">
        <ele>4661.4</ele>
        <time>2015-08-29T08:16:16Z</time>
      </trkpt>
      <trkpt lat="34.15198" lon="77.01629">
        <ele>4660.2</ele>
        <time>2015-08-29T08:16:20Z</time>
      </trkpt>
      <trkpt lat="34.15195" lon="77.01629">
        <ele>4659</ele>
        <time>2015-08-29T08:16:25Z</time>
      </trkpt>
      <trkpt lat="34.15194" lon="77.01633">
        <ele>4658</ele>
        <time>2015-08-29T08:16:29Z</time>
      </trkpt>
      <trkpt lat="34.15194" lon="77.0164">
        <ele>4656.8</ele>
        <time>2015-08-29T08:16:35Z</time>
      </trkpt>
      <trkpt lat="34.15193" lon="77.01644">
        <ele>4655.6</ele>
        <time>2015-08-29T08:16:40Z</time>
      </trkpt>
      <trkpt lat="34.15191" lon="77.01649">
        <ele>4654.6</ele>
        <time>2015-08-29T08:16:44Z</time>
      </trkpt>
      <trkpt lat="34.15191" lon="77.01652">
        <ele>4653.6</ele>
        <time>2015-08-29T08:16:48Z</time>
      </trkpt>
      <trkpt lat="34.1519" lon="77.01654">
        <ele>4653</ele>
        <time>2015-08-29T08:16:50Z</time>
      </trkpt>
      <trkpt lat="34.15192" lon="77.01655">
        <ele>4652.4</ele>
        <time>2015-08-29T08:16:53Z</time>
      </trkpt>
      <trkpt lat="34.15195" lon="77.01656">
        <ele>4651.4</ele>
        <time>2015-08-29T08:16:56Z</time>
      </trkpt>
      <trkpt lat="34.15199" lon="77.01655">
        <ele>4650.4</ele>
        <time>2015-08-29T08:16:59Z</time>
      </trkpt>
      <trkpt lat="34.152" lon="77.01654">
        <ele>4650</ele>
        <time>2015-08-29T08:17:00Z</time>
      </trkpt>
      <trkpt lat="34.152" lon="77.01654">
        <ele>4649.8</ele>
        <time>2015-08-29T08:17:01Z</time>
      </trkpt>
      <trkpt lat="34.15202" lon="77.01657">
        <ele>4649.6</ele>
        <time>2015-08-29T08:17:03Z</time>
      </trkpt>
      <trkpt lat="34.15202" lon="77.01659">
        <ele>4649.6</ele>
        <time>2015-08-29T08:17:22Z</time>
      </trkpt>
      <trkpt lat="34.15201" lon="77.01661">
        <ele>4649</ele>
        <time>2015-08-29T08:17:26Z</time>
      </trkpt>
      <trkpt lat="34.152" lon="77.01664">
        <ele>4647.8</ele>
        <time>2015-08-29T08:17:35Z</time>
      </trkpt>
      <trkpt lat="34.15201" lon="77.01668">
        <ele>4646.8</ele>
        <time>2015-08-29T08:17:40Z</time>
      </trkpt>
      <trkpt lat="34.152" lon="77.01673">
        <ele>4645.6</ele>
        <time>2015-08-29T08:17:47Z</time>
      </trkpt>
      <trkpt lat="34.15201" lon="77.01675">
        <ele>4644.6</ele>
        <time>2015-08-29T08:17:55Z</time>
      </trkpt>
      <trkpt lat="34.15202" lon="77.01679">
        <ele>4643.6</ele>
        <time>2015-08-29T08:17:59Z</time>
      </trkpt>
      <trkpt lat="34.15204" lon="77.0168">
        <ele>4642.4</ele>
        <time>2015-08-29T08:18:05Z</time>
      </trkpt>
      <trkpt lat="34.15204" lon="77.01684">
        <ele>4641.4</ele>
        <time>2015-08-29T08:18:15Z</time>
      </trkpt>
      <trkpt lat="34.15201" lon="77.01692">
        <ele>4640.2</ele>
        <time>2015-08-29T08:18:22Z</time>
      </trkpt>
      <trkpt lat="34.15199" lon="77.017">
        <ele>4639</ele>
        <time>2015-08-29T08:18:27Z</time>
      </trkpt>
      <trkpt lat="34.152" lon="77.01706">
        <ele>4638</ele>
        <time>2015-08-29T08:18:33Z</time>
      </trkpt>
      <trkpt lat="34.152" lon="77.01709">
        <ele>4636.8</ele>
        <time>2015-08-29T08:18:38Z</time>
      </trkpt>
      <trkpt lat="34.15201" lon="77.01715">
        <ele>4635.8</ele>
        <time>2015-08-29T08:18:45Z</time>
      </trkpt>
      <trkpt lat="34.15203" lon="77.01721">
        <ele>4634.8</ele>
        <time>2015-08-29T08:18:53Z</time>
      </trkpt>
      <trkpt lat="34.15204" lon="77.01727">
        <ele>4633.8</ele>
        <time>2015-08-29T08:18:58Z</time>
      </trkpt>
      <trkpt lat="34.15205" lon="77.01737">
        <ele>4632.8</ele>
        <time>2015-08-29T08:19:06Z</time>
      </trkpt>
      <trkpt lat="34.15204" lon="77.01739">
        <ele>4632.6</ele>
        <time>2015-08-29T08:19:08Z</time>
      </trkpt>
      <trkpt lat="34.15204" lon="77.0174">
        <ele>4632.6</ele>
        <time>2015-08-29T08:19:10Z</time>
      </trkpt>
      <trkpt lat="34.15205" lon="77.01737">
        <ele>4632.8</ele>
        <time>2015-08-29T08:19:29Z</time>
      </trkpt>
      <trkpt lat="34.15208" lon="77.01734">
        <ele>4633.2</ele>
        <time>2015-08-29T08:19:35Z</time>
      </trkpt>
      <trkpt lat="34.15204" lon="77.01735">
        <ele>4633</ele>
        <time>2015-08-29T08:19:51Z</time>
      </trkpt>
      <trkpt lat="34.15201" lon="77.01738">
        <ele>4632.6</ele>
        <time>2015-08-29T08:19:59Z</time>
      </trkpt>
      <trkpt lat="34.15209" lon="77.0174">
        <ele>4631.6</ele>
        <time>2015-08-29T08:20:22Z</time>
      </trkpt>
      <trkpt lat="34.15215" lon="77.01741">
        <ele>4631.6</ele>
        <time>2015-08-29T08:21:25Z</time>
      </trkpt>
      <trkpt lat="34.15208" lon="77.01741">
        <ele>4632.2</ele>
        <time>2015-08-29T08:21:49Z</time>
      </trkpt>
      <trkpt lat="34.15207" lon="77.01746">
        <ele>4630.8</ele>
        <time>2015-08-29T08:22:26Z</time>
      </trkpt>
      <trkpt lat="34.15207" lon="77.01746">
        <ele>4630.6</ele>
        <time>2015-08-29T08:22:27Z</time>
      </trkpt>
      <trkpt lat="34.15205" lon="77.01746">
        <ele>4629.6</ele>
        <time>2015-08-29T08:22:35Z</time>
      </trkpt>
      <trkpt lat="34.15203" lon="77.01748">
        <ele>4628.6</ele>
        <time>2015-08-29T08:22:49Z</time>
      </trkpt>
      <trkpt lat="34.15203" lon="77.0175">
        <ele>4628.4</ele>
        <time>2015-08-29T08:22:50Z</time>
      </trkpt>
      <trkpt lat="34.15202" lon="77.01755">
        <ele>4628.2</ele>
        <time>2015-08-29T08:22:54Z</time>
      </trkpt>
      <trkpt lat="34.15202" lon="77.01758">
        <ele>4627.4</ele>
        <time>2015-08-29T08:23:00Z</time>
      </trkpt>
      <trkpt lat="34.15202" lon="77.01758">
        <ele>4626.2</ele>
        <time>2015-08-29T08:23:07Z</time>
      </trkpt>
      <trkpt lat="34.15202" lon="77.01758">
        <ele>4625.2</ele>
        <time>2015-08-29T08:23:12Z</time>
      </trkpt>
      <trkpt lat="34.15202" lon="77.01761">
        <ele>4624.6</ele>
        <time>2015-08-29T08:23:16Z</time>
      </trkpt>
      <trkpt lat="34.15198" lon="77.01772">
        <ele>4624.2</ele>
        <time>2015-08-29T08:23:20Z</time>
      </trkpt>
      <trkpt lat="34.15198" lon="77.01773">
        <ele>4624</ele>
        <time>2015-08-29T08:23:21Z</time>
      </trkpt>
      <trkpt lat="34.15195" lon="77.01776">
        <ele>4623</ele>
        <time>2015-08-29T08:23:28Z</time>
      </trkpt>
      <trkpt lat="34.15193" lon="77.0178">
        <ele>4622</ele>
        <time>2015-08-29T08:23:35Z</time>
      </trkpt>
      <trkpt lat="34.15198" lon="77.01782">
        <ele>4620.8</ele>
        <time>2015-08-29T08:23:42Z</time>
      </trkpt>
      <trkpt lat="34.15195" lon="77.01779">
        <ele>4619.8</ele>
        <time>2015-08-29T08:23:46Z</time>
      </trkpt>
      <trkpt lat="34.15191" lon="77.01776">
        <ele>4618.8</ele>
        <time>2015-08-29T08:23:52Z</time>
      </trkpt>
      <trkpt lat="34.1519" lon="77.01776">
        <ele>4618.6</ele>
        <time>2015-08-29T08:23:53Z</time>
      </trkpt>
      <trkpt lat="34.15189" lon="77.01777">
        <ele>4618.4</ele>
        <time>2015-08-29T08:23:54Z</time>
      </trkpt>
      <trkpt lat="34.15187" lon="77.01774">
        <ele>4617.4</ele>
        <time>2015-08-29T08:24:00Z</time>
      </trkpt>
      <trkpt lat="34.15184" lon="77.01777">
        <ele>4616.4</ele>
        <time>2015-08-29T08:24:05Z</time>
      </trkpt>
      <trkpt lat="34.1518" lon="77.01789">
        <ele>4615.2</ele>
        <time>2015-08-29T08:24:12Z</time>
      </trkpt>
      <trkpt lat="34.15179" lon="77.01791">
        <ele>4615</ele>
        <time>2015-08-29T08:24:14Z</time>
      </trkpt>
      <trkpt lat="34.15177" lon="77.01796">
        <ele>4614.4</ele>
        <time>2015-08-29T08:24:17Z</time>
      </trkpt>
      <trkpt lat="34.15177" lon="77.01797">
        <ele>4614.2</ele>
        <time>2015-08-29T08:24:18Z</time>
      </trkpt>
      <trkpt lat="34.15173" lon="77.01812">
        <ele>4613</ele>
        <time>2015-08-29T08:24:23Z</time>
      </trkpt>
      <trkpt lat="34.15172" lon="77.01813">
        <ele>4612.8</ele>
        <time>2015-08-29T08:24:24Z</time>
      </trkpt>
      <trkpt lat="34.15172" lon="77.01815">
        <ele>4612.6</ele>
        <time>2015-08-29T08:24:26Z</time>
      </trkpt>
      <trkpt lat="34.15168" lon="77.01818">
        <ele>4612</ele>
        <time>2015-08-29T08:24:30Z</time>
      </trkpt>
      <trkpt lat="34.15168" lon="77.01819">
        <ele>4612</ele>
        <time>2015-08-29T08:24:31Z</time>
      </trkpt>
      <trkpt lat="34.15165" lon="77.0182">
        <ele>4611.6</ele>
        <time>2015-08-29T08:24:34Z</time>
      </trkpt>
      <trkpt lat="34.15161" lon="77.01819">
        <ele>4610.8</ele>
        <time>2015-08-29T08:24:38Z</time>
      </trkpt>
      <trkpt lat="34.15159" lon="77.01818">
        <ele>4609.6</ele>
        <time>2015-08-29T08:24:47Z</time>
      </trkpt>
      <trkpt lat="34.15156" lon="77.01818">
        <ele>4608.6</ele>
        <time>2015-08-29T08:24:57Z</time>
      </trkpt>
      <trkpt lat="34.15152" lon="77.01826">
        <ele>4607.8</ele>
        <time>2015-08-29T08:25:01Z</time>
      </trkpt>
      <trkpt lat="34.15151" lon="77.01828">
        <ele>4607.4</ele>
        <time>2015-08-29T08:25:02Z</time>
      </trkpt>
      <trkpt lat="34.15148" lon="77.01831">
        <ele>4606.4</ele>
        <time>2015-08-29T08:25:08Z</time>
      </trkpt>
      <trkpt lat="34.15144" lon="77.01832">
        <ele>4605.4</ele>
        <time>2015-08-29T08:25:15Z</time>
      </trkpt>
      <trkpt lat="34.15139" lon="77.01837">
        <ele>4604.2</ele>
        <time>2015-08-29T08:25:23Z</time>
      </trkpt>
      <trkpt lat="34.15138" lon="77.01837">
        <ele>4604.2</ele>
        <time>2015-08-29T08:25:24Z</time>
      </trkpt>
      <trkpt lat="34.15134" lon="77.01841">
        <ele>4603.2</ele>
        <time>2015-08-29T08:25:30Z</time>
      </trkpt>
      <trkpt lat="34.15131" lon="77.01845">
        <ele>4602.2</ele>
        <time>2015-08-29T08:25:34Z</time>
      </trkpt>
      <trkpt lat="34.1513" lon="77.01846">
        <ele>4602.2</ele>
        <time>2015-08-29T08:25:35Z</time>
      </trkpt>
      <trkpt lat="34.15127" lon="77.01848">
        <ele>4601</ele>
        <time>2015-08-29T08:25:40Z</time>
      </trkpt>
      <trkpt lat="34.15122" lon="77.01855">
        <ele>4600</ele>
        <time>2015-08-29T08:25:47Z</time>
      </trkpt>
      <trkpt lat="34.15118" lon="77.01852">
        <ele>4598.8</ele>
        <time>2015-08-29T08:25:53Z</time>
      </trkpt>
      <trkpt lat="34.15117" lon="77.01852">
        <ele>4598.8</ele>
        <time>2015-08-29T08:25:54Z</time>
      </trkpt>
      <trkpt lat="34.15112" lon="77.01867">
        <ele>4597.8</ele>
        <time>2015-08-29T08:25:58Z</time>
      </trkpt>
      <trkpt lat="34.15111" lon="77.0187">
        <ele>4597.2</ele>
        <time>2015-08-29T08:26:00Z</time>
      </trkpt>
      <trkpt lat="34.1511" lon="77.01872">
        <ele>4596.8</ele>
        <time>2015-08-29T08:26:03Z</time>
      </trkpt>
      <trkpt lat="34.15108" lon="77.01876">
        <ele>4595.6</ele>
        <time>2015-08-29T08:26:09Z</time>
      </trkpt>
      <trkpt lat="34.15106" lon="77.01879">
        <ele>4594.6</ele>
        <time>2015-08-29T08:26:17Z</time>
      </trkpt>
      <trkpt lat="34.15104" lon="77.01878">
        <ele>4593.6</ele>
        <time>2015-08-29T08:26:23Z</time>
      </trkpt>
      <trkpt lat="34.151" lon="77.01877">
        <ele>4592.6</ele>
        <time>2015-08-29T08:26:29Z</time>
      </trkpt>
      <trkpt lat="34.15097" lon="77.0188">
        <ele>4591.6</ele>
        <time>2015-08-29T08:26:33Z</time>
      </trkpt>
      <trkpt lat="34.15096" lon="77.01881">
        <ele>4591</ele>
        <time>2015-08-29T08:26:35Z</time>
      </trkpt>
      <trkpt lat="34.15094" lon="77.01883">
        <ele>4590.4</ele>
        <time>2015-08-29T08:26:38Z</time>
      </trkpt>
      <trkpt lat="34.15091" lon="77.01883">
        <ele>4589.2</ele>
        <time>2015-08-29T08:26:45Z</time>
      </trkpt>
      <trkpt lat="34.15086" lon="77.01898">
        <ele>4588.2</ele>
        <time>2015-08-29T08:26:53Z</time>
      </trkpt>
      <trkpt lat="34.15083" lon="77.01906">
        <ele>4587.2</ele>
        <time>2015-08-29T08:27:02Z</time>
      </trkpt>
      <trkpt lat="34.15083" lon="77.01907">
        <ele>4587</ele>
        <time>2015-08-29T08:27:03Z</time>
      </trkpt>
      <trkpt lat="34.15082" lon="77.01907">
        <ele>4586.8</ele>
        <time>2015-08-29T08:27:04Z</time>
      </trkpt>
      <trkpt lat="34.15084" lon="77.01906">
        <ele>4585.8</ele>
        <time>2015-08-29T08:27:10Z</time>
      </trkpt>
      <trkpt lat="34.1508" lon="77.01909">
        <ele>4584.6</ele>
        <time>2015-08-29T08:27:15Z</time>
      </trkpt>
      <trkpt lat="34.15078" lon="77.01907">
        <ele>4583.4</ele>
        <time>2015-08-29T08:27:19Z</time>
      </trkpt>
      <trkpt lat="34.15071" lon="77.01909">
        <ele>4582.4</ele>
        <time>2015-08-29T08:27:26Z</time>
      </trkpt>
      <trkpt lat="34.15069" lon="77.01909">
        <ele>4582</ele>
        <time>2015-08-29T08:27:29Z</time>
      </trkpt>
      <trkpt lat="34.15066" lon="77.01912">
        <ele>4581.6</ele>
        <time>2015-08-29T08:27:33Z</time>
      </trkpt>
      <trkpt lat="34.15064" lon="77.01913">
        <ele>4581.2</ele>
        <time>2015-08-29T08:27:37Z</time>
      </trkpt>
      <trkpt lat="34.15063" lon="77.01915">
        <ele>4580.8</ele>
        <time>2015-08-29T08:27:39Z</time>
      </trkpt>
      <trkpt lat="34.15062" lon="77.01916">
        <ele>4580</ele>
        <time>2015-08-29T08:27:43Z</time>
      </trkpt>
      <trkpt lat="34.15057" lon="77.01921">
        <ele>4579.2</ele>
        <time>2015-08-29T08:27:51Z</time>
      </trkpt>
      <trkpt lat="34.15055" lon="77.0192">
        <ele>4579</ele>
        <time>2015-08-29T08:27:55Z</time>
      </trkpt>
      <trkpt lat="34.15052" lon="77.01925">
        <ele>4578</ele>
        <time>2015-08-29T08:27:59Z</time>
      </trkpt>
      <trkpt lat="34.15047" lon="77.01928">
        <ele>4576.8</ele>
        <time>2015-08-29T08:28:06Z</time>
      </trkpt>
      <trkpt lat="34.15044" lon="77.01938">
        <ele>4576</ele>
        <time>2015-08-29T08:28:09Z</time>
      </trkpt>
      <trkpt lat="34.15044" lon="77.01938">
        <ele>4575.8</ele>
        <time>2015-08-29T08:28:10Z</time>
      </trkpt>
      <trkpt lat="34.15042" lon="77.01937">
        <ele>4574.6</ele>
        <time>2015-08-29T08:28:15Z</time>
      </trkpt>
      <trkpt lat="34.15037" lon="77.01942">
        <ele>4573.6</ele>
        <time>2015-08-29T08:28:20Z</time>
      </trkpt>
      <trkpt lat="34.15033" lon="77.01948">
        <ele>4572.6</ele>
        <time>2015-08-29T08:28:28Z</time>
      </trkpt>
      <trkpt lat="34.15028" lon="77.01957">
        <ele>4571.4</ele>
        <time>2015-08-29T08:28:35Z</time>
      </trkpt>
      <trkpt lat="34.15024" lon="77.01958">
        <ele>4570.4</ele>
        <time>2015-08-29T08:28:41Z</time>
      </trkpt>
      <trkpt lat="34.15019" lon="77.0197">
        <ele>4569.2</ele>
        <time>2015-08-29T08:28:48Z</time>
      </trkpt>
      <trkpt lat="34.15019" lon="77.0197">
        <ele>4569</ele>
        <time>2015-08-29T08:28:49Z</time>
      </trkpt>
      <trkpt lat="34.15014" lon="77.01971">
        <ele>4568.2</ele>
        <time>2015-08-29T08:29:04Z</time>
      </trkpt>
      <trkpt lat="34.15009" lon="77.0197">
        <ele>4567</ele>
        <time>2015-08-29T08:29:11Z</time>
      </trkpt>
      <trkpt lat="34.15003" lon="77.01971">
        <ele>4566</ele>
        <time>2015-08-29T08:29:22Z</time>
      </trkpt>
      <trkpt lat="34.14999" lon="77.01975">
        <ele>4565.2</ele>
        <time>2015-08-29T08:29:28Z</time>
      </trkpt>
      <trkpt lat="34.14996" lon="77.01979">
        <ele>4565</ele>
        <time>2015-08-29T08:29:31Z</time>
      </trkpt>
      <trkpt lat="34.14995" lon="77.0198">
        <ele>4564.8</ele>
        <time>2015-08-29T08:29:33Z</time>
      </trkpt>
      <trkpt lat="34.14993" lon="77.01982">
        <ele>4564.4</ele>
        <time>2015-08-29T08:29:35Z</time>
      </trkpt>
      <trkpt lat="34.14991" lon="77.01986">
        <ele>4563.8</ele>
        <time>2015-08-29T08:29:39Z</time>
      </trkpt>
      <trkpt lat="34.14991" lon="77.01986">
        <ele>4563.8</ele>
        <time>2015-08-29T08:29:40Z</time>
      </trkpt>
      <trkpt lat="34.14989" lon="77.01988">
        <ele>4563.4</ele>
        <time>2015-08-29T08:29:43Z</time>
      </trkpt>
      <trkpt lat="34.14988" lon="77.01988">
        <ele>4562.8</ele>
        <time>2015-08-29T08:29:46Z</time>
      </trkpt>
      <trkpt lat="34.14984" lon="77.01982">
        <ele>4561.6</ele>
        <time>2015-08-29T08:29:57Z</time>
      </trkpt>
      <trkpt lat="34.1498" lon="77.01988">
        <ele>4560.6</ele>
        <time>2015-08-29T08:30:04Z</time>
      </trkpt>
      <trkpt lat="34.14979" lon="77.01988">
        <ele>4560.4</ele>
        <time>2015-08-29T08:30:05Z</time>
      </trkpt>
      <trkpt lat="34.14976" lon="77.0199">
        <ele>4559.4</ele>
        <time>2015-08-29T08:30:11Z</time>
      </trkpt>
      <trkpt lat="34.14972" lon="77.0199">
        <ele>4558.6</ele>
        <time>2015-08-29T08:30:16Z</time>
      </trkpt>
      <trkpt lat="34.14969" lon="77.01988">
        <ele>4558.4</ele>
        <time>2015-08-29T08:30:19Z</time>
      </trkpt>
      <trkpt lat="34.14961" lon="77.01993">
        <ele>4557.4</ele>
        <time>2015-08-29T08:30:32Z</time>
      </trkpt>
      <trkpt lat="34.14955" lon="77.02006">
        <ele>4556.4</ele>
        <time>2015-08-29T08:30:37Z</time>
      </trkpt>
      <trkpt lat="34.14953" lon="77.0201">
        <ele>4555.8</ele>
        <time>2015-08-29T08:30:39Z</time>
      </trkpt>
      <trkpt lat="34.14951" lon="77.02011">
        <ele>4555.2</ele>
        <time>2015-08-29T08:30:44Z</time>
      </trkpt>
      <trkpt lat="34.14949" lon="77.02012">
        <ele>4553.8</ele>
        <time>2015-08-29T08:30:47Z</time>
      </trkpt>
      <trkpt lat="34.14946" lon="77.02019">
        <ele>4552.8</ele>
        <time>2015-08-29T08:30:51Z</time>
      </trkpt>
      <trkpt lat="34.14945" lon="77.02021">
        <ele>4552</ele>
        <time>2015-08-29T08:30:54Z</time>
      </trkpt>
      <trkpt lat="34.14944" lon="77.02022">
        <ele>4551.8</ele>
        <time>2015-08-29T08:30:55Z</time>
      </trkpt>
      <trkpt lat="34.14944" lon="77.02026">
        <ele>4551</ele>
        <time>2015-08-29T08:30:59Z</time>
      </trkpt>
      <trkpt lat="34.14943" lon="77.02029">
        <ele>4550.6</ele>
        <time>2015-08-29T08:31:01Z</time>
      </trkpt>
      <trkpt lat="34.1494" lon="77.02034">
        <ele>4549.8</ele>
        <time>2015-08-29T08:31:07Z</time>
      </trkpt>
      <trkpt lat="34.1494" lon="77.02036">
        <ele>4549.6</ele>
        <time>2015-08-29T08:31:08Z</time>
      </trkpt>
      <trkpt lat="34.14935" lon="77.02053">
        <ele>4548.4</ele>
        <time>2015-08-29T08:31:16Z</time>
      </trkpt>
      <trkpt lat="34.14936" lon="77.02053">
        <ele>4548</ele>
        <time>2015-08-29T08:31:17Z</time>
      </trkpt>
      <trkpt lat="34.14933" lon="77.02055">
        <ele>4547.4</ele>
        <time>2015-08-29T08:31:21Z</time>
      </trkpt>
      <trkpt lat="34.1493" lon="77.02057">
        <ele>4546.2</ele>
        <time>2015-08-29T08:31:28Z</time>
      </trkpt>
      <trkpt lat="34.14928" lon="77.02063">
        <ele>4545.6</ele>
        <time>2015-08-29T08:31:32Z</time>
      </trkpt>
      <trkpt lat="34.14927" lon="77.02066">
        <ele>4545</ele>
        <time>2015-08-29T08:31:34Z</time>
      </trkpt>
      <trkpt lat="34.14921" lon="77.02075">
        <ele>4543.8</ele>
        <time>2015-08-29T08:31:47Z</time>
      </trkpt>
      <trkpt lat="34.14918" lon="77.02083">
        <ele>4543</ele>
        <time>2015-08-29T08:31:53Z</time>
      </trkpt>
      <trkpt lat="34.14918" lon="77.02084">
        <ele>4542.8</ele>
        <time>2015-08-29T08:31:54Z</time>
      </trkpt>
      <trkpt lat="34.14916" lon="77.02095">
        <ele>4541.8</ele>
        <time>2015-08-29T08:32:04Z</time>
      </trkpt>
      <trkpt lat="34.14915" lon="77.02101">
        <ele>4540.8</ele>
        <time>2015-08-29T08:32:09Z</time>
      </trkpt>
      <trkpt lat="34.14915" lon="77.02102">
        <ele>4540.6</ele>
        <time>2015-08-29T08:32:10Z</time>
      </trkpt>
      <trkpt lat="34.14915" lon="77.02103">
        <ele>4540.6</ele>
        <time>2015-08-29T08:32:11Z</time>
      </trkpt>
      <trkpt lat="34.14914" lon="77.02109">
        <ele>4539.8</ele>
        <time>2015-08-29T08:32:16Z</time>
      </trkpt>
      <trkpt lat="34.14914" lon="77.02117">
        <ele>4539.8</ele>
        <time>2015-08-29T08:32:20Z</time>
      </trkpt>
      <trkpt lat="34.14914" lon="77.02119">
        <ele>4539.6</ele>
        <time>2015-08-29T08:32:21Z</time>
      </trkpt>
      <trkpt lat="34.14915" lon="77.02129">
        <ele>4538.6</ele>
        <time>2015-08-29T08:32:32Z</time>
      </trkpt>
      <trkpt lat="34.14914" lon="77.0214">
        <ele>4537.4</ele>
        <time>2015-08-29T08:32:46Z</time>
      </trkpt>
      <trkpt lat="34.14913" lon="77.02146">
        <ele>4536.4</ele>
        <time>2015-08-29T08:32:53Z</time>
      </trkpt>
      <trkpt lat="34.14915" lon="77.02155">
        <ele>4536</ele>
        <time>2015-08-29T08:33:02Z</time>
      </trkpt>
      <trkpt lat="34.14916" lon="77.0216">
        <ele>4536.2</ele>
        <time>2015-08-29T08:33:06Z</time>
      </trkpt>
      <trkpt lat="34.14919" lon="77.02169">
        <ele>4535.4</ele>
        <time>2015-08-29T08:33:15Z</time>
      </trkpt>
      <trkpt lat="34.14924" lon="77.02177">
        <ele>4534.2</ele>
        <time>2015-08-29T08:33:26Z</time>
      </trkpt>
      <trkpt lat="34.14927" lon="77.02179">
        <ele>4534.2</ele>
        <time>2015-08-29T08:33:27Z</time>
      </trkpt>
      <trkpt lat="34.14926" lon="77.02184">
        <ele>4533.2</ele>
        <time>2015-08-29T08:33:32Z</time>
      </trkpt>
      <trkpt lat="34.14925" lon="77.02189">
        <ele>4533</ele>
        <time>2015-08-29T08:33:36Z</time>
      </trkpt>
      <trkpt lat="34.14926" lon="77.02194">
        <ele>4532.8</ele>
        <time>2015-08-29T08:33:41Z</time>
      </trkpt>
      <trkpt lat="34.14925" lon="77.02197">
        <ele>4532.2</ele>
        <time>2015-08-29T08:33:45Z</time>
      </trkpt>
      <trkpt lat="34.14926" lon="77.02201">
        <ele>4531.2</ele>
        <time>2015-08-29T08:33:51Z</time>
      </trkpt>
      <trkpt lat="34.14926" lon="77.02207">
        <ele>4530</ele>
        <time>2015-08-29T08:33:57Z</time>
      </trkpt>
      <trkpt lat="34.14924" lon="77.02214">
        <ele>4529</ele>
        <time>2015-08-29T08:34:06Z</time>
      </trkpt>
      <trkpt lat="34.14924" lon="77.02215">
        <ele>4528.4</ele>
        <time>2015-08-29T08:34:09Z</time>
      </trkpt>
      <trkpt lat="34.14923" lon="77.0222">
        <ele>4527.8</ele>
        <time>2015-08-29T08:34:15Z</time>
      </trkpt>
      <trkpt lat="34.14919" lon="77.02225">
        <ele>4526.8</ele>
        <time>2015-08-29T08:34:24Z</time>
      </trkpt>
      <trkpt lat="34.14917" lon="77.02233">
        <ele>4525.6</ele>
        <time>2015-08-29T08:34:31Z</time>
      </trkpt>
      <trkpt lat="34.14916" lon="77.02243">
        <ele>4524.6</ele>
        <time>2015-08-29T08:34:40Z</time>
      </trkpt>
      <trkpt lat="34.14914" lon="77.0225">
        <ele>4523.4</ele>
        <time>2015-08-29T08:34:49Z</time>
      </trkpt>
      <trkpt lat="34.14912" lon="77.02253">
        <ele>4522.4</ele>
        <time>2015-08-29T08:34:55Z</time>
      </trkpt>
      <trkpt lat="34.14913" lon="77.02259">
        <ele>4521.2</ele>
        <time>2015-08-29T08:35:01Z</time>
      </trkpt>
      <trkpt lat="34.14912" lon="77.02262">
        <ele>4520</ele>
        <time>2015-08-29T08:35:05Z</time>
      </trkpt>
      <trkpt lat="34.14911" lon="77.02264">
        <ele>4519</ele>
        <time>2015-08-29T08:35:10Z</time>
      </trkpt>
      <trkpt lat="34.14908" lon="77.0227">
        <ele>4517.8</ele>
        <time>2015-08-29T08:35:15Z</time>
      </trkpt>
      <trkpt lat="34.14907" lon="77.02272">
        <ele>4517.4</ele>
        <time>2015-08-29T08:35:17Z</time>
      </trkpt>
      <trkpt lat="34.14906" lon="77.02275">
        <ele>4516.8</ele>
        <time>2015-08-29T08:35:19Z</time>
      </trkpt>
      <trkpt lat="34.14905" lon="77.02278">
        <ele>4516.6</ele>
        <time>2015-08-29T08:35:20Z</time>
      </trkpt>
      <trkpt lat="34.14904" lon="77.02295">
        <ele>4516</ele>
        <time>2015-08-29T08:35:32Z</time>
      </trkpt>
      <trkpt lat="34.14899" lon="77.02299">
        <ele>4516.4</ele>
        <time>2015-08-29T08:35:39Z</time>
      </trkpt>
      <trkpt lat="34.14899" lon="77.02299">
        <ele>4516.4</ele>
        <time>2015-08-29T08:35:41Z</time>
      </trkpt>
      <trkpt lat="34.14897" lon="77.023">
        <ele>4515.6</ele>
        <time>2015-08-29T08:35:46Z</time>
      </trkpt>
      <trkpt lat="34.14892" lon="77.02305">
        <ele>4514.4</ele>
        <time>2015-08-29T08:35:56Z</time>
      </trkpt>
      <trkpt lat="34.14891" lon="77.02309">
        <ele>4514</ele>
        <time>2015-08-29T08:36:00Z</time>
      </trkpt>
      <trkpt lat="34.14889" lon="77.02312">
        <ele>4513.4</ele>
        <time>2015-08-29T08:36:05Z</time>
      </trkpt>
      <trkpt lat="34.14886" lon="77.02315">
        <ele>4512.8</ele>
        <time>2015-08-29T08:36:08Z</time>
      </trkpt>
      <trkpt lat="34.14881" lon="77.02319">
        <ele>4512.4</ele>
        <time>2015-08-29T08:36:16Z</time>
      </trkpt>
      <trkpt lat="34.14879" lon="77.02321">
        <ele>4512.2</ele>
        <time>2015-08-29T08:36:19Z</time>
      </trkpt>
      <trkpt lat="34.14878" lon="77.02327">
        <ele>4511.8</ele>
        <time>2015-08-29T08:36:24Z</time>
      </trkpt>
      <trkpt lat="34.14876" lon="77.02333">
        <ele>4511.2</ele>
        <time>2015-08-29T08:36:27Z</time>
      </trkpt>
      <trkpt lat="34.14875" lon="77.02335">
        <ele>4511.2</ele>
        <time>2015-08-29T08:36:28Z</time>
      </trkpt>
      <trkpt lat="34.14874" lon="77.02351">
        <ele>4510.6</ele>
        <time>2015-08-29T08:36:38Z</time>
      </trkpt>
      <trkpt lat="34.14872" lon="77.02356">
        <ele>4510.2</ele>
        <time>2015-08-29T08:36:45Z</time>
      </trkpt>
      <trkpt lat="34.14871" lon="77.02359">
        <ele>4509.8</ele>
        <time>2015-08-29T08:36:48Z</time>
      </trkpt>
      <trkpt lat="34.1487" lon="77.02361">
        <ele>4509.2</ele>
        <time>2015-08-29T08:36:51Z</time>
      </trkpt>
      <trkpt lat="34.14869" lon="77.02367">
        <ele>4508.2</ele>
        <time>2015-08-29T08:37:05Z</time>
      </trkpt>
      <trkpt lat="34.14872" lon="77.02369">
        <ele>4508.8</ele>
        <time>2015-08-29T08:37:25Z</time>
      </trkpt>
      <trkpt lat="34.14872" lon="77.02369">
        <ele>4508.6</ele>
        <time>2015-08-29T08:37:27Z</time>
      </trkpt>
      <trkpt lat="34.14866" lon="77.02366">
        <ele>4507.8</ele>
        <time>2015-08-29T08:37:42Z</time>
      </trkpt>
      <trkpt lat="34.14863" lon="77.02373">
        <ele>4507.6</ele>
        <time>2015-08-29T08:37:45Z</time>
      </trkpt>
      <trkpt lat="34.14863" lon="77.02374">
        <ele>4507.2</ele>
        <time>2015-08-29T08:37:48Z</time>
      </trkpt>
      <trkpt lat="34.14864" lon="77.02375">
        <ele>4506.8</ele>
        <time>2015-08-29T08:38:22Z</time>
      </trkpt>
      <trkpt lat="34.14878" lon="77.02374">
        <ele>4507.8</ele>
        <time>2015-08-29T08:38:37Z</time>
      </trkpt>
      <trkpt lat="34.14879" lon="77.02375">
        <ele>4507.6</ele>
        <time>2015-08-29T08:38:40Z</time>
      </trkpt>
      <trkpt lat="34.14876" lon="77.02375">
        <ele>4508.2</ele>
        <time>2015-08-29T08:38:55Z</time>
      </trkpt>
      <trkpt lat="34.14873" lon="77.02376">
        <ele>4508.4</ele>
        <time>2015-08-29T08:39:25Z</time>
      </trkpt>
      <trkpt lat="34.14873" lon="77.02377">
        <ele>4508.4</ele>
        <time>2015-08-29T08:39:27Z</time>
      </trkpt>
      <trkpt lat="34.14869" lon="77.02375">
        <ele>4508.4</ele>
        <time>2015-08-29T08:39:41Z</time>
      </trkpt>
      <trkpt lat="34.1487" lon="77.02376">
        <ele>4508.8</ele>
        <time>2015-08-29T08:40:04Z</time>
      </trkpt>
      <trkpt lat="34.14877" lon="77.0236">
        <ele>4507.4</ele>
        <time>2015-08-29T08:40:35Z</time>
      </trkpt>
      <trkpt lat="34.14875" lon="77.02365">
        <ele>4507.2</ele>
        <time>2015-08-29T08:40:41Z</time>
      </trkpt>
      <trkpt lat="34.14867" lon="77.02369">
        <ele>4506.6</ele>
        <time>2015-08-29T08:40:50Z</time>
      </trkpt>
      <trkpt lat="34.14867" lon="77.02373">
        <ele>4506</ele>
        <time>2015-08-29T08:40:54Z</time>
      </trkpt>
      <trkpt lat="34.14866" lon="77.02375">
        <ele>4505</ele>
        <time>2015-08-29T08:41:00Z</time>
      </trkpt>
      <trkpt lat="34.14865" lon="77.02381">
        <ele>4504.6</ele>
        <time>2015-08-29T08:41:31Z</time>
      </trkpt>
      <trkpt lat="34.14865" lon="77.02382">
        <ele>4504.4</ele>
        <time>2015-08-29T08:41:33Z</time>
      </trkpt>
      <trkpt lat="34.14866" lon="77.02384">
        <ele>4504.6</ele>
        <time>2015-08-29T08:41:35Z</time>
      </trkpt>
      <trkpt lat="34.1487" lon="77.02385">
        <ele>4504.8</ele>
        <time>2015-08-29T08:41:38Z</time>
      </trkpt>
      <trkpt lat="34.14868" lon="77.02392">
        <ele>4505.8</ele>
        <time>2015-08-29T08:42:05Z</time>
      </trkpt>
      <trkpt lat="34.14868" lon="77.02393">
        <ele>4505.8</ele>
        <time>2015-08-29T08:42:07Z</time>
      </trkpt>
      <trkpt lat="34.14869" lon="77.02402">
        <ele>4504.4</ele>
        <time>2015-08-29T08:42:22Z</time>
      </trkpt>
      <trkpt lat="34.14871" lon="77.02399">
        <ele>4504</ele>
        <time>2015-08-29T08:42:24Z</time>
      </trkpt>
      <trkpt lat="34.1487" lon="77.02398">
        <ele>4503.8</ele>
        <time>2015-08-29T08:42:25Z</time>
      </trkpt>
      <trkpt lat="34.14863" lon="77.02392">
        <ele>4505.2</ele>
        <time>2015-08-29T08:42:44Z</time>
      </trkpt>
      <trkpt lat="34.14864" lon="77.02388">
        <ele>4504</ele>
        <time>2015-08-29T08:42:51Z</time>
      </trkpt>
      <trkpt lat="34.14869" lon="77.02387">
        <ele>4502.8</ele>
        <time>2015-08-29T08:42:56Z</time>
      </trkpt>
      <trkpt lat="34.14858" lon="77.02389">
        <ele>4503.2</ele>
        <time>2015-08-29T08:43:06Z</time>
      </trkpt>
      <trkpt lat="34.1486" lon="77.02393">
        <ele>4503.6</ele>
        <time>2015-08-29T08:43:13Z</time>
      </trkpt>
      <trkpt lat="34.1487" lon="77.02386">
        <ele>4503.4</ele>
        <time>2015-08-29T08:43:19Z</time>
      </trkpt>
      <trkpt lat="34.14872" lon="77.02384">
        <ele>4503.2</ele>
        <time>2015-08-29T08:43:22Z</time>
      </trkpt>
      <trkpt lat="34.14872" lon="77.02379">
        <ele>4503.2</ele>
        <time>2015-08-29T08:43:26Z</time>
      </trkpt>
      <trkpt lat="34.1487" lon="77.02381">
        <ele>4502.8</ele>
        <time>2015-08-29T08:43:28Z</time>
      </trkpt>
      <trkpt lat="34.14868" lon="77.0238">
        <ele>4501.8</ele>
        <time>2015-08-29T08:43:32Z</time>
      </trkpt>
      <trkpt lat="34.14865" lon="77.0238">
        <ele>4500.6</ele>
        <time>2015-08-29T08:43:39Z</time>
      </trkpt>
      <trkpt lat="34.14862" lon="77.02383">
        <ele>4499.6</ele>
        <time>2015-08-29T08:43:46Z</time>
      </trkpt>
      <trkpt lat="34.1486" lon="77.02384">
        <ele>4499.4</ele>
        <time>2015-08-29T08:43:48Z</time>
      </trkpt>
      <trkpt lat="34.14855" lon="77.0239">
        <ele>4498.6</ele>
        <time>2015-08-29T08:43:57Z</time>
      </trkpt>
      <trkpt lat="34.14851" lon="77.02397">
        <ele>4497.6</ele>
        <time>2015-08-29T08:44:04Z</time>
      </trkpt>
      <trkpt lat="34.14849" lon="77.02401">
        <ele>4496.4</ele>
        <time>2015-08-29T08:44:09Z</time>
      </trkpt>
      <trkpt lat="34.14846" lon="77.02406">
        <ele>4495.6</ele>
        <time>2015-08-29T08:44:14Z</time>
      </trkpt>
      <trkpt lat="34.14845" lon="77.02408">
        <ele>4495.4</ele>
        <time>2015-08-29T08:44:16Z</time>
      </trkpt>
      <trkpt lat="34.14844" lon="77.02413">
        <ele>4494.4</ele>
        <time>2015-08-29T08:44:24Z</time>
      </trkpt>
      <trkpt lat="34.14841" lon="77.02422">
        <ele>4493.2</ele>
        <time>2015-08-29T08:44:31Z</time>
      </trkpt>
      <trkpt lat="34.1484" lon="77.02428">
        <ele>4492.2</ele>
        <time>2015-08-29T08:44:37Z</time>
      </trkpt>
      <trkpt lat="34.14838" lon="77.02434">
        <ele>4491.8</ele>
        <time>2015-08-29T08:44:39Z</time>
      </trkpt>
      <trkpt lat="34.14836" lon="77.02442">
        <ele>4491</ele>
        <time>2015-08-29T08:44:44Z</time>
      </trkpt>
      <trkpt lat="34.14833" lon="77.02451">
        <ele>4490</ele>
        <time>2015-08-29T08:44:52Z</time>
      </trkpt>
      <trkpt lat="34.1483" lon="77.02458">
        <ele>4488.8</ele>
        <time>2015-08-29T08:44:59Z</time>
      </trkpt>
      <trkpt lat="34.14829" lon="77.02459">
        <ele>4488.6</ele>
        <time>2015-08-29T08:45:00Z</time>
      </trkpt>
      <trkpt lat="34.14825" lon="77.02462">
        <ele>4487.8</ele>
        <time>2015-08-29T08:45:05Z</time>
      </trkpt>
      <trkpt lat="34.14821" lon="77.02464">
        <ele>4487</ele>
        <time>2015-08-29T08:45:11Z</time>
      </trkpt>
      <trkpt lat="34.14821" lon="77.02465">
        <ele>4486.6</ele>
        <time>2015-08-29T08:45:12Z</time>
      </trkpt>
      <trkpt lat="34.14819" lon="77.02471">
        <ele>4485.4</ele>
        <time>2015-08-29T08:45:17Z</time>
      </trkpt>
      <trkpt lat="34.14818" lon="77.02477">
        <ele>4485</ele>
        <time>2015-08-29T08:45:21Z</time>
      </trkpt>
      <trkpt lat="34.14817" lon="77.0248">
        <ele>4484.2</ele>
        <time>2015-08-29T08:45:24Z</time>
      </trkpt>
      <trkpt lat="34.14816" lon="77.02482">
        <ele>4483</ele>
        <time>2015-08-29T08:45:29Z</time>
      </trkpt>
      <trkpt lat="34.14812" lon="77.02487">
        <ele>4482</ele>
        <time>2015-08-29T08:45:35Z</time>
      </trkpt>
      <trkpt lat="34.14812" lon="77.02489">
        <ele>4481.8</ele>
        <time>2015-08-29T08:45:36Z</time>
      </trkpt>
      <trkpt lat="34.14804" lon="77.02496">
        <ele>4482</ele>
        <time>2015-08-29T08:45:44Z</time>
      </trkpt>
      <trkpt lat="34.14802" lon="77.02501">
        <ele>4480.8</ele>
        <time>2015-08-29T08:45:49Z</time>
      </trkpt>
      <trkpt lat="34.14802" lon="77.02503">
        <ele>4479.8</ele>
        <time>2015-08-29T08:45:52Z</time>
      </trkpt>
      <trkpt lat="34.14799" lon="77.02508">
        <ele>4478.8</ele>
        <time>2015-08-29T08:45:57Z</time>
      </trkpt>
      <trkpt lat="34.14799" lon="77.02509">
        <ele>4478.8</ele>
        <time>2015-08-29T08:45:58Z</time>
      </trkpt>
      <trkpt lat="34.14797" lon="77.02512">
        <ele>4478</ele>
        <time>2015-08-29T08:46:01Z</time>
      </trkpt>
      <trkpt lat="34.14796" lon="77.02513">
        <ele>4477.6</ele>
        <time>2015-08-29T08:46:02Z</time>
      </trkpt>
      <trkpt lat="34.14794" lon="77.02519">
        <ele>4476.6</ele>
        <time>2015-08-29T08:46:08Z</time>
      </trkpt>
      <trkpt lat="34.14791" lon="77.0253">
        <ele>4475.4</ele>
        <time>2015-08-29T08:46:16Z</time>
      </trkpt>
      <trkpt lat="34.14791" lon="77.02531">
        <ele>4475.2</ele>
        <time>2015-08-29T08:46:17Z</time>
      </trkpt>
      <trkpt lat="34.14789" lon="77.02534">
        <ele>4474.4</ele>
        <time>2015-08-29T08:46:21Z</time>
      </trkpt>
      <trkpt lat="34.14789" lon="77.02535">
        <ele>4474.2</ele>
        <time>2015-08-29T08:46:22Z</time>
      </trkpt>
      <trkpt lat="34.14787" lon="77.02538">
        <ele>4473.6</ele>
        <time>2015-08-29T08:46:25Z</time>
      </trkpt>
      <trkpt lat="34.14786" lon="77.0254">
        <ele>4473.4</ele>
        <time>2015-08-29T08:46:27Z</time>
      </trkpt>
      <trkpt lat="34.14785" lon="77.02541">
        <ele>4473.2</ele>
        <time>2015-08-29T08:46:28Z</time>
      </trkpt>
      <trkpt lat="34.14782" lon="77.02544">
        <ele>4472.6</ele>
        <time>2015-08-29T08:46:32Z</time>
      </trkpt>
      <trkpt lat="34.1478" lon="77.02548">
        <ele>4472.2</ele>
        <time>2015-08-29T08:46:35Z</time>
      </trkpt>
      <trkpt lat="34.14773" lon="77.02557">
        <ele>4471.2</ele>
        <time>2015-08-29T08:46:45Z</time>
      </trkpt>
      <trkpt lat="34.1477" lon="77.02556">
        <ele>4470.2</ele>
        <time>2015-08-29T08:46:53Z</time>
      </trkpt>
      <trkpt lat="34.14767" lon="77.02562">
        <ele>4469</ele>
        <time>2015-08-29T08:47:00Z</time>
      </trkpt>
      <trkpt lat="34.14768" lon="77.02571">
        <ele>4468</ele>
        <time>2015-08-29T08:47:06Z</time>
      </trkpt>
      <trkpt lat="34.14767" lon="77.02573">
        <ele>4467.6</ele>
        <time>2015-08-29T08:47:08Z</time>
      </trkpt>
      <trkpt lat="34.14766" lon="77.02576">
        <ele>4467</ele>
        <time>2015-08-29T08:47:12Z</time>
      </trkpt>
      <trkpt lat="34.14765" lon="77.0258">
        <ele>4466.4</ele>
        <time>2015-08-29T08:47:16Z</time>
      </trkpt>
      <trkpt lat="34.14762" lon="77.02583">
        <ele>4465.8</ele>
        <time>2015-08-29T08:47:21Z</time>
      </trkpt>
      <trkpt lat="34.14758" lon="77.0259">
        <ele>4465</ele>
        <time>2015-08-29T08:47:28Z</time>
      </trkpt>
      <trkpt lat="34.14758" lon="77.02591">
        <ele>4464.8</ele>
        <time>2015-08-29T08:47:29Z</time>
      </trkpt>
      <trkpt lat="34.14757" lon="77.02592">
        <ele>4464.6</ele>
        <time>2015-08-29T08:47:30Z</time>
      </trkpt>
      <trkpt lat="34.14755" lon="77.02595">
        <ele>4463.8</ele>
        <time>2015-08-29T08:47:33Z</time>
      </trkpt>
      <trkpt lat="34.14751" lon="77.02598">
        <ele>4462.8</ele>
        <time>2015-08-29T08:47:38Z</time>
      </trkpt>
      <trkpt lat="34.14751" lon="77.02599">
        <ele>4462.4</ele>
        <time>2015-08-29T08:47:39Z</time>
      </trkpt>
      <trkpt lat="34.1475" lon="77.026">
        <ele>4461.6</ele>
        <time>2015-08-29T08:47:42Z</time>
      </trkpt>
      <trkpt lat="34.14749" lon="77.02603">
        <ele>4460.4</ele>
        <time>2015-08-29T08:47:46Z</time>
      </trkpt>
      <trkpt lat="34.14749" lon="77.02609">
        <ele>4459.4</ele>
        <time>2015-08-29T08:47:50Z</time>
      </trkpt>
      <trkpt lat="34.14748" lon="77.02616">
        <ele>4458.2</ele>
        <time>2015-08-29T08:47:55Z</time>
      </trkpt>
      <trkpt lat="34.14748" lon="77.0262">
        <ele>4457</ele>
        <time>2015-08-29T08:48:02Z</time>
      </trkpt>
      <trkpt lat="34.14748" lon="77.02624">
        <ele>4456</ele>
        <time>2015-08-29T08:48:06Z</time>
      </trkpt>
      <trkpt lat="34.14746" lon="77.02631">
        <ele>4455.2</ele>
        <time>2015-08-29T08:48:11Z</time>
      </trkpt>
      <trkpt lat="34.14746" lon="77.02632">
        <ele>4455</ele>
        <time>2015-08-29T08:48:12Z</time>
      </trkpt>
      <trkpt lat="34.14746" lon="77.02633">
        <ele>4454.8</ele>
        <time>2015-08-29T08:48:13Z</time>
      </trkpt>
      <trkpt lat="34.14745" lon="77.0264">
        <ele>4454</ele>
        <time>2015-08-29T08:48:17Z</time>
      </trkpt>
      <trkpt lat="34.14745" lon="77.02641">
        <ele>4454</ele>
        <time>2015-08-29T08:48:18Z</time>
      </trkpt>
      <trkpt lat="34.14745" lon="77.02647">
        <ele>4453.2</ele>
        <time>2015-08-29T08:48:23Z</time>
      </trkpt>
      <trkpt lat="34.14745" lon="77.02649">
        <ele>4452.8</ele>
        <time>2015-08-29T08:48:25Z</time>
      </trkpt>
      <trkpt lat="34.14745" lon="77.0265">
        <ele>4452.8</ele>
        <time>2015-08-29T08:48:26Z</time>
      </trkpt>
      <trkpt lat="34.14745" lon="77.02652">
        <ele>4452.4</ele>
        <time>2015-08-29T08:48:28Z</time>
      </trkpt>
      <trkpt lat="34.14744" lon="77.02656">
        <ele>4452.4</ele>
        <time>2015-08-29T08:48:32Z</time>
      </trkpt>
      <trkpt lat="34.14742" lon="77.02658">
        <ele>4452.4</ele>
        <time>2015-08-29T08:48:35Z</time>
      </trkpt>
      <trkpt lat="34.14741" lon="77.02659">
        <ele>4452.4</ele>
        <time>2015-08-29T08:48:36Z</time>
      </trkpt>
      <trkpt lat="34.1474" lon="77.02661">
        <ele>4452.4</ele>
        <time>2015-08-29T08:48:39Z</time>
      </trkpt>
      <trkpt lat="34.1474" lon="77.02666">
        <ele>4451.8</ele>
        <time>2015-08-29T08:48:46Z</time>
      </trkpt>
      <trkpt lat="34.14737" lon="77.0267">
        <ele>4450.8</ele>
        <time>2015-08-29T08:48:53Z</time>
      </trkpt>
      <trkpt lat="34.14736" lon="77.02675">
        <ele>4449.6</ele>
        <time>2015-08-29T08:48:59Z</time>
      </trkpt>
      <trkpt lat="34.14737" lon="77.02683">
        <ele>4448.4</ele>
        <time>2015-08-29T08:49:06Z</time>
      </trkpt>
      <trkpt lat="34.14735" lon="77.02687">
        <ele>4448</ele>
        <time>2015-08-29T08:49:09Z</time>
      </trkpt>
      <trkpt lat="34.14734" lon="77.02691">
        <ele>4447.4</ele>
        <time>2015-08-29T08:49:13Z</time>
      </trkpt>
      <trkpt lat="34.14733" lon="77.02698">
        <ele>4446.4</ele>
        <time>2015-08-29T08:49:18Z</time>
      </trkpt>
      <trkpt lat="34.14732" lon="77.02699">
        <ele>4446</ele>
        <time>2015-08-29T08:49:20Z</time>
      </trkpt>
      <trkpt lat="34.1473" lon="77.02702">
        <ele>4445.4</ele>
        <time>2015-08-29T08:49:23Z</time>
      </trkpt>
      <trkpt lat="34.14729" lon="77.02702">
        <ele>4445.2</ele>
        <time>2015-08-29T08:49:24Z</time>
      </trkpt>
      <trkpt lat="34.14728" lon="77.02706">
        <ele>4444.4</ele>
        <time>2015-08-29T08:49:29Z</time>
      </trkpt>
      <trkpt lat="34.14727" lon="77.02706">
        <ele>4444.2</ele>
        <time>2015-08-29T08:49:30Z</time>
      </trkpt>
      <trkpt lat="34.14726" lon="77.02709">
        <ele>4443.2</ele>
        <time>2015-08-29T08:49:36Z</time>
      </trkpt>
      <trkpt lat="34.14725" lon="77.02709">
        <ele>4443</ele>
        <time>2015-08-29T08:49:37Z</time>
      </trkpt>
      <trkpt lat="34.14726" lon="77.02715">
        <ele>4442.4</ele>
        <time>2015-08-29T08:49:41Z</time>
      </trkpt>
      <trkpt lat="34.14725" lon="77.02718">
        <ele>4442</ele>
        <time>2015-08-29T08:49:44Z</time>
      </trkpt>
      <trkpt lat="34.14722" lon="77.02722">
        <ele>4441.4</ele>
        <time>2015-08-29T08:49:47Z</time>
      </trkpt>
      <trkpt lat="34.1472" lon="77.02726">
        <ele>4440.8</ele>
        <time>2015-08-29T08:49:49Z</time>
      </trkpt>
      <trkpt lat="34.14717" lon="77.02736">
        <ele>4439.8</ele>
        <time>2015-08-29T08:49:54Z</time>
      </trkpt>
      <trkpt lat="34.14717" lon="77.02739">
        <ele>4438.6</ele>
        <time>2015-08-29T08:49:59Z</time>
      </trkpt>
      <trkpt lat="34.14717" lon="77.02743">
        <ele>4438</ele>
        <time>2015-08-29T08:50:02Z</time>
      </trkpt>
      <trkpt lat="34.14717" lon="77.02747">
        <ele>4437.6</ele>
        <time>2015-08-29T08:50:06Z</time>
      </trkpt>
      <trkpt lat="34.14718" lon="77.02752">
        <ele>4436.8</ele>
        <time>2015-08-29T08:50:10Z</time>
      </trkpt>
      <trkpt lat="34.14717" lon="77.02755">
        <ele>4436.2</ele>
        <time>2015-08-29T08:50:12Z</time>
      </trkpt>
      <trkpt lat="34.14716" lon="77.02758">
        <ele>4435.6</ele>
        <time>2015-08-29T08:50:15Z</time>
      </trkpt>
      <trkpt lat="34.14716" lon="77.02761">
        <ele>4435.4</ele>
        <time>2015-08-29T08:50:17Z</time>
      </trkpt>
      <trkpt lat="34.14716" lon="77.02764">
        <ele>4435.2</ele>
        <time>2015-08-29T08:50:20Z</time>
      </trkpt>
      <trkpt lat="34.14713" lon="77.02768">
        <ele>4435</ele>
        <time>2015-08-29T08:50:25Z</time>
      </trkpt>
      <trkpt lat="34.1471" lon="77.02771">
        <ele>4434</ele>
        <time>2015-08-29T08:50:31Z</time>
      </trkpt>
      <trkpt lat="34.1471" lon="77.02783">
        <ele>4433</ele>
        <time>2015-08-29T08:50:37Z</time>
      </trkpt>
      <trkpt lat="34.1471" lon="77.02787">
        <ele>4432.4</ele>
        <time>2015-08-29T08:50:40Z</time>
      </trkpt>
      <trkpt lat="34.1471" lon="77.0279">
        <ele>4432</ele>
        <time>2015-08-29T08:50:42Z</time>
      </trkpt>
      <trkpt lat="34.1471" lon="77.02797">
        <ele>4430.8</ele>
        <time>2015-08-29T08:50:49Z</time>
      </trkpt>
      <trkpt lat="34.14708" lon="77.028">
        <ele>4430.4</ele>
        <time>2015-08-29T08:50:51Z</time>
      </trkpt>
      <trkpt lat="34.14708" lon="77.02808">
        <ele>4429.6</ele>
        <time>2015-08-29T08:50:57Z</time>
      </trkpt>
      <trkpt lat="34.14707" lon="77.02815">
        <ele>4428.6</ele>
        <time>2015-08-29T08:51:05Z</time>
      </trkpt>
      <trkpt lat="34.14705" lon="77.02822">
        <ele>4427.4</ele>
        <time>2015-08-29T08:51:10Z</time>
      </trkpt>
      <trkpt lat="34.14705" lon="77.02823">
        <ele>4427.4</ele>
        <time>2015-08-29T08:51:11Z</time>
      </trkpt>
      <trkpt lat="34.14702" lon="77.02839">
        <ele>4426.4</ele>
        <time>2015-08-29T08:51:24Z</time>
      </trkpt>
      <trkpt lat="34.14704" lon="77.02844">
        <ele>4425.4</ele>
        <time>2015-08-29T08:51:29Z</time>
      </trkpt>
      <trkpt lat="34.14704" lon="77.02845">
        <ele>4425</ele>
        <time>2015-08-29T08:51:30Z</time>
      </trkpt>
      <trkpt lat="34.14701" lon="77.02851">
        <ele>4424.2</ele>
        <time>2015-08-29T08:51:36Z</time>
      </trkpt>
      <trkpt lat="34.14699" lon="77.02861">
        <ele>4423.2</ele>
        <time>2015-08-29T08:51:43Z</time>
      </trkpt>
      <trkpt lat="34.14698" lon="77.0287">
        <ele>4421.8</ele>
        <time>2015-08-29T08:51:52Z</time>
      </trkpt>
      <trkpt lat="34.14698" lon="77.02877">
        <ele>4420.6</ele>
        <time>2015-08-29T08:51:59Z</time>
      </trkpt>
      <trkpt lat="34.14695" lon="77.0288">
        <ele>4419.6</ele>
        <time>2015-08-29T08:52:08Z</time>
      </trkpt>
      <trkpt lat="34.14694" lon="77.02888">
        <ele>4419</ele>
        <time>2015-08-29T08:52:14Z</time>
      </trkpt>
      <trkpt lat="34.14693" lon="77.02892">
        <ele>4418.6</ele>
        <time>2015-08-29T08:52:16Z</time>
      </trkpt>
      <trkpt lat="34.14687" lon="77.02901">
        <ele>4417.6</ele>
        <time>2015-08-29T08:52:25Z</time>
      </trkpt>
      <trkpt lat="34.14685" lon="77.0291">
        <ele>4416.4</ele>
        <time>2015-08-29T08:52:31Z</time>
      </trkpt>
      <trkpt lat="34.14678" lon="77.02919">
        <ele>4415.4</ele>
        <time>2015-08-29T08:52:38Z</time>
      </trkpt>
      <trkpt lat="34.14676" lon="77.02926">
        <ele>4414.6</ele>
        <time>2015-08-29T08:52:45Z</time>
      </trkpt>
      <trkpt lat="34.14675" lon="77.0293">
        <ele>4414.4</ele>
        <time>2015-08-29T08:52:51Z</time>
      </trkpt>
      <trkpt lat="34.14671" lon="77.02936">
        <ele>4413.4</ele>
        <time>2015-08-29T08:52:59Z</time>
      </trkpt>
      <trkpt lat="34.14667" lon="77.02942">
        <ele>4412.2</ele>
        <time>2015-08-29T08:53:06Z</time>
      </trkpt>
      <trkpt lat="34.14665" lon="77.0295">
        <ele>4411.2</ele>
        <time>2015-08-29T08:53:11Z</time>
      </trkpt>
      <trkpt lat="34.14664" lon="77.0296">
        <ele>4410</ele>
        <time>2015-08-29T08:53:20Z</time>
      </trkpt>
      <trkpt lat="34.14665" lon="77.02967">
        <ele>4408.8</ele>
        <time>2015-08-29T08:53:26Z</time>
      </trkpt>
      <trkpt lat="34.14663" lon="77.02974">
        <ele>4407.6</ele>
        <time>2015-08-29T08:53:33Z</time>
      </trkpt>
      <trkpt lat="34.14667" lon="77.02981">
        <ele>4406.6</ele>
        <time>2015-08-29T08:53:39Z</time>
      </trkpt>
      <trkpt lat="34.14664" lon="77.02983">
        <ele>4406.4</ele>
        <time>2015-08-29T08:53:41Z</time>
      </trkpt>
      <trkpt lat="34.1466" lon="77.02985">
        <ele>4405.8</ele>
        <time>2015-08-29T08:53:44Z</time>
      </trkpt>
      <trkpt lat="34.14659" lon="77.02986">
        <ele>4405.6</ele>
        <time>2015-08-29T08:53:46Z</time>
      </trkpt>
      <trkpt lat="34.14651" lon="77.03">
        <ele>4404.4</ele>
        <time>2015-08-29T08:53:56Z</time>
      </trkpt>
      <trkpt lat="34.14646" lon="77.03007">
        <ele>4403.4</ele>
        <time>2015-08-29T08:54:02Z</time>
      </trkpt>
      <trkpt lat="34.14643" lon="77.03025">
        <ele>4402.4</ele>
        <time>2015-08-29T08:54:12Z</time>
      </trkpt>
      <trkpt lat="34.14642" lon="77.03025">
        <ele>4402.2</ele>
        <time>2015-08-29T08:54:13Z</time>
      </trkpt>
      <trkpt lat="34.14641" lon="77.03027">
        <ele>4402</ele>
        <time>2015-08-29T08:54:16Z</time>
      </trkpt>
      <trkpt lat="34.14638" lon="77.03032">
        <ele>4401.2</ele>
        <time>2015-08-29T08:54:20Z</time>
      </trkpt>
      <trkpt lat="34.14637" lon="77.0304">
        <ele>4400</ele>
        <time>2015-08-29T08:54:26Z</time>
      </trkpt>
      <trkpt lat="34.14636" lon="77.03045">
        <ele>4398.8</ele>
        <time>2015-08-29T08:54:31Z</time>
      </trkpt>
      <trkpt lat="34.14632" lon="77.03054">
        <ele>4397.8</ele>
        <time>2015-08-29T08:54:43Z</time>
      </trkpt>
      <trkpt lat="34.1462" lon="77.03073">
        <ele>4396.4</ele>
        <time>2015-08-29T08:55:03Z</time>
      </trkpt>
      <trkpt lat="34.14617" lon="77.03075">
        <ele>4395.6</ele>
        <time>2015-08-29T08:55:07Z</time>
      </trkpt>
      <trkpt lat="34.14616" lon="77.03078">
        <ele>4395.2</ele>
        <time>2015-08-29T08:55:10Z</time>
      </trkpt>
      <trkpt lat="34.14615" lon="77.0308">
        <ele>4394.4</ele>
        <time>2015-08-29T08:55:14Z</time>
      </trkpt>
      <trkpt lat="34.14614" lon="77.03084">
        <ele>4394.2</ele>
        <time>2015-08-29T08:55:17Z</time>
      </trkpt>
      <trkpt lat="34.14613" lon="77.03091">
        <ele>4393.2</ele>
        <time>2015-08-29T08:55:26Z</time>
      </trkpt>
      <trkpt lat="34.14613" lon="77.03092">
        <ele>4393</ele>
        <time>2015-08-29T08:55:27Z</time>
      </trkpt>
      <trkpt lat="34.1461" lon="77.031">
        <ele>4392</ele>
        <time>2015-08-29T08:55:35Z</time>
      </trkpt>
      <trkpt lat="34.14607" lon="77.03109">
        <ele>4390.8</ele>
        <time>2015-08-29T08:55:44Z</time>
      </trkpt>
      <trkpt lat="34.14606" lon="77.0311">
        <ele>4390.6</ele>
        <time>2015-08-29T08:55:46Z</time>
      </trkpt>
      <trkpt lat="34.14604" lon="77.03114">
        <ele>4390.2</ele>
        <time>2015-08-29T08:55:49Z</time>
      </trkpt>
      <trkpt lat="34.14601" lon="77.03117">
        <ele>4389.8</ele>
        <time>2015-08-29T08:55:53Z</time>
      </trkpt>
      <trkpt lat="34.14599" lon="77.03119">
        <ele>4389.6</ele>
        <time>2015-08-29T08:55:55Z</time>
      </trkpt>
      <trkpt lat="34.14588" lon="77.03134">
        <ele>4388.8</ele>
        <time>2015-08-29T08:56:11Z</time>
      </trkpt>
      <trkpt lat="34.14588" lon="77.03135">
        <ele>4388.6</ele>
        <time>2015-08-29T08:56:12Z</time>
      </trkpt>
      <trkpt lat="34.14579" lon="77.03138">
        <ele>4387.6</ele>
        <time>2015-08-29T08:56:21Z</time>
      </trkpt>
      <trkpt lat="34.14578" lon="77.03139">
        <ele>4387.4</ele>
        <time>2015-08-29T08:56:23Z</time>
      </trkpt>
      <trkpt lat="34.14576" lon="77.03139">
        <ele>4387.2</ele>
        <time>2015-08-29T08:56:25Z</time>
      </trkpt>
      <trkpt lat="34.14573" lon="77.03143">
        <ele>4386.4</ele>
        <time>2015-08-29T08:56:29Z</time>
      </trkpt>
      <trkpt lat="34.14571" lon="77.0315">
        <ele>4386</ele>
        <time>2015-08-29T08:56:33Z</time>
      </trkpt>
      <trkpt lat="34.14564" lon="77.03162">
        <ele>4385.4</ele>
        <time>2015-08-29T08:56:42Z</time>
      </trkpt>
      <trkpt lat="34.14563" lon="77.03163">
        <ele>4385.2</ele>
        <time>2015-08-29T08:56:44Z</time>
      </trkpt>
      <trkpt lat="34.14561" lon="77.03166">
        <ele>4385</ele>
        <time>2015-08-29T08:56:46Z</time>
      </trkpt>
      <trkpt lat="34.14558" lon="77.03168">
        <ele>4384.6</ele>
        <time>2015-08-29T08:56:50Z</time>
      </trkpt>
      <trkpt lat="34.14557" lon="77.03168">
        <ele>4384.4</ele>
        <time>2015-08-29T08:56:52Z</time>
      </trkpt>
      <trkpt lat="34.14556" lon="77.03168">
        <ele>4384.2</ele>
        <time>2015-08-29T08:56:53Z</time>
      </trkpt>
      <trkpt lat="34.14546" lon="77.0317">
        <ele>4383</ele>
        <time>2015-08-29T08:57:01Z</time>
      </trkpt>
      <trkpt lat="34.14544" lon="77.03173">
        <ele>4382.8</ele>
        <time>2015-08-29T08:57:03Z</time>
      </trkpt>
      <trkpt lat="34.14538" lon="77.03175">
        <ele>4381.8</ele>
        <time>2015-08-29T08:57:09Z</time>
      </trkpt>
      <trkpt lat="34.14533" lon="77.03179">
        <ele>4380.8</ele>
        <time>2015-08-29T08:57:15Z</time>
      </trkpt>
      <trkpt lat="34.14531" lon="77.03184">
        <ele>4379.6</ele>
        <time>2015-08-29T08:57:20Z</time>
      </trkpt>
      <trkpt lat="34.14528" lon="77.03186">
        <ele>4378.6</ele>
        <time>2015-08-29T08:57:24Z</time>
      </trkpt>
      <trkpt lat="34.14526" lon="77.03188">
        <ele>4377.6</ele>
        <time>2015-08-29T08:57:29Z</time>
      </trkpt>
      <trkpt lat="34.14522" lon="77.0319">
        <ele>4376.4</ele>
        <time>2015-08-29T08:57:34Z</time>
      </trkpt>
      <trkpt lat="34.14511" lon="77.03192">
        <ele>4375.2</ele>
        <time>2015-08-29T08:57:45Z</time>
      </trkpt>
      <trkpt lat="34.14507" lon="77.03194">
        <ele>4374.2</ele>
        <time>2015-08-29T08:57:54Z</time>
      </trkpt>
      <trkpt lat="34.14506" lon="77.03201">
        <ele>4373.6</ele>
        <time>2015-08-29T08:57:57Z</time>
      </trkpt>
      <trkpt lat="34.14506" lon="77.03206">
        <ele>4373</ele>
        <time>2015-08-29T08:58:02Z</time>
      </trkpt>
      <trkpt lat="34.14504" lon="77.03209">
        <ele>4372</ele>
        <time>2015-08-29T08:58:10Z</time>
      </trkpt>
      <trkpt lat="34.14497" lon="77.03218">
        <ele>4372</ele>
        <time>2015-08-29T08:58:24Z</time>
      </trkpt>
      <trkpt lat="34.14494" lon="77.03228">
        <ele>4371.6</ele>
        <time>2015-08-29T08:58:33Z</time>
      </trkpt>
      <trkpt lat="34.14493" lon="77.03229">
        <ele>4371.6</ele>
        <time>2015-08-29T08:58:35Z</time>
      </trkpt>
      <trkpt lat="34.14492" lon="77.03232">
        <ele>4371.4</ele>
        <time>2015-08-29T08:58:38Z</time>
      </trkpt>
      <trkpt lat="34.14489" lon="77.03235">
        <ele>4371</ele>
        <time>2015-08-29T08:58:47Z</time>
      </trkpt>
      <trkpt lat="34.14489" lon="77.03236">
        <ele>4370.8</ele>
        <time>2015-08-29T08:58:48Z</time>
      </trkpt>
      <trkpt lat="34.14491" lon="77.0324">
        <ele>4369.8</ele>
        <time>2015-08-29T08:58:53Z</time>
      </trkpt>
      <trkpt lat="34.14491" lon="77.03242">
        <ele>4370</ele>
        <time>2015-08-29T08:58:56Z</time>
      </trkpt>
      <trkpt lat="34.14491" lon="77.03242">
        <ele>4370.2</ele>
        <time>2015-08-29T08:58:58Z</time>
      </trkpt>
      <trkpt lat="34.1449" lon="77.03257">
        <ele>4369.4</ele>
        <time>2015-08-29T08:59:13Z</time>
      </trkpt>
      <trkpt lat="34.14486" lon="77.0326">
        <ele>4368.8</ele>
        <time>2015-08-29T08:59:18Z</time>
      </trkpt>
      <trkpt lat="34.14484" lon="77.03262">
        <ele>4368.6</ele>
        <time>2015-08-29T08:59:20Z</time>
      </trkpt>
      <trkpt lat="34.14478" lon="77.03268">
        <ele>4369</ele>
        <time>2015-08-29T08:59:31Z</time>
      </trkpt>
      <trkpt lat="34.14476" lon="77.0327">
        <ele>4368.8</ele>
        <time>2015-08-29T08:59:33Z</time>
      </trkpt>
      <trkpt lat="34.14474" lon="77.03272">
        <ele>4368.6</ele>
        <time>2015-08-29T08:59:36Z</time>
      </trkpt>
      <trkpt lat="34.14472" lon="77.03275">
        <ele>4367.8</ele>
        <time>2015-08-29T08:59:39Z</time>
      </trkpt>
      <trkpt lat="34.14471" lon="77.03276">
        <ele>4367.8</ele>
        <time>2015-08-29T08:59:40Z</time>
      </trkpt>
      <trkpt lat="34.14469" lon="77.03278">
        <ele>4367.6</ele>
        <time>2015-08-29T08:59:43Z</time>
      </trkpt>
      <trkpt lat="34.14468" lon="77.03279">
        <ele>4367.4</ele>
        <time>2015-08-29T08:59:45Z</time>
      </trkpt>
      <trkpt lat="34.14465" lon="77.03281">
        <ele>4367.2</ele>
        <time>2015-08-29T08:59:49Z</time>
      </trkpt>
      <trkpt lat="34.14461" lon="77.03284">
        <ele>4367.2</ele>
        <time>2015-08-29T08:59:57Z</time>
      </trkpt>
      <trkpt lat="34.14455" lon="77.03294">
        <ele>4367.6</ele>
        <time>2015-08-29T09:00:06Z</time>
      </trkpt>
      <trkpt lat="34.14452" lon="77.033">
        <ele>4367.8</ele>
        <time>2015-08-29T09:00:11Z</time>
      </trkpt>
      <trkpt lat="34.14449" lon="77.03305">
        <ele>4368.2</ele>
        <time>2015-08-29T09:00:18Z</time>
      </trkpt>
      <trkpt lat="34.14446" lon="77.03309">
        <ele>4368.2</ele>
        <time>2015-08-29T09:00:23Z</time>
      </trkpt>
      <trkpt lat="34.14443" lon="77.03311">
        <ele>4368.2</ele>
        <time>2015-08-29T09:00:27Z</time>
      </trkpt>
      <trkpt lat="34.14439" lon="77.03314">
        <ele>4368.2</ele>
        <time>2015-08-29T09:00:34Z</time>
      </trkpt>
      <trkpt lat="34.14437" lon="77.03315">
        <ele>4368</ele>
        <time>2015-08-29T09:00:36Z</time>
      </trkpt>
      <trkpt lat="34.1443" lon="77.03321">
        <ele>4366.6</ele>
        <time>2015-08-29T09:00:44Z</time>
      </trkpt>
      <trkpt lat="34.14429" lon="77.03322">
        <ele>4366.4</ele>
        <time>2015-08-29T09:00:46Z</time>
      </trkpt>
      <trkpt lat="34.14426" lon="77.03326">
        <ele>4365.6</ele>
        <time>2015-08-29T09:00:54Z</time>
      </trkpt>
      <trkpt lat="34.14421" lon="77.03333">
        <ele>4364.6</ele>
        <time>2015-08-29T09:01:04Z</time>
      </trkpt>
      <trkpt lat="34.14414" lon="77.03337">
        <ele>4363.4</ele>
        <time>2015-08-29T09:01:14Z</time>
      </trkpt>
      <trkpt lat="34.14412" lon="77.03337">
        <ele>4363</ele>
        <time>2015-08-29T09:01:16Z</time>
      </trkpt>
      <trkpt lat="34.14409" lon="77.03338">
        <ele>4362.4</ele>
        <time>2015-08-29T09:01:21Z</time>
      </trkpt>
      <trkpt lat="34.14404" lon="77.03342">
        <ele>4361.2</ele>
        <time>2015-08-29T09:01:27Z</time>
      </trkpt>
      <trkpt lat="34.14403" lon="77.03343">
        <ele>4361</ele>
        <time>2015-08-29T09:01:28Z</time>
      </trkpt>
      <trkpt lat="34.14395" lon="77.03348">
        <ele>4360.2</ele>
        <time>2015-08-29T09:01:35Z</time>
      </trkpt>
      <trkpt lat="34.14392" lon="77.03347">
        <ele>4359.8</ele>
        <time>2015-08-29T09:01:39Z</time>
      </trkpt>
      <trkpt lat="34.14385" lon="77.03362">
        <ele>4359.6</ele>
        <time>2015-08-29T09:01:49Z</time>
      </trkpt>
      <trkpt lat="34.14384" lon="77.03367">
        <ele>4359.2</ele>
        <time>2015-08-29T09:01:52Z</time>
      </trkpt>
      <trkpt lat="34.14384" lon="77.03369">
        <ele>4359</ele>
        <time>2015-08-29T09:01:54Z</time>
      </trkpt>
      <trkpt lat="34.14382" lon="77.03371">
        <ele>4358.2</ele>
        <time>2015-08-29T09:01:57Z</time>
      </trkpt>
      <trkpt lat="34.14383" lon="77.03372">
        <ele>4358</ele>
        <time>2015-08-29T09:01:58Z</time>
      </trkpt>
      <trkpt lat="34.1438" lon="77.03376">
        <ele>4357</ele>
        <time>2015-08-29T09:02:04Z</time>
      </trkpt>
      <trkpt lat="34.14379" lon="77.03377">
        <ele>4356.8</ele>
        <time>2015-08-29T09:02:05Z</time>
      </trkpt>
      <trkpt lat="34.14374" lon="77.03385">
        <ele>4355.6</ele>
        <time>2015-08-29T09:02:16Z</time>
      </trkpt>
      <trkpt lat="34.14372" lon="77.03388">
        <ele>4354.6</ele>
        <time>2015-08-29T09:02:21Z</time>
      </trkpt>
      <trkpt lat="34.14368" lon="77.03396">
        <ele>4353.4</ele>
        <time>2015-08-29T09:02:27Z</time>
      </trkpt>
      <trkpt lat="34.14367" lon="77.03397">
        <ele>4353.2</ele>
        <time>2015-08-29T09:02:28Z</time>
      </trkpt>
      <trkpt lat="34.14364" lon="77.03396">
        <ele>4352.6</ele>
        <time>2015-08-29T09:02:31Z</time>
      </trkpt>
      <trkpt lat="34.14364" lon="77.03397">
        <ele>4352.4</ele>
        <time>2015-08-29T09:02:32Z</time>
      </trkpt>
      <trkpt lat="34.1436" lon="77.03402">
        <ele>4351.4</ele>
        <time>2015-08-29T09:02:38Z</time>
      </trkpt>
      <trkpt lat="34.14358" lon="77.03404">
        <ele>4351.2</ele>
        <time>2015-08-29T09:02:40Z</time>
      </trkpt>
      <trkpt lat="34.14348" lon="77.03417">
        <ele>4350.2</ele>
        <time>2015-08-29T09:02:53Z</time>
      </trkpt>
      <trkpt lat="34.14346" lon="77.03422">
        <ele>4349.6</ele>
        <time>2015-08-29T09:02:57Z</time>
      </trkpt>
      <trkpt lat="34.14346" lon="77.03425">
        <ele>4349</ele>
        <time>2015-08-29T09:03:00Z</time>
      </trkpt>
      <trkpt lat="34.14344" lon="77.03432">
        <ele>4348</ele>
        <time>2015-08-29T09:03:06Z</time>
      </trkpt>
      <trkpt lat="34.14336" lon="77.03442">
        <ele>4347.2</ele>
        <time>2015-08-29T09:03:15Z</time>
      </trkpt>
      <trkpt lat="34.14334" lon="77.03445">
        <ele>4347</ele>
        <time>2015-08-29T09:03:18Z</time>
      </trkpt>
      <trkpt lat="34.14333" lon="77.03446">
        <ele>4347</ele>
        <time>2015-08-29T09:03:19Z</time>
      </trkpt>
      <trkpt lat="34.14329" lon="77.03449">
        <ele>4346.6</ele>
        <time>2015-08-29T09:03:24Z</time>
      </trkpt>
      <trkpt lat="34.14323" lon="77.03454">
        <ele>4346</ele>
        <time>2015-08-29T09:03:31Z</time>
      </trkpt>
      <trkpt lat="34.14322" lon="77.03454">
        <ele>4345.8</ele>
        <time>2015-08-29T09:03:32Z</time>
      </trkpt>
      <trkpt lat="34.14321" lon="77.03455">
        <ele>4345.6</ele>
        <time>2015-08-29T09:03:33Z</time>
      </trkpt>
      <trkpt lat="34.14313" lon="77.03462">
        <ele>4344.8</ele>
        <time>2015-08-29T09:03:41Z</time>
      </trkpt>
      <trkpt lat="34.14306" lon="77.03462">
        <ele>4343.8</ele>
        <time>2015-08-29T09:03:53Z</time>
      </trkpt>
      <trkpt lat="34.14305" lon="77.03462">
        <ele>4343.6</ele>
        <time>2015-08-29T09:03:54Z</time>
      </trkpt>
      <trkpt lat="34.14301" lon="77.03466">
        <ele>4343.4</ele>
        <time>2015-08-29T09:03:58Z</time>
      </trkpt>
      <trkpt lat="34.14289" lon="77.03482">
        <ele>4342.8</ele>
        <time>2015-08-29T09:04:09Z</time>
      </trkpt>
      <trkpt lat="34.14281" lon="77.03496">
        <ele>4341.8</ele>
        <time>2015-08-29T09:04:20Z</time>
      </trkpt>
      <trkpt lat="34.14275" lon="77.035">
        <ele>4340.6</ele>
        <time>2015-08-29T09:04:31Z</time>
      </trkpt>
      <trkpt lat="34.14269" lon="77.03512">
        <ele>4339.6</ele>
        <time>2015-08-29T09:04:39Z</time>
      </trkpt>
      <trkpt lat="34.14267" lon="77.03515">
        <ele>4339.4</ele>
        <time>2015-08-29T09:04:42Z</time>
      </trkpt>
      <trkpt lat="34.14265" lon="77.03519">
        <ele>4338.8</ele>
        <time>2015-08-29T09:04:47Z</time>
      </trkpt>
      <trkpt lat="34.14263" lon="77.03526">
        <ele>4338.4</ele>
        <time>2015-08-29T09:04:54Z</time>
      </trkpt>
      <trkpt lat="34.14262" lon="77.03529">
        <ele>4338.4</ele>
        <time>2015-08-29T09:04:56Z</time>
      </trkpt>
      <trkpt lat="34.14256" lon="77.03538">
        <ele>4337.4</ele>
        <time>2015-08-29T09:05:07Z</time>
      </trkpt>
      <trkpt lat="34.1425" lon="77.03546">
        <ele>4336.6</ele>
        <time>2015-08-29T09:05:16Z</time>
      </trkpt>
      <trkpt lat="34.14249" lon="77.0355">
        <ele>4336.2</ele>
        <time>2015-08-29T09:05:19Z</time>
      </trkpt>
      <trkpt lat="34.14248" lon="77.0355">
        <ele>4336.2</ele>
        <time>2015-08-29T09:05:20Z</time>
      </trkpt>
      <trkpt lat="34.14243" lon="77.03554">
        <ele>4335.2</ele>
        <time>2015-08-29T09:05:29Z</time>
      </trkpt>
      <trkpt lat="34.14239" lon="77.03559">
        <ele>4334.4</ele>
        <time>2015-08-29T09:05:35Z</time>
      </trkpt>
      <trkpt lat="34.14238" lon="77.03559">
        <ele>4334.2</ele>
        <time>2015-08-29T09:05:36Z</time>
      </trkpt>
      <trkpt lat="34.14234" lon="77.0356">
        <ele>4333.6</ele>
        <time>2015-08-29T09:05:40Z</time>
      </trkpt>
      <trkpt lat="34.14224" lon="77.03563">
        <ele>4333.4</ele>
        <time>2015-08-29T09:05:50Z</time>
      </trkpt>
      <trkpt lat="34.14223" lon="77.03576">
        <ele>4333.6</ele>
        <time>2015-08-29T09:05:59Z</time>
      </trkpt>
      <trkpt lat="34.14223" lon="77.03579">
        <ele>4333.4</ele>
        <time>2015-08-29T09:06:02Z</time>
      </trkpt>
      <trkpt lat="34.14222" lon="77.0358">
        <ele>4333</ele>
        <time>2015-08-29T09:06:04Z</time>
      </trkpt>
      <trkpt lat="34.14222" lon="77.0358">
        <ele>4333</ele>
        <time>2015-08-29T09:06:05Z</time>
      </trkpt>
      <trkpt lat="34.14227" lon="77.03591">
        <ele>4332.8</ele>
        <time>2015-08-29T09:06:22Z</time>
      </trkpt>
      <trkpt lat="34.1423" lon="77.03599">
        <ele>4332.6</ele>
        <time>2015-08-29T09:06:31Z</time>
      </trkpt>
      <trkpt lat="34.14229" lon="77.03612">
        <ele>4332</ele>
        <time>2015-08-29T09:06:38Z</time>
      </trkpt>
      <trkpt lat="34.14227" lon="77.0361">
        <ele>4331.6</ele>
        <time>2015-08-29T09:06:41Z</time>
      </trkpt>
      <trkpt lat="34.14226" lon="77.03599">
        <ele>4331</ele>
        <time>2015-08-29T09:06:57Z</time>
      </trkpt>
      <trkpt lat="34.14225" lon="77.03571">
        <ele>4331.4</ele>
        <time>2015-08-29T09:07:16Z</time>
      </trkpt>
      <trkpt lat="34.14226" lon="77.0357">
        <ele>4332</ele>
        <time>2015-08-29T09:07:30Z</time>
      </trkpt>
      <trkpt lat="34.14226" lon="77.03571">
        <ele>4332.4</ele>
        <time>2015-08-29T09:07:32Z</time>
      </trkpt>
      <trkpt lat="34.14223" lon="77.03578">
        <ele>4332.8</ele>
        <time>2015-08-29T09:07:45Z</time>
      </trkpt>
      <trkpt lat="34.14226" lon="77.03575">
        <ele>4332.8</ele>
        <time>2015-08-29T09:07:49Z</time>
      </trkpt>
      <trkpt lat="34.14224" lon="77.03577">
        <ele>4332.4</ele>
        <time>2015-08-29T09:07:59Z</time>
      </trkpt>
      <trkpt lat="34.14222" lon="77.03575">
        <ele>4332.2</ele>
        <time>2015-08-29T09:08:11Z</time>
      </trkpt>
      <trkpt lat="34.14222" lon="77.03581">
        <ele>4331.2</ele>
        <time>2015-08-29T09:08:14Z</time>
      </trkpt>
      <trkpt lat="34.14221" lon="77.03581">
        <ele>4331</ele>
        <time>2015-08-29T09:08:15Z</time>
      </trkpt>
      <trkpt lat="34.14225" lon="77.03567">
        <ele>4330.6</ele>
        <time>2015-08-29T09:09:02Z</time>
      </trkpt>
      <trkpt lat="34.14227" lon="77.03562">
        <ele>4330.6</ele>
        <time>2015-08-29T09:09:22Z</time>
      </trkpt>
      <trkpt lat="34.14223" lon="77.03567">
        <ele>4330.8</ele>
        <time>2015-08-29T09:09:27Z</time>
      </trkpt>
      <trkpt lat="34.14221" lon="77.03571">
        <ele>4330.6</ele>
        <time>2015-08-29T09:09:31Z</time>
      </trkpt>
      <trkpt lat="34.14219" lon="77.03575">
        <ele>4330.2</ele>
        <time>2015-08-29T09:09:33Z</time>
      </trkpt>
      <trkpt lat="34.14219" lon="77.03581">
        <ele>4330.8</ele>
        <time>2015-08-29T09:09:40Z</time>
      </trkpt>
      <trkpt lat="34.14231" lon="77.03577">
        <ele>4331.2</ele>
        <time>2015-08-29T09:10:09Z</time>
      </trkpt>
      <trkpt lat="34.1423" lon="77.03578">
        <ele>4330.2</ele>
        <time>2015-08-29T09:10:34Z</time>
      </trkpt>
      <trkpt lat="34.14229" lon="77.03578">
        <ele>4330.2</ele>
        <time>2015-08-29T09:10:36Z</time>
      </trkpt>
      <trkpt lat="34.14227" lon="77.03586">
        <ele>4330</ele>
        <time>2015-08-29T09:10:40Z</time>
      </trkpt>
      <trkpt lat="34.14223" lon="77.03588">
        <ele>4330</ele>
        <time>2015-08-29T09:10:43Z</time>
      </trkpt>
      <trkpt lat="34.14222" lon="77.0359">
        <ele>4330</ele>
        <time>2015-08-29T09:10:45Z</time>
      </trkpt>
      <trkpt lat="34.14221" lon="77.03596">
        <ele>4330</ele>
        <time>2015-08-29T09:10:52Z</time>
      </trkpt>
      <trkpt lat="34.14223" lon="77.03588">
        <ele>4330</ele>
        <time>2015-08-29T09:10:55Z</time>
      </trkpt>
      <trkpt lat="34.14222" lon="77.03591">
        <ele>4328.8</ele>
        <time>2015-08-29T09:11:23Z</time>
      </trkpt>
      <trkpt lat="34.14226" lon="77.03609">
        <ele>4327.8</ele>
        <time>2015-08-29T09:11:33Z</time>
      </trkpt>
      <trkpt lat="34.14222" lon="77.03584">
        <ele>4328</ele>
        <time>2015-08-29T09:12:13Z</time>
      </trkpt>
      <trkpt lat="34.14219" lon="77.03591">
        <ele>4327</ele>
        <time>2015-08-29T09:12:30Z</time>
      </trkpt>
      <trkpt lat="34.1422" lon="77.03592">
        <ele>4327</ele>
        <time>2015-08-29T09:12:32Z</time>
      </trkpt>
      <trkpt lat="34.1422" lon="77.03588">
        <ele>4327</ele>
        <time>2015-08-29T09:12:34Z</time>
      </trkpt>
      <trkpt lat="34.14219" lon="77.03579">
        <ele>4326.8</ele>
        <time>2015-08-29T09:12:39Z</time>
      </trkpt>
      <trkpt lat="34.14214" lon="77.03576">
        <ele>4326.6</ele>
        <time>2015-08-29T09:12:52Z</time>
      </trkpt>
      <trkpt lat="34.14224" lon="77.03571">
        <ele>4327.6</ele>
        <time>2015-08-29T09:13:51Z</time>
      </trkpt>
      <trkpt lat="34.14221" lon="77.03572">
        <ele>4327.8</ele>
        <time>2015-08-29T09:14:06Z</time>
      </trkpt>
      <trkpt lat="34.14224" lon="77.03569">
        <ele>4327.2</ele>
        <time>2015-08-29T09:14:26Z</time>
      </trkpt>
      <trkpt lat="34.14225" lon="77.03562">
        <ele>4327.4</ele>
        <time>2015-08-29T09:14:29Z</time>
      </trkpt>
      <trkpt lat="34.14224" lon="77.03569">
        <ele>4327</ele>
        <time>2015-08-29T09:14:52Z</time>
      </trkpt>
      <trkpt lat="34.14226" lon="77.03573">
        <ele>4326.8</ele>
        <time>2015-08-29T09:15:24Z</time>
      </trkpt>
      <trkpt lat="34.14228" lon="77.0357">
        <ele>4326.6</ele>
        <time>2015-08-29T09:15:33Z</time>
      </trkpt>
      <trkpt lat="34.14222" lon="77.03584">
        <ele>4325.6</ele>
        <time>2015-08-29T09:16:04Z</time>
      </trkpt>
      <trkpt lat="34.14222" lon="77.03585">
        <ele>4325.6</ele>
        <time>2015-08-29T09:16:05Z</time>
      </trkpt>
      <trkpt lat="34.14219" lon="77.03591">
        <ele>4324.6</ele>
        <time>2015-08-29T09:16:11Z</time>
      </trkpt>
      <trkpt lat="34.14206" lon="77.03608">
        <ele>4323.8</ele>
        <time>2015-08-29T09:16:25Z</time>
      </trkpt>
      <trkpt lat="34.14203" lon="77.0361">
        <ele>4323.6</ele>
        <time>2015-08-29T09:16:28Z</time>
      </trkpt>
      <trkpt lat="34.14202" lon="77.03611">
        <ele>4323.6</ele>
        <time>2015-08-29T09:16:29Z</time>
      </trkpt>
      <trkpt lat="34.14196" lon="77.03614">
        <ele>4322.6</ele>
        <time>2015-08-29T09:16:40Z</time>
      </trkpt>
      <trkpt lat="34.1419" lon="77.03619">
        <ele>4321.6</ele>
        <time>2015-08-29T09:16:48Z</time>
      </trkpt>
      <trkpt lat="34.14189" lon="77.0362">
        <ele>4321.4</ele>
        <time>2015-08-29T09:16:49Z</time>
      </trkpt>
      <trkpt lat="34.14183" lon="77.03629">
        <ele>4320.2</ele>
        <time>2015-08-29T09:16:56Z</time>
      </trkpt>
      <trkpt lat="34.14181" lon="77.03632">
        <ele>4319</ele>
        <time>2015-08-29T09:17:02Z</time>
      </trkpt>
      <trkpt lat="34.14177" lon="77.03642">
        <ele>4317.8</ele>
        <time>2015-08-29T09:17:08Z</time>
      </trkpt>
      <trkpt lat="34.14173" lon="77.03645">
        <ele>4316.8</ele>
        <time>2015-08-29T09:17:15Z</time>
      </trkpt>
      <trkpt lat="34.14167" lon="77.03658">
        <ele>4315.6</ele>
        <time>2015-08-29T09:17:24Z</time>
      </trkpt>
      <trkpt lat="34.14166" lon="77.0366">
        <ele>4315.4</ele>
        <time>2015-08-29T09:17:27Z</time>
      </trkpt>
      <trkpt lat="34.14162" lon="77.03662">
        <ele>4314.6</ele>
        <time>2015-08-29T09:17:31Z</time>
      </trkpt>
      <trkpt lat="34.14161" lon="77.03663">
        <ele>4314.4</ele>
        <time>2015-08-29T09:17:32Z</time>
      </trkpt>
      <trkpt lat="34.14156" lon="77.03669">
        <ele>4313.6</ele>
        <time>2015-08-29T09:17:38Z</time>
      </trkpt>
      <trkpt lat="34.14154" lon="77.03674">
        <ele>4312.4</ele>
        <time>2015-08-29T09:17:45Z</time>
      </trkpt>
      <trkpt lat="34.14146" lon="77.03692">
        <ele>4311.4</ele>
        <time>2015-08-29T09:17:57Z</time>
      </trkpt>
      <trkpt lat="34.14147" lon="77.03695">
        <ele>4311.4</ele>
        <time>2015-08-29T09:18:00Z</time>
      </trkpt>
      <trkpt lat="34.14139" lon="77.037">
        <ele>4310.6</ele>
        <time>2015-08-29T09:18:09Z</time>
      </trkpt>
      <trkpt lat="34.14139" lon="77.03701">
        <ele>4310.4</ele>
        <time>2015-08-29T09:18:10Z</time>
      </trkpt>
      <trkpt lat="34.14138" lon="77.03701">
        <ele>4310.4</ele>
        <time>2015-08-29T09:18:11Z</time>
      </trkpt>
      <trkpt lat="34.14134" lon="77.03711">
        <ele>4309.2</ele>
        <time>2015-08-29T09:18:18Z</time>
      </trkpt>
      <trkpt lat="34.14134" lon="77.03715">
        <ele>4308.2</ele>
        <time>2015-08-29T09:18:31Z</time>
      </trkpt>
      <trkpt lat="34.14127" lon="77.03719">
        <ele>4307.4</ele>
        <time>2015-08-29T09:18:39Z</time>
      </trkpt>
      <trkpt lat="34.14127" lon="77.0372">
        <ele>4307.2</ele>
        <time>2015-08-29T09:18:41Z</time>
      </trkpt>
      <trkpt lat="34.14124" lon="77.03724">
        <ele>4307</ele>
        <time>2015-08-29T09:18:46Z</time>
      </trkpt>
      <trkpt lat="34.14122" lon="77.03731">
        <ele>4306.6</ele>
        <time>2015-08-29T09:18:49Z</time>
      </trkpt>
      <trkpt lat="34.1412" lon="77.03737">
        <ele>4306.2</ele>
        <time>2015-08-29T09:18:53Z</time>
      </trkpt>
      <trkpt lat="34.14118" lon="77.03743">
        <ele>4305.2</ele>
        <time>2015-08-29T09:19:02Z</time>
      </trkpt>
      <trkpt lat="34.14113" lon="77.03751">
        <ele>4304.4</ele>
        <time>2015-08-29T09:19:09Z</time>
      </trkpt>
      <trkpt lat="34.14105" lon="77.03756">
        <ele>4304.2</ele>
        <time>2015-08-29T09:19:16Z</time>
      </trkpt>
      <trkpt lat="34.14093" lon="77.03757">
        <ele>4303.8</ele>
        <time>2015-08-29T09:19:27Z</time>
      </trkpt>
      <trkpt lat="34.14091" lon="77.03758">
        <ele>4303.6</ele>
        <time>2015-08-29T09:19:30Z</time>
      </trkpt>
      <trkpt lat="34.1409" lon="77.03758">
        <ele>4303.6</ele>
        <time>2015-08-29T09:19:31Z</time>
      </trkpt>
      <trkpt lat="34.14087" lon="77.03763">
        <ele>4303</ele>
        <time>2015-08-29T09:19:41Z</time>
      </trkpt>
      <trkpt lat="34.14083" lon="77.03768">
        <ele>4302.6</ele>
        <time>2015-08-29T09:19:45Z</time>
      </trkpt>
      <trkpt lat="34.14082" lon="77.03768">
        <ele>4302.4</ele>
        <time>2015-08-29T09:19:47Z</time>
      </trkpt>
      <trkpt lat="34.1408" lon="77.0377">
        <ele>4302.4</ele>
        <time>2015-08-29T09:19:49Z</time>
      </trkpt>
      <trkpt lat="34.14079" lon="77.0377">
        <ele>4302.4</ele>
        <time>2015-08-29T09:19:51Z</time>
      </trkpt>
      <trkpt lat="34.14072" lon="77.03776">
        <ele>4302.6</ele>
        <time>2015-08-29T09:19:57Z</time>
      </trkpt>
      <trkpt lat="34.14069" lon="77.03776">
        <ele>4302.6</ele>
        <time>2015-08-29T09:19:59Z</time>
      </trkpt>
      <trkpt lat="34.14065" lon="77.0378">
        <ele>4302</ele>
        <time>2015-08-29T09:20:02Z</time>
      </trkpt>
      <trkpt lat="34.14065" lon="77.03778">
        <ele>4301.8</ele>
        <time>2015-08-29T09:20:03Z</time>
      </trkpt>
      <trkpt lat="34.14064" lon="77.03777">
        <ele>4301.6</ele>
        <time>2015-08-29T09:20:05Z</time>
      </trkpt>
      <trkpt lat="34.14063" lon="77.03782">
        <ele>4301</ele>
        <time>2015-08-29T09:20:11Z</time>
      </trkpt>
      <trkpt lat="34.14065" lon="77.03788">
        <ele>4300.2</ele>
        <time>2015-08-29T09:20:15Z</time>
      </trkpt>
      <trkpt lat="34.14065" lon="77.0379">
        <ele>4300</ele>
        <time>2015-08-29T09:20:18Z</time>
      </trkpt>
      <trkpt lat="34.14064" lon="77.03792">
        <ele>4299.8</ele>
        <time>2015-08-29T09:20:19Z</time>
      </trkpt>
      <trkpt lat="34.14064" lon="77.038">
        <ele>4298.8</ele>
        <time>2015-08-29T09:20:26Z</time>
      </trkpt>
      <trkpt lat="34.14065" lon="77.03804">
        <ele>4298.6</ele>
        <time>2015-08-29T09:20:28Z</time>
      </trkpt>
      <trkpt lat="34.14065" lon="77.03805">
        <ele>4298.2</ele>
        <time>2015-08-29T09:20:30Z</time>
      </trkpt>
      <trkpt lat="34.14066" lon="77.03815">
        <ele>4297.6</ele>
        <time>2015-08-29T09:20:43Z</time>
      </trkpt>
      <trkpt lat="34.14067" lon="77.03818">
        <ele>4297.2</ele>
        <time>2015-08-29T09:20:45Z</time>
      </trkpt>
      <trkpt lat="34.14066" lon="77.03821">
        <ele>4296.8</ele>
        <time>2015-08-29T09:20:49Z</time>
      </trkpt>
      <trkpt lat="34.14064" lon="77.03823">
        <ele>4296.6</ele>
        <time>2015-08-29T09:20:53Z</time>
      </trkpt>
      <trkpt lat="34.14058" lon="77.03827">
        <ele>4295.8</ele>
        <time>2015-08-29T09:21:02Z</time>
      </trkpt>
      <trkpt lat="34.14056" lon="77.03831">
        <ele>4295.6</ele>
        <time>2015-08-29T09:21:05Z</time>
      </trkpt>
      <trkpt lat="34.14055" lon="77.03832">
        <ele>4295.6</ele>
        <time>2015-08-29T09:21:06Z</time>
      </trkpt>
      <trkpt lat="34.14053" lon="77.03833">
        <ele>4295.6</ele>
        <time>2015-08-29T09:21:08Z</time>
      </trkpt>
      <trkpt lat="34.14036" lon="77.03841">
        <ele>4294.6</ele>
        <time>2015-08-29T09:21:24Z</time>
      </trkpt>
      <trkpt lat="34.14035" lon="77.03843">
        <ele>4294.6</ele>
        <time>2015-08-29T09:21:25Z</time>
      </trkpt>
      <trkpt lat="34.14036" lon="77.03846">
        <ele>4293.8</ele>
        <time>2015-08-29T09:21:29Z</time>
      </trkpt>
      <trkpt lat="34.14036" lon="77.03847">
        <ele>4293.4</ele>
        <time>2015-08-29T09:21:31Z</time>
      </trkpt>
      <trkpt lat="34.1403" lon="77.03863">
        <ele>4292.4</ele>
        <time>2015-08-29T09:21:44Z</time>
      </trkpt>
      <trkpt lat="34.14027" lon="77.03868">
        <ele>4291.4</ele>
        <time>2015-08-29T09:21:51Z</time>
      </trkpt>
      <trkpt lat="34.14026" lon="77.03868">
        <ele>4291.2</ele>
        <time>2015-08-29T09:21:53Z</time>
      </trkpt>
      <trkpt lat="34.14023" lon="77.03869">
        <ele>4290.2</ele>
        <time>2015-08-29T09:22:05Z</time>
      </trkpt>
      <trkpt lat="34.14018" lon="77.03871">
        <ele>4289.8</ele>
        <time>2015-08-29T09:22:11Z</time>
      </trkpt>
      <trkpt lat="34.14014" lon="77.03876">
        <ele>4289.8</ele>
        <time>2015-08-29T09:22:15Z</time>
      </trkpt>
      <trkpt lat="34.14012" lon="77.03877">
        <ele>4289.6</ele>
        <time>2015-08-29T09:22:17Z</time>
      </trkpt>
      <trkpt lat="34.14011" lon="77.03878">
        <ele>4289.2</ele>
        <time>2015-08-29T09:22:28Z</time>
      </trkpt>
      <trkpt lat="34.14007" lon="77.03882">
        <ele>4289.4</ele>
        <time>2015-08-29T09:22:39Z</time>
      </trkpt>
      <trkpt lat="34.14005" lon="77.03882">
        <ele>4289.4</ele>
        <time>2015-08-29T09:22:42Z</time>
      </trkpt>
      <trkpt lat="34.14002" lon="77.03887">
        <ele>4289.2</ele>
        <time>2015-08-29T09:22:45Z</time>
      </trkpt>
      <trkpt lat="34.14001" lon="77.03889">
        <ele>4288.6</ele>
        <time>2015-08-29T09:22:48Z</time>
      </trkpt>
      <trkpt lat="34.13998" lon="77.03893">
        <ele>4288.4</ele>
        <time>2015-08-29T09:22:53Z</time>
      </trkpt>
      <trkpt lat="34.13994" lon="77.03893">
        <ele>4288.2</ele>
        <time>2015-08-29T09:22:56Z</time>
      </trkpt>
      <trkpt lat="34.13983" lon="77.03901">
        <ele>4287.4</ele>
        <time>2015-08-29T09:23:10Z</time>
      </trkpt>
      <trkpt lat="34.13984" lon="77.039">
        <ele>4287.2</ele>
        <time>2015-08-29T09:23:12Z</time>
      </trkpt>
      <trkpt lat="34.13978" lon="77.03904">
        <ele>4286.4</ele>
        <time>2015-08-29T09:23:19Z</time>
      </trkpt>
      <trkpt lat="34.13972" lon="77.03909">
        <ele>4286</ele>
        <time>2015-08-29T09:23:23Z</time>
      </trkpt>
      <trkpt lat="34.13969" lon="77.03915">
        <ele>4285.6</ele>
        <time>2015-08-29T09:23:27Z</time>
      </trkpt>
      <trkpt lat="34.13965" lon="77.03918">
        <ele>4285</ele>
        <time>2015-08-29T09:23:32Z</time>
      </trkpt>
      <trkpt lat="34.13969" lon="77.03929">
        <ele>4284</ele>
        <time>2015-08-29T09:23:41Z</time>
      </trkpt>
      <trkpt lat="34.1397" lon="77.0393">
        <ele>4283.8</ele>
        <time>2015-08-29T09:23:42Z</time>
      </trkpt>
      <trkpt lat="34.13971" lon="77.0393">
        <ele>4283.8</ele>
        <time>2015-08-29T09:23:43Z</time>
      </trkpt>
      <trkpt lat="34.1397" lon="77.03933">
        <ele>4282.8</ele>
        <time>2015-08-29T09:23:57Z</time>
      </trkpt>
      <trkpt lat="34.1397" lon="77.03939">
        <ele>4281.8</ele>
        <time>2015-08-29T09:24:18Z</time>
      </trkpt>
      <trkpt lat="34.13969" lon="77.03942">
        <ele>4281.4</ele>
        <time>2015-08-29T09:24:30Z</time>
      </trkpt>
      <trkpt lat="34.13966" lon="77.03944">
        <ele>4281.6</ele>
        <time>2015-08-29T09:24:33Z</time>
      </trkpt>
      <trkpt lat="34.13957" lon="77.03951">
        <ele>4281.6</ele>
        <time>2015-08-29T09:24:40Z</time>
      </trkpt>
      <trkpt lat="34.13942" lon="77.03959">
        <ele>4282.6</ele>
        <time>2015-08-29T09:25:05Z</time>
      </trkpt>
      <trkpt lat="34.13942" lon="77.03959">
        <ele>4282.8</ele>
        <time>2015-08-29T09:25:06Z</time>
      </trkpt>
      <trkpt lat="34.13939" lon="77.03971">
        <ele>4282</ele>
        <time>2015-08-29T09:25:14Z</time>
      </trkpt>
      <trkpt lat="34.13937" lon="77.03975">
        <ele>4281.8</ele>
        <time>2015-08-29T09:25:16Z</time>
      </trkpt>
      <trkpt lat="34.13936" lon="77.03979">
        <ele>4281.8</ele>
        <time>2015-08-29T09:25:19Z</time>
      </trkpt>
      <trkpt lat="34.13935" lon="77.03982">
        <ele>4282.2</ele>
        <time>2015-08-29T09:25:22Z</time>
      </trkpt>
      <trkpt lat="34.13935" lon="77.03988">
        <ele>4282.8</ele>
        <time>2015-08-29T09:25:28Z</time>
      </trkpt>
      <trkpt lat="34.13932" lon="77.03991">
        <ele>4283.2</ele>
        <time>2015-08-29T09:25:32Z</time>
      </trkpt>
      <trkpt lat="34.13933" lon="77.04002">
        <ele>4283.6</ele>
        <time>2015-08-29T09:25:40Z</time>
      </trkpt>
      <trkpt lat="34.13931" lon="77.04005">
        <ele>4283.8</ele>
        <time>2015-08-29T09:25:44Z</time>
      </trkpt>
      <trkpt lat="34.13929" lon="77.0401">
        <ele>4284</ele>
        <time>2015-08-29T09:25:48Z</time>
      </trkpt>
      <trkpt lat="34.13927" lon="77.04013">
        <ele>4284.2</ele>
        <time>2015-08-29T09:25:52Z</time>
      </trkpt>
      <trkpt lat="34.13924" lon="77.0402">
        <ele>4284.6</ele>
        <time>2015-08-29T09:25:58Z</time>
      </trkpt>
      <trkpt lat="34.13918" lon="77.04024">
        <ele>4285</ele>
        <time>2015-08-29T09:26:07Z</time>
      </trkpt>
      <trkpt lat="34.13918" lon="77.04025">
        <ele>4285</ele>
        <time>2015-08-29T09:26:08Z</time>
      </trkpt>
      <trkpt lat="34.13913" lon="77.04036">
        <ele>4285.2</ele>
        <time>2015-08-29T09:26:17Z</time>
      </trkpt>
      <trkpt lat="34.13912" lon="77.0404">
        <ele>4284.8</ele>
        <time>2015-08-29T09:26:20Z</time>
      </trkpt>
      <trkpt lat="34.13912" lon="77.04042">
        <ele>4284.6</ele>
        <time>2015-08-29T09:26:22Z</time>
      </trkpt>
      <trkpt lat="34.13913" lon="77.04047">
        <ele>4284.6</ele>
        <time>2015-08-29T09:26:26Z</time>
      </trkpt>
      <trkpt lat="34.13916" lon="77.04051">
        <ele>4284.2</ele>
        <time>2015-08-29T09:26:31Z</time>
      </trkpt>
      <trkpt lat="34.13915" lon="77.04054">
        <ele>4284</ele>
        <time>2015-08-29T09:26:36Z</time>
      </trkpt>
      <trkpt lat="34.13907" lon="77.04058">
        <ele>4284</ele>
        <time>2015-08-29T09:26:43Z</time>
      </trkpt>
      <trkpt lat="34.13904" lon="77.04058">
        <ele>4284</ele>
        <time>2015-08-29T09:26:45Z</time>
      </trkpt>
      <trkpt lat="34.13898" lon="77.0406">
        <ele>4284.4</ele>
        <time>2015-08-29T09:26:50Z</time>
      </trkpt>
      <trkpt lat="34.13894" lon="77.04063">
        <ele>4284</ele>
        <time>2015-08-29T09:26:54Z</time>
      </trkpt>
      <trkpt lat="34.13893" lon="77.04063">
        <ele>4284</ele>
        <time>2015-08-29T09:26:56Z</time>
      </trkpt>
      <trkpt lat="34.13892" lon="77.04062">
        <ele>4283.8</ele>
        <time>2015-08-29T09:26:57Z</time>
      </trkpt>
      <trkpt lat="34.13891" lon="77.04062">
        <ele>4283.8</ele>
        <time>2015-08-29T09:26:58Z</time>
      </trkpt>
      <trkpt lat="34.13887" lon="77.0406">
        <ele>4282.8</ele>
        <time>2015-08-29T09:27:05Z</time>
      </trkpt>
      <trkpt lat="34.13883" lon="77.04065">
        <ele>4281.8</ele>
        <time>2015-08-29T09:27:14Z</time>
      </trkpt>
      <trkpt lat="34.13881" lon="77.04067">
        <ele>4281.4</ele>
        <time>2015-08-29T09:27:16Z</time>
      </trkpt>
      <trkpt lat="34.13879" lon="77.04069">
        <ele>4281</ele>
        <time>2015-08-29T09:27:19Z</time>
      </trkpt>
      <trkpt lat="34.13877" lon="77.04071">
        <ele>4280.6</ele>
        <time>2015-08-29T09:27:21Z</time>
      </trkpt>
      <trkpt lat="34.13875" lon="77.04073">
        <ele>4280.2</ele>
        <time>2015-08-29T09:27:25Z</time>
      </trkpt>
      <trkpt lat="34.13873" lon="77.04074">
        <ele>4279.8</ele>
        <time>2015-08-29T09:27:27Z</time>
      </trkpt>
      <trkpt lat="34.13869" lon="77.04076">
        <ele>4279.6</ele>
        <time>2015-08-29T09:27:31Z</time>
      </trkpt>
      <trkpt lat="34.13867" lon="77.04078">
        <ele>4279.4</ele>
        <time>2015-08-29T09:27:32Z</time>
      </trkpt>
      <trkpt lat="34.13859" lon="77.04079">
        <ele>4278.4</ele>
        <time>2015-08-29T09:27:37Z</time>
      </trkpt>
      <trkpt lat="34.13856" lon="77.0408">
        <ele>4278.2</ele>
        <time>2015-08-29T09:27:40Z</time>
      </trkpt>
      <trkpt lat="34.13854" lon="77.0408">
        <ele>4278</ele>
        <time>2015-08-29T09:27:42Z</time>
      </trkpt>
      <trkpt lat="34.13848" lon="77.04082">
        <ele>4277.8</ele>
        <time>2015-08-29T09:27:51Z</time>
      </trkpt>
      <trkpt lat="34.13848" lon="77.04083">
        <ele>4277.4</ele>
        <time>2015-08-29T09:27:55Z</time>
      </trkpt>
      <trkpt lat="34.13837" lon="77.04098">
        <ele>4276.2</ele>
        <time>2015-08-29T09:28:06Z</time>
      </trkpt>
      <trkpt lat="34.13835" lon="77.04101">
        <ele>4275.8</ele>
        <time>2015-08-29T09:28:09Z</time>
      </trkpt>
      <trkpt lat="34.13834" lon="77.04104">
        <ele>4275.4</ele>
        <time>2015-08-29T09:28:11Z</time>
      </trkpt>
      <trkpt lat="34.13834" lon="77.04106">
        <ele>4275.2</ele>
        <time>2015-08-29T09:28:13Z</time>
      </trkpt>
      <trkpt lat="34.13833" lon="77.04108">
        <ele>4275</ele>
        <time>2015-08-29T09:28:15Z</time>
      </trkpt>
      <trkpt lat="34.13832" lon="77.04111">
        <ele>4274.6</ele>
        <time>2015-08-29T09:28:19Z</time>
      </trkpt>
      <trkpt lat="34.13831" lon="77.04113">
        <ele>4274.2</ele>
        <time>2015-08-29T09:28:22Z</time>
      </trkpt>
      <trkpt lat="34.13829" lon="77.04116">
        <ele>4273</ele>
        <time>2015-08-29T09:28:29Z</time>
      </trkpt>
      <trkpt lat="34.13826" lon="77.04119">
        <ele>4272.4</ele>
        <time>2015-08-29T09:28:31Z</time>
      </trkpt>
      <trkpt lat="34.13825" lon="77.04124">
        <ele>4272</ele>
        <time>2015-08-29T09:28:35Z</time>
      </trkpt>
      <trkpt lat="34.1382" lon="77.04129">
        <ele>4270.8</ele>
        <time>2015-08-29T09:28:41Z</time>
      </trkpt>
      <trkpt lat="34.1382" lon="77.04132">
        <ele>4269.8</ele>
        <time>2015-08-29T09:28:48Z</time>
      </trkpt>
      <trkpt lat="34.13816" lon="77.04135">
        <ele>4268.6</ele>
        <time>2015-08-29T09:28:53Z</time>
      </trkpt>
      <trkpt lat="34.13816" lon="77.04136">
        <ele>4268.4</ele>
        <time>2015-08-29T09:28:54Z</time>
      </trkpt>
      <trkpt lat="34.13813" lon="77.04139">
        <ele>4267.4</ele>
        <time>2015-08-29T09:29:04Z</time>
      </trkpt>
      <trkpt lat="34.13811" lon="77.04142">
        <ele>4266.8</ele>
        <time>2015-08-29T09:29:06Z</time>
      </trkpt>
      <trkpt lat="34.13806" lon="77.04146">
        <ele>4266.4</ele>
        <time>2015-08-29T09:29:10Z</time>
      </trkpt>
      <trkpt lat="34.13806" lon="77.04153">
        <ele>4265.2</ele>
        <time>2015-08-29T09:29:24Z</time>
      </trkpt>
      <trkpt lat="34.13802" lon="77.04157">
        <ele>4265.2</ele>
        <time>2015-08-29T09:29:35Z</time>
      </trkpt>
      <trkpt lat="34.13797" lon="77.0416">
        <ele>4264.8</ele>
        <time>2015-08-29T09:29:41Z</time>
      </trkpt>
      <trkpt lat="34.13796" lon="77.04162">
        <ele>4264.8</ele>
        <time>2015-08-29T09:29:43Z</time>
      </trkpt>
      <trkpt lat="34.13795" lon="77.04164">
        <ele>4264.6</ele>
        <time>2015-08-29T09:29:45Z</time>
      </trkpt>
      <trkpt lat="34.13793" lon="77.04166">
        <ele>4264.2</ele>
        <time>2015-08-29T09:29:47Z</time>
      </trkpt>
      <trkpt lat="34.13791" lon="77.04168">
        <ele>4263.4</ele>
        <time>2015-08-29T09:29:50Z</time>
      </trkpt>
      <trkpt lat="34.13792" lon="77.04168">
        <ele>4263</ele>
        <time>2015-08-29T09:29:51Z</time>
      </trkpt>
      <trkpt lat="34.13789" lon="77.04169">
        <ele>4262</ele>
        <time>2015-08-29T09:29:54Z</time>
      </trkpt>
      <trkpt lat="34.13788" lon="77.04169">
        <ele>4261.8</ele>
        <time>2015-08-29T09:29:55Z</time>
      </trkpt>
      <trkpt lat="34.13786" lon="77.0417">
        <ele>4260.8</ele>
        <time>2015-08-29T09:29:58Z</time>
      </trkpt>
      <trkpt lat="34.13784" lon="77.0417">
        <ele>4260</ele>
        <time>2015-08-29T09:30:00Z</time>
      </trkpt>
      <trkpt lat="34.13783" lon="77.0417">
        <ele>4259.6</ele>
        <time>2015-08-29T09:30:02Z</time>
      </trkpt>
      <trkpt lat="34.13779" lon="77.0417">
        <ele>4258.6</ele>
        <time>2015-08-29T09:30:07Z</time>
      </trkpt>
      <trkpt lat="34.13777" lon="77.04168">
        <ele>4257.8</ele>
        <time>2015-08-29T09:30:11Z</time>
      </trkpt>
      <trkpt lat="34.13774" lon="77.0417">
        <ele>4257.6</ele>
        <time>2015-08-29T09:30:14Z</time>
      </trkpt>
      <trkpt lat="34.13768" lon="77.04173">
        <ele>4256.6</ele>
        <time>2015-08-29T09:30:38Z</time>
      </trkpt>
      <trkpt lat="34.13757" lon="77.04179">
        <ele>4256</ele>
        <time>2015-08-29T09:30:58Z</time>
      </trkpt>
      <trkpt lat="34.13753" lon="77.04187">
        <ele>4255.6</ele>
        <time>2015-08-29T09:31:04Z</time>
      </trkpt>
      <trkpt lat="34.13746" lon="77.04198">
        <ele>4255.4</ele>
        <time>2015-08-29T09:31:18Z</time>
      </trkpt>
      <trkpt lat="34.13741" lon="77.04198">
        <ele>4254.8</ele>
        <time>2015-08-29T09:31:22Z</time>
      </trkpt>
      <trkpt lat="34.13739" lon="77.04198">
        <ele>4254.4</ele>
        <time>2015-08-29T09:31:26Z</time>
      </trkpt>
      <trkpt lat="34.13733" lon="77.04212">
        <ele>4255</ele>
        <time>2015-08-29T09:31:40Z</time>
      </trkpt>
      <trkpt lat="34.13733" lon="77.04215">
        <ele>4255</ele>
        <time>2015-08-29T09:31:42Z</time>
      </trkpt>
      <trkpt lat="34.13728" lon="77.04227">
        <ele>4254.6</ele>
        <time>2015-08-29T09:31:53Z</time>
      </trkpt>
      <trkpt lat="34.1372" lon="77.04231">
        <ele>4254.4</ele>
        <time>2015-08-29T09:32:05Z</time>
      </trkpt>
      <trkpt lat="34.13718" lon="77.04236">
        <ele>4253.4</ele>
        <time>2015-08-29T09:32:12Z</time>
      </trkpt>
      <trkpt lat="34.13717" lon="77.04249">
        <ele>4252.4</ele>
        <time>2015-08-29T09:32:22Z</time>
      </trkpt>
      <trkpt lat="34.13708" lon="77.04263">
        <ele>4251.6</ele>
        <time>2015-08-29T09:32:34Z</time>
      </trkpt>
      <trkpt lat="34.13708" lon="77.04264">
        <ele>4251.4</ele>
        <time>2015-08-29T09:32:35Z</time>
      </trkpt>
      <trkpt lat="34.13708" lon="77.04266">
        <ele>4251.2</ele>
        <time>2015-08-29T09:32:36Z</time>
      </trkpt>
      <trkpt lat="34.13709" lon="77.04269">
        <ele>4251</ele>
        <time>2015-08-29T09:32:39Z</time>
      </trkpt>
      <trkpt lat="34.1371" lon="77.04279">
        <ele>4250.6</ele>
        <time>2015-08-29T09:32:46Z</time>
      </trkpt>
      <trkpt lat="34.13708" lon="77.04282">
        <ele>4250.2</ele>
        <time>2015-08-29T09:32:49Z</time>
      </trkpt>
      <trkpt lat="34.13704" lon="77.04293">
        <ele>4249.2</ele>
        <time>2015-08-29T09:33:02Z</time>
      </trkpt>
      <trkpt lat="34.13692" lon="77.04302">
        <ele>4248.2</ele>
        <time>2015-08-29T09:33:13Z</time>
      </trkpt>
      <trkpt lat="34.1369" lon="77.04317">
        <ele>4248.2</ele>
        <time>2015-08-29T09:33:26Z</time>
      </trkpt>
      <trkpt lat="34.13691" lon="77.04318">
        <ele>4248</ele>
        <time>2015-08-29T09:33:28Z</time>
      </trkpt>
      <trkpt lat="34.13688" lon="77.04323">
        <ele>4248</ele>
        <time>2015-08-29T09:33:37Z</time>
      </trkpt>
      <trkpt lat="34.13694" lon="77.04327">
        <ele>4247.8</ele>
        <time>2015-08-29T09:33:46Z</time>
      </trkpt>
      <trkpt lat="34.13695" lon="77.04328">
        <ele>4247.8</ele>
        <time>2015-08-29T09:33:48Z</time>
      </trkpt>
      <trkpt lat="34.13697" lon="77.04329">
        <ele>4247.8</ele>
        <time>2015-08-29T09:33:51Z</time>
      </trkpt>
      <trkpt lat="34.13698" lon="77.04332">
        <ele>4247.6</ele>
        <time>2015-08-29T09:33:53Z</time>
      </trkpt>
      <trkpt lat="34.13697" lon="77.04335">
        <ele>4247.2</ele>
        <time>2015-08-29T09:33:54Z</time>
      </trkpt>
      <trkpt lat="34.13697" lon="77.04335">
        <ele>4246.6</ele>
        <time>2015-08-29T09:33:55Z</time>
      </trkpt>
      <trkpt lat="34.13696" lon="77.04336">
        <ele>4246</ele>
        <time>2015-08-29T09:33:56Z</time>
      </trkpt>
      <trkpt lat="34.13691" lon="77.04339">
        <ele>4245.8</ele>
        <time>2015-08-29T09:34:01Z</time>
      </trkpt>
      <trkpt lat="34.13684" lon="77.04344">
        <ele>4245.6</ele>
        <time>2015-08-29T09:34:07Z</time>
      </trkpt>
      <trkpt lat="34.13684" lon="77.04347">
        <ele>4245.6</ele>
        <time>2015-08-29T09:34:10Z</time>
      </trkpt>
      <trkpt lat="34.13685" lon="77.0435">
        <ele>4245.4</ele>
        <time>2015-08-29T09:34:13Z</time>
      </trkpt>
      <trkpt lat="34.13683" lon="77.0436">
        <ele>4245.4</ele>
        <time>2015-08-29T09:34:18Z</time>
      </trkpt>
      <trkpt lat="34.13678" lon="77.04381">
        <ele>4246.2</ele>
        <time>2015-08-29T09:34:34Z</time>
      </trkpt>
      <trkpt lat="34.13677" lon="77.04386">
        <ele>4245</ele>
        <time>2015-08-29T09:34:41Z</time>
      </trkpt>
      <trkpt lat="34.13677" lon="77.0439">
        <ele>4243.8</ele>
        <time>2015-08-29T09:34:47Z</time>
      </trkpt>
      <trkpt lat="34.13679" lon="77.04394">
        <ele>4243.2</ele>
        <time>2015-08-29T09:34:51Z</time>
      </trkpt>
      <trkpt lat="34.13678" lon="77.04397">
        <ele>4243</ele>
        <time>2015-08-29T09:34:53Z</time>
      </trkpt>
      <trkpt lat="34.13677" lon="77.044">
        <ele>4242.8</ele>
        <time>2015-08-29T09:34:56Z</time>
      </trkpt>
      <trkpt lat="34.13676" lon="77.044">
        <ele>4242.8</ele>
        <time>2015-08-29T09:34:57Z</time>
      </trkpt>
      <trkpt lat="34.13662" lon="77.04411">
        <ele>4242</ele>
        <time>2015-08-29T09:35:11Z</time>
      </trkpt>
      <trkpt lat="34.13662" lon="77.04414">
        <ele>4241.8</ele>
        <time>2015-08-29T09:35:14Z</time>
      </trkpt>
      <trkpt lat="34.13668" lon="77.04427">
        <ele>4240.8</ele>
        <time>2015-08-29T09:35:25Z</time>
      </trkpt>
      <trkpt lat="34.13669" lon="77.04429">
        <ele>4240.6</ele>
        <time>2015-08-29T09:35:28Z</time>
      </trkpt>
      <trkpt lat="34.13671" lon="77.04435">
        <ele>4240.4</ele>
        <time>2015-08-29T09:35:34Z</time>
      </trkpt>
      <trkpt lat="34.13663" lon="77.04436">
        <ele>4240.4</ele>
        <time>2015-08-29T09:35:39Z</time>
      </trkpt>
      <trkpt lat="34.13654" lon="77.04451">
        <ele>4240.6</ele>
        <time>2015-08-29T09:36:08Z</time>
      </trkpt>
      <trkpt lat="34.13652" lon="77.04453">
        <ele>4240.8</ele>
        <time>2015-08-29T09:36:13Z</time>
      </trkpt>
      <trkpt lat="34.13654" lon="77.04453">
        <ele>4240.4</ele>
        <time>2015-08-29T09:36:18Z</time>
      </trkpt>
      <trkpt lat="34.13655" lon="77.04452">
        <ele>4240.4</ele>
        <time>2015-08-29T09:36:20Z</time>
      </trkpt>
      <trkpt lat="34.13662" lon="77.0445">
        <ele>4240.6</ele>
        <time>2015-08-29T09:36:29Z</time>
      </trkpt>
      <trkpt lat="34.13659" lon="77.04451">
        <ele>4238.6</ele>
        <time>2015-08-29T09:36:39Z</time>
      </trkpt>
    </trkseg>
  </trk>
  <trk>
    <name><![CDATA[Camp de Sumda Chemno (4240m) - Sumda Chemno (3960m) - Camp de Lanak (4120m)]]></name>
    <trkseg>
      <trkpt lat="34.13668" lon="77.04525">
        <ele>4223.2</ele>
        <time>2015-08-30T03:19:48Z</time>
      </trkpt>
      <trkpt lat="34.13667" lon="77.04527">
        <ele>4223.2</ele>
        <time>2015-08-30T03:19:50Z</time>
      </trkpt>
      <trkpt lat="34.13667" lon="77.04525">
        <ele>4224.2</ele>
        <time>2015-08-30T03:20:36Z</time>
      </trkpt>
      <trkpt lat="34.13666" lon="77.04528">
        <ele>4224.6</ele>
        <time>2015-08-30T03:20:39Z</time>
      </trkpt>
      <trkpt lat="34.13665" lon="77.0453">
        <ele>4224.6</ele>
        <time>2015-08-30T03:20:41Z</time>
      </trkpt>
      <trkpt lat="34.13664" lon="77.04533">
        <ele>4224.8</ele>
        <time>2015-08-30T03:20:43Z</time>
      </trkpt>
      <trkpt lat="34.13664" lon="77.04536">
        <ele>4225.4</ele>
        <time>2015-08-30T03:20:45Z</time>
      </trkpt>
      <trkpt lat="34.13663" lon="77.04542">
        <ele>4226.4</ele>
        <time>2015-08-30T03:20:53Z</time>
      </trkpt>
      <trkpt lat="34.13666" lon="77.04551">
        <ele>4227.4</ele>
        <time>2015-08-30T03:21:04Z</time>
      </trkpt>
      <trkpt lat="34.13667" lon="77.04552">
        <ele>4227.6</ele>
        <time>2015-08-30T03:21:05Z</time>
      </trkpt>
      <trkpt lat="34.13668" lon="77.04562">
        <ele>4228.6</ele>
        <time>2015-08-30T03:21:18Z</time>
      </trkpt>
      <trkpt lat="34.1367" lon="77.04577">
        <ele>4229.6</ele>
        <time>2015-08-30T03:21:43Z</time>
      </trkpt>
      <trkpt lat="34.13675" lon="77.0458">
        <ele>4230</ele>
        <time>2015-08-30T03:21:51Z</time>
      </trkpt>
      <trkpt lat="34.13669" lon="77.04589">
        <ele>4230.6</ele>
        <time>2015-08-30T03:22:03Z</time>
      </trkpt>
      <trkpt lat="34.13665" lon="77.04601">
        <ele>4231.6</ele>
        <time>2015-08-30T03:22:15Z</time>
      </trkpt>
      <trkpt lat="34.13665" lon="77.04602">
        <ele>4231.8</ele>
        <time>2015-08-30T03:22:16Z</time>
      </trkpt>
      <trkpt lat="34.13663" lon="77.0461">
        <ele>4232.6</ele>
        <time>2015-08-30T03:22:25Z</time>
      </trkpt>
      <trkpt lat="34.13656" lon="77.04603">
        <ele>4232.4</ele>
        <time>2015-08-30T03:22:45Z</time>
      </trkpt>
      <trkpt lat="34.13661" lon="77.04603">
        <ele>4233</ele>
        <time>2015-08-30T03:23:17Z</time>
      </trkpt>
      <trkpt lat="34.13658" lon="77.04604">
        <ele>4232.8</ele>
        <time>2015-08-30T03:23:24Z</time>
      </trkpt>
      <trkpt lat="34.13658" lon="77.04606">
        <ele>4233</ele>
        <time>2015-08-30T03:23:26Z</time>
      </trkpt>
      <trkpt lat="34.1366" lon="77.04608">
        <ele>4233.2</ele>
        <time>2015-08-30T03:23:29Z</time>
      </trkpt>
      <trkpt lat="34.13658" lon="77.04617">
        <ele>4232</ele>
        <time>2015-08-30T03:23:44Z</time>
      </trkpt>
      <trkpt lat="34.13657" lon="77.0462">
        <ele>4231.6</ele>
        <time>2015-08-30T03:23:48Z</time>
      </trkpt>
      <trkpt lat="34.13656" lon="77.04625">
        <ele>4231.2</ele>
        <time>2015-08-30T03:23:51Z</time>
      </trkpt>
      <trkpt lat="34.13654" lon="77.04631">
        <ele>4230.6</ele>
        <time>2015-08-30T03:23:56Z</time>
      </trkpt>
      <trkpt lat="34.13653" lon="77.04637">
        <ele>4229.6</ele>
        <time>2015-08-30T03:24:01Z</time>
      </trkpt>
      <trkpt lat="34.13651" lon="77.04642">
        <ele>4228.4</ele>
        <time>2015-08-30T03:24:06Z</time>
      </trkpt>
      <trkpt lat="34.13648" lon="77.04647">
        <ele>4227.4</ele>
        <time>2015-08-30T03:24:14Z</time>
      </trkpt>
      <trkpt lat="34.13647" lon="77.04652">
        <ele>4226.4</ele>
        <time>2015-08-30T03:24:20Z</time>
      </trkpt>
      <trkpt lat="34.13642" lon="77.04657">
        <ele>4225.2</ele>
        <time>2015-08-30T03:24:30Z</time>
      </trkpt>
      <trkpt lat="34.13639" lon="77.04659">
        <ele>4224.2</ele>
        <time>2015-08-30T03:24:35Z</time>
      </trkpt>
      <trkpt lat="34.1364" lon="77.04661">
        <ele>4223.2</ele>
        <time>2015-08-30T03:24:39Z</time>
      </trkpt>
      <trkpt lat="34.13642" lon="77.04663">
        <ele>4222</ele>
        <time>2015-08-30T03:24:44Z</time>
      </trkpt>
      <trkpt lat="34.1364" lon="77.04667">
        <ele>4220.6</ele>
        <time>2015-08-30T03:24:51Z</time>
      </trkpt>
      <trkpt lat="34.1364" lon="77.04668">
        <ele>4219.6</ele>
        <time>2015-08-30T03:24:56Z</time>
      </trkpt>
      <trkpt lat="34.13638" lon="77.04673">
        <ele>4218.6</ele>
        <time>2015-08-30T03:25:03Z</time>
      </trkpt>
      <trkpt lat="34.13638" lon="77.04674">
        <ele>4217.6</ele>
        <time>2015-08-30T03:25:07Z</time>
      </trkpt>
      <trkpt lat="34.13642" lon="77.04676">
        <ele>4216.4</ele>
        <time>2015-08-30T03:25:17Z</time>
      </trkpt>
      <trkpt lat="34.13643" lon="77.04679">
        <ele>4215.4</ele>
        <time>2015-08-30T03:25:22Z</time>
      </trkpt>
      <trkpt lat="34.13643" lon="77.04681">
        <ele>4214</ele>
        <time>2015-08-30T03:25:27Z</time>
      </trkpt>
      <trkpt lat="34.13639" lon="77.04684">
        <ele>4213</ele>
        <time>2015-08-30T03:25:32Z</time>
      </trkpt>
      <trkpt lat="34.1364" lon="77.04687">
        <ele>4211.8</ele>
        <time>2015-08-30T03:25:37Z</time>
      </trkpt>
      <trkpt lat="34.1364" lon="77.0469">
        <ele>4211.2</ele>
        <time>2015-08-30T03:25:40Z</time>
      </trkpt>
      <trkpt lat="34.13642" lon="77.04691">
        <ele>4210.6</ele>
        <time>2015-08-30T03:25:42Z</time>
      </trkpt>
      <trkpt lat="34.13644" lon="77.04692">
        <ele>4209.6</ele>
        <time>2015-08-30T03:26:03Z</time>
      </trkpt>
      <trkpt lat="34.13643" lon="77.04693">
        <ele>4209.6</ele>
        <time>2015-08-30T03:26:10Z</time>
      </trkpt>
      <trkpt lat="34.13644" lon="77.04706">
        <ele>4208.6</ele>
        <time>2015-08-30T03:26:39Z</time>
      </trkpt>
      <trkpt lat="34.13645" lon="77.04713">
        <ele>4207.4</ele>
        <time>2015-08-30T03:26:48Z</time>
      </trkpt>
      <trkpt lat="34.1365" lon="77.04714">
        <ele>4206.2</ele>
        <time>2015-08-30T03:27:00Z</time>
      </trkpt>
      <trkpt lat="34.1365" lon="77.04711">
        <ele>4205.2</ele>
        <time>2015-08-30T03:27:07Z</time>
      </trkpt>
      <trkpt lat="34.13651" lon="77.04716">
        <ele>4204.4</ele>
        <time>2015-08-30T03:27:12Z</time>
      </trkpt>
      <trkpt lat="34.13651" lon="77.04718">
        <ele>4204</ele>
        <time>2015-08-30T03:27:14Z</time>
      </trkpt>
      <trkpt lat="34.13646" lon="77.04718">
        <ele>4204.4</ele>
        <time>2015-08-30T03:27:25Z</time>
      </trkpt>
      <trkpt lat="34.1364" lon="77.04715">
        <ele>4205.2</ele>
        <time>2015-08-30T03:27:40Z</time>
      </trkpt>
      <trkpt lat="34.13634" lon="77.04736">
        <ele>4204.6</ele>
        <time>2015-08-30T03:28:03Z</time>
      </trkpt>
      <trkpt lat="34.13635" lon="77.04741">
        <ele>4204.2</ele>
        <time>2015-08-30T03:28:07Z</time>
      </trkpt>
      <trkpt lat="34.1363" lon="77.04752">
        <ele>4203.2</ele>
        <time>2015-08-30T03:28:31Z</time>
      </trkpt>
      <trkpt lat="34.13625" lon="77.04756">
        <ele>4202.4</ele>
        <time>2015-08-30T03:28:36Z</time>
      </trkpt>
      <trkpt lat="34.13625" lon="77.04756">
        <ele>4202.2</ele>
        <time>2015-08-30T03:28:37Z</time>
      </trkpt>
      <trkpt lat="34.13624" lon="77.04762">
        <ele>4201.2</ele>
        <time>2015-08-30T03:28:46Z</time>
      </trkpt>
      <trkpt lat="34.13625" lon="77.04771">
        <ele>4200</ele>
        <time>2015-08-30T03:28:54Z</time>
      </trkpt>
      <trkpt lat="34.13623" lon="77.04779">
        <ele>4198.8</ele>
        <time>2015-08-30T03:29:02Z</time>
      </trkpt>
      <trkpt lat="34.13622" lon="77.04782">
        <ele>4197.8</ele>
        <time>2015-08-30T03:29:07Z</time>
      </trkpt>
      <trkpt lat="34.13618" lon="77.04788">
        <ele>4196.6</ele>
        <time>2015-08-30T03:29:13Z</time>
      </trkpt>
      <trkpt lat="34.13605" lon="77.048">
        <ele>4195.6</ele>
        <time>2015-08-30T03:29:29Z</time>
      </trkpt>
      <trkpt lat="34.136" lon="77.04808">
        <ele>4194.4</ele>
        <time>2015-08-30T03:29:40Z</time>
      </trkpt>
      <trkpt lat="34.13598" lon="77.04818">
        <ele>4193.2</ele>
        <time>2015-08-30T03:29:46Z</time>
      </trkpt>
      <trkpt lat="34.13595" lon="77.04834">
        <ele>4192.2</ele>
        <time>2015-08-30T03:30:03Z</time>
      </trkpt>
      <trkpt lat="34.1359" lon="77.04842">
        <ele>4191.2</ele>
        <time>2015-08-30T03:30:17Z</time>
      </trkpt>
      <trkpt lat="34.13592" lon="77.04855">
        <ele>4190.6</ele>
        <time>2015-08-30T03:30:57Z</time>
      </trkpt>
      <trkpt lat="34.13591" lon="77.04856">
        <ele>4190</ele>
        <time>2015-08-30T03:31:01Z</time>
      </trkpt>
      <trkpt lat="34.13581" lon="77.04868">
        <ele>4189.6</ele>
        <time>2015-08-30T03:31:34Z</time>
      </trkpt>
      <trkpt lat="34.13581" lon="77.04874">
        <ele>4189.6</ele>
        <time>2015-08-30T03:31:40Z</time>
      </trkpt>
      <trkpt lat="34.13583" lon="77.04874">
        <ele>4189.6</ele>
        <time>2015-08-30T03:31:42Z</time>
      </trkpt>
      <trkpt lat="34.13586" lon="77.04874">
        <ele>4189.6</ele>
        <time>2015-08-30T03:31:44Z</time>
      </trkpt>
      <trkpt lat="34.13587" lon="77.04875">
        <ele>4189.6</ele>
        <time>2015-08-30T03:31:46Z</time>
      </trkpt>
      <trkpt lat="34.13584" lon="77.04871">
        <ele>4190</ele>
        <time>2015-08-30T03:32:13Z</time>
      </trkpt>
      <trkpt lat="34.13584" lon="77.04872">
        <ele>4189</ele>
        <time>2015-08-30T03:32:23Z</time>
      </trkpt>
      <trkpt lat="34.13585" lon="77.04886">
        <ele>4189</ele>
        <time>2015-08-30T03:33:14Z</time>
      </trkpt>
      <trkpt lat="34.13582" lon="77.04887">
        <ele>4188</ele>
        <time>2015-08-30T03:33:21Z</time>
      </trkpt>
      <trkpt lat="34.13583" lon="77.04887">
        <ele>4188.8</ele>
        <time>2015-08-30T03:33:53Z</time>
      </trkpt>
      <trkpt lat="34.13583" lon="77.04885">
        <ele>4189</ele>
        <time>2015-08-30T03:34:21Z</time>
      </trkpt>
      <trkpt lat="34.13591" lon="77.04894">
        <ele>4188.6</ele>
        <time>2015-08-30T03:34:35Z</time>
      </trkpt>
      <trkpt lat="34.13589" lon="77.0491">
        <ele>4188</ele>
        <time>2015-08-30T03:34:53Z</time>
      </trkpt>
      <trkpt lat="34.13587" lon="77.04917">
        <ele>4187</ele>
        <time>2015-08-30T03:35:03Z</time>
      </trkpt>
      <trkpt lat="34.13584" lon="77.04936">
        <ele>4185.8</ele>
        <time>2015-08-30T03:35:20Z</time>
      </trkpt>
      <trkpt lat="34.13579" lon="77.04944">
        <ele>4184.8</ele>
        <time>2015-08-30T03:35:31Z</time>
      </trkpt>
      <trkpt lat="34.13567" lon="77.04961">
        <ele>4184.6</ele>
        <time>2015-08-30T03:35:51Z</time>
      </trkpt>
      <trkpt lat="34.13562" lon="77.0497">
        <ele>4183.6</ele>
        <time>2015-08-30T03:35:59Z</time>
      </trkpt>
      <trkpt lat="34.13554" lon="77.04975">
        <ele>4182.6</ele>
        <time>2015-08-30T03:36:11Z</time>
      </trkpt>
      <trkpt lat="34.13545" lon="77.04983">
        <ele>4181.4</ele>
        <time>2015-08-30T03:36:24Z</time>
      </trkpt>
      <trkpt lat="34.13537" lon="77.05003">
        <ele>4181.4</ele>
        <time>2015-08-30T03:36:44Z</time>
      </trkpt>
      <trkpt lat="34.13534" lon="77.0501">
        <ele>4181.4</ele>
        <time>2015-08-30T03:36:51Z</time>
      </trkpt>
      <trkpt lat="34.13536" lon="77.05013">
        <ele>4182.6</ele>
        <time>2015-08-30T03:36:57Z</time>
      </trkpt>
      <trkpt lat="34.13537" lon="77.05015">
        <ele>4183.6</ele>
        <time>2015-08-30T03:37:04Z</time>
      </trkpt>
      <trkpt lat="34.13539" lon="77.05022">
        <ele>4184.6</ele>
        <time>2015-08-30T03:37:20Z</time>
      </trkpt>
      <trkpt lat="34.13547" lon="77.05042">
        <ele>4185.6</ele>
        <time>2015-08-30T03:37:49Z</time>
      </trkpt>
      <trkpt lat="34.13552" lon="77.05053">
        <ele>4185.8</ele>
        <time>2015-08-30T03:38:09Z</time>
      </trkpt>
      <trkpt lat="34.13556" lon="77.05058">
        <ele>4186.8</ele>
        <time>2015-08-30T03:38:18Z</time>
      </trkpt>
      <trkpt lat="34.13553" lon="77.05067">
        <ele>4187.8</ele>
        <time>2015-08-30T03:38:44Z</time>
      </trkpt>
      <trkpt lat="34.13543" lon="77.05074">
        <ele>4188.2</ele>
        <time>2015-08-30T03:39:18Z</time>
      </trkpt>
      <trkpt lat="34.13541" lon="77.05075">
        <ele>4188.8</ele>
        <time>2015-08-30T03:39:22Z</time>
      </trkpt>
      <trkpt lat="34.13539" lon="77.05075">
        <ele>4190</ele>
        <time>2015-08-30T03:39:27Z</time>
      </trkpt>
      <trkpt lat="34.13536" lon="77.05075">
        <ele>4191</ele>
        <time>2015-08-30T03:39:32Z</time>
      </trkpt>
      <trkpt lat="34.1353" lon="77.05075">
        <ele>4192.2</ele>
        <time>2015-08-30T03:39:50Z</time>
      </trkpt>
      <trkpt lat="34.13526" lon="77.05076">
        <ele>4193.2</ele>
        <time>2015-08-30T03:40:02Z</time>
      </trkpt>
      <trkpt lat="34.13526" lon="77.05094">
        <ele>4194.4</ele>
        <time>2015-08-30T03:40:25Z</time>
      </trkpt>
      <trkpt lat="34.13529" lon="77.05101">
        <ele>4195.4</ele>
        <time>2015-08-30T03:40:36Z</time>
      </trkpt>
      <trkpt lat="34.13529" lon="77.05108">
        <ele>4196.4</ele>
        <time>2015-08-30T03:40:48Z</time>
      </trkpt>
      <trkpt lat="34.13535" lon="77.05115">
        <ele>4197.4</ele>
        <time>2015-08-30T03:41:02Z</time>
      </trkpt>
      <trkpt lat="34.13537" lon="77.05121">
        <ele>4198.4</ele>
        <time>2015-08-30T03:41:12Z</time>
      </trkpt>
      <trkpt lat="34.13537" lon="77.05127">
        <ele>4199.2</ele>
        <time>2015-08-30T03:41:21Z</time>
      </trkpt>
      <trkpt lat="34.13536" lon="77.0513">
        <ele>4199.4</ele>
        <time>2015-08-30T03:41:25Z</time>
      </trkpt>
      <trkpt lat="34.13538" lon="77.05153">
        <ele>4199.2</ele>
        <time>2015-08-30T03:41:52Z</time>
      </trkpt>
      <trkpt lat="34.13532" lon="77.05172">
        <ele>4198.4</ele>
        <time>2015-08-30T03:42:12Z</time>
      </trkpt>
      <trkpt lat="34.1353" lon="77.05187">
        <ele>4197.4</ele>
        <time>2015-08-30T03:42:28Z</time>
      </trkpt>
      <trkpt lat="34.13533" lon="77.05196">
        <ele>4196.2</ele>
        <time>2015-08-30T03:42:36Z</time>
      </trkpt>
      <trkpt lat="34.13527" lon="77.05205">
        <ele>4195.2</ele>
        <time>2015-08-30T03:42:47Z</time>
      </trkpt>
      <trkpt lat="34.13526" lon="77.05212">
        <ele>4194.4</ele>
        <time>2015-08-30T03:42:52Z</time>
      </trkpt>
      <trkpt lat="34.13526" lon="77.05214">
        <ele>4194</ele>
        <time>2015-08-30T03:42:54Z</time>
      </trkpt>
      <trkpt lat="34.13527" lon="77.05222">
        <ele>4193</ele>
        <time>2015-08-30T03:43:02Z</time>
      </trkpt>
      <trkpt lat="34.13529" lon="77.05228">
        <ele>4192.2</ele>
        <time>2015-08-30T03:43:08Z</time>
      </trkpt>
      <trkpt lat="34.13528" lon="77.0523">
        <ele>4192</ele>
        <time>2015-08-30T03:43:10Z</time>
      </trkpt>
      <trkpt lat="34.13526" lon="77.05238">
        <ele>4191</ele>
        <time>2015-08-30T03:43:21Z</time>
      </trkpt>
      <trkpt lat="34.13524" lon="77.05241">
        <ele>4189.8</ele>
        <time>2015-08-30T03:43:28Z</time>
      </trkpt>
      <trkpt lat="34.13522" lon="77.05244">
        <ele>4188.6</ele>
        <time>2015-08-30T03:43:33Z</time>
      </trkpt>
      <trkpt lat="34.13521" lon="77.05248">
        <ele>4187.4</ele>
        <time>2015-08-30T03:43:40Z</time>
      </trkpt>
      <trkpt lat="34.13521" lon="77.05251">
        <ele>4186.4</ele>
        <time>2015-08-30T03:43:47Z</time>
      </trkpt>
      <trkpt lat="34.13518" lon="77.05253">
        <ele>4185.2</ele>
        <time>2015-08-30T03:43:53Z</time>
      </trkpt>
      <trkpt lat="34.13516" lon="77.05253">
        <ele>4184</ele>
        <time>2015-08-30T03:43:57Z</time>
      </trkpt>
      <trkpt lat="34.13515" lon="77.05255">
        <ele>4182.8</ele>
        <time>2015-08-30T03:44:03Z</time>
      </trkpt>
      <trkpt lat="34.13515" lon="77.05258">
        <ele>4181.8</ele>
        <time>2015-08-30T03:44:08Z</time>
      </trkpt>
      <trkpt lat="34.13513" lon="77.05262">
        <ele>4180.8</ele>
        <time>2015-08-30T03:44:14Z</time>
      </trkpt>
      <trkpt lat="34.13512" lon="77.05266">
        <ele>4179.8</ele>
        <time>2015-08-30T03:44:19Z</time>
      </trkpt>
      <trkpt lat="34.1351" lon="77.05269">
        <ele>4178.6</ele>
        <time>2015-08-30T03:44:24Z</time>
      </trkpt>
      <trkpt lat="34.13509" lon="77.05273">
        <ele>4177.4</ele>
        <time>2015-08-30T03:44:29Z</time>
      </trkpt>
      <trkpt lat="34.13508" lon="77.05276">
        <ele>4176.4</ele>
        <time>2015-08-30T03:44:35Z</time>
      </trkpt>
      <trkpt lat="34.13506" lon="77.0528">
        <ele>4175.2</ele>
        <time>2015-08-30T03:44:39Z</time>
      </trkpt>
      <trkpt lat="34.13505" lon="77.05283">
        <ele>4174.2</ele>
        <time>2015-08-30T03:44:43Z</time>
      </trkpt>
      <trkpt lat="34.13503" lon="77.05288">
        <ele>4173</ele>
        <time>2015-08-30T03:44:49Z</time>
      </trkpt>
      <trkpt lat="34.13501" lon="77.05293">
        <ele>4172</ele>
        <time>2015-08-30T03:44:55Z</time>
      </trkpt>
      <trkpt lat="34.13496" lon="77.05298">
        <ele>4171</ele>
        <time>2015-08-30T03:45:01Z</time>
      </trkpt>
      <trkpt lat="34.13493" lon="77.05301">
        <ele>4170</ele>
        <time>2015-08-30T03:45:05Z</time>
      </trkpt>
      <trkpt lat="34.13493" lon="77.05302">
        <ele>4169.6</ele>
        <time>2015-08-30T03:45:06Z</time>
      </trkpt>
      <trkpt lat="34.13492" lon="77.05304">
        <ele>4169</ele>
        <time>2015-08-30T03:45:08Z</time>
      </trkpt>
      <trkpt lat="34.1349" lon="77.05306">
        <ele>4168.6</ele>
        <time>2015-08-30T03:45:11Z</time>
      </trkpt>
      <trkpt lat="34.13488" lon="77.0531">
        <ele>4167.6</ele>
        <time>2015-08-30T03:45:15Z</time>
      </trkpt>
      <trkpt lat="34.13487" lon="77.0531">
        <ele>4167.4</ele>
        <time>2015-08-30T03:45:16Z</time>
      </trkpt>
      <trkpt lat="34.13486" lon="77.05311">
        <ele>4167.2</ele>
        <time>2015-08-30T03:45:18Z</time>
      </trkpt>
      <trkpt lat="34.13485" lon="77.05313">
        <ele>4166.8</ele>
        <time>2015-08-30T03:45:20Z</time>
      </trkpt>
      <trkpt lat="34.13484" lon="77.05314">
        <ele>4166.4</ele>
        <time>2015-08-30T03:45:22Z</time>
      </trkpt>
      <trkpt lat="34.13482" lon="77.05317">
        <ele>4165.4</ele>
        <time>2015-08-30T03:45:26Z</time>
      </trkpt>
      <trkpt lat="34.13478" lon="77.05323">
        <ele>4164.4</ele>
        <time>2015-08-30T03:45:31Z</time>
      </trkpt>
      <trkpt lat="34.13477" lon="77.05325">
        <ele>4163.8</ele>
        <time>2015-08-30T03:45:33Z</time>
      </trkpt>
      <trkpt lat="34.13475" lon="77.05326">
        <ele>4163.2</ele>
        <time>2015-08-30T03:45:35Z</time>
      </trkpt>
      <trkpt lat="34.13471" lon="77.05328">
        <ele>4162</ele>
        <time>2015-08-30T03:45:42Z</time>
      </trkpt>
      <trkpt lat="34.13469" lon="77.0533">
        <ele>4161.2</ele>
        <time>2015-08-30T03:45:45Z</time>
      </trkpt>
      <trkpt lat="34.13467" lon="77.05331">
        <ele>4160.8</ele>
        <time>2015-08-30T03:45:47Z</time>
      </trkpt>
      <trkpt lat="34.13466" lon="77.05334">
        <ele>4159.6</ele>
        <time>2015-08-30T03:45:51Z</time>
      </trkpt>
      <trkpt lat="34.13462" lon="77.05338">
        <ele>4158.6</ele>
        <time>2015-08-30T03:45:57Z</time>
      </trkpt>
      <trkpt lat="34.13455" lon="77.05355">
        <ele>4157.6</ele>
        <time>2015-08-30T03:46:09Z</time>
      </trkpt>
      <trkpt lat="34.13453" lon="77.0536">
        <ele>4157</ele>
        <time>2015-08-30T03:46:13Z</time>
      </trkpt>
      <trkpt lat="34.13452" lon="77.05362">
        <ele>4156.6</ele>
        <time>2015-08-30T03:46:15Z</time>
      </trkpt>
      <trkpt lat="34.13448" lon="77.0537">
        <ele>4155.6</ele>
        <time>2015-08-30T03:46:27Z</time>
      </trkpt>
      <trkpt lat="34.13442" lon="77.05372">
        <ele>4154.6</ele>
        <time>2015-08-30T03:46:36Z</time>
      </trkpt>
      <trkpt lat="34.13438" lon="77.05373">
        <ele>4153.4</ele>
        <time>2015-08-30T03:46:41Z</time>
      </trkpt>
      <trkpt lat="34.13436" lon="77.05375">
        <ele>4152.2</ele>
        <time>2015-08-30T03:46:49Z</time>
      </trkpt>
      <trkpt lat="34.13433" lon="77.05378">
        <ele>4151</ele>
        <time>2015-08-30T03:46:55Z</time>
      </trkpt>
      <trkpt lat="34.13429" lon="77.05375">
        <ele>4149.8</ele>
        <time>2015-08-30T03:47:00Z</time>
      </trkpt>
      <trkpt lat="34.13427" lon="77.05374">
        <ele>4149.4</ele>
        <time>2015-08-30T03:47:02Z</time>
      </trkpt>
      <trkpt lat="34.13422" lon="77.05382">
        <ele>4149.2</ele>
        <time>2015-08-30T03:47:18Z</time>
      </trkpt>
      <trkpt lat="34.13419" lon="77.0539">
        <ele>4149.2</ele>
        <time>2015-08-30T03:47:23Z</time>
      </trkpt>
      <trkpt lat="34.1342" lon="77.05396">
        <ele>4148.8</ele>
        <time>2015-08-30T03:47:27Z</time>
      </trkpt>
      <trkpt lat="34.13421" lon="77.05397">
        <ele>4148.8</ele>
        <time>2015-08-30T03:47:28Z</time>
      </trkpt>
      <trkpt lat="34.13424" lon="77.0541">
        <ele>4147.6</ele>
        <time>2015-08-30T03:47:47Z</time>
      </trkpt>
      <trkpt lat="34.13417" lon="77.05408">
        <ele>4147.2</ele>
        <time>2015-08-30T03:48:01Z</time>
      </trkpt>
      <trkpt lat="34.13413" lon="77.05419">
        <ele>4147.6</ele>
        <time>2015-08-30T03:48:49Z</time>
      </trkpt>
      <trkpt lat="34.1341" lon="77.05418">
        <ele>4147</ele>
        <time>2015-08-30T03:49:01Z</time>
      </trkpt>
      <trkpt lat="34.13407" lon="77.0541">
        <ele>4147.2</ele>
        <time>2015-08-30T03:49:11Z</time>
      </trkpt>
      <trkpt lat="34.13404" lon="77.05408">
        <ele>4147</ele>
        <time>2015-08-30T03:49:18Z</time>
      </trkpt>
      <trkpt lat="34.13394" lon="77.05406">
        <ele>4148.4</ele>
        <time>2015-08-30T03:49:45Z</time>
      </trkpt>
      <trkpt lat="34.1339" lon="77.0541">
        <ele>4148</ele>
        <time>2015-08-30T03:49:51Z</time>
      </trkpt>
      <trkpt lat="34.13384" lon="77.05422">
        <ele>4148.6</ele>
        <time>2015-08-30T03:50:05Z</time>
      </trkpt>
      <trkpt lat="34.13382" lon="77.05426">
        <ele>4148.8</ele>
        <time>2015-08-30T03:50:08Z</time>
      </trkpt>
      <trkpt lat="34.13379" lon="77.05432">
        <ele>4149.2</ele>
        <time>2015-08-30T03:50:16Z</time>
      </trkpt>
      <trkpt lat="34.13377" lon="77.05437">
        <ele>4150</ele>
        <time>2015-08-30T03:50:22Z</time>
      </trkpt>
      <trkpt lat="34.13376" lon="77.05445">
        <ele>4151</ele>
        <time>2015-08-30T03:50:32Z</time>
      </trkpt>
      <trkpt lat="34.13365" lon="77.05456">
        <ele>4152</ele>
        <time>2015-08-30T03:50:58Z</time>
      </trkpt>
      <trkpt lat="34.13359" lon="77.05459">
        <ele>4151.8</ele>
        <time>2015-08-30T03:51:09Z</time>
      </trkpt>
      <trkpt lat="34.13356" lon="77.05459">
        <ele>4151.4</ele>
        <time>2015-08-30T03:51:12Z</time>
      </trkpt>
      <trkpt lat="34.13354" lon="77.0548">
        <ele>4152.8</ele>
        <time>2015-08-30T03:51:35Z</time>
      </trkpt>
      <trkpt lat="34.13352" lon="77.05483">
        <ele>4153</ele>
        <time>2015-08-30T03:51:40Z</time>
      </trkpt>
      <trkpt lat="34.13349" lon="77.05485">
        <ele>4154.2</ele>
        <time>2015-08-30T03:51:51Z</time>
      </trkpt>
      <trkpt lat="34.13348" lon="77.05485">
        <ele>4154.2</ele>
        <time>2015-08-30T03:51:53Z</time>
      </trkpt>
      <trkpt lat="34.13348" lon="77.05488">
        <ele>4155.2</ele>
        <time>2015-08-30T03:52:02Z</time>
      </trkpt>
      <trkpt lat="34.13341" lon="77.0549">
        <ele>4155</ele>
        <time>2015-08-30T03:52:18Z</time>
      </trkpt>
      <trkpt lat="34.1335" lon="77.05492">
        <ele>4154.4</ele>
        <time>2015-08-30T03:52:54Z</time>
      </trkpt>
      <trkpt lat="34.13347" lon="77.05499">
        <ele>4155.8</ele>
        <time>2015-08-30T03:53:27Z</time>
      </trkpt>
      <trkpt lat="34.13345" lon="77.055">
        <ele>4156.2</ele>
        <time>2015-08-30T03:53:29Z</time>
      </trkpt>
      <trkpt lat="34.1334" lon="77.05504">
        <ele>4157.2</ele>
        <time>2015-08-30T03:53:39Z</time>
      </trkpt>
      <trkpt lat="34.13336" lon="77.05511">
        <ele>4158</ele>
        <time>2015-08-30T03:53:53Z</time>
      </trkpt>
      <trkpt lat="34.13334" lon="77.05514">
        <ele>4158.2</ele>
        <time>2015-08-30T03:53:58Z</time>
      </trkpt>
      <trkpt lat="34.13335" lon="77.05525">
        <ele>4159.2</ele>
        <time>2015-08-30T03:54:10Z</time>
      </trkpt>
      <trkpt lat="34.13329" lon="77.05526">
        <ele>4159.4</ele>
        <time>2015-08-30T03:54:12Z</time>
      </trkpt>
      <trkpt lat="34.13328" lon="77.05528">
        <ele>4159.6</ele>
        <time>2015-08-30T03:54:15Z</time>
      </trkpt>
      <trkpt lat="34.13324" lon="77.05533">
        <ele>4160.4</ele>
        <time>2015-08-30T03:54:25Z</time>
      </trkpt>
      <trkpt lat="34.13319" lon="77.05534">
        <ele>4161.4</ele>
        <time>2015-08-30T03:54:41Z</time>
      </trkpt>
      <trkpt lat="34.13309" lon="77.05551">
        <ele>4162.4</ele>
        <time>2015-08-30T03:55:00Z</time>
      </trkpt>
      <trkpt lat="34.13309" lon="77.05552">
        <ele>4162.4</ele>
        <time>2015-08-30T03:55:01Z</time>
      </trkpt>
      <trkpt lat="34.13306" lon="77.05557">
        <ele>4163.4</ele>
        <time>2015-08-30T03:55:12Z</time>
      </trkpt>
      <trkpt lat="34.13302" lon="77.05559">
        <ele>4164.4</ele>
        <time>2015-08-30T03:55:23Z</time>
      </trkpt>
      <trkpt lat="34.13304" lon="77.05566">
        <ele>4165.6</ele>
        <time>2015-08-30T03:55:38Z</time>
      </trkpt>
      <trkpt lat="34.13293" lon="77.05584">
        <ele>4166.4</ele>
        <time>2015-08-30T03:56:04Z</time>
      </trkpt>
      <trkpt lat="34.13293" lon="77.05585">
        <ele>4166.6</ele>
        <time>2015-08-30T03:56:06Z</time>
      </trkpt>
      <trkpt lat="34.13284" lon="77.05595">
        <ele>4167.6</ele>
        <time>2015-08-30T03:56:23Z</time>
      </trkpt>
      <trkpt lat="34.13279" lon="77.05601">
        <ele>4168.6</ele>
        <time>2015-08-30T03:56:37Z</time>
      </trkpt>
      <trkpt lat="34.13275" lon="77.05589">
        <ele>4169</ele>
        <time>2015-08-30T03:56:44Z</time>
      </trkpt>
      <trkpt lat="34.13274" lon="77.05589">
        <ele>4169.2</ele>
        <time>2015-08-30T03:56:47Z</time>
      </trkpt>
      <trkpt lat="34.13269" lon="77.05587">
        <ele>4169.6</ele>
        <time>2015-08-30T03:56:55Z</time>
      </trkpt>
      <trkpt lat="34.13263" lon="77.05606">
        <ele>4170.6</ele>
        <time>2015-08-30T03:57:10Z</time>
      </trkpt>
      <trkpt lat="34.13265" lon="77.05612">
        <ele>4170.6</ele>
        <time>2015-08-30T03:57:14Z</time>
      </trkpt>
      <trkpt lat="34.13268" lon="77.05622">
        <ele>4171.4</ele>
        <time>2015-08-30T03:57:26Z</time>
      </trkpt>
      <trkpt lat="34.13269" lon="77.05623">
        <ele>4171.8</ele>
        <time>2015-08-30T03:57:29Z</time>
      </trkpt>
      <trkpt lat="34.13261" lon="77.05635">
        <ele>4171.8</ele>
        <time>2015-08-30T03:57:57Z</time>
      </trkpt>
      <trkpt lat="34.13255" lon="77.05654">
        <ele>4172.6</ele>
        <time>2015-08-30T03:58:22Z</time>
      </trkpt>
      <trkpt lat="34.13253" lon="77.05658">
        <ele>4172.8</ele>
        <time>2015-08-30T03:58:27Z</time>
      </trkpt>
      <trkpt lat="34.13253" lon="77.05666">
        <ele>4172.6</ele>
        <time>2015-08-30T03:58:34Z</time>
      </trkpt>
      <trkpt lat="34.13253" lon="77.0567">
        <ele>4172.6</ele>
        <time>2015-08-30T03:58:37Z</time>
      </trkpt>
      <trkpt lat="34.13244" lon="77.05689">
        <ele>4172.8</ele>
        <time>2015-08-30T03:59:02Z</time>
      </trkpt>
      <trkpt lat="34.13239" lon="77.05703">
        <ele>4171.8</ele>
        <time>2015-08-30T03:59:16Z</time>
      </trkpt>
      <trkpt lat="34.13233" lon="77.05723">
        <ele>4171</ele>
        <time>2015-08-30T03:59:36Z</time>
      </trkpt>
      <trkpt lat="34.1323" lon="77.05731">
        <ele>4171.2</ele>
        <time>2015-08-30T03:59:43Z</time>
      </trkpt>
      <trkpt lat="34.13235" lon="77.05735">
        <ele>4170.6</ele>
        <time>2015-08-30T04:00:07Z</time>
      </trkpt>
      <trkpt lat="34.13235" lon="77.05736">
        <ele>4170.6</ele>
        <time>2015-08-30T04:00:08Z</time>
      </trkpt>
      <trkpt lat="34.13235" lon="77.05738">
        <ele>4170.4</ele>
        <time>2015-08-30T04:00:10Z</time>
      </trkpt>
      <trkpt lat="34.13233" lon="77.05747">
        <ele>4170.4</ele>
        <time>2015-08-30T04:00:21Z</time>
      </trkpt>
      <trkpt lat="34.13231" lon="77.05756">
        <ele>4169.6</ele>
        <time>2015-08-30T04:00:32Z</time>
      </trkpt>
      <trkpt lat="34.13221" lon="77.05776">
        <ele>4170.2</ele>
        <time>2015-08-30T04:00:52Z</time>
      </trkpt>
      <trkpt lat="34.13213" lon="77.05795">
        <ele>4169.8</ele>
        <time>2015-08-30T04:01:14Z</time>
      </trkpt>
      <trkpt lat="34.13209" lon="77.05811">
        <ele>4168.6</ele>
        <time>2015-08-30T04:01:26Z</time>
      </trkpt>
      <trkpt lat="34.13206" lon="77.05835">
        <ele>4168.4</ele>
        <time>2015-08-30T04:01:42Z</time>
      </trkpt>
      <trkpt lat="34.13198" lon="77.05855">
        <ele>4168.4</ele>
        <time>2015-08-30T04:01:59Z</time>
      </trkpt>
      <trkpt lat="34.13194" lon="77.05878">
        <ele>4169</ele>
        <time>2015-08-30T04:02:15Z</time>
      </trkpt>
      <trkpt lat="34.13191" lon="77.059">
        <ele>4168.8</ele>
        <time>2015-08-30T04:02:32Z</time>
      </trkpt>
      <trkpt lat="34.13186" lon="77.05908">
        <ele>4167.2</ele>
        <time>2015-08-30T04:02:49Z</time>
      </trkpt>
      <trkpt lat="34.13184" lon="77.05908">
        <ele>4166</ele>
        <time>2015-08-30T04:02:54Z</time>
      </trkpt>
      <trkpt lat="34.1318" lon="77.05909">
        <ele>4165</ele>
        <time>2015-08-30T04:03:00Z</time>
      </trkpt>
      <trkpt lat="34.13175" lon="77.05909">
        <ele>4163.8</ele>
        <time>2015-08-30T04:03:07Z</time>
      </trkpt>
      <trkpt lat="34.13172" lon="77.05908">
        <ele>4162.8</ele>
        <time>2015-08-30T04:03:12Z</time>
      </trkpt>
      <trkpt lat="34.13169" lon="77.05909">
        <ele>4161.6</ele>
        <time>2015-08-30T04:03:18Z</time>
      </trkpt>
      <trkpt lat="34.13164" lon="77.05909">
        <ele>4160.6</ele>
        <time>2015-08-30T04:03:27Z</time>
      </trkpt>
      <trkpt lat="34.13158" lon="77.05908">
        <ele>4159.4</ele>
        <time>2015-08-30T04:03:36Z</time>
      </trkpt>
      <trkpt lat="34.13153" lon="77.0591">
        <ele>4158.2</ele>
        <time>2015-08-30T04:03:41Z</time>
      </trkpt>
      <trkpt lat="34.1315" lon="77.05912">
        <ele>4158</ele>
        <time>2015-08-30T04:03:43Z</time>
      </trkpt>
      <trkpt lat="34.13146" lon="77.05916">
        <ele>4157.2</ele>
        <time>2015-08-30T04:03:49Z</time>
      </trkpt>
      <trkpt lat="34.13154" lon="77.05926">
        <ele>4157.4</ele>
        <time>2015-08-30T04:04:04Z</time>
      </trkpt>
      <trkpt lat="34.13155" lon="77.05932">
        <ele>4158.2</ele>
        <time>2015-08-30T04:04:11Z</time>
      </trkpt>
      <trkpt lat="34.13157" lon="77.05953">
        <ele>4158.6</ele>
        <time>2015-08-30T04:04:30Z</time>
      </trkpt>
      <trkpt lat="34.13164" lon="77.0597">
        <ele>4158</ele>
        <time>2015-08-30T04:04:54Z</time>
      </trkpt>
      <trkpt lat="34.1317" lon="77.05971">
        <ele>4157.6</ele>
        <time>2015-08-30T04:06:07Z</time>
      </trkpt>
      <trkpt lat="34.13163" lon="77.05975">
        <ele>4157</ele>
        <time>2015-08-30T04:06:20Z</time>
      </trkpt>
      <trkpt lat="34.13165" lon="77.05982">
        <ele>4156.8</ele>
        <time>2015-08-30T04:06:25Z</time>
      </trkpt>
      <trkpt lat="34.13166" lon="77.06004">
        <ele>4156.8</ele>
        <time>2015-08-30T04:06:46Z</time>
      </trkpt>
      <trkpt lat="34.13169" lon="77.0602">
        <ele>4156</ele>
        <time>2015-08-30T04:07:01Z</time>
      </trkpt>
      <trkpt lat="34.13165" lon="77.06041">
        <ele>4155.8</ele>
        <time>2015-08-30T04:07:19Z</time>
      </trkpt>
      <trkpt lat="34.13163" lon="77.06057">
        <ele>4155</ele>
        <time>2015-08-30T04:07:31Z</time>
      </trkpt>
      <trkpt lat="34.13157" lon="77.06065">
        <ele>4153.8</ele>
        <time>2015-08-30T04:07:41Z</time>
      </trkpt>
      <trkpt lat="34.13153" lon="77.06081">
        <ele>4152.8</ele>
        <time>2015-08-30T04:07:56Z</time>
      </trkpt>
      <trkpt lat="34.13151" lon="77.06092">
        <ele>4151.8</ele>
        <time>2015-08-30T04:08:05Z</time>
      </trkpt>
      <trkpt lat="34.13144" lon="77.06105">
        <ele>4151</ele>
        <time>2015-08-30T04:08:27Z</time>
      </trkpt>
      <trkpt lat="34.13146" lon="77.06109">
        <ele>4150.6</ele>
        <time>2015-08-30T04:08:39Z</time>
      </trkpt>
      <trkpt lat="34.13146" lon="77.06108">
        <ele>4151.2</ele>
        <time>2015-08-30T04:09:30Z</time>
      </trkpt>
      <trkpt lat="34.13142" lon="77.06109">
        <ele>4151.2</ele>
        <time>2015-08-30T04:09:54Z</time>
      </trkpt>
      <trkpt lat="34.13139" lon="77.06119">
        <ele>4150.2</ele>
        <time>2015-08-30T04:10:07Z</time>
      </trkpt>
      <trkpt lat="34.13137" lon="77.06125">
        <ele>4149.6</ele>
        <time>2015-08-30T04:10:13Z</time>
      </trkpt>
      <trkpt lat="34.13136" lon="77.06128">
        <ele>4148.6</ele>
        <time>2015-08-30T04:10:19Z</time>
      </trkpt>
      <trkpt lat="34.13129" lon="77.06142">
        <ele>4147.6</ele>
        <time>2015-08-30T04:10:36Z</time>
      </trkpt>
      <trkpt lat="34.13128" lon="77.06144">
        <ele>4147.4</ele>
        <time>2015-08-30T04:10:40Z</time>
      </trkpt>
      <trkpt lat="34.13126" lon="77.06151">
        <ele>4146.4</ele>
        <time>2015-08-30T04:10:57Z</time>
      </trkpt>
      <trkpt lat="34.13122" lon="77.06157">
        <ele>4145.4</ele>
        <time>2015-08-30T04:11:16Z</time>
      </trkpt>
      <trkpt lat="34.1312" lon="77.06164">
        <ele>4144.8</ele>
        <time>2015-08-30T04:11:26Z</time>
      </trkpt>
      <trkpt lat="34.13119" lon="77.06169">
        <ele>4144.2</ele>
        <time>2015-08-30T04:11:30Z</time>
      </trkpt>
      <trkpt lat="34.13115" lon="77.06179">
        <ele>4143.2</ele>
        <time>2015-08-30T04:11:38Z</time>
      </trkpt>
      <trkpt lat="34.13102" lon="77.06195">
        <ele>4143.4</ele>
        <time>2015-08-30T04:11:54Z</time>
      </trkpt>
      <trkpt lat="34.13095" lon="77.06209">
        <ele>4142.2</ele>
        <time>2015-08-30T04:12:06Z</time>
      </trkpt>
      <trkpt lat="34.13089" lon="77.06216">
        <ele>4141.2</ele>
        <time>2015-08-30T04:12:14Z</time>
      </trkpt>
      <trkpt lat="34.13085" lon="77.06227">
        <ele>4139.8</ele>
        <time>2015-08-30T04:12:23Z</time>
      </trkpt>
      <trkpt lat="34.13081" lon="77.06232">
        <ele>4138.8</ele>
        <time>2015-08-30T04:12:28Z</time>
      </trkpt>
      <trkpt lat="34.13074" lon="77.06238">
        <ele>4137.8</ele>
        <time>2015-08-30T04:12:37Z</time>
      </trkpt>
      <trkpt lat="34.13068" lon="77.06246">
        <ele>4136.6</ele>
        <time>2015-08-30T04:12:47Z</time>
      </trkpt>
      <trkpt lat="34.13064" lon="77.06254">
        <ele>4135.4</ele>
        <time>2015-08-30T04:12:54Z</time>
      </trkpt>
      <trkpt lat="34.1306" lon="77.06259">
        <ele>4134.4</ele>
        <time>2015-08-30T04:13:00Z</time>
      </trkpt>
      <trkpt lat="34.13057" lon="77.06264">
        <ele>4133.4</ele>
        <time>2015-08-30T04:13:06Z</time>
      </trkpt>
      <trkpt lat="34.1305" lon="77.06273">
        <ele>4132.4</ele>
        <time>2015-08-30T04:13:16Z</time>
      </trkpt>
      <trkpt lat="34.13046" lon="77.0628">
        <ele>4131.2</ele>
        <time>2015-08-30T04:13:22Z</time>
      </trkpt>
      <trkpt lat="34.13043" lon="77.0628">
        <ele>4130.2</ele>
        <time>2015-08-30T04:13:26Z</time>
      </trkpt>
      <trkpt lat="34.13036" lon="77.06293">
        <ele>4129.2</ele>
        <time>2015-08-30T04:13:40Z</time>
      </trkpt>
      <trkpt lat="34.13028" lon="77.06301">
        <ele>4128.2</ele>
        <time>2015-08-30T04:13:52Z</time>
      </trkpt>
      <trkpt lat="34.13021" lon="77.06307">
        <ele>4127</ele>
        <time>2015-08-30T04:14:01Z</time>
      </trkpt>
      <trkpt lat="34.13005" lon="77.06317">
        <ele>4126.2</ele>
        <time>2015-08-30T04:14:20Z</time>
      </trkpt>
      <trkpt lat="34.13003" lon="77.06318">
        <ele>4126</ele>
        <time>2015-08-30T04:14:23Z</time>
      </trkpt>
      <trkpt lat="34.12988" lon="77.06333">
        <ele>4125.4</ele>
        <time>2015-08-30T04:14:39Z</time>
      </trkpt>
      <trkpt lat="34.12985" lon="77.06338">
        <ele>4125</ele>
        <time>2015-08-30T04:14:45Z</time>
      </trkpt>
      <trkpt lat="34.12982" lon="77.06342">
        <ele>4124</ele>
        <time>2015-08-30T04:14:51Z</time>
      </trkpt>
      <trkpt lat="34.12969" lon="77.06357">
        <ele>4123.2</ele>
        <time>2015-08-30T04:15:08Z</time>
      </trkpt>
      <trkpt lat="34.12966" lon="77.06359">
        <ele>4122.8</ele>
        <time>2015-08-30T04:15:11Z</time>
      </trkpt>
      <trkpt lat="34.12954" lon="77.06376">
        <ele>4122.4</ele>
        <time>2015-08-30T04:15:26Z</time>
      </trkpt>
      <trkpt lat="34.1295" lon="77.06381">
        <ele>4121.8</ele>
        <time>2015-08-30T04:15:33Z</time>
      </trkpt>
      <trkpt lat="34.12939" lon="77.06389">
        <ele>4120.8</ele>
        <time>2015-08-30T04:15:46Z</time>
      </trkpt>
      <trkpt lat="34.12935" lon="77.06386">
        <ele>4119.6</ele>
        <time>2015-08-30T04:15:52Z</time>
      </trkpt>
      <trkpt lat="34.12928" lon="77.06388">
        <ele>4118.6</ele>
        <time>2015-08-30T04:16:00Z</time>
      </trkpt>
      <trkpt lat="34.1292" lon="77.06392">
        <ele>4117.6</ele>
        <time>2015-08-30T04:16:10Z</time>
      </trkpt>
      <trkpt lat="34.12914" lon="77.06396">
        <ele>4116.6</ele>
        <time>2015-08-30T04:16:15Z</time>
      </trkpt>
      <trkpt lat="34.12913" lon="77.06396">
        <ele>4116.4</ele>
        <time>2015-08-30T04:16:17Z</time>
      </trkpt>
      <trkpt lat="34.1291" lon="77.06399">
        <ele>4116.4</ele>
        <time>2015-08-30T04:16:19Z</time>
      </trkpt>
      <trkpt lat="34.12905" lon="77.06399">
        <ele>4116</ele>
        <time>2015-08-30T04:16:27Z</time>
      </trkpt>
      <trkpt lat="34.12902" lon="77.06399">
        <ele>4115.4</ele>
        <time>2015-08-30T04:16:31Z</time>
      </trkpt>
      <trkpt lat="34.12898" lon="77.06396">
        <ele>4114.4</ele>
        <time>2015-08-30T04:16:38Z</time>
      </trkpt>
      <trkpt lat="34.12892" lon="77.064">
        <ele>4113.2</ele>
        <time>2015-08-30T04:16:46Z</time>
      </trkpt>
      <trkpt lat="34.12888" lon="77.06404">
        <ele>4112.6</ele>
        <time>2015-08-30T04:16:50Z</time>
      </trkpt>
      <trkpt lat="34.12887" lon="77.06404">
        <ele>4112.2</ele>
        <time>2015-08-30T04:16:51Z</time>
      </trkpt>
      <trkpt lat="34.12887" lon="77.06403">
        <ele>4111.6</ele>
        <time>2015-08-30T04:16:54Z</time>
      </trkpt>
      <trkpt lat="34.12886" lon="77.06404">
        <ele>4111.2</ele>
        <time>2015-08-30T04:16:57Z</time>
      </trkpt>
      <trkpt lat="34.12893" lon="77.06403">
        <ele>4110</ele>
        <time>2015-08-30T04:17:05Z</time>
      </trkpt>
      <trkpt lat="34.12899" lon="77.06405">
        <ele>4109.2</ele>
        <time>2015-08-30T04:17:17Z</time>
      </trkpt>
      <trkpt lat="34.12898" lon="77.06406">
        <ele>4109</ele>
        <time>2015-08-30T04:17:19Z</time>
      </trkpt>
      <trkpt lat="34.12896" lon="77.0641">
        <ele>4108</ele>
        <time>2015-08-30T04:17:24Z</time>
      </trkpt>
      <trkpt lat="34.12893" lon="77.06416">
        <ele>4106.8</ele>
        <time>2015-08-30T04:17:30Z</time>
      </trkpt>
      <trkpt lat="34.12893" lon="77.06417">
        <ele>4106.4</ele>
        <time>2015-08-30T04:17:32Z</time>
      </trkpt>
      <trkpt lat="34.12893" lon="77.06421">
        <ele>4105.8</ele>
        <time>2015-08-30T04:17:35Z</time>
      </trkpt>
      <trkpt lat="34.12894" lon="77.06422">
        <ele>4105.6</ele>
        <time>2015-08-30T04:17:36Z</time>
      </trkpt>
      <trkpt lat="34.12894" lon="77.06423">
        <ele>4105.4</ele>
        <time>2015-08-30T04:17:37Z</time>
      </trkpt>
      <trkpt lat="34.12897" lon="77.06432">
        <ele>4105</ele>
        <time>2015-08-30T04:17:47Z</time>
      </trkpt>
      <trkpt lat="34.1291" lon="77.06434">
        <ele>4106.2</ele>
        <time>2015-08-30T04:18:01Z</time>
      </trkpt>
      <trkpt lat="34.12911" lon="77.06458">
        <ele>4106.6</ele>
        <time>2015-08-30T04:18:19Z</time>
      </trkpt>
      <trkpt lat="34.12909" lon="77.06464">
        <ele>4106.6</ele>
        <time>2015-08-30T04:18:23Z</time>
      </trkpt>
      <trkpt lat="34.12895" lon="77.06478">
        <ele>4106.2</ele>
        <time>2015-08-30T04:18:48Z</time>
      </trkpt>
      <trkpt lat="34.1289" lon="77.0649">
        <ele>4105.6</ele>
        <time>2015-08-30T04:19:00Z</time>
      </trkpt>
      <trkpt lat="34.12883" lon="77.06501">
        <ele>4104.6</ele>
        <time>2015-08-30T04:19:10Z</time>
      </trkpt>
      <trkpt lat="34.12879" lon="77.06505">
        <ele>4103.6</ele>
        <time>2015-08-30T04:19:18Z</time>
      </trkpt>
      <trkpt lat="34.12871" lon="77.06511">
        <ele>4102.4</ele>
        <time>2015-08-30T04:19:27Z</time>
      </trkpt>
      <trkpt lat="34.12865" lon="77.0652">
        <ele>4101.2</ele>
        <time>2015-08-30T04:19:36Z</time>
      </trkpt>
      <trkpt lat="34.1286" lon="77.06525">
        <ele>4100.2</ele>
        <time>2015-08-30T04:19:42Z</time>
      </trkpt>
      <trkpt lat="34.12854" lon="77.06527">
        <ele>4099.2</ele>
        <time>2015-08-30T04:19:50Z</time>
      </trkpt>
      <trkpt lat="34.12842" lon="77.06531">
        <ele>4098.2</ele>
        <time>2015-08-30T04:20:04Z</time>
      </trkpt>
      <trkpt lat="34.12832" lon="77.0654">
        <ele>4097.2</ele>
        <time>2015-08-30T04:20:13Z</time>
      </trkpt>
      <trkpt lat="34.1282" lon="77.06556">
        <ele>4096.4</ele>
        <time>2015-08-30T04:20:30Z</time>
      </trkpt>
      <trkpt lat="34.12816" lon="77.06563">
        <ele>4096</ele>
        <time>2015-08-30T04:20:36Z</time>
      </trkpt>
      <trkpt lat="34.12812" lon="77.06569">
        <ele>4095</ele>
        <time>2015-08-30T04:20:41Z</time>
      </trkpt>
      <trkpt lat="34.12803" lon="77.06571">
        <ele>4094</ele>
        <time>2015-08-30T04:20:50Z</time>
      </trkpt>
      <trkpt lat="34.12796" lon="77.06569">
        <ele>4092.8</ele>
        <time>2015-08-30T04:21:00Z</time>
      </trkpt>
      <trkpt lat="34.12792" lon="77.06569">
        <ele>4091.8</ele>
        <time>2015-08-30T04:21:09Z</time>
      </trkpt>
      <trkpt lat="34.12789" lon="77.06576">
        <ele>4091.4</ele>
        <time>2015-08-30T04:21:20Z</time>
      </trkpt>
      <trkpt lat="34.12785" lon="77.06584">
        <ele>4090.8</ele>
        <time>2015-08-30T04:21:27Z</time>
      </trkpt>
      <trkpt lat="34.12783" lon="77.06586">
        <ele>4090.6</ele>
        <time>2015-08-30T04:21:29Z</time>
      </trkpt>
      <trkpt lat="34.12779" lon="77.06592">
        <ele>4089.6</ele>
        <time>2015-08-30T04:21:40Z</time>
      </trkpt>
      <trkpt lat="34.12777" lon="77.06594">
        <ele>4088.6</ele>
        <time>2015-08-30T04:21:44Z</time>
      </trkpt>
      <trkpt lat="34.12774" lon="77.066">
        <ele>4088</ele>
        <time>2015-08-30T04:21:50Z</time>
      </trkpt>
      <trkpt lat="34.1277" lon="77.06607">
        <ele>4087.6</ele>
        <time>2015-08-30T04:21:56Z</time>
      </trkpt>
      <trkpt lat="34.12764" lon="77.06621">
        <ele>4086.6</ele>
        <time>2015-08-30T04:22:06Z</time>
      </trkpt>
      <trkpt lat="34.12758" lon="77.06631">
        <ele>4085.4</ele>
        <time>2015-08-30T04:22:15Z</time>
      </trkpt>
      <trkpt lat="34.12752" lon="77.06633">
        <ele>4084.4</ele>
        <time>2015-08-30T04:22:22Z</time>
      </trkpt>
      <trkpt lat="34.12749" lon="77.06637">
        <ele>4083.2</ele>
        <time>2015-08-30T04:22:27Z</time>
      </trkpt>
      <trkpt lat="34.12746" lon="77.06642">
        <ele>4082.2</ele>
        <time>2015-08-30T04:22:33Z</time>
      </trkpt>
      <trkpt lat="34.12744" lon="77.06645">
        <ele>4081</ele>
        <time>2015-08-30T04:22:39Z</time>
      </trkpt>
      <trkpt lat="34.12739" lon="77.06649">
        <ele>4080</ele>
        <time>2015-08-30T04:22:47Z</time>
      </trkpt>
      <trkpt lat="34.1273" lon="77.06652">
        <ele>4079</ele>
        <time>2015-08-30T04:22:56Z</time>
      </trkpt>
      <trkpt lat="34.12729" lon="77.06655">
        <ele>4077.8</ele>
        <time>2015-08-30T04:23:03Z</time>
      </trkpt>
      <trkpt lat="34.12725" lon="77.06657">
        <ele>4076.6</ele>
        <time>2015-08-30T04:23:08Z</time>
      </trkpt>
      <trkpt lat="34.12723" lon="77.0666">
        <ele>4076.2</ele>
        <time>2015-08-30T04:23:11Z</time>
      </trkpt>
      <trkpt lat="34.1272" lon="77.06664">
        <ele>4075.4</ele>
        <time>2015-08-30T04:23:15Z</time>
      </trkpt>
      <trkpt lat="34.12718" lon="77.06666">
        <ele>4074.2</ele>
        <time>2015-08-30T04:23:19Z</time>
      </trkpt>
      <trkpt lat="34.12714" lon="77.06674">
        <ele>4073.2</ele>
        <time>2015-08-30T04:23:24Z</time>
      </trkpt>
      <trkpt lat="34.1271" lon="77.0668">
        <ele>4072</ele>
        <time>2015-08-30T04:23:31Z</time>
      </trkpt>
      <trkpt lat="34.12707" lon="77.06684">
        <ele>4071</ele>
        <time>2015-08-30T04:23:38Z</time>
      </trkpt>
      <trkpt lat="34.12695" lon="77.06697">
        <ele>4069.8</ele>
        <time>2015-08-30T04:23:50Z</time>
      </trkpt>
      <trkpt lat="34.12693" lon="77.06705">
        <ele>4068.6</ele>
        <time>2015-08-30T04:23:57Z</time>
      </trkpt>
      <trkpt lat="34.12691" lon="77.06716">
        <ele>4067.6</ele>
        <time>2015-08-30T04:24:09Z</time>
      </trkpt>
      <trkpt lat="34.12689" lon="77.0673">
        <ele>4066.6</ele>
        <time>2015-08-30T04:24:25Z</time>
      </trkpt>
      <trkpt lat="34.12688" lon="77.0673">
        <ele>4066.4</ele>
        <time>2015-08-30T04:24:27Z</time>
      </trkpt>
      <trkpt lat="34.12682" lon="77.06748">
        <ele>4065.6</ele>
        <time>2015-08-30T04:24:36Z</time>
      </trkpt>
      <trkpt lat="34.12672" lon="77.06761">
        <ele>4065</ele>
        <time>2015-08-30T04:24:45Z</time>
      </trkpt>
      <trkpt lat="34.12662" lon="77.06769">
        <ele>4064.4</ele>
        <time>2015-08-30T04:24:51Z</time>
      </trkpt>
      <trkpt lat="34.12654" lon="77.06773">
        <ele>4063.4</ele>
        <time>2015-08-30T04:24:57Z</time>
      </trkpt>
      <trkpt lat="34.12653" lon="77.06774">
        <ele>4063.2</ele>
        <time>2015-08-30T04:24:58Z</time>
      </trkpt>
      <trkpt lat="34.12649" lon="77.06779">
        <ele>4062.2</ele>
        <time>2015-08-30T04:25:03Z</time>
      </trkpt>
      <trkpt lat="34.12646" lon="77.0678">
        <ele>4061</ele>
        <time>2015-08-30T04:25:07Z</time>
      </trkpt>
      <trkpt lat="34.12647" lon="77.06783">
        <ele>4061.6</ele>
        <time>2015-08-30T04:25:19Z</time>
      </trkpt>
      <trkpt lat="34.12646" lon="77.06783">
        <ele>4061.8</ele>
        <time>2015-08-30T04:25:20Z</time>
      </trkpt>
      <trkpt lat="34.12645" lon="77.06784">
        <ele>4062</ele>
        <time>2015-08-30T04:25:21Z</time>
      </trkpt>
      <trkpt lat="34.12644" lon="77.06784">
        <ele>4062.2</ele>
        <time>2015-08-30T04:25:22Z</time>
      </trkpt>
      <trkpt lat="34.12642" lon="77.0678">
        <ele>4062.4</ele>
        <time>2015-08-30T04:25:25Z</time>
      </trkpt>
      <trkpt lat="34.1266" lon="77.06779">
        <ele>4061.4</ele>
        <time>2015-08-30T04:25:42Z</time>
      </trkpt>
      <trkpt lat="34.12661" lon="77.06777">
        <ele>4061.4</ele>
        <time>2015-08-30T04:25:46Z</time>
      </trkpt>
      <trkpt lat="34.12662" lon="77.06774">
        <ele>4061</ele>
        <time>2015-08-30T04:25:51Z</time>
      </trkpt>
      <trkpt lat="34.12659" lon="77.068">
        <ele>4060.6</ele>
        <time>2015-08-30T04:26:04Z</time>
      </trkpt>
      <trkpt lat="34.12657" lon="77.06806">
        <ele>4060.6</ele>
        <time>2015-08-30T04:26:07Z</time>
      </trkpt>
      <trkpt lat="34.12647" lon="77.06814">
        <ele>4061.2</ele>
        <time>2015-08-30T04:26:17Z</time>
      </trkpt>
      <trkpt lat="34.12648" lon="77.06795">
        <ele>4060.8</ele>
        <time>2015-08-30T04:26:23Z</time>
      </trkpt>
      <trkpt lat="34.12649" lon="77.06789">
        <ele>4061</ele>
        <time>2015-08-30T04:26:27Z</time>
      </trkpt>
      <trkpt lat="34.1265" lon="77.06787">
        <ele>4061</ele>
        <time>2015-08-30T04:26:29Z</time>
      </trkpt>
      <trkpt lat="34.1265" lon="77.06792">
        <ele>4061.4</ele>
        <time>2015-08-30T04:28:12Z</time>
      </trkpt>
      <trkpt lat="34.12649" lon="77.06787">
        <ele>4061.4</ele>
        <time>2015-08-30T04:28:13Z</time>
      </trkpt>
      <trkpt lat="34.12649" lon="77.06796">
        <ele>4061.6</ele>
        <time>2015-08-30T04:28:33Z</time>
      </trkpt>
      <trkpt lat="34.12657" lon="77.06797">
        <ele>4061.6</ele>
        <time>2015-08-30T04:28:44Z</time>
      </trkpt>
      <trkpt lat="34.12659" lon="77.06799">
        <ele>4061.6</ele>
        <time>2015-08-30T04:28:47Z</time>
      </trkpt>
      <trkpt lat="34.1266" lon="77.06793">
        <ele>4061.8</ele>
        <time>2015-08-30T04:29:00Z</time>
      </trkpt>
      <trkpt lat="34.1265" lon="77.06791">
        <ele>4061.8</ele>
        <time>2015-08-30T04:29:49Z</time>
      </trkpt>
      <trkpt lat="34.12648" lon="77.06795">
        <ele>4061.8</ele>
        <time>2015-08-30T04:29:52Z</time>
      </trkpt>
      <trkpt lat="34.12647" lon="77.06801">
        <ele>4062</ele>
        <time>2015-08-30T04:30:10Z</time>
      </trkpt>
      <trkpt lat="34.12648" lon="77.06798">
        <ele>4062</ele>
        <time>2015-08-30T04:30:11Z</time>
      </trkpt>
      <trkpt lat="34.12648" lon="77.06798">
        <ele>4062</ele>
        <time>2015-08-30T04:30:12Z</time>
      </trkpt>
      <trkpt lat="34.12646" lon="77.06806">
        <ele>4062.6</ele>
        <time>2015-08-30T04:30:31Z</time>
      </trkpt>
      <trkpt lat="34.12646" lon="77.06811">
        <ele>4062.8</ele>
        <time>2015-08-30T04:30:42Z</time>
      </trkpt>
      <trkpt lat="34.12642" lon="77.06828">
        <ele>4063</ele>
        <time>2015-08-30T04:31:03Z</time>
      </trkpt>
      <trkpt lat="34.1264" lon="77.06829">
        <ele>4063.4</ele>
        <time>2015-08-30T04:31:08Z</time>
      </trkpt>
      <trkpt lat="34.12637" lon="77.06827">
        <ele>4063.4</ele>
        <time>2015-08-30T04:31:12Z</time>
      </trkpt>
      <trkpt lat="34.12634" lon="77.0683">
        <ele>4064</ele>
        <time>2015-08-30T04:31:21Z</time>
      </trkpt>
      <trkpt lat="34.12642" lon="77.06792">
        <ele>4065</ele>
        <time>2015-08-30T04:31:44Z</time>
      </trkpt>
      <trkpt lat="34.12642" lon="77.06793">
        <ele>4066</ele>
        <time>2015-08-30T04:32:11Z</time>
      </trkpt>
      <trkpt lat="34.12643" lon="77.06794">
        <ele>4066.2</ele>
        <time>2015-08-30T04:32:12Z</time>
      </trkpt>
      <trkpt lat="34.12646" lon="77.06792">
        <ele>4066.4</ele>
        <time>2015-08-30T04:32:15Z</time>
      </trkpt>
      <trkpt lat="34.12654" lon="77.06787">
        <ele>4066.2</ele>
        <time>2015-08-30T04:32:27Z</time>
      </trkpt>
      <trkpt lat="34.12655" lon="77.06786">
        <ele>4066.2</ele>
        <time>2015-08-30T04:32:29Z</time>
      </trkpt>
      <trkpt lat="34.12648" lon="77.0678">
        <ele>4066</ele>
        <time>2015-08-30T04:32:46Z</time>
      </trkpt>
      <trkpt lat="34.12655" lon="77.06769">
        <ele>4065.8</ele>
        <time>2015-08-30T04:32:55Z</time>
      </trkpt>
      <trkpt lat="34.12656" lon="77.06765">
        <ele>4065.8</ele>
        <time>2015-08-30T04:32:57Z</time>
      </trkpt>
      <trkpt lat="34.12657" lon="77.06764">
        <ele>4065.8</ele>
        <time>2015-08-30T04:33:11Z</time>
      </trkpt>
      <trkpt lat="34.12645" lon="77.06788">
        <ele>4065</ele>
        <time>2015-08-30T04:33:26Z</time>
      </trkpt>
      <trkpt lat="34.12639" lon="77.06798">
        <ele>4064.4</ele>
        <time>2015-08-30T04:33:32Z</time>
      </trkpt>
      <trkpt lat="34.12635" lon="77.06803">
        <ele>4064</ele>
        <time>2015-08-30T04:33:35Z</time>
      </trkpt>
      <trkpt lat="34.1263" lon="77.06811">
        <ele>4063.8</ele>
        <time>2015-08-30T04:33:38Z</time>
      </trkpt>
      <trkpt lat="34.12612" lon="77.06816">
        <ele>4063.2</ele>
        <time>2015-08-30T04:33:49Z</time>
      </trkpt>
      <trkpt lat="34.12611" lon="77.06816">
        <ele>4063</ele>
        <time>2015-08-30T04:33:51Z</time>
      </trkpt>
      <trkpt lat="34.12609" lon="77.06834">
        <ele>4062.4</ele>
        <time>2015-08-30T04:34:06Z</time>
      </trkpt>
      <trkpt lat="34.1261" lon="77.06837">
        <ele>4061.8</ele>
        <time>2015-08-30T04:34:13Z</time>
      </trkpt>
      <trkpt lat="34.1261" lon="77.06841">
        <ele>4061.2</ele>
        <time>2015-08-30T04:34:16Z</time>
      </trkpt>
      <trkpt lat="34.12591" lon="77.06851">
        <ele>4061.4</ele>
        <time>2015-08-30T04:34:28Z</time>
      </trkpt>
      <trkpt lat="34.12551" lon="77.06857">
        <ele>4061.2</ele>
        <time>2015-08-30T04:34:33Z</time>
      </trkpt>
      <trkpt lat="34.1255" lon="77.06861">
        <ele>4061.8</ele>
        <time>2015-08-30T04:34:38Z</time>
      </trkpt>
      <trkpt lat="34.12583" lon="77.06882">
        <ele>4062.8</ele>
        <time>2015-08-30T04:34:42Z</time>
      </trkpt>
      <trkpt lat="34.12582" lon="77.06884">
        <ele>4063</ele>
        <time>2015-08-30T04:34:43Z</time>
      </trkpt>
      <trkpt lat="34.12581" lon="77.06885">
        <ele>4063.2</ele>
        <time>2015-08-30T04:34:44Z</time>
      </trkpt>
      <trkpt lat="34.12582" lon="77.06887">
        <ele>4064</ele>
        <time>2015-08-30T04:34:49Z</time>
      </trkpt>
      <trkpt lat="34.1258" lon="77.06889">
        <ele>4064.4</ele>
        <time>2015-08-30T04:34:54Z</time>
      </trkpt>
      <trkpt lat="34.12576" lon="77.06886">
        <ele>4064.4</ele>
        <time>2015-08-30T04:34:59Z</time>
      </trkpt>
      <trkpt lat="34.12568" lon="77.06881">
        <ele>4064.2</ele>
        <time>2015-08-30T04:35:10Z</time>
      </trkpt>
      <trkpt lat="34.12565" lon="77.0688">
        <ele>4064.4</ele>
        <time>2015-08-30T04:35:12Z</time>
      </trkpt>
      <trkpt lat="34.12562" lon="77.06882">
        <ele>4064.8</ele>
        <time>2015-08-30T04:35:15Z</time>
      </trkpt>
      <trkpt lat="34.12555" lon="77.06891">
        <ele>4064.2</ele>
        <time>2015-08-30T04:35:22Z</time>
      </trkpt>
      <trkpt lat="34.12549" lon="77.06896">
        <ele>4063.4</ele>
        <time>2015-08-30T04:35:27Z</time>
      </trkpt>
      <trkpt lat="34.12545" lon="77.06898">
        <ele>4063.4</ele>
        <time>2015-08-30T04:35:31Z</time>
      </trkpt>
      <trkpt lat="34.12539" lon="77.06897">
        <ele>4062.8</ele>
        <time>2015-08-30T04:35:35Z</time>
      </trkpt>
      <trkpt lat="34.12538" lon="77.06897">
        <ele>4062.8</ele>
        <time>2015-08-30T04:35:37Z</time>
      </trkpt>
      <trkpt lat="34.12535" lon="77.06896">
        <ele>4062.8</ele>
        <time>2015-08-30T04:35:40Z</time>
      </trkpt>
      <trkpt lat="34.12533" lon="77.06895">
        <ele>4062.8</ele>
        <time>2015-08-30T04:35:42Z</time>
      </trkpt>
      <trkpt lat="34.12527" lon="77.06897">
        <ele>4063</ele>
        <time>2015-08-30T04:35:47Z</time>
      </trkpt>
      <trkpt lat="34.12529" lon="77.06895">
        <ele>4063</ele>
        <time>2015-08-30T04:35:49Z</time>
      </trkpt>
      <trkpt lat="34.12533" lon="77.06892">
        <ele>4063.4</ele>
        <time>2015-08-30T04:35:51Z</time>
      </trkpt>
      <trkpt lat="34.12538" lon="77.06889">
        <ele>4063.8</ele>
        <time>2015-08-30T04:35:54Z</time>
      </trkpt>
      <trkpt lat="34.12538" lon="77.06889">
        <ele>4064</ele>
        <time>2015-08-30T04:35:55Z</time>
      </trkpt>
      <trkpt lat="34.12537" lon="77.06889">
        <ele>4064.2</ele>
        <time>2015-08-30T04:35:57Z</time>
      </trkpt>
      <trkpt lat="34.12548" lon="77.06881">
        <ele>4064.4</ele>
        <time>2015-08-30T04:36:01Z</time>
      </trkpt>
      <trkpt lat="34.12552" lon="77.06876">
        <ele>4064.4</ele>
        <time>2015-08-30T04:36:09Z</time>
      </trkpt>
      <trkpt lat="34.12555" lon="77.06874">
        <ele>4063</ele>
        <time>2015-08-30T04:36:45Z</time>
      </trkpt>
      <trkpt lat="34.12549" lon="77.06878">
        <ele>4063</ele>
        <time>2015-08-30T04:36:53Z</time>
      </trkpt>
      <trkpt lat="34.12552" lon="77.06867">
        <ele>4063</ele>
        <time>2015-08-30T04:37:14Z</time>
      </trkpt>
      <trkpt lat="34.12551" lon="77.06865">
        <ele>4061.8</ele>
        <time>2015-08-30T04:37:19Z</time>
      </trkpt>
      <trkpt lat="34.12546" lon="77.06866">
        <ele>4061.2</ele>
        <time>2015-08-30T04:37:25Z</time>
      </trkpt>
      <trkpt lat="34.1254" lon="77.06866">
        <ele>4060.8</ele>
        <time>2015-08-30T04:37:31Z</time>
      </trkpt>
      <trkpt lat="34.12539" lon="77.06865">
        <ele>4060.6</ele>
        <time>2015-08-30T04:37:33Z</time>
      </trkpt>
      <trkpt lat="34.12536" lon="77.06866">
        <ele>4060.4</ele>
        <time>2015-08-30T04:37:37Z</time>
      </trkpt>
      <trkpt lat="34.12534" lon="77.06866">
        <ele>4060.4</ele>
        <time>2015-08-30T04:37:39Z</time>
      </trkpt>
      <trkpt lat="34.12531" lon="77.06866">
        <ele>4060.4</ele>
        <time>2015-08-30T04:37:43Z</time>
      </trkpt>
      <trkpt lat="34.12526" lon="77.06865">
        <ele>4060.2</ele>
        <time>2015-08-30T04:37:47Z</time>
      </trkpt>
      <trkpt lat="34.12525" lon="77.06864">
        <ele>4060.4</ele>
        <time>2015-08-30T04:37:49Z</time>
      </trkpt>
      <trkpt lat="34.12508" lon="77.06875">
        <ele>4060.6</ele>
        <time>2015-08-30T04:38:04Z</time>
      </trkpt>
      <trkpt lat="34.12504" lon="77.0688">
        <ele>4060.2</ele>
        <time>2015-08-30T04:38:07Z</time>
      </trkpt>
      <trkpt lat="34.12493" lon="77.06891">
        <ele>4059.8</ele>
        <time>2015-08-30T04:38:15Z</time>
      </trkpt>
      <trkpt lat="34.12481" lon="77.0691">
        <ele>4059.4</ele>
        <time>2015-08-30T04:38:23Z</time>
      </trkpt>
      <trkpt lat="34.12477" lon="77.0691">
        <ele>4058.6</ele>
        <time>2015-08-30T04:38:29Z</time>
      </trkpt>
      <trkpt lat="34.12473" lon="77.06918">
        <ele>4058.8</ele>
        <time>2015-08-30T04:38:42Z</time>
      </trkpt>
      <trkpt lat="34.12474" lon="77.0692">
        <ele>4058.8</ele>
        <time>2015-08-30T04:38:44Z</time>
      </trkpt>
      <trkpt lat="34.1247" lon="77.06921">
        <ele>4059.2</ele>
        <time>2015-08-30T04:38:47Z</time>
      </trkpt>
      <trkpt lat="34.12469" lon="77.06923">
        <ele>4059.4</ele>
        <time>2015-08-30T04:38:49Z</time>
      </trkpt>
      <trkpt lat="34.12467" lon="77.06924">
        <ele>4059.4</ele>
        <time>2015-08-30T04:38:52Z</time>
      </trkpt>
      <trkpt lat="34.12462" lon="77.06926">
        <ele>4059.4</ele>
        <time>2015-08-30T04:38:57Z</time>
      </trkpt>
      <trkpt lat="34.1246" lon="77.06924">
        <ele>4059.4</ele>
        <time>2015-08-30T04:39:00Z</time>
      </trkpt>
      <trkpt lat="34.12459" lon="77.06923">
        <ele>4059.4</ele>
        <time>2015-08-30T04:39:02Z</time>
      </trkpt>
      <trkpt lat="34.12458" lon="77.06922">
        <ele>4059.4</ele>
        <time>2015-08-30T04:39:04Z</time>
      </trkpt>
      <trkpt lat="34.12458" lon="77.06916">
        <ele>4059.2</ele>
        <time>2015-08-30T04:39:08Z</time>
      </trkpt>
      <trkpt lat="34.12451" lon="77.06921">
        <ele>4059</ele>
        <time>2015-08-30T04:39:13Z</time>
      </trkpt>
      <trkpt lat="34.12444" lon="77.06925">
        <ele>4058.6</ele>
        <time>2015-08-30T04:39:17Z</time>
      </trkpt>
      <trkpt lat="34.12443" lon="77.06924">
        <ele>4058.4</ele>
        <time>2015-08-30T04:39:19Z</time>
      </trkpt>
      <trkpt lat="34.12439" lon="77.06926">
        <ele>4058</ele>
        <time>2015-08-30T04:39:22Z</time>
      </trkpt>
      <trkpt lat="34.12436" lon="77.06927">
        <ele>4057.8</ele>
        <time>2015-08-30T04:39:24Z</time>
      </trkpt>
      <trkpt lat="34.12435" lon="77.06929">
        <ele>4057.6</ele>
        <time>2015-08-30T04:39:25Z</time>
      </trkpt>
      <trkpt lat="34.12434" lon="77.06929">
        <ele>4057.6</ele>
        <time>2015-08-30T04:39:27Z</time>
      </trkpt>
      <trkpt lat="34.12433" lon="77.06928">
        <ele>4057.2</ele>
        <time>2015-08-30T04:39:30Z</time>
      </trkpt>
      <trkpt lat="34.12431" lon="77.06947">
        <ele>4056.8</ele>
        <time>2015-08-30T04:39:52Z</time>
      </trkpt>
      <trkpt lat="34.12428" lon="77.06949">
        <ele>4056.6</ele>
        <time>2015-08-30T04:39:54Z</time>
      </trkpt>
      <trkpt lat="34.12416" lon="77.06953">
        <ele>4055.4</ele>
        <time>2015-08-30T04:40:05Z</time>
      </trkpt>
      <trkpt lat="34.12412" lon="77.06959">
        <ele>4054.4</ele>
        <time>2015-08-30T04:40:12Z</time>
      </trkpt>
      <trkpt lat="34.12407" lon="77.06961">
        <ele>4053.2</ele>
        <time>2015-08-30T04:40:17Z</time>
      </trkpt>
      <trkpt lat="34.12404" lon="77.06962">
        <ele>4052.8</ele>
        <time>2015-08-30T04:40:20Z</time>
      </trkpt>
      <trkpt lat="34.12401" lon="77.06962">
        <ele>4052.6</ele>
        <time>2015-08-30T04:40:22Z</time>
      </trkpt>
      <trkpt lat="34.12389" lon="77.0697">
        <ele>4052.2</ele>
        <time>2015-08-30T04:40:29Z</time>
      </trkpt>
      <trkpt lat="34.12386" lon="77.06971">
        <ele>4051.8</ele>
        <time>2015-08-30T04:40:33Z</time>
      </trkpt>
      <trkpt lat="34.12381" lon="77.06977">
        <ele>4051.8</ele>
        <time>2015-08-30T04:40:37Z</time>
      </trkpt>
      <trkpt lat="34.12377" lon="77.0698">
        <ele>4051.2</ele>
        <time>2015-08-30T04:40:43Z</time>
      </trkpt>
      <trkpt lat="34.12374" lon="77.06981">
        <ele>4050.2</ele>
        <time>2015-08-30T04:40:48Z</time>
      </trkpt>
      <trkpt lat="34.12371" lon="77.06982">
        <ele>4050</ele>
        <time>2015-08-30T04:40:50Z</time>
      </trkpt>
      <trkpt lat="34.12369" lon="77.06982">
        <ele>4050</ele>
        <time>2015-08-30T04:40:52Z</time>
      </trkpt>
      <trkpt lat="34.12367" lon="77.06983">
        <ele>4050.2</ele>
        <time>2015-08-30T04:40:54Z</time>
      </trkpt>
      <trkpt lat="34.12364" lon="77.06986">
        <ele>4050.4</ele>
        <time>2015-08-30T04:40:56Z</time>
      </trkpt>
      <trkpt lat="34.12359" lon="77.06991">
        <ele>4050.8</ele>
        <time>2015-08-30T04:41:03Z</time>
      </trkpt>
      <trkpt lat="34.12352" lon="77.06994">
        <ele>4050.8</ele>
        <time>2015-08-30T04:41:12Z</time>
      </trkpt>
      <trkpt lat="34.12351" lon="77.06992">
        <ele>4050.8</ele>
        <time>2015-08-30T04:41:14Z</time>
      </trkpt>
      <trkpt lat="34.12336" lon="77.0701">
        <ele>4050</ele>
        <time>2015-08-30T04:41:21Z</time>
      </trkpt>
      <trkpt lat="34.12329" lon="77.07017">
        <ele>4049.6</ele>
        <time>2015-08-30T04:41:25Z</time>
      </trkpt>
      <trkpt lat="34.12318" lon="77.07019">
        <ele>4049.8</ele>
        <time>2015-08-30T04:41:33Z</time>
      </trkpt>
      <trkpt lat="34.12317" lon="77.07019">
        <ele>4049.8</ele>
        <time>2015-08-30T04:41:35Z</time>
      </trkpt>
      <trkpt lat="34.1231" lon="77.07018">
        <ele>4049.2</ele>
        <time>2015-08-30T04:41:42Z</time>
      </trkpt>
      <trkpt lat="34.12306" lon="77.07018">
        <ele>4048.4</ele>
        <time>2015-08-30T04:41:46Z</time>
      </trkpt>
      <trkpt lat="34.12306" lon="77.07018">
        <ele>4048.2</ele>
        <time>2015-08-30T04:41:50Z</time>
      </trkpt>
      <trkpt lat="34.12295" lon="77.07033">
        <ele>4047.2</ele>
        <time>2015-08-30T04:42:11Z</time>
      </trkpt>
      <trkpt lat="34.12294" lon="77.07033">
        <ele>4047</ele>
        <time>2015-08-30T04:42:13Z</time>
      </trkpt>
      <trkpt lat="34.1229" lon="77.07033">
        <ele>4047</ele>
        <time>2015-08-30T04:42:18Z</time>
      </trkpt>
      <trkpt lat="34.12281" lon="77.0704">
        <ele>4046.4</ele>
        <time>2015-08-30T04:42:30Z</time>
      </trkpt>
      <trkpt lat="34.12279" lon="77.07043">
        <ele>4046.2</ele>
        <time>2015-08-30T04:42:33Z</time>
      </trkpt>
      <trkpt lat="34.12274" lon="77.07047">
        <ele>4045.4</ele>
        <time>2015-08-30T04:42:39Z</time>
      </trkpt>
      <trkpt lat="34.1227" lon="77.0705">
        <ele>4045.2</ele>
        <time>2015-08-30T04:42:43Z</time>
      </trkpt>
      <trkpt lat="34.12267" lon="77.0705">
        <ele>4045</ele>
        <time>2015-08-30T04:42:45Z</time>
      </trkpt>
      <trkpt lat="34.12266" lon="77.07051">
        <ele>4045</ele>
        <time>2015-08-30T04:42:46Z</time>
      </trkpt>
      <trkpt lat="34.12249" lon="77.07069">
        <ele>4044</ele>
        <time>2015-08-30T04:42:55Z</time>
      </trkpt>
      <trkpt lat="34.1224" lon="77.07073">
        <ele>4043</ele>
        <time>2015-08-30T04:43:04Z</time>
      </trkpt>
      <trkpt lat="34.12227" lon="77.07078">
        <ele>4041.8</ele>
        <time>2015-08-30T04:43:15Z</time>
      </trkpt>
      <trkpt lat="34.12223" lon="77.0708">
        <ele>4041.4</ele>
        <time>2015-08-30T04:43:18Z</time>
      </trkpt>
      <trkpt lat="34.1222" lon="77.07081">
        <ele>4040.8</ele>
        <time>2015-08-30T04:43:23Z</time>
      </trkpt>
      <trkpt lat="34.12217" lon="77.07091">
        <ele>4039.6</ele>
        <time>2015-08-30T04:43:33Z</time>
      </trkpt>
      <trkpt lat="34.12215" lon="77.0709">
        <ele>4039.6</ele>
        <time>2015-08-30T04:43:35Z</time>
      </trkpt>
      <trkpt lat="34.1221" lon="77.0709">
        <ele>4038.6</ele>
        <time>2015-08-30T04:43:40Z</time>
      </trkpt>
      <trkpt lat="34.12207" lon="77.07089">
        <ele>4038.4</ele>
        <time>2015-08-30T04:43:43Z</time>
      </trkpt>
      <trkpt lat="34.12197" lon="77.07091">
        <ele>4037.6</ele>
        <time>2015-08-30T04:43:49Z</time>
      </trkpt>
      <trkpt lat="34.12193" lon="77.07091">
        <ele>4036.8</ele>
        <time>2015-08-30T04:43:55Z</time>
      </trkpt>
      <trkpt lat="34.12193" lon="77.07094">
        <ele>4036.4</ele>
        <time>2015-08-30T04:43:58Z</time>
      </trkpt>
      <trkpt lat="34.1219" lon="77.07095">
        <ele>4035.8</ele>
        <time>2015-08-30T04:44:00Z</time>
      </trkpt>
      <trkpt lat="34.1219" lon="77.07095">
        <ele>4035.4</ele>
        <time>2015-08-30T04:44:02Z</time>
      </trkpt>
      <trkpt lat="34.1219" lon="77.07093">
        <ele>4035.2</ele>
        <time>2015-08-30T04:44:03Z</time>
      </trkpt>
      <trkpt lat="34.12187" lon="77.0709">
        <ele>4034.2</ele>
        <time>2015-08-30T04:44:08Z</time>
      </trkpt>
      <trkpt lat="34.12185" lon="77.07091">
        <ele>4033.6</ele>
        <time>2015-08-30T04:44:10Z</time>
      </trkpt>
      <trkpt lat="34.12184" lon="77.07093">
        <ele>4033.2</ele>
        <time>2015-08-30T04:44:12Z</time>
      </trkpt>
      <trkpt lat="34.12182" lon="77.07093">
        <ele>4033</ele>
        <time>2015-08-30T04:44:14Z</time>
      </trkpt>
      <trkpt lat="34.12181" lon="77.07094">
        <ele>4033</ele>
        <time>2015-08-30T04:44:17Z</time>
      </trkpt>
      <trkpt lat="34.12171" lon="77.071">
        <ele>4032.2</ele>
        <time>2015-08-30T04:44:30Z</time>
      </trkpt>
      <trkpt lat="34.12167" lon="77.07103">
        <ele>4032</ele>
        <time>2015-08-30T04:44:32Z</time>
      </trkpt>
      <trkpt lat="34.12162" lon="77.07109">
        <ele>4030.8</ele>
        <time>2015-08-30T04:44:35Z</time>
      </trkpt>
      <trkpt lat="34.12154" lon="77.07102">
        <ele>4029.8</ele>
        <time>2015-08-30T04:44:45Z</time>
      </trkpt>
      <trkpt lat="34.12154" lon="77.07102">
        <ele>4029.8</ele>
        <time>2015-08-30T04:44:46Z</time>
      </trkpt>
      <trkpt lat="34.12152" lon="77.07103">
        <ele>4029.8</ele>
        <time>2015-08-30T04:44:48Z</time>
      </trkpt>
      <trkpt lat="34.1216" lon="77.07107">
        <ele>4028.6</ele>
        <time>2015-08-30T04:44:55Z</time>
      </trkpt>
      <trkpt lat="34.12157" lon="77.07107">
        <ele>4027.6</ele>
        <time>2015-08-30T04:45:01Z</time>
      </trkpt>
      <trkpt lat="34.12147" lon="77.07115">
        <ele>4026.8</ele>
        <time>2015-08-30T04:45:04Z</time>
      </trkpt>
      <trkpt lat="34.12142" lon="77.07118">
        <ele>4026.6</ele>
        <time>2015-08-30T04:45:05Z</time>
      </trkpt>
      <trkpt lat="34.1214" lon="77.0712">
        <ele>4026.4</ele>
        <time>2015-08-30T04:45:06Z</time>
      </trkpt>
      <trkpt lat="34.12133" lon="77.07125">
        <ele>4026</ele>
        <time>2015-08-30T04:45:08Z</time>
      </trkpt>
      <trkpt lat="34.1213" lon="77.07126">
        <ele>4025.6</ele>
        <time>2015-08-30T04:45:10Z</time>
      </trkpt>
      <trkpt lat="34.12122" lon="77.07135">
        <ele>4025.4</ele>
        <time>2015-08-30T04:45:12Z</time>
      </trkpt>
      <trkpt lat="34.1211" lon="77.07143">
        <ele>4024.4</ele>
        <time>2015-08-30T04:45:18Z</time>
      </trkpt>
      <trkpt lat="34.12106" lon="77.07145">
        <ele>4023.2</ele>
        <time>2015-08-30T04:45:24Z</time>
      </trkpt>
      <trkpt lat="34.12107" lon="77.07137">
        <ele>4022.4</ele>
        <time>2015-08-30T04:45:31Z</time>
      </trkpt>
      <trkpt lat="34.12107" lon="77.07135">
        <ele>4022</ele>
        <time>2015-08-30T04:45:33Z</time>
      </trkpt>
      <trkpt lat="34.12105" lon="77.07135">
        <ele>4021</ele>
        <time>2015-08-30T04:45:39Z</time>
      </trkpt>
      <trkpt lat="34.12103" lon="77.07138">
        <ele>4020</ele>
        <time>2015-08-30T04:45:44Z</time>
      </trkpt>
      <trkpt lat="34.12101" lon="77.07141">
        <ele>4018.8</ele>
        <time>2015-08-30T04:45:49Z</time>
      </trkpt>
      <trkpt lat="34.12101" lon="77.07145">
        <ele>4017.6</ele>
        <time>2015-08-30T04:45:55Z</time>
      </trkpt>
      <trkpt lat="34.12101" lon="77.07148">
        <ele>4017</ele>
        <time>2015-08-30T04:45:57Z</time>
      </trkpt>
      <trkpt lat="34.12103" lon="77.07149">
        <ele>4016.6</ele>
        <time>2015-08-30T04:45:59Z</time>
      </trkpt>
      <trkpt lat="34.12102" lon="77.07153">
        <ele>4015.4</ele>
        <time>2015-08-30T04:46:03Z</time>
      </trkpt>
      <trkpt lat="34.12105" lon="77.07154">
        <ele>4015</ele>
        <time>2015-08-30T04:46:05Z</time>
      </trkpt>
      <trkpt lat="34.12106" lon="77.07154">
        <ele>4014.4</ele>
        <time>2015-08-30T04:46:08Z</time>
      </trkpt>
      <trkpt lat="34.12109" lon="77.0715">
        <ele>4014</ele>
        <time>2015-08-30T04:46:25Z</time>
      </trkpt>
      <trkpt lat="34.12109" lon="77.07152">
        <ele>4014</ele>
        <time>2015-08-30T04:46:27Z</time>
      </trkpt>
      <trkpt lat="34.12112" lon="77.07154">
        <ele>4014.2</ele>
        <time>2015-08-30T04:46:30Z</time>
      </trkpt>
      <trkpt lat="34.12111" lon="77.07158">
        <ele>4014.2</ele>
        <time>2015-08-30T04:46:36Z</time>
      </trkpt>
      <trkpt lat="34.12106" lon="77.07158">
        <ele>4014.2</ele>
        <time>2015-08-30T04:46:44Z</time>
      </trkpt>
      <trkpt lat="34.12102" lon="77.07161">
        <ele>4014.2</ele>
        <time>2015-08-30T04:46:47Z</time>
      </trkpt>
      <trkpt lat="34.12092" lon="77.07168">
        <ele>4013.8</ele>
        <time>2015-08-30T04:46:54Z</time>
      </trkpt>
      <trkpt lat="34.12089" lon="77.07169">
        <ele>4013.6</ele>
        <time>2015-08-30T04:46:56Z</time>
      </trkpt>
      <trkpt lat="34.12087" lon="77.07171">
        <ele>4013.4</ele>
        <time>2015-08-30T04:46:58Z</time>
      </trkpt>
      <trkpt lat="34.12084" lon="77.07173">
        <ele>4013.4</ele>
        <time>2015-08-30T04:47:02Z</time>
      </trkpt>
      <trkpt lat="34.1207" lon="77.07188">
        <ele>4013.2</ele>
        <time>2015-08-30T04:47:10Z</time>
      </trkpt>
      <trkpt lat="34.12061" lon="77.07207">
        <ele>4012.8</ele>
        <time>2015-08-30T04:47:22Z</time>
      </trkpt>
      <trkpt lat="34.12067" lon="77.07215">
        <ele>4012.6</ele>
        <time>2015-08-30T04:47:27Z</time>
      </trkpt>
      <trkpt lat="34.12068" lon="77.07217">
        <ele>4012.6</ele>
        <time>2015-08-30T04:47:29Z</time>
      </trkpt>
      <trkpt lat="34.12066" lon="77.07221">
        <ele>4012.4</ele>
        <time>2015-08-30T04:47:35Z</time>
      </trkpt>
      <trkpt lat="34.12064" lon="77.07223">
        <ele>4012.2</ele>
        <time>2015-08-30T04:47:37Z</time>
      </trkpt>
      <trkpt lat="34.12064" lon="77.07225">
        <ele>4012.2</ele>
        <time>2015-08-30T04:47:39Z</time>
      </trkpt>
      <trkpt lat="34.12061" lon="77.07233">
        <ele>4012.4</ele>
        <time>2015-08-30T04:47:46Z</time>
      </trkpt>
      <trkpt lat="34.12055" lon="77.07246">
        <ele>4011.4</ele>
        <time>2015-08-30T04:48:01Z</time>
      </trkpt>
      <trkpt lat="34.12057" lon="77.07248">
        <ele>4011.2</ele>
        <time>2015-08-30T04:48:02Z</time>
      </trkpt>
      <trkpt lat="34.12055" lon="77.0725">
        <ele>4011.2</ele>
        <time>2015-08-30T04:48:04Z</time>
      </trkpt>
      <trkpt lat="34.12049" lon="77.07267">
        <ele>4011</ele>
        <time>2015-08-30T04:48:26Z</time>
      </trkpt>
      <trkpt lat="34.12042" lon="77.07279">
        <ele>4010.4</ele>
        <time>2015-08-30T04:48:37Z</time>
      </trkpt>
      <trkpt lat="34.12041" lon="77.0728">
        <ele>4010.2</ele>
        <time>2015-08-30T04:48:39Z</time>
      </trkpt>
      <trkpt lat="34.12037" lon="77.07296">
        <ele>4010</ele>
        <time>2015-08-30T04:48:51Z</time>
      </trkpt>
      <trkpt lat="34.12035" lon="77.07307">
        <ele>4009.2</ele>
        <time>2015-08-30T04:49:01Z</time>
      </trkpt>
      <trkpt lat="34.12048" lon="77.07326">
        <ele>4008.6</ele>
        <time>2015-08-30T04:49:12Z</time>
      </trkpt>
      <trkpt lat="34.12053" lon="77.0733">
        <ele>4008.6</ele>
        <time>2015-08-30T04:49:13Z</time>
      </trkpt>
      <trkpt lat="34.1207" lon="77.0735">
        <ele>4008.2</ele>
        <time>2015-08-30T04:49:25Z</time>
      </trkpt>
      <trkpt lat="34.1207" lon="77.07351">
        <ele>4008.2</ele>
        <time>2015-08-30T04:49:26Z</time>
      </trkpt>
      <trkpt lat="34.12055" lon="77.07345">
        <ele>4008.4</ele>
        <time>2015-08-30T04:49:29Z</time>
      </trkpt>
      <trkpt lat="34.12049" lon="77.07344">
        <ele>4008.8</ele>
        <time>2015-08-30T04:49:31Z</time>
      </trkpt>
      <trkpt lat="34.12046" lon="77.07345">
        <ele>4009</ele>
        <time>2015-08-30T04:49:33Z</time>
      </trkpt>
      <trkpt lat="34.12029" lon="77.07349">
        <ele>4010.2</ele>
        <time>2015-08-30T04:49:47Z</time>
      </trkpt>
      <trkpt lat="34.12026" lon="77.07352">
        <ele>4010.8</ele>
        <time>2015-08-30T04:49:55Z</time>
      </trkpt>
      <trkpt lat="34.12024" lon="77.07354">
        <ele>4011.2</ele>
        <time>2015-08-30T04:50:00Z</time>
      </trkpt>
      <trkpt lat="34.12025" lon="77.07359">
        <ele>4012</ele>
        <time>2015-08-30T04:50:05Z</time>
      </trkpt>
      <trkpt lat="34.12025" lon="77.07362">
        <ele>4012</ele>
        <time>2015-08-30T04:50:07Z</time>
      </trkpt>
      <trkpt lat="34.12028" lon="77.07368">
        <ele>4012.2</ele>
        <time>2015-08-30T04:50:11Z</time>
      </trkpt>
      <trkpt lat="34.1203" lon="77.07374">
        <ele>4012.2</ele>
        <time>2015-08-30T04:50:16Z</time>
      </trkpt>
      <trkpt lat="34.12031" lon="77.07377">
        <ele>4012.4</ele>
        <time>2015-08-30T04:50:18Z</time>
      </trkpt>
      <trkpt lat="34.12031" lon="77.07379">
        <ele>4012.2</ele>
        <time>2015-08-30T04:50:21Z</time>
      </trkpt>
      <trkpt lat="34.12029" lon="77.07385">
        <ele>4011.4</ele>
        <time>2015-08-30T04:50:29Z</time>
      </trkpt>
      <trkpt lat="34.12028" lon="77.07386">
        <ele>4011.2</ele>
        <time>2015-08-30T04:50:30Z</time>
      </trkpt>
      <trkpt lat="34.12026" lon="77.07388">
        <ele>4011</ele>
        <time>2015-08-30T04:50:32Z</time>
      </trkpt>
      <trkpt lat="34.12017" lon="77.07394">
        <ele>4010.2</ele>
        <time>2015-08-30T04:50:42Z</time>
      </trkpt>
      <trkpt lat="34.1202" lon="77.07397">
        <ele>4009.8</ele>
        <time>2015-08-30T04:50:44Z</time>
      </trkpt>
      <trkpt lat="34.12019" lon="77.07398">
        <ele>4009.2</ele>
        <time>2015-08-30T04:50:48Z</time>
      </trkpt>
      <trkpt lat="34.12017" lon="77.07394">
        <ele>4008.6</ele>
        <time>2015-08-30T04:50:52Z</time>
      </trkpt>
      <trkpt lat="34.12016" lon="77.07393">
        <ele>4008.4</ele>
        <time>2015-08-30T04:50:54Z</time>
      </trkpt>
      <trkpt lat="34.12019" lon="77.07388">
        <ele>4008.2</ele>
        <time>2015-08-30T04:50:57Z</time>
      </trkpt>
      <trkpt lat="34.12019" lon="77.07387">
        <ele>4008</ele>
        <time>2015-08-30T04:50:58Z</time>
      </trkpt>
      <trkpt lat="34.12018" lon="77.07387">
        <ele>4007.8</ele>
        <time>2015-08-30T04:50:59Z</time>
      </trkpt>
      <trkpt lat="34.12002" lon="77.07397">
        <ele>4008.2</ele>
        <time>2015-08-30T04:51:26Z</time>
      </trkpt>
      <trkpt lat="34.12002" lon="77.07396">
        <ele>4007.8</ele>
        <time>2015-08-30T04:51:28Z</time>
      </trkpt>
      <trkpt lat="34.11995" lon="77.07393">
        <ele>4007</ele>
        <time>2015-08-30T04:51:35Z</time>
      </trkpt>
      <trkpt lat="34.11978" lon="77.07402">
        <ele>4006.8</ele>
        <time>2015-08-30T04:51:48Z</time>
      </trkpt>
      <trkpt lat="34.11972" lon="77.07409">
        <ele>4006.2</ele>
        <time>2015-08-30T04:51:52Z</time>
      </trkpt>
      <trkpt lat="34.11972" lon="77.07412">
        <ele>4006</ele>
        <time>2015-08-30T04:51:54Z</time>
      </trkpt>
      <trkpt lat="34.11972" lon="77.07415">
        <ele>4006</ele>
        <time>2015-08-30T04:51:55Z</time>
      </trkpt>
      <trkpt lat="34.11973" lon="77.07425">
        <ele>4005.6</ele>
        <time>2015-08-30T04:52:00Z</time>
      </trkpt>
      <trkpt lat="34.11967" lon="77.07423">
        <ele>4004.8</ele>
        <time>2015-08-30T04:52:05Z</time>
      </trkpt>
      <trkpt lat="34.11963" lon="77.07423">
        <ele>4004.8</ele>
        <time>2015-08-30T04:52:08Z</time>
      </trkpt>
      <trkpt lat="34.11957" lon="77.07427">
        <ele>4004.6</ele>
        <time>2015-08-30T04:52:14Z</time>
      </trkpt>
      <trkpt lat="34.11954" lon="77.07429">
        <ele>4004.6</ele>
        <time>2015-08-30T04:52:17Z</time>
      </trkpt>
      <trkpt lat="34.1195" lon="77.07431">
        <ele>4003.8</ele>
        <time>2015-08-30T04:52:22Z</time>
      </trkpt>
      <trkpt lat="34.11949" lon="77.0743">
        <ele>4003.8</ele>
        <time>2015-08-30T04:52:24Z</time>
      </trkpt>
      <trkpt lat="34.11947" lon="77.07433">
        <ele>4003.6</ele>
        <time>2015-08-30T04:52:27Z</time>
      </trkpt>
      <trkpt lat="34.11948" lon="77.07434">
        <ele>4003.6</ele>
        <time>2015-08-30T04:52:29Z</time>
      </trkpt>
      <trkpt lat="34.11945" lon="77.07441">
        <ele>4003</ele>
        <time>2015-08-30T04:52:35Z</time>
      </trkpt>
      <trkpt lat="34.11943" lon="77.07443">
        <ele>4002.8</ele>
        <time>2015-08-30T04:52:37Z</time>
      </trkpt>
      <trkpt lat="34.11942" lon="77.07448">
        <ele>4002.6</ele>
        <time>2015-08-30T04:52:42Z</time>
      </trkpt>
      <trkpt lat="34.11944" lon="77.07442">
        <ele>4002.4</ele>
        <time>2015-08-30T04:53:11Z</time>
      </trkpt>
      <trkpt lat="34.11948" lon="77.07441">
        <ele>4001.8</ele>
        <time>2015-08-30T04:53:34Z</time>
      </trkpt>
      <trkpt lat="34.11949" lon="77.07452">
        <ele>4001.8</ele>
        <time>2015-08-30T04:53:42Z</time>
      </trkpt>
      <trkpt lat="34.11953" lon="77.07452">
        <ele>4001.6</ele>
        <time>2015-08-30T04:54:19Z</time>
      </trkpt>
      <trkpt lat="34.11952" lon="77.07451">
        <ele>4001.6</ele>
        <time>2015-08-30T04:54:21Z</time>
      </trkpt>
      <trkpt lat="34.11948" lon="77.07449">
        <ele>4001.4</ele>
        <time>2015-08-30T04:55:22Z</time>
      </trkpt>
      <trkpt lat="34.11948" lon="77.07438">
        <ele>4001.2</ele>
        <time>2015-08-30T04:56:03Z</time>
      </trkpt>
      <trkpt lat="34.11953" lon="77.0745">
        <ele>4001.6</ele>
        <time>2015-08-30T04:56:50Z</time>
      </trkpt>
      <trkpt lat="34.11956" lon="77.07461">
        <ele>4001.2</ele>
        <time>2015-08-30T04:57:14Z</time>
      </trkpt>
      <trkpt lat="34.11953" lon="77.07461">
        <ele>4001.2</ele>
        <time>2015-08-30T04:57:17Z</time>
      </trkpt>
      <trkpt lat="34.11949" lon="77.07462">
        <ele>4000.8</ele>
        <time>2015-08-30T04:57:22Z</time>
      </trkpt>
      <trkpt lat="34.11948" lon="77.07463">
        <ele>4000.8</ele>
        <time>2015-08-30T04:57:24Z</time>
      </trkpt>
      <trkpt lat="34.11939" lon="77.07468">
        <ele>4000.4</ele>
        <time>2015-08-30T04:57:32Z</time>
      </trkpt>
      <trkpt lat="34.11935" lon="77.07486">
        <ele>3999.6</ele>
        <time>2015-08-30T04:57:48Z</time>
      </trkpt>
      <trkpt lat="34.11924" lon="77.0749">
        <ele>3999.2</ele>
        <time>2015-08-30T04:57:55Z</time>
      </trkpt>
      <trkpt lat="34.11914" lon="77.0749">
        <ele>3999</ele>
        <time>2015-08-30T04:57:58Z</time>
      </trkpt>
      <trkpt lat="34.11913" lon="77.07494">
        <ele>3998.6</ele>
        <time>2015-08-30T04:58:00Z</time>
      </trkpt>
      <trkpt lat="34.11913" lon="77.07496">
        <ele>3998.4</ele>
        <time>2015-08-30T04:58:01Z</time>
      </trkpt>
      <trkpt lat="34.11926" lon="77.07519">
        <ele>3998.2</ele>
        <time>2015-08-30T04:58:18Z</time>
      </trkpt>
      <trkpt lat="34.11922" lon="77.07525">
        <ele>3997.6</ele>
        <time>2015-08-30T04:58:27Z</time>
      </trkpt>
      <trkpt lat="34.11918" lon="77.07528">
        <ele>3997.2</ele>
        <time>2015-08-30T04:58:31Z</time>
      </trkpt>
      <trkpt lat="34.11916" lon="77.07534">
        <ele>3996.6</ele>
        <time>2015-08-30T04:58:40Z</time>
      </trkpt>
      <trkpt lat="34.11916" lon="77.07535">
        <ele>3996.6</ele>
        <time>2015-08-30T04:58:41Z</time>
      </trkpt>
      <trkpt lat="34.11911" lon="77.0754">
        <ele>3996</ele>
        <time>2015-08-30T04:58:51Z</time>
      </trkpt>
      <trkpt lat="34.11908" lon="77.0754">
        <ele>3995.8</ele>
        <time>2015-08-30T04:58:53Z</time>
      </trkpt>
      <trkpt lat="34.11907" lon="77.07541">
        <ele>3995.6</ele>
        <time>2015-08-30T04:58:57Z</time>
      </trkpt>
      <trkpt lat="34.11902" lon="77.07542">
        <ele>3995.6</ele>
        <time>2015-08-30T04:59:05Z</time>
      </trkpt>
      <trkpt lat="34.11903" lon="77.07542">
        <ele>3995.6</ele>
        <time>2015-08-30T04:59:07Z</time>
      </trkpt>
      <trkpt lat="34.11903" lon="77.07547">
        <ele>3995.6</ele>
        <time>2015-08-30T04:59:10Z</time>
      </trkpt>
      <trkpt lat="34.11906" lon="77.07555">
        <ele>3995.6</ele>
        <time>2015-08-30T04:59:17Z</time>
      </trkpt>
      <trkpt lat="34.11904" lon="77.07561">
        <ele>3994.6</ele>
        <time>2015-08-30T04:59:37Z</time>
      </trkpt>
      <trkpt lat="34.11899" lon="77.0756">
        <ele>3994.2</ele>
        <time>2015-08-30T05:00:13Z</time>
      </trkpt>
      <trkpt lat="34.11899" lon="77.07561">
        <ele>3994.2</ele>
        <time>2015-08-30T05:00:14Z</time>
      </trkpt>
      <trkpt lat="34.11892" lon="77.07555">
        <ele>3993.6</ele>
        <time>2015-08-30T05:01:01Z</time>
      </trkpt>
      <trkpt lat="34.11895" lon="77.0758">
        <ele>3993.8</ele>
        <time>2015-08-30T05:01:10Z</time>
      </trkpt>
      <trkpt lat="34.11897" lon="77.0758">
        <ele>3993.6</ele>
        <time>2015-08-30T05:01:20Z</time>
      </trkpt>
      <trkpt lat="34.11895" lon="77.07566">
        <ele>3993.4</ele>
        <time>2015-08-30T05:01:35Z</time>
      </trkpt>
      <trkpt lat="34.11898" lon="77.07572">
        <ele>3993.2</ele>
        <time>2015-08-30T05:01:39Z</time>
      </trkpt>
      <trkpt lat="34.11899" lon="77.07576">
        <ele>3992.4</ele>
        <time>2015-08-30T05:01:54Z</time>
      </trkpt>
      <trkpt lat="34.11899" lon="77.07577">
        <ele>3992.8</ele>
        <time>2015-08-30T05:02:31Z</time>
      </trkpt>
      <trkpt lat="34.11902" lon="77.07576">
        <ele>3992.8</ele>
        <time>2015-08-30T05:02:33Z</time>
      </trkpt>
      <trkpt lat="34.11909" lon="77.07579">
        <ele>3993.2</ele>
        <time>2015-08-30T05:02:53Z</time>
      </trkpt>
      <trkpt lat="34.11911" lon="77.07582">
        <ele>3993.2</ele>
        <time>2015-08-30T05:02:55Z</time>
      </trkpt>
      <trkpt lat="34.11913" lon="77.07585">
        <ele>3993</ele>
        <time>2015-08-30T05:02:58Z</time>
      </trkpt>
      <trkpt lat="34.1191" lon="77.07589">
        <ele>3992.8</ele>
        <time>2015-08-30T05:03:01Z</time>
      </trkpt>
      <trkpt lat="34.11902" lon="77.07587">
        <ele>3992.6</ele>
        <time>2015-08-30T05:03:04Z</time>
      </trkpt>
      <trkpt lat="34.11896" lon="77.0759">
        <ele>3992.2</ele>
        <time>2015-08-30T05:03:09Z</time>
      </trkpt>
      <trkpt lat="34.11896" lon="77.07592">
        <ele>3992.2</ele>
        <time>2015-08-30T05:03:12Z</time>
      </trkpt>
      <trkpt lat="34.11898" lon="77.07595">
        <ele>3992.4</ele>
        <time>2015-08-30T05:03:15Z</time>
      </trkpt>
      <trkpt lat="34.11892" lon="77.07597">
        <ele>3991.4</ele>
        <time>2015-08-30T05:03:25Z</time>
      </trkpt>
      <trkpt lat="34.11891" lon="77.07597">
        <ele>3991.4</ele>
        <time>2015-08-30T05:03:26Z</time>
      </trkpt>
      <trkpt lat="34.11887" lon="77.07599">
        <ele>3991.6</ele>
        <time>2015-08-30T05:03:31Z</time>
      </trkpt>
      <trkpt lat="34.11886" lon="77.07603">
        <ele>3991.4</ele>
        <time>2015-08-30T05:03:34Z</time>
      </trkpt>
      <trkpt lat="34.1188" lon="77.07611">
        <ele>3991.2</ele>
        <time>2015-08-30T05:03:48Z</time>
      </trkpt>
      <trkpt lat="34.11878" lon="77.07612">
        <ele>3991.2</ele>
        <time>2015-08-30T05:03:51Z</time>
      </trkpt>
      <trkpt lat="34.11876" lon="77.07617">
        <ele>3991</ele>
        <time>2015-08-30T05:03:59Z</time>
      </trkpt>
      <trkpt lat="34.11871" lon="77.0762">
        <ele>3990.4</ele>
        <time>2015-08-30T05:04:05Z</time>
      </trkpt>
      <trkpt lat="34.11863" lon="77.07636">
        <ele>3989.4</ele>
        <time>2015-08-30T05:04:28Z</time>
      </trkpt>
      <trkpt lat="34.11856" lon="77.07643">
        <ele>3988.6</ele>
        <time>2015-08-30T05:04:41Z</time>
      </trkpt>
      <trkpt lat="34.11855" lon="77.07644">
        <ele>3988.6</ele>
        <time>2015-08-30T05:04:43Z</time>
      </trkpt>
      <trkpt lat="34.11848" lon="77.07647">
        <ele>3988.4</ele>
        <time>2015-08-30T05:04:51Z</time>
      </trkpt>
      <trkpt lat="34.11847" lon="77.07647">
        <ele>3988.4</ele>
        <time>2015-08-30T05:04:52Z</time>
      </trkpt>
      <trkpt lat="34.11844" lon="77.0765">
        <ele>3988</ele>
        <time>2015-08-30T05:04:56Z</time>
      </trkpt>
      <trkpt lat="34.11839" lon="77.07653">
        <ele>3987.4</ele>
        <time>2015-08-30T05:05:02Z</time>
      </trkpt>
      <trkpt lat="34.11837" lon="77.07654">
        <ele>3987.4</ele>
        <time>2015-08-30T05:05:03Z</time>
      </trkpt>
      <trkpt lat="34.11832" lon="77.07659">
        <ele>3987.4</ele>
        <time>2015-08-30T05:05:09Z</time>
      </trkpt>
      <trkpt lat="34.11827" lon="77.07662">
        <ele>3987.4</ele>
        <time>2015-08-30T05:05:14Z</time>
      </trkpt>
      <trkpt lat="34.11826" lon="77.07662">
        <ele>3987.4</ele>
        <time>2015-08-30T05:05:16Z</time>
      </trkpt>
      <trkpt lat="34.11824" lon="77.07663">
        <ele>3987.2</ele>
        <time>2015-08-30T05:05:18Z</time>
      </trkpt>
      <trkpt lat="34.11823" lon="77.07664">
        <ele>3987.2</ele>
        <time>2015-08-30T05:05:20Z</time>
      </trkpt>
      <trkpt lat="34.11821" lon="77.07666">
        <ele>3986.8</ele>
        <time>2015-08-30T05:05:24Z</time>
      </trkpt>
      <trkpt lat="34.1182" lon="77.07669">
        <ele>3986.4</ele>
        <time>2015-08-30T05:05:27Z</time>
      </trkpt>
      <trkpt lat="34.11815" lon="77.0768">
        <ele>3986</ele>
        <time>2015-08-30T05:05:36Z</time>
      </trkpt>
      <trkpt lat="34.11814" lon="77.0768">
        <ele>3986.2</ele>
        <time>2015-08-30T05:05:38Z</time>
      </trkpt>
      <trkpt lat="34.11812" lon="77.07687">
        <ele>3985.2</ele>
        <time>2015-08-30T05:05:50Z</time>
      </trkpt>
      <trkpt lat="34.11808" lon="77.07693">
        <ele>3984.8</ele>
        <time>2015-08-30T05:05:59Z</time>
      </trkpt>
      <trkpt lat="34.118" lon="77.07704">
        <ele>3984.2</ele>
        <time>2015-08-30T05:06:13Z</time>
      </trkpt>
      <trkpt lat="34.11799" lon="77.07704">
        <ele>3984.2</ele>
        <time>2015-08-30T05:06:14Z</time>
      </trkpt>
      <trkpt lat="34.11791" lon="77.07714">
        <ele>3984</ele>
        <time>2015-08-30T05:06:26Z</time>
      </trkpt>
      <trkpt lat="34.11789" lon="77.07715">
        <ele>3983.8</ele>
        <time>2015-08-30T05:06:28Z</time>
      </trkpt>
      <trkpt lat="34.11788" lon="77.07718">
        <ele>3983.6</ele>
        <time>2015-08-30T05:06:33Z</time>
      </trkpt>
      <trkpt lat="34.11778" lon="77.07718">
        <ele>3983.8</ele>
        <time>2015-08-30T05:06:38Z</time>
      </trkpt>
      <trkpt lat="34.11779" lon="77.07721">
        <ele>3983.8</ele>
        <time>2015-08-30T05:06:43Z</time>
      </trkpt>
      <trkpt lat="34.11782" lon="77.07726">
        <ele>3984.2</ele>
        <time>2015-08-30T05:06:47Z</time>
      </trkpt>
      <trkpt lat="34.11786" lon="77.07729">
        <ele>3984.8</ele>
        <time>2015-08-30T05:06:49Z</time>
      </trkpt>
      <trkpt lat="34.11788" lon="77.0773">
        <ele>3985.2</ele>
        <time>2015-08-30T05:06:51Z</time>
      </trkpt>
      <trkpt lat="34.11787" lon="77.0773">
        <ele>3985.4</ele>
        <time>2015-08-30T05:06:52Z</time>
      </trkpt>
      <trkpt lat="34.11787" lon="77.07733">
        <ele>3986.4</ele>
        <time>2015-08-30T05:06:59Z</time>
      </trkpt>
      <trkpt lat="34.1179" lon="77.07738">
        <ele>3986.8</ele>
        <time>2015-08-30T05:07:02Z</time>
      </trkpt>
      <trkpt lat="34.11791" lon="77.07742">
        <ele>3987.2</ele>
        <time>2015-08-30T05:07:05Z</time>
      </trkpt>
      <trkpt lat="34.1179" lon="77.07743">
        <ele>3987.4</ele>
        <time>2015-08-30T05:07:07Z</time>
      </trkpt>
      <trkpt lat="34.11791" lon="77.07748">
        <ele>3988.6</ele>
        <time>2015-08-30T05:07:19Z</time>
      </trkpt>
      <trkpt lat="34.11788" lon="77.07749">
        <ele>3989.6</ele>
        <time>2015-08-30T05:07:25Z</time>
      </trkpt>
      <trkpt lat="34.11778" lon="77.07762">
        <ele>3988.8</ele>
        <time>2015-08-30T05:07:41Z</time>
      </trkpt>
      <trkpt lat="34.1178" lon="77.07764">
        <ele>3988.8</ele>
        <time>2015-08-30T05:07:45Z</time>
      </trkpt>
      <trkpt lat="34.11785" lon="77.07772">
        <ele>3989</ele>
        <time>2015-08-30T05:07:50Z</time>
      </trkpt>
      <trkpt lat="34.11786" lon="77.07775">
        <ele>3989</ele>
        <time>2015-08-30T05:07:53Z</time>
      </trkpt>
      <trkpt lat="34.11789" lon="77.07782">
        <ele>3988.6</ele>
        <time>2015-08-30T05:08:00Z</time>
      </trkpt>
      <trkpt lat="34.11788" lon="77.07782">
        <ele>3988.4</ele>
        <time>2015-08-30T05:08:01Z</time>
      </trkpt>
      <trkpt lat="34.11777" lon="77.07791">
        <ele>3987.8</ele>
        <time>2015-08-30T05:08:10Z</time>
      </trkpt>
      <trkpt lat="34.11771" lon="77.07798">
        <ele>3987.8</ele>
        <time>2015-08-30T05:08:20Z</time>
      </trkpt>
      <trkpt lat="34.1177" lon="77.07804">
        <ele>3987.8</ele>
        <time>2015-08-30T05:08:27Z</time>
      </trkpt>
      <trkpt lat="34.11768" lon="77.07807">
        <ele>3987.8</ele>
        <time>2015-08-30T05:08:30Z</time>
      </trkpt>
      <trkpt lat="34.11765" lon="77.07814">
        <ele>3987.6</ele>
        <time>2015-08-30T05:08:37Z</time>
      </trkpt>
      <trkpt lat="34.11766" lon="77.07836">
        <ele>3986.8</ele>
        <time>2015-08-30T05:08:53Z</time>
      </trkpt>
      <trkpt lat="34.11765" lon="77.07842">
        <ele>3987</ele>
        <time>2015-08-30T05:08:58Z</time>
      </trkpt>
      <trkpt lat="34.11768" lon="77.0785">
        <ele>3987.2</ele>
        <time>2015-08-30T05:09:07Z</time>
      </trkpt>
      <trkpt lat="34.11769" lon="77.07854">
        <ele>3987.2</ele>
        <time>2015-08-30T05:09:11Z</time>
      </trkpt>
      <trkpt lat="34.11768" lon="77.07858">
        <ele>3987</ele>
        <time>2015-08-30T05:09:14Z</time>
      </trkpt>
      <trkpt lat="34.11763" lon="77.07864">
        <ele>3987</ele>
        <time>2015-08-30T05:09:19Z</time>
      </trkpt>
      <trkpt lat="34.1176" lon="77.07887">
        <ele>3987.2</ele>
        <time>2015-08-30T05:09:34Z</time>
      </trkpt>
      <trkpt lat="34.11756" lon="77.07902">
        <ele>3986.6</ele>
        <time>2015-08-30T05:09:45Z</time>
      </trkpt>
      <trkpt lat="34.11754" lon="77.0791">
        <ele>3987.2</ele>
        <time>2015-08-30T05:09:52Z</time>
      </trkpt>
      <trkpt lat="34.11753" lon="77.07917">
        <ele>3987.4</ele>
        <time>2015-08-30T05:10:00Z</time>
      </trkpt>
      <trkpt lat="34.11749" lon="77.07922">
        <ele>3987.6</ele>
        <time>2015-08-30T05:10:06Z</time>
      </trkpt>
      <trkpt lat="34.11753" lon="77.07929">
        <ele>3987.8</ele>
        <time>2015-08-30T05:10:10Z</time>
      </trkpt>
      <trkpt lat="34.11748" lon="77.07948">
        <ele>3987</ele>
        <time>2015-08-30T05:10:31Z</time>
      </trkpt>
      <trkpt lat="34.11747" lon="77.07964">
        <ele>3986.8</ele>
        <time>2015-08-30T05:10:44Z</time>
      </trkpt>
      <trkpt lat="34.11752" lon="77.0797">
        <ele>3987.2</ele>
        <time>2015-08-30T05:10:49Z</time>
      </trkpt>
      <trkpt lat="34.11752" lon="77.07973">
        <ele>3987.2</ele>
        <time>2015-08-30T05:10:51Z</time>
      </trkpt>
      <trkpt lat="34.11752" lon="77.07977">
        <ele>3987.2</ele>
        <time>2015-08-30T05:10:54Z</time>
      </trkpt>
      <trkpt lat="34.1175" lon="77.0798">
        <ele>3986.4</ele>
        <time>2015-08-30T05:10:59Z</time>
      </trkpt>
      <trkpt lat="34.11751" lon="77.07984">
        <ele>3986.4</ele>
        <time>2015-08-30T05:11:02Z</time>
      </trkpt>
      <trkpt lat="34.11753" lon="77.08006">
        <ele>3987</ele>
        <time>2015-08-30T05:11:15Z</time>
      </trkpt>
      <trkpt lat="34.11749" lon="77.08018">
        <ele>3986.4</ele>
        <time>2015-08-30T05:11:26Z</time>
      </trkpt>
      <trkpt lat="34.11747" lon="77.08021">
        <ele>3986.2</ele>
        <time>2015-08-30T05:11:30Z</time>
      </trkpt>
      <trkpt lat="34.11751" lon="77.08042">
        <ele>3986.8</ele>
        <time>2015-08-30T05:11:48Z</time>
      </trkpt>
      <trkpt lat="34.11751" lon="77.08044">
        <ele>3986.8</ele>
        <time>2015-08-30T05:11:50Z</time>
      </trkpt>
      <trkpt lat="34.11742" lon="77.08064">
        <ele>3986.8</ele>
        <time>2015-08-30T05:12:08Z</time>
      </trkpt>
      <trkpt lat="34.1174" lon="77.08076">
        <ele>3986.6</ele>
        <time>2015-08-30T05:12:17Z</time>
      </trkpt>
      <trkpt lat="34.1173" lon="77.08076">
        <ele>3986.4</ele>
        <time>2015-08-30T05:12:23Z</time>
      </trkpt>
      <trkpt lat="34.11724" lon="77.08085">
        <ele>3986.6</ele>
        <time>2015-08-30T05:12:33Z</time>
      </trkpt>
      <trkpt lat="34.11725" lon="77.08088">
        <ele>3986.8</ele>
        <time>2015-08-30T05:12:35Z</time>
      </trkpt>
      <trkpt lat="34.11723" lon="77.08093">
        <ele>3986.2</ele>
        <time>2015-08-30T05:12:40Z</time>
      </trkpt>
      <trkpt lat="34.11723" lon="77.08098">
        <ele>3986</ele>
        <time>2015-08-30T05:12:44Z</time>
      </trkpt>
      <trkpt lat="34.11718" lon="77.08103">
        <ele>3986.6</ele>
        <time>2015-08-30T05:12:52Z</time>
      </trkpt>
      <trkpt lat="34.11717" lon="77.08104">
        <ele>3986.6</ele>
        <time>2015-08-30T05:12:54Z</time>
      </trkpt>
      <trkpt lat="34.11718" lon="77.08108">
        <ele>3986.4</ele>
        <time>2015-08-30T05:13:06Z</time>
      </trkpt>
      <trkpt lat="34.11708" lon="77.0813">
        <ele>3985.4</ele>
        <time>2015-08-30T05:13:21Z</time>
      </trkpt>
      <trkpt lat="34.1171" lon="77.08131">
        <ele>3985.4</ele>
        <time>2015-08-30T05:13:23Z</time>
      </trkpt>
      <trkpt lat="34.11708" lon="77.08139">
        <ele>3985.4</ele>
        <time>2015-08-30T05:13:32Z</time>
      </trkpt>
      <trkpt lat="34.11703" lon="77.08158">
        <ele>3985.2</ele>
        <time>2015-08-30T05:13:48Z</time>
      </trkpt>
      <trkpt lat="34.11699" lon="77.08163">
        <ele>3984.4</ele>
        <time>2015-08-30T05:13:58Z</time>
      </trkpt>
      <trkpt lat="34.11697" lon="77.08172">
        <ele>3983.6</ele>
        <time>2015-08-30T05:14:14Z</time>
      </trkpt>
      <trkpt lat="34.11692" lon="77.08182">
        <ele>3983.6</ele>
        <time>2015-08-30T05:14:19Z</time>
      </trkpt>
      <trkpt lat="34.11687" lon="77.08204">
        <ele>3984.2</ele>
        <time>2015-08-30T05:14:33Z</time>
      </trkpt>
      <trkpt lat="34.11687" lon="77.08208">
        <ele>3984.4</ele>
        <time>2015-08-30T05:14:36Z</time>
      </trkpt>
      <trkpt lat="34.11679" lon="77.08196">
        <ele>3985.4</ele>
        <time>2015-08-30T05:15:00Z</time>
      </trkpt>
      <trkpt lat="34.11682" lon="77.08193">
        <ele>3985.4</ele>
        <time>2015-08-30T05:15:05Z</time>
      </trkpt>
      <trkpt lat="34.1169" lon="77.08192">
        <ele>3984.4</ele>
        <time>2015-08-30T05:15:12Z</time>
      </trkpt>
      <trkpt lat="34.11691" lon="77.08214">
        <ele>3984.2</ele>
        <time>2015-08-30T05:15:18Z</time>
      </trkpt>
      <trkpt lat="34.11687" lon="77.08217">
        <ele>3984</ele>
        <time>2015-08-30T05:15:21Z</time>
      </trkpt>
      <trkpt lat="34.11686" lon="77.08219">
        <ele>3984</ele>
        <time>2015-08-30T05:15:23Z</time>
      </trkpt>
      <trkpt lat="34.11688" lon="77.08227">
        <ele>3983.8</ele>
        <time>2015-08-30T05:15:29Z</time>
      </trkpt>
      <trkpt lat="34.11689" lon="77.08231">
        <ele>3983.8</ele>
        <time>2015-08-30T05:15:32Z</time>
      </trkpt>
      <trkpt lat="34.11689" lon="77.08235">
        <ele>3984</ele>
        <time>2015-08-30T05:15:35Z</time>
      </trkpt>
      <trkpt lat="34.11685" lon="77.08235">
        <ele>3984.2</ele>
        <time>2015-08-30T05:15:37Z</time>
      </trkpt>
      <trkpt lat="34.11677" lon="77.08249">
        <ele>3984.2</ele>
        <time>2015-08-30T05:15:49Z</time>
      </trkpt>
      <trkpt lat="34.11675" lon="77.08249">
        <ele>3984.2</ele>
        <time>2015-08-30T05:15:53Z</time>
      </trkpt>
      <trkpt lat="34.1167" lon="77.08248">
        <ele>3984.2</ele>
        <time>2015-08-30T05:15:59Z</time>
      </trkpt>
      <trkpt lat="34.11672" lon="77.08255">
        <ele>3983.8</ele>
        <time>2015-08-30T05:16:04Z</time>
      </trkpt>
      <trkpt lat="34.11667" lon="77.08263">
        <ele>3983.6</ele>
        <time>2015-08-30T05:16:07Z</time>
      </trkpt>
      <trkpt lat="34.11664" lon="77.0826">
        <ele>3984</ele>
        <time>2015-08-30T05:16:13Z</time>
      </trkpt>
      <trkpt lat="34.11665" lon="77.08267">
        <ele>3983.6</ele>
        <time>2015-08-30T05:16:20Z</time>
      </trkpt>
      <trkpt lat="34.11664" lon="77.08272">
        <ele>3983.4</ele>
        <time>2015-08-30T05:16:23Z</time>
      </trkpt>
      <trkpt lat="34.11665" lon="77.08281">
        <ele>3983.4</ele>
        <time>2015-08-30T05:16:26Z</time>
      </trkpt>
      <trkpt lat="34.11661" lon="77.08287">
        <ele>3983.2</ele>
        <time>2015-08-30T05:16:33Z</time>
      </trkpt>
      <trkpt lat="34.11657" lon="77.08293">
        <ele>3982.4</ele>
        <time>2015-08-30T05:16:44Z</time>
      </trkpt>
      <trkpt lat="34.11656" lon="77.08295">
        <ele>3982.2</ele>
        <time>2015-08-30T05:16:45Z</time>
      </trkpt>
      <trkpt lat="34.11656" lon="77.08314">
        <ele>3982.2</ele>
        <time>2015-08-30T05:17:06Z</time>
      </trkpt>
      <trkpt lat="34.11655" lon="77.08314">
        <ele>3982</ele>
        <time>2015-08-30T05:17:07Z</time>
      </trkpt>
      <trkpt lat="34.11648" lon="77.0832">
        <ele>3981.2</ele>
        <time>2015-08-30T05:17:14Z</time>
      </trkpt>
      <trkpt lat="34.11644" lon="77.08331">
        <ele>3980.8</ele>
        <time>2015-08-30T05:17:22Z</time>
      </trkpt>
      <trkpt lat="34.11646" lon="77.08341">
        <ele>3981</ele>
        <time>2015-08-30T05:17:31Z</time>
      </trkpt>
      <trkpt lat="34.11639" lon="77.08343">
        <ele>3980.8</ele>
        <time>2015-08-30T05:17:37Z</time>
      </trkpt>
      <trkpt lat="34.11622" lon="77.08355">
        <ele>3980.8</ele>
        <time>2015-08-30T05:17:55Z</time>
      </trkpt>
      <trkpt lat="34.11622" lon="77.08355">
        <ele>3980.8</ele>
        <time>2015-08-30T05:17:56Z</time>
      </trkpt>
      <trkpt lat="34.11609" lon="77.08362">
        <ele>3981</ele>
        <time>2015-08-30T05:18:08Z</time>
      </trkpt>
      <trkpt lat="34.11609" lon="77.08363">
        <ele>3981</ele>
        <time>2015-08-30T05:18:10Z</time>
      </trkpt>
      <trkpt lat="34.11608" lon="77.08374">
        <ele>3981.2</ele>
        <time>2015-08-30T05:18:17Z</time>
      </trkpt>
      <trkpt lat="34.11609" lon="77.08376">
        <ele>3981.2</ele>
        <time>2015-08-30T05:18:19Z</time>
      </trkpt>
      <trkpt lat="34.11611" lon="77.08379">
        <ele>3981.2</ele>
        <time>2015-08-30T05:18:21Z</time>
      </trkpt>
      <trkpt lat="34.11619" lon="77.08386">
        <ele>3981</ele>
        <time>2015-08-30T05:18:29Z</time>
      </trkpt>
      <trkpt lat="34.11617" lon="77.08408">
        <ele>3980.6</ele>
        <time>2015-08-30T05:18:47Z</time>
      </trkpt>
      <trkpt lat="34.11614" lon="77.08413">
        <ele>3980.6</ele>
        <time>2015-08-30T05:18:53Z</time>
      </trkpt>
      <trkpt lat="34.1161" lon="77.08423">
        <ele>3981</ele>
        <time>2015-08-30T05:19:02Z</time>
      </trkpt>
      <trkpt lat="34.11606" lon="77.0845">
        <ele>3980.4</ele>
        <time>2015-08-30T05:19:21Z</time>
      </trkpt>
      <trkpt lat="34.11604" lon="77.08451">
        <ele>3980.4</ele>
        <time>2015-08-30T05:19:23Z</time>
      </trkpt>
      <trkpt lat="34.11598" lon="77.0846">
        <ele>3980.4</ele>
        <time>2015-08-30T05:19:30Z</time>
      </trkpt>
      <trkpt lat="34.11594" lon="77.0846">
        <ele>3980.2</ele>
        <time>2015-08-30T05:19:32Z</time>
      </trkpt>
      <trkpt lat="34.11585" lon="77.08465">
        <ele>3980.4</ele>
        <time>2015-08-30T05:19:43Z</time>
      </trkpt>
      <trkpt lat="34.1158" lon="77.08465">
        <ele>3980.4</ele>
        <time>2015-08-30T05:19:46Z</time>
      </trkpt>
      <trkpt lat="34.11587" lon="77.08475">
        <ele>3980.4</ele>
        <time>2015-08-30T05:19:49Z</time>
      </trkpt>
      <trkpt lat="34.11578" lon="77.0848">
        <ele>3980.4</ele>
        <time>2015-08-30T05:19:57Z</time>
      </trkpt>
      <trkpt lat="34.11575" lon="77.08489">
        <ele>3980.2</ele>
        <time>2015-08-30T05:20:04Z</time>
      </trkpt>
      <trkpt lat="34.11572" lon="77.08489">
        <ele>3980</ele>
        <time>2015-08-30T05:20:07Z</time>
      </trkpt>
      <trkpt lat="34.11569" lon="77.08492">
        <ele>3980</ele>
        <time>2015-08-30T05:20:11Z</time>
      </trkpt>
      <trkpt lat="34.11567" lon="77.08497">
        <ele>3980</ele>
        <time>2015-08-30T05:20:16Z</time>
      </trkpt>
      <trkpt lat="34.11558" lon="77.08512">
        <ele>3980</ele>
        <time>2015-08-30T05:20:33Z</time>
      </trkpt>
      <trkpt lat="34.11562" lon="77.08518">
        <ele>3979.8</ele>
        <time>2015-08-30T05:20:38Z</time>
      </trkpt>
      <trkpt lat="34.11565" lon="77.08527">
        <ele>3979.6</ele>
        <time>2015-08-30T05:20:44Z</time>
      </trkpt>
      <trkpt lat="34.11563" lon="77.08528">
        <ele>3979.8</ele>
        <time>2015-08-30T05:20:46Z</time>
      </trkpt>
      <trkpt lat="34.11558" lon="77.08538">
        <ele>3979.8</ele>
        <time>2015-08-30T05:20:56Z</time>
      </trkpt>
      <trkpt lat="34.11553" lon="77.08543">
        <ele>3980.2</ele>
        <time>2015-08-30T05:21:03Z</time>
      </trkpt>
      <trkpt lat="34.11553" lon="77.08547">
        <ele>3980.2</ele>
        <time>2015-08-30T05:21:06Z</time>
      </trkpt>
      <trkpt lat="34.11552" lon="77.0855">
        <ele>3980.2</ele>
        <time>2015-08-30T05:21:09Z</time>
      </trkpt>
      <trkpt lat="34.11554" lon="77.08564">
        <ele>3980</ele>
        <time>2015-08-30T05:21:21Z</time>
      </trkpt>
      <trkpt lat="34.11563" lon="77.08583">
        <ele>3980.2</ele>
        <time>2015-08-30T05:21:33Z</time>
      </trkpt>
      <trkpt lat="34.1156" lon="77.08585">
        <ele>3980.2</ele>
        <time>2015-08-30T05:21:35Z</time>
      </trkpt>
      <trkpt lat="34.11559" lon="77.08588">
        <ele>3980.2</ele>
        <time>2015-08-30T05:21:37Z</time>
      </trkpt>
      <trkpt lat="34.11562" lon="77.08596">
        <ele>3980</ele>
        <time>2015-08-30T05:21:45Z</time>
      </trkpt>
      <trkpt lat="34.11562" lon="77.08602">
        <ele>3980.2</ele>
        <time>2015-08-30T05:21:58Z</time>
      </trkpt>
      <trkpt lat="34.11561" lon="77.08606">
        <ele>3980.6</ele>
        <time>2015-08-30T05:22:01Z</time>
      </trkpt>
      <trkpt lat="34.11565" lon="77.08625">
        <ele>3980.2</ele>
        <time>2015-08-30T05:22:17Z</time>
      </trkpt>
      <trkpt lat="34.1157" lon="77.08646">
        <ele>3980</ele>
        <time>2015-08-30T05:22:41Z</time>
      </trkpt>
      <trkpt lat="34.11567" lon="77.08648">
        <ele>3980</ele>
        <time>2015-08-30T05:22:43Z</time>
      </trkpt>
      <trkpt lat="34.11565" lon="77.08651">
        <ele>3980</ele>
        <time>2015-08-30T05:22:45Z</time>
      </trkpt>
      <trkpt lat="34.11566" lon="77.08651">
        <ele>3980</ele>
        <time>2015-08-30T05:22:48Z</time>
      </trkpt>
      <trkpt lat="34.11568" lon="77.08664">
        <ele>3980.2</ele>
        <time>2015-08-30T05:22:55Z</time>
      </trkpt>
      <trkpt lat="34.11567" lon="77.08672">
        <ele>3980.4</ele>
        <time>2015-08-30T05:23:01Z</time>
      </trkpt>
      <trkpt lat="34.11565" lon="77.08677">
        <ele>3980.6</ele>
        <time>2015-08-30T05:23:05Z</time>
      </trkpt>
      <trkpt lat="34.11564" lon="77.0868">
        <ele>3980.6</ele>
        <time>2015-08-30T05:23:07Z</time>
      </trkpt>
      <trkpt lat="34.1156" lon="77.08682">
        <ele>3980.4</ele>
        <time>2015-08-30T05:23:11Z</time>
      </trkpt>
      <trkpt lat="34.11559" lon="77.08683">
        <ele>3980</ele>
        <time>2015-08-30T05:23:14Z</time>
      </trkpt>
      <trkpt lat="34.1156" lon="77.08688">
        <ele>3979.8</ele>
        <time>2015-08-30T05:23:17Z</time>
      </trkpt>
      <trkpt lat="34.1156" lon="77.08695">
        <ele>3979.6</ele>
        <time>2015-08-30T05:23:21Z</time>
      </trkpt>
      <trkpt lat="34.11561" lon="77.08698">
        <ele>3979.4</ele>
        <time>2015-08-30T05:23:23Z</time>
      </trkpt>
      <trkpt lat="34.1156" lon="77.08705">
        <ele>3979.2</ele>
        <time>2015-08-30T05:23:28Z</time>
      </trkpt>
      <trkpt lat="34.11559" lon="77.08707">
        <ele>3979</ele>
        <time>2015-08-30T05:23:31Z</time>
      </trkpt>
      <trkpt lat="34.11558" lon="77.08715">
        <ele>3979</ele>
        <time>2015-08-30T05:23:36Z</time>
      </trkpt>
      <trkpt lat="34.11555" lon="77.08717">
        <ele>3979</ele>
        <time>2015-08-30T05:23:38Z</time>
      </trkpt>
      <trkpt lat="34.11548" lon="77.08733">
        <ele>3979.8</ele>
        <time>2015-08-30T05:23:58Z</time>
      </trkpt>
      <trkpt lat="34.1155" lon="77.08737">
        <ele>3979.8</ele>
        <time>2015-08-30T05:24:01Z</time>
      </trkpt>
      <trkpt lat="34.1155" lon="77.08741">
        <ele>3979.6</ele>
        <time>2015-08-30T05:24:04Z</time>
      </trkpt>
      <trkpt lat="34.11549" lon="77.08762">
        <ele>3979.8</ele>
        <time>2015-08-30T05:24:22Z</time>
      </trkpt>
      <trkpt lat="34.1155" lon="77.08769">
        <ele>3979.6</ele>
        <time>2015-08-30T05:24:26Z</time>
      </trkpt>
      <trkpt lat="34.11548" lon="77.08772">
        <ele>3979.6</ele>
        <time>2015-08-30T05:24:31Z</time>
      </trkpt>
      <trkpt lat="34.11548" lon="77.08774">
        <ele>3979.6</ele>
        <time>2015-08-30T05:24:33Z</time>
      </trkpt>
      <trkpt lat="34.11548" lon="77.08782">
        <ele>3979.6</ele>
        <time>2015-08-30T05:24:44Z</time>
      </trkpt>
      <trkpt lat="34.11551" lon="77.08788">
        <ele>3979.8</ele>
        <time>2015-08-30T05:24:48Z</time>
      </trkpt>
      <trkpt lat="34.11553" lon="77.08802">
        <ele>3979.6</ele>
        <time>2015-08-30T05:25:02Z</time>
      </trkpt>
      <trkpt lat="34.11558" lon="77.0881">
        <ele>3979.4</ele>
        <time>2015-08-30T05:25:09Z</time>
      </trkpt>
      <trkpt lat="34.1156" lon="77.08822">
        <ele>3979.4</ele>
        <time>2015-08-30T05:25:24Z</time>
      </trkpt>
      <trkpt lat="34.1156" lon="77.08824">
        <ele>3979.4</ele>
        <time>2015-08-30T05:25:26Z</time>
      </trkpt>
      <trkpt lat="34.11554" lon="77.08835">
        <ele>3979</ele>
        <time>2015-08-30T05:25:32Z</time>
      </trkpt>
      <trkpt lat="34.11554" lon="77.08839">
        <ele>3978.6</ele>
        <time>2015-08-30T05:25:35Z</time>
      </trkpt>
      <trkpt lat="34.11555" lon="77.0884">
        <ele>3978.2</ele>
        <time>2015-08-30T05:25:37Z</time>
      </trkpt>
      <trkpt lat="34.11555" lon="77.08841">
        <ele>3978.2</ele>
        <time>2015-08-30T05:25:38Z</time>
      </trkpt>
      <trkpt lat="34.11555" lon="77.08842">
        <ele>3978</ele>
        <time>2015-08-30T05:25:42Z</time>
      </trkpt>
      <trkpt lat="34.11559" lon="77.08846">
        <ele>3978.8</ele>
        <time>2015-08-30T05:25:54Z</time>
      </trkpt>
      <trkpt lat="34.11562" lon="77.08843">
        <ele>3978.8</ele>
        <time>2015-08-30T05:26:00Z</time>
      </trkpt>
      <trkpt lat="34.11561" lon="77.08841">
        <ele>3979.2</ele>
        <time>2015-08-30T05:26:05Z</time>
      </trkpt>
      <trkpt lat="34.11563" lon="77.0883">
        <ele>3979.2</ele>
        <time>2015-08-30T05:26:16Z</time>
      </trkpt>
      <trkpt lat="34.11562" lon="77.08823">
        <ele>3979.2</ele>
        <time>2015-08-30T05:26:24Z</time>
      </trkpt>
      <trkpt lat="34.11557" lon="77.08838">
        <ele>3979.2</ele>
        <time>2015-08-30T05:26:57Z</time>
      </trkpt>
      <trkpt lat="34.11563" lon="77.08836">
        <ele>3978.6</ele>
        <time>2015-08-30T05:27:41Z</time>
      </trkpt>
      <trkpt lat="34.11561" lon="77.08835">
        <ele>3978.4</ele>
        <time>2015-08-30T05:27:56Z</time>
      </trkpt>
      <trkpt lat="34.11558" lon="77.08837">
        <ele>3978.4</ele>
        <time>2015-08-30T05:28:59Z</time>
      </trkpt>
      <trkpt lat="34.11556" lon="77.08839">
        <ele>3978.2</ele>
        <time>2015-08-30T05:29:17Z</time>
      </trkpt>
      <trkpt lat="34.11561" lon="77.08839">
        <ele>3978.2</ele>
        <time>2015-08-30T05:29:30Z</time>
      </trkpt>
      <trkpt lat="34.1156" lon="77.08837">
        <ele>3978</ele>
        <time>2015-08-30T05:29:43Z</time>
      </trkpt>
      <trkpt lat="34.11553" lon="77.08834">
        <ele>3977.2</ele>
        <time>2015-08-30T05:30:09Z</time>
      </trkpt>
      <trkpt lat="34.11551" lon="77.08835">
        <ele>3977.2</ele>
        <time>2015-08-30T05:30:14Z</time>
      </trkpt>
      <trkpt lat="34.11574" lon="77.08838">
        <ele>3977.2</ele>
        <time>2015-08-30T05:30:19Z</time>
      </trkpt>
      <trkpt lat="34.11577" lon="77.08839">
        <ele>3977.2</ele>
        <time>2015-08-30T05:30:20Z</time>
      </trkpt>
      <trkpt lat="34.11584" lon="77.0884">
        <ele>3977.2</ele>
        <time>2015-08-30T05:30:24Z</time>
      </trkpt>
      <trkpt lat="34.11566" lon="77.08841">
        <ele>3976.4</ele>
        <time>2015-08-30T05:30:52Z</time>
      </trkpt>
      <trkpt lat="34.11556" lon="77.08836">
        <ele>3976.2</ele>
        <time>2015-08-30T05:30:58Z</time>
      </trkpt>
      <trkpt lat="34.1155" lon="77.08831">
        <ele>3975.8</ele>
        <time>2015-08-30T05:31:43Z</time>
      </trkpt>
      <trkpt lat="34.11548" lon="77.08828">
        <ele>3976</ele>
        <time>2015-08-30T05:32:42Z</time>
      </trkpt>
      <trkpt lat="34.11554" lon="77.08829">
        <ele>3976.2</ele>
        <time>2015-08-30T05:33:26Z</time>
      </trkpt>
      <trkpt lat="34.11557" lon="77.08833">
        <ele>3976.4</ele>
        <time>2015-08-30T05:33:28Z</time>
      </trkpt>
      <trkpt lat="34.11553" lon="77.08825">
        <ele>3976</ele>
        <time>2015-08-30T05:33:45Z</time>
      </trkpt>
      <trkpt lat="34.11565" lon="77.08824">
        <ele>3976.4</ele>
        <time>2015-08-30T05:34:01Z</time>
      </trkpt>
      <trkpt lat="34.11557" lon="77.08832">
        <ele>3976</ele>
        <time>2015-08-30T05:34:41Z</time>
      </trkpt>
      <trkpt lat="34.11557" lon="77.08837">
        <ele>3975.8</ele>
        <time>2015-08-30T05:35:19Z</time>
      </trkpt>
      <trkpt lat="34.11551" lon="77.08836">
        <ele>3977.4</ele>
        <time>2015-08-30T05:35:38Z</time>
      </trkpt>
      <trkpt lat="34.11553" lon="77.0883">
        <ele>3976.2</ele>
        <time>2015-08-30T05:36:06Z</time>
      </trkpt>
      <trkpt lat="34.11546" lon="77.08834">
        <ele>3977.2</ele>
        <time>2015-08-30T05:36:50Z</time>
      </trkpt>
      <trkpt lat="34.11549" lon="77.08838">
        <ele>3977.4</ele>
        <time>2015-08-30T05:36:52Z</time>
      </trkpt>
      <trkpt lat="34.11555" lon="77.08832">
        <ele>3976.2</ele>
        <time>2015-08-30T05:37:06Z</time>
      </trkpt>
      <trkpt lat="34.1155" lon="77.08827">
        <ele>3975.8</ele>
        <time>2015-08-30T05:37:23Z</time>
      </trkpt>
      <trkpt lat="34.1155" lon="77.08828">
        <ele>3976</ele>
        <time>2015-08-30T05:37:27Z</time>
      </trkpt>
      <trkpt lat="34.1155" lon="77.08835">
        <ele>3976.8</ele>
        <time>2015-08-30T05:37:30Z</time>
      </trkpt>
      <trkpt lat="34.1155" lon="77.08838">
        <ele>3977</ele>
        <time>2015-08-30T05:37:32Z</time>
      </trkpt>
      <trkpt lat="34.11554" lon="77.08844">
        <ele>3976.4</ele>
        <time>2015-08-30T05:38:04Z</time>
      </trkpt>
      <trkpt lat="34.11558" lon="77.08848">
        <ele>3977.2</ele>
        <time>2015-08-30T05:38:09Z</time>
      </trkpt>
      <trkpt lat="34.11554" lon="77.08862">
        <ele>3976.2</ele>
        <time>2015-08-30T05:38:31Z</time>
      </trkpt>
      <trkpt lat="34.11554" lon="77.08866">
        <ele>3975</ele>
        <time>2015-08-30T05:38:36Z</time>
      </trkpt>
      <trkpt lat="34.11551" lon="77.08866">
        <ele>3974</ele>
        <time>2015-08-30T05:38:41Z</time>
      </trkpt>
      <trkpt lat="34.11552" lon="77.08864">
        <ele>3973.2</ele>
        <time>2015-08-30T05:38:45Z</time>
      </trkpt>
      <trkpt lat="34.11552" lon="77.08862">
        <ele>3973</ele>
        <time>2015-08-30T05:38:47Z</time>
      </trkpt>
      <trkpt lat="34.11551" lon="77.08862">
        <ele>3972.8</ele>
        <time>2015-08-30T05:38:48Z</time>
      </trkpt>
      <trkpt lat="34.1155" lon="77.08861">
        <ele>3972.6</ele>
        <time>2015-08-30T05:38:50Z</time>
      </trkpt>
      <trkpt lat="34.11549" lon="77.0886">
        <ele>3971.8</ele>
        <time>2015-08-30T05:39:05Z</time>
      </trkpt>
      <trkpt lat="34.1155" lon="77.08862">
        <ele>3970.8</ele>
        <time>2015-08-30T05:39:11Z</time>
      </trkpt>
      <trkpt lat="34.11552" lon="77.08865">
        <ele>3971.6</ele>
        <time>2015-08-30T05:39:23Z</time>
      </trkpt>
      <trkpt lat="34.11551" lon="77.08874">
        <ele>3971.4</ele>
        <time>2015-08-30T05:39:31Z</time>
      </trkpt>
      <trkpt lat="34.11547" lon="77.08871">
        <ele>3969.8</ele>
        <time>2015-08-30T05:39:46Z</time>
      </trkpt>
      <trkpt lat="34.11546" lon="77.0887">
        <ele>3969.8</ele>
        <time>2015-08-30T05:39:47Z</time>
      </trkpt>
      <trkpt lat="34.11551" lon="77.08865">
        <ele>3971.2</ele>
        <time>2015-08-30T05:40:00Z</time>
      </trkpt>
      <trkpt lat="34.11552" lon="77.08863">
        <ele>3971.6</ele>
        <time>2015-08-30T05:40:02Z</time>
      </trkpt>
      <trkpt lat="34.11553" lon="77.08862">
        <ele>3972.2</ele>
        <time>2015-08-30T05:40:04Z</time>
      </trkpt>
      <trkpt lat="34.11563" lon="77.08876">
        <ele>3972</ele>
        <time>2015-08-30T05:40:21Z</time>
      </trkpt>
      <trkpt lat="34.11542" lon="77.08905">
        <ele>3972.8</ele>
        <time>2015-08-30T05:40:54Z</time>
      </trkpt>
      <trkpt lat="34.11556" lon="77.08887">
        <ele>3972.6</ele>
        <time>2015-08-30T05:40:56Z</time>
      </trkpt>
      <trkpt lat="34.11562" lon="77.08869">
        <ele>3972.8</ele>
        <time>2015-08-30T05:40:59Z</time>
      </trkpt>
      <trkpt lat="34.11562" lon="77.08867">
        <ele>3972.6</ele>
        <time>2015-08-30T05:41:01Z</time>
      </trkpt>
      <trkpt lat="34.11562" lon="77.08866">
        <ele>3972.6</ele>
        <time>2015-08-30T05:41:05Z</time>
      </trkpt>
      <trkpt lat="34.11559" lon="77.08862">
        <ele>3972.4</ele>
        <time>2015-08-30T05:41:08Z</time>
      </trkpt>
      <trkpt lat="34.11563" lon="77.08864">
        <ele>3972.4</ele>
        <time>2015-08-30T05:41:11Z</time>
      </trkpt>
      <trkpt lat="34.11559" lon="77.08867">
        <ele>3972.2</ele>
        <time>2015-08-30T05:41:18Z</time>
      </trkpt>
      <trkpt lat="34.11555" lon="77.08872">
        <ele>3971.4</ele>
        <time>2015-08-30T05:41:23Z</time>
      </trkpt>
      <trkpt lat="34.11556" lon="77.08872">
        <ele>3971</ele>
        <time>2015-08-30T05:41:26Z</time>
      </trkpt>
      <trkpt lat="34.11548" lon="77.08877">
        <ele>3970.6</ele>
        <time>2015-08-30T05:42:02Z</time>
      </trkpt>
      <trkpt lat="34.1155" lon="77.08879">
        <ele>3970</ele>
        <time>2015-08-30T05:42:09Z</time>
      </trkpt>
      <trkpt lat="34.1155" lon="77.08884">
        <ele>3969.8</ele>
        <time>2015-08-30T05:42:20Z</time>
      </trkpt>
      <trkpt lat="34.11559" lon="77.08881">
        <ele>3969</ele>
        <time>2015-08-30T05:42:52Z</time>
      </trkpt>
      <trkpt lat="34.11557" lon="77.08886">
        <ele>3968.8</ele>
        <time>2015-08-30T05:43:19Z</time>
      </trkpt>
      <trkpt lat="34.11556" lon="77.08879">
        <ele>3970</ele>
        <time>2015-08-30T05:43:28Z</time>
      </trkpt>
      <trkpt lat="34.11551" lon="77.08873">
        <ele>3969.8</ele>
        <time>2015-08-30T05:43:48Z</time>
      </trkpt>
      <trkpt lat="34.11552" lon="77.08872">
        <ele>3969.6</ele>
        <time>2015-08-30T05:43:52Z</time>
      </trkpt>
      <trkpt lat="34.11569" lon="77.08841">
        <ele>3969.8</ele>
        <time>2015-08-30T05:44:26Z</time>
      </trkpt>
      <trkpt lat="34.11571" lon="77.08848">
        <ele>3969.6</ele>
        <time>2015-08-30T05:44:29Z</time>
      </trkpt>
      <trkpt lat="34.11567" lon="77.08854">
        <ele>3969.2</ele>
        <time>2015-08-30T05:44:32Z</time>
      </trkpt>
      <trkpt lat="34.11565" lon="77.08861">
        <ele>3969</ele>
        <time>2015-08-30T05:44:34Z</time>
      </trkpt>
      <trkpt lat="34.11564" lon="77.08861">
        <ele>3969</ele>
        <time>2015-08-30T05:44:35Z</time>
      </trkpt>
      <trkpt lat="34.11558" lon="77.08869">
        <ele>3967.8</ele>
        <time>2015-08-30T05:44:45Z</time>
      </trkpt>
      <trkpt lat="34.11566" lon="77.08871">
        <ele>3967.8</ele>
        <time>2015-08-30T05:44:50Z</time>
      </trkpt>
      <trkpt lat="34.11559" lon="77.08888">
        <ele>3967</ele>
        <time>2015-08-30T05:45:39Z</time>
      </trkpt>
      <trkpt lat="34.11557" lon="77.08892">
        <ele>3966.8</ele>
        <time>2015-08-30T05:45:41Z</time>
      </trkpt>
      <trkpt lat="34.11564" lon="77.08887">
        <ele>3966.2</ele>
        <time>2015-08-30T05:46:16Z</time>
      </trkpt>
      <trkpt lat="34.11564" lon="77.08878">
        <ele>3966.2</ele>
        <time>2015-08-30T05:46:56Z</time>
      </trkpt>
      <trkpt lat="34.11569" lon="77.08878">
        <ele>3965.8</ele>
        <time>2015-08-30T05:47:03Z</time>
      </trkpt>
      <trkpt lat="34.11566" lon="77.0888">
        <ele>3965.6</ele>
        <time>2015-08-30T05:47:08Z</time>
      </trkpt>
      <trkpt lat="34.11563" lon="77.08878">
        <ele>3965.2</ele>
        <time>2015-08-30T05:47:58Z</time>
      </trkpt>
      <trkpt lat="34.11569" lon="77.08877">
        <ele>3965.2</ele>
        <time>2015-08-30T05:48:55Z</time>
      </trkpt>
      <trkpt lat="34.11573" lon="77.08881">
        <ele>3964.8</ele>
        <time>2015-08-30T05:49:16Z</time>
      </trkpt>
      <trkpt lat="34.11566" lon="77.08885">
        <ele>3964.8</ele>
        <time>2015-08-30T05:49:59Z</time>
      </trkpt>
      <trkpt lat="34.11566" lon="77.08883">
        <ele>3964.6</ele>
        <time>2015-08-30T05:50:00Z</time>
      </trkpt>
      <trkpt lat="34.11571" lon="77.08863">
        <ele>3964.4</ele>
        <time>2015-08-30T05:50:23Z</time>
      </trkpt>
      <trkpt lat="34.11572" lon="77.0886">
        <ele>3964.4</ele>
        <time>2015-08-30T05:50:24Z</time>
      </trkpt>
      <trkpt lat="34.11574" lon="77.08854">
        <ele>3964.8</ele>
        <time>2015-08-30T05:50:28Z</time>
      </trkpt>
      <trkpt lat="34.11575" lon="77.0886">
        <ele>3965</ele>
        <time>2015-08-30T05:50:36Z</time>
      </trkpt>
      <trkpt lat="34.1157" lon="77.08867">
        <ele>3965</ele>
        <time>2015-08-30T05:50:39Z</time>
      </trkpt>
      <trkpt lat="34.11574" lon="77.08867">
        <ele>3964.8</ele>
        <time>2015-08-30T05:50:44Z</time>
      </trkpt>
      <trkpt lat="34.11563" lon="77.08875">
        <ele>3965</ele>
        <time>2015-08-30T05:50:52Z</time>
      </trkpt>
      <trkpt lat="34.11552" lon="77.08886">
        <ele>3965</ele>
        <time>2015-08-30T05:51:10Z</time>
      </trkpt>
      <trkpt lat="34.11567" lon="77.08874">
        <ele>3965</ele>
        <time>2015-08-30T05:51:32Z</time>
      </trkpt>
      <trkpt lat="34.11561" lon="77.08879">
        <ele>3964.2</ele>
        <time>2015-08-30T05:52:04Z</time>
      </trkpt>
      <trkpt lat="34.11546" lon="77.08902">
        <ele>3964.6</ele>
        <time>2015-08-30T05:52:26Z</time>
      </trkpt>
      <trkpt lat="34.11549" lon="77.08895">
        <ele>3964.6</ele>
        <time>2015-08-30T05:52:28Z</time>
      </trkpt>
      <trkpt lat="34.11554" lon="77.0888">
        <ele>3964.8</ele>
        <time>2015-08-30T05:52:36Z</time>
      </trkpt>
      <trkpt lat="34.11557" lon="77.08877">
        <ele>3964.6</ele>
        <time>2015-08-30T05:52:39Z</time>
      </trkpt>
      <trkpt lat="34.1155" lon="77.08885">
        <ele>3964.6</ele>
        <time>2015-08-30T05:52:48Z</time>
      </trkpt>
      <trkpt lat="34.11538" lon="77.08892">
        <ele>3964.6</ele>
        <time>2015-08-30T05:53:08Z</time>
      </trkpt>
      <trkpt lat="34.11534" lon="77.08895">
        <ele>3964.6</ele>
        <time>2015-08-30T05:53:14Z</time>
      </trkpt>
      <trkpt lat="34.11552" lon="77.08878">
        <ele>3964.2</ele>
        <time>2015-08-30T05:53:33Z</time>
      </trkpt>
      <trkpt lat="34.11557" lon="77.08873">
        <ele>3964.6</ele>
        <time>2015-08-30T05:53:37Z</time>
      </trkpt>
      <trkpt lat="34.11563" lon="77.08873">
        <ele>3964.6</ele>
        <time>2015-08-30T05:53:40Z</time>
      </trkpt>
      <trkpt lat="34.11574" lon="77.08876">
        <ele>3964.6</ele>
        <time>2015-08-30T05:54:40Z</time>
      </trkpt>
      <trkpt lat="34.11572" lon="77.08878">
        <ele>3964.4</ele>
        <time>2015-08-30T05:54:44Z</time>
      </trkpt>
      <trkpt lat="34.11564" lon="77.08883">
        <ele>3963.8</ele>
        <time>2015-08-30T05:54:54Z</time>
      </trkpt>
      <trkpt lat="34.11506" lon="77.08973">
        <ele>3964.4</ele>
        <time>2015-08-30T05:57:15Z</time>
      </trkpt>
      <trkpt lat="34.11508" lon="77.08971">
        <ele>3964.4</ele>
        <time>2015-08-30T05:57:18Z</time>
      </trkpt>
      <trkpt lat="34.11513" lon="77.08967">
        <ele>3964.4</ele>
        <time>2015-08-30T05:57:23Z</time>
      </trkpt>
      <trkpt lat="34.11514" lon="77.08967">
        <ele>3964.4</ele>
        <time>2015-08-30T05:57:25Z</time>
      </trkpt>
      <trkpt lat="34.11522" lon="77.08962">
        <ele>3963.8</ele>
        <time>2015-08-30T05:57:40Z</time>
      </trkpt>
      <trkpt lat="34.11571" lon="77.0886">
        <ele>3962.8</ele>
        <time>2015-08-30T05:58:15Z</time>
      </trkpt>
      <trkpt lat="34.1156" lon="77.0889">
        <ele>3962.4</ele>
        <time>2015-08-30T05:58:52Z</time>
      </trkpt>
      <trkpt lat="34.11565" lon="77.08883">
        <ele>3962.2</ele>
        <time>2015-08-30T05:58:56Z</time>
      </trkpt>
      <trkpt lat="34.11573" lon="77.08871">
        <ele>3962.2</ele>
        <time>2015-08-30T05:59:07Z</time>
      </trkpt>
      <trkpt lat="34.11565" lon="77.08881">
        <ele>3962</ele>
        <time>2015-08-30T05:59:33Z</time>
      </trkpt>
      <trkpt lat="34.11561" lon="77.08884">
        <ele>3961.6</ele>
        <time>2015-08-30T05:59:56Z</time>
      </trkpt>
      <trkpt lat="34.11568" lon="77.08872">
        <ele>3962</ele>
        <time>2015-08-30T06:02:36Z</time>
      </trkpt>
      <trkpt lat="34.11617" lon="77.08858">
        <ele>3962.2</ele>
        <time>2015-08-30T06:05:37Z</time>
      </trkpt>
      <trkpt lat="34.11559" lon="77.08872">
        <ele>3962.6</ele>
        <time>2015-08-30T06:06:43Z</time>
      </trkpt>
      <trkpt lat="34.11568" lon="77.08875">
        <ele>3962.8</ele>
        <time>2015-08-30T06:06:57Z</time>
      </trkpt>
      <trkpt lat="34.11563" lon="77.08888">
        <ele>3961.6</ele>
        <time>2015-08-30T06:08:30Z</time>
      </trkpt>
      <trkpt lat="34.11555" lon="77.08887">
        <ele>3961.6</ele>
        <time>2015-08-30T06:08:36Z</time>
      </trkpt>
      <trkpt lat="34.11564" lon="77.08885">
        <ele>3960.8</ele>
        <time>2015-08-30T06:09:08Z</time>
      </trkpt>
      <trkpt lat="34.11579" lon="77.0887">
        <ele>3960.6</ele>
        <time>2015-08-30T06:09:16Z</time>
      </trkpt>
      <trkpt lat="34.11578" lon="77.08874">
        <ele>3961.2</ele>
        <time>2015-08-30T06:09:52Z</time>
      </trkpt>
      <trkpt lat="34.11564" lon="77.08884">
        <ele>3960.8</ele>
        <time>2015-08-30T06:10:14Z</time>
      </trkpt>
      <trkpt lat="34.11563" lon="77.08884">
        <ele>3960.8</ele>
        <time>2015-08-30T06:10:16Z</time>
      </trkpt>
      <trkpt lat="34.11563" lon="77.08886">
        <ele>3960.8</ele>
        <time>2015-08-30T06:10:23Z</time>
      </trkpt>
      <trkpt lat="34.1157" lon="77.08883">
        <ele>3960.6</ele>
        <time>2015-08-30T06:10:39Z</time>
      </trkpt>
      <trkpt lat="34.11563" lon="77.08883">
        <ele>3961</ele>
        <time>2015-08-30T06:15:52Z</time>
      </trkpt>
      <trkpt lat="34.11562" lon="77.08887">
        <ele>3960.4</ele>
        <time>2015-08-30T06:17:14Z</time>
      </trkpt>
      <trkpt lat="34.11554" lon="77.08888">
        <ele>3960.8</ele>
        <time>2015-08-30T06:17:21Z</time>
      </trkpt>
      <trkpt lat="34.11554" lon="77.08881">
        <ele>3961.4</ele>
        <time>2015-08-30T06:17:39Z</time>
      </trkpt>
      <trkpt lat="34.11554" lon="77.08878">
        <ele>3961.4</ele>
        <time>2015-08-30T06:17:42Z</time>
      </trkpt>
      <trkpt lat="34.11558" lon="77.0888">
        <ele>3961.6</ele>
        <time>2015-08-30T06:17:52Z</time>
      </trkpt>
      <trkpt lat="34.11567" lon="77.08876">
        <ele>3961.2</ele>
        <time>2015-08-30T06:18:43Z</time>
      </trkpt>
      <trkpt lat="34.11574" lon="77.08881">
        <ele>3961.6</ele>
        <time>2015-08-30T06:19:23Z</time>
      </trkpt>
      <trkpt lat="34.11575" lon="77.08878">
        <ele>3961.6</ele>
        <time>2015-08-30T06:19:26Z</time>
      </trkpt>
      <trkpt lat="34.11568" lon="77.08882">
        <ele>3961.4</ele>
        <time>2015-08-30T06:19:59Z</time>
      </trkpt>
      <trkpt lat="34.11564" lon="77.08879">
        <ele>3961.2</ele>
        <time>2015-08-30T06:20:17Z</time>
      </trkpt>
      <trkpt lat="34.11557" lon="77.08883">
        <ele>3961</ele>
        <time>2015-08-30T06:20:36Z</time>
      </trkpt>
      <trkpt lat="34.11574" lon="77.08881">
        <ele>3961.2</ele>
        <time>2015-08-30T06:20:56Z</time>
      </trkpt>
      <trkpt lat="34.11572" lon="77.08883">
        <ele>3961</ele>
        <time>2015-08-30T06:20:59Z</time>
      </trkpt>
      <trkpt lat="34.11571" lon="77.08881">
        <ele>3960.6</ele>
        <time>2015-08-30T06:21:04Z</time>
      </trkpt>
      <trkpt lat="34.11566" lon="77.08879">
        <ele>3961</ele>
        <time>2015-08-30T06:22:00Z</time>
      </trkpt>
      <trkpt lat="34.1157" lon="77.08876">
        <ele>3961</ele>
        <time>2015-08-30T06:22:18Z</time>
      </trkpt>
      <trkpt lat="34.11559" lon="77.08892">
        <ele>3961</ele>
        <time>2015-08-30T06:22:48Z</time>
      </trkpt>
      <trkpt lat="34.11562" lon="77.08896">
        <ele>3960.6</ele>
        <time>2015-08-30T06:22:55Z</time>
      </trkpt>
      <trkpt lat="34.11538" lon="77.08887">
        <ele>3960.2</ele>
        <time>2015-08-30T06:23:49Z</time>
      </trkpt>
      <trkpt lat="34.11543" lon="77.08889">
        <ele>3960.2</ele>
        <time>2015-08-30T06:23:52Z</time>
      </trkpt>
      <trkpt lat="34.11544" lon="77.08894">
        <ele>3960.2</ele>
        <time>2015-08-30T06:23:55Z</time>
      </trkpt>
      <trkpt lat="34.11559" lon="77.08889">
        <ele>3960.6</ele>
        <time>2015-08-30T06:24:03Z</time>
      </trkpt>
      <trkpt lat="34.11566" lon="77.08873">
        <ele>3960.4</ele>
        <time>2015-08-30T06:24:48Z</time>
      </trkpt>
      <trkpt lat="34.11557" lon="77.08887">
        <ele>3960.6</ele>
        <time>2015-08-30T06:25:21Z</time>
      </trkpt>
      <trkpt lat="34.11579" lon="77.08856">
        <ele>3960.8</ele>
        <time>2015-08-30T06:30:29Z</time>
      </trkpt>
      <trkpt lat="34.11573" lon="77.08882">
        <ele>3960.2</ele>
        <time>2015-08-30T06:30:43Z</time>
      </trkpt>
      <trkpt lat="34.11566" lon="77.08887">
        <ele>3960.2</ele>
        <time>2015-08-30T06:30:44Z</time>
      </trkpt>
      <trkpt lat="34.11539" lon="77.08868">
        <ele>3960.4</ele>
        <time>2015-08-30T06:31:15Z</time>
      </trkpt>
      <trkpt lat="34.11546" lon="77.08871">
        <ele>3960.4</ele>
        <time>2015-08-30T06:31:20Z</time>
      </trkpt>
      <trkpt lat="34.11548" lon="77.08893">
        <ele>3963.4</ele>
        <time>2015-08-30T06:32:46Z</time>
      </trkpt>
      <trkpt lat="34.11588" lon="77.08868">
        <ele>3961.8</ele>
        <time>2015-08-30T06:39:30Z</time>
      </trkpt>
      <trkpt lat="34.11583" lon="77.08863">
        <ele>3961.6</ele>
        <time>2015-08-30T06:39:33Z</time>
      </trkpt>
      <trkpt lat="34.11594" lon="77.08853">
        <ele>3961.6</ele>
        <time>2015-08-30T06:39:35Z</time>
      </trkpt>
      <trkpt lat="34.11595" lon="77.08851">
        <ele>3961.6</ele>
        <time>2015-08-30T06:39:37Z</time>
      </trkpt>
      <trkpt lat="34.11585" lon="77.08857">
        <ele>3962.4</ele>
        <time>2015-08-30T06:39:47Z</time>
      </trkpt>
      <trkpt lat="34.11597" lon="77.08824">
        <ele>3960.6</ele>
        <time>2015-08-30T06:40:38Z</time>
      </trkpt>
      <trkpt lat="34.11603" lon="77.0882">
        <ele>3960.4</ele>
        <time>2015-08-30T06:40:40Z</time>
      </trkpt>
      <trkpt lat="34.11624" lon="77.08837">
        <ele>3959.6</ele>
        <time>2015-08-30T06:41:15Z</time>
      </trkpt>
      <trkpt lat="34.11589" lon="77.08834">
        <ele>3958.6</ele>
        <time>2015-08-30T06:41:42Z</time>
      </trkpt>
      <trkpt lat="34.11578" lon="77.08845">
        <ele>3958.6</ele>
        <time>2015-08-30T06:41:52Z</time>
      </trkpt>
      <trkpt lat="34.11531" lon="77.0889">
        <ele>3959.4</ele>
        <time>2015-08-30T06:45:18Z</time>
      </trkpt>
      <trkpt lat="34.11531" lon="77.08887">
        <ele>3959.8</ele>
        <time>2015-08-30T06:45:28Z</time>
      </trkpt>
      <trkpt lat="34.11541" lon="77.08882">
        <ele>3959.4</ele>
        <time>2015-08-30T06:46:23Z</time>
      </trkpt>
      <trkpt lat="34.11558" lon="77.08883">
        <ele>3958.4</ele>
        <time>2015-08-30T06:46:27Z</time>
      </trkpt>
      <trkpt lat="34.1156" lon="77.08882">
        <ele>3958.4</ele>
        <time>2015-08-30T06:46:55Z</time>
      </trkpt>
      <trkpt lat="34.1156" lon="77.08882">
        <ele>3958.4</ele>
        <time>2015-08-30T06:46:56Z</time>
      </trkpt>
      <trkpt lat="34.11559" lon="77.08885">
        <ele>3959.2</ele>
        <time>2015-08-30T06:47:05Z</time>
      </trkpt>
      <trkpt lat="34.11557" lon="77.08879">
        <ele>3958.8</ele>
        <time>2015-08-30T06:47:22Z</time>
      </trkpt>
      <trkpt lat="34.11561" lon="77.08878">
        <ele>3958.6</ele>
        <time>2015-08-30T06:47:36Z</time>
      </trkpt>
      <trkpt lat="34.11561" lon="77.08877">
        <ele>3958.6</ele>
        <time>2015-08-30T06:47:38Z</time>
      </trkpt>
      <trkpt lat="34.11552" lon="77.08878">
        <ele>3958.8</ele>
        <time>2015-08-30T06:47:42Z</time>
      </trkpt>
      <trkpt lat="34.11551" lon="77.08877">
        <ele>3959</ele>
        <time>2015-08-30T06:47:44Z</time>
      </trkpt>
      <trkpt lat="34.11553" lon="77.08882">
        <ele>3959.6</ele>
        <time>2015-08-30T06:47:50Z</time>
      </trkpt>
      <trkpt lat="34.11558" lon="77.08879">
        <ele>3960.8</ele>
        <time>2015-08-30T06:48:16Z</time>
      </trkpt>
      <trkpt lat="34.11568" lon="77.0888">
        <ele>3961.8</ele>
        <time>2015-08-30T06:48:23Z</time>
      </trkpt>
      <trkpt lat="34.11565" lon="77.08871">
        <ele>3962.4</ele>
        <time>2015-08-30T06:48:34Z</time>
      </trkpt>
      <trkpt lat="34.11577" lon="77.08883">
        <ele>3962.6</ele>
        <time>2015-08-30T06:48:46Z</time>
      </trkpt>
      <trkpt lat="34.11551" lon="77.08886">
        <ele>3962.8</ele>
        <time>2015-08-30T06:49:03Z</time>
      </trkpt>
      <trkpt lat="34.11554" lon="77.08878">
        <ele>3961.4</ele>
        <time>2015-08-30T06:49:49Z</time>
      </trkpt>
      <trkpt lat="34.11562" lon="77.08874">
        <ele>3961.6</ele>
        <time>2015-08-30T06:49:51Z</time>
      </trkpt>
      <trkpt lat="34.11563" lon="77.08875">
        <ele>3961.6</ele>
        <time>2015-08-30T06:49:52Z</time>
      </trkpt>
      <trkpt lat="34.11565" lon="77.08875">
        <ele>3961.6</ele>
        <time>2015-08-30T06:49:53Z</time>
      </trkpt>
      <trkpt lat="34.11568" lon="77.08876">
        <ele>3961.8</ele>
        <time>2015-08-30T06:49:54Z</time>
      </trkpt>
      <trkpt lat="34.1159" lon="77.08857">
        <ele>3961.8</ele>
        <time>2015-08-30T06:50:14Z</time>
      </trkpt>
      <trkpt lat="34.11578" lon="77.08878">
        <ele>3962</ele>
        <time>2015-08-30T06:50:22Z</time>
      </trkpt>
      <trkpt lat="34.1157" lon="77.0889">
        <ele>3962</ele>
        <time>2015-08-30T06:50:24Z</time>
      </trkpt>
      <trkpt lat="34.11562" lon="77.08884">
        <ele>3961.8</ele>
        <time>2015-08-30T06:50:29Z</time>
      </trkpt>
      <trkpt lat="34.11556" lon="77.0886">
        <ele>3962.4</ele>
        <time>2015-08-30T06:51:26Z</time>
      </trkpt>
      <trkpt lat="34.11566" lon="77.08871">
        <ele>3962.8</ele>
        <time>2015-08-30T06:51:40Z</time>
      </trkpt>
      <trkpt lat="34.11568" lon="77.08871">
        <ele>3962.8</ele>
        <time>2015-08-30T06:51:45Z</time>
      </trkpt>
      <trkpt lat="34.11651" lon="77.08795">
        <ele>3962.4</ele>
        <time>2015-08-30T06:52:59Z</time>
      </trkpt>
      <trkpt lat="34.11642" lon="77.08806">
        <ele>3962.4</ele>
        <time>2015-08-30T06:53:03Z</time>
      </trkpt>
      <trkpt lat="34.11647" lon="77.08797">
        <ele>3962.4</ele>
        <time>2015-08-30T06:53:06Z</time>
      </trkpt>
      <trkpt lat="34.11573" lon="77.08876">
        <ele>3962</ele>
        <time>2015-08-30T06:53:10Z</time>
      </trkpt>
      <trkpt lat="34.11568" lon="77.08876">
        <ele>3961.8</ele>
        <time>2015-08-30T06:53:15Z</time>
      </trkpt>
      <trkpt lat="34.11567" lon="77.08876">
        <ele>3961.8</ele>
        <time>2015-08-30T06:53:18Z</time>
      </trkpt>
      <trkpt lat="34.11564" lon="77.08878">
        <ele>3962</ele>
        <time>2015-08-30T06:53:22Z</time>
      </trkpt>
      <trkpt lat="34.11561" lon="77.08881">
        <ele>3962.4</ele>
        <time>2015-08-30T06:53:27Z</time>
      </trkpt>
      <trkpt lat="34.11557" lon="77.08882">
        <ele>3962.4</ele>
        <time>2015-08-30T06:53:30Z</time>
      </trkpt>
      <trkpt lat="34.11556" lon="77.08884">
        <ele>3962.4</ele>
        <time>2015-08-30T06:53:33Z</time>
      </trkpt>
      <trkpt lat="34.1156" lon="77.08885">
        <ele>3962.2</ele>
        <time>2015-08-30T06:53:36Z</time>
      </trkpt>
      <trkpt lat="34.11562" lon="77.08878">
        <ele>3962.8</ele>
        <time>2015-08-30T06:54:09Z</time>
      </trkpt>
      <trkpt lat="34.11564" lon="77.08877">
        <ele>3962.8</ele>
        <time>2015-08-30T06:54:11Z</time>
      </trkpt>
      <trkpt lat="34.1156" lon="77.08872">
        <ele>3962.4</ele>
        <time>2015-08-30T06:54:27Z</time>
      </trkpt>
      <trkpt lat="34.11569" lon="77.08878">
        <ele>3961.6</ele>
        <time>2015-08-30T06:54:35Z</time>
      </trkpt>
      <trkpt lat="34.1157" lon="77.08879">
        <ele>3961.6</ele>
        <time>2015-08-30T06:54:36Z</time>
      </trkpt>
      <trkpt lat="34.1157" lon="77.08877">
        <ele>3960.6</ele>
        <time>2015-08-30T06:54:41Z</time>
      </trkpt>
      <trkpt lat="34.11561" lon="77.08859">
        <ele>3960.6</ele>
        <time>2015-08-30T06:55:07Z</time>
      </trkpt>
      <trkpt lat="34.11556" lon="77.08857">
        <ele>3960.2</ele>
        <time>2015-08-30T06:55:21Z</time>
      </trkpt>
      <trkpt lat="34.11557" lon="77.08871">
        <ele>3960.6</ele>
        <time>2015-08-30T06:56:16Z</time>
      </trkpt>
      <trkpt lat="34.11565" lon="77.08851">
        <ele>3961.2</ele>
        <time>2015-08-30T06:56:24Z</time>
      </trkpt>
      <trkpt lat="34.11559" lon="77.08858">
        <ele>3961.2</ele>
        <time>2015-08-30T06:56:26Z</time>
      </trkpt>
      <trkpt lat="34.11557" lon="77.08866">
        <ele>3961</ele>
        <time>2015-08-30T06:56:32Z</time>
      </trkpt>
      <trkpt lat="34.11555" lon="77.08877">
        <ele>3961.6</ele>
        <time>2015-08-30T06:57:27Z</time>
      </trkpt>
      <trkpt lat="34.1155" lon="77.08872">
        <ele>3961</ele>
        <time>2015-08-30T06:57:47Z</time>
      </trkpt>
      <trkpt lat="34.11553" lon="77.08866">
        <ele>3961</ele>
        <time>2015-08-30T06:58:18Z</time>
      </trkpt>
      <trkpt lat="34.11554" lon="77.08867">
        <ele>3961</ele>
        <time>2015-08-30T06:58:20Z</time>
      </trkpt>
      <trkpt lat="34.11552" lon="77.08871">
        <ele>3960.6</ele>
        <time>2015-08-30T06:58:30Z</time>
      </trkpt>
      <trkpt lat="34.11552" lon="77.08874">
        <ele>3961.2</ele>
        <time>2015-08-30T06:58:42Z</time>
      </trkpt>
      <trkpt lat="34.11563" lon="77.08877">
        <ele>3961.2</ele>
        <time>2015-08-30T06:59:00Z</time>
      </trkpt>
      <trkpt lat="34.11564" lon="77.08875">
        <ele>3961.2</ele>
        <time>2015-08-30T06:59:04Z</time>
      </trkpt>
      <trkpt lat="34.11557" lon="77.08863">
        <ele>3960.6</ele>
        <time>2015-08-30T06:59:17Z</time>
      </trkpt>
      <trkpt lat="34.1156" lon="77.08865">
        <ele>3960.2</ele>
        <time>2015-08-30T06:59:20Z</time>
      </trkpt>
      <trkpt lat="34.11563" lon="77.08868">
        <ele>3959.8</ele>
        <time>2015-08-30T06:59:22Z</time>
      </trkpt>
      <trkpt lat="34.11568" lon="77.08869">
        <ele>3959.8</ele>
        <time>2015-08-30T06:59:24Z</time>
      </trkpt>
      <trkpt lat="34.11571" lon="77.08866">
        <ele>3959.6</ele>
        <time>2015-08-30T06:59:26Z</time>
      </trkpt>
      <trkpt lat="34.11577" lon="77.08866">
        <ele>3959.6</ele>
        <time>2015-08-30T06:59:29Z</time>
      </trkpt>
      <trkpt lat="34.11573" lon="77.08876">
        <ele>3959</ele>
        <time>2015-08-30T06:59:32Z</time>
      </trkpt>
      <trkpt lat="34.11572" lon="77.08876">
        <ele>3958.6</ele>
        <time>2015-08-30T06:59:33Z</time>
      </trkpt>
      <trkpt lat="34.11573" lon="77.08876">
        <ele>3958.2</ele>
        <time>2015-08-30T06:59:34Z</time>
      </trkpt>
      <trkpt lat="34.1157" lon="77.08876">
        <ele>3958.8</ele>
        <time>2015-08-30T06:59:53Z</time>
      </trkpt>
      <trkpt lat="34.11568" lon="77.08876">
        <ele>3959</ele>
        <time>2015-08-30T06:59:55Z</time>
      </trkpt>
      <trkpt lat="34.11565" lon="77.08877">
        <ele>3958.6</ele>
        <time>2015-08-30T06:59:57Z</time>
      </trkpt>
      <trkpt lat="34.11564" lon="77.08876">
        <ele>3958.4</ele>
        <time>2015-08-30T06:59:59Z</time>
      </trkpt>
      <trkpt lat="34.11556" lon="77.0887">
        <ele>3959.2</ele>
        <time>2015-08-30T07:00:11Z</time>
      </trkpt>
      <trkpt lat="34.11553" lon="77.08869">
        <ele>3958.8</ele>
        <time>2015-08-30T07:00:15Z</time>
      </trkpt>
      <trkpt lat="34.11548" lon="77.08868">
        <ele>3958.8</ele>
        <time>2015-08-30T07:00:18Z</time>
      </trkpt>
      <trkpt lat="34.11544" lon="77.08867">
        <ele>3959.2</ele>
        <time>2015-08-30T07:00:22Z</time>
      </trkpt>
      <trkpt lat="34.11543" lon="77.08868">
        <ele>3959.8</ele>
        <time>2015-08-30T07:00:28Z</time>
      </trkpt>
      <trkpt lat="34.11542" lon="77.08867">
        <ele>3960.8</ele>
        <time>2015-08-30T07:00:37Z</time>
      </trkpt>
      <trkpt lat="34.11547" lon="77.0887">
        <ele>3961.8</ele>
        <time>2015-08-30T07:00:44Z</time>
      </trkpt>
      <trkpt lat="34.11548" lon="77.08869">
        <ele>3962.4</ele>
        <time>2015-08-30T07:00:49Z</time>
      </trkpt>
      <trkpt lat="34.11548" lon="77.08867">
        <ele>3962.8</ele>
        <time>2015-08-30T07:00:52Z</time>
      </trkpt>
      <trkpt lat="34.11551" lon="77.08867">
        <ele>3964</ele>
        <time>2015-08-30T07:01:00Z</time>
      </trkpt>
      <trkpt lat="34.11553" lon="77.08869">
        <ele>3965</ele>
        <time>2015-08-30T07:01:05Z</time>
      </trkpt>
      <trkpt lat="34.11559" lon="77.08867">
        <ele>3965.4</ele>
        <time>2015-08-30T07:01:11Z</time>
      </trkpt>
      <trkpt lat="34.11559" lon="77.08869">
        <ele>3965.6</ele>
        <time>2015-08-30T07:01:13Z</time>
      </trkpt>
      <trkpt lat="34.11561" lon="77.08873">
        <ele>3966</ele>
        <time>2015-08-30T07:01:16Z</time>
      </trkpt>
      <trkpt lat="34.11561" lon="77.08874">
        <ele>3966.2</ele>
        <time>2015-08-30T07:01:17Z</time>
      </trkpt>
      <trkpt lat="34.11565" lon="77.08875">
        <ele>3966.6</ele>
        <time>2015-08-30T07:01:20Z</time>
      </trkpt>
      <trkpt lat="34.11568" lon="77.08879">
        <ele>3966.6</ele>
        <time>2015-08-30T07:01:26Z</time>
      </trkpt>
      <trkpt lat="34.11568" lon="77.08886">
        <ele>3965</ele>
        <time>2015-08-30T07:01:39Z</time>
      </trkpt>
      <trkpt lat="34.11582" lon="77.089">
        <ele>3965</ele>
        <time>2015-08-30T07:01:57Z</time>
      </trkpt>
      <trkpt lat="34.1159" lon="77.089">
        <ele>3964.8</ele>
        <time>2015-08-30T07:02:03Z</time>
      </trkpt>
      <trkpt lat="34.11596" lon="77.08897">
        <ele>3964.8</ele>
        <time>2015-08-30T07:02:06Z</time>
      </trkpt>
      <trkpt lat="34.11605" lon="77.08903">
        <ele>3964</ele>
        <time>2015-08-30T07:02:18Z</time>
      </trkpt>
      <trkpt lat="34.11607" lon="77.08907">
        <ele>3964.4</ele>
        <time>2015-08-30T07:02:22Z</time>
      </trkpt>
      <trkpt lat="34.11619" lon="77.08912">
        <ele>3964.6</ele>
        <time>2015-08-30T07:02:26Z</time>
      </trkpt>
      <trkpt lat="34.11621" lon="77.08912">
        <ele>3964.6</ele>
        <time>2015-08-30T07:02:28Z</time>
      </trkpt>
      <trkpt lat="34.11633" lon="77.08915">
        <ele>3964.2</ele>
        <time>2015-08-30T07:02:56Z</time>
      </trkpt>
      <trkpt lat="34.11628" lon="77.08908">
        <ele>3964.2</ele>
        <time>2015-08-30T07:03:04Z</time>
      </trkpt>
      <trkpt lat="34.11624" lon="77.08905">
        <ele>3964.6</ele>
        <time>2015-08-30T07:03:13Z</time>
      </trkpt>
      <trkpt lat="34.11635" lon="77.08911">
        <ele>3964.4</ele>
        <time>2015-08-30T07:03:16Z</time>
      </trkpt>
      <trkpt lat="34.11637" lon="77.08914">
        <ele>3964</ele>
        <time>2015-08-30T07:03:26Z</time>
      </trkpt>
      <trkpt lat="34.11637" lon="77.08917">
        <ele>3962.8</ele>
        <time>2015-08-30T07:03:37Z</time>
      </trkpt>
      <trkpt lat="34.11644" lon="77.08914">
        <ele>3962.8</ele>
        <time>2015-08-30T07:03:56Z</time>
      </trkpt>
      <trkpt lat="34.11658" lon="77.08921">
        <ele>3965.8</ele>
        <time>2015-08-30T07:04:36Z</time>
      </trkpt>
      <trkpt lat="34.11666" lon="77.08919">
        <ele>3966</ele>
        <time>2015-08-30T07:04:40Z</time>
      </trkpt>
      <trkpt lat="34.11667" lon="77.08918">
        <ele>3966.2</ele>
        <time>2015-08-30T07:04:42Z</time>
      </trkpt>
      <trkpt lat="34.11664" lon="77.08921">
        <ele>3966.8</ele>
        <time>2015-08-30T07:04:45Z</time>
      </trkpt>
      <trkpt lat="34.11664" lon="77.08918">
        <ele>3967.2</ele>
        <time>2015-08-30T07:04:51Z</time>
      </trkpt>
      <trkpt lat="34.11659" lon="77.08918">
        <ele>3968.2</ele>
        <time>2015-08-30T07:05:02Z</time>
      </trkpt>
      <trkpt lat="34.11661" lon="77.08917">
        <ele>3968.8</ele>
        <time>2015-08-30T07:05:10Z</time>
      </trkpt>
      <trkpt lat="34.11656" lon="77.08922">
        <ele>3969.2</ele>
        <time>2015-08-30T07:05:20Z</time>
      </trkpt>
      <trkpt lat="34.11654" lon="77.08913">
        <ele>3970.2</ele>
        <time>2015-08-30T07:05:29Z</time>
      </trkpt>
      <trkpt lat="34.11654" lon="77.08912">
        <ele>3970.4</ele>
        <time>2015-08-30T07:05:30Z</time>
      </trkpt>
      <trkpt lat="34.11636" lon="77.08927">
        <ele>3971.4</ele>
        <time>2015-08-30T07:05:36Z</time>
      </trkpt>
      <trkpt lat="34.11632" lon="77.0893">
        <ele>3971.4</ele>
        <time>2015-08-30T07:05:37Z</time>
      </trkpt>
      <trkpt lat="34.11616" lon="77.08944">
        <ele>3971.2</ele>
        <time>2015-08-30T07:05:43Z</time>
      </trkpt>
      <trkpt lat="34.11596" lon="77.08949">
        <ele>3971.4</ele>
        <time>2015-08-30T07:05:51Z</time>
      </trkpt>
      <trkpt lat="34.11597" lon="77.08949">
        <ele>3972.4</ele>
        <time>2015-08-30T07:06:03Z</time>
      </trkpt>
      <trkpt lat="34.11597" lon="77.08939">
        <ele>3972.2</ele>
        <time>2015-08-30T07:06:07Z</time>
      </trkpt>
      <trkpt lat="34.11601" lon="77.08936">
        <ele>3972</ele>
        <time>2015-08-30T07:06:09Z</time>
      </trkpt>
      <trkpt lat="34.1159" lon="77.08926">
        <ele>3973.4</ele>
        <time>2015-08-30T07:06:30Z</time>
      </trkpt>
      <trkpt lat="34.11588" lon="77.08927">
        <ele>3973.4</ele>
        <time>2015-08-30T07:06:31Z</time>
      </trkpt>
      <trkpt lat="34.11582" lon="77.08937">
        <ele>3973.8</ele>
        <time>2015-08-30T07:06:47Z</time>
      </trkpt>
      <trkpt lat="34.11582" lon="77.08944">
        <ele>3974.6</ele>
        <time>2015-08-30T07:07:12Z</time>
      </trkpt>
      <trkpt lat="34.11567" lon="77.08958">
        <ele>3974.8</ele>
        <time>2015-08-30T07:07:19Z</time>
      </trkpt>
      <trkpt lat="34.11558" lon="77.0896">
        <ele>3975.4</ele>
        <time>2015-08-30T07:07:29Z</time>
      </trkpt>
      <trkpt lat="34.11557" lon="77.08966">
        <ele>3975.6</ele>
        <time>2015-08-30T07:07:35Z</time>
      </trkpt>
      <trkpt lat="34.11551" lon="77.08967">
        <ele>3975.4</ele>
        <time>2015-08-30T07:07:45Z</time>
      </trkpt>
      <trkpt lat="34.11553" lon="77.08966">
        <ele>3975.2</ele>
        <time>2015-08-30T07:08:06Z</time>
      </trkpt>
      <trkpt lat="34.11546" lon="77.08971">
        <ele>3975.2</ele>
        <time>2015-08-30T07:08:12Z</time>
      </trkpt>
      <trkpt lat="34.11542" lon="77.08972">
        <ele>3975.4</ele>
        <time>2015-08-30T07:08:15Z</time>
      </trkpt>
      <trkpt lat="34.11543" lon="77.08972">
        <ele>3975.4</ele>
        <time>2015-08-30T07:08:17Z</time>
      </trkpt>
      <trkpt lat="34.11548" lon="77.08971">
        <ele>3974.8</ele>
        <time>2015-08-30T07:08:21Z</time>
      </trkpt>
      <trkpt lat="34.11548" lon="77.0897">
        <ele>3975.2</ele>
        <time>2015-08-30T07:08:34Z</time>
      </trkpt>
      <trkpt lat="34.11544" lon="77.08972">
        <ele>3975.4</ele>
        <time>2015-08-30T07:08:56Z</time>
      </trkpt>
      <trkpt lat="34.11541" lon="77.08976">
        <ele>3975.4</ele>
        <time>2015-08-30T07:08:59Z</time>
      </trkpt>
      <trkpt lat="34.11536" lon="77.08981">
        <ele>3975.4</ele>
        <time>2015-08-30T07:09:02Z</time>
      </trkpt>
      <trkpt lat="34.1152" lon="77.08994">
        <ele>3975.2</ele>
        <time>2015-08-30T07:09:15Z</time>
      </trkpt>
      <trkpt lat="34.11508" lon="77.09">
        <ele>3974.6</ele>
        <time>2015-08-30T07:09:27Z</time>
      </trkpt>
      <trkpt lat="34.11507" lon="77.09">
        <ele>3974.4</ele>
        <time>2015-08-30T07:09:28Z</time>
      </trkpt>
      <trkpt lat="34.11494" lon="77.09006">
        <ele>3974</ele>
        <time>2015-08-30T07:09:40Z</time>
      </trkpt>
      <trkpt lat="34.11487" lon="77.09005">
        <ele>3973.4</ele>
        <time>2015-08-30T07:09:53Z</time>
      </trkpt>
      <trkpt lat="34.11482" lon="77.09006">
        <ele>3973</ele>
        <time>2015-08-30T07:09:57Z</time>
      </trkpt>
      <trkpt lat="34.1148" lon="77.09006">
        <ele>3972.6</ele>
        <time>2015-08-30T07:09:59Z</time>
      </trkpt>
      <trkpt lat="34.11477" lon="77.09007">
        <ele>3972.4</ele>
        <time>2015-08-30T07:10:01Z</time>
      </trkpt>
      <trkpt lat="34.11471" lon="77.0901">
        <ele>3971.8</ele>
        <time>2015-08-30T07:10:05Z</time>
      </trkpt>
      <trkpt lat="34.11464" lon="77.09016">
        <ele>3971.2</ele>
        <time>2015-08-30T07:10:11Z</time>
      </trkpt>
      <trkpt lat="34.11453" lon="77.09022">
        <ele>3970</ele>
        <time>2015-08-30T07:10:17Z</time>
      </trkpt>
      <trkpt lat="34.11453" lon="77.09023">
        <ele>3969.8</ele>
        <time>2015-08-30T07:10:18Z</time>
      </trkpt>
      <trkpt lat="34.11448" lon="77.09026">
        <ele>3969</ele>
        <time>2015-08-30T07:10:23Z</time>
      </trkpt>
      <trkpt lat="34.11449" lon="77.09027">
        <ele>3968</ele>
        <time>2015-08-30T07:10:27Z</time>
      </trkpt>
      <trkpt lat="34.11446" lon="77.09027">
        <ele>3966.8</ele>
        <time>2015-08-30T07:10:35Z</time>
      </trkpt>
      <trkpt lat="34.11437" lon="77.09032">
        <ele>3965.8</ele>
        <time>2015-08-30T07:10:42Z</time>
      </trkpt>
      <trkpt lat="34.11436" lon="77.09034">
        <ele>3965.6</ele>
        <time>2015-08-30T07:10:43Z</time>
      </trkpt>
      <trkpt lat="34.11431" lon="77.09039">
        <ele>3965.2</ele>
        <time>2015-08-30T07:10:49Z</time>
      </trkpt>
      <trkpt lat="34.11428" lon="77.09044">
        <ele>3965.4</ele>
        <time>2015-08-30T07:10:58Z</time>
      </trkpt>
      <trkpt lat="34.11427" lon="77.09046">
        <ele>3965.4</ele>
        <time>2015-08-30T07:11:00Z</time>
      </trkpt>
      <trkpt lat="34.11425" lon="77.09047">
        <ele>3965.2</ele>
        <time>2015-08-30T07:11:02Z</time>
      </trkpt>
      <trkpt lat="34.11419" lon="77.09055">
        <ele>3964.6</ele>
        <time>2015-08-30T07:11:10Z</time>
      </trkpt>
      <trkpt lat="34.11404" lon="77.09068">
        <ele>3963.8</ele>
        <time>2015-08-30T07:11:19Z</time>
      </trkpt>
      <trkpt lat="34.11404" lon="77.09069">
        <ele>3963.6</ele>
        <time>2015-08-30T07:11:20Z</time>
      </trkpt>
      <trkpt lat="34.11405" lon="77.09074">
        <ele>3962.8</ele>
        <time>2015-08-30T07:11:25Z</time>
      </trkpt>
      <trkpt lat="34.11406" lon="77.09075">
        <ele>3962.4</ele>
        <time>2015-08-30T07:11:27Z</time>
      </trkpt>
      <trkpt lat="34.11405" lon="77.0908">
        <ele>3961.2</ele>
        <time>2015-08-30T07:11:34Z</time>
      </trkpt>
      <trkpt lat="34.11403" lon="77.09082">
        <ele>3961</ele>
        <time>2015-08-30T07:11:36Z</time>
      </trkpt>
      <trkpt lat="34.11399" lon="77.09085">
        <ele>3960.2</ele>
        <time>2015-08-30T07:11:40Z</time>
      </trkpt>
      <trkpt lat="34.11395" lon="77.09089">
        <ele>3959</ele>
        <time>2015-08-30T07:11:45Z</time>
      </trkpt>
      <trkpt lat="34.11392" lon="77.09095">
        <ele>3959</ele>
        <time>2015-08-30T07:11:51Z</time>
      </trkpt>
      <trkpt lat="34.11382" lon="77.09103">
        <ele>3958</ele>
        <time>2015-08-30T07:11:59Z</time>
      </trkpt>
      <trkpt lat="34.11391" lon="77.09107">
        <ele>3958</ele>
        <time>2015-08-30T07:12:00Z</time>
      </trkpt>
      <trkpt lat="34.11393" lon="77.09113">
        <ele>3957.6</ele>
        <time>2015-08-30T07:12:03Z</time>
      </trkpt>
      <trkpt lat="34.11391" lon="77.0912">
        <ele>3957.4</ele>
        <time>2015-08-30T07:12:08Z</time>
      </trkpt>
      <trkpt lat="34.11387" lon="77.09126">
        <ele>3957</ele>
        <time>2015-08-30T07:12:13Z</time>
      </trkpt>
      <trkpt lat="34.11377" lon="77.09143">
        <ele>3956.4</ele>
        <time>2015-08-30T07:12:28Z</time>
      </trkpt>
      <trkpt lat="34.11384" lon="77.0916">
        <ele>3956</ele>
        <time>2015-08-30T07:12:39Z</time>
      </trkpt>
      <trkpt lat="34.11387" lon="77.09162">
        <ele>3955.8</ele>
        <time>2015-08-30T07:12:40Z</time>
      </trkpt>
      <trkpt lat="34.11384" lon="77.09175">
        <ele>3955.2</ele>
        <time>2015-08-30T07:12:51Z</time>
      </trkpt>
      <trkpt lat="34.11384" lon="77.09177">
        <ele>3954.8</ele>
        <time>2015-08-30T07:12:56Z</time>
      </trkpt>
      <trkpt lat="34.11383" lon="77.0918">
        <ele>3954.4</ele>
        <time>2015-08-30T07:12:58Z</time>
      </trkpt>
      <trkpt lat="34.11393" lon="77.09186">
        <ele>3954.2</ele>
        <time>2015-08-30T07:13:02Z</time>
      </trkpt>
      <trkpt lat="34.11384" lon="77.09195">
        <ele>3953.8</ele>
        <time>2015-08-30T07:13:11Z</time>
      </trkpt>
      <trkpt lat="34.1138" lon="77.09204">
        <ele>3953.6</ele>
        <time>2015-08-30T07:13:20Z</time>
      </trkpt>
      <trkpt lat="34.11379" lon="77.09208">
        <ele>3953.4</ele>
        <time>2015-08-30T07:13:33Z</time>
      </trkpt>
      <trkpt lat="34.11377" lon="77.09215">
        <ele>3953.4</ele>
        <time>2015-08-30T07:13:46Z</time>
      </trkpt>
      <trkpt lat="34.11368" lon="77.09234">
        <ele>3953.2</ele>
        <time>2015-08-30T07:14:04Z</time>
      </trkpt>
      <trkpt lat="34.11371" lon="77.09243">
        <ele>3953.4</ele>
        <time>2015-08-30T07:14:12Z</time>
      </trkpt>
      <trkpt lat="34.1137" lon="77.09249">
        <ele>3953.4</ele>
        <time>2015-08-30T07:14:24Z</time>
      </trkpt>
      <trkpt lat="34.11367" lon="77.09257">
        <ele>3953.4</ele>
        <time>2015-08-30T07:14:29Z</time>
      </trkpt>
      <trkpt lat="34.11368" lon="77.09277">
        <ele>3952.6</ele>
        <time>2015-08-30T07:14:45Z</time>
      </trkpt>
      <trkpt lat="34.1137" lon="77.09283">
        <ele>3952.4</ele>
        <time>2015-08-30T07:14:50Z</time>
      </trkpt>
      <trkpt lat="34.1136" lon="77.09289">
        <ele>3952</ele>
        <time>2015-08-30T07:15:00Z</time>
      </trkpt>
      <trkpt lat="34.11358" lon="77.09296">
        <ele>3951.6</ele>
        <time>2015-08-30T07:15:06Z</time>
      </trkpt>
      <trkpt lat="34.11361" lon="77.09298">
        <ele>3951.4</ele>
        <time>2015-08-30T07:15:08Z</time>
      </trkpt>
      <trkpt lat="34.11365" lon="77.09302">
        <ele>3950.4</ele>
        <time>2015-08-30T07:15:13Z</time>
      </trkpt>
      <trkpt lat="34.11366" lon="77.09304">
        <ele>3950.4</ele>
        <time>2015-08-30T07:15:14Z</time>
      </trkpt>
      <trkpt lat="34.11373" lon="77.09318">
        <ele>3949.8</ele>
        <time>2015-08-30T07:15:25Z</time>
      </trkpt>
      <trkpt lat="34.11371" lon="77.0933">
        <ele>3949.8</ele>
        <time>2015-08-30T07:15:35Z</time>
      </trkpt>
      <trkpt lat="34.11367" lon="77.09336">
        <ele>3950.2</ele>
        <time>2015-08-30T07:15:42Z</time>
      </trkpt>
      <trkpt lat="34.11369" lon="77.09357">
        <ele>3951.4</ele>
        <time>2015-08-30T07:16:00Z</time>
      </trkpt>
      <trkpt lat="34.11368" lon="77.09359">
        <ele>3951.6</ele>
        <time>2015-08-30T07:16:01Z</time>
      </trkpt>
      <trkpt lat="34.11366" lon="77.09368">
        <ele>3952.2</ele>
        <time>2015-08-30T07:16:09Z</time>
      </trkpt>
      <trkpt lat="34.11364" lon="77.09372">
        <ele>3952.2</ele>
        <time>2015-08-30T07:16:13Z</time>
      </trkpt>
      <trkpt lat="34.11364" lon="77.09376">
        <ele>3952.2</ele>
        <time>2015-08-30T07:16:16Z</time>
      </trkpt>
      <trkpt lat="34.11354" lon="77.09383">
        <ele>3952</ele>
        <time>2015-08-30T07:16:23Z</time>
      </trkpt>
      <trkpt lat="34.1135" lon="77.09389">
        <ele>3952</ele>
        <time>2015-08-30T07:16:28Z</time>
      </trkpt>
      <trkpt lat="34.1135" lon="77.09391">
        <ele>3952.2</ele>
        <time>2015-08-30T07:16:31Z</time>
      </trkpt>
      <trkpt lat="34.1135" lon="77.09393">
        <ele>3952.4</ele>
        <time>2015-08-30T07:16:33Z</time>
      </trkpt>
      <trkpt lat="34.11353" lon="77.09397">
        <ele>3952.6</ele>
        <time>2015-08-30T07:16:36Z</time>
      </trkpt>
      <trkpt lat="34.11353" lon="77.09407">
        <ele>3953.4</ele>
        <time>2015-08-30T07:16:45Z</time>
      </trkpt>
      <trkpt lat="34.11355" lon="77.09411">
        <ele>3953.6</ele>
        <time>2015-08-30T07:16:48Z</time>
      </trkpt>
      <trkpt lat="34.11357" lon="77.09423">
        <ele>3954.2</ele>
        <time>2015-08-30T07:17:10Z</time>
      </trkpt>
      <trkpt lat="34.11363" lon="77.09431">
        <ele>3954.6</ele>
        <time>2015-08-30T07:17:19Z</time>
      </trkpt>
      <trkpt lat="34.11378" lon="77.09442">
        <ele>3953.6</ele>
        <time>2015-08-30T07:17:34Z</time>
      </trkpt>
      <trkpt lat="34.11381" lon="77.09443">
        <ele>3953.4</ele>
        <time>2015-08-30T07:17:36Z</time>
      </trkpt>
      <trkpt lat="34.11386" lon="77.09442">
        <ele>3953.2</ele>
        <time>2015-08-30T07:17:39Z</time>
      </trkpt>
      <trkpt lat="34.11388" lon="77.0945">
        <ele>3953</ele>
        <time>2015-08-30T07:17:44Z</time>
      </trkpt>
      <trkpt lat="34.11383" lon="77.0945">
        <ele>3953</ele>
        <time>2015-08-30T07:17:52Z</time>
      </trkpt>
      <trkpt lat="34.11381" lon="77.09449">
        <ele>3952.6</ele>
        <time>2015-08-30T07:17:58Z</time>
      </trkpt>
      <trkpt lat="34.11369" lon="77.09463">
        <ele>3951.6</ele>
        <time>2015-08-30T07:18:16Z</time>
      </trkpt>
      <trkpt lat="34.11368" lon="77.09476">
        <ele>3951.2</ele>
        <time>2015-08-30T07:18:30Z</time>
      </trkpt>
      <trkpt lat="34.11366" lon="77.09481">
        <ele>3951.2</ele>
        <time>2015-08-30T07:18:33Z</time>
      </trkpt>
      <trkpt lat="34.11362" lon="77.0949">
        <ele>3951.8</ele>
        <time>2015-08-30T07:18:41Z</time>
      </trkpt>
      <trkpt lat="34.11367" lon="77.09502">
        <ele>3952</ele>
        <time>2015-08-30T07:18:51Z</time>
      </trkpt>
      <trkpt lat="34.11365" lon="77.09504">
        <ele>3952</ele>
        <time>2015-08-30T07:18:54Z</time>
      </trkpt>
      <trkpt lat="34.11363" lon="77.09515">
        <ele>3952</ele>
        <time>2015-08-30T07:19:04Z</time>
      </trkpt>
      <trkpt lat="34.11355" lon="77.09528">
        <ele>3952.2</ele>
        <time>2015-08-30T07:19:18Z</time>
      </trkpt>
      <trkpt lat="34.1135" lon="77.0953">
        <ele>3952</ele>
        <time>2015-08-30T07:19:21Z</time>
      </trkpt>
      <trkpt lat="34.11339" lon="77.09537">
        <ele>3952</ele>
        <time>2015-08-30T07:19:31Z</time>
      </trkpt>
      <trkpt lat="34.11336" lon="77.09541">
        <ele>3952</ele>
        <time>2015-08-30T07:19:35Z</time>
      </trkpt>
      <trkpt lat="34.11334" lon="77.09549">
        <ele>3951.4</ele>
        <time>2015-08-30T07:19:43Z</time>
      </trkpt>
      <trkpt lat="34.11339" lon="77.09553">
        <ele>3951.2</ele>
        <time>2015-08-30T07:19:46Z</time>
      </trkpt>
      <trkpt lat="34.11349" lon="77.09567">
        <ele>3950.4</ele>
        <time>2015-08-30T07:19:57Z</time>
      </trkpt>
      <trkpt lat="34.11352" lon="77.0957">
        <ele>3949.2</ele>
        <time>2015-08-30T07:20:01Z</time>
      </trkpt>
      <trkpt lat="34.11353" lon="77.09572">
        <ele>3949</ele>
        <time>2015-08-30T07:20:02Z</time>
      </trkpt>
      <trkpt lat="34.1136" lon="77.0958">
        <ele>3948.2</ele>
        <time>2015-08-30T07:20:09Z</time>
      </trkpt>
      <trkpt lat="34.11361" lon="77.09585">
        <ele>3947.6</ele>
        <time>2015-08-30T07:20:13Z</time>
      </trkpt>
      <trkpt lat="34.11355" lon="77.09588">
        <ele>3947.2</ele>
        <time>2015-08-30T07:20:22Z</time>
      </trkpt>
      <trkpt lat="34.11342" lon="77.09604">
        <ele>3947.4</ele>
        <time>2015-08-30T07:20:34Z</time>
      </trkpt>
      <trkpt lat="34.1134" lon="77.09605">
        <ele>3946.2</ele>
        <time>2015-08-30T07:20:39Z</time>
      </trkpt>
      <trkpt lat="34.11335" lon="77.09606">
        <ele>3947.2</ele>
        <time>2015-08-30T07:20:47Z</time>
      </trkpt>
      <trkpt lat="34.11326" lon="77.09618">
        <ele>3946.2</ele>
        <time>2015-08-30T07:21:11Z</time>
      </trkpt>
      <trkpt lat="34.11323" lon="77.09619">
        <ele>3946</ele>
        <time>2015-08-30T07:21:14Z</time>
      </trkpt>
      <trkpt lat="34.1132" lon="77.09628">
        <ele>3945.8</ele>
        <time>2015-08-30T07:21:27Z</time>
      </trkpt>
      <trkpt lat="34.11306" lon="77.09636">
        <ele>3945.6</ele>
        <time>2015-08-30T07:21:30Z</time>
      </trkpt>
      <trkpt lat="34.11305" lon="77.09637">
        <ele>3945.6</ele>
        <time>2015-08-30T07:21:32Z</time>
      </trkpt>
      <trkpt lat="34.11288" lon="77.09651">
        <ele>3945.2</ele>
        <time>2015-08-30T07:21:46Z</time>
      </trkpt>
      <trkpt lat="34.11281" lon="77.09641">
        <ele>3945.4</ele>
        <time>2015-08-30T07:22:18Z</time>
      </trkpt>
      <trkpt lat="34.11296" lon="77.09654">
        <ele>3945.4</ele>
        <time>2015-08-30T07:22:30Z</time>
      </trkpt>
      <trkpt lat="34.11298" lon="77.09656">
        <ele>3945.2</ele>
        <time>2015-08-30T07:22:32Z</time>
      </trkpt>
      <trkpt lat="34.11296" lon="77.09657">
        <ele>3944.8</ele>
        <time>2015-08-30T07:22:35Z</time>
      </trkpt>
      <trkpt lat="34.11293" lon="77.09658">
        <ele>3944.8</ele>
        <time>2015-08-30T07:22:38Z</time>
      </trkpt>
      <trkpt lat="34.1129" lon="77.09657">
        <ele>3945</ele>
        <time>2015-08-30T07:22:42Z</time>
      </trkpt>
      <trkpt lat="34.11283" lon="77.09659">
        <ele>3945</ele>
        <time>2015-08-30T07:22:45Z</time>
      </trkpt>
      <trkpt lat="34.1127" lon="77.0967">
        <ele>3945.2</ele>
        <time>2015-08-30T07:23:06Z</time>
      </trkpt>
      <trkpt lat="34.1127" lon="77.09674">
        <ele>3945.4</ele>
        <time>2015-08-30T07:23:09Z</time>
      </trkpt>
      <trkpt lat="34.11272" lon="77.09676">
        <ele>3945.2</ele>
        <time>2015-08-30T07:23:11Z</time>
      </trkpt>
      <trkpt lat="34.11274" lon="77.09678">
        <ele>3945</ele>
        <time>2015-08-30T07:23:13Z</time>
      </trkpt>
      <trkpt lat="34.11274" lon="77.09686">
        <ele>3944.8</ele>
        <time>2015-08-30T07:23:18Z</time>
      </trkpt>
      <trkpt lat="34.11265" lon="77.09706">
        <ele>3945.2</ele>
        <time>2015-08-30T07:23:36Z</time>
      </trkpt>
      <trkpt lat="34.11266" lon="77.09707">
        <ele>3945.2</ele>
        <time>2015-08-30T07:23:37Z</time>
      </trkpt>
      <trkpt lat="34.11269" lon="77.09713">
        <ele>3945.6</ele>
        <time>2015-08-30T07:23:42Z</time>
      </trkpt>
      <trkpt lat="34.1127" lon="77.0972">
        <ele>3946.4</ele>
        <time>2015-08-30T07:23:47Z</time>
      </trkpt>
      <trkpt lat="34.11262" lon="77.0973">
        <ele>3945.8</ele>
        <time>2015-08-30T07:23:59Z</time>
      </trkpt>
      <trkpt lat="34.11259" lon="77.09733">
        <ele>3945.8</ele>
        <time>2015-08-30T07:24:01Z</time>
      </trkpt>
      <trkpt lat="34.11255" lon="77.09741">
        <ele>3946.2</ele>
        <time>2015-08-30T07:24:07Z</time>
      </trkpt>
      <trkpt lat="34.11254" lon="77.09759">
        <ele>3945.2</ele>
        <time>2015-08-30T07:24:20Z</time>
      </trkpt>
      <trkpt lat="34.1125" lon="77.0978">
        <ele>3944.8</ele>
        <time>2015-08-30T07:24:36Z</time>
      </trkpt>
      <trkpt lat="34.11249" lon="77.09782">
        <ele>3944.4</ele>
        <time>2015-08-30T07:24:39Z</time>
      </trkpt>
      <trkpt lat="34.11249" lon="77.09784">
        <ele>3944.2</ele>
        <time>2015-08-30T07:24:42Z</time>
      </trkpt>
      <trkpt lat="34.11246" lon="77.09803">
        <ele>3943</ele>
        <time>2015-08-30T07:24:58Z</time>
      </trkpt>
      <trkpt lat="34.11249" lon="77.09816">
        <ele>3942.8</ele>
        <time>2015-08-30T07:25:08Z</time>
      </trkpt>
      <trkpt lat="34.11249" lon="77.09825">
        <ele>3942.6</ele>
        <time>2015-08-30T07:25:14Z</time>
      </trkpt>
      <trkpt lat="34.11241" lon="77.09838">
        <ele>3943</ele>
        <time>2015-08-30T07:25:36Z</time>
      </trkpt>
      <trkpt lat="34.11238" lon="77.0984">
        <ele>3943.2</ele>
        <time>2015-08-30T07:25:38Z</time>
      </trkpt>
      <trkpt lat="34.11239" lon="77.09845">
        <ele>3943.4</ele>
        <time>2015-08-30T07:25:41Z</time>
      </trkpt>
      <trkpt lat="34.11242" lon="77.09847">
        <ele>3943.6</ele>
        <time>2015-08-30T07:25:43Z</time>
      </trkpt>
      <trkpt lat="34.1124" lon="77.09853">
        <ele>3943.8</ele>
        <time>2015-08-30T07:25:50Z</time>
      </trkpt>
      <trkpt lat="34.11241" lon="77.09863">
        <ele>3944</ele>
        <time>2015-08-30T07:26:12Z</time>
      </trkpt>
      <trkpt lat="34.11229" lon="77.09872">
        <ele>3944.4</ele>
        <time>2015-08-30T07:26:19Z</time>
      </trkpt>
      <trkpt lat="34.1122" lon="77.09876">
        <ele>3944.4</ele>
        <time>2015-08-30T07:26:24Z</time>
      </trkpt>
      <trkpt lat="34.11217" lon="77.09882">
        <ele>3944.4</ele>
        <time>2015-08-30T07:26:28Z</time>
      </trkpt>
      <trkpt lat="34.11205" lon="77.09897">
        <ele>3944.6</ele>
        <time>2015-08-30T07:26:39Z</time>
      </trkpt>
      <trkpt lat="34.11207" lon="77.09916">
        <ele>3944.8</ele>
        <time>2015-08-30T07:26:57Z</time>
      </trkpt>
      <trkpt lat="34.11209" lon="77.09918">
        <ele>3944.8</ele>
        <time>2015-08-30T07:26:59Z</time>
      </trkpt>
      <trkpt lat="34.11204" lon="77.09922">
        <ele>3944.4</ele>
        <time>2015-08-30T07:27:14Z</time>
      </trkpt>
      <trkpt lat="34.11199" lon="77.09923">
        <ele>3944.4</ele>
        <time>2015-08-30T07:27:17Z</time>
      </trkpt>
      <trkpt lat="34.11199" lon="77.09927">
        <ele>3944.2</ele>
        <time>2015-08-30T07:27:19Z</time>
      </trkpt>
      <trkpt lat="34.11194" lon="77.09932">
        <ele>3944</ele>
        <time>2015-08-30T07:27:23Z</time>
      </trkpt>
      <trkpt lat="34.11185" lon="77.09939">
        <ele>3944</ele>
        <time>2015-08-30T07:27:27Z</time>
      </trkpt>
      <trkpt lat="34.11174" lon="77.09947">
        <ele>3944.2</ele>
        <time>2015-08-30T07:27:35Z</time>
      </trkpt>
      <trkpt lat="34.11168" lon="77.09953">
        <ele>3944.6</ele>
        <time>2015-08-30T07:27:42Z</time>
      </trkpt>
      <trkpt lat="34.11166" lon="77.09956">
        <ele>3944.6</ele>
        <time>2015-08-30T07:27:45Z</time>
      </trkpt>
      <trkpt lat="34.11157" lon="77.09963">
        <ele>3943.8</ele>
        <time>2015-08-30T07:27:57Z</time>
      </trkpt>
      <trkpt lat="34.11145" lon="77.09982">
        <ele>3945</ele>
        <time>2015-08-30T07:28:10Z</time>
      </trkpt>
      <trkpt lat="34.11143" lon="77.09983">
        <ele>3945.2</ele>
        <time>2015-08-30T07:28:12Z</time>
      </trkpt>
      <trkpt lat="34.11137" lon="77.09989">
        <ele>3945.2</ele>
        <time>2015-08-30T07:28:24Z</time>
      </trkpt>
      <trkpt lat="34.11143" lon="77.09997">
        <ele>3945.4</ele>
        <time>2015-08-30T07:28:28Z</time>
      </trkpt>
      <trkpt lat="34.11141" lon="77.10006">
        <ele>3945.2</ele>
        <time>2015-08-30T07:28:33Z</time>
      </trkpt>
      <trkpt lat="34.11137" lon="77.10009">
        <ele>3945.2</ele>
        <time>2015-08-30T07:28:35Z</time>
      </trkpt>
      <trkpt lat="34.11126" lon="77.10011">
        <ele>3945.2</ele>
        <time>2015-08-30T07:28:44Z</time>
      </trkpt>
      <trkpt lat="34.11123" lon="77.10024">
        <ele>3945.4</ele>
        <time>2015-08-30T07:28:54Z</time>
      </trkpt>
      <trkpt lat="34.11128" lon="77.10031">
        <ele>3945.8</ele>
        <time>2015-08-30T07:28:59Z</time>
      </trkpt>
      <trkpt lat="34.11126" lon="77.10037">
        <ele>3946.2</ele>
        <time>2015-08-30T07:29:05Z</time>
      </trkpt>
      <trkpt lat="34.11123" lon="77.10039">
        <ele>3946.2</ele>
        <time>2015-08-30T07:29:07Z</time>
      </trkpt>
      <trkpt lat="34.11105" lon="77.10049">
        <ele>3946.6</ele>
        <time>2015-08-30T07:29:13Z</time>
      </trkpt>
      <trkpt lat="34.11087" lon="77.10059">
        <ele>3947</ele>
        <time>2015-08-30T07:29:22Z</time>
      </trkpt>
      <trkpt lat="34.11071" lon="77.10069">
        <ele>3946.8</ele>
        <time>2015-08-30T07:29:32Z</time>
      </trkpt>
      <trkpt lat="34.11053" lon="77.10078">
        <ele>3946.8</ele>
        <time>2015-08-30T07:29:43Z</time>
      </trkpt>
      <trkpt lat="34.11045" lon="77.10093">
        <ele>3946.4</ele>
        <time>2015-08-30T07:30:00Z</time>
      </trkpt>
      <trkpt lat="34.1105" lon="77.10099">
        <ele>3946</ele>
        <time>2015-08-30T07:30:04Z</time>
      </trkpt>
      <trkpt lat="34.11047" lon="77.10101">
        <ele>3945.6</ele>
        <time>2015-08-30T07:30:06Z</time>
      </trkpt>
      <trkpt lat="34.1105" lon="77.10106">
        <ele>3945.2</ele>
        <time>2015-08-30T07:30:10Z</time>
      </trkpt>
      <trkpt lat="34.11046" lon="77.10112">
        <ele>3944</ele>
        <time>2015-08-30T07:30:17Z</time>
      </trkpt>
      <trkpt lat="34.11055" lon="77.10124">
        <ele>3943</ele>
        <time>2015-08-30T07:30:24Z</time>
      </trkpt>
      <trkpt lat="34.11062" lon="77.10128">
        <ele>3942.6</ele>
        <time>2015-08-30T07:30:27Z</time>
      </trkpt>
      <trkpt lat="34.11068" lon="77.10132">
        <ele>3941.8</ele>
        <time>2015-08-30T07:30:31Z</time>
      </trkpt>
      <trkpt lat="34.11073" lon="77.10139">
        <ele>3941.2</ele>
        <time>2015-08-30T07:30:36Z</time>
      </trkpt>
      <trkpt lat="34.11076" lon="77.10142">
        <ele>3940.8</ele>
        <time>2015-08-30T07:30:39Z</time>
      </trkpt>
      <trkpt lat="34.11076" lon="77.10149">
        <ele>3939.6</ele>
        <time>2015-08-30T07:30:46Z</time>
      </trkpt>
      <trkpt lat="34.11066" lon="77.10158">
        <ele>3938.6</ele>
        <time>2015-08-30T07:30:56Z</time>
      </trkpt>
      <trkpt lat="34.11066" lon="77.1016">
        <ele>3938.4</ele>
        <time>2015-08-30T07:30:57Z</time>
      </trkpt>
      <trkpt lat="34.11068" lon="77.10162">
        <ele>3938</ele>
        <time>2015-08-30T07:30:59Z</time>
      </trkpt>
      <trkpt lat="34.11068" lon="77.10164">
        <ele>3937.4</ele>
        <time>2015-08-30T07:31:01Z</time>
      </trkpt>
      <trkpt lat="34.11067" lon="77.10165">
        <ele>3937.2</ele>
        <time>2015-08-30T07:31:02Z</time>
      </trkpt>
      <trkpt lat="34.1106" lon="77.10167">
        <ele>3936.8</ele>
        <time>2015-08-30T07:31:07Z</time>
      </trkpt>
      <trkpt lat="34.11058" lon="77.10169">
        <ele>3936.4</ele>
        <time>2015-08-30T07:31:10Z</time>
      </trkpt>
      <trkpt lat="34.11064" lon="77.10172">
        <ele>3935.6</ele>
        <time>2015-08-30T07:31:16Z</time>
      </trkpt>
      <trkpt lat="34.11064" lon="77.10173">
        <ele>3935.4</ele>
        <time>2015-08-30T07:31:18Z</time>
      </trkpt>
      <trkpt lat="34.11042" lon="77.10173">
        <ele>3935.4</ele>
        <time>2015-08-30T07:31:29Z</time>
      </trkpt>
      <trkpt lat="34.11039" lon="77.10173">
        <ele>3935.4</ele>
        <time>2015-08-30T07:31:30Z</time>
      </trkpt>
      <trkpt lat="34.1102" lon="77.10176">
        <ele>3935.2</ele>
        <time>2015-08-30T07:31:36Z</time>
      </trkpt>
      <trkpt lat="34.11004" lon="77.10191">
        <ele>3935.2</ele>
        <time>2015-08-30T07:31:46Z</time>
      </trkpt>
      <trkpt lat="34.10991" lon="77.10203">
        <ele>3934.6</ele>
        <time>2015-08-30T07:31:56Z</time>
      </trkpt>
      <trkpt lat="34.11005" lon="77.10219">
        <ele>3934.2</ele>
        <time>2015-08-30T07:32:07Z</time>
      </trkpt>
      <trkpt lat="34.11003" lon="77.10221">
        <ele>3934.2</ele>
        <time>2015-08-30T07:32:09Z</time>
      </trkpt>
      <trkpt lat="34.11002" lon="77.10229">
        <ele>3934.2</ele>
        <time>2015-08-30T07:32:16Z</time>
      </trkpt>
      <trkpt lat="34.10984" lon="77.10233">
        <ele>3934</ele>
        <time>2015-08-30T07:32:33Z</time>
      </trkpt>
      <trkpt lat="34.10984" lon="77.10235">
        <ele>3934.2</ele>
        <time>2015-08-30T07:32:37Z</time>
      </trkpt>
      <trkpt lat="34.10991" lon="77.10244">
        <ele>3934.4</ele>
        <time>2015-08-30T07:32:43Z</time>
      </trkpt>
      <trkpt lat="34.10975" lon="77.10246">
        <ele>3933.8</ele>
        <time>2015-08-30T07:32:53Z</time>
      </trkpt>
      <trkpt lat="34.10974" lon="77.10251">
        <ele>3933.2</ele>
        <time>2015-08-30T07:32:59Z</time>
      </trkpt>
      <trkpt lat="34.10978" lon="77.10256">
        <ele>3932</ele>
        <time>2015-08-30T07:33:06Z</time>
      </trkpt>
      <trkpt lat="34.10981" lon="77.10262">
        <ele>3931</ele>
        <time>2015-08-30T07:33:15Z</time>
      </trkpt>
      <trkpt lat="34.10984" lon="77.10286">
        <ele>3930</ele>
        <time>2015-08-30T07:33:24Z</time>
      </trkpt>
      <trkpt lat="34.10979" lon="77.10307">
        <ele>3930.2</ele>
        <time>2015-08-30T07:33:38Z</time>
      </trkpt>
      <trkpt lat="34.10975" lon="77.10318">
        <ele>3930.6</ele>
        <time>2015-08-30T07:33:45Z</time>
      </trkpt>
      <trkpt lat="34.10974" lon="77.10319">
        <ele>3930.6</ele>
        <time>2015-08-30T07:33:47Z</time>
      </trkpt>
      <trkpt lat="34.10971" lon="77.1032">
        <ele>3930.6</ele>
        <time>2015-08-30T07:33:50Z</time>
      </trkpt>
      <trkpt lat="34.10977" lon="77.10322">
        <ele>3929</ele>
        <time>2015-08-30T07:34:01Z</time>
      </trkpt>
      <trkpt lat="34.10979" lon="77.10323">
        <ele>3928.8</ele>
        <time>2015-08-30T07:34:02Z</time>
      </trkpt>
      <trkpt lat="34.10978" lon="77.10325">
        <ele>3928.4</ele>
        <time>2015-08-30T07:34:04Z</time>
      </trkpt>
      <trkpt lat="34.10978" lon="77.10328">
        <ele>3928</ele>
        <time>2015-08-30T07:34:07Z</time>
      </trkpt>
      <trkpt lat="34.10984" lon="77.10331">
        <ele>3927</ele>
        <time>2015-08-30T07:34:12Z</time>
      </trkpt>
      <trkpt lat="34.10983" lon="77.10332">
        <ele>3925.8</ele>
        <time>2015-08-30T07:34:19Z</time>
      </trkpt>
      <trkpt lat="34.10987" lon="77.10334">
        <ele>3925.2</ele>
        <time>2015-08-30T07:34:22Z</time>
      </trkpt>
      <trkpt lat="34.10986" lon="77.10333">
        <ele>3925</ele>
        <time>2015-08-30T07:34:24Z</time>
      </trkpt>
      <trkpt lat="34.10986" lon="77.10332">
        <ele>3924.8</ele>
        <time>2015-08-30T07:34:25Z</time>
      </trkpt>
      <trkpt lat="34.10984" lon="77.10339">
        <ele>3923.8</ele>
        <time>2015-08-30T07:34:33Z</time>
      </trkpt>
      <trkpt lat="34.10984" lon="77.10342">
        <ele>3922.6</ele>
        <time>2015-08-30T07:34:39Z</time>
      </trkpt>
      <trkpt lat="34.10984" lon="77.10346">
        <ele>3921.4</ele>
        <time>2015-08-30T07:34:45Z</time>
      </trkpt>
      <trkpt lat="34.10987" lon="77.10347">
        <ele>3920.4</ele>
        <time>2015-08-30T07:34:49Z</time>
      </trkpt>
      <trkpt lat="34.10987" lon="77.10348">
        <ele>3920.2</ele>
        <time>2015-08-30T07:34:50Z</time>
      </trkpt>
      <trkpt lat="34.10994" lon="77.10352">
        <ele>3920</ele>
        <time>2015-08-30T07:34:54Z</time>
      </trkpt>
      <trkpt lat="34.10989" lon="77.10353">
        <ele>3919.4</ele>
        <time>2015-08-30T07:35:02Z</time>
      </trkpt>
      <trkpt lat="34.10983" lon="77.1035">
        <ele>3918.2</ele>
        <time>2015-08-30T07:35:11Z</time>
      </trkpt>
      <trkpt lat="34.10979" lon="77.10355">
        <ele>3917.2</ele>
        <time>2015-08-30T07:35:21Z</time>
      </trkpt>
      <trkpt lat="34.10979" lon="77.1036">
        <ele>3916.2</ele>
        <time>2015-08-30T07:35:29Z</time>
      </trkpt>
      <trkpt lat="34.10976" lon="77.10356">
        <ele>3915.8</ele>
        <time>2015-08-30T07:35:33Z</time>
      </trkpt>
      <trkpt lat="34.10969" lon="77.10358">
        <ele>3915.2</ele>
        <time>2015-08-30T07:35:37Z</time>
      </trkpt>
      <trkpt lat="34.10969" lon="77.10356">
        <ele>3915.2</ele>
        <time>2015-08-30T07:35:38Z</time>
      </trkpt>
      <trkpt lat="34.1096" lon="77.10357">
        <ele>3914.2</ele>
        <time>2015-08-30T07:35:47Z</time>
      </trkpt>
      <trkpt lat="34.10953" lon="77.10362">
        <ele>3913.2</ele>
        <time>2015-08-30T07:35:52Z</time>
      </trkpt>
      <trkpt lat="34.10952" lon="77.10364">
        <ele>3913.2</ele>
        <time>2015-08-30T07:35:53Z</time>
      </trkpt>
      <trkpt lat="34.1094" lon="77.10371">
        <ele>3912.2</ele>
        <time>2015-08-30T07:36:02Z</time>
      </trkpt>
      <trkpt lat="34.10924" lon="77.10382">
        <ele>3912.6</ele>
        <time>2015-08-30T07:36:12Z</time>
      </trkpt>
      <trkpt lat="34.10904" lon="77.10395">
        <ele>3912.6</ele>
        <time>2015-08-30T07:36:25Z</time>
      </trkpt>
      <trkpt lat="34.10887" lon="77.10401">
        <ele>3912.8</ele>
        <time>2015-08-30T07:36:37Z</time>
      </trkpt>
      <trkpt lat="34.1087" lon="77.10396">
        <ele>3912.8</ele>
        <time>2015-08-30T07:36:49Z</time>
      </trkpt>
      <trkpt lat="34.10854" lon="77.104">
        <ele>3912.2</ele>
        <time>2015-08-30T07:37:01Z</time>
      </trkpt>
      <trkpt lat="34.10852" lon="77.10399">
        <ele>3911.8</ele>
        <time>2015-08-30T07:37:04Z</time>
      </trkpt>
      <trkpt lat="34.10839" lon="77.10398">
        <ele>3911.4</ele>
        <time>2015-08-30T07:37:08Z</time>
      </trkpt>
      <trkpt lat="34.10837" lon="77.10399">
        <ele>3911</ele>
        <time>2015-08-30T07:37:11Z</time>
      </trkpt>
      <trkpt lat="34.1082" lon="77.10411">
        <ele>3910.4</ele>
        <time>2015-08-30T07:37:25Z</time>
      </trkpt>
      <trkpt lat="34.10816" lon="77.10414">
        <ele>3910</ele>
        <time>2015-08-30T07:37:27Z</time>
      </trkpt>
      <trkpt lat="34.10815" lon="77.10429">
        <ele>3909.8</ele>
        <time>2015-08-30T07:37:35Z</time>
      </trkpt>
      <trkpt lat="34.10813" lon="77.10434">
        <ele>3909.8</ele>
        <time>2015-08-30T07:37:43Z</time>
      </trkpt>
      <trkpt lat="34.10822" lon="77.10446">
        <ele>3909.6</ele>
        <time>2015-08-30T07:37:49Z</time>
      </trkpt>
      <trkpt lat="34.10826" lon="77.10456">
        <ele>3909</ele>
        <time>2015-08-30T07:37:55Z</time>
      </trkpt>
      <trkpt lat="34.10823" lon="77.1046">
        <ele>3908.2</ele>
        <time>2015-08-30T07:37:59Z</time>
      </trkpt>
      <trkpt lat="34.10821" lon="77.10462">
        <ele>3907.8</ele>
        <time>2015-08-30T07:38:01Z</time>
      </trkpt>
      <trkpt lat="34.10814" lon="77.10466">
        <ele>3906.8</ele>
        <time>2015-08-30T07:38:06Z</time>
      </trkpt>
      <trkpt lat="34.10812" lon="77.10467">
        <ele>3906.8</ele>
        <time>2015-08-30T07:38:08Z</time>
      </trkpt>
      <trkpt lat="34.10797" lon="77.10464">
        <ele>3905.8</ele>
        <time>2015-08-30T07:38:16Z</time>
      </trkpt>
      <trkpt lat="34.10785" lon="77.10469">
        <ele>3904.8</ele>
        <time>2015-08-30T07:38:26Z</time>
      </trkpt>
      <trkpt lat="34.10786" lon="77.10471">
        <ele>3904.6</ele>
        <time>2015-08-30T07:38:27Z</time>
      </trkpt>
      <trkpt lat="34.10785" lon="77.10475">
        <ele>3903.8</ele>
        <time>2015-08-30T07:38:32Z</time>
      </trkpt>
      <trkpt lat="34.10785" lon="77.10475">
        <ele>3903.6</ele>
        <time>2015-08-30T07:38:33Z</time>
      </trkpt>
      <trkpt lat="34.10787" lon="77.10477">
        <ele>3902.6</ele>
        <time>2015-08-30T07:38:37Z</time>
      </trkpt>
      <trkpt lat="34.10793" lon="77.10481">
        <ele>3901.4</ele>
        <time>2015-08-30T07:38:45Z</time>
      </trkpt>
      <trkpt lat="34.10789" lon="77.10487">
        <ele>3900.4</ele>
        <time>2015-08-30T07:38:53Z</time>
      </trkpt>
      <trkpt lat="34.10794" lon="77.10488">
        <ele>3899.2</ele>
        <time>2015-08-30T07:38:58Z</time>
      </trkpt>
      <trkpt lat="34.10783" lon="77.10494">
        <ele>3898.2</ele>
        <time>2015-08-30T07:39:07Z</time>
      </trkpt>
      <trkpt lat="34.10771" lon="77.10508">
        <ele>3897.2</ele>
        <time>2015-08-30T07:39:13Z</time>
      </trkpt>
      <trkpt lat="34.10771" lon="77.10512">
        <ele>3896</ele>
        <time>2015-08-30T07:39:17Z</time>
      </trkpt>
      <trkpt lat="34.10772" lon="77.10513">
        <ele>3895.8</ele>
        <time>2015-08-30T07:39:18Z</time>
      </trkpt>
      <trkpt lat="34.10773" lon="77.10519">
        <ele>3895</ele>
        <time>2015-08-30T07:39:23Z</time>
      </trkpt>
      <trkpt lat="34.10759" lon="77.10539">
        <ele>3894</ele>
        <time>2015-08-30T07:39:32Z</time>
      </trkpt>
      <trkpt lat="34.10758" lon="77.10544">
        <ele>3893</ele>
        <time>2015-08-30T07:39:36Z</time>
      </trkpt>
      <trkpt lat="34.10756" lon="77.10552">
        <ele>3892.2</ele>
        <time>2015-08-30T07:39:41Z</time>
      </trkpt>
      <trkpt lat="34.10754" lon="77.10554">
        <ele>3892.2</ele>
        <time>2015-08-30T07:39:44Z</time>
      </trkpt>
      <trkpt lat="34.10753" lon="77.10557">
        <ele>3892</ele>
        <time>2015-08-30T07:39:46Z</time>
      </trkpt>
      <trkpt lat="34.10748" lon="77.10568">
        <ele>3890.8</ele>
        <time>2015-08-30T07:40:00Z</time>
      </trkpt>
      <trkpt lat="34.10746" lon="77.10578">
        <ele>3891</ele>
        <time>2015-08-30T07:40:07Z</time>
      </trkpt>
      <trkpt lat="34.10732" lon="77.10579">
        <ele>3890.6</ele>
        <time>2015-08-30T07:40:12Z</time>
      </trkpt>
      <trkpt lat="34.10714" lon="77.10582">
        <ele>3890.6</ele>
        <time>2015-08-30T07:40:20Z</time>
      </trkpt>
      <trkpt lat="34.10713" lon="77.10584">
        <ele>3892</ele>
        <time>2015-08-30T07:40:23Z</time>
      </trkpt>
      <trkpt lat="34.10704" lon="77.10602">
        <ele>3892.8</ele>
        <time>2015-08-30T07:40:42Z</time>
      </trkpt>
      <trkpt lat="34.10703" lon="77.10604">
        <ele>3892.8</ele>
        <time>2015-08-30T07:40:43Z</time>
      </trkpt>
      <trkpt lat="34.1069" lon="77.10619">
        <ele>3891.4</ele>
        <time>2015-08-30T07:40:57Z</time>
      </trkpt>
      <trkpt lat="34.10679" lon="77.10625">
        <ele>3891</ele>
        <time>2015-08-30T07:41:05Z</time>
      </trkpt>
      <trkpt lat="34.10674" lon="77.10649">
        <ele>3890.2</ele>
        <time>2015-08-30T07:41:19Z</time>
      </trkpt>
      <trkpt lat="34.10672" lon="77.10653">
        <ele>3890</ele>
        <time>2015-08-30T07:41:23Z</time>
      </trkpt>
      <trkpt lat="34.10673" lon="77.10674">
        <ele>3889</ele>
        <time>2015-08-30T07:41:37Z</time>
      </trkpt>
      <trkpt lat="34.10673" lon="77.10695">
        <ele>3888.8</ele>
        <time>2015-08-30T07:41:52Z</time>
      </trkpt>
      <trkpt lat="34.1066" lon="77.1071">
        <ele>3888.4</ele>
        <time>2015-08-30T07:42:10Z</time>
      </trkpt>
      <trkpt lat="34.10675" lon="77.10728">
        <ele>3888.2</ele>
        <time>2015-08-30T07:42:22Z</time>
      </trkpt>
      <trkpt lat="34.10677" lon="77.1073">
        <ele>3888</ele>
        <time>2015-08-30T07:42:26Z</time>
      </trkpt>
      <trkpt lat="34.10674" lon="77.10733">
        <ele>3888</ele>
        <time>2015-08-30T07:42:32Z</time>
      </trkpt>
      <trkpt lat="34.10671" lon="77.10729">
        <ele>3888.6</ele>
        <time>2015-08-30T07:42:37Z</time>
      </trkpt>
      <trkpt lat="34.10663" lon="77.10734">
        <ele>3888.8</ele>
        <time>2015-08-30T07:42:40Z</time>
      </trkpt>
      <trkpt lat="34.10666" lon="77.10738">
        <ele>3889</ele>
        <time>2015-08-30T07:42:43Z</time>
      </trkpt>
      <trkpt lat="34.10668" lon="77.10739">
        <ele>3889</ele>
        <time>2015-08-30T07:42:44Z</time>
      </trkpt>
      <trkpt lat="34.10667" lon="77.10741">
        <ele>3889.2</ele>
        <time>2015-08-30T07:42:46Z</time>
      </trkpt>
      <trkpt lat="34.10664" lon="77.10745">
        <ele>3890</ele>
        <time>2015-08-30T07:42:52Z</time>
      </trkpt>
      <trkpt lat="34.1066" lon="77.10747">
        <ele>3890</ele>
        <time>2015-08-30T07:42:54Z</time>
      </trkpt>
      <trkpt lat="34.10657" lon="77.1075">
        <ele>3890.2</ele>
        <time>2015-08-30T07:42:57Z</time>
      </trkpt>
      <trkpt lat="34.10655" lon="77.10751">
        <ele>3890.4</ele>
        <time>2015-08-30T07:43:00Z</time>
      </trkpt>
      <trkpt lat="34.10648" lon="77.10752">
        <ele>3891</ele>
        <time>2015-08-30T07:43:06Z</time>
      </trkpt>
      <trkpt lat="34.10647" lon="77.10752">
        <ele>3891</ele>
        <time>2015-08-30T07:43:07Z</time>
      </trkpt>
      <trkpt lat="34.10647" lon="77.10753">
        <ele>3891.2</ele>
        <time>2015-08-30T07:43:08Z</time>
      </trkpt>
      <trkpt lat="34.10643" lon="77.10764">
        <ele>3891.8</ele>
        <time>2015-08-30T07:43:19Z</time>
      </trkpt>
      <trkpt lat="34.10644" lon="77.10767">
        <ele>3891.6</ele>
        <time>2015-08-30T07:43:22Z</time>
      </trkpt>
      <trkpt lat="34.1064" lon="77.10773">
        <ele>3891.2</ele>
        <time>2015-08-30T07:43:29Z</time>
      </trkpt>
      <trkpt lat="34.10638" lon="77.10775">
        <ele>3891.2</ele>
        <time>2015-08-30T07:43:31Z</time>
      </trkpt>
      <trkpt lat="34.10634" lon="77.10784">
        <ele>3891</ele>
        <time>2015-08-30T07:43:40Z</time>
      </trkpt>
      <trkpt lat="34.10633" lon="77.10786">
        <ele>3891</ele>
        <time>2015-08-30T07:43:43Z</time>
      </trkpt>
      <trkpt lat="34.10631" lon="77.10794">
        <ele>3891.4</ele>
        <time>2015-08-30T07:43:48Z</time>
      </trkpt>
      <trkpt lat="34.10633" lon="77.10797">
        <ele>3892.2</ele>
        <time>2015-08-30T07:43:52Z</time>
      </trkpt>
      <trkpt lat="34.10632" lon="77.10807">
        <ele>3892.8</ele>
        <time>2015-08-30T07:44:02Z</time>
      </trkpt>
      <trkpt lat="34.1063" lon="77.1081">
        <ele>3892.8</ele>
        <time>2015-08-30T07:44:05Z</time>
      </trkpt>
      <trkpt lat="34.10629" lon="77.10814">
        <ele>3893</ele>
        <time>2015-08-30T07:44:09Z</time>
      </trkpt>
      <trkpt lat="34.10629" lon="77.10815">
        <ele>3893.2</ele>
        <time>2015-08-30T07:44:10Z</time>
      </trkpt>
      <trkpt lat="34.1063" lon="77.10816">
        <ele>3893.2</ele>
        <time>2015-08-30T07:44:11Z</time>
      </trkpt>
      <trkpt lat="34.1063" lon="77.1082">
        <ele>3893.4</ele>
        <time>2015-08-30T07:44:16Z</time>
      </trkpt>
      <trkpt lat="34.10631" lon="77.10822">
        <ele>3893.4</ele>
        <time>2015-08-30T07:44:18Z</time>
      </trkpt>
      <trkpt lat="34.10629" lon="77.10829">
        <ele>3893.4</ele>
        <time>2015-08-30T07:44:25Z</time>
      </trkpt>
      <trkpt lat="34.10626" lon="77.10834">
        <ele>3892.8</ele>
        <time>2015-08-30T07:44:30Z</time>
      </trkpt>
      <trkpt lat="34.10622" lon="77.10836">
        <ele>3892.8</ele>
        <time>2015-08-30T07:44:34Z</time>
      </trkpt>
      <trkpt lat="34.10623" lon="77.10843">
        <ele>3892.2</ele>
        <time>2015-08-30T07:44:41Z</time>
      </trkpt>
      <trkpt lat="34.10623" lon="77.10849">
        <ele>3891.6</ele>
        <time>2015-08-30T07:44:47Z</time>
      </trkpt>
      <trkpt lat="34.10619" lon="77.10853">
        <ele>3892</ele>
        <time>2015-08-30T07:44:52Z</time>
      </trkpt>
      <trkpt lat="34.10606" lon="77.10868">
        <ele>3892</ele>
        <time>2015-08-30T07:45:08Z</time>
      </trkpt>
      <trkpt lat="34.10603" lon="77.10868">
        <ele>3892</ele>
        <time>2015-08-30T07:45:12Z</time>
      </trkpt>
      <trkpt lat="34.10598" lon="77.10871">
        <ele>3892.4</ele>
        <time>2015-08-30T07:45:16Z</time>
      </trkpt>
      <trkpt lat="34.10579" lon="77.10874">
        <ele>3893</ele>
        <time>2015-08-30T07:45:25Z</time>
      </trkpt>
      <trkpt lat="34.10579" lon="77.10876">
        <ele>3893.2</ele>
        <time>2015-08-30T07:45:27Z</time>
      </trkpt>
      <trkpt lat="34.10579" lon="77.10882">
        <ele>3893.6</ele>
        <time>2015-08-30T07:45:32Z</time>
      </trkpt>
      <trkpt lat="34.10581" lon="77.10886">
        <ele>3894</ele>
        <time>2015-08-30T07:45:35Z</time>
      </trkpt>
      <trkpt lat="34.1058" lon="77.10887">
        <ele>3894.2</ele>
        <time>2015-08-30T07:45:36Z</time>
      </trkpt>
      <trkpt lat="34.10587" lon="77.10904">
        <ele>3894.2</ele>
        <time>2015-08-30T07:45:52Z</time>
      </trkpt>
      <trkpt lat="34.10586" lon="77.10908">
        <ele>3894</ele>
        <time>2015-08-30T07:45:56Z</time>
      </trkpt>
      <trkpt lat="34.10583" lon="77.10921">
        <ele>3894.6</ele>
        <time>2015-08-30T07:46:07Z</time>
      </trkpt>
      <trkpt lat="34.10588" lon="77.10927">
        <ele>3894.4</ele>
        <time>2015-08-30T07:46:16Z</time>
      </trkpt>
      <trkpt lat="34.10593" lon="77.10933">
        <ele>3893.2</ele>
        <time>2015-08-30T07:46:22Z</time>
      </trkpt>
      <trkpt lat="34.10594" lon="77.10941">
        <ele>3893</ele>
        <time>2015-08-30T07:46:27Z</time>
      </trkpt>
      <trkpt lat="34.10594" lon="77.10947">
        <ele>3892.2</ele>
        <time>2015-08-30T07:46:33Z</time>
      </trkpt>
      <trkpt lat="34.10592" lon="77.10951">
        <ele>3892</ele>
        <time>2015-08-30T07:46:35Z</time>
      </trkpt>
      <trkpt lat="34.10592" lon="77.10953">
        <ele>3891.8</ele>
        <time>2015-08-30T07:46:36Z</time>
      </trkpt>
      <trkpt lat="34.1059" lon="77.10958">
        <ele>3891</ele>
        <time>2015-08-30T07:46:40Z</time>
      </trkpt>
      <trkpt lat="34.10589" lon="77.10959">
        <ele>3890.8</ele>
        <time>2015-08-30T07:46:41Z</time>
      </trkpt>
      <trkpt lat="34.10583" lon="77.10965">
        <ele>3889.8</ele>
        <time>2015-08-30T07:46:47Z</time>
      </trkpt>
      <trkpt lat="34.10583" lon="77.10966">
        <ele>3889.8</ele>
        <time>2015-08-30T07:46:48Z</time>
      </trkpt>
      <trkpt lat="34.10581" lon="77.10968">
        <ele>3889</ele>
        <time>2015-08-30T07:46:51Z</time>
      </trkpt>
      <trkpt lat="34.10582" lon="77.10969">
        <ele>3888.8</ele>
        <time>2015-08-30T07:46:52Z</time>
      </trkpt>
      <trkpt lat="34.10581" lon="77.1097">
        <ele>3887.6</ele>
        <time>2015-08-30T07:46:57Z</time>
      </trkpt>
      <trkpt lat="34.10579" lon="77.10977">
        <ele>3886.4</ele>
        <time>2015-08-30T07:47:02Z</time>
      </trkpt>
      <trkpt lat="34.10579" lon="77.1098">
        <ele>3886</ele>
        <time>2015-08-30T07:47:04Z</time>
      </trkpt>
      <trkpt lat="34.10579" lon="77.10982">
        <ele>3885.4</ele>
        <time>2015-08-30T07:47:07Z</time>
      </trkpt>
      <trkpt lat="34.10579" lon="77.10988">
        <ele>3884.4</ele>
        <time>2015-08-30T07:47:15Z</time>
      </trkpt>
      <trkpt lat="34.10576" lon="77.10989">
        <ele>3883.2</ele>
        <time>2015-08-30T07:47:21Z</time>
      </trkpt>
      <trkpt lat="34.10569" lon="77.10993">
        <ele>3882</ele>
        <time>2015-08-30T07:47:27Z</time>
      </trkpt>
      <trkpt lat="34.10562" lon="77.11005">
        <ele>3881.4</ele>
        <time>2015-08-30T07:47:36Z</time>
      </trkpt>
      <trkpt lat="34.10553" lon="77.11014">
        <ele>3880.8</ele>
        <time>2015-08-30T07:47:42Z</time>
      </trkpt>
      <trkpt lat="34.10547" lon="77.11013">
        <ele>3880</ele>
        <time>2015-08-30T07:47:47Z</time>
      </trkpt>
      <trkpt lat="34.10545" lon="77.11013">
        <ele>3879.8</ele>
        <time>2015-08-30T07:47:48Z</time>
      </trkpt>
      <trkpt lat="34.10542" lon="77.11013">
        <ele>3879.6</ele>
        <time>2015-08-30T07:47:50Z</time>
      </trkpt>
      <trkpt lat="34.10537" lon="77.11013">
        <ele>3878.6</ele>
        <time>2015-08-30T07:47:57Z</time>
      </trkpt>
      <trkpt lat="34.10533" lon="77.11013">
        <ele>3877.6</ele>
        <time>2015-08-30T07:48:02Z</time>
      </trkpt>
      <trkpt lat="34.10533" lon="77.11013">
        <ele>3877.2</ele>
        <time>2015-08-30T07:48:04Z</time>
      </trkpt>
      <trkpt lat="34.10534" lon="77.11013">
        <ele>3876.6</ele>
        <time>2015-08-30T07:48:06Z</time>
      </trkpt>
      <trkpt lat="34.10541" lon="77.11014">
        <ele>3875.4</ele>
        <time>2015-08-30T07:48:11Z</time>
      </trkpt>
      <trkpt lat="34.10547" lon="77.1102">
        <ele>3874.4</ele>
        <time>2015-08-30T07:48:18Z</time>
      </trkpt>
      <trkpt lat="34.10549" lon="77.11027">
        <ele>3873.4</ele>
        <time>2015-08-30T07:48:23Z</time>
      </trkpt>
      <trkpt lat="34.10554" lon="77.11028">
        <ele>3873.2</ele>
        <time>2015-08-30T07:48:24Z</time>
      </trkpt>
      <trkpt lat="34.10563" lon="77.11036">
        <ele>3872.4</ele>
        <time>2015-08-30T07:48:29Z</time>
      </trkpt>
      <trkpt lat="34.10576" lon="77.11047">
        <ele>3871.2</ele>
        <time>2015-08-30T07:48:38Z</time>
      </trkpt>
      <trkpt lat="34.10578" lon="77.11051">
        <ele>3870.4</ele>
        <time>2015-08-30T07:48:42Z</time>
      </trkpt>
      <trkpt lat="34.1058" lon="77.11052">
        <ele>3870.2</ele>
        <time>2015-08-30T07:48:44Z</time>
      </trkpt>
      <trkpt lat="34.10583" lon="77.11056">
        <ele>3869.4</ele>
        <time>2015-08-30T07:48:50Z</time>
      </trkpt>
      <trkpt lat="34.10583" lon="77.11056">
        <ele>3869.2</ele>
        <time>2015-08-30T07:48:51Z</time>
      </trkpt>
      <trkpt lat="34.10585" lon="77.11061">
        <ele>3868.2</ele>
        <time>2015-08-30T07:48:57Z</time>
      </trkpt>
      <trkpt lat="34.10587" lon="77.11057">
        <ele>3867.8</ele>
        <time>2015-08-30T07:49:01Z</time>
      </trkpt>
      <trkpt lat="34.10587" lon="77.11061">
        <ele>3867.4</ele>
        <time>2015-08-30T07:49:06Z</time>
      </trkpt>
      <trkpt lat="34.10592" lon="77.11064">
        <ele>3867</ele>
        <time>2015-08-30T07:49:08Z</time>
      </trkpt>
      <trkpt lat="34.10589" lon="77.11065">
        <ele>3866.8</ele>
        <time>2015-08-30T07:49:10Z</time>
      </trkpt>
      <trkpt lat="34.10574" lon="77.11075">
        <ele>3866.6</ele>
        <time>2015-08-30T07:49:24Z</time>
      </trkpt>
      <trkpt lat="34.10558" lon="77.11089">
        <ele>3866.8</ele>
        <time>2015-08-30T07:49:35Z</time>
      </trkpt>
      <trkpt lat="34.10538" lon="77.111">
        <ele>3867.6</ele>
        <time>2015-08-30T07:49:55Z</time>
      </trkpt>
      <trkpt lat="34.10538" lon="77.11099">
        <ele>3867.2</ele>
        <time>2015-08-30T07:50:00Z</time>
      </trkpt>
      <trkpt lat="34.10539" lon="77.11103">
        <ele>3867.2</ele>
        <time>2015-08-30T07:50:03Z</time>
      </trkpt>
      <trkpt lat="34.10536" lon="77.1111">
        <ele>3868.4</ele>
        <time>2015-08-30T07:50:08Z</time>
      </trkpt>
      <trkpt lat="34.10531" lon="77.1111">
        <ele>3868.8</ele>
        <time>2015-08-30T07:50:12Z</time>
      </trkpt>
      <trkpt lat="34.10525" lon="77.1111">
        <ele>3868.8</ele>
        <time>2015-08-30T07:50:17Z</time>
      </trkpt>
      <trkpt lat="34.10517" lon="77.11103">
        <ele>3869.2</ele>
        <time>2015-08-30T07:50:25Z</time>
      </trkpt>
      <trkpt lat="34.10515" lon="77.11101">
        <ele>3869.4</ele>
        <time>2015-08-30T07:50:27Z</time>
      </trkpt>
      <trkpt lat="34.10506" lon="77.111">
        <ele>3870.2</ele>
        <time>2015-08-30T07:50:34Z</time>
      </trkpt>
      <trkpt lat="34.10504" lon="77.11103">
        <ele>3870.4</ele>
        <time>2015-08-30T07:50:37Z</time>
      </trkpt>
      <trkpt lat="34.10503" lon="77.11103">
        <ele>3870.6</ele>
        <time>2015-08-30T07:50:38Z</time>
      </trkpt>
      <trkpt lat="34.10493" lon="77.11113">
        <ele>3870.6</ele>
        <time>2015-08-30T07:50:48Z</time>
      </trkpt>
      <trkpt lat="34.10488" lon="77.11118">
        <ele>3870.6</ele>
        <time>2015-08-30T07:51:02Z</time>
      </trkpt>
      <trkpt lat="34.10489" lon="77.11119">
        <ele>3870.4</ele>
        <time>2015-08-30T07:51:03Z</time>
      </trkpt>
      <trkpt lat="34.10488" lon="77.11112">
        <ele>3870</ele>
        <time>2015-08-30T07:51:10Z</time>
      </trkpt>
      <trkpt lat="34.10483" lon="77.11122">
        <ele>3870.6</ele>
        <time>2015-08-30T07:51:24Z</time>
      </trkpt>
      <trkpt lat="34.10486" lon="77.11128">
        <ele>3870.4</ele>
        <time>2015-08-30T07:51:38Z</time>
      </trkpt>
      <trkpt lat="34.10481" lon="77.11137">
        <ele>3869.8</ele>
        <time>2015-08-30T07:51:46Z</time>
      </trkpt>
      <trkpt lat="34.10479" lon="77.11141">
        <ele>3869.4</ele>
        <time>2015-08-30T07:51:49Z</time>
      </trkpt>
      <trkpt lat="34.10473" lon="77.11159">
        <ele>3868.4</ele>
        <time>2015-08-30T07:52:00Z</time>
      </trkpt>
      <trkpt lat="34.10475" lon="77.11168">
        <ele>3867.4</ele>
        <time>2015-08-30T07:52:05Z</time>
      </trkpt>
      <trkpt lat="34.10463" lon="77.11184">
        <ele>3868.4</ele>
        <time>2015-08-30T07:52:19Z</time>
      </trkpt>
      <trkpt lat="34.1046" lon="77.11185">
        <ele>3868.4</ele>
        <time>2015-08-30T07:52:21Z</time>
      </trkpt>
      <trkpt lat="34.10453" lon="77.11199">
        <ele>3867.2</ele>
        <time>2015-08-30T07:52:31Z</time>
      </trkpt>
      <trkpt lat="34.10452" lon="77.11206">
        <ele>3866</ele>
        <time>2015-08-30T07:52:35Z</time>
      </trkpt>
      <trkpt lat="34.10447" lon="77.11222">
        <ele>3865</ele>
        <time>2015-08-30T07:52:47Z</time>
      </trkpt>
      <trkpt lat="34.10441" lon="77.11237">
        <ele>3864</ele>
        <time>2015-08-30T07:52:59Z</time>
      </trkpt>
      <trkpt lat="34.10437" lon="77.11252">
        <ele>3863.2</ele>
        <time>2015-08-30T07:53:09Z</time>
      </trkpt>
      <trkpt lat="34.10437" lon="77.11254">
        <ele>3863</ele>
        <time>2015-08-30T07:53:10Z</time>
      </trkpt>
      <trkpt lat="34.10432" lon="77.11268">
        <ele>3862.4</ele>
        <time>2015-08-30T07:53:20Z</time>
      </trkpt>
      <trkpt lat="34.10431" lon="77.11273">
        <ele>3862</ele>
        <time>2015-08-30T07:53:24Z</time>
      </trkpt>
      <trkpt lat="34.1042" lon="77.1129">
        <ele>3861.4</ele>
        <time>2015-08-30T07:53:41Z</time>
      </trkpt>
      <trkpt lat="34.10416" lon="77.11296">
        <ele>3861</ele>
        <time>2015-08-30T07:53:47Z</time>
      </trkpt>
      <trkpt lat="34.10404" lon="77.11297">
        <ele>3861</ele>
        <time>2015-08-30T07:54:08Z</time>
      </trkpt>
      <trkpt lat="34.10393" lon="77.1129">
        <ele>3861.6</ele>
        <time>2015-08-30T07:54:19Z</time>
      </trkpt>
      <trkpt lat="34.10385" lon="77.11289">
        <ele>3861.8</ele>
        <time>2015-08-30T07:54:26Z</time>
      </trkpt>
      <trkpt lat="34.10367" lon="77.11297">
        <ele>3861.2</ele>
        <time>2015-08-30T07:54:39Z</time>
      </trkpt>
      <trkpt lat="34.10357" lon="77.11316">
        <ele>3859.8</ele>
        <time>2015-08-30T07:54:49Z</time>
      </trkpt>
      <trkpt lat="34.10345" lon="77.11322">
        <ele>3858.8</ele>
        <time>2015-08-30T07:54:59Z</time>
      </trkpt>
      <trkpt lat="34.10338" lon="77.11336">
        <ele>3857.6</ele>
        <time>2015-08-30T07:55:11Z</time>
      </trkpt>
      <trkpt lat="34.10339" lon="77.11337">
        <ele>3857.4</ele>
        <time>2015-08-30T07:55:12Z</time>
      </trkpt>
      <trkpt lat="34.10332" lon="77.11342">
        <ele>3856.4</ele>
        <time>2015-08-30T07:55:19Z</time>
      </trkpt>
      <trkpt lat="34.10331" lon="77.11343">
        <ele>3856.4</ele>
        <time>2015-08-30T07:55:20Z</time>
      </trkpt>
      <trkpt lat="34.10326" lon="77.11349">
        <ele>3855.4</ele>
        <time>2015-08-30T07:55:31Z</time>
      </trkpt>
      <trkpt lat="34.10322" lon="77.11356">
        <ele>3854.4</ele>
        <time>2015-08-30T07:55:39Z</time>
      </trkpt>
      <trkpt lat="34.10312" lon="77.11372">
        <ele>3853.6</ele>
        <time>2015-08-30T07:55:51Z</time>
      </trkpt>
      <trkpt lat="34.10308" lon="77.11373">
        <ele>3853.4</ele>
        <time>2015-08-30T07:55:54Z</time>
      </trkpt>
      <trkpt lat="34.10306" lon="77.11374">
        <ele>3853.2</ele>
        <time>2015-08-30T07:55:57Z</time>
      </trkpt>
      <trkpt lat="34.10301" lon="77.11379">
        <ele>3852</ele>
        <time>2015-08-30T07:56:03Z</time>
      </trkpt>
      <trkpt lat="34.10293" lon="77.11397">
        <ele>3851</ele>
        <time>2015-08-30T07:56:18Z</time>
      </trkpt>
      <trkpt lat="34.10295" lon="77.11401">
        <ele>3851.2</ele>
        <time>2015-08-30T07:56:22Z</time>
      </trkpt>
      <trkpt lat="34.10293" lon="77.114">
        <ele>3851</ele>
        <time>2015-08-30T07:56:26Z</time>
      </trkpt>
      <trkpt lat="34.10291" lon="77.11402">
        <ele>3850</ele>
        <time>2015-08-30T07:56:30Z</time>
      </trkpt>
      <trkpt lat="34.10287" lon="77.11405">
        <ele>3848.8</ele>
        <time>2015-08-30T07:56:36Z</time>
      </trkpt>
      <trkpt lat="34.10287" lon="77.11407">
        <ele>3847.6</ele>
        <time>2015-08-30T07:56:45Z</time>
      </trkpt>
      <trkpt lat="34.10291" lon="77.11407">
        <ele>3846.6</ele>
        <time>2015-08-30T07:56:50Z</time>
      </trkpt>
      <trkpt lat="34.10291" lon="77.11407">
        <ele>3846.2</ele>
        <time>2015-08-30T07:56:51Z</time>
      </trkpt>
      <trkpt lat="34.10295" lon="77.11405">
        <ele>3845.2</ele>
        <time>2015-08-30T07:56:55Z</time>
      </trkpt>
      <trkpt lat="34.10284" lon="77.11422">
        <ele>3844.2</ele>
        <time>2015-08-30T07:57:05Z</time>
      </trkpt>
      <trkpt lat="34.10282" lon="77.11431">
        <ele>3843.4</ele>
        <time>2015-08-30T07:57:11Z</time>
      </trkpt>
      <trkpt lat="34.10282" lon="77.11432">
        <ele>3843.2</ele>
        <time>2015-08-30T07:57:12Z</time>
      </trkpt>
      <trkpt lat="34.10282" lon="77.11438">
        <ele>3842.6</ele>
        <time>2015-08-30T07:57:16Z</time>
      </trkpt>
      <trkpt lat="34.10282" lon="77.11443">
        <ele>3842.2</ele>
        <time>2015-08-30T07:57:20Z</time>
      </trkpt>
      <trkpt lat="34.10282" lon="77.11448">
        <ele>3842</ele>
        <time>2015-08-30T07:57:23Z</time>
      </trkpt>
      <trkpt lat="34.1029" lon="77.11459">
        <ele>3841.6</ele>
        <time>2015-08-30T07:57:31Z</time>
      </trkpt>
      <trkpt lat="34.1029" lon="77.11461">
        <ele>3841</ele>
        <time>2015-08-30T07:57:34Z</time>
      </trkpt>
      <trkpt lat="34.10294" lon="77.11464">
        <ele>3840.6</ele>
        <time>2015-08-30T07:57:48Z</time>
      </trkpt>
      <trkpt lat="34.10292" lon="77.11457">
        <ele>3841.2</ele>
        <time>2015-08-30T07:58:06Z</time>
      </trkpt>
      <trkpt lat="34.10286" lon="77.11459">
        <ele>3841.6</ele>
        <time>2015-08-30T07:58:22Z</time>
      </trkpt>
      <trkpt lat="34.1029" lon="77.11464">
        <ele>3840.4</ele>
        <time>2015-08-30T07:58:27Z</time>
      </trkpt>
      <trkpt lat="34.10295" lon="77.11465">
        <ele>3840</ele>
        <time>2015-08-30T07:58:29Z</time>
      </trkpt>
      <trkpt lat="34.10294" lon="77.11471">
        <ele>3839</ele>
        <time>2015-08-30T07:58:34Z</time>
      </trkpt>
      <trkpt lat="34.10293" lon="77.11473">
        <ele>3838.8</ele>
        <time>2015-08-30T07:58:35Z</time>
      </trkpt>
      <trkpt lat="34.10291" lon="77.11481">
        <ele>3838</ele>
        <time>2015-08-30T07:58:42Z</time>
      </trkpt>
      <trkpt lat="34.10289" lon="77.11485">
        <ele>3837.8</ele>
        <time>2015-08-30T07:58:45Z</time>
      </trkpt>
      <trkpt lat="34.10287" lon="77.11489">
        <ele>3837.2</ele>
        <time>2015-08-30T07:58:49Z</time>
      </trkpt>
      <trkpt lat="34.10289" lon="77.11495">
        <ele>3837</ele>
        <time>2015-08-30T07:58:54Z</time>
      </trkpt>
      <trkpt lat="34.1029" lon="77.11501">
        <ele>3836</ele>
        <time>2015-08-30T07:58:57Z</time>
      </trkpt>
      <trkpt lat="34.10291" lon="77.11504">
        <ele>3835.8</ele>
        <time>2015-08-30T07:58:58Z</time>
      </trkpt>
      <trkpt lat="34.10293" lon="77.11511">
        <ele>3834.4</ele>
        <time>2015-08-30T07:59:04Z</time>
      </trkpt>
      <trkpt lat="34.10295" lon="77.11513">
        <ele>3833.8</ele>
        <time>2015-08-30T07:59:09Z</time>
      </trkpt>
      <trkpt lat="34.10289" lon="77.1152">
        <ele>3833.6</ele>
        <time>2015-08-30T07:59:15Z</time>
      </trkpt>
      <trkpt lat="34.10288" lon="77.1152">
        <ele>3833.4</ele>
        <time>2015-08-30T07:59:16Z</time>
      </trkpt>
      <trkpt lat="34.10286" lon="77.11522">
        <ele>3832.2</ele>
        <time>2015-08-30T07:59:21Z</time>
      </trkpt>
      <trkpt lat="34.10282" lon="77.11533">
        <ele>3831.2</ele>
        <time>2015-08-30T07:59:31Z</time>
      </trkpt>
      <trkpt lat="34.10282" lon="77.11533">
        <ele>3830.2</ele>
        <time>2015-08-30T07:59:36Z</time>
      </trkpt>
      <trkpt lat="34.10282" lon="77.11529">
        <ele>3830</ele>
        <time>2015-08-30T07:59:37Z</time>
      </trkpt>
      <trkpt lat="34.10283" lon="77.11531">
        <ele>3829</ele>
        <time>2015-08-30T07:59:43Z</time>
      </trkpt>
      <trkpt lat="34.10288" lon="77.11538">
        <ele>3827.8</ele>
        <time>2015-08-30T07:59:55Z</time>
      </trkpt>
      <trkpt lat="34.10288" lon="77.1154">
        <ele>3827.4</ele>
        <time>2015-08-30T07:59:57Z</time>
      </trkpt>
      <trkpt lat="34.10288" lon="77.11543">
        <ele>3826.8</ele>
        <time>2015-08-30T08:00:01Z</time>
      </trkpt>
      <trkpt lat="34.10296" lon="77.1155">
        <ele>3825.8</ele>
        <time>2015-08-30T08:00:08Z</time>
      </trkpt>
      <trkpt lat="34.10294" lon="77.1156">
        <ele>3825.2</ele>
        <time>2015-08-30T08:00:12Z</time>
      </trkpt>
      <trkpt lat="34.10293" lon="77.11569">
        <ele>3824.8</ele>
        <time>2015-08-30T08:00:21Z</time>
      </trkpt>
      <trkpt lat="34.10286" lon="77.11576">
        <ele>3824.2</ele>
        <time>2015-08-30T08:00:26Z</time>
      </trkpt>
      <trkpt lat="34.10287" lon="77.11581">
        <ele>3823.6</ele>
        <time>2015-08-30T08:00:30Z</time>
      </trkpt>
      <trkpt lat="34.10289" lon="77.11595">
        <ele>3822.6</ele>
        <time>2015-08-30T08:00:37Z</time>
      </trkpt>
      <trkpt lat="34.10288" lon="77.11596">
        <ele>3822.4</ele>
        <time>2015-08-30T08:00:38Z</time>
      </trkpt>
      <trkpt lat="34.10291" lon="77.11603">
        <ele>3822.2</ele>
        <time>2015-08-30T08:00:43Z</time>
      </trkpt>
      <trkpt lat="34.10293" lon="77.11607">
        <ele>3822</ele>
        <time>2015-08-30T08:00:47Z</time>
      </trkpt>
      <trkpt lat="34.10295" lon="77.1161">
        <ele>3821.6</ele>
        <time>2015-08-30T08:00:51Z</time>
      </trkpt>
      <trkpt lat="34.10293" lon="77.11612">
        <ele>3821.4</ele>
        <time>2015-08-30T08:00:53Z</time>
      </trkpt>
      <trkpt lat="34.1029" lon="77.1162">
        <ele>3821</ele>
        <time>2015-08-30T08:00:58Z</time>
      </trkpt>
      <trkpt lat="34.1029" lon="77.11632">
        <ele>3820.4</ele>
        <time>2015-08-30T08:01:10Z</time>
      </trkpt>
      <trkpt lat="34.10289" lon="77.11639">
        <ele>3819.6</ele>
        <time>2015-08-30T08:01:15Z</time>
      </trkpt>
      <trkpt lat="34.10289" lon="77.11642">
        <ele>3819.4</ele>
        <time>2015-08-30T08:01:17Z</time>
      </trkpt>
      <trkpt lat="34.1029" lon="77.11645">
        <ele>3819</ele>
        <time>2015-08-30T08:01:20Z</time>
      </trkpt>
      <trkpt lat="34.10289" lon="77.11651">
        <ele>3818.2</ele>
        <time>2015-08-30T08:01:25Z</time>
      </trkpt>
      <trkpt lat="34.10288" lon="77.11654">
        <ele>3817.6</ele>
        <time>2015-08-30T08:01:28Z</time>
      </trkpt>
      <trkpt lat="34.10287" lon="77.11656">
        <ele>3817.2</ele>
        <time>2015-08-30T08:01:30Z</time>
      </trkpt>
      <trkpt lat="34.10288" lon="77.11658">
        <ele>3817</ele>
        <time>2015-08-30T08:01:32Z</time>
      </trkpt>
      <trkpt lat="34.10291" lon="77.11662">
        <ele>3816</ele>
        <time>2015-08-30T08:01:36Z</time>
      </trkpt>
      <trkpt lat="34.10291" lon="77.11667">
        <ele>3814.8</ele>
        <time>2015-08-30T08:01:42Z</time>
      </trkpt>
      <trkpt lat="34.1029" lon="77.11672">
        <ele>3813.6</ele>
        <time>2015-08-30T08:01:47Z</time>
      </trkpt>
      <trkpt lat="34.10291" lon="77.11676">
        <ele>3812.4</ele>
        <time>2015-08-30T08:01:52Z</time>
      </trkpt>
      <trkpt lat="34.10291" lon="77.11681">
        <ele>3811.4</ele>
        <time>2015-08-30T08:01:58Z</time>
      </trkpt>
      <trkpt lat="34.10291" lon="77.11683">
        <ele>3810.4</ele>
        <time>2015-08-30T08:02:02Z</time>
      </trkpt>
      <trkpt lat="34.1029" lon="77.1169">
        <ele>3809.2</ele>
        <time>2015-08-30T08:02:08Z</time>
      </trkpt>
      <trkpt lat="34.1029" lon="77.11693">
        <ele>3808.8</ele>
        <time>2015-08-30T08:02:10Z</time>
      </trkpt>
      <trkpt lat="34.10291" lon="77.11693">
        <ele>3808.2</ele>
        <time>2015-08-30T08:02:12Z</time>
      </trkpt>
      <trkpt lat="34.1029" lon="77.11694">
        <ele>3808</ele>
        <time>2015-08-30T08:02:13Z</time>
      </trkpt>
      <trkpt lat="34.10288" lon="77.11698">
        <ele>3807</ele>
        <time>2015-08-30T08:02:20Z</time>
      </trkpt>
      <trkpt lat="34.10286" lon="77.11702">
        <ele>3805.8</ele>
        <time>2015-08-30T08:02:26Z</time>
      </trkpt>
      <trkpt lat="34.10284" lon="77.11706">
        <ele>3804.8</ele>
        <time>2015-08-30T08:02:31Z</time>
      </trkpt>
      <trkpt lat="34.10285" lon="77.1171">
        <ele>3803.6</ele>
        <time>2015-08-30T08:02:37Z</time>
      </trkpt>
      <trkpt lat="34.10286" lon="77.11719">
        <ele>3802.6</ele>
        <time>2015-08-30T08:02:42Z</time>
      </trkpt>
      <trkpt lat="34.10284" lon="77.11722">
        <ele>3802</ele>
        <time>2015-08-30T08:02:45Z</time>
      </trkpt>
      <trkpt lat="34.10283" lon="77.11726">
        <ele>3801.4</ele>
        <time>2015-08-30T08:02:47Z</time>
      </trkpt>
      <trkpt lat="34.10284" lon="77.11732">
        <ele>3800.6</ele>
        <time>2015-08-30T08:02:52Z</time>
      </trkpt>
      <trkpt lat="34.10284" lon="77.11733">
        <ele>3800.4</ele>
        <time>2015-08-30T08:02:53Z</time>
      </trkpt>
      <trkpt lat="34.10283" lon="77.11736">
        <ele>3799.2</ele>
        <time>2015-08-30T08:03:00Z</time>
      </trkpt>
      <trkpt lat="34.10283" lon="77.11742">
        <ele>3798.2</ele>
        <time>2015-08-30T08:03:05Z</time>
      </trkpt>
      <trkpt lat="34.10282" lon="77.11749">
        <ele>3797</ele>
        <time>2015-08-30T08:03:10Z</time>
      </trkpt>
      <trkpt lat="34.10279" lon="77.11754">
        <ele>3796</ele>
        <time>2015-08-30T08:03:14Z</time>
      </trkpt>
      <trkpt lat="34.10279" lon="77.11754">
        <ele>3796</ele>
        <time>2015-08-30T08:03:15Z</time>
      </trkpt>
      <trkpt lat="34.10279" lon="77.11754">
        <ele>3795.8</ele>
        <time>2015-08-30T08:03:16Z</time>
      </trkpt>
      <trkpt lat="34.10278" lon="77.11756">
        <ele>3794.8</ele>
        <time>2015-08-30T08:03:19Z</time>
      </trkpt>
      <trkpt lat="34.10276" lon="77.11759">
        <ele>3794</ele>
        <time>2015-08-30T08:03:23Z</time>
      </trkpt>
      <trkpt lat="34.10276" lon="77.11758">
        <ele>3793.8</ele>
        <time>2015-08-30T08:03:24Z</time>
      </trkpt>
      <trkpt lat="34.10275" lon="77.1176">
        <ele>3793.4</ele>
        <time>2015-08-30T08:03:26Z</time>
      </trkpt>
      <trkpt lat="34.10274" lon="77.11764">
        <ele>3792.8</ele>
        <time>2015-08-30T08:03:29Z</time>
      </trkpt>
      <trkpt lat="34.10272" lon="77.11769">
        <ele>3791.6</ele>
        <time>2015-08-30T08:03:34Z</time>
      </trkpt>
      <trkpt lat="34.10273" lon="77.11775">
        <ele>3791</ele>
        <time>2015-08-30T08:03:38Z</time>
      </trkpt>
      <trkpt lat="34.10272" lon="77.11779">
        <ele>3790.6</ele>
        <time>2015-08-30T08:03:40Z</time>
      </trkpt>
      <trkpt lat="34.10272" lon="77.1178">
        <ele>3790.4</ele>
        <time>2015-08-30T08:03:41Z</time>
      </trkpt>
      <trkpt lat="34.10268" lon="77.11784">
        <ele>3789.4</ele>
        <time>2015-08-30T08:03:45Z</time>
      </trkpt>
      <trkpt lat="34.10267" lon="77.11785">
        <ele>3789.2</ele>
        <time>2015-08-30T08:03:46Z</time>
      </trkpt>
      <trkpt lat="34.10264" lon="77.11791">
        <ele>3788.4</ele>
        <time>2015-08-30T08:03:51Z</time>
      </trkpt>
      <trkpt lat="34.10258" lon="77.11798">
        <ele>3787.2</ele>
        <time>2015-08-30T08:03:58Z</time>
      </trkpt>
      <trkpt lat="34.10255" lon="77.11804">
        <ele>3786.6</ele>
        <time>2015-08-30T08:04:04Z</time>
      </trkpt>
      <trkpt lat="34.1026" lon="77.11806">
        <ele>3786</ele>
        <time>2015-08-30T08:04:06Z</time>
      </trkpt>
      <trkpt lat="34.1026" lon="77.11816">
        <ele>3785.6</ele>
        <time>2015-08-30T08:04:11Z</time>
      </trkpt>
      <trkpt lat="34.1026" lon="77.11822">
        <ele>3785.4</ele>
        <time>2015-08-30T08:04:16Z</time>
      </trkpt>
      <trkpt lat="34.10266" lon="77.11829">
        <ele>3785.2</ele>
        <time>2015-08-30T08:04:23Z</time>
      </trkpt>
      <trkpt lat="34.10266" lon="77.11831">
        <ele>3785</ele>
        <time>2015-08-30T08:04:24Z</time>
      </trkpt>
      <trkpt lat="34.10266" lon="77.11833">
        <ele>3785</ele>
        <time>2015-08-30T08:04:26Z</time>
      </trkpt>
      <trkpt lat="34.10249" lon="77.11844">
        <ele>3784.4</ele>
        <time>2015-08-30T08:04:57Z</time>
      </trkpt>
      <trkpt lat="34.10247" lon="77.11848">
        <ele>3784</ele>
        <time>2015-08-30T08:05:03Z</time>
      </trkpt>
      <trkpt lat="34.10244" lon="77.11858">
        <ele>3783.6</ele>
        <time>2015-08-30T08:05:13Z</time>
      </trkpt>
      <trkpt lat="34.10245" lon="77.11871">
        <ele>3783.2</ele>
        <time>2015-08-30T08:05:31Z</time>
      </trkpt>
      <trkpt lat="34.10244" lon="77.11876">
        <ele>3783</ele>
        <time>2015-08-30T08:05:39Z</time>
      </trkpt>
      <trkpt lat="34.10242" lon="77.11885">
        <ele>3782.4</ele>
        <time>2015-08-30T08:05:51Z</time>
      </trkpt>
      <trkpt lat="34.1024" lon="77.11887">
        <ele>3782.4</ele>
        <time>2015-08-30T08:05:55Z</time>
      </trkpt>
      <trkpt lat="34.10236" lon="77.11886">
        <ele>3782.4</ele>
        <time>2015-08-30T08:06:02Z</time>
      </trkpt>
      <trkpt lat="34.10236" lon="77.11881">
        <ele>3782.4</ele>
        <time>2015-08-30T08:06:04Z</time>
      </trkpt>
      <trkpt lat="34.10235" lon="77.11877">
        <ele>3782.2</ele>
        <time>2015-08-30T08:06:07Z</time>
      </trkpt>
      <trkpt lat="34.10236" lon="77.11883">
        <ele>3782</ele>
        <time>2015-08-30T08:06:11Z</time>
      </trkpt>
      <trkpt lat="34.10239" lon="77.11889">
        <ele>3781.8</ele>
        <time>2015-08-30T08:06:19Z</time>
      </trkpt>
      <trkpt lat="34.1024" lon="77.11895">
        <ele>3782</ele>
        <time>2015-08-30T08:06:25Z</time>
      </trkpt>
      <trkpt lat="34.10242" lon="77.11899">
        <ele>3781.8</ele>
        <time>2015-08-30T08:06:29Z</time>
      </trkpt>
      <trkpt lat="34.10247" lon="77.11904">
        <ele>3781.8</ele>
        <time>2015-08-30T08:06:35Z</time>
      </trkpt>
      <trkpt lat="34.10243" lon="77.11901">
        <ele>3781.4</ele>
        <time>2015-08-30T08:06:45Z</time>
      </trkpt>
      <trkpt lat="34.10239" lon="77.11902">
        <ele>3781.6</ele>
        <time>2015-08-30T08:06:49Z</time>
      </trkpt>
      <trkpt lat="34.10233" lon="77.11903">
        <ele>3781.2</ele>
        <time>2015-08-30T08:07:29Z</time>
      </trkpt>
      <trkpt lat="34.10233" lon="77.11903">
        <ele>3781</ele>
        <time>2015-08-30T08:07:33Z</time>
      </trkpt>
      <trkpt lat="34.10239" lon="77.11903">
        <ele>3781</ele>
        <time>2015-08-30T08:07:38Z</time>
      </trkpt>
      <trkpt lat="34.10246" lon="77.11902">
        <ele>3780.6</ele>
        <time>2015-08-30T08:08:47Z</time>
      </trkpt>
      <trkpt lat="34.1025" lon="77.11905">
        <ele>3780</ele>
        <time>2015-08-30T08:09:39Z</time>
      </trkpt>
      <trkpt lat="34.10242" lon="77.11904">
        <ele>3780.2</ele>
        <time>2015-08-30T08:09:49Z</time>
      </trkpt>
      <trkpt lat="34.10237" lon="77.11909">
        <ele>3780</ele>
        <time>2015-08-30T08:10:04Z</time>
      </trkpt>
      <trkpt lat="34.10232" lon="77.11917">
        <ele>3780</ele>
        <time>2015-08-30T08:10:10Z</time>
      </trkpt>
      <trkpt lat="34.10229" lon="77.11921">
        <ele>3779.6</ele>
        <time>2015-08-30T08:10:16Z</time>
      </trkpt>
      <trkpt lat="34.1023" lon="77.11921">
        <ele>3779.6</ele>
        <time>2015-08-30T08:10:24Z</time>
      </trkpt>
      <trkpt lat="34.10223" lon="77.11922">
        <ele>3778.8</ele>
        <time>2015-08-30T08:10:38Z</time>
      </trkpt>
      <trkpt lat="34.1022" lon="77.11929">
        <ele>3778.6</ele>
        <time>2015-08-30T08:10:43Z</time>
      </trkpt>
      <trkpt lat="34.10206" lon="77.11938">
        <ele>3779.4</ele>
        <time>2015-08-30T08:10:54Z</time>
      </trkpt>
      <trkpt lat="34.10202" lon="77.11944">
        <ele>3780</ele>
        <time>2015-08-30T08:10:59Z</time>
      </trkpt>
      <trkpt lat="34.10202" lon="77.11965">
        <ele>3780.2</ele>
        <time>2015-08-30T08:11:19Z</time>
      </trkpt>
      <trkpt lat="34.10202" lon="77.11969">
        <ele>3780.2</ele>
        <time>2015-08-30T08:11:22Z</time>
      </trkpt>
      <trkpt lat="34.10206" lon="77.11989">
        <ele>3780.4</ele>
        <time>2015-08-30T08:11:45Z</time>
      </trkpt>
      <trkpt lat="34.10204" lon="77.11991">
        <ele>3780.2</ele>
        <time>2015-08-30T08:11:47Z</time>
      </trkpt>
      <trkpt lat="34.10207" lon="77.11994">
        <ele>3780</ele>
        <time>2015-08-30T08:11:49Z</time>
      </trkpt>
      <trkpt lat="34.10207" lon="77.12015">
        <ele>3779.4</ele>
        <time>2015-08-30T08:12:06Z</time>
      </trkpt>
      <trkpt lat="34.10213" lon="77.12018">
        <ele>3778.8</ele>
        <time>2015-08-30T08:12:14Z</time>
      </trkpt>
      <trkpt lat="34.10216" lon="77.12018">
        <ele>3778.2</ele>
        <time>2015-08-30T08:12:17Z</time>
      </trkpt>
      <trkpt lat="34.10222" lon="77.12024">
        <ele>3777.8</ele>
        <time>2015-08-30T08:12:25Z</time>
      </trkpt>
      <trkpt lat="34.10219" lon="77.12029">
        <ele>3777.4</ele>
        <time>2015-08-30T08:12:34Z</time>
      </trkpt>
      <trkpt lat="34.10227" lon="77.1203">
        <ele>3777.2</ele>
        <time>2015-08-30T08:12:37Z</time>
      </trkpt>
      <trkpt lat="34.10228" lon="77.12033">
        <ele>3776.8</ele>
        <time>2015-08-30T08:12:48Z</time>
      </trkpt>
      <trkpt lat="34.10232" lon="77.12034">
        <ele>3778</ele>
        <time>2015-08-30T08:13:24Z</time>
      </trkpt>
      <trkpt lat="34.10231" lon="77.12048">
        <ele>3777.8</ele>
        <time>2015-08-30T08:13:54Z</time>
      </trkpt>
      <trkpt lat="34.10234" lon="77.12054">
        <ele>3778</ele>
        <time>2015-08-30T08:14:48Z</time>
      </trkpt>
      <trkpt lat="34.10228" lon="77.12049">
        <ele>3778</ele>
        <time>2015-08-30T08:14:55Z</time>
      </trkpt>
      <trkpt lat="34.10226" lon="77.12049">
        <ele>3778.4</ele>
        <time>2015-08-30T08:14:58Z</time>
      </trkpt>
      <trkpt lat="34.10223" lon="77.12044">
        <ele>3778.6</ele>
        <time>2015-08-30T08:15:07Z</time>
      </trkpt>
      <trkpt lat="34.10222" lon="77.12042">
        <ele>3778.6</ele>
        <time>2015-08-30T08:15:09Z</time>
      </trkpt>
      <trkpt lat="34.10221" lon="77.1204">
        <ele>3778.4</ele>
        <time>2015-08-30T08:15:12Z</time>
      </trkpt>
      <trkpt lat="34.10223" lon="77.12036">
        <ele>3778.4</ele>
        <time>2015-08-30T08:15:44Z</time>
      </trkpt>
      <trkpt lat="34.10226" lon="77.12034">
        <ele>3778.8</ele>
        <time>2015-08-30T08:15:51Z</time>
      </trkpt>
      <trkpt lat="34.10228" lon="77.12037">
        <ele>3777.8</ele>
        <time>2015-08-30T08:16:11Z</time>
      </trkpt>
      <trkpt lat="34.10228" lon="77.12035">
        <ele>3777.8</ele>
        <time>2015-08-30T08:16:14Z</time>
      </trkpt>
      <trkpt lat="34.10229" lon="77.12038">
        <ele>3778.4</ele>
        <time>2015-08-30T08:16:27Z</time>
      </trkpt>
      <trkpt lat="34.10231" lon="77.1204">
        <ele>3777.8</ele>
        <time>2015-08-30T08:16:43Z</time>
      </trkpt>
      <trkpt lat="34.10231" lon="77.12037">
        <ele>3777.8</ele>
        <time>2015-08-30T08:16:45Z</time>
      </trkpt>
      <trkpt lat="34.10228" lon="77.12027">
        <ele>3777.4</ele>
        <time>2015-08-30T08:17:00Z</time>
      </trkpt>
      <trkpt lat="34.10234" lon="77.12029">
        <ele>3776.8</ele>
        <time>2015-08-30T08:17:34Z</time>
      </trkpt>
      <trkpt lat="34.10239" lon="77.12031">
        <ele>3777.2</ele>
        <time>2015-08-30T08:17:45Z</time>
      </trkpt>
      <trkpt lat="34.10239" lon="77.12033">
        <ele>3776.8</ele>
        <time>2015-08-30T08:17:52Z</time>
      </trkpt>
      <trkpt lat="34.10231" lon="77.12035">
        <ele>3776.6</ele>
        <time>2015-08-30T08:17:57Z</time>
      </trkpt>
      <trkpt lat="34.10226" lon="77.12035">
        <ele>3776.6</ele>
        <time>2015-08-30T08:18:02Z</time>
      </trkpt>
      <trkpt lat="34.10225" lon="77.12035">
        <ele>3776.4</ele>
        <time>2015-08-30T08:18:08Z</time>
      </trkpt>
      <trkpt lat="34.10226" lon="77.12032">
        <ele>3776.4</ele>
        <time>2015-08-30T08:18:12Z</time>
      </trkpt>
      <trkpt lat="34.10224" lon="77.12031">
        <ele>3776.4</ele>
        <time>2015-08-30T08:18:16Z</time>
      </trkpt>
      <trkpt lat="34.10221" lon="77.1203">
        <ele>3776.4</ele>
        <time>2015-08-30T08:18:18Z</time>
      </trkpt>
      <trkpt lat="34.1022" lon="77.1203">
        <ele>3776.4</ele>
        <time>2015-08-30T08:18:20Z</time>
      </trkpt>
      <trkpt lat="34.10222" lon="77.12032">
        <ele>3776</ele>
        <time>2015-08-30T08:18:26Z</time>
      </trkpt>
      <trkpt lat="34.10225" lon="77.12036">
        <ele>3775.6</ele>
        <time>2015-08-30T08:18:30Z</time>
      </trkpt>
      <trkpt lat="34.10226" lon="77.12043">
        <ele>3774.8</ele>
        <time>2015-08-30T08:19:05Z</time>
      </trkpt>
      <trkpt lat="34.10223" lon="77.1203">
        <ele>3775</ele>
        <time>2015-08-30T08:19:26Z</time>
      </trkpt>
      <trkpt lat="34.10223" lon="77.12031">
        <ele>3775</ele>
        <time>2015-08-30T08:19:28Z</time>
      </trkpt>
      <trkpt lat="34.10223" lon="77.12036">
        <ele>3775.2</ele>
        <time>2015-08-30T08:19:31Z</time>
      </trkpt>
      <trkpt lat="34.10222" lon="77.12036">
        <ele>3775.4</ele>
        <time>2015-08-30T08:19:33Z</time>
      </trkpt>
      <trkpt lat="34.10224" lon="77.12035">
        <ele>3775.4</ele>
        <time>2015-08-30T08:19:36Z</time>
      </trkpt>
      <trkpt lat="34.10223" lon="77.1203">
        <ele>3775.2</ele>
        <time>2015-08-30T08:19:41Z</time>
      </trkpt>
      <trkpt lat="34.10227" lon="77.12039">
        <ele>3774.8</ele>
        <time>2015-08-30T08:20:18Z</time>
      </trkpt>
      <trkpt lat="34.10226" lon="77.12039">
        <ele>3774.6</ele>
        <time>2015-08-30T08:20:23Z</time>
      </trkpt>
      <trkpt lat="34.10224" lon="77.12037">
        <ele>3775</ele>
        <time>2015-08-30T08:21:05Z</time>
      </trkpt>
      <trkpt lat="34.10223" lon="77.12034">
        <ele>3775</ele>
        <time>2015-08-30T08:21:16Z</time>
      </trkpt>
      <trkpt lat="34.10226" lon="77.12036">
        <ele>3775</ele>
        <time>2015-08-30T08:21:21Z</time>
      </trkpt>
      <trkpt lat="34.10227" lon="77.12037">
        <ele>3818.2</ele>
        <time>2015-08-30T08:21:26Z</time>
      </trkpt>
      <trkpt lat="34.10227" lon="77.12037">
        <ele>3775</ele>
        <time>2015-08-30T08:21:30Z</time>
      </trkpt>
      <trkpt lat="34.10226" lon="77.12036">
        <ele>3774.8</ele>
        <time>2015-08-30T08:21:44Z</time>
      </trkpt>
      <trkpt lat="34.10227" lon="77.12036">
        <ele>3818</ele>
        <time>2015-08-30T08:21:48Z</time>
      </trkpt>
      <trkpt lat="34.10226" lon="77.12036">
        <ele>3774.8</ele>
        <time>2015-08-30T08:21:49Z</time>
      </trkpt>
      <trkpt lat="34.10229" lon="77.12036">
        <ele>3774.8</ele>
        <time>2015-08-30T08:22:12Z</time>
      </trkpt>
      <trkpt lat="34.1023" lon="77.12032">
        <ele>3774.8</ele>
        <time>2015-08-30T08:22:35Z</time>
      </trkpt>
      <trkpt lat="34.10226" lon="77.12034">
        <ele>3774.8</ele>
        <time>2015-08-30T08:22:44Z</time>
      </trkpt>
      <trkpt lat="34.10224" lon="77.12038">
        <ele>3774.6</ele>
        <time>2015-08-30T08:23:27Z</time>
      </trkpt>
      <trkpt lat="34.10222" lon="77.12039">
        <ele>3774.8</ele>
        <time>2015-08-30T08:23:38Z</time>
      </trkpt>
      <trkpt lat="34.10223" lon="77.12036">
        <ele>3774.8</ele>
        <time>2015-08-30T08:23:52Z</time>
      </trkpt>
      <trkpt lat="34.10224" lon="77.12035">
        <ele>3775</ele>
        <time>2015-08-30T08:23:54Z</time>
      </trkpt>
      <trkpt lat="34.10228" lon="77.12041">
        <ele>3775.2</ele>
        <time>2015-08-30T08:24:43Z</time>
      </trkpt>
      <trkpt lat="34.10227" lon="77.12043">
        <ele>3775.4</ele>
        <time>2015-08-30T08:25:00Z</time>
      </trkpt>
      <trkpt lat="34.10224" lon="77.12037">
        <ele>3775.6</ele>
        <time>2015-08-30T08:25:34Z</time>
      </trkpt>
      <trkpt lat="34.10224" lon="77.12037">
        <ele>3775.6</ele>
        <time>2015-08-30T08:25:36Z</time>
      </trkpt>
      <trkpt lat="34.10223" lon="77.12036">
        <ele>3775.6</ele>
        <time>2015-08-30T08:25:39Z</time>
      </trkpt>
      <trkpt lat="34.10229" lon="77.12042">
        <ele>3775.4</ele>
        <time>2015-08-30T08:26:34Z</time>
      </trkpt>
      <trkpt lat="34.10227" lon="77.12038">
        <ele>3775.4</ele>
        <time>2015-08-30T08:26:53Z</time>
      </trkpt>
      <trkpt lat="34.10227" lon="77.12047">
        <ele>3775.4</ele>
        <time>2015-08-30T08:27:12Z</time>
      </trkpt>
      <trkpt lat="34.10227" lon="77.12032">
        <ele>3774.8</ele>
        <time>2015-08-30T08:27:45Z</time>
      </trkpt>
      <trkpt lat="34.10222" lon="77.12034">
        <ele>3775</ele>
        <time>2015-08-30T08:28:07Z</time>
      </trkpt>
      <trkpt lat="34.10227" lon="77.12036">
        <ele>3774.6</ele>
        <time>2015-08-30T08:29:04Z</time>
      </trkpt>
      <trkpt lat="34.10224" lon="77.12039">
        <ele>3774.2</ele>
        <time>2015-08-30T08:29:16Z</time>
      </trkpt>
      <trkpt lat="34.10224" lon="77.12032">
        <ele>3774.2</ele>
        <time>2015-08-30T08:29:34Z</time>
      </trkpt>
      <trkpt lat="34.10232" lon="77.12035">
        <ele>3775.4</ele>
        <time>2015-08-30T08:29:45Z</time>
      </trkpt>
      <trkpt lat="34.10232" lon="77.12039">
        <ele>3775</ele>
        <time>2015-08-30T08:29:51Z</time>
      </trkpt>
      <trkpt lat="34.10226" lon="77.12034">
        <ele>3774.8</ele>
        <time>2015-08-30T08:30:02Z</time>
      </trkpt>
      <trkpt lat="34.10225" lon="77.12032">
        <ele>3774.8</ele>
        <time>2015-08-30T08:30:04Z</time>
      </trkpt>
      <trkpt lat="34.10219" lon="77.12029">
        <ele>3774.6</ele>
        <time>2015-08-30T08:30:10Z</time>
      </trkpt>
      <trkpt lat="34.10217" lon="77.12027">
        <ele>3774.8</ele>
        <time>2015-08-30T08:30:12Z</time>
      </trkpt>
      <trkpt lat="34.10217" lon="77.12028">
        <ele>3774.8</ele>
        <time>2015-08-30T08:30:14Z</time>
      </trkpt>
      <trkpt lat="34.10215" lon="77.12032">
        <ele>3774.8</ele>
        <time>2015-08-30T08:30:19Z</time>
      </trkpt>
      <trkpt lat="34.1023" lon="77.12052">
        <ele>3773.8</ele>
        <time>2015-08-30T08:30:44Z</time>
      </trkpt>
      <trkpt lat="34.1023" lon="77.12052">
        <ele>3773.8</ele>
        <time>2015-08-30T08:30:46Z</time>
      </trkpt>
      <trkpt lat="34.10233" lon="77.12045">
        <ele>3774.8</ele>
        <time>2015-08-30T08:30:52Z</time>
      </trkpt>
      <trkpt lat="34.10236" lon="77.12037">
        <ele>3774.2</ele>
        <time>2015-08-30T08:31:00Z</time>
      </trkpt>
      <trkpt lat="34.10239" lon="77.12036">
        <ele>3774.4</ele>
        <time>2015-08-30T08:31:03Z</time>
      </trkpt>
      <trkpt lat="34.10245" lon="77.12032">
        <ele>3775</ele>
        <time>2015-08-30T08:31:12Z</time>
      </trkpt>
      <trkpt lat="34.1024" lon="77.12025">
        <ele>3774.2</ele>
        <time>2015-08-30T08:31:43Z</time>
      </trkpt>
      <trkpt lat="34.10239" lon="77.12024">
        <ele>3774</ele>
        <time>2015-08-30T08:31:55Z</time>
      </trkpt>
      <trkpt lat="34.10228" lon="77.12028">
        <ele>3774.4</ele>
        <time>2015-08-30T08:32:54Z</time>
      </trkpt>
      <trkpt lat="34.10229" lon="77.12026">
        <ele>3775.4</ele>
        <time>2015-08-30T08:33:03Z</time>
      </trkpt>
      <trkpt lat="34.10227" lon="77.1203">
        <ele>3775.4</ele>
        <time>2015-08-30T08:33:05Z</time>
      </trkpt>
      <trkpt lat="34.10231" lon="77.12034">
        <ele>3774.6</ele>
        <time>2015-08-30T08:33:46Z</time>
      </trkpt>
      <trkpt lat="34.10224" lon="77.12034">
        <ele>3774.4</ele>
        <time>2015-08-30T08:34:18Z</time>
      </trkpt>
      <trkpt lat="34.1023" lon="77.12035">
        <ele>3774.4</ele>
        <time>2015-08-30T08:34:29Z</time>
      </trkpt>
      <trkpt lat="34.10226" lon="77.12041">
        <ele>3773.8</ele>
        <time>2015-08-30T08:34:43Z</time>
      </trkpt>
      <trkpt lat="34.10231" lon="77.12028">
        <ele>3774.4</ele>
        <time>2015-08-30T08:35:00Z</time>
      </trkpt>
      <trkpt lat="34.10233" lon="77.12041">
        <ele>3774</ele>
        <time>2015-08-30T08:35:14Z</time>
      </trkpt>
      <trkpt lat="34.10223" lon="77.12025">
        <ele>3773.8</ele>
        <time>2015-08-30T08:35:57Z</time>
      </trkpt>
      <trkpt lat="34.10223" lon="77.12031">
        <ele>3773.2</ele>
        <time>2015-08-30T08:36:18Z</time>
      </trkpt>
      <trkpt lat="34.10221" lon="77.12036">
        <ele>3773.2</ele>
        <time>2015-08-30T08:36:19Z</time>
      </trkpt>
      <trkpt lat="34.10222" lon="77.12037">
        <ele>3773.2</ele>
        <time>2015-08-30T08:36:22Z</time>
      </trkpt>
      <trkpt lat="34.10223" lon="77.12035">
        <ele>3773.6</ele>
        <time>2015-08-30T08:36:34Z</time>
      </trkpt>
      <trkpt lat="34.10234" lon="77.1204">
        <ele>3773.8</ele>
        <time>2015-08-30T08:37:03Z</time>
      </trkpt>
      <trkpt lat="34.10235" lon="77.12036">
        <ele>3774</ele>
        <time>2015-08-30T08:37:07Z</time>
      </trkpt>
      <trkpt lat="34.10231" lon="77.12037">
        <ele>3774.2</ele>
        <time>2015-08-30T08:37:39Z</time>
      </trkpt>
      <trkpt lat="34.10229" lon="77.1203">
        <ele>3774</ele>
        <time>2015-08-30T08:37:44Z</time>
      </trkpt>
      <trkpt lat="34.10224" lon="77.12035">
        <ele>3774</ele>
        <time>2015-08-30T08:37:46Z</time>
      </trkpt>
      <trkpt lat="34.10223" lon="77.12038">
        <ele>3773.8</ele>
        <time>2015-08-30T08:37:49Z</time>
      </trkpt>
      <trkpt lat="34.10221" lon="77.12033">
        <ele>3774.2</ele>
        <time>2015-08-30T08:37:55Z</time>
      </trkpt>
      <trkpt lat="34.10213" lon="77.12037">
        <ele>3773.4</ele>
        <time>2015-08-30T08:38:24Z</time>
      </trkpt>
      <trkpt lat="34.10216" lon="77.12033">
        <ele>3773.6</ele>
        <time>2015-08-30T08:38:28Z</time>
      </trkpt>
      <trkpt lat="34.10224" lon="77.12032">
        <ele>3773.6</ele>
        <time>2015-08-30T08:38:38Z</time>
      </trkpt>
      <trkpt lat="34.10227" lon="77.12035">
        <ele>3773.6</ele>
        <time>2015-08-30T08:38:41Z</time>
      </trkpt>
      <trkpt lat="34.10227" lon="77.1203">
        <ele>3773.6</ele>
        <time>2015-08-30T08:38:48Z</time>
      </trkpt>
      <trkpt lat="34.10226" lon="77.12035">
        <ele>3773.6</ele>
        <time>2015-08-30T08:38:56Z</time>
      </trkpt>
      <trkpt lat="34.1023" lon="77.12035">
        <ele>3773.4</ele>
        <time>2015-08-30T08:39:16Z</time>
      </trkpt>
      <trkpt lat="34.10219" lon="77.12041">
        <ele>3773.4</ele>
        <time>2015-08-30T08:39:36Z</time>
      </trkpt>
      <trkpt lat="34.10226" lon="77.12035">
        <ele>3773.6</ele>
        <time>2015-08-30T08:40:24Z</time>
      </trkpt>
      <trkpt lat="34.10215" lon="77.12042">
        <ele>3773.4</ele>
        <time>2015-08-30T08:40:39Z</time>
      </trkpt>
      <trkpt lat="34.10213" lon="77.12045">
        <ele>3773.4</ele>
        <time>2015-08-30T08:40:46Z</time>
      </trkpt>
      <trkpt lat="34.10215" lon="77.12034">
        <ele>3773</ele>
        <time>2015-08-30T08:41:04Z</time>
      </trkpt>
      <trkpt lat="34.10216" lon="77.12034">
        <ele>3773</ele>
        <time>2015-08-30T08:41:06Z</time>
      </trkpt>
      <trkpt lat="34.10217" lon="77.12029">
        <ele>3772.8</ele>
        <time>2015-08-30T08:41:16Z</time>
      </trkpt>
      <trkpt lat="34.10217" lon="77.12029">
        <ele>3772.6</ele>
        <time>2015-08-30T08:41:17Z</time>
      </trkpt>
      <trkpt lat="34.10218" lon="77.12028">
        <ele>3772.6</ele>
        <time>2015-08-30T08:41:18Z</time>
      </trkpt>
      <trkpt lat="34.10207" lon="77.12025">
        <ele>3772</ele>
        <time>2015-08-30T08:41:42Z</time>
      </trkpt>
      <trkpt lat="34.10217" lon="77.1204">
        <ele>3772</ele>
        <time>2015-08-30T08:42:15Z</time>
      </trkpt>
      <trkpt lat="34.10223" lon="77.1203">
        <ele>3772</ele>
        <time>2015-08-30T08:42:42Z</time>
      </trkpt>
      <trkpt lat="34.10201" lon="77.12019">
        <ele>3772</ele>
        <time>2015-08-30T08:44:50Z</time>
      </trkpt>
      <trkpt lat="34.10192" lon="77.12021">
        <ele>3772</ele>
        <time>2015-08-30T08:44:56Z</time>
      </trkpt>
      <trkpt lat="34.10208" lon="77.1203">
        <ele>3772</ele>
        <time>2015-08-30T08:45:20Z</time>
      </trkpt>
      <trkpt lat="34.10215" lon="77.12036">
        <ele>3772.2</ele>
        <time>2015-08-30T08:45:24Z</time>
      </trkpt>
      <trkpt lat="34.10222" lon="77.12035">
        <ele>3772.2</ele>
        <time>2015-08-30T08:45:27Z</time>
      </trkpt>
      <trkpt lat="34.10223" lon="77.12033">
        <ele>3772</ele>
        <time>2015-08-30T08:45:29Z</time>
      </trkpt>
      <trkpt lat="34.10222" lon="77.12039">
        <ele>3771.6</ele>
        <time>2015-08-30T08:45:33Z</time>
      </trkpt>
      <trkpt lat="34.10226" lon="77.1203">
        <ele>3771</ele>
        <time>2015-08-30T08:45:46Z</time>
      </trkpt>
      <trkpt lat="34.10227" lon="77.12027">
        <ele>3771.2</ele>
        <time>2015-08-30T08:45:49Z</time>
      </trkpt>
      <trkpt lat="34.10233" lon="77.12029">
        <ele>3772</ele>
        <time>2015-08-30T08:45:55Z</time>
      </trkpt>
      <trkpt lat="34.10227" lon="77.12032">
        <ele>3771.8</ele>
        <time>2015-08-30T08:45:57Z</time>
      </trkpt>
      <trkpt lat="34.1023" lon="77.12037">
        <ele>3771.6</ele>
        <time>2015-08-30T08:46:09Z</time>
      </trkpt>
      <trkpt lat="34.10231" lon="77.12035">
        <ele>3771.6</ele>
        <time>2015-08-30T08:46:12Z</time>
      </trkpt>
      <trkpt lat="34.10223" lon="77.12023">
        <ele>3771.8</ele>
        <time>2015-08-30T08:46:27Z</time>
      </trkpt>
      <trkpt lat="34.10219" lon="77.12019">
        <ele>3771.6</ele>
        <time>2015-08-30T08:46:31Z</time>
      </trkpt>
      <trkpt lat="34.10221" lon="77.1202">
        <ele>3771.4</ele>
        <time>2015-08-30T08:46:38Z</time>
      </trkpt>
      <trkpt lat="34.1022" lon="77.1202">
        <ele>3771.4</ele>
        <time>2015-08-30T08:46:40Z</time>
      </trkpt>
      <trkpt lat="34.10214" lon="77.12015">
        <ele>3772.6</ele>
        <time>2015-08-30T08:47:05Z</time>
      </trkpt>
      <trkpt lat="34.10214" lon="77.12017">
        <ele>3772.8</ele>
        <time>2015-08-30T08:47:06Z</time>
      </trkpt>
      <trkpt lat="34.10214" lon="77.12017">
        <ele>3773</ele>
        <time>2015-08-30T08:47:08Z</time>
      </trkpt>
      <trkpt lat="34.10219" lon="77.12033">
        <ele>3772.6</ele>
        <time>2015-08-30T08:47:21Z</time>
      </trkpt>
      <trkpt lat="34.10221" lon="77.12035">
        <ele>3772.4</ele>
        <time>2015-08-30T08:47:23Z</time>
      </trkpt>
      <trkpt lat="34.10221" lon="77.1204">
        <ele>3772.8</ele>
        <time>2015-08-30T08:47:28Z</time>
      </trkpt>
      <trkpt lat="34.10221" lon="77.12045">
        <ele>3772.4</ele>
        <time>2015-08-30T08:47:33Z</time>
      </trkpt>
      <trkpt lat="34.10226" lon="77.1205">
        <ele>3771.6</ele>
        <time>2015-08-30T08:47:38Z</time>
      </trkpt>
      <trkpt lat="34.10227" lon="77.12051">
        <ele>3771.6</ele>
        <time>2015-08-30T08:47:39Z</time>
      </trkpt>
      <trkpt lat="34.10229" lon="77.12053">
        <ele>3771.4</ele>
        <time>2015-08-30T08:47:41Z</time>
      </trkpt>
      <trkpt lat="34.10222" lon="77.12059">
        <ele>3770.8</ele>
        <time>2015-08-30T08:47:50Z</time>
      </trkpt>
      <trkpt lat="34.10218" lon="77.12065">
        <ele>3771</ele>
        <time>2015-08-30T08:47:55Z</time>
      </trkpt>
      <trkpt lat="34.10221" lon="77.12074">
        <ele>3770.6</ele>
        <time>2015-08-30T08:48:20Z</time>
      </trkpt>
      <trkpt lat="34.10212" lon="77.1209">
        <ele>3770.8</ele>
        <time>2015-08-30T08:49:02Z</time>
      </trkpt>
      <trkpt lat="34.10207" lon="77.12095">
        <ele>3771.4</ele>
        <time>2015-08-30T08:49:09Z</time>
      </trkpt>
      <trkpt lat="34.10197" lon="77.12093">
        <ele>3771.6</ele>
        <time>2015-08-30T08:49:26Z</time>
      </trkpt>
      <trkpt lat="34.10202" lon="77.12099">
        <ele>3772.6</ele>
        <time>2015-08-30T08:49:40Z</time>
      </trkpt>
      <trkpt lat="34.10203" lon="77.12096">
        <ele>3772.8</ele>
        <time>2015-08-30T08:49:44Z</time>
      </trkpt>
      <trkpt lat="34.10204" lon="77.12093">
        <ele>3773.6</ele>
        <time>2015-08-30T08:49:50Z</time>
      </trkpt>
      <trkpt lat="34.10203" lon="77.12095">
        <ele>3774.6</ele>
        <time>2015-08-30T08:49:58Z</time>
      </trkpt>
      <trkpt lat="34.102" lon="77.12106">
        <ele>3775.8</ele>
        <time>2015-08-30T08:50:07Z</time>
      </trkpt>
      <trkpt lat="34.102" lon="77.12107">
        <ele>3775.8</ele>
        <time>2015-08-30T08:50:08Z</time>
      </trkpt>
      <trkpt lat="34.10199" lon="77.12109">
        <ele>3776</ele>
        <time>2015-08-30T08:50:10Z</time>
      </trkpt>
      <trkpt lat="34.10199" lon="77.12117">
        <ele>3776.8</ele>
        <time>2015-08-30T08:50:22Z</time>
      </trkpt>
      <trkpt lat="34.10206" lon="77.12119">
        <ele>3778</ele>
        <time>2015-08-30T08:50:36Z</time>
      </trkpt>
      <trkpt lat="34.10208" lon="77.12119">
        <ele>3778.4</ele>
        <time>2015-08-30T08:50:41Z</time>
      </trkpt>
      <trkpt lat="34.10211" lon="77.12118">
        <ele>3779</ele>
        <time>2015-08-30T08:50:45Z</time>
      </trkpt>
      <trkpt lat="34.10213" lon="77.12119">
        <ele>3779.2</ele>
        <time>2015-08-30T08:50:47Z</time>
      </trkpt>
      <trkpt lat="34.10213" lon="77.12121">
        <ele>3779.2</ele>
        <time>2015-08-30T08:50:49Z</time>
      </trkpt>
      <trkpt lat="34.10214" lon="77.12124">
        <ele>3779.8</ele>
        <time>2015-08-30T08:51:06Z</time>
      </trkpt>
      <trkpt lat="34.10216" lon="77.1212">
        <ele>3780</ele>
        <time>2015-08-30T08:51:10Z</time>
      </trkpt>
      <trkpt lat="34.1022" lon="77.12115">
        <ele>3781</ele>
        <time>2015-08-30T08:51:23Z</time>
      </trkpt>
      <trkpt lat="34.10221" lon="77.12112">
        <ele>3782.2</ele>
        <time>2015-08-30T08:51:36Z</time>
      </trkpt>
      <trkpt lat="34.1022" lon="77.12117">
        <ele>3783.2</ele>
        <time>2015-08-30T08:51:47Z</time>
      </trkpt>
      <trkpt lat="34.10216" lon="77.12122">
        <ele>3784.2</ele>
        <time>2015-08-30T08:51:55Z</time>
      </trkpt>
      <trkpt lat="34.10213" lon="77.1212">
        <ele>3785.4</ele>
        <time>2015-08-30T08:52:08Z</time>
      </trkpt>
      <trkpt lat="34.1021" lon="77.12118">
        <ele>3786.4</ele>
        <time>2015-08-30T08:52:16Z</time>
      </trkpt>
      <trkpt lat="34.10208" lon="77.12116">
        <ele>3787.4</ele>
        <time>2015-08-30T08:52:24Z</time>
      </trkpt>
      <trkpt lat="34.10204" lon="77.12119">
        <ele>3788.4</ele>
        <time>2015-08-30T08:52:34Z</time>
      </trkpt>
      <trkpt lat="34.10203" lon="77.1212">
        <ele>3789.4</ele>
        <time>2015-08-30T08:52:53Z</time>
      </trkpt>
      <trkpt lat="34.10202" lon="77.12121">
        <ele>3790.6</ele>
        <time>2015-08-30T08:53:04Z</time>
      </trkpt>
      <trkpt lat="34.10198" lon="77.12126">
        <ele>3791.6</ele>
        <time>2015-08-30T08:53:13Z</time>
      </trkpt>
      <trkpt lat="34.10197" lon="77.12129">
        <ele>3792.6</ele>
        <time>2015-08-30T08:53:22Z</time>
      </trkpt>
      <trkpt lat="34.10197" lon="77.12131">
        <ele>3793.6</ele>
        <time>2015-08-30T08:53:32Z</time>
      </trkpt>
      <trkpt lat="34.10194" lon="77.12131">
        <ele>3794.6</ele>
        <time>2015-08-30T08:53:41Z</time>
      </trkpt>
      <trkpt lat="34.1019" lon="77.12134">
        <ele>3795.8</ele>
        <time>2015-08-30T08:53:51Z</time>
      </trkpt>
      <trkpt lat="34.10186" lon="77.12136">
        <ele>3796.4</ele>
        <time>2015-08-30T08:53:56Z</time>
      </trkpt>
      <trkpt lat="34.10185" lon="77.12135">
        <ele>3796.6</ele>
        <time>2015-08-30T08:53:58Z</time>
      </trkpt>
      <trkpt lat="34.10184" lon="77.12136">
        <ele>3796.8</ele>
        <time>2015-08-30T08:54:00Z</time>
      </trkpt>
      <trkpt lat="34.10181" lon="77.12135">
        <ele>3797.6</ele>
        <time>2015-08-30T08:54:08Z</time>
      </trkpt>
      <trkpt lat="34.10182" lon="77.12137">
        <ele>3797.8</ele>
        <time>2015-08-30T08:54:11Z</time>
      </trkpt>
      <trkpt lat="34.10178" lon="77.12144">
        <ele>3799</ele>
        <time>2015-08-30T08:54:28Z</time>
      </trkpt>
      <trkpt lat="34.10178" lon="77.12149">
        <ele>3799.4</ele>
        <time>2015-08-30T08:54:53Z</time>
      </trkpt>
      <trkpt lat="34.10172" lon="77.12151">
        <ele>3800</ele>
        <time>2015-08-30T08:54:58Z</time>
      </trkpt>
      <trkpt lat="34.10172" lon="77.12154">
        <ele>3800.2</ele>
        <time>2015-08-30T08:55:00Z</time>
      </trkpt>
      <trkpt lat="34.10172" lon="77.12159">
        <ele>3801</ele>
        <time>2015-08-30T08:55:09Z</time>
      </trkpt>
      <trkpt lat="34.1018" lon="77.12167">
        <ele>3802</ele>
        <time>2015-08-30T08:55:23Z</time>
      </trkpt>
      <trkpt lat="34.10181" lon="77.12167">
        <ele>3803</ele>
        <time>2015-08-30T08:55:43Z</time>
      </trkpt>
      <trkpt lat="34.10193" lon="77.12162">
        <ele>3804.2</ele>
        <time>2015-08-30T08:56:00Z</time>
      </trkpt>
      <trkpt lat="34.10197" lon="77.12166">
        <ele>3805.2</ele>
        <time>2015-08-30T08:56:16Z</time>
      </trkpt>
      <trkpt lat="34.10199" lon="77.12167">
        <ele>3806.2</ele>
        <time>2015-08-30T08:56:29Z</time>
      </trkpt>
      <trkpt lat="34.10201" lon="77.12171">
        <ele>3807.2</ele>
        <time>2015-08-30T08:56:45Z</time>
      </trkpt>
      <trkpt lat="34.10222" lon="77.12164">
        <ele>3808</ele>
        <time>2015-08-30T08:57:00Z</time>
      </trkpt>
      <trkpt lat="34.10223" lon="77.12165">
        <ele>3808.4</ele>
        <time>2015-08-30T08:57:02Z</time>
      </trkpt>
      <trkpt lat="34.10223" lon="77.12166">
        <ele>3809.4</ele>
        <time>2015-08-30T08:57:09Z</time>
      </trkpt>
      <trkpt lat="34.10223" lon="77.12166">
        <ele>3809.4</ele>
        <time>2015-08-30T08:57:10Z</time>
      </trkpt>
      <trkpt lat="34.10223" lon="77.1217">
        <ele>3810.4</ele>
        <time>2015-08-30T08:57:19Z</time>
      </trkpt>
      <trkpt lat="34.10214" lon="77.12181">
        <ele>3811.4</ele>
        <time>2015-08-30T08:57:34Z</time>
      </trkpt>
      <trkpt lat="34.1022" lon="77.12182">
        <ele>3812.6</ele>
        <time>2015-08-30T08:57:51Z</time>
      </trkpt>
      <trkpt lat="34.10222" lon="77.12182">
        <ele>3813.6</ele>
        <time>2015-08-30T08:57:58Z</time>
      </trkpt>
      <trkpt lat="34.10225" lon="77.12181">
        <ele>3814.6</ele>
        <time>2015-08-30T08:58:08Z</time>
      </trkpt>
      <trkpt lat="34.1022" lon="77.12176">
        <ele>3815.6</ele>
        <time>2015-08-30T08:58:17Z</time>
      </trkpt>
      <trkpt lat="34.10219" lon="77.12176">
        <ele>3815.6</ele>
        <time>2015-08-30T08:58:18Z</time>
      </trkpt>
      <trkpt lat="34.1021" lon="77.12181">
        <ele>3816.6</ele>
        <time>2015-08-30T08:58:30Z</time>
      </trkpt>
      <trkpt lat="34.10211" lon="77.1219">
        <ele>3817.6</ele>
        <time>2015-08-30T08:58:42Z</time>
      </trkpt>
      <trkpt lat="34.10215" lon="77.12191">
        <ele>3818</ele>
        <time>2015-08-30T08:58:49Z</time>
      </trkpt>
      <trkpt lat="34.10219" lon="77.12197">
        <ele>3818.6</ele>
        <time>2015-08-30T08:58:56Z</time>
      </trkpt>
      <trkpt lat="34.10229" lon="77.12203">
        <ele>3819.6</ele>
        <time>2015-08-30T08:59:08Z</time>
      </trkpt>
      <trkpt lat="34.10231" lon="77.12203">
        <ele>3819.8</ele>
        <time>2015-08-30T08:59:10Z</time>
      </trkpt>
      <trkpt lat="34.10228" lon="77.12205">
        <ele>3819.8</ele>
        <time>2015-08-30T08:59:12Z</time>
      </trkpt>
      <trkpt lat="34.10229" lon="77.12204">
        <ele>3820</ele>
        <time>2015-08-30T08:59:15Z</time>
      </trkpt>
      <trkpt lat="34.10224" lon="77.12205">
        <ele>3820.2</ele>
        <time>2015-08-30T08:59:19Z</time>
      </trkpt>
      <trkpt lat="34.10223" lon="77.12204">
        <ele>3820.4</ele>
        <time>2015-08-30T08:59:21Z</time>
      </trkpt>
      <trkpt lat="34.10222" lon="77.12203">
        <ele>3820.8</ele>
        <time>2015-08-30T08:59:25Z</time>
      </trkpt>
      <trkpt lat="34.10222" lon="77.12203">
        <ele>3822</ele>
        <time>2015-08-30T08:59:36Z</time>
      </trkpt>
      <trkpt lat="34.10218" lon="77.12206">
        <ele>3823</ele>
        <time>2015-08-30T08:59:48Z</time>
      </trkpt>
      <trkpt lat="34.10218" lon="77.12211">
        <ele>3824</ele>
        <time>2015-08-30T09:00:00Z</time>
      </trkpt>
      <trkpt lat="34.10214" lon="77.12216">
        <ele>3825</ele>
        <time>2015-08-30T09:00:11Z</time>
      </trkpt>
      <trkpt lat="34.10212" lon="77.12216">
        <ele>3826</ele>
        <time>2015-08-30T09:00:23Z</time>
      </trkpt>
      <trkpt lat="34.10204" lon="77.12222">
        <ele>3827.2</ele>
        <time>2015-08-30T09:00:33Z</time>
      </trkpt>
      <trkpt lat="34.10202" lon="77.12221">
        <ele>3828.2</ele>
        <time>2015-08-30T09:00:42Z</time>
      </trkpt>
      <trkpt lat="34.102" lon="77.12219">
        <ele>3829.4</ele>
        <time>2015-08-30T09:00:48Z</time>
      </trkpt>
      <trkpt lat="34.10196" lon="77.12224">
        <ele>3830.2</ele>
        <time>2015-08-30T09:00:58Z</time>
      </trkpt>
      <trkpt lat="34.10194" lon="77.12229">
        <ele>3830.4</ele>
        <time>2015-08-30T09:01:03Z</time>
      </trkpt>
      <trkpt lat="34.10194" lon="77.12229">
        <ele>3830.4</ele>
        <time>2015-08-30T09:01:04Z</time>
      </trkpt>
      <trkpt lat="34.10197" lon="77.12232">
        <ele>3831.4</ele>
        <time>2015-08-30T09:01:16Z</time>
      </trkpt>
      <trkpt lat="34.10191" lon="77.12241">
        <ele>3832.6</ele>
        <time>2015-08-30T09:01:33Z</time>
      </trkpt>
      <trkpt lat="34.10188" lon="77.12242">
        <ele>3833.6</ele>
        <time>2015-08-30T09:01:44Z</time>
      </trkpt>
      <trkpt lat="34.10184" lon="77.12247">
        <ele>3834.8</ele>
        <time>2015-08-30T09:01:56Z</time>
      </trkpt>
      <trkpt lat="34.10196" lon="77.12255">
        <ele>3835.8</ele>
        <time>2015-08-30T09:02:24Z</time>
      </trkpt>
      <trkpt lat="34.102" lon="77.12258">
        <ele>3837</ele>
        <time>2015-08-30T09:02:39Z</time>
      </trkpt>
      <trkpt lat="34.10206" lon="77.12255">
        <ele>3837.2</ele>
        <time>2015-08-30T09:02:49Z</time>
      </trkpt>
      <trkpt lat="34.10205" lon="77.12253">
        <ele>3838.2</ele>
        <time>2015-08-30T09:02:58Z</time>
      </trkpt>
      <trkpt lat="34.10203" lon="77.12258">
        <ele>3839.2</ele>
        <time>2015-08-30T09:03:08Z</time>
      </trkpt>
      <trkpt lat="34.10202" lon="77.12267">
        <ele>3840.2</ele>
        <time>2015-08-30T09:03:22Z</time>
      </trkpt>
      <trkpt lat="34.10197" lon="77.12271">
        <ele>3841.2</ele>
        <time>2015-08-30T09:03:32Z</time>
      </trkpt>
      <trkpt lat="34.10196" lon="77.12273">
        <ele>3842.2</ele>
        <time>2015-08-30T09:03:46Z</time>
      </trkpt>
      <trkpt lat="34.1019" lon="77.12272">
        <ele>3842.8</ele>
        <time>2015-08-30T09:03:51Z</time>
      </trkpt>
      <trkpt lat="34.1019" lon="77.12274">
        <ele>3843</ele>
        <time>2015-08-30T09:03:53Z</time>
      </trkpt>
      <trkpt lat="34.1019" lon="77.12276">
        <ele>3843.4</ele>
        <time>2015-08-30T09:03:56Z</time>
      </trkpt>
      <trkpt lat="34.10188" lon="77.12281">
        <ele>3844.4</ele>
        <time>2015-08-30T09:04:08Z</time>
      </trkpt>
      <trkpt lat="34.10191" lon="77.12287">
        <ele>3845.4</ele>
        <time>2015-08-30T09:04:26Z</time>
      </trkpt>
      <trkpt lat="34.10194" lon="77.12293">
        <ele>3846.4</ele>
        <time>2015-08-30T09:04:37Z</time>
      </trkpt>
      <trkpt lat="34.10195" lon="77.12296">
        <ele>3846.4</ele>
        <time>2015-08-30T09:04:40Z</time>
      </trkpt>
      <trkpt lat="34.10202" lon="77.12304">
        <ele>3847.6</ele>
        <time>2015-08-30T09:04:58Z</time>
      </trkpt>
      <trkpt lat="34.10205" lon="77.12308">
        <ele>3848.6</ele>
        <time>2015-08-30T09:05:13Z</time>
      </trkpt>
      <trkpt lat="34.10205" lon="77.12303">
        <ele>3848.8</ele>
        <time>2015-08-30T09:05:19Z</time>
      </trkpt>
      <trkpt lat="34.10209" lon="77.12305">
        <ele>3849</ele>
        <time>2015-08-30T09:05:22Z</time>
      </trkpt>
      <trkpt lat="34.10209" lon="77.12301">
        <ele>3849.2</ele>
        <time>2015-08-30T09:05:26Z</time>
      </trkpt>
      <trkpt lat="34.10209" lon="77.12301">
        <ele>3849.6</ele>
        <time>2015-08-30T09:05:29Z</time>
      </trkpt>
      <trkpt lat="34.10215" lon="77.12304">
        <ele>3850.6</ele>
        <time>2015-08-30T09:05:43Z</time>
      </trkpt>
      <trkpt lat="34.10219" lon="77.123">
        <ele>3851.8</ele>
        <time>2015-08-30T09:05:57Z</time>
      </trkpt>
      <trkpt lat="34.10225" lon="77.12293">
        <ele>3852.8</ele>
        <time>2015-08-30T09:06:10Z</time>
      </trkpt>
      <trkpt lat="34.10232" lon="77.12295">
        <ele>3853.8</ele>
        <time>2015-08-30T09:06:24Z</time>
      </trkpt>
      <trkpt lat="34.10241" lon="77.12302">
        <ele>3855</ele>
        <time>2015-08-30T09:06:50Z</time>
      </trkpt>
      <trkpt lat="34.10248" lon="77.12305">
        <ele>3856</ele>
        <time>2015-08-30T09:07:03Z</time>
      </trkpt>
      <trkpt lat="34.10251" lon="77.12313">
        <ele>3857.2</ele>
        <time>2015-08-30T09:07:17Z</time>
      </trkpt>
      <trkpt lat="34.10253" lon="77.12314">
        <ele>3858</ele>
        <time>2015-08-30T09:07:23Z</time>
      </trkpt>
      <trkpt lat="34.10252" lon="77.12315">
        <ele>3858.2</ele>
        <time>2015-08-30T09:07:24Z</time>
      </trkpt>
      <trkpt lat="34.10245" lon="77.12325">
        <ele>3859</ele>
        <time>2015-08-30T09:07:36Z</time>
      </trkpt>
      <trkpt lat="34.10243" lon="77.12325">
        <ele>3859.2</ele>
        <time>2015-08-30T09:07:38Z</time>
      </trkpt>
      <trkpt lat="34.10242" lon="77.12326">
        <ele>3859.4</ele>
        <time>2015-08-30T09:07:39Z</time>
      </trkpt>
      <trkpt lat="34.1024" lon="77.12326">
        <ele>3859.6</ele>
        <time>2015-08-30T09:07:41Z</time>
      </trkpt>
      <trkpt lat="34.10241" lon="77.12325">
        <ele>3860.6</ele>
        <time>2015-08-30T09:07:49Z</time>
      </trkpt>
      <trkpt lat="34.10247" lon="77.12326">
        <ele>3861.4</ele>
        <time>2015-08-30T09:07:59Z</time>
      </trkpt>
      <trkpt lat="34.10252" lon="77.12326">
        <ele>3861.6</ele>
        <time>2015-08-30T09:08:02Z</time>
      </trkpt>
      <trkpt lat="34.1025" lon="77.12324">
        <ele>3862.6</ele>
        <time>2015-08-30T09:08:11Z</time>
      </trkpt>
      <trkpt lat="34.10252" lon="77.12325">
        <ele>3863.2</ele>
        <time>2015-08-30T09:08:16Z</time>
      </trkpt>
      <trkpt lat="34.10253" lon="77.1232">
        <ele>3863.6</ele>
        <time>2015-08-30T09:08:24Z</time>
      </trkpt>
      <trkpt lat="34.10256" lon="77.12312">
        <ele>3864.8</ele>
        <time>2015-08-30T09:08:38Z</time>
      </trkpt>
      <trkpt lat="34.10256" lon="77.12313">
        <ele>3865.8</ele>
        <time>2015-08-30T09:08:43Z</time>
      </trkpt>
      <trkpt lat="34.10256" lon="77.12315">
        <ele>3866.8</ele>
        <time>2015-08-30T09:08:50Z</time>
      </trkpt>
      <trkpt lat="34.10253" lon="77.12313">
        <ele>3868</ele>
        <time>2015-08-30T09:08:57Z</time>
      </trkpt>
      <trkpt lat="34.10249" lon="77.12325">
        <ele>3869</ele>
        <time>2015-08-30T09:09:07Z</time>
      </trkpt>
      <trkpt lat="34.10246" lon="77.12331">
        <ele>3869.6</ele>
        <time>2015-08-30T09:09:12Z</time>
      </trkpt>
      <trkpt lat="34.10244" lon="77.12331">
        <ele>3870.2</ele>
        <time>2015-08-30T09:09:15Z</time>
      </trkpt>
      <trkpt lat="34.1024" lon="77.12335">
        <ele>3871.2</ele>
        <time>2015-08-30T09:09:22Z</time>
      </trkpt>
      <trkpt lat="34.10236" lon="77.12345">
        <ele>3872.2</ele>
        <time>2015-08-30T09:09:31Z</time>
      </trkpt>
      <trkpt lat="34.10236" lon="77.12348">
        <ele>3873.4</ele>
        <time>2015-08-30T09:09:38Z</time>
      </trkpt>
      <trkpt lat="34.10235" lon="77.12348">
        <ele>3874.6</ele>
        <time>2015-08-30T09:09:49Z</time>
      </trkpt>
      <trkpt lat="34.10235" lon="77.12348">
        <ele>3874.8</ele>
        <time>2015-08-30T09:09:50Z</time>
      </trkpt>
      <trkpt lat="34.10233" lon="77.12354">
        <ele>3875.2</ele>
        <time>2015-08-30T09:09:54Z</time>
      </trkpt>
      <trkpt lat="34.10228" lon="77.12358">
        <ele>3875.4</ele>
        <time>2015-08-30T09:09:57Z</time>
      </trkpt>
      <trkpt lat="34.10226" lon="77.12361">
        <ele>3875.6</ele>
        <time>2015-08-30T09:09:59Z</time>
      </trkpt>
      <trkpt lat="34.10223" lon="77.12362">
        <ele>3876.2</ele>
        <time>2015-08-30T09:10:03Z</time>
      </trkpt>
      <trkpt lat="34.10223" lon="77.12362">
        <ele>3876.4</ele>
        <time>2015-08-30T09:10:07Z</time>
      </trkpt>
      <trkpt lat="34.10222" lon="77.12364">
        <ele>3876.6</ele>
        <time>2015-08-30T09:10:10Z</time>
      </trkpt>
      <trkpt lat="34.10218" lon="77.12376">
        <ele>3877</ele>
        <time>2015-08-30T09:10:17Z</time>
      </trkpt>
      <trkpt lat="34.10219" lon="77.12372">
        <ele>3877.2</ele>
        <time>2015-08-30T09:10:19Z</time>
      </trkpt>
      <trkpt lat="34.10224" lon="77.12362">
        <ele>3877.8</ele>
        <time>2015-08-30T09:10:23Z</time>
      </trkpt>
      <trkpt lat="34.10229" lon="77.12365">
        <ele>3878.8</ele>
        <time>2015-08-30T09:10:34Z</time>
      </trkpt>
      <trkpt lat="34.10231" lon="77.12384">
        <ele>3879.6</ele>
        <time>2015-08-30T09:10:44Z</time>
      </trkpt>
      <trkpt lat="34.10231" lon="77.12384">
        <ele>3880</ele>
        <time>2015-08-30T09:10:47Z</time>
      </trkpt>
      <trkpt lat="34.1023" lon="77.12382">
        <ele>3881</ele>
        <time>2015-08-30T09:10:56Z</time>
      </trkpt>
      <trkpt lat="34.10225" lon="77.12383">
        <ele>3881.6</ele>
        <time>2015-08-30T09:11:02Z</time>
      </trkpt>
      <trkpt lat="34.10223" lon="77.1238">
        <ele>3882</ele>
        <time>2015-08-30T09:11:06Z</time>
      </trkpt>
      <trkpt lat="34.10225" lon="77.12377">
        <ele>3882.2</ele>
        <time>2015-08-30T09:11:08Z</time>
      </trkpt>
      <trkpt lat="34.10225" lon="77.12376">
        <ele>3883.2</ele>
        <time>2015-08-30T09:11:15Z</time>
      </trkpt>
      <trkpt lat="34.10219" lon="77.12385">
        <ele>3884.2</ele>
        <time>2015-08-30T09:11:34Z</time>
      </trkpt>
      <trkpt lat="34.10218" lon="77.12387">
        <ele>3885.4</ele>
        <time>2015-08-30T09:11:44Z</time>
      </trkpt>
      <trkpt lat="34.10221" lon="77.12386">
        <ele>3886.4</ele>
        <time>2015-08-30T09:11:52Z</time>
      </trkpt>
      <trkpt lat="34.10226" lon="77.12389">
        <ele>3887.4</ele>
        <time>2015-08-30T09:12:04Z</time>
      </trkpt>
      <trkpt lat="34.10224" lon="77.12387">
        <ele>3888.6</ele>
        <time>2015-08-30T09:12:10Z</time>
      </trkpt>
      <trkpt lat="34.10224" lon="77.12386">
        <ele>3889.6</ele>
        <time>2015-08-30T09:12:32Z</time>
      </trkpt>
      <trkpt lat="34.10224" lon="77.12387">
        <ele>3889.6</ele>
        <time>2015-08-30T09:12:33Z</time>
      </trkpt>
      <trkpt lat="34.10219" lon="77.12391">
        <ele>3890.6</ele>
        <time>2015-08-30T09:12:39Z</time>
      </trkpt>
      <trkpt lat="34.10218" lon="77.12391">
        <ele>3890.8</ele>
        <time>2015-08-30T09:12:41Z</time>
      </trkpt>
      <trkpt lat="34.10217" lon="77.1239">
        <ele>3892</ele>
        <time>2015-08-30T09:12:50Z</time>
      </trkpt>
      <trkpt lat="34.10219" lon="77.12387">
        <ele>3893</ele>
        <time>2015-08-30T09:12:59Z</time>
      </trkpt>
      <trkpt lat="34.10214" lon="77.12394">
        <ele>3893.6</ele>
        <time>2015-08-30T09:13:06Z</time>
      </trkpt>
      <trkpt lat="34.10214" lon="77.12393">
        <ele>3894</ele>
        <time>2015-08-30T09:13:08Z</time>
      </trkpt>
      <trkpt lat="34.10215" lon="77.12392">
        <ele>3894.6</ele>
        <time>2015-08-30T09:13:12Z</time>
      </trkpt>
      <trkpt lat="34.10217" lon="77.12398">
        <ele>3895.2</ele>
        <time>2015-08-30T09:13:18Z</time>
      </trkpt>
      <trkpt lat="34.10218" lon="77.12402">
        <ele>3896.2</ele>
        <time>2015-08-30T09:13:28Z</time>
      </trkpt>
      <trkpt lat="34.10217" lon="77.12405">
        <ele>3897.2</ele>
        <time>2015-08-30T09:13:39Z</time>
      </trkpt>
      <trkpt lat="34.10207" lon="77.12407">
        <ele>3898</ele>
        <time>2015-08-30T09:13:47Z</time>
      </trkpt>
      <trkpt lat="34.10203" lon="77.12408">
        <ele>3898.2</ele>
        <time>2015-08-30T09:13:50Z</time>
      </trkpt>
      <trkpt lat="34.10203" lon="77.12409">
        <ele>3898.4</ele>
        <time>2015-08-30T09:13:51Z</time>
      </trkpt>
      <trkpt lat="34.10202" lon="77.1241">
        <ele>3898.6</ele>
        <time>2015-08-30T09:13:53Z</time>
      </trkpt>
      <trkpt lat="34.10201" lon="77.1241">
        <ele>3899.4</ele>
        <time>2015-08-30T09:13:59Z</time>
      </trkpt>
      <trkpt lat="34.10213" lon="77.12399">
        <ele>3900</ele>
        <time>2015-08-30T09:14:03Z</time>
      </trkpt>
      <trkpt lat="34.10214" lon="77.12399">
        <ele>3900</ele>
        <time>2015-08-30T09:14:05Z</time>
      </trkpt>
      <trkpt lat="34.10215" lon="77.12401">
        <ele>3900.2</ele>
        <time>2015-08-30T09:14:08Z</time>
      </trkpt>
      <trkpt lat="34.10215" lon="77.12402">
        <ele>3900.2</ele>
        <time>2015-08-30T09:14:10Z</time>
      </trkpt>
      <trkpt lat="34.10215" lon="77.12399">
        <ele>3900.4</ele>
        <time>2015-08-30T09:14:11Z</time>
      </trkpt>
      <trkpt lat="34.10219" lon="77.1239">
        <ele>3901.6</ele>
        <time>2015-08-30T09:14:16Z</time>
      </trkpt>
      <trkpt lat="34.10221" lon="77.12386">
        <ele>3901.8</ele>
        <time>2015-08-30T09:14:22Z</time>
      </trkpt>
      <trkpt lat="34.10221" lon="77.12386">
        <ele>3902.8</ele>
        <time>2015-08-30T09:14:28Z</time>
      </trkpt>
      <trkpt lat="34.1022" lon="77.12381">
        <ele>3903.8</ele>
        <time>2015-08-30T09:14:38Z</time>
      </trkpt>
      <trkpt lat="34.10221" lon="77.12379">
        <ele>3905</ele>
        <time>2015-08-30T09:14:43Z</time>
      </trkpt>
      <trkpt lat="34.10219" lon="77.12384">
        <ele>3905.8</ele>
        <time>2015-08-30T09:14:47Z</time>
      </trkpt>
      <trkpt lat="34.10216" lon="77.1239">
        <ele>3906</ele>
        <time>2015-08-30T09:14:48Z</time>
      </trkpt>
      <trkpt lat="34.10215" lon="77.12394">
        <ele>3906.2</ele>
        <time>2015-08-30T09:14:49Z</time>
      </trkpt>
      <trkpt lat="34.10212" lon="77.12401">
        <ele>3906.4</ele>
        <time>2015-08-30T09:14:51Z</time>
      </trkpt>
      <trkpt lat="34.1021" lon="77.12412">
        <ele>3907</ele>
        <time>2015-08-30T09:14:57Z</time>
      </trkpt>
      <trkpt lat="34.10211" lon="77.12413">
        <ele>3907</ele>
        <time>2015-08-30T09:14:58Z</time>
      </trkpt>
      <trkpt lat="34.10212" lon="77.12416">
        <ele>3907.8</ele>
        <time>2015-08-30T09:15:03Z</time>
      </trkpt>
      <trkpt lat="34.10211" lon="77.12426">
        <ele>3908</ele>
        <time>2015-08-30T09:15:10Z</time>
      </trkpt>
      <trkpt lat="34.10211" lon="77.12432">
        <ele>3908.2</ele>
        <time>2015-08-30T09:15:13Z</time>
      </trkpt>
      <trkpt lat="34.10211" lon="77.12434">
        <ele>3908.2</ele>
        <time>2015-08-30T09:15:15Z</time>
      </trkpt>
      <trkpt lat="34.10209" lon="77.12423">
        <ele>3908.4</ele>
        <time>2015-08-30T09:15:17Z</time>
      </trkpt>
      <trkpt lat="34.10208" lon="77.12421">
        <ele>3908.2</ele>
        <time>2015-08-30T09:15:19Z</time>
      </trkpt>
      <trkpt lat="34.10209" lon="77.12414">
        <ele>3908.6</ele>
        <time>2015-08-30T09:15:33Z</time>
      </trkpt>
      <trkpt lat="34.10208" lon="77.12415">
        <ele>3909.2</ele>
        <time>2015-08-30T09:15:35Z</time>
      </trkpt>
      <trkpt lat="34.10209" lon="77.12414">
        <ele>3910</ele>
        <time>2015-08-30T09:15:43Z</time>
      </trkpt>
      <trkpt lat="34.10205" lon="77.12418">
        <ele>3910.2</ele>
        <time>2015-08-30T09:15:46Z</time>
      </trkpt>
      <trkpt lat="34.10204" lon="77.12419">
        <ele>3910.4</ele>
        <time>2015-08-30T09:15:47Z</time>
      </trkpt>
      <trkpt lat="34.10204" lon="77.12416">
        <ele>3911.4</ele>
        <time>2015-08-30T09:15:53Z</time>
      </trkpt>
      <trkpt lat="34.10203" lon="77.12416">
        <ele>3911.6</ele>
        <time>2015-08-30T09:15:54Z</time>
      </trkpt>
      <trkpt lat="34.10198" lon="77.12419">
        <ele>3911.6</ele>
        <time>2015-08-30T09:15:58Z</time>
      </trkpt>
      <trkpt lat="34.10201" lon="77.12426">
        <ele>3911.8</ele>
        <time>2015-08-30T09:16:12Z</time>
      </trkpt>
      <trkpt lat="34.10203" lon="77.12428">
        <ele>3912.4</ele>
        <time>2015-08-30T09:16:31Z</time>
      </trkpt>
      <trkpt lat="34.10189" lon="77.1242">
        <ele>3913.4</ele>
        <time>2015-08-30T09:16:48Z</time>
      </trkpt>
      <trkpt lat="34.10188" lon="77.12421">
        <ele>3913.6</ele>
        <time>2015-08-30T09:16:49Z</time>
      </trkpt>
      <trkpt lat="34.10186" lon="77.12421">
        <ele>3913.8</ele>
        <time>2015-08-30T09:16:51Z</time>
      </trkpt>
      <trkpt lat="34.10184" lon="77.12425">
        <ele>3914.6</ele>
        <time>2015-08-30T09:16:55Z</time>
      </trkpt>
      <trkpt lat="34.10176" lon="77.12434">
        <ele>3915.6</ele>
        <time>2015-08-30T09:17:03Z</time>
      </trkpt>
      <trkpt lat="34.10175" lon="77.12437">
        <ele>3916</ele>
        <time>2015-08-30T09:17:06Z</time>
      </trkpt>
      <trkpt lat="34.10175" lon="77.12438">
        <ele>3916.2</ele>
        <time>2015-08-30T09:17:08Z</time>
      </trkpt>
      <trkpt lat="34.10172" lon="77.12435">
        <ele>3916.6</ele>
        <time>2015-08-30T09:17:12Z</time>
      </trkpt>
      <trkpt lat="34.10176" lon="77.12436">
        <ele>3917.2</ele>
        <time>2015-08-30T09:17:25Z</time>
      </trkpt>
      <trkpt lat="34.10177" lon="77.12433">
        <ele>3917.2</ele>
        <time>2015-08-30T09:17:27Z</time>
      </trkpt>
      <trkpt lat="34.10176" lon="77.12434">
        <ele>3917.4</ele>
        <time>2015-08-30T09:17:29Z</time>
      </trkpt>
      <trkpt lat="34.10174" lon="77.12435">
        <ele>3917.8</ele>
        <time>2015-08-30T09:17:32Z</time>
      </trkpt>
      <trkpt lat="34.10172" lon="77.12439">
        <ele>3918.2</ele>
        <time>2015-08-30T09:17:37Z</time>
      </trkpt>
      <trkpt lat="34.10175" lon="77.12442">
        <ele>3918.8</ele>
        <time>2015-08-30T09:17:43Z</time>
      </trkpt>
      <trkpt lat="34.10176" lon="77.12442">
        <ele>3919</ele>
        <time>2015-08-30T09:17:44Z</time>
      </trkpt>
      <trkpt lat="34.10173" lon="77.12445">
        <ele>3918.8</ele>
        <time>2015-08-30T09:17:50Z</time>
      </trkpt>
      <trkpt lat="34.1017" lon="77.12451">
        <ele>3919.6</ele>
        <time>2015-08-30T09:18:01Z</time>
      </trkpt>
      <trkpt lat="34.1017" lon="77.12453">
        <ele>3920</ele>
        <time>2015-08-30T09:18:04Z</time>
      </trkpt>
      <trkpt lat="34.1017" lon="77.12457">
        <ele>3920.2</ele>
        <time>2015-08-30T09:18:08Z</time>
      </trkpt>
      <trkpt lat="34.10166" lon="77.12456">
        <ele>3920.4</ele>
        <time>2015-08-30T09:18:13Z</time>
      </trkpt>
      <trkpt lat="34.10163" lon="77.12456">
        <ele>3921</ele>
        <time>2015-08-30T09:18:19Z</time>
      </trkpt>
      <trkpt lat="34.10161" lon="77.1246">
        <ele>3922.2</ele>
        <time>2015-08-30T09:18:26Z</time>
      </trkpt>
      <trkpt lat="34.1016" lon="77.12464">
        <ele>3923.2</ele>
        <time>2015-08-30T09:18:34Z</time>
      </trkpt>
      <trkpt lat="34.10161" lon="77.12468">
        <ele>3923.8</ele>
        <time>2015-08-30T09:18:38Z</time>
      </trkpt>
      <trkpt lat="34.10159" lon="77.12474">
        <ele>3924.2</ele>
        <time>2015-08-30T09:18:43Z</time>
      </trkpt>
      <trkpt lat="34.1016" lon="77.12474">
        <ele>3924.2</ele>
        <time>2015-08-30T09:18:44Z</time>
      </trkpt>
      <trkpt lat="34.10158" lon="77.12479">
        <ele>3925.4</ele>
        <time>2015-08-30T09:18:55Z</time>
      </trkpt>
      <trkpt lat="34.10158" lon="77.12479">
        <ele>3926.4</ele>
        <time>2015-08-30T09:19:02Z</time>
      </trkpt>
      <trkpt lat="34.10153" lon="77.12477">
        <ele>3926.8</ele>
        <time>2015-08-30T09:19:06Z</time>
      </trkpt>
      <trkpt lat="34.1015" lon="77.12478">
        <ele>3927</ele>
        <time>2015-08-30T09:19:09Z</time>
      </trkpt>
      <trkpt lat="34.10151" lon="77.12478">
        <ele>3927.6</ele>
        <time>2015-08-30T09:19:14Z</time>
      </trkpt>
      <trkpt lat="34.10147" lon="77.12484">
        <ele>3928.6</ele>
        <time>2015-08-30T09:19:24Z</time>
      </trkpt>
      <trkpt lat="34.10146" lon="77.12487">
        <ele>3929.6</ele>
        <time>2015-08-30T09:19:32Z</time>
      </trkpt>
      <trkpt lat="34.10145" lon="77.12491">
        <ele>3929.8</ele>
        <time>2015-08-30T09:19:35Z</time>
      </trkpt>
      <trkpt lat="34.10143" lon="77.12494">
        <ele>3930.6</ele>
        <time>2015-08-30T09:19:38Z</time>
      </trkpt>
      <trkpt lat="34.1014" lon="77.12495">
        <ele>3931</ele>
        <time>2015-08-30T09:19:41Z</time>
      </trkpt>
      <trkpt lat="34.10137" lon="77.12497">
        <ele>3931.6</ele>
        <time>2015-08-30T09:19:46Z</time>
      </trkpt>
      <trkpt lat="34.10135" lon="77.12499">
        <ele>3932.8</ele>
        <time>2015-08-30T09:19:59Z</time>
      </trkpt>
      <trkpt lat="34.10132" lon="77.12501">
        <ele>3933.8</ele>
        <time>2015-08-30T09:20:06Z</time>
      </trkpt>
      <trkpt lat="34.10131" lon="77.12498">
        <ele>3933.8</ele>
        <time>2015-08-30T09:20:07Z</time>
      </trkpt>
      <trkpt lat="34.10132" lon="77.12497">
        <ele>3933.8</ele>
        <time>2015-08-30T09:20:08Z</time>
      </trkpt>
      <trkpt lat="34.10131" lon="77.12497">
        <ele>3934</ele>
        <time>2015-08-30T09:20:10Z</time>
      </trkpt>
      <trkpt lat="34.1013" lon="77.12497">
        <ele>3934.8</ele>
        <time>2015-08-30T09:20:16Z</time>
      </trkpt>
      <trkpt lat="34.10123" lon="77.125">
        <ele>3936</ele>
        <time>2015-08-30T09:20:29Z</time>
      </trkpt>
      <trkpt lat="34.10113" lon="77.12504">
        <ele>3937</ele>
        <time>2015-08-30T09:20:40Z</time>
      </trkpt>
      <trkpt lat="34.10108" lon="77.12507">
        <ele>3938</ele>
        <time>2015-08-30T09:20:46Z</time>
      </trkpt>
      <trkpt lat="34.10103" lon="77.1251">
        <ele>3939</ele>
        <time>2015-08-30T09:20:54Z</time>
      </trkpt>
      <trkpt lat="34.10102" lon="77.12508">
        <ele>3940.2</ele>
        <time>2015-08-30T09:21:01Z</time>
      </trkpt>
      <trkpt lat="34.10101" lon="77.12505">
        <ele>3941.2</ele>
        <time>2015-08-30T09:21:11Z</time>
      </trkpt>
      <trkpt lat="34.10099" lon="77.12503">
        <ele>3942.2</ele>
        <time>2015-08-30T09:21:19Z</time>
      </trkpt>
      <trkpt lat="34.10099" lon="77.12503">
        <ele>3943.2</ele>
        <time>2015-08-30T09:21:26Z</time>
      </trkpt>
      <trkpt lat="34.10084" lon="77.125">
        <ele>3944.2</ele>
        <time>2015-08-30T09:21:35Z</time>
      </trkpt>
      <trkpt lat="34.10075" lon="77.12499">
        <ele>3945.4</ele>
        <time>2015-08-30T09:21:48Z</time>
      </trkpt>
      <trkpt lat="34.10069" lon="77.12495">
        <ele>3946.4</ele>
        <time>2015-08-30T09:21:57Z</time>
      </trkpt>
      <trkpt lat="34.10066" lon="77.12496">
        <ele>3946.8</ele>
        <time>2015-08-30T09:22:01Z</time>
      </trkpt>
      <trkpt lat="34.10066" lon="77.12493">
        <ele>3947.4</ele>
        <time>2015-08-30T09:22:04Z</time>
      </trkpt>
      <trkpt lat="34.1006" lon="77.12492">
        <ele>3948.6</ele>
        <time>2015-08-30T09:22:14Z</time>
      </trkpt>
      <trkpt lat="34.10057" lon="77.12491">
        <ele>3949.8</ele>
        <time>2015-08-30T09:22:22Z</time>
      </trkpt>
      <trkpt lat="34.1005" lon="77.12494">
        <ele>3950.8</ele>
        <time>2015-08-30T09:22:30Z</time>
      </trkpt>
      <trkpt lat="34.10051" lon="77.12492">
        <ele>3951</ele>
        <time>2015-08-30T09:22:32Z</time>
      </trkpt>
      <trkpt lat="34.10056" lon="77.12485">
        <ele>3951</ele>
        <time>2015-08-30T09:22:35Z</time>
      </trkpt>
      <trkpt lat="34.10057" lon="77.12485">
        <ele>3951.4</ele>
        <time>2015-08-30T09:22:41Z</time>
      </trkpt>
      <trkpt lat="34.10055" lon="77.12486">
        <ele>3951.4</ele>
        <time>2015-08-30T09:22:43Z</time>
      </trkpt>
      <trkpt lat="34.10052" lon="77.12488">
        <ele>3951.8</ele>
        <time>2015-08-30T09:22:49Z</time>
      </trkpt>
      <trkpt lat="34.1005" lon="77.1249">
        <ele>3950.4</ele>
        <time>2015-08-30T09:23:00Z</time>
      </trkpt>
      <trkpt lat="34.1005" lon="77.1249">
        <ele>3949.2</ele>
        <time>2015-08-30T09:23:03Z</time>
      </trkpt>
      <trkpt lat="34.10051" lon="77.12493">
        <ele>3949.2</ele>
        <time>2015-08-30T09:23:30Z</time>
      </trkpt>
      <trkpt lat="34.10051" lon="77.12498">
        <ele>3949.4</ele>
        <time>2015-08-30T09:23:35Z</time>
      </trkpt>
      <trkpt lat="34.10049" lon="77.12493">
        <ele>3949.2</ele>
        <time>2015-08-30T09:23:55Z</time>
      </trkpt>
      <trkpt lat="34.10051" lon="77.12494">
        <ele>3950.4</ele>
        <time>2015-08-30T09:24:00Z</time>
      </trkpt>
      <trkpt lat="34.10051" lon="77.1249">
        <ele>3950.4</ele>
        <time>2015-08-30T09:24:33Z</time>
      </trkpt>
      <trkpt lat="34.1005" lon="77.12489">
        <ele>3950.4</ele>
        <time>2015-08-30T09:24:34Z</time>
      </trkpt>
      <trkpt lat="34.1005" lon="77.12482">
        <ele>3950.6</ele>
        <time>2015-08-30T09:25:01Z</time>
      </trkpt>
      <trkpt lat="34.10047" lon="77.12484">
        <ele>3950.8</ele>
        <time>2015-08-30T09:25:05Z</time>
      </trkpt>
      <trkpt lat="34.10046" lon="77.12485">
        <ele>3950.8</ele>
        <time>2015-08-30T09:25:07Z</time>
      </trkpt>
      <trkpt lat="34.10038" lon="77.12489">
        <ele>3950.2</ele>
        <time>2015-08-30T09:25:17Z</time>
      </trkpt>
      <trkpt lat="34.10045" lon="77.12489">
        <ele>3951</ele>
        <time>2015-08-30T09:25:24Z</time>
      </trkpt>
      <trkpt lat="34.10048" lon="77.12489">
        <ele>3950.6</ele>
        <time>2015-08-30T09:25:26Z</time>
      </trkpt>
      <trkpt lat="34.1005" lon="77.12491">
        <ele>3950</ele>
        <time>2015-08-30T09:25:28Z</time>
      </trkpt>
      <trkpt lat="34.10051" lon="77.12491">
        <ele>3949.2</ele>
        <time>2015-08-30T09:25:31Z</time>
      </trkpt>
      <trkpt lat="34.1005" lon="77.12494">
        <ele>3949.4</ele>
        <time>2015-08-30T09:26:11Z</time>
      </trkpt>
      <trkpt lat="34.10056" lon="77.12487">
        <ele>3948.6</ele>
        <time>2015-08-30T09:26:42Z</time>
      </trkpt>
      <trkpt lat="34.10055" lon="77.12488">
        <ele>3950.4</ele>
        <time>2015-08-30T09:26:49Z</time>
      </trkpt>
      <trkpt lat="34.10039" lon="77.12499">
        <ele>3950</ele>
        <time>2015-08-30T09:27:11Z</time>
      </trkpt>
      <trkpt lat="34.1004" lon="77.12504">
        <ele>3951.4</ele>
        <time>2015-08-30T09:27:26Z</time>
      </trkpt>
      <trkpt lat="34.1004" lon="77.12511">
        <ele>3952.4</ele>
        <time>2015-08-30T09:27:40Z</time>
      </trkpt>
      <trkpt lat="34.10038" lon="77.12512">
        <ele>3952.8</ele>
        <time>2015-08-30T09:27:42Z</time>
      </trkpt>
      <trkpt lat="34.10033" lon="77.12516">
        <ele>3953.4</ele>
        <time>2015-08-30T09:27:48Z</time>
      </trkpt>
      <trkpt lat="34.10027" lon="77.12519">
        <ele>3954.6</ele>
        <time>2015-08-30T09:27:59Z</time>
      </trkpt>
      <trkpt lat="34.10026" lon="77.12521">
        <ele>3955.6</ele>
        <time>2015-08-30T09:28:10Z</time>
      </trkpt>
      <trkpt lat="34.10023" lon="77.12524">
        <ele>3956.6</ele>
        <time>2015-08-30T09:28:26Z</time>
      </trkpt>
      <trkpt lat="34.10022" lon="77.12523">
        <ele>3957.8</ele>
        <time>2015-08-30T09:28:42Z</time>
      </trkpt>
      <trkpt lat="34.10017" lon="77.12527">
        <ele>3958.8</ele>
        <time>2015-08-30T09:28:57Z</time>
      </trkpt>
      <trkpt lat="34.10009" lon="77.12528">
        <ele>3960</ele>
        <time>2015-08-30T09:29:09Z</time>
      </trkpt>
      <trkpt lat="34.10004" lon="77.12529">
        <ele>3961</ele>
        <time>2015-08-30T09:29:18Z</time>
      </trkpt>
      <trkpt lat="34.10004" lon="77.12529">
        <ele>3962</ele>
        <time>2015-08-30T09:29:31Z</time>
      </trkpt>
      <trkpt lat="34.10002" lon="77.12531">
        <ele>3962.6</ele>
        <time>2015-08-30T09:29:39Z</time>
      </trkpt>
      <trkpt lat="34.09999" lon="77.12533">
        <ele>3962.8</ele>
        <time>2015-08-30T09:29:42Z</time>
      </trkpt>
      <trkpt lat="34.09998" lon="77.12533">
        <ele>3963</ele>
        <time>2015-08-30T09:29:45Z</time>
      </trkpt>
      <trkpt lat="34.09991" lon="77.12539">
        <ele>3964</ele>
        <time>2015-08-30T09:30:00Z</time>
      </trkpt>
      <trkpt lat="34.09989" lon="77.12539">
        <ele>3964.4</ele>
        <time>2015-08-30T09:30:02Z</time>
      </trkpt>
      <trkpt lat="34.09986" lon="77.12545">
        <ele>3964.8</ele>
        <time>2015-08-30T09:30:04Z</time>
      </trkpt>
      <trkpt lat="34.09987" lon="77.12546">
        <ele>3965.2</ele>
        <time>2015-08-30T09:30:07Z</time>
      </trkpt>
      <trkpt lat="34.09984" lon="77.12537">
        <ele>3966.4</ele>
        <time>2015-08-30T09:30:19Z</time>
      </trkpt>
      <trkpt lat="34.0998" lon="77.12535">
        <ele>3966.6</ele>
        <time>2015-08-30T09:30:23Z</time>
      </trkpt>
      <trkpt lat="34.09973" lon="77.12539">
        <ele>3967.4</ele>
        <time>2015-08-30T09:30:33Z</time>
      </trkpt>
      <trkpt lat="34.09973" lon="77.12537">
        <ele>3968.4</ele>
        <time>2015-08-30T09:30:51Z</time>
      </trkpt>
      <trkpt lat="34.09976" lon="77.12531">
        <ele>3968.6</ele>
        <time>2015-08-30T09:30:56Z</time>
      </trkpt>
      <trkpt lat="34.09976" lon="77.12532">
        <ele>3968.8</ele>
        <time>2015-08-30T09:30:59Z</time>
      </trkpt>
      <trkpt lat="34.09981" lon="77.12536">
        <ele>3969</ele>
        <time>2015-08-30T09:31:04Z</time>
      </trkpt>
      <trkpt lat="34.09982" lon="77.12541">
        <ele>3969.6</ele>
        <time>2015-08-30T09:31:11Z</time>
      </trkpt>
      <trkpt lat="34.0998" lon="77.12547">
        <ele>3970.6</ele>
        <time>2015-08-30T09:31:33Z</time>
      </trkpt>
      <trkpt lat="34.09978" lon="77.12548">
        <ele>3971.6</ele>
        <time>2015-08-30T09:31:42Z</time>
      </trkpt>
      <trkpt lat="34.09979" lon="77.12553">
        <ele>3972.8</ele>
        <time>2015-08-30T09:31:52Z</time>
      </trkpt>
      <trkpt lat="34.09981" lon="77.12557">
        <ele>3974</ele>
        <time>2015-08-30T09:32:00Z</time>
      </trkpt>
      <trkpt lat="34.09986" lon="77.12562">
        <ele>3975</ele>
        <time>2015-08-30T09:32:13Z</time>
      </trkpt>
      <trkpt lat="34.09984" lon="77.12561">
        <ele>3976</ele>
        <time>2015-08-30T09:32:25Z</time>
      </trkpt>
      <trkpt lat="34.0999" lon="77.12566">
        <ele>3977.2</ele>
        <time>2015-08-30T09:32:36Z</time>
      </trkpt>
      <trkpt lat="34.09986" lon="77.12572">
        <ele>3978.2</ele>
        <time>2015-08-30T09:32:53Z</time>
      </trkpt>
      <trkpt lat="34.09989" lon="77.12578">
        <ele>3979.4</ele>
        <time>2015-08-30T09:33:05Z</time>
      </trkpt>
      <trkpt lat="34.0999" lon="77.12582">
        <ele>3980.4</ele>
        <time>2015-08-30T09:33:12Z</time>
      </trkpt>
      <trkpt lat="34.09993" lon="77.12588">
        <ele>3981.4</ele>
        <time>2015-08-30T09:33:29Z</time>
      </trkpt>
      <trkpt lat="34.09993" lon="77.12593">
        <ele>3982.4</ele>
        <time>2015-08-30T09:33:42Z</time>
      </trkpt>
      <trkpt lat="34.09994" lon="77.12596">
        <ele>3982.6</ele>
        <time>2015-08-30T09:33:46Z</time>
      </trkpt>
      <trkpt lat="34.09999" lon="77.126">
        <ele>3983.6</ele>
        <time>2015-08-30T09:33:57Z</time>
      </trkpt>
      <trkpt lat="34.10005" lon="77.12602">
        <ele>3984.6</ele>
        <time>2015-08-30T09:34:13Z</time>
      </trkpt>
      <trkpt lat="34.10009" lon="77.12603">
        <ele>3985.8</ele>
        <time>2015-08-30T09:34:29Z</time>
      </trkpt>
      <trkpt lat="34.10009" lon="77.12605">
        <ele>3986.8</ele>
        <time>2015-08-30T09:34:41Z</time>
      </trkpt>
      <trkpt lat="34.10008" lon="77.12606">
        <ele>3987.4</ele>
        <time>2015-08-30T09:34:45Z</time>
      </trkpt>
      <trkpt lat="34.10008" lon="77.12607">
        <ele>3987.8</ele>
        <time>2015-08-30T09:34:49Z</time>
      </trkpt>
      <trkpt lat="34.10011" lon="77.12602">
        <ele>3989</ele>
        <time>2015-08-30T09:34:58Z</time>
      </trkpt>
      <trkpt lat="34.10007" lon="77.12605">
        <ele>3990</ele>
        <time>2015-08-30T09:35:11Z</time>
      </trkpt>
      <trkpt lat="34.1" lon="77.12611">
        <ele>3991</ele>
        <time>2015-08-30T09:35:21Z</time>
      </trkpt>
      <trkpt lat="34.09997" lon="77.12613">
        <ele>3992.2</ele>
        <time>2015-08-30T09:35:29Z</time>
      </trkpt>
      <trkpt lat="34.09995" lon="77.12616">
        <ele>3992.4</ele>
        <time>2015-08-30T09:35:32Z</time>
      </trkpt>
      <trkpt lat="34.09995" lon="77.12612">
        <ele>3993</ele>
        <time>2015-08-30T09:35:45Z</time>
      </trkpt>
      <trkpt lat="34.09995" lon="77.12612">
        <ele>3993.2</ele>
        <time>2015-08-30T09:35:46Z</time>
      </trkpt>
      <trkpt lat="34.09994" lon="77.12611">
        <ele>3994.2</ele>
        <time>2015-08-30T09:35:56Z</time>
      </trkpt>
      <trkpt lat="34.09989" lon="77.12616">
        <ele>3994.6</ele>
        <time>2015-08-30T09:36:00Z</time>
      </trkpt>
      <trkpt lat="34.0999" lon="77.12621">
        <ele>3995.2</ele>
        <time>2015-08-30T09:36:12Z</time>
      </trkpt>
      <trkpt lat="34.09986" lon="77.12623">
        <ele>3996.4</ele>
        <time>2015-08-30T09:36:23Z</time>
      </trkpt>
      <trkpt lat="34.0998" lon="77.12623">
        <ele>3997.4</ele>
        <time>2015-08-30T09:36:31Z</time>
      </trkpt>
      <trkpt lat="34.09978" lon="77.12623">
        <ele>3998.4</ele>
        <time>2015-08-30T09:36:44Z</time>
      </trkpt>
      <trkpt lat="34.09973" lon="77.12624">
        <ele>3999.4</ele>
        <time>2015-08-30T09:36:53Z</time>
      </trkpt>
      <trkpt lat="34.09973" lon="77.12621">
        <ele>4000.4</ele>
        <time>2015-08-30T09:37:03Z</time>
      </trkpt>
      <trkpt lat="34.09969" lon="77.12624">
        <ele>4001</ele>
        <time>2015-08-30T09:37:12Z</time>
      </trkpt>
      <trkpt lat="34.09967" lon="77.1263">
        <ele>4001.6</ele>
        <time>2015-08-30T09:37:18Z</time>
      </trkpt>
      <trkpt lat="34.09964" lon="77.12637">
        <ele>4002.6</ele>
        <time>2015-08-30T09:37:33Z</time>
      </trkpt>
      <trkpt lat="34.09965" lon="77.12645">
        <ele>4003.6</ele>
        <time>2015-08-30T09:37:47Z</time>
      </trkpt>
      <trkpt lat="34.09964" lon="77.12647">
        <ele>4003.8</ele>
        <time>2015-08-30T09:37:50Z</time>
      </trkpt>
      <trkpt lat="34.0997" lon="77.12648">
        <ele>4004.4</ele>
        <time>2015-08-30T09:37:58Z</time>
      </trkpt>
      <trkpt lat="34.09972" lon="77.1265">
        <ele>4004.8</ele>
        <time>2015-08-30T09:38:03Z</time>
      </trkpt>
      <trkpt lat="34.09975" lon="77.12653">
        <ele>4005.8</ele>
        <time>2015-08-30T09:38:15Z</time>
      </trkpt>
      <trkpt lat="34.09979" lon="77.12659">
        <ele>4006.8</ele>
        <time>2015-08-30T09:38:28Z</time>
      </trkpt>
      <trkpt lat="34.09982" lon="77.12661">
        <ele>4008</ele>
        <time>2015-08-30T09:38:42Z</time>
      </trkpt>
      <trkpt lat="34.09987" lon="77.12667">
        <ele>4009</ele>
        <time>2015-08-30T09:38:57Z</time>
      </trkpt>
      <trkpt lat="34.09994" lon="77.12675">
        <ele>4010</ele>
        <time>2015-08-30T09:39:15Z</time>
      </trkpt>
      <trkpt lat="34.09998" lon="77.12675">
        <ele>4011</ele>
        <time>2015-08-30T09:39:28Z</time>
      </trkpt>
      <trkpt lat="34.10004" lon="77.12675">
        <ele>4012</ele>
        <time>2015-08-30T09:39:37Z</time>
      </trkpt>
      <trkpt lat="34.10004" lon="77.12676">
        <ele>4013.2</ele>
        <time>2015-08-30T09:39:43Z</time>
      </trkpt>
      <trkpt lat="34.10008" lon="77.12679">
        <ele>4014.2</ele>
        <time>2015-08-30T09:39:52Z</time>
      </trkpt>
      <trkpt lat="34.10015" lon="77.12681">
        <ele>4015.2</ele>
        <time>2015-08-30T09:40:01Z</time>
      </trkpt>
      <trkpt lat="34.10013" lon="77.12691">
        <ele>4016.2</ele>
        <time>2015-08-30T09:40:13Z</time>
      </trkpt>
      <trkpt lat="34.10011" lon="77.12696">
        <ele>4016.4</ele>
        <time>2015-08-30T09:40:18Z</time>
      </trkpt>
      <trkpt lat="34.10017" lon="77.12698">
        <ele>4017.4</ele>
        <time>2015-08-30T09:40:31Z</time>
      </trkpt>
      <trkpt lat="34.10016" lon="77.12704">
        <ele>4018.4</ele>
        <time>2015-08-30T09:40:42Z</time>
      </trkpt>
      <trkpt lat="34.10011" lon="77.12713">
        <ele>4019.4</ele>
        <time>2015-08-30T09:40:55Z</time>
      </trkpt>
      <trkpt lat="34.10012" lon="77.12719">
        <ele>4020.6</ele>
        <time>2015-08-30T09:41:06Z</time>
      </trkpt>
      <trkpt lat="34.10015" lon="77.12719">
        <ele>4020.8</ele>
        <time>2015-08-30T09:41:09Z</time>
      </trkpt>
      <trkpt lat="34.10024" lon="77.12721">
        <ele>4021.6</ele>
        <time>2015-08-30T09:41:17Z</time>
      </trkpt>
      <trkpt lat="34.10033" lon="77.12726">
        <ele>4022.2</ele>
        <time>2015-08-30T09:41:23Z</time>
      </trkpt>
      <trkpt lat="34.10033" lon="77.12729">
        <ele>4022.6</ele>
        <time>2015-08-30T09:41:27Z</time>
      </trkpt>
      <trkpt lat="34.10019" lon="77.12734">
        <ele>4023.8</ele>
        <time>2015-08-30T09:41:38Z</time>
      </trkpt>
      <trkpt lat="34.10012" lon="77.12735">
        <ele>4024.8</ele>
        <time>2015-08-30T09:41:50Z</time>
      </trkpt>
      <trkpt lat="34.10015" lon="77.12741">
        <ele>4025.8</ele>
        <time>2015-08-30T09:42:02Z</time>
      </trkpt>
      <trkpt lat="34.10018" lon="77.12746">
        <ele>4026.8</ele>
        <time>2015-08-30T09:42:15Z</time>
      </trkpt>
      <trkpt lat="34.1002" lon="77.12752">
        <ele>4027.6</ele>
        <time>2015-08-30T09:42:26Z</time>
      </trkpt>
      <trkpt lat="34.10021" lon="77.12753">
        <ele>4027.8</ele>
        <time>2015-08-30T09:42:28Z</time>
      </trkpt>
      <trkpt lat="34.10026" lon="77.12761">
        <ele>4029</ele>
        <time>2015-08-30T09:42:40Z</time>
      </trkpt>
      <trkpt lat="34.10026" lon="77.12766">
        <ele>4030</ele>
        <time>2015-08-30T09:42:53Z</time>
      </trkpt>
      <trkpt lat="34.1003" lon="77.12769">
        <ele>4030.6</ele>
        <time>2015-08-30T09:42:58Z</time>
      </trkpt>
      <trkpt lat="34.10033" lon="77.12769">
        <ele>4031</ele>
        <time>2015-08-30T09:43:01Z</time>
      </trkpt>
      <trkpt lat="34.10035" lon="77.12769">
        <ele>4031.2</ele>
        <time>2015-08-30T09:43:03Z</time>
      </trkpt>
      <trkpt lat="34.10041" lon="77.12773">
        <ele>4032.2</ele>
        <time>2015-08-30T09:43:16Z</time>
      </trkpt>
      <trkpt lat="34.10039" lon="77.12778">
        <ele>4033.4</ele>
        <time>2015-08-30T09:43:27Z</time>
      </trkpt>
      <trkpt lat="34.10037" lon="77.12782">
        <ele>4034.6</ele>
        <time>2015-08-30T09:43:40Z</time>
      </trkpt>
      <trkpt lat="34.10042" lon="77.12785">
        <ele>4035.6</ele>
        <time>2015-08-30T09:43:47Z</time>
      </trkpt>
      <trkpt lat="34.10045" lon="77.12792">
        <ele>4036.6</ele>
        <time>2015-08-30T09:43:58Z</time>
      </trkpt>
      <trkpt lat="34.10049" lon="77.12793">
        <ele>4037.8</ele>
        <time>2015-08-30T09:44:07Z</time>
      </trkpt>
      <trkpt lat="34.10051" lon="77.12792">
        <ele>4038.8</ele>
        <time>2015-08-30T09:44:17Z</time>
      </trkpt>
      <trkpt lat="34.10052" lon="77.12794">
        <ele>4039.8</ele>
        <time>2015-08-30T09:44:26Z</time>
      </trkpt>
      <trkpt lat="34.10051" lon="77.128">
        <ele>4040.8</ele>
        <time>2015-08-30T09:44:34Z</time>
      </trkpt>
      <trkpt lat="34.10052" lon="77.12801">
        <ele>4041</ele>
        <time>2015-08-30T09:44:35Z</time>
      </trkpt>
      <trkpt lat="34.10053" lon="77.12806">
        <ele>4042</ele>
        <time>2015-08-30T09:44:45Z</time>
      </trkpt>
      <trkpt lat="34.10055" lon="77.12811">
        <ele>4043</ele>
        <time>2015-08-30T09:44:57Z</time>
      </trkpt>
      <trkpt lat="34.10056" lon="77.12811">
        <ele>4044.2</ele>
        <time>2015-08-30T09:45:04Z</time>
      </trkpt>
      <trkpt lat="34.10058" lon="77.12811">
        <ele>4045.2</ele>
        <time>2015-08-30T09:45:23Z</time>
      </trkpt>
      <trkpt lat="34.10056" lon="77.1281">
        <ele>4046.2</ele>
        <time>2015-08-30T09:45:32Z</time>
      </trkpt>
      <trkpt lat="34.10055" lon="77.12816">
        <ele>4047.2</ele>
        <time>2015-08-30T09:45:42Z</time>
      </trkpt>
      <trkpt lat="34.10057" lon="77.12821">
        <ele>4048.2</ele>
        <time>2015-08-30T09:45:52Z</time>
      </trkpt>
      <trkpt lat="34.10052" lon="77.12825">
        <ele>4049.4</ele>
        <time>2015-08-30T09:46:02Z</time>
      </trkpt>
      <trkpt lat="34.10052" lon="77.12825">
        <ele>4049.4</ele>
        <time>2015-08-30T09:46:03Z</time>
      </trkpt>
      <trkpt lat="34.10055" lon="77.12828">
        <ele>4050.4</ele>
        <time>2015-08-30T09:46:11Z</time>
      </trkpt>
      <trkpt lat="34.10052" lon="77.12833">
        <ele>4051.2</ele>
        <time>2015-08-30T09:46:21Z</time>
      </trkpt>
      <trkpt lat="34.10054" lon="77.12834">
        <ele>4051.4</ele>
        <time>2015-08-30T09:46:23Z</time>
      </trkpt>
      <trkpt lat="34.10052" lon="77.12838">
        <ele>4052.6</ele>
        <time>2015-08-30T09:46:33Z</time>
      </trkpt>
      <trkpt lat="34.1005" lon="77.12839">
        <ele>4053.6</ele>
        <time>2015-08-30T09:46:42Z</time>
      </trkpt>
      <trkpt lat="34.10047" lon="77.12843">
        <ele>4054.6</ele>
        <time>2015-08-30T09:46:51Z</time>
      </trkpt>
      <trkpt lat="34.10049" lon="77.12845">
        <ele>4054.8</ele>
        <time>2015-08-30T09:46:52Z</time>
      </trkpt>
      <trkpt lat="34.10058" lon="77.12849">
        <ele>4055.8</ele>
        <time>2015-08-30T09:47:01Z</time>
      </trkpt>
      <trkpt lat="34.10065" lon="77.12854">
        <ele>4056.8</ele>
        <time>2015-08-30T09:47:15Z</time>
      </trkpt>
      <trkpt lat="34.1007" lon="77.12853">
        <ele>4058</ele>
        <time>2015-08-30T09:47:27Z</time>
      </trkpt>
      <trkpt lat="34.10072" lon="77.12851">
        <ele>4059</ele>
        <time>2015-08-30T09:47:40Z</time>
      </trkpt>
      <trkpt lat="34.10075" lon="77.12849">
        <ele>4060</ele>
        <time>2015-08-30T09:47:54Z</time>
      </trkpt>
      <trkpt lat="34.10081" lon="77.12847">
        <ele>4061.2</ele>
        <time>2015-08-30T09:48:10Z</time>
      </trkpt>
      <trkpt lat="34.10084" lon="77.12842">
        <ele>4061.8</ele>
        <time>2015-08-30T09:48:13Z</time>
      </trkpt>
      <trkpt lat="34.10085" lon="77.12842">
        <ele>4062.4</ele>
        <time>2015-08-30T09:48:15Z</time>
      </trkpt>
      <trkpt lat="34.10084" lon="77.12848">
        <ele>4063.4</ele>
        <time>2015-08-30T09:48:28Z</time>
      </trkpt>
      <trkpt lat="34.10082" lon="77.12853">
        <ele>4064.4</ele>
        <time>2015-08-30T09:48:35Z</time>
      </trkpt>
      <trkpt lat="34.10083" lon="77.12857">
        <ele>4065.4</ele>
        <time>2015-08-30T09:48:53Z</time>
      </trkpt>
      <trkpt lat="34.10086" lon="77.12857">
        <ele>4066.6</ele>
        <time>2015-08-30T09:49:04Z</time>
      </trkpt>
      <trkpt lat="34.1009" lon="77.1286">
        <ele>4067.6</ele>
        <time>2015-08-30T09:49:15Z</time>
      </trkpt>
      <trkpt lat="34.10089" lon="77.12862">
        <ele>4068.6</ele>
        <time>2015-08-30T09:49:21Z</time>
      </trkpt>
      <trkpt lat="34.1009" lon="77.12866">
        <ele>4069.8</ele>
        <time>2015-08-30T09:49:32Z</time>
      </trkpt>
      <trkpt lat="34.10091" lon="77.12868">
        <ele>4070.8</ele>
        <time>2015-08-30T09:49:41Z</time>
      </trkpt>
      <trkpt lat="34.10088" lon="77.1287">
        <ele>4071.8</ele>
        <time>2015-08-30T09:49:53Z</time>
      </trkpt>
      <trkpt lat="34.10096" lon="77.12875">
        <ele>4073</ele>
        <time>2015-08-30T09:50:11Z</time>
      </trkpt>
      <trkpt lat="34.10098" lon="77.12873">
        <ele>4074</ele>
        <time>2015-08-30T09:50:19Z</time>
      </trkpt>
      <trkpt lat="34.10102" lon="77.12874">
        <ele>4075.2</ele>
        <time>2015-08-30T09:50:31Z</time>
      </trkpt>
      <trkpt lat="34.10105" lon="77.12877">
        <ele>4076.2</ele>
        <time>2015-08-30T09:50:39Z</time>
      </trkpt>
      <trkpt lat="34.10107" lon="77.12877">
        <ele>4077.2</ele>
        <time>2015-08-30T09:50:47Z</time>
      </trkpt>
      <trkpt lat="34.1011" lon="77.12876">
        <ele>4078.4</ele>
        <time>2015-08-30T09:50:56Z</time>
      </trkpt>
      <trkpt lat="34.10111" lon="77.12878">
        <ele>4079.6</ele>
        <time>2015-08-30T09:50:59Z</time>
      </trkpt>
      <trkpt lat="34.10115" lon="77.1288">
        <ele>4079.4</ele>
        <time>2015-08-30T09:51:13Z</time>
      </trkpt>
      <trkpt lat="34.10118" lon="77.12875">
        <ele>4080.6</ele>
        <time>2015-08-30T09:51:18Z</time>
      </trkpt>
      <trkpt lat="34.10124" lon="77.12875">
        <ele>4081.8</ele>
        <time>2015-08-30T09:51:30Z</time>
      </trkpt>
      <trkpt lat="34.10126" lon="77.12879">
        <ele>4082.8</ele>
        <time>2015-08-30T09:51:38Z</time>
      </trkpt>
      <trkpt lat="34.10129" lon="77.1288">
        <ele>4084</ele>
        <time>2015-08-30T09:51:45Z</time>
      </trkpt>
      <trkpt lat="34.10138" lon="77.12874">
        <ele>4085</ele>
        <time>2015-08-30T09:52:05Z</time>
      </trkpt>
      <trkpt lat="34.10143" lon="77.1287">
        <ele>4086</ele>
        <time>2015-08-30T09:52:14Z</time>
      </trkpt>
      <trkpt lat="34.10145" lon="77.12874">
        <ele>4087.2</ele>
        <time>2015-08-30T09:52:24Z</time>
      </trkpt>
      <trkpt lat="34.1015" lon="77.12872">
        <ele>4088.2</ele>
        <time>2015-08-30T09:52:37Z</time>
      </trkpt>
      <trkpt lat="34.10153" lon="77.12868">
        <ele>4089.2</ele>
        <time>2015-08-30T09:52:49Z</time>
      </trkpt>
      <trkpt lat="34.10159" lon="77.12871">
        <ele>4090.2</ele>
        <time>2015-08-30T09:53:00Z</time>
      </trkpt>
      <trkpt lat="34.10161" lon="77.1287">
        <ele>4091.4</ele>
        <time>2015-08-30T09:53:06Z</time>
      </trkpt>
      <trkpt lat="34.10163" lon="77.12871">
        <ele>4092.4</ele>
        <time>2015-08-30T09:53:14Z</time>
      </trkpt>
      <trkpt lat="34.10168" lon="77.12868">
        <ele>4093.6</ele>
        <time>2015-08-30T09:53:30Z</time>
      </trkpt>
      <trkpt lat="34.10172" lon="77.12865">
        <ele>4094.8</ele>
        <time>2015-08-30T09:53:36Z</time>
      </trkpt>
      <trkpt lat="34.10177" lon="77.12865">
        <ele>4095.8</ele>
        <time>2015-08-30T09:53:50Z</time>
      </trkpt>
      <trkpt lat="34.10182" lon="77.12866">
        <ele>4097</ele>
        <time>2015-08-30T09:53:59Z</time>
      </trkpt>
      <trkpt lat="34.10189" lon="77.1286">
        <ele>4098.4</ele>
        <time>2015-08-30T09:54:17Z</time>
      </trkpt>
      <trkpt lat="34.1019" lon="77.12856">
        <ele>4099.6</ele>
        <time>2015-08-30T09:54:21Z</time>
      </trkpt>
      <trkpt lat="34.10184" lon="77.12857">
        <ele>4100.2</ele>
        <time>2015-08-30T09:54:50Z</time>
      </trkpt>
      <trkpt lat="34.102" lon="77.12852">
        <ele>4100.2</ele>
        <time>2015-08-30T09:55:16Z</time>
      </trkpt>
      <trkpt lat="34.10198" lon="77.12857">
        <ele>4100</ele>
        <time>2015-08-30T09:55:19Z</time>
      </trkpt>
      <trkpt lat="34.10201" lon="77.12863">
        <ele>4100.6</ele>
        <time>2015-08-30T09:55:35Z</time>
      </trkpt>
      <trkpt lat="34.10192" lon="77.12862">
        <ele>4100.8</ele>
        <time>2015-08-30T09:55:39Z</time>
      </trkpt>
      <trkpt lat="34.10189" lon="77.12864">
        <ele>4101</ele>
        <time>2015-08-30T09:55:42Z</time>
      </trkpt>
      <trkpt lat="34.10188" lon="77.12861">
        <ele>4101</ele>
        <time>2015-08-30T09:55:53Z</time>
      </trkpt>
      <trkpt lat="34.10195" lon="77.12854">
        <ele>4101.8</ele>
        <time>2015-08-30T09:56:07Z</time>
      </trkpt>
      <trkpt lat="34.10192" lon="77.12853">
        <ele>4100.8</ele>
        <time>2015-08-30T09:56:13Z</time>
      </trkpt>
      <trkpt lat="34.10199" lon="77.12859">
        <ele>4100.2</ele>
        <time>2015-08-30T09:56:31Z</time>
      </trkpt>
      <trkpt lat="34.10196" lon="77.12864">
        <ele>4101.2</ele>
        <time>2015-08-30T09:56:38Z</time>
      </trkpt>
      <trkpt lat="34.10198" lon="77.12867">
        <ele>4101.8</ele>
        <time>2015-08-30T09:56:40Z</time>
      </trkpt>
      <trkpt lat="34.10198" lon="77.12868">
        <ele>4102</ele>
        <time>2015-08-30T09:56:41Z</time>
      </trkpt>
      <trkpt lat="34.10197" lon="77.12871">
        <ele>4101.8</ele>
        <time>2015-08-30T09:56:44Z</time>
      </trkpt>
      <trkpt lat="34.10187" lon="77.12878">
        <ele>4102.6</ele>
        <time>2015-08-30T09:56:59Z</time>
      </trkpt>
      <trkpt lat="34.10186" lon="77.1288">
        <ele>4103</ele>
        <time>2015-08-30T09:57:01Z</time>
      </trkpt>
      <trkpt lat="34.10185" lon="77.12888">
        <ele>4104</ele>
        <time>2015-08-30T09:57:11Z</time>
      </trkpt>
      <trkpt lat="34.10186" lon="77.12895">
        <ele>4105</ele>
        <time>2015-08-30T09:57:18Z</time>
      </trkpt>
      <trkpt lat="34.10189" lon="77.12899">
        <ele>4106.2</ele>
        <time>2015-08-30T09:57:24Z</time>
      </trkpt>
      <trkpt lat="34.10188" lon="77.12902">
        <ele>4107.2</ele>
        <time>2015-08-30T09:57:29Z</time>
      </trkpt>
      <trkpt lat="34.10189" lon="77.12905">
        <ele>4108.4</ele>
        <time>2015-08-30T09:57:34Z</time>
      </trkpt>
      <trkpt lat="34.10184" lon="77.12905">
        <ele>4109.2</ele>
        <time>2015-08-30T09:57:39Z</time>
      </trkpt>
      <trkpt lat="34.10184" lon="77.12905">
        <ele>4109.6</ele>
        <time>2015-08-30T09:57:40Z</time>
      </trkpt>
      <trkpt lat="34.10183" lon="77.12906">
        <ele>4109.8</ele>
        <time>2015-08-30T09:57:41Z</time>
      </trkpt>
      <trkpt lat="34.10183" lon="77.12909">
        <ele>4110.6</ele>
        <time>2015-08-30T09:57:46Z</time>
      </trkpt>
      <trkpt lat="34.10181" lon="77.12914">
        <ele>4111.8</ele>
        <time>2015-08-30T09:57:53Z</time>
      </trkpt>
      <trkpt lat="34.10179" lon="77.12919">
        <ele>4112.8</ele>
        <time>2015-08-30T09:58:03Z</time>
      </trkpt>
      <trkpt lat="34.10181" lon="77.12925">
        <ele>4114</ele>
        <time>2015-08-30T09:58:12Z</time>
      </trkpt>
      <trkpt lat="34.10183" lon="77.12927">
        <ele>4115</ele>
        <time>2015-08-30T09:58:17Z</time>
      </trkpt>
      <trkpt lat="34.10184" lon="77.12931">
        <ele>4116</ele>
        <time>2015-08-30T09:58:23Z</time>
      </trkpt>
      <trkpt lat="34.10181" lon="77.12935">
        <ele>4117</ele>
        <time>2015-08-30T09:59:18Z</time>
      </trkpt>
      <trkpt lat="34.10184" lon="77.12932">
        <ele>4117.2</ele>
        <time>2015-08-30T09:59:50Z</time>
      </trkpt>
      <trkpt lat="34.10182" lon="77.12938">
        <ele>4118</ele>
        <time>2015-08-30T10:00:00Z</time>
      </trkpt>
      <trkpt lat="34.10178" lon="77.12938">
        <ele>4119.2</ele>
        <time>2015-08-30T10:00:04Z</time>
      </trkpt>
      <trkpt lat="34.10177" lon="77.12941">
        <ele>4119.6</ele>
        <time>2015-08-30T10:00:06Z</time>
      </trkpt>
      <trkpt lat="34.10176" lon="77.12942">
        <ele>4119.6</ele>
        <time>2015-08-30T10:00:08Z</time>
      </trkpt>
      <trkpt lat="34.10183" lon="77.12947">
        <ele>4120.2</ele>
        <time>2015-08-30T10:00:15Z</time>
      </trkpt>
      <trkpt lat="34.10181" lon="77.12949">
        <ele>4120.6</ele>
        <time>2015-08-30T10:00:19Z</time>
      </trkpt>
      <trkpt lat="34.10177" lon="77.1295">
        <ele>4120.6</ele>
        <time>2015-08-30T10:00:23Z</time>
      </trkpt>
      <trkpt lat="34.10177" lon="77.1295">
        <ele>4120.6</ele>
        <time>2015-08-30T10:00:25Z</time>
      </trkpt>
      <trkpt lat="34.10174" lon="77.12953">
        <ele>4120.6</ele>
        <time>2015-08-30T10:00:37Z</time>
      </trkpt>
      <trkpt lat="34.10175" lon="77.12953">
        <ele>4120.2</ele>
        <time>2015-08-30T10:00:39Z</time>
      </trkpt>
      <trkpt lat="34.10175" lon="77.12955">
        <ele>4120.4</ele>
        <time>2015-08-30T10:00:41Z</time>
      </trkpt>
      <trkpt lat="34.10178" lon="77.12954">
        <ele>4121.2</ele>
        <time>2015-08-30T10:00:45Z</time>
      </trkpt>
      <trkpt lat="34.10179" lon="77.12957">
        <ele>4122.6</ele>
        <time>2015-08-30T10:00:49Z</time>
      </trkpt>
      <trkpt lat="34.10175" lon="77.12963">
        <ele>4123.6</ele>
        <time>2015-08-30T10:00:57Z</time>
      </trkpt>
      <trkpt lat="34.10174" lon="77.12965">
        <ele>4123.6</ele>
        <time>2015-08-30T10:00:58Z</time>
      </trkpt>
      <trkpt lat="34.10172" lon="77.12969">
        <ele>4123.8</ele>
        <time>2015-08-30T10:01:01Z</time>
      </trkpt>
      <trkpt lat="34.10165" lon="77.12974">
        <ele>4123.8</ele>
        <time>2015-08-30T10:01:05Z</time>
      </trkpt>
      <trkpt lat="34.10161" lon="77.12976">
        <ele>4123.6</ele>
        <time>2015-08-30T10:01:09Z</time>
      </trkpt>
      <trkpt lat="34.10157" lon="77.12981">
        <ele>4123.2</ele>
        <time>2015-08-30T10:01:14Z</time>
      </trkpt>
      <trkpt lat="34.10158" lon="77.12987">
        <ele>4123.2</ele>
        <time>2015-08-30T10:01:20Z</time>
      </trkpt>
      <trkpt lat="34.10159" lon="77.12992">
        <ele>4124.2</ele>
        <time>2015-08-30T10:01:26Z</time>
      </trkpt>
      <trkpt lat="34.10159" lon="77.12995">
        <ele>4124.6</ele>
        <time>2015-08-30T10:01:30Z</time>
      </trkpt>
      <trkpt lat="34.10158" lon="77.12999">
        <ele>4124.8</ele>
        <time>2015-08-30T10:01:33Z</time>
      </trkpt>
      <trkpt lat="34.10155" lon="77.12998">
        <ele>4125.8</ele>
        <time>2015-08-30T10:01:40Z</time>
      </trkpt>
      <trkpt lat="34.10155" lon="77.12999">
        <ele>4126.2</ele>
        <time>2015-08-30T10:01:56Z</time>
      </trkpt>
      <trkpt lat="34.10157" lon="77.12999">
        <ele>4126</ele>
        <time>2015-08-30T10:02:12Z</time>
      </trkpt>
      <trkpt lat="34.1016" lon="77.12999">
        <ele>4126</ele>
        <time>2015-08-30T10:02:32Z</time>
      </trkpt>
      <trkpt lat="34.10161" lon="77.12999">
        <ele>4125.4</ele>
        <time>2015-08-30T10:02:34Z</time>
      </trkpt>
      <trkpt lat="34.10159" lon="77.12995">
        <ele>4125.4</ele>
        <time>2015-08-30T10:02:37Z</time>
      </trkpt>
      <trkpt lat="34.10159" lon="77.12993">
        <ele>4125.6</ele>
        <time>2015-08-30T10:02:39Z</time>
      </trkpt>
      <trkpt lat="34.10154" lon="77.12998">
        <ele>4126.8</ele>
        <time>2015-08-30T10:03:32Z</time>
      </trkpt>
      <trkpt lat="34.10154" lon="77.12999">
        <ele>4126.4</ele>
        <time>2015-08-30T10:03:53Z</time>
      </trkpt>
      <trkpt lat="34.10148" lon="77.13">
        <ele>4127.6</ele>
        <time>2015-08-30T10:04:00Z</time>
      </trkpt>
      <trkpt lat="34.10147" lon="77.13">
        <ele>4127.8</ele>
        <time>2015-08-30T10:04:02Z</time>
      </trkpt>
      <trkpt lat="34.10145" lon="77.13001">
        <ele>4126.8</ele>
        <time>2015-08-30T10:04:23Z</time>
      </trkpt>
      <trkpt lat="34.10142" lon="77.13006">
        <ele>4126.6</ele>
        <time>2015-08-30T10:04:27Z</time>
      </trkpt>
      <trkpt lat="34.10144" lon="77.1301">
        <ele>4125.8</ele>
        <time>2015-08-30T10:04:47Z</time>
      </trkpt>
      <trkpt lat="34.10148" lon="77.13004">
        <ele>4125.2</ele>
        <time>2015-08-30T10:04:55Z</time>
      </trkpt>
      <trkpt lat="34.10147" lon="77.13005">
        <ele>4126.8</ele>
        <time>2015-08-30T10:05:02Z</time>
      </trkpt>
      <trkpt lat="34.10146" lon="77.13006">
        <ele>4127.4</ele>
        <time>2015-08-30T10:05:25Z</time>
      </trkpt>
      <trkpt lat="34.10147" lon="77.13007">
        <ele>4127</ele>
        <time>2015-08-30T10:05:29Z</time>
      </trkpt>
      <trkpt lat="34.10147" lon="77.13012">
        <ele>4127.4</ele>
        <time>2015-08-30T10:05:43Z</time>
      </trkpt>
      <trkpt lat="34.1015" lon="77.13005">
        <ele>4126.2</ele>
        <time>2015-08-30T10:06:51Z</time>
      </trkpt>
      <trkpt lat="34.10149" lon="77.13003">
        <ele>4127.8</ele>
        <time>2015-08-30T10:07:00Z</time>
      </trkpt>
      <trkpt lat="34.1015" lon="77.13">
        <ele>4126.8</ele>
        <time>2015-08-30T10:07:22Z</time>
      </trkpt>
      <trkpt lat="34.10149" lon="77.13001">
        <ele>4125.6</ele>
        <time>2015-08-30T10:07:38Z</time>
      </trkpt>
      <trkpt lat="34.10146" lon="77.12997">
        <ele>4126.8</ele>
        <time>2015-08-30T10:07:42Z</time>
      </trkpt>
      <trkpt lat="34.10147" lon="77.12998">
        <ele>4126.8</ele>
        <time>2015-08-30T10:08:19Z</time>
      </trkpt>
      <trkpt lat="34.1015" lon="77.13008">
        <ele>4126.6</ele>
        <time>2015-08-30T10:08:53Z</time>
      </trkpt>
      <trkpt lat="34.10146" lon="77.13009">
        <ele>4128</ele>
        <time>2015-08-30T10:09:07Z</time>
      </trkpt>
      <trkpt lat="34.10148" lon="77.13005">
        <ele>4127</ele>
        <time>2015-08-30T10:09:51Z</time>
      </trkpt>
      <trkpt lat="34.10147" lon="77.13006">
        <ele>4126.4</ele>
        <time>2015-08-30T10:09:54Z</time>
      </trkpt>
      <trkpt lat="34.10148" lon="77.13006">
        <ele>4126</ele>
        <time>2015-08-30T10:09:58Z</time>
      </trkpt>
      <trkpt lat="34.10141" lon="77.13008">
        <ele>4127</ele>
        <time>2015-08-30T10:10:15Z</time>
      </trkpt>
      <trkpt lat="34.10145" lon="77.13004">
        <ele>4127.4</ele>
        <time>2015-08-30T10:11:16Z</time>
      </trkpt>
      <trkpt lat="34.10142" lon="77.13014">
        <ele>4126</ele>
        <time>2015-08-30T10:11:52Z</time>
      </trkpt>
      <trkpt lat="34.10145" lon="77.13021">
        <ele>4124.8</ele>
        <time>2015-08-30T10:11:57Z</time>
      </trkpt>
      <trkpt lat="34.10146" lon="77.13024">
        <ele>4124.4</ele>
        <time>2015-08-30T10:11:59Z</time>
      </trkpt>
      <trkpt lat="34.10149" lon="77.13035">
        <ele>4123.8</ele>
        <time>2015-08-30T10:12:07Z</time>
      </trkpt>
      <trkpt lat="34.10148" lon="77.13041">
        <ele>4122.8</ele>
        <time>2015-08-30T10:12:12Z</time>
      </trkpt>
      <trkpt lat="34.10146" lon="77.13047">
        <ele>4121.6</ele>
        <time>2015-08-30T10:12:17Z</time>
      </trkpt>
      <trkpt lat="34.10141" lon="77.13058">
        <ele>4120.6</ele>
        <time>2015-08-30T10:12:26Z</time>
      </trkpt>
      <trkpt lat="34.10146" lon="77.13074">
        <ele>4119.6</ele>
        <time>2015-08-30T10:12:36Z</time>
      </trkpt>
      <trkpt lat="34.10145" lon="77.13084">
        <ele>4118.4</ele>
        <time>2015-08-30T10:12:45Z</time>
      </trkpt>
      <trkpt lat="34.10145" lon="77.13094">
        <ele>4117.2</ele>
        <time>2015-08-30T10:12:53Z</time>
      </trkpt>
      <trkpt lat="34.10143" lon="77.13105">
        <ele>4116.8</ele>
        <time>2015-08-30T10:13:00Z</time>
      </trkpt>
      <trkpt lat="34.10152" lon="77.13112">
        <ele>4117</ele>
        <time>2015-08-30T10:13:05Z</time>
      </trkpt>
      <trkpt lat="34.10149" lon="77.13129">
        <ele>4116.2</ele>
        <time>2015-08-30T10:13:17Z</time>
      </trkpt>
      <trkpt lat="34.10148" lon="77.13149">
        <ele>4117.4</ele>
        <time>2015-08-30T10:13:35Z</time>
      </trkpt>
      <trkpt lat="34.1015" lon="77.13163">
        <ele>4116</ele>
        <time>2015-08-30T10:13:45Z</time>
      </trkpt>
      <trkpt lat="34.10156" lon="77.1317">
        <ele>4114.8</ele>
        <time>2015-08-30T10:13:50Z</time>
      </trkpt>
      <trkpt lat="34.10157" lon="77.13179">
        <ele>4113.6</ele>
        <time>2015-08-30T10:13:57Z</time>
      </trkpt>
      <trkpt lat="34.10155" lon="77.13185">
        <ele>4112.6</ele>
        <time>2015-08-30T10:14:02Z</time>
      </trkpt>
      <trkpt lat="34.10153" lon="77.13191">
        <ele>4111.4</ele>
        <time>2015-08-30T10:14:07Z</time>
      </trkpt>
      <trkpt lat="34.10151" lon="77.13195">
        <ele>4110.4</ele>
        <time>2015-08-30T10:14:11Z</time>
      </trkpt>
      <trkpt lat="34.10143" lon="77.13208">
        <ele>4109.2</ele>
        <time>2015-08-30T10:14:23Z</time>
      </trkpt>
      <trkpt lat="34.10141" lon="77.13217">
        <ele>4108.2</ele>
        <time>2015-08-30T10:14:29Z</time>
      </trkpt>
      <trkpt lat="34.1013" lon="77.13233">
        <ele>4107</ele>
        <time>2015-08-30T10:14:39Z</time>
      </trkpt>
      <trkpt lat="34.10135" lon="77.13242">
        <ele>4106</ele>
        <time>2015-08-30T10:14:44Z</time>
      </trkpt>
      <trkpt lat="34.10134" lon="77.13248">
        <ele>4105.6</ele>
        <time>2015-08-30T10:14:47Z</time>
      </trkpt>
      <trkpt lat="34.10134" lon="77.13267">
        <ele>4104.8</ele>
        <time>2015-08-30T10:15:02Z</time>
      </trkpt>
      <trkpt lat="34.10126" lon="77.13287">
        <ele>4104.2</ele>
        <time>2015-08-30T10:15:17Z</time>
      </trkpt>
      <trkpt lat="34.10125" lon="77.13289">
        <ele>4104.4</ele>
        <time>2015-08-30T10:15:19Z</time>
      </trkpt>
      <trkpt lat="34.10129" lon="77.13309">
        <ele>4104.4</ele>
        <time>2015-08-30T10:15:33Z</time>
      </trkpt>
      <trkpt lat="34.10129" lon="77.13319">
        <ele>4105.8</ele>
        <time>2015-08-30T10:15:42Z</time>
      </trkpt>
      <trkpt lat="34.10134" lon="77.13321">
        <ele>4106.2</ele>
        <time>2015-08-30T10:15:44Z</time>
      </trkpt>
      <trkpt lat="34.10133" lon="77.13327">
        <ele>4107</ele>
        <time>2015-08-30T10:15:48Z</time>
      </trkpt>
      <trkpt lat="34.10139" lon="77.13341">
        <ele>4108</ele>
        <time>2015-08-30T10:15:59Z</time>
      </trkpt>
      <trkpt lat="34.10133" lon="77.13357">
        <ele>4109</ele>
        <time>2015-08-30T10:16:11Z</time>
      </trkpt>
      <trkpt lat="34.10133" lon="77.13364">
        <ele>4110.2</ele>
        <time>2015-08-30T10:16:17Z</time>
      </trkpt>
      <trkpt lat="34.1013" lon="77.13372">
        <ele>4111.2</ele>
        <time>2015-08-30T10:16:23Z</time>
      </trkpt>
      <trkpt lat="34.10124" lon="77.13377">
        <ele>4110</ele>
        <time>2015-08-30T10:16:33Z</time>
      </trkpt>
      <trkpt lat="34.10124" lon="77.13377">
        <ele>4109.8</ele>
        <time>2015-08-30T10:16:34Z</time>
      </trkpt>
      <trkpt lat="34.10121" lon="77.13385">
        <ele>4109</ele>
        <time>2015-08-30T10:16:39Z</time>
      </trkpt>
      <trkpt lat="34.10117" lon="77.13388">
        <ele>4107.8</ele>
        <time>2015-08-30T10:16:44Z</time>
      </trkpt>
      <trkpt lat="34.10115" lon="77.13386">
        <ele>4107</ele>
        <time>2015-08-30T10:16:48Z</time>
      </trkpt>
      <trkpt lat="34.10114" lon="77.13385">
        <ele>4107</ele>
        <time>2015-08-30T10:16:50Z</time>
      </trkpt>
      <trkpt lat="34.10113" lon="77.13385">
        <ele>4106.8</ele>
        <time>2015-08-30T10:16:51Z</time>
      </trkpt>
      <trkpt lat="34.1011" lon="77.13393">
        <ele>4105.6</ele>
        <time>2015-08-30T10:16:57Z</time>
      </trkpt>
      <trkpt lat="34.10109" lon="77.13398">
        <ele>4104.8</ele>
        <time>2015-08-30T10:17:00Z</time>
      </trkpt>
      <trkpt lat="34.10108" lon="77.134">
        <ele>4104.4</ele>
        <time>2015-08-30T10:17:01Z</time>
      </trkpt>
      <trkpt lat="34.10107" lon="77.13406">
        <ele>4103.4</ele>
        <time>2015-08-30T10:17:04Z</time>
      </trkpt>
      <trkpt lat="34.10104" lon="77.13413">
        <ele>4102.4</ele>
        <time>2015-08-30T10:17:09Z</time>
      </trkpt>
      <trkpt lat="34.10104" lon="77.13414">
        <ele>4102.2</ele>
        <time>2015-08-30T10:17:10Z</time>
      </trkpt>
      <trkpt lat="34.10104" lon="77.13423">
        <ele>4101.4</ele>
        <time>2015-08-30T10:17:16Z</time>
      </trkpt>
      <trkpt lat="34.10104" lon="77.13425">
        <ele>4101.2</ele>
        <time>2015-08-30T10:17:17Z</time>
      </trkpt>
      <trkpt lat="34.10103" lon="77.13432">
        <ele>4100.2</ele>
        <time>2015-08-30T10:17:22Z</time>
      </trkpt>
      <trkpt lat="34.10098" lon="77.13449">
        <ele>4099</ele>
        <time>2015-08-30T10:17:33Z</time>
      </trkpt>
      <trkpt lat="34.10099" lon="77.13458">
        <ele>4098</ele>
        <time>2015-08-30T10:17:38Z</time>
      </trkpt>
      <trkpt lat="34.101" lon="77.13467">
        <ele>4097</ele>
        <time>2015-08-30T10:17:43Z</time>
      </trkpt>
      <trkpt lat="34.10096" lon="77.13475">
        <ele>4095.8</ele>
        <time>2015-08-30T10:17:49Z</time>
      </trkpt>
      <trkpt lat="34.10094" lon="77.13497">
        <ele>4095.2</ele>
        <time>2015-08-30T10:18:08Z</time>
      </trkpt>
      <trkpt lat="34.10098" lon="77.13519">
        <ele>4095.2</ele>
        <time>2015-08-30T10:18:23Z</time>
      </trkpt>
      <trkpt lat="34.10098" lon="77.13522">
        <ele>4094.8</ele>
        <time>2015-08-30T10:18:25Z</time>
      </trkpt>
      <trkpt lat="34.10092" lon="77.13529">
        <ele>4093.6</ele>
        <time>2015-08-30T10:18:34Z</time>
      </trkpt>
      <trkpt lat="34.10088" lon="77.13538">
        <ele>4092.6</ele>
        <time>2015-08-30T10:18:43Z</time>
      </trkpt>
      <trkpt lat="34.10082" lon="77.13554">
        <ele>4092</ele>
        <time>2015-08-30T10:18:54Z</time>
      </trkpt>
      <trkpt lat="34.10079" lon="77.13561">
        <ele>4091.6</ele>
        <time>2015-08-30T10:18:59Z</time>
      </trkpt>
      <trkpt lat="34.10071" lon="77.13574">
        <ele>4090.4</ele>
        <time>2015-08-30T10:19:10Z</time>
      </trkpt>
      <trkpt lat="34.10067" lon="77.13577">
        <ele>4090</ele>
        <time>2015-08-30T10:19:13Z</time>
      </trkpt>
      <trkpt lat="34.10065" lon="77.13578">
        <ele>4090</ele>
        <time>2015-08-30T10:19:15Z</time>
      </trkpt>
      <trkpt lat="34.10061" lon="77.13583">
        <ele>4089.4</ele>
        <time>2015-08-30T10:19:21Z</time>
      </trkpt>
      <trkpt lat="34.10061" lon="77.13583">
        <ele>4089.4</ele>
        <time>2015-08-30T10:19:22Z</time>
      </trkpt>
      <trkpt lat="34.10061" lon="77.13582">
        <ele>4088.6</ele>
        <time>2015-08-30T10:19:25Z</time>
      </trkpt>
      <trkpt lat="34.10063" lon="77.13581">
        <ele>4088.2</ele>
        <time>2015-08-30T10:19:26Z</time>
      </trkpt>
      <trkpt lat="34.10066" lon="77.13582">
        <ele>4087.2</ele>
        <time>2015-08-30T10:19:35Z</time>
      </trkpt>
      <trkpt lat="34.10062" lon="77.13585">
        <ele>4086.8</ele>
        <time>2015-08-30T10:19:39Z</time>
      </trkpt>
      <trkpt lat="34.10059" lon="77.13588">
        <ele>4086.4</ele>
        <time>2015-08-30T10:19:41Z</time>
      </trkpt>
      <trkpt lat="34.10058" lon="77.13589">
        <ele>4086</ele>
        <time>2015-08-30T10:19:42Z</time>
      </trkpt>
      <trkpt lat="34.10055" lon="77.13592">
        <ele>4084.8</ele>
        <time>2015-08-30T10:19:46Z</time>
      </trkpt>
      <trkpt lat="34.10054" lon="77.13593">
        <ele>4084.6</ele>
        <time>2015-08-30T10:19:47Z</time>
      </trkpt>
      <trkpt lat="34.10051" lon="77.13594">
        <ele>4084</ele>
        <time>2015-08-30T10:19:50Z</time>
      </trkpt>
      <trkpt lat="34.1005" lon="77.13594">
        <ele>4083.6</ele>
        <time>2015-08-30T10:19:51Z</time>
      </trkpt>
      <trkpt lat="34.10045" lon="77.13599">
        <ele>4083.2</ele>
        <time>2015-08-30T10:19:57Z</time>
      </trkpt>
      <trkpt lat="34.1004" lon="77.13604">
        <ele>4082.6</ele>
        <time>2015-08-30T10:20:02Z</time>
      </trkpt>
      <trkpt lat="34.10033" lon="77.13612">
        <ele>4082.2</ele>
        <time>2015-08-30T10:20:12Z</time>
      </trkpt>
      <trkpt lat="34.10029" lon="77.13615">
        <ele>4081.6</ele>
        <time>2015-08-30T10:20:17Z</time>
      </trkpt>
      <trkpt lat="34.10028" lon="77.13615">
        <ele>4081.4</ele>
        <time>2015-08-30T10:20:18Z</time>
      </trkpt>
      <trkpt lat="34.10023" lon="77.13619">
        <ele>4080.4</ele>
        <time>2015-08-30T10:20:23Z</time>
      </trkpt>
      <trkpt lat="34.10016" lon="77.13628">
        <ele>4079.4</ele>
        <time>2015-08-30T10:20:33Z</time>
      </trkpt>
      <trkpt lat="34.10011" lon="77.13633">
        <ele>4078.2</ele>
        <time>2015-08-30T10:20:38Z</time>
      </trkpt>
      <trkpt lat="34.10008" lon="77.13638">
        <ele>4078.2</ele>
        <time>2015-08-30T10:20:43Z</time>
      </trkpt>
      <trkpt lat="34.1" lon="77.13658">
        <ele>4077.6</ele>
        <time>2015-08-30T10:20:56Z</time>
      </trkpt>
      <trkpt lat="34.09996" lon="77.13661">
        <ele>4077.2</ele>
        <time>2015-08-30T10:21:02Z</time>
      </trkpt>
      <trkpt lat="34.09989" lon="77.13672">
        <ele>4076.2</ele>
        <time>2015-08-30T10:21:11Z</time>
      </trkpt>
      <trkpt lat="34.09972" lon="77.13682">
        <ele>4075.2</ele>
        <time>2015-08-30T10:21:27Z</time>
      </trkpt>
      <trkpt lat="34.09969" lon="77.13687">
        <ele>4075.2</ele>
        <time>2015-08-30T10:21:31Z</time>
      </trkpt>
      <trkpt lat="34.09958" lon="77.13688">
        <ele>4074</ele>
        <time>2015-08-30T10:21:44Z</time>
      </trkpt>
      <trkpt lat="34.09942" lon="77.13701">
        <ele>4073.6</ele>
        <time>2015-08-30T10:21:56Z</time>
      </trkpt>
      <trkpt lat="34.0994" lon="77.13702">
        <ele>4073</ele>
        <time>2015-08-30T10:21:59Z</time>
      </trkpt>
      <trkpt lat="34.09938" lon="77.13703">
        <ele>4072.6</ele>
        <time>2015-08-30T10:22:01Z</time>
      </trkpt>
      <trkpt lat="34.09936" lon="77.13706">
        <ele>4071.8</ele>
        <time>2015-08-30T10:22:04Z</time>
      </trkpt>
      <trkpt lat="34.09932" lon="77.13709">
        <ele>4070.8</ele>
        <time>2015-08-30T10:22:09Z</time>
      </trkpt>
      <trkpt lat="34.09917" lon="77.13712">
        <ele>4069.6</ele>
        <time>2015-08-30T10:22:22Z</time>
      </trkpt>
      <trkpt lat="34.09912" lon="77.13715">
        <ele>4068.4</ele>
        <time>2015-08-30T10:22:28Z</time>
      </trkpt>
      <trkpt lat="34.09906" lon="77.13723">
        <ele>4067.4</ele>
        <time>2015-08-30T10:22:35Z</time>
      </trkpt>
      <trkpt lat="34.09901" lon="77.13728">
        <ele>4066.2</ele>
        <time>2015-08-30T10:22:39Z</time>
      </trkpt>
      <trkpt lat="34.09896" lon="77.1373">
        <ele>4065.2</ele>
        <time>2015-08-30T10:22:45Z</time>
      </trkpt>
      <trkpt lat="34.09886" lon="77.13735">
        <ele>4064</ele>
        <time>2015-08-30T10:22:54Z</time>
      </trkpt>
      <trkpt lat="34.09879" lon="77.13736">
        <ele>4063.8</ele>
        <time>2015-08-30T10:23:00Z</time>
      </trkpt>
      <trkpt lat="34.09862" lon="77.13743">
        <ele>4063.6</ele>
        <time>2015-08-30T10:23:15Z</time>
      </trkpt>
      <trkpt lat="34.09846" lon="77.13748">
        <ele>4064.2</ele>
        <time>2015-08-30T10:23:39Z</time>
      </trkpt>
      <trkpt lat="34.09845" lon="77.13749">
        <ele>4064.2</ele>
        <time>2015-08-30T10:23:40Z</time>
      </trkpt>
      <trkpt lat="34.09833" lon="77.13764">
        <ele>4063</ele>
        <time>2015-08-30T10:23:56Z</time>
      </trkpt>
      <trkpt lat="34.09826" lon="77.13772">
        <ele>4062.8</ele>
        <time>2015-08-30T10:24:02Z</time>
      </trkpt>
      <trkpt lat="34.09815" lon="77.13786">
        <ele>4062.4</ele>
        <time>2015-08-30T10:24:13Z</time>
      </trkpt>
      <trkpt lat="34.09811" lon="77.13789">
        <ele>4062</ele>
        <time>2015-08-30T10:24:19Z</time>
      </trkpt>
      <trkpt lat="34.09811" lon="77.13791">
        <ele>4061.6</ele>
        <time>2015-08-30T10:24:21Z</time>
      </trkpt>
      <trkpt lat="34.0981" lon="77.13797">
        <ele>4061.6</ele>
        <time>2015-08-30T10:24:25Z</time>
      </trkpt>
      <trkpt lat="34.09808" lon="77.13803">
        <ele>4062.4</ele>
        <time>2015-08-30T10:24:29Z</time>
      </trkpt>
      <trkpt lat="34.09806" lon="77.13806">
        <ele>4063</ele>
        <time>2015-08-30T10:24:32Z</time>
      </trkpt>
      <trkpt lat="34.09806" lon="77.13807">
        <ele>4063</ele>
        <time>2015-08-30T10:24:34Z</time>
      </trkpt>
      <trkpt lat="34.09806" lon="77.13818">
        <ele>4062.2</ele>
        <time>2015-08-30T10:24:45Z</time>
      </trkpt>
      <trkpt lat="34.09803" lon="77.13821">
        <ele>4063</ele>
        <time>2015-08-30T10:24:48Z</time>
      </trkpt>
      <trkpt lat="34.09803" lon="77.13823">
        <ele>4064</ele>
        <time>2015-08-30T10:24:52Z</time>
      </trkpt>
      <trkpt lat="34.09811" lon="77.13827">
        <ele>4065.2</ele>
        <time>2015-08-30T10:24:57Z</time>
      </trkpt>
      <trkpt lat="34.0981" lon="77.13832">
        <ele>4066.2</ele>
        <time>2015-08-30T10:25:03Z</time>
      </trkpt>
      <trkpt lat="34.0981" lon="77.13833">
        <ele>4066.2</ele>
        <time>2015-08-30T10:25:04Z</time>
      </trkpt>
      <trkpt lat="34.09812" lon="77.13838">
        <ele>4067.4</ele>
        <time>2015-08-30T10:25:18Z</time>
      </trkpt>
      <trkpt lat="34.09808" lon="77.1385">
        <ele>4068.2</ele>
        <time>2015-08-30T10:25:32Z</time>
      </trkpt>
      <trkpt lat="34.09808" lon="77.13853">
        <ele>4068.4</ele>
        <time>2015-08-30T10:25:35Z</time>
      </trkpt>
      <trkpt lat="34.09807" lon="77.13859">
        <ele>4068.4</ele>
        <time>2015-08-30T10:25:41Z</time>
      </trkpt>
      <trkpt lat="34.09806" lon="77.13861">
        <ele>4068.4</ele>
        <time>2015-08-30T10:25:43Z</time>
      </trkpt>
      <trkpt lat="34.09805" lon="77.13862">
        <ele>4068.4</ele>
        <time>2015-08-30T10:25:44Z</time>
      </trkpt>
      <trkpt lat="34.09801" lon="77.13865">
        <ele>4069.4</ele>
        <time>2015-08-30T10:25:51Z</time>
      </trkpt>
      <trkpt lat="34.09802" lon="77.13868">
        <ele>4069.6</ele>
        <time>2015-08-30T10:26:10Z</time>
      </trkpt>
      <trkpt lat="34.09801" lon="77.13873">
        <ele>4069.8</ele>
        <time>2015-08-30T10:26:15Z</time>
      </trkpt>
      <trkpt lat="34.09798" lon="77.13879">
        <ele>4070.6</ele>
        <time>2015-08-30T10:26:21Z</time>
      </trkpt>
      <trkpt lat="34.09797" lon="77.1388">
        <ele>4070.8</ele>
        <time>2015-08-30T10:26:22Z</time>
      </trkpt>
      <trkpt lat="34.09795" lon="77.13884">
        <ele>4071.2</ele>
        <time>2015-08-30T10:26:25Z</time>
      </trkpt>
      <trkpt lat="34.09791" lon="77.13888">
        <ele>4071.4</ele>
        <time>2015-08-30T10:26:29Z</time>
      </trkpt>
      <trkpt lat="34.0979" lon="77.13898">
        <ele>4071.8</ele>
        <time>2015-08-30T10:26:34Z</time>
      </trkpt>
      <trkpt lat="34.09783" lon="77.1391">
        <ele>4070.8</ele>
        <time>2015-08-30T10:26:51Z</time>
      </trkpt>
      <trkpt lat="34.09778" lon="77.13915">
        <ele>4070</ele>
        <time>2015-08-30T10:26:59Z</time>
      </trkpt>
      <trkpt lat="34.09771" lon="77.13919">
        <ele>4070</ele>
        <time>2015-08-30T10:27:05Z</time>
      </trkpt>
      <trkpt lat="34.09769" lon="77.13923">
        <ele>4070</ele>
        <time>2015-08-30T10:27:07Z</time>
      </trkpt>
      <trkpt lat="34.09764" lon="77.1393">
        <ele>4069.8</ele>
        <time>2015-08-30T10:27:15Z</time>
      </trkpt>
      <trkpt lat="34.09759" lon="77.13933">
        <ele>4069.6</ele>
        <time>2015-08-30T10:27:19Z</time>
      </trkpt>
      <trkpt lat="34.09748" lon="77.13938">
        <ele>4070</ele>
        <time>2015-08-30T10:27:27Z</time>
      </trkpt>
      <trkpt lat="34.09739" lon="77.13942">
        <ele>4070.6</ele>
        <time>2015-08-30T10:27:39Z</time>
      </trkpt>
      <trkpt lat="34.09738" lon="77.13943">
        <ele>4070.8</ele>
        <time>2015-08-30T10:27:41Z</time>
      </trkpt>
      <trkpt lat="34.09737" lon="77.13943">
        <ele>4071</ele>
        <time>2015-08-30T10:27:42Z</time>
      </trkpt>
      <trkpt lat="34.09727" lon="77.13951">
        <ele>4071.6</ele>
        <time>2015-08-30T10:27:56Z</time>
      </trkpt>
      <trkpt lat="34.09722" lon="77.13956">
        <ele>4071.8</ele>
        <time>2015-08-30T10:28:02Z</time>
      </trkpt>
      <trkpt lat="34.09713" lon="77.13965">
        <ele>4071.6</ele>
        <time>2015-08-30T10:28:11Z</time>
      </trkpt>
      <trkpt lat="34.09718" lon="77.13973">
        <ele>4071.2</ele>
        <time>2015-08-30T10:28:16Z</time>
      </trkpt>
      <trkpt lat="34.09724" lon="77.13978">
        <ele>4071.4</ele>
        <time>2015-08-30T10:28:22Z</time>
      </trkpt>
      <trkpt lat="34.09732" lon="77.13982">
        <ele>4072.8</ele>
        <time>2015-08-30T10:28:29Z</time>
      </trkpt>
      <trkpt lat="34.09734" lon="77.13982">
        <ele>4073.4</ele>
        <time>2015-08-30T10:28:31Z</time>
      </trkpt>
      <trkpt lat="34.09735" lon="77.13982">
        <ele>4073.8</ele>
        <time>2015-08-30T10:28:33Z</time>
      </trkpt>
      <trkpt lat="34.09737" lon="77.13982">
        <ele>4074</ele>
        <time>2015-08-30T10:28:34Z</time>
      </trkpt>
      <trkpt lat="34.09742" lon="77.13987">
        <ele>4075</ele>
        <time>2015-08-30T10:28:43Z</time>
      </trkpt>
      <trkpt lat="34.09744" lon="77.1399">
        <ele>4075.6</ele>
        <time>2015-08-30T10:28:47Z</time>
      </trkpt>
      <trkpt lat="34.09752" lon="77.13993">
        <ele>4075.6</ele>
        <time>2015-08-30T10:28:55Z</time>
      </trkpt>
      <trkpt lat="34.09753" lon="77.13995">
        <ele>4075.6</ele>
        <time>2015-08-30T10:28:58Z</time>
      </trkpt>
      <trkpt lat="34.0975" lon="77.14">
        <ele>4075.2</ele>
        <time>2015-08-30T10:29:02Z</time>
      </trkpt>
      <trkpt lat="34.09747" lon="77.14004">
        <ele>4074.8</ele>
        <time>2015-08-30T10:29:06Z</time>
      </trkpt>
      <trkpt lat="34.09746" lon="77.14006">
        <ele>4074.6</ele>
        <time>2015-08-30T10:29:08Z</time>
      </trkpt>
      <trkpt lat="34.09732" lon="77.14021">
        <ele>4074</ele>
        <time>2015-08-30T10:29:25Z</time>
      </trkpt>
      <trkpt lat="34.09731" lon="77.14024">
        <ele>4073.8</ele>
        <time>2015-08-30T10:29:27Z</time>
      </trkpt>
      <trkpt lat="34.09727" lon="77.14033">
        <ele>4073.6</ele>
        <time>2015-08-30T10:29:33Z</time>
      </trkpt>
      <trkpt lat="34.09722" lon="77.14049">
        <ele>4073.6</ele>
        <time>2015-08-30T10:29:43Z</time>
      </trkpt>
      <trkpt lat="34.0972" lon="77.14051">
        <ele>4073.8</ele>
        <time>2015-08-30T10:29:45Z</time>
      </trkpt>
      <trkpt lat="34.09714" lon="77.14072">
        <ele>4074.6</ele>
        <time>2015-08-30T10:30:03Z</time>
      </trkpt>
      <trkpt lat="34.09714" lon="77.14082">
        <ele>4075</ele>
        <time>2015-08-30T10:30:15Z</time>
      </trkpt>
      <trkpt lat="34.09712" lon="77.14089">
        <ele>4075.2</ele>
        <time>2015-08-30T10:30:22Z</time>
      </trkpt>
      <trkpt lat="34.09707" lon="77.14109">
        <ele>4075.4</ele>
        <time>2015-08-30T10:30:35Z</time>
      </trkpt>
      <trkpt lat="34.09708" lon="77.14118">
        <ele>4075.2</ele>
        <time>2015-08-30T10:30:44Z</time>
      </trkpt>
      <trkpt lat="34.09706" lon="77.1414">
        <ele>4075.6</ele>
        <time>2015-08-30T10:31:09Z</time>
      </trkpt>
      <trkpt lat="34.09705" lon="77.14143">
        <ele>4075.6</ele>
        <time>2015-08-30T10:31:13Z</time>
      </trkpt>
      <trkpt lat="34.09692" lon="77.1416">
        <ele>4075.2</ele>
        <time>2015-08-30T10:31:30Z</time>
      </trkpt>
      <trkpt lat="34.09681" lon="77.14174">
        <ele>4075.8</ele>
        <time>2015-08-30T10:31:55Z</time>
      </trkpt>
      <trkpt lat="34.09681" lon="77.1418">
        <ele>4076.2</ele>
        <time>2015-08-30T10:31:57Z</time>
      </trkpt>
      <trkpt lat="34.09677" lon="77.14206">
        <ele>4076</ele>
        <time>2015-08-30T10:32:16Z</time>
      </trkpt>
      <trkpt lat="34.09668" lon="77.14225">
        <ele>4076</ele>
        <time>2015-08-30T10:32:27Z</time>
      </trkpt>
      <trkpt lat="34.09662" lon="77.14234">
        <ele>4075.6</ele>
        <time>2015-08-30T10:32:32Z</time>
      </trkpt>
      <trkpt lat="34.09656" lon="77.14245">
        <ele>4075.8</ele>
        <time>2015-08-30T10:32:41Z</time>
      </trkpt>
      <trkpt lat="34.09654" lon="77.14249">
        <ele>4076.2</ele>
        <time>2015-08-30T10:32:47Z</time>
      </trkpt>
      <trkpt lat="34.09644" lon="77.14254">
        <ele>4077.2</ele>
        <time>2015-08-30T10:32:59Z</time>
      </trkpt>
      <trkpt lat="34.0964" lon="77.14258">
        <ele>4077.6</ele>
        <time>2015-08-30T10:33:06Z</time>
      </trkpt>
      <trkpt lat="34.09638" lon="77.14264">
        <ele>4077.8</ele>
        <time>2015-08-30T10:33:11Z</time>
      </trkpt>
      <trkpt lat="34.09637" lon="77.14265">
        <ele>4078.2</ele>
        <time>2015-08-30T10:33:13Z</time>
      </trkpt>
      <trkpt lat="34.09637" lon="77.14265">
        <ele>4078.4</ele>
        <time>2015-08-30T10:33:14Z</time>
      </trkpt>
      <trkpt lat="34.09632" lon="77.14268">
        <ele>4078.8</ele>
        <time>2015-08-30T10:33:21Z</time>
      </trkpt>
      <trkpt lat="34.09622" lon="77.14269">
        <ele>4077.4</ele>
        <time>2015-08-30T10:33:31Z</time>
      </trkpt>
      <trkpt lat="34.09622" lon="77.14271">
        <ele>4077.2</ele>
        <time>2015-08-30T10:33:32Z</time>
      </trkpt>
      <trkpt lat="34.09621" lon="77.14275">
        <ele>4076.8</ele>
        <time>2015-08-30T10:33:34Z</time>
      </trkpt>
      <trkpt lat="34.09619" lon="77.14281">
        <ele>4077</ele>
        <time>2015-08-30T10:33:38Z</time>
      </trkpt>
      <trkpt lat="34.09618" lon="77.14285">
        <ele>4077.4</ele>
        <time>2015-08-30T10:33:42Z</time>
      </trkpt>
      <trkpt lat="34.09604" lon="77.14298">
        <ele>4076.4</ele>
        <time>2015-08-30T10:33:59Z</time>
      </trkpt>
      <trkpt lat="34.09602" lon="77.14302">
        <ele>4076.2</ele>
        <time>2015-08-30T10:34:06Z</time>
      </trkpt>
      <trkpt lat="34.09601" lon="77.14303">
        <ele>4076.2</ele>
        <time>2015-08-30T10:34:07Z</time>
      </trkpt>
      <trkpt lat="34.096" lon="77.14306">
        <ele>4075</ele>
        <time>2015-08-30T10:34:11Z</time>
      </trkpt>
      <trkpt lat="34.09598" lon="77.14311">
        <ele>4073.8</ele>
        <time>2015-08-30T10:34:15Z</time>
      </trkpt>
      <trkpt lat="34.09596" lon="77.14314">
        <ele>4072.6</ele>
        <time>2015-08-30T10:34:18Z</time>
      </trkpt>
      <trkpt lat="34.09594" lon="77.1432">
        <ele>4071.8</ele>
        <time>2015-08-30T10:34:21Z</time>
      </trkpt>
      <trkpt lat="34.09594" lon="77.14321">
        <ele>4071.6</ele>
        <time>2015-08-30T10:34:22Z</time>
      </trkpt>
      <trkpt lat="34.09585" lon="77.14339">
        <ele>4072.8</ele>
        <time>2015-08-30T10:34:34Z</time>
      </trkpt>
      <trkpt lat="34.09582" lon="77.14341">
        <ele>4073.2</ele>
        <time>2015-08-30T10:34:37Z</time>
      </trkpt>
      <trkpt lat="34.09582" lon="77.14344">
        <ele>4073.8</ele>
        <time>2015-08-30T10:34:39Z</time>
      </trkpt>
      <trkpt lat="34.09582" lon="77.14345">
        <ele>4074</ele>
        <time>2015-08-30T10:34:40Z</time>
      </trkpt>
      <trkpt lat="34.09583" lon="77.14346">
        <ele>4074.2</ele>
        <time>2015-08-30T10:34:41Z</time>
      </trkpt>
      <trkpt lat="34.09583" lon="77.14344">
        <ele>4074.8</ele>
        <time>2015-08-30T10:34:48Z</time>
      </trkpt>
      <trkpt lat="34.09586" lon="77.14345">
        <ele>4075.2</ele>
        <time>2015-08-30T10:34:55Z</time>
      </trkpt>
      <trkpt lat="34.09583" lon="77.1435">
        <ele>4076.2</ele>
        <time>2015-08-30T10:35:18Z</time>
      </trkpt>
      <trkpt lat="34.09581" lon="77.14356">
        <ele>4077.4</ele>
        <time>2015-08-30T10:35:25Z</time>
      </trkpt>
      <trkpt lat="34.09581" lon="77.14357">
        <ele>4077.4</ele>
        <time>2015-08-30T10:35:26Z</time>
      </trkpt>
      <trkpt lat="34.09581" lon="77.14359">
        <ele>4077.8</ele>
        <time>2015-08-30T10:35:29Z</time>
      </trkpt>
      <trkpt lat="34.09581" lon="77.14356">
        <ele>4078.4</ele>
        <time>2015-08-30T10:35:32Z</time>
      </trkpt>
      <trkpt lat="34.09585" lon="77.14356">
        <ele>4079.4</ele>
        <time>2015-08-30T10:35:42Z</time>
      </trkpt>
      <trkpt lat="34.0959" lon="77.14357">
        <ele>4080.4</ele>
        <time>2015-08-30T10:35:48Z</time>
      </trkpt>
      <trkpt lat="34.0959" lon="77.14358">
        <ele>4080.4</ele>
        <time>2015-08-30T10:35:49Z</time>
      </trkpt>
      <trkpt lat="34.09594" lon="77.14357">
        <ele>4080.8</ele>
        <time>2015-08-30T10:35:52Z</time>
      </trkpt>
      <trkpt lat="34.09597" lon="77.14358">
        <ele>4081</ele>
        <time>2015-08-30T10:35:55Z</time>
      </trkpt>
      <trkpt lat="34.09602" lon="77.14358">
        <ele>4081.2</ele>
        <time>2015-08-30T10:35:59Z</time>
      </trkpt>
      <trkpt lat="34.09601" lon="77.14358">
        <ele>4081.6</ele>
        <time>2015-08-30T10:36:02Z</time>
      </trkpt>
      <trkpt lat="34.09599" lon="77.14362">
        <ele>4082.6</ele>
        <time>2015-08-30T10:36:07Z</time>
      </trkpt>
      <trkpt lat="34.09598" lon="77.14366">
        <ele>4082.8</ele>
        <time>2015-08-30T10:36:10Z</time>
      </trkpt>
      <trkpt lat="34.09597" lon="77.1437">
        <ele>4082.6</ele>
        <time>2015-08-30T10:36:14Z</time>
      </trkpt>
      <trkpt lat="34.09597" lon="77.1437">
        <ele>4082.6</ele>
        <time>2015-08-30T10:36:16Z</time>
      </trkpt>
      <trkpt lat="34.09594" lon="77.1437">
        <ele>4082.6</ele>
        <time>2015-08-30T10:36:19Z</time>
      </trkpt>
      <trkpt lat="34.09593" lon="77.14374">
        <ele>4083.6</ele>
        <time>2015-08-30T10:36:29Z</time>
      </trkpt>
      <trkpt lat="34.09593" lon="77.14381">
        <ele>4084.4</ele>
        <time>2015-08-30T10:36:36Z</time>
      </trkpt>
      <trkpt lat="34.09592" lon="77.14386">
        <ele>4084.6</ele>
        <time>2015-08-30T10:36:39Z</time>
      </trkpt>
      <trkpt lat="34.09593" lon="77.14388">
        <ele>4084.6</ele>
        <time>2015-08-30T10:36:40Z</time>
      </trkpt>
      <trkpt lat="34.09593" lon="77.1439">
        <ele>4084.8</ele>
        <time>2015-08-30T10:36:41Z</time>
      </trkpt>
      <trkpt lat="34.09592" lon="77.14393">
        <ele>4085</ele>
        <time>2015-08-30T10:36:43Z</time>
      </trkpt>
      <trkpt lat="34.09592" lon="77.14395">
        <ele>4085.2</ele>
        <time>2015-08-30T10:36:45Z</time>
      </trkpt>
      <trkpt lat="34.09592" lon="77.14398">
        <ele>4085.2</ele>
        <time>2015-08-30T10:36:47Z</time>
      </trkpt>
      <trkpt lat="34.0959" lon="77.14398">
        <ele>4085.4</ele>
        <time>2015-08-30T10:36:49Z</time>
      </trkpt>
      <trkpt lat="34.0959" lon="77.14402">
        <ele>4085.4</ele>
        <time>2015-08-30T10:36:58Z</time>
      </trkpt>
      <trkpt lat="34.09594" lon="77.144">
        <ele>4085.4</ele>
        <time>2015-08-30T10:37:00Z</time>
      </trkpt>
      <trkpt lat="34.09596" lon="77.14397">
        <ele>4085.8</ele>
        <time>2015-08-30T10:37:06Z</time>
      </trkpt>
      <trkpt lat="34.09596" lon="77.14397">
        <ele>4085.8</ele>
        <time>2015-08-30T10:37:07Z</time>
      </trkpt>
      <trkpt lat="34.09595" lon="77.14398">
        <ele>4085.8</ele>
        <time>2015-08-30T10:37:11Z</time>
      </trkpt>
      <trkpt lat="34.0959" lon="77.14398">
        <ele>4086.2</ele>
        <time>2015-08-30T10:37:26Z</time>
      </trkpt>
      <trkpt lat="34.09592" lon="77.14399">
        <ele>4140.2</ele>
        <time>2015-08-30T10:37:48Z</time>
      </trkpt>
    </trkseg>
  </trk>
  <trk>
    <name><![CDATA[Camp de Lanak (4120m) - Dundunchen La (4620m) - Chilling (3210m)]]></name>
    <trkseg>
      <trkpt lat="34.0959" lon="77.1439">
        <ele>4083.2</ele>
        <time>2015-08-31T02:38:27Z</time>
      </trkpt>
      <trkpt lat="34.09589" lon="77.14393">
        <ele>4083.2</ele>
        <time>2015-08-31T02:38:29Z</time>
      </trkpt>
      <trkpt lat="34.09583" lon="77.144">
        <ele>4083</ele>
        <time>2015-08-31T02:39:28Z</time>
      </trkpt>
      <trkpt lat="34.09588" lon="77.14401">
        <ele>4083.4</ele>
        <time>2015-08-31T02:40:29Z</time>
      </trkpt>
      <trkpt lat="34.09579" lon="77.14404">
        <ele>4084.2</ele>
        <time>2015-08-31T02:41:33Z</time>
      </trkpt>
      <trkpt lat="34.09577" lon="77.14412">
        <ele>4085.4</ele>
        <time>2015-08-31T02:42:31Z</time>
      </trkpt>
      <trkpt lat="34.0958" lon="77.14414">
        <ele>4086.4</ele>
        <time>2015-08-31T02:42:38Z</time>
      </trkpt>
      <trkpt lat="34.09579" lon="77.14424">
        <ele>4087.4</ele>
        <time>2015-08-31T02:42:58Z</time>
      </trkpt>
      <trkpt lat="34.09575" lon="77.14429">
        <ele>4088.4</ele>
        <time>2015-08-31T02:43:14Z</time>
      </trkpt>
      <trkpt lat="34.09573" lon="77.14436">
        <ele>4089</ele>
        <time>2015-08-31T02:43:22Z</time>
      </trkpt>
      <trkpt lat="34.09563" lon="77.14438">
        <ele>4089.4</ele>
        <time>2015-08-31T02:43:32Z</time>
      </trkpt>
      <trkpt lat="34.09562" lon="77.14438">
        <ele>4089.4</ele>
        <time>2015-08-31T02:43:33Z</time>
      </trkpt>
      <trkpt lat="34.09557" lon="77.14437">
        <ele>4089.6</ele>
        <time>2015-08-31T02:43:37Z</time>
      </trkpt>
      <trkpt lat="34.0955" lon="77.14439">
        <ele>4090.6</ele>
        <time>2015-08-31T02:43:48Z</time>
      </trkpt>
      <trkpt lat="34.09546" lon="77.1444">
        <ele>4091.2</ele>
        <time>2015-08-31T02:43:54Z</time>
      </trkpt>
      <trkpt lat="34.09545" lon="77.14441">
        <ele>4091.6</ele>
        <time>2015-08-31T02:43:57Z</time>
      </trkpt>
      <trkpt lat="34.09542" lon="77.1445">
        <ele>4092.6</ele>
        <time>2015-08-31T02:44:12Z</time>
      </trkpt>
      <trkpt lat="34.09544" lon="77.14462">
        <ele>4093.6</ele>
        <time>2015-08-31T02:44:26Z</time>
      </trkpt>
      <trkpt lat="34.09535" lon="77.14469">
        <ele>4094.8</ele>
        <time>2015-08-31T02:44:40Z</time>
      </trkpt>
      <trkpt lat="34.0953" lon="77.14474">
        <ele>4095.2</ele>
        <time>2015-08-31T02:44:46Z</time>
      </trkpt>
      <trkpt lat="34.09527" lon="77.14474">
        <ele>4095.4</ele>
        <time>2015-08-31T02:44:50Z</time>
      </trkpt>
      <trkpt lat="34.09525" lon="77.14476">
        <ele>4095.8</ele>
        <time>2015-08-31T02:44:54Z</time>
      </trkpt>
      <trkpt lat="34.09521" lon="77.14481">
        <ele>4096.8</ele>
        <time>2015-08-31T02:45:08Z</time>
      </trkpt>
      <trkpt lat="34.0952" lon="77.14488">
        <ele>4097.8</ele>
        <time>2015-08-31T02:45:21Z</time>
      </trkpt>
      <trkpt lat="34.09518" lon="77.14495">
        <ele>4098.8</ele>
        <time>2015-08-31T02:45:31Z</time>
      </trkpt>
      <trkpt lat="34.09516" lon="77.14497">
        <ele>4100</ele>
        <time>2015-08-31T02:45:39Z</time>
      </trkpt>
      <trkpt lat="34.09511" lon="77.14498">
        <ele>4101</ele>
        <time>2015-08-31T02:45:48Z</time>
      </trkpt>
      <trkpt lat="34.09508" lon="77.14496">
        <ele>4102</ele>
        <time>2015-08-31T02:45:59Z</time>
      </trkpt>
      <trkpt lat="34.09512" lon="77.14503">
        <ele>4103</ele>
        <time>2015-08-31T02:46:13Z</time>
      </trkpt>
      <trkpt lat="34.0951" lon="77.14507">
        <ele>4104.2</ele>
        <time>2015-08-31T02:46:22Z</time>
      </trkpt>
      <trkpt lat="34.0951" lon="77.14513">
        <ele>4105.2</ele>
        <time>2015-08-31T02:46:29Z</time>
      </trkpt>
      <trkpt lat="34.0951" lon="77.14519">
        <ele>4106</ele>
        <time>2015-08-31T02:46:35Z</time>
      </trkpt>
      <trkpt lat="34.0951" lon="77.14521">
        <ele>4106.2</ele>
        <time>2015-08-31T02:46:38Z</time>
      </trkpt>
      <trkpt lat="34.09505" lon="77.14526">
        <ele>4107.4</ele>
        <time>2015-08-31T02:46:51Z</time>
      </trkpt>
      <trkpt lat="34.09502" lon="77.1453">
        <ele>4108.4</ele>
        <time>2015-08-31T02:47:01Z</time>
      </trkpt>
      <trkpt lat="34.09496" lon="77.14534">
        <ele>4109.4</ele>
        <time>2015-08-31T02:47:10Z</time>
      </trkpt>
      <trkpt lat="34.09497" lon="77.14542">
        <ele>4110.4</ele>
        <time>2015-08-31T02:47:25Z</time>
      </trkpt>
      <trkpt lat="34.095" lon="77.14546">
        <ele>4111.4</ele>
        <time>2015-08-31T02:47:41Z</time>
      </trkpt>
      <trkpt lat="34.09509" lon="77.14544">
        <ele>4112.4</ele>
        <time>2015-08-31T02:48:00Z</time>
      </trkpt>
      <trkpt lat="34.09511" lon="77.14547">
        <ele>4113.6</ele>
        <time>2015-08-31T02:48:13Z</time>
      </trkpt>
      <trkpt lat="34.09507" lon="77.14553">
        <ele>4114.6</ele>
        <time>2015-08-31T02:48:24Z</time>
      </trkpt>
      <trkpt lat="34.09507" lon="77.14557">
        <ele>4115.6</ele>
        <time>2015-08-31T02:48:37Z</time>
      </trkpt>
      <trkpt lat="34.09509" lon="77.14563">
        <ele>4116.8</ele>
        <time>2015-08-31T02:48:47Z</time>
      </trkpt>
      <trkpt lat="34.09508" lon="77.14566">
        <ele>4117.8</ele>
        <time>2015-08-31T02:49:01Z</time>
      </trkpt>
      <trkpt lat="34.09506" lon="77.14571">
        <ele>4119</ele>
        <time>2015-08-31T02:49:13Z</time>
      </trkpt>
      <trkpt lat="34.09508" lon="77.14575">
        <ele>4120</ele>
        <time>2015-08-31T02:49:22Z</time>
      </trkpt>
      <trkpt lat="34.09505" lon="77.1458">
        <ele>4121</ele>
        <time>2015-08-31T02:49:33Z</time>
      </trkpt>
      <trkpt lat="34.09502" lon="77.14583">
        <ele>4122.2</ele>
        <time>2015-08-31T02:49:49Z</time>
      </trkpt>
      <trkpt lat="34.09502" lon="77.14589">
        <ele>4123.2</ele>
        <time>2015-08-31T02:50:03Z</time>
      </trkpt>
      <trkpt lat="34.095" lon="77.14593">
        <ele>4124.2</ele>
        <time>2015-08-31T02:50:12Z</time>
      </trkpt>
      <trkpt lat="34.09499" lon="77.14595">
        <ele>4125.2</ele>
        <time>2015-08-31T02:50:20Z</time>
      </trkpt>
      <trkpt lat="34.09498" lon="77.14599">
        <ele>4126.4</ele>
        <time>2015-08-31T02:50:32Z</time>
      </trkpt>
      <trkpt lat="34.09498" lon="77.14603">
        <ele>4127.4</ele>
        <time>2015-08-31T02:50:42Z</time>
      </trkpt>
      <trkpt lat="34.09494" lon="77.14608">
        <ele>4128.4</ele>
        <time>2015-08-31T02:50:52Z</time>
      </trkpt>
      <trkpt lat="34.09491" lon="77.14615">
        <ele>4129.6</ele>
        <time>2015-08-31T02:51:06Z</time>
      </trkpt>
      <trkpt lat="34.09488" lon="77.14618">
        <ele>4130.6</ele>
        <time>2015-08-31T02:51:18Z</time>
      </trkpt>
      <trkpt lat="34.09488" lon="77.14624">
        <ele>4131.6</ele>
        <time>2015-08-31T02:51:33Z</time>
      </trkpt>
      <trkpt lat="34.09484" lon="77.14633">
        <ele>4132.6</ele>
        <time>2015-08-31T02:51:48Z</time>
      </trkpt>
      <trkpt lat="34.09482" lon="77.14637">
        <ele>4133.6</ele>
        <time>2015-08-31T02:51:58Z</time>
      </trkpt>
      <trkpt lat="34.0948" lon="77.14643">
        <ele>4134.8</ele>
        <time>2015-08-31T02:52:12Z</time>
      </trkpt>
      <trkpt lat="34.09475" lon="77.14646">
        <ele>4136</ele>
        <time>2015-08-31T02:52:28Z</time>
      </trkpt>
      <trkpt lat="34.09472" lon="77.14653">
        <ele>4137</ele>
        <time>2015-08-31T02:52:42Z</time>
      </trkpt>
      <trkpt lat="34.0947" lon="77.1466">
        <ele>4138</ele>
        <time>2015-08-31T02:52:56Z</time>
      </trkpt>
      <trkpt lat="34.09469" lon="77.14665">
        <ele>4139</ele>
        <time>2015-08-31T02:53:07Z</time>
      </trkpt>
      <trkpt lat="34.09461" lon="77.14669">
        <ele>4140.2</ele>
        <time>2015-08-31T02:53:22Z</time>
      </trkpt>
      <trkpt lat="34.09457" lon="77.14672">
        <ele>4141.2</ele>
        <time>2015-08-31T02:53:35Z</time>
      </trkpt>
      <trkpt lat="34.09454" lon="77.14677">
        <ele>4142</ele>
        <time>2015-08-31T02:53:45Z</time>
      </trkpt>
      <trkpt lat="34.09454" lon="77.14681">
        <ele>4142.4</ele>
        <time>2015-08-31T02:53:50Z</time>
      </trkpt>
      <trkpt lat="34.09452" lon="77.14684">
        <ele>4143.4</ele>
        <time>2015-08-31T02:54:00Z</time>
      </trkpt>
      <trkpt lat="34.09453" lon="77.14689">
        <ele>4144.4</ele>
        <time>2015-08-31T02:54:14Z</time>
      </trkpt>
      <trkpt lat="34.09452" lon="77.14696">
        <ele>4145.4</ele>
        <time>2015-08-31T02:54:27Z</time>
      </trkpt>
      <trkpt lat="34.09448" lon="77.14702">
        <ele>4146.4</ele>
        <time>2015-08-31T02:54:40Z</time>
      </trkpt>
      <trkpt lat="34.09442" lon="77.14704">
        <ele>4147.4</ele>
        <time>2015-08-31T02:54:53Z</time>
      </trkpt>
      <trkpt lat="34.09442" lon="77.14712">
        <ele>4148.6</ele>
        <time>2015-08-31T02:55:08Z</time>
      </trkpt>
      <trkpt lat="34.09438" lon="77.14713">
        <ele>4149.6</ele>
        <time>2015-08-31T02:55:21Z</time>
      </trkpt>
      <trkpt lat="34.09429" lon="77.14718">
        <ele>4150.6</ele>
        <time>2015-08-31T02:55:36Z</time>
      </trkpt>
      <trkpt lat="34.09424" lon="77.1472">
        <ele>4151.6</ele>
        <time>2015-08-31T02:55:48Z</time>
      </trkpt>
      <trkpt lat="34.09423" lon="77.14725">
        <ele>4152.8</ele>
        <time>2015-08-31T02:55:59Z</time>
      </trkpt>
      <trkpt lat="34.0942" lon="77.14729">
        <ele>4153.8</ele>
        <time>2015-08-31T02:56:11Z</time>
      </trkpt>
      <trkpt lat="34.09416" lon="77.1473">
        <ele>4154.8</ele>
        <time>2015-08-31T02:56:24Z</time>
      </trkpt>
      <trkpt lat="34.09413" lon="77.1474">
        <ele>4155.8</ele>
        <time>2015-08-31T02:56:38Z</time>
      </trkpt>
      <trkpt lat="34.09415" lon="77.14746">
        <ele>4157</ele>
        <time>2015-08-31T02:56:50Z</time>
      </trkpt>
      <trkpt lat="34.0941" lon="77.14748">
        <ele>4158</ele>
        <time>2015-08-31T02:57:01Z</time>
      </trkpt>
      <trkpt lat="34.09408" lon="77.14747">
        <ele>4159.2</ele>
        <time>2015-08-31T02:57:10Z</time>
      </trkpt>
      <trkpt lat="34.09406" lon="77.14751">
        <ele>4160.2</ele>
        <time>2015-08-31T02:57:20Z</time>
      </trkpt>
      <trkpt lat="34.09405" lon="77.14756">
        <ele>4161.2</ele>
        <time>2015-08-31T02:57:31Z</time>
      </trkpt>
      <trkpt lat="34.09403" lon="77.14762">
        <ele>4162.4</ele>
        <time>2015-08-31T02:57:44Z</time>
      </trkpt>
      <trkpt lat="34.094" lon="77.1477">
        <ele>4163.4</ele>
        <time>2015-08-31T02:57:54Z</time>
      </trkpt>
      <trkpt lat="34.09393" lon="77.14783">
        <ele>4164.6</ele>
        <time>2015-08-31T02:58:16Z</time>
      </trkpt>
      <trkpt lat="34.09392" lon="77.14798">
        <ele>4165.6</ele>
        <time>2015-08-31T02:58:35Z</time>
      </trkpt>
      <trkpt lat="34.09387" lon="77.14816">
        <ele>4166.8</ele>
        <time>2015-08-31T02:59:01Z</time>
      </trkpt>
      <trkpt lat="34.09377" lon="77.14833">
        <ele>4167</ele>
        <time>2015-08-31T02:59:27Z</time>
      </trkpt>
      <trkpt lat="34.09371" lon="77.14839">
        <ele>4167.8</ele>
        <time>2015-08-31T02:59:41Z</time>
      </trkpt>
      <trkpt lat="34.09368" lon="77.1485">
        <ele>4168.8</ele>
        <time>2015-08-31T02:59:58Z</time>
      </trkpt>
      <trkpt lat="34.09355" lon="77.14863">
        <ele>4169.8</ele>
        <time>2015-08-31T03:00:28Z</time>
      </trkpt>
      <trkpt lat="34.09354" lon="77.14864">
        <ele>4169.8</ele>
        <time>2015-08-31T03:00:29Z</time>
      </trkpt>
      <trkpt lat="34.09352" lon="77.1487">
        <ele>4170.8</ele>
        <time>2015-08-31T03:00:42Z</time>
      </trkpt>
      <trkpt lat="34.09354" lon="77.1488">
        <ele>4171.8</ele>
        <time>2015-08-31T03:00:55Z</time>
      </trkpt>
      <trkpt lat="34.09353" lon="77.14886">
        <ele>4172.8</ele>
        <time>2015-08-31T03:01:02Z</time>
      </trkpt>
      <trkpt lat="34.09345" lon="77.14892">
        <ele>4174</ele>
        <time>2015-08-31T03:01:19Z</time>
      </trkpt>
      <trkpt lat="34.09346" lon="77.14898">
        <ele>4175</ele>
        <time>2015-08-31T03:01:32Z</time>
      </trkpt>
      <trkpt lat="34.0934" lon="77.14899">
        <ele>4176.2</ele>
        <time>2015-08-31T03:01:46Z</time>
      </trkpt>
      <trkpt lat="34.09337" lon="77.14903">
        <ele>4177.2</ele>
        <time>2015-08-31T03:01:56Z</time>
      </trkpt>
      <trkpt lat="34.09335" lon="77.14908">
        <ele>4178.2</ele>
        <time>2015-08-31T03:02:06Z</time>
      </trkpt>
      <trkpt lat="34.09336" lon="77.14915">
        <ele>4179.2</ele>
        <time>2015-08-31T03:02:20Z</time>
      </trkpt>
      <trkpt lat="34.09336" lon="77.14919">
        <ele>4180.2</ele>
        <time>2015-08-31T03:02:31Z</time>
      </trkpt>
      <trkpt lat="34.09332" lon="77.14923">
        <ele>4181.2</ele>
        <time>2015-08-31T03:02:45Z</time>
      </trkpt>
      <trkpt lat="34.09333" lon="77.14926">
        <ele>4182.4</ele>
        <time>2015-08-31T03:02:55Z</time>
      </trkpt>
      <trkpt lat="34.09337" lon="77.14929">
        <ele>4183.4</ele>
        <time>2015-08-31T03:03:05Z</time>
      </trkpt>
      <trkpt lat="34.09339" lon="77.14934">
        <ele>4184.4</ele>
        <time>2015-08-31T03:03:15Z</time>
      </trkpt>
      <trkpt lat="34.09338" lon="77.14937">
        <ele>4185.4</ele>
        <time>2015-08-31T03:03:24Z</time>
      </trkpt>
      <trkpt lat="34.09333" lon="77.14939">
        <ele>4185.6</ele>
        <time>2015-08-31T03:03:31Z</time>
      </trkpt>
      <trkpt lat="34.09329" lon="77.14937">
        <ele>4186.6</ele>
        <time>2015-08-31T03:03:41Z</time>
      </trkpt>
      <trkpt lat="34.09327" lon="77.14939">
        <ele>4187.6</ele>
        <time>2015-08-31T03:03:50Z</time>
      </trkpt>
      <trkpt lat="34.09325" lon="77.14944">
        <ele>4188.8</ele>
        <time>2015-08-31T03:04:03Z</time>
      </trkpt>
      <trkpt lat="34.09323" lon="77.14946">
        <ele>4190</ele>
        <time>2015-08-31T03:04:14Z</time>
      </trkpt>
      <trkpt lat="34.09318" lon="77.14945">
        <ele>4191</ele>
        <time>2015-08-31T03:04:21Z</time>
      </trkpt>
      <trkpt lat="34.09318" lon="77.14949">
        <ele>4192</ele>
        <time>2015-08-31T03:04:34Z</time>
      </trkpt>
      <trkpt lat="34.09315" lon="77.1495">
        <ele>4193</ele>
        <time>2015-08-31T03:04:47Z</time>
      </trkpt>
      <trkpt lat="34.09312" lon="77.14951">
        <ele>4194.2</ele>
        <time>2015-08-31T03:04:56Z</time>
      </trkpt>
      <trkpt lat="34.0931" lon="77.14957">
        <ele>4195.2</ele>
        <time>2015-08-31T03:05:05Z</time>
      </trkpt>
      <trkpt lat="34.09313" lon="77.14963">
        <ele>4196.2</ele>
        <time>2015-08-31T03:05:19Z</time>
      </trkpt>
      <trkpt lat="34.09307" lon="77.14963">
        <ele>4197.2</ele>
        <time>2015-08-31T03:05:28Z</time>
      </trkpt>
      <trkpt lat="34.09305" lon="77.14965">
        <ele>4198.4</ele>
        <time>2015-08-31T03:05:38Z</time>
      </trkpt>
      <trkpt lat="34.09302" lon="77.14966">
        <ele>4199.4</ele>
        <time>2015-08-31T03:05:51Z</time>
      </trkpt>
      <trkpt lat="34.09297" lon="77.14964">
        <ele>4200.6</ele>
        <time>2015-08-31T03:06:04Z</time>
      </trkpt>
      <trkpt lat="34.09295" lon="77.14965">
        <ele>4201.6</ele>
        <time>2015-08-31T03:06:14Z</time>
      </trkpt>
      <trkpt lat="34.09292" lon="77.14962">
        <ele>4202.6</ele>
        <time>2015-08-31T03:06:24Z</time>
      </trkpt>
      <trkpt lat="34.09287" lon="77.14961">
        <ele>4203.8</ele>
        <time>2015-08-31T03:06:37Z</time>
      </trkpt>
      <trkpt lat="34.0928" lon="77.14965">
        <ele>4205</ele>
        <time>2015-08-31T03:06:48Z</time>
      </trkpt>
      <trkpt lat="34.09277" lon="77.14967">
        <ele>4206</ele>
        <time>2015-08-31T03:06:58Z</time>
      </trkpt>
      <trkpt lat="34.09276" lon="77.14966">
        <ele>4206.2</ele>
        <time>2015-08-31T03:07:02Z</time>
      </trkpt>
      <trkpt lat="34.09275" lon="77.14975">
        <ele>4207</ele>
        <time>2015-08-31T03:07:11Z</time>
      </trkpt>
      <trkpt lat="34.09274" lon="77.14979">
        <ele>4208</ele>
        <time>2015-08-31T03:07:21Z</time>
      </trkpt>
      <trkpt lat="34.09269" lon="77.14979">
        <ele>4209</ele>
        <time>2015-08-31T03:07:31Z</time>
      </trkpt>
      <trkpt lat="34.09263" lon="77.14978">
        <ele>4210.2</ele>
        <time>2015-08-31T03:07:45Z</time>
      </trkpt>
      <trkpt lat="34.09258" lon="77.14976">
        <ele>4211.4</ele>
        <time>2015-08-31T03:08:00Z</time>
      </trkpt>
      <trkpt lat="34.09255" lon="77.14981">
        <ele>4212.4</ele>
        <time>2015-08-31T03:08:12Z</time>
      </trkpt>
      <trkpt lat="34.09249" lon="77.14985">
        <ele>4213.4</ele>
        <time>2015-08-31T03:08:24Z</time>
      </trkpt>
      <trkpt lat="34.09241" lon="77.14981">
        <ele>4214.4</ele>
        <time>2015-08-31T03:08:41Z</time>
      </trkpt>
      <trkpt lat="34.09236" lon="77.14982">
        <ele>4215.4</ele>
        <time>2015-08-31T03:08:51Z</time>
      </trkpt>
      <trkpt lat="34.09232" lon="77.14988">
        <ele>4216.6</ele>
        <time>2015-08-31T03:09:04Z</time>
      </trkpt>
      <trkpt lat="34.09223" lon="77.15006">
        <ele>4217</ele>
        <time>2015-08-31T03:09:31Z</time>
      </trkpt>
      <trkpt lat="34.09223" lon="77.15009">
        <ele>4217.6</ele>
        <time>2015-08-31T03:09:36Z</time>
      </trkpt>
      <trkpt lat="34.09216" lon="77.15018">
        <ele>4218.6</ele>
        <time>2015-08-31T03:09:55Z</time>
      </trkpt>
      <trkpt lat="34.09216" lon="77.1502">
        <ele>4219.8</ele>
        <time>2015-08-31T03:10:07Z</time>
      </trkpt>
      <trkpt lat="34.09213" lon="77.15025">
        <ele>4220.8</ele>
        <time>2015-08-31T03:10:22Z</time>
      </trkpt>
      <trkpt lat="34.09211" lon="77.15024">
        <ele>4221.8</ele>
        <time>2015-08-31T03:10:30Z</time>
      </trkpt>
      <trkpt lat="34.09206" lon="77.15034">
        <ele>4222.8</ele>
        <time>2015-08-31T03:10:47Z</time>
      </trkpt>
      <trkpt lat="34.09205" lon="77.15037">
        <ele>4223.4</ele>
        <time>2015-08-31T03:10:51Z</time>
      </trkpt>
      <trkpt lat="34.09203" lon="77.15037">
        <ele>4223.8</ele>
        <time>2015-08-31T03:10:57Z</time>
      </trkpt>
      <trkpt lat="34.09199" lon="77.15033">
        <ele>4225</ele>
        <time>2015-08-31T03:11:11Z</time>
      </trkpt>
      <trkpt lat="34.09195" lon="77.15033">
        <ele>4226</ele>
        <time>2015-08-31T03:11:24Z</time>
      </trkpt>
      <trkpt lat="34.09192" lon="77.1503">
        <ele>4227</ele>
        <time>2015-08-31T03:11:35Z</time>
      </trkpt>
      <trkpt lat="34.09192" lon="77.15033">
        <ele>4228.2</ele>
        <time>2015-08-31T03:11:46Z</time>
      </trkpt>
      <trkpt lat="34.09195" lon="77.15038">
        <ele>4229.2</ele>
        <time>2015-08-31T03:11:57Z</time>
      </trkpt>
      <trkpt lat="34.09198" lon="77.15042">
        <ele>4230.4</ele>
        <time>2015-08-31T03:12:07Z</time>
      </trkpt>
      <trkpt lat="34.09198" lon="77.15046">
        <ele>4231.4</ele>
        <time>2015-08-31T03:12:16Z</time>
      </trkpt>
      <trkpt lat="34.0919" lon="77.15043">
        <ele>4232.4</ele>
        <time>2015-08-31T03:12:27Z</time>
      </trkpt>
      <trkpt lat="34.09187" lon="77.15047">
        <ele>4233.4</ele>
        <time>2015-08-31T03:12:37Z</time>
      </trkpt>
      <trkpt lat="34.09185" lon="77.15052">
        <ele>4234.4</ele>
        <time>2015-08-31T03:12:49Z</time>
      </trkpt>
      <trkpt lat="34.09185" lon="77.15058">
        <ele>4235.6</ele>
        <time>2015-08-31T03:13:03Z</time>
      </trkpt>
      <trkpt lat="34.09184" lon="77.1506">
        <ele>4236.6</ele>
        <time>2015-08-31T03:13:10Z</time>
      </trkpt>
      <trkpt lat="34.09186" lon="77.15067">
        <ele>4237.8</ele>
        <time>2015-08-31T03:13:25Z</time>
      </trkpt>
      <trkpt lat="34.09186" lon="77.1507">
        <ele>4238.8</ele>
        <time>2015-08-31T03:13:33Z</time>
      </trkpt>
      <trkpt lat="34.0919" lon="77.15076">
        <ele>4239.8</ele>
        <time>2015-08-31T03:13:47Z</time>
      </trkpt>
      <trkpt lat="34.09187" lon="77.15081">
        <ele>4241</ele>
        <time>2015-08-31T03:14:00Z</time>
      </trkpt>
      <trkpt lat="34.09188" lon="77.15085">
        <ele>4242</ele>
        <time>2015-08-31T03:14:11Z</time>
      </trkpt>
      <trkpt lat="34.09187" lon="77.15092">
        <ele>4243.2</ele>
        <time>2015-08-31T03:14:22Z</time>
      </trkpt>
      <trkpt lat="34.09186" lon="77.15097">
        <ele>4244.2</ele>
        <time>2015-08-31T03:14:32Z</time>
      </trkpt>
      <trkpt lat="34.09182" lon="77.151">
        <ele>4245.2</ele>
        <time>2015-08-31T03:14:42Z</time>
      </trkpt>
      <trkpt lat="34.09178" lon="77.15096">
        <ele>4246.2</ele>
        <time>2015-08-31T03:14:51Z</time>
      </trkpt>
      <trkpt lat="34.09173" lon="77.15094">
        <ele>4247.2</ele>
        <time>2015-08-31T03:15:02Z</time>
      </trkpt>
      <trkpt lat="34.09175" lon="77.15097">
        <ele>4248</ele>
        <time>2015-08-31T03:15:23Z</time>
      </trkpt>
      <trkpt lat="34.09179" lon="77.15094">
        <ele>4248.2</ele>
        <time>2015-08-31T03:15:39Z</time>
      </trkpt>
      <trkpt lat="34.09178" lon="77.15094">
        <ele>4248.2</ele>
        <time>2015-08-31T03:15:43Z</time>
      </trkpt>
      <trkpt lat="34.09177" lon="77.15088">
        <ele>4249</ele>
        <time>2015-08-31T03:16:38Z</time>
      </trkpt>
      <trkpt lat="34.09174" lon="77.15092">
        <ele>4249.2</ele>
        <time>2015-08-31T03:16:41Z</time>
      </trkpt>
      <trkpt lat="34.09174" lon="77.15096">
        <ele>4249.2</ele>
        <time>2015-08-31T03:16:43Z</time>
      </trkpt>
      <trkpt lat="34.09179" lon="77.15096">
        <ele>4249.4</ele>
        <time>2015-08-31T03:17:05Z</time>
      </trkpt>
      <trkpt lat="34.0918" lon="77.15091">
        <ele>4249.6</ele>
        <time>2015-08-31T03:17:44Z</time>
      </trkpt>
      <trkpt lat="34.09176" lon="77.1509">
        <ele>4249.4</ele>
        <time>2015-08-31T03:18:07Z</time>
      </trkpt>
      <trkpt lat="34.09173" lon="77.15091">
        <ele>4249.2</ele>
        <time>2015-08-31T03:18:09Z</time>
      </trkpt>
      <trkpt lat="34.09176" lon="77.15094">
        <ele>4249.4</ele>
        <time>2015-08-31T03:18:18Z</time>
      </trkpt>
      <trkpt lat="34.09173" lon="77.15092">
        <ele>4249.2</ele>
        <time>2015-08-31T03:18:22Z</time>
      </trkpt>
      <trkpt lat="34.09172" lon="77.15093">
        <ele>4250.4</ele>
        <time>2015-08-31T03:19:00Z</time>
      </trkpt>
      <trkpt lat="34.0917" lon="77.15096">
        <ele>4251.4</ele>
        <time>2015-08-31T03:19:13Z</time>
      </trkpt>
      <trkpt lat="34.0917" lon="77.151">
        <ele>4252.4</ele>
        <time>2015-08-31T03:19:22Z</time>
      </trkpt>
      <trkpt lat="34.09169" lon="77.15107">
        <ele>4253.6</ele>
        <time>2015-08-31T03:19:31Z</time>
      </trkpt>
      <trkpt lat="34.09171" lon="77.15111">
        <ele>4254.8</ele>
        <time>2015-08-31T03:19:40Z</time>
      </trkpt>
      <trkpt lat="34.09171" lon="77.15112">
        <ele>4255.8</ele>
        <time>2015-08-31T03:19:50Z</time>
      </trkpt>
      <trkpt lat="34.09171" lon="77.15115">
        <ele>4256.8</ele>
        <time>2015-08-31T03:19:59Z</time>
      </trkpt>
      <trkpt lat="34.09168" lon="77.15122">
        <ele>4257.8</ele>
        <time>2015-08-31T03:20:12Z</time>
      </trkpt>
      <trkpt lat="34.09165" lon="77.15127">
        <ele>4258.6</ele>
        <time>2015-08-31T03:20:20Z</time>
      </trkpt>
      <trkpt lat="34.09162" lon="77.15128">
        <ele>4259</ele>
        <time>2015-08-31T03:20:24Z</time>
      </trkpt>
      <trkpt lat="34.09158" lon="77.15122">
        <ele>4260</ele>
        <time>2015-08-31T03:20:36Z</time>
      </trkpt>
      <trkpt lat="34.09154" lon="77.15116">
        <ele>4261</ele>
        <time>2015-08-31T03:20:52Z</time>
      </trkpt>
      <trkpt lat="34.09152" lon="77.15118">
        <ele>4262.2</ele>
        <time>2015-08-31T03:21:02Z</time>
      </trkpt>
      <trkpt lat="34.09157" lon="77.15123">
        <ele>4263.2</ele>
        <time>2015-08-31T03:21:16Z</time>
      </trkpt>
      <trkpt lat="34.09157" lon="77.15124">
        <ele>4263.6</ele>
        <time>2015-08-31T03:21:20Z</time>
      </trkpt>
      <trkpt lat="34.09158" lon="77.15126">
        <ele>4264.2</ele>
        <time>2015-08-31T03:21:30Z</time>
      </trkpt>
      <trkpt lat="34.09156" lon="77.15131">
        <ele>4265.4</ele>
        <time>2015-08-31T03:21:40Z</time>
      </trkpt>
      <trkpt lat="34.09156" lon="77.15136">
        <ele>4266.4</ele>
        <time>2015-08-31T03:21:54Z</time>
      </trkpt>
      <trkpt lat="34.09155" lon="77.15139">
        <ele>4267.4</ele>
        <time>2015-08-31T03:22:03Z</time>
      </trkpt>
      <trkpt lat="34.09153" lon="77.15143">
        <ele>4268.6</ele>
        <time>2015-08-31T03:22:12Z</time>
      </trkpt>
      <trkpt lat="34.09152" lon="77.15148">
        <ele>4269.6</ele>
        <time>2015-08-31T03:22:22Z</time>
      </trkpt>
      <trkpt lat="34.09152" lon="77.15151">
        <ele>4270.6</ele>
        <time>2015-08-31T03:22:32Z</time>
      </trkpt>
      <trkpt lat="34.0915" lon="77.15154">
        <ele>4271.6</ele>
        <time>2015-08-31T03:22:42Z</time>
      </trkpt>
      <trkpt lat="34.09143" lon="77.15155">
        <ele>4272.6</ele>
        <time>2015-08-31T03:22:52Z</time>
      </trkpt>
      <trkpt lat="34.0914" lon="77.15153">
        <ele>4273</ele>
        <time>2015-08-31T03:22:55Z</time>
      </trkpt>
      <trkpt lat="34.09138" lon="77.1515">
        <ele>4273.8</ele>
        <time>2015-08-31T03:23:03Z</time>
      </trkpt>
      <trkpt lat="34.09136" lon="77.15148">
        <ele>4274.8</ele>
        <time>2015-08-31T03:23:12Z</time>
      </trkpt>
      <trkpt lat="34.09133" lon="77.15149">
        <ele>4275.8</ele>
        <time>2015-08-31T03:23:22Z</time>
      </trkpt>
      <trkpt lat="34.09133" lon="77.15146">
        <ele>4277</ele>
        <time>2015-08-31T03:23:33Z</time>
      </trkpt>
      <trkpt lat="34.09134" lon="77.15146">
        <ele>4278</ele>
        <time>2015-08-31T03:23:42Z</time>
      </trkpt>
      <trkpt lat="34.09135" lon="77.15149">
        <ele>4279</ele>
        <time>2015-08-31T03:23:52Z</time>
      </trkpt>
      <trkpt lat="34.09135" lon="77.15153">
        <ele>4280.2</ele>
        <time>2015-08-31T03:24:03Z</time>
      </trkpt>
      <trkpt lat="34.09135" lon="77.1516">
        <ele>4281.4</ele>
        <time>2015-08-31T03:24:13Z</time>
      </trkpt>
      <trkpt lat="34.09132" lon="77.15156">
        <ele>4282.4</ele>
        <time>2015-08-31T03:24:25Z</time>
      </trkpt>
      <trkpt lat="34.0913" lon="77.15156">
        <ele>4283.4</ele>
        <time>2015-08-31T03:24:32Z</time>
      </trkpt>
      <trkpt lat="34.0913" lon="77.15157">
        <ele>4284.6</ele>
        <time>2015-08-31T03:24:44Z</time>
      </trkpt>
      <trkpt lat="34.09131" lon="77.1516">
        <ele>4285.6</ele>
        <time>2015-08-31T03:24:53Z</time>
      </trkpt>
      <trkpt lat="34.0913" lon="77.15164">
        <ele>4286.6</ele>
        <time>2015-08-31T03:25:01Z</time>
      </trkpt>
      <trkpt lat="34.09128" lon="77.15166">
        <ele>4287.6</ele>
        <time>2015-08-31T03:25:10Z</time>
      </trkpt>
      <trkpt lat="34.09126" lon="77.15172">
        <ele>4288.8</ele>
        <time>2015-08-31T03:25:20Z</time>
      </trkpt>
      <trkpt lat="34.09126" lon="77.15176">
        <ele>4290</ele>
        <time>2015-08-31T03:25:30Z</time>
      </trkpt>
      <trkpt lat="34.09124" lon="77.1518">
        <ele>4291</ele>
        <time>2015-08-31T03:25:41Z</time>
      </trkpt>
      <trkpt lat="34.0912" lon="77.1518">
        <ele>4292</ele>
        <time>2015-08-31T03:25:53Z</time>
      </trkpt>
      <trkpt lat="34.09118" lon="77.15182">
        <ele>4293.2</ele>
        <time>2015-08-31T03:26:03Z</time>
      </trkpt>
      <trkpt lat="34.09115" lon="77.15185">
        <ele>4294.2</ele>
        <time>2015-08-31T03:26:13Z</time>
      </trkpt>
      <trkpt lat="34.09115" lon="77.15186">
        <ele>4295.2</ele>
        <time>2015-08-31T03:26:22Z</time>
      </trkpt>
      <trkpt lat="34.09113" lon="77.15189">
        <ele>4296.2</ele>
        <time>2015-08-31T03:26:32Z</time>
      </trkpt>
      <trkpt lat="34.0911" lon="77.15194">
        <ele>4297.4</ele>
        <time>2015-08-31T03:26:43Z</time>
      </trkpt>
      <trkpt lat="34.09107" lon="77.15196">
        <ele>4298.4</ele>
        <time>2015-08-31T03:26:54Z</time>
      </trkpt>
      <trkpt lat="34.09105" lon="77.15198">
        <ele>4299.4</ele>
        <time>2015-08-31T03:27:02Z</time>
      </trkpt>
      <trkpt lat="34.09105" lon="77.15198">
        <ele>4299.6</ele>
        <time>2015-08-31T03:27:03Z</time>
      </trkpt>
      <trkpt lat="34.09102" lon="77.15198">
        <ele>4300.6</ele>
        <time>2015-08-31T03:27:14Z</time>
      </trkpt>
      <trkpt lat="34.09102" lon="77.15198">
        <ele>4301.6</ele>
        <time>2015-08-31T03:27:26Z</time>
      </trkpt>
      <trkpt lat="34.09101" lon="77.15202">
        <ele>4302.6</ele>
        <time>2015-08-31T03:27:34Z</time>
      </trkpt>
      <trkpt lat="34.09097" lon="77.15208">
        <ele>4303.8</ele>
        <time>2015-08-31T03:27:45Z</time>
      </trkpt>
      <trkpt lat="34.09094" lon="77.15206">
        <ele>4304.8</ele>
        <time>2015-08-31T03:27:54Z</time>
      </trkpt>
      <trkpt lat="34.09092" lon="77.15204">
        <ele>4305.8</ele>
        <time>2015-08-31T03:28:03Z</time>
      </trkpt>
      <trkpt lat="34.09091" lon="77.152">
        <ele>4307</ele>
        <time>2015-08-31T03:28:13Z</time>
      </trkpt>
      <trkpt lat="34.09088" lon="77.15199">
        <ele>4308.2</ele>
        <time>2015-08-31T03:28:22Z</time>
      </trkpt>
      <trkpt lat="34.09089" lon="77.15202">
        <ele>4309.2</ele>
        <time>2015-08-31T03:28:58Z</time>
      </trkpt>
      <trkpt lat="34.0909" lon="77.15203">
        <ele>4309.2</ele>
        <time>2015-08-31T03:29:58Z</time>
      </trkpt>
      <trkpt lat="34.09084" lon="77.15202">
        <ele>4310.2</ele>
        <time>2015-08-31T03:30:41Z</time>
      </trkpt>
      <trkpt lat="34.09084" lon="77.15212">
        <ele>4311.2</ele>
        <time>2015-08-31T03:30:51Z</time>
      </trkpt>
      <trkpt lat="34.09083" lon="77.15212">
        <ele>4312.4</ele>
        <time>2015-08-31T03:31:01Z</time>
      </trkpt>
      <trkpt lat="34.09081" lon="77.15222">
        <ele>4313.6</ele>
        <time>2015-08-31T03:31:08Z</time>
      </trkpt>
      <trkpt lat="34.09078" lon="77.15224">
        <ele>4314.6</ele>
        <time>2015-08-31T03:31:18Z</time>
      </trkpt>
      <trkpt lat="34.09078" lon="77.15227">
        <ele>4315.8</ele>
        <time>2015-08-31T03:31:24Z</time>
      </trkpt>
      <trkpt lat="34.0908" lon="77.15234">
        <ele>4316.8</ele>
        <time>2015-08-31T03:31:32Z</time>
      </trkpt>
      <trkpt lat="34.0908" lon="77.15238">
        <ele>4318</ele>
        <time>2015-08-31T03:31:41Z</time>
      </trkpt>
      <trkpt lat="34.09076" lon="77.15242">
        <ele>4319</ele>
        <time>2015-08-31T03:31:50Z</time>
      </trkpt>
      <trkpt lat="34.09077" lon="77.15246">
        <ele>4320</ele>
        <time>2015-08-31T03:31:58Z</time>
      </trkpt>
      <trkpt lat="34.09075" lon="77.15251">
        <ele>4321.2</ele>
        <time>2015-08-31T03:32:06Z</time>
      </trkpt>
      <trkpt lat="34.0907" lon="77.15254">
        <ele>4322</ele>
        <time>2015-08-31T03:32:12Z</time>
      </trkpt>
      <trkpt lat="34.0907" lon="77.15255">
        <ele>4322.2</ele>
        <time>2015-08-31T03:32:13Z</time>
      </trkpt>
      <trkpt lat="34.09066" lon="77.15253">
        <ele>4323.2</ele>
        <time>2015-08-31T03:32:24Z</time>
      </trkpt>
      <trkpt lat="34.09064" lon="77.15255">
        <ele>4324.4</ele>
        <time>2015-08-31T03:32:33Z</time>
      </trkpt>
      <trkpt lat="34.09063" lon="77.15264">
        <ele>4325.4</ele>
        <time>2015-08-31T03:32:41Z</time>
      </trkpt>
      <trkpt lat="34.09068" lon="77.15266">
        <ele>4326.6</ele>
        <time>2015-08-31T03:32:50Z</time>
      </trkpt>
      <trkpt lat="34.09071" lon="77.15269">
        <ele>4327.6</ele>
        <time>2015-08-31T03:32:59Z</time>
      </trkpt>
      <trkpt lat="34.09068" lon="77.15271">
        <ele>4328.8</ele>
        <time>2015-08-31T03:33:07Z</time>
      </trkpt>
      <trkpt lat="34.09066" lon="77.15274">
        <ele>4329.8</ele>
        <time>2015-08-31T03:33:16Z</time>
      </trkpt>
      <trkpt lat="34.09065" lon="77.15278">
        <ele>4331</ele>
        <time>2015-08-31T03:33:24Z</time>
      </trkpt>
      <trkpt lat="34.09063" lon="77.15282">
        <ele>4332</ele>
        <time>2015-08-31T03:33:33Z</time>
      </trkpt>
      <trkpt lat="34.09062" lon="77.15287">
        <ele>4333</ele>
        <time>2015-08-31T03:33:44Z</time>
      </trkpt>
      <trkpt lat="34.09061" lon="77.15293">
        <ele>4334.2</ele>
        <time>2015-08-31T03:33:54Z</time>
      </trkpt>
      <trkpt lat="34.09056" lon="77.15298">
        <ele>4335</ele>
        <time>2015-08-31T03:34:03Z</time>
      </trkpt>
      <trkpt lat="34.09055" lon="77.15298">
        <ele>4335.2</ele>
        <time>2015-08-31T03:34:04Z</time>
      </trkpt>
      <trkpt lat="34.09054" lon="77.15298">
        <ele>4335.4</ele>
        <time>2015-08-31T03:34:06Z</time>
      </trkpt>
      <trkpt lat="34.09053" lon="77.15301">
        <ele>4336.2</ele>
        <time>2015-08-31T03:34:12Z</time>
      </trkpt>
      <trkpt lat="34.09052" lon="77.15305">
        <ele>4337.4</ele>
        <time>2015-08-31T03:34:22Z</time>
      </trkpt>
      <trkpt lat="34.09051" lon="77.15308">
        <ele>4338.4</ele>
        <time>2015-08-31T03:34:33Z</time>
      </trkpt>
      <trkpt lat="34.09048" lon="77.15313">
        <ele>4339.4</ele>
        <time>2015-08-31T03:34:42Z</time>
      </trkpt>
      <trkpt lat="34.09048" lon="77.15317">
        <ele>4339.8</ele>
        <time>2015-08-31T03:34:46Z</time>
      </trkpt>
      <trkpt lat="34.09047" lon="77.15322">
        <ele>4340.6</ele>
        <time>2015-08-31T03:34:54Z</time>
      </trkpt>
      <trkpt lat="34.09048" lon="77.15328">
        <ele>4341.6</ele>
        <time>2015-08-31T03:35:05Z</time>
      </trkpt>
      <trkpt lat="34.09047" lon="77.15334">
        <ele>4342.8</ele>
        <time>2015-08-31T03:35:14Z</time>
      </trkpt>
      <trkpt lat="34.09043" lon="77.15339">
        <ele>4344</ele>
        <time>2015-08-31T03:35:25Z</time>
      </trkpt>
      <trkpt lat="34.09037" lon="77.1534">
        <ele>4345</ele>
        <time>2015-08-31T03:35:35Z</time>
      </trkpt>
      <trkpt lat="34.09036" lon="77.15342">
        <ele>4346</ele>
        <time>2015-08-31T03:35:44Z</time>
      </trkpt>
      <trkpt lat="34.09036" lon="77.15347">
        <ele>4347</ele>
        <time>2015-08-31T03:35:52Z</time>
      </trkpt>
      <trkpt lat="34.09039" lon="77.15353">
        <ele>4348.2</ele>
        <time>2015-08-31T03:36:02Z</time>
      </trkpt>
      <trkpt lat="34.09034" lon="77.1536">
        <ele>4349.2</ele>
        <time>2015-08-31T03:36:12Z</time>
      </trkpt>
      <trkpt lat="34.09033" lon="77.15363">
        <ele>4350</ele>
        <time>2015-08-31T03:36:17Z</time>
      </trkpt>
      <trkpt lat="34.09032" lon="77.15365">
        <ele>4350.4</ele>
        <time>2015-08-31T03:36:20Z</time>
      </trkpt>
      <trkpt lat="34.09035" lon="77.15368">
        <ele>4351.4</ele>
        <time>2015-08-31T03:36:28Z</time>
      </trkpt>
      <trkpt lat="34.09036" lon="77.15372">
        <ele>4352.4</ele>
        <time>2015-08-31T03:36:36Z</time>
      </trkpt>
      <trkpt lat="34.09035" lon="77.15375">
        <ele>4353.6</ele>
        <time>2015-08-31T03:36:44Z</time>
      </trkpt>
      <trkpt lat="34.09033" lon="77.15378">
        <ele>4354.6</ele>
        <time>2015-08-31T03:36:52Z</time>
      </trkpt>
      <trkpt lat="34.0903" lon="77.15377">
        <ele>4355.6</ele>
        <time>2015-08-31T03:37:00Z</time>
      </trkpt>
      <trkpt lat="34.09028" lon="77.15375">
        <ele>4356.6</ele>
        <time>2015-08-31T03:37:08Z</time>
      </trkpt>
      <trkpt lat="34.09026" lon="77.15374">
        <ele>4357.8</ele>
        <time>2015-08-31T03:37:16Z</time>
      </trkpt>
      <trkpt lat="34.09021" lon="77.15376">
        <ele>4358.8</ele>
        <time>2015-08-31T03:37:27Z</time>
      </trkpt>
      <trkpt lat="34.0902" lon="77.15376">
        <ele>4359</ele>
        <time>2015-08-31T03:37:29Z</time>
      </trkpt>
      <trkpt lat="34.09017" lon="77.15375">
        <ele>4359.8</ele>
        <time>2015-08-31T03:37:35Z</time>
      </trkpt>
      <trkpt lat="34.09014" lon="77.15377">
        <ele>4360.8</ele>
        <time>2015-08-31T03:37:44Z</time>
      </trkpt>
      <trkpt lat="34.0901" lon="77.15379">
        <ele>4361.8</ele>
        <time>2015-08-31T03:37:53Z</time>
      </trkpt>
      <trkpt lat="34.09007" lon="77.15382">
        <ele>4363</ele>
        <time>2015-08-31T03:38:02Z</time>
      </trkpt>
      <trkpt lat="34.09005" lon="77.15382">
        <ele>4364</ele>
        <time>2015-08-31T03:38:11Z</time>
      </trkpt>
      <trkpt lat="34.09001" lon="77.15386">
        <ele>4365.2</ele>
        <time>2015-08-31T03:38:20Z</time>
      </trkpt>
      <trkpt lat="34.08997" lon="77.15386">
        <ele>4366.2</ele>
        <time>2015-08-31T03:38:30Z</time>
      </trkpt>
      <trkpt lat="34.08993" lon="77.15386">
        <ele>4367.4</ele>
        <time>2015-08-31T03:38:37Z</time>
      </trkpt>
      <trkpt lat="34.08989" lon="77.1539">
        <ele>4368.4</ele>
        <time>2015-08-31T03:38:48Z</time>
      </trkpt>
      <trkpt lat="34.08992" lon="77.15397">
        <ele>4369.6</ele>
        <time>2015-08-31T03:38:59Z</time>
      </trkpt>
      <trkpt lat="34.08991" lon="77.15402">
        <ele>4370.6</ele>
        <time>2015-08-31T03:39:09Z</time>
      </trkpt>
      <trkpt lat="34.0899" lon="77.15406">
        <ele>4371.8</ele>
        <time>2015-08-31T03:39:19Z</time>
      </trkpt>
      <trkpt lat="34.08991" lon="77.1541">
        <ele>4372.8</ele>
        <time>2015-08-31T03:39:26Z</time>
      </trkpt>
      <trkpt lat="34.08996" lon="77.15413">
        <ele>4374</ele>
        <time>2015-08-31T03:39:35Z</time>
      </trkpt>
      <trkpt lat="34.09" lon="77.15415">
        <ele>4375</ele>
        <time>2015-08-31T03:39:43Z</time>
      </trkpt>
      <trkpt lat="34.09002" lon="77.15421">
        <ele>4376</ele>
        <time>2015-08-31T03:39:54Z</time>
      </trkpt>
      <trkpt lat="34.09001" lon="77.15422">
        <ele>4377.2</ele>
        <time>2015-08-31T03:40:01Z</time>
      </trkpt>
      <trkpt lat="34.08996" lon="77.15421">
        <ele>4378.2</ele>
        <time>2015-08-31T03:40:12Z</time>
      </trkpt>
      <trkpt lat="34.08993" lon="77.15419">
        <ele>4379.4</ele>
        <time>2015-08-31T03:40:21Z</time>
      </trkpt>
      <trkpt lat="34.08988" lon="77.1542">
        <ele>4380.4</ele>
        <time>2015-08-31T03:40:30Z</time>
      </trkpt>
      <trkpt lat="34.08984" lon="77.15423">
        <ele>4381.4</ele>
        <time>2015-08-31T03:40:38Z</time>
      </trkpt>
      <trkpt lat="34.08979" lon="77.15418">
        <ele>4382.6</ele>
        <time>2015-08-31T03:40:49Z</time>
      </trkpt>
      <trkpt lat="34.08976" lon="77.15419">
        <ele>4383.6</ele>
        <time>2015-08-31T03:40:57Z</time>
      </trkpt>
      <trkpt lat="34.08969" lon="77.15421">
        <ele>4384.8</ele>
        <time>2015-08-31T03:41:07Z</time>
      </trkpt>
      <trkpt lat="34.08974" lon="77.15428">
        <ele>4385.6</ele>
        <time>2015-08-31T03:41:13Z</time>
      </trkpt>
      <trkpt lat="34.08977" lon="77.15429">
        <ele>4385.8</ele>
        <time>2015-08-31T03:41:15Z</time>
      </trkpt>
      <trkpt lat="34.08979" lon="77.1543">
        <ele>4386.2</ele>
        <time>2015-08-31T03:41:18Z</time>
      </trkpt>
      <trkpt lat="34.08981" lon="77.15431">
        <ele>4386.6</ele>
        <time>2015-08-31T03:41:21Z</time>
      </trkpt>
      <trkpt lat="34.08981" lon="77.15432">
        <ele>4386.8</ele>
        <time>2015-08-31T03:41:23Z</time>
      </trkpt>
      <trkpt lat="34.08981" lon="77.15435">
        <ele>4388</ele>
        <time>2015-08-31T03:41:33Z</time>
      </trkpt>
      <trkpt lat="34.08981" lon="77.15437">
        <ele>4389</ele>
        <time>2015-08-31T03:41:40Z</time>
      </trkpt>
      <trkpt lat="34.08975" lon="77.15443">
        <ele>4390.2</ele>
        <time>2015-08-31T03:41:50Z</time>
      </trkpt>
      <trkpt lat="34.08973" lon="77.15442">
        <ele>4391.2</ele>
        <time>2015-08-31T03:41:59Z</time>
      </trkpt>
      <trkpt lat="34.08971" lon="77.15441">
        <ele>4392.4</ele>
        <time>2015-08-31T03:42:10Z</time>
      </trkpt>
      <trkpt lat="34.08969" lon="77.15442">
        <ele>4393.6</ele>
        <time>2015-08-31T03:42:17Z</time>
      </trkpt>
      <trkpt lat="34.08964" lon="77.15443">
        <ele>4394.6</ele>
        <time>2015-08-31T03:42:27Z</time>
      </trkpt>
      <trkpt lat="34.0896" lon="77.15444">
        <ele>4395.6</ele>
        <time>2015-08-31T03:42:34Z</time>
      </trkpt>
      <trkpt lat="34.08958" lon="77.15447">
        <ele>4396.6</ele>
        <time>2015-08-31T03:42:43Z</time>
      </trkpt>
      <trkpt lat="34.08956" lon="77.1545">
        <ele>4397.2</ele>
        <time>2015-08-31T03:42:47Z</time>
      </trkpt>
      <trkpt lat="34.08956" lon="77.15452">
        <ele>4397.6</ele>
        <time>2015-08-31T03:42:51Z</time>
      </trkpt>
      <trkpt lat="34.08958" lon="77.15455">
        <ele>4398.8</ele>
        <time>2015-08-31T03:43:01Z</time>
      </trkpt>
      <trkpt lat="34.0896" lon="77.15457">
        <ele>4399.8</ele>
        <time>2015-08-31T03:43:09Z</time>
      </trkpt>
      <trkpt lat="34.08964" lon="77.1546">
        <ele>4400.8</ele>
        <time>2015-08-31T03:43:18Z</time>
      </trkpt>
      <trkpt lat="34.08966" lon="77.15462">
        <ele>4402</ele>
        <time>2015-08-31T03:43:27Z</time>
      </trkpt>
      <trkpt lat="34.08966" lon="77.15464">
        <ele>4403</ele>
        <time>2015-08-31T03:43:33Z</time>
      </trkpt>
      <trkpt lat="34.08968" lon="77.15468">
        <ele>4404</ele>
        <time>2015-08-31T03:43:41Z</time>
      </trkpt>
      <trkpt lat="34.08972" lon="77.1547">
        <ele>4405</ele>
        <time>2015-08-31T03:43:50Z</time>
      </trkpt>
      <trkpt lat="34.08974" lon="77.15474">
        <ele>4406</ele>
        <time>2015-08-31T03:43:58Z</time>
      </trkpt>
      <trkpt lat="34.08977" lon="77.15479">
        <ele>4407.2</ele>
        <time>2015-08-31T03:44:10Z</time>
      </trkpt>
      <trkpt lat="34.08973" lon="77.15482">
        <ele>4408.4</ele>
        <time>2015-08-31T03:44:17Z</time>
      </trkpt>
      <trkpt lat="34.08971" lon="77.15479">
        <ele>4409.4</ele>
        <time>2015-08-31T03:44:25Z</time>
      </trkpt>
      <trkpt lat="34.08968" lon="77.15478">
        <ele>4410.6</ele>
        <time>2015-08-31T03:44:32Z</time>
      </trkpt>
      <trkpt lat="34.08966" lon="77.15481">
        <ele>4411.8</ele>
        <time>2015-08-31T03:44:43Z</time>
      </trkpt>
      <trkpt lat="34.08963" lon="77.15485">
        <ele>4412.8</ele>
        <time>2015-08-31T03:44:50Z</time>
      </trkpt>
      <trkpt lat="34.08961" lon="77.15486">
        <ele>4413.8</ele>
        <time>2015-08-31T03:44:57Z</time>
      </trkpt>
      <trkpt lat="34.08957" lon="77.15488">
        <ele>4415</ele>
        <time>2015-08-31T03:45:06Z</time>
      </trkpt>
      <trkpt lat="34.08953" lon="77.15491">
        <ele>4416</ele>
        <time>2015-08-31T03:45:15Z</time>
      </trkpt>
      <trkpt lat="34.08952" lon="77.15492">
        <ele>4417</ele>
        <time>2015-08-31T03:45:24Z</time>
      </trkpt>
      <trkpt lat="34.08948" lon="77.15499">
        <ele>4418.2</ele>
        <time>2015-08-31T03:45:38Z</time>
      </trkpt>
      <trkpt lat="34.08948" lon="77.15501">
        <ele>4419.2</ele>
        <time>2015-08-31T03:45:46Z</time>
      </trkpt>
      <trkpt lat="34.08958" lon="77.155">
        <ele>4420.2</ele>
        <time>2015-08-31T03:45:56Z</time>
      </trkpt>
      <trkpt lat="34.08959" lon="77.155">
        <ele>4420.4</ele>
        <time>2015-08-31T03:45:57Z</time>
      </trkpt>
      <trkpt lat="34.08958" lon="77.15504">
        <ele>4421.4</ele>
        <time>2015-08-31T03:46:28Z</time>
      </trkpt>
      <trkpt lat="34.0895" lon="77.1551">
        <ele>4422.4</ele>
        <time>2015-08-31T03:46:48Z</time>
      </trkpt>
      <trkpt lat="34.08961" lon="77.15512">
        <ele>4423.6</ele>
        <time>2015-08-31T03:47:05Z</time>
      </trkpt>
      <trkpt lat="34.08962" lon="77.15512">
        <ele>4424</ele>
        <time>2015-08-31T03:47:09Z</time>
      </trkpt>
      <trkpt lat="34.08966" lon="77.15512">
        <ele>4424.6</ele>
        <time>2015-08-31T03:47:16Z</time>
      </trkpt>
      <trkpt lat="34.08968" lon="77.15514">
        <ele>4425.6</ele>
        <time>2015-08-31T03:47:22Z</time>
      </trkpt>
      <trkpt lat="34.08969" lon="77.15515">
        <ele>4426.8</ele>
        <time>2015-08-31T03:47:28Z</time>
      </trkpt>
      <trkpt lat="34.08974" lon="77.15515">
        <ele>4427.8</ele>
        <time>2015-08-31T03:47:37Z</time>
      </trkpt>
      <trkpt lat="34.08977" lon="77.15515">
        <ele>4428.2</ele>
        <time>2015-08-31T03:47:40Z</time>
      </trkpt>
      <trkpt lat="34.08978" lon="77.15516">
        <ele>4429</ele>
        <time>2015-08-31T03:47:46Z</time>
      </trkpt>
      <trkpt lat="34.0898" lon="77.15517">
        <ele>4430</ele>
        <time>2015-08-31T03:47:50Z</time>
      </trkpt>
      <trkpt lat="34.08978" lon="77.1552">
        <ele>4431</ele>
        <time>2015-08-31T03:48:05Z</time>
      </trkpt>
      <trkpt lat="34.08978" lon="77.15518">
        <ele>4431.2</ele>
        <time>2015-08-31T03:49:29Z</time>
      </trkpt>
      <trkpt lat="34.08978" lon="77.15521">
        <ele>4431.4</ele>
        <time>2015-08-31T03:50:13Z</time>
      </trkpt>
      <trkpt lat="34.08979" lon="77.15516">
        <ele>4432</ele>
        <time>2015-08-31T03:50:52Z</time>
      </trkpt>
      <trkpt lat="34.08972" lon="77.15524">
        <ele>4432.6</ele>
        <time>2015-08-31T03:52:13Z</time>
      </trkpt>
      <trkpt lat="34.08971" lon="77.15526">
        <ele>4433.2</ele>
        <time>2015-08-31T03:52:19Z</time>
      </trkpt>
      <trkpt lat="34.08969" lon="77.15529">
        <ele>4434.2</ele>
        <time>2015-08-31T03:52:31Z</time>
      </trkpt>
      <trkpt lat="34.08967" lon="77.1553">
        <ele>4435.2</ele>
        <time>2015-08-31T03:52:44Z</time>
      </trkpt>
      <trkpt lat="34.08969" lon="77.15533">
        <ele>4436.2</ele>
        <time>2015-08-31T03:52:56Z</time>
      </trkpt>
      <trkpt lat="34.08969" lon="77.15537">
        <ele>4437.4</ele>
        <time>2015-08-31T03:53:12Z</time>
      </trkpt>
      <trkpt lat="34.08969" lon="77.15537">
        <ele>4438.4</ele>
        <time>2015-08-31T03:53:17Z</time>
      </trkpt>
      <trkpt lat="34.0897" lon="77.15537">
        <ele>4439.6</ele>
        <time>2015-08-31T03:53:33Z</time>
      </trkpt>
      <trkpt lat="34.08968" lon="77.1554">
        <ele>4440.6</ele>
        <time>2015-08-31T03:53:42Z</time>
      </trkpt>
      <trkpt lat="34.08968" lon="77.15542">
        <ele>4441.6</ele>
        <time>2015-08-31T03:53:52Z</time>
      </trkpt>
      <trkpt lat="34.08967" lon="77.15543">
        <ele>4442.6</ele>
        <time>2015-08-31T03:54:01Z</time>
      </trkpt>
      <trkpt lat="34.08965" lon="77.15548">
        <ele>4443.8</ele>
        <time>2015-08-31T03:54:13Z</time>
      </trkpt>
      <trkpt lat="34.08963" lon="77.15552">
        <ele>4444.8</ele>
        <time>2015-08-31T03:54:25Z</time>
      </trkpt>
      <trkpt lat="34.08965" lon="77.15552">
        <ele>4445.8</ele>
        <time>2015-08-31T03:54:39Z</time>
      </trkpt>
      <trkpt lat="34.08962" lon="77.15554">
        <ele>4447</ele>
        <time>2015-08-31T03:54:52Z</time>
      </trkpt>
      <trkpt lat="34.0896" lon="77.15554">
        <ele>4448</ele>
        <time>2015-08-31T03:55:01Z</time>
      </trkpt>
      <trkpt lat="34.08958" lon="77.15561">
        <ele>4449.2</ele>
        <time>2015-08-31T03:55:13Z</time>
      </trkpt>
      <trkpt lat="34.08956" lon="77.15564">
        <ele>4450.2</ele>
        <time>2015-08-31T03:55:23Z</time>
      </trkpt>
      <trkpt lat="34.08956" lon="77.15565">
        <ele>4450.2</ele>
        <time>2015-08-31T03:55:24Z</time>
      </trkpt>
      <trkpt lat="34.08957" lon="77.15566">
        <ele>4451.2</ele>
        <time>2015-08-31T03:55:34Z</time>
      </trkpt>
      <trkpt lat="34.08955" lon="77.1557">
        <ele>4452.2</ele>
        <time>2015-08-31T03:55:46Z</time>
      </trkpt>
      <trkpt lat="34.08953" lon="77.15572">
        <ele>4453.2</ele>
        <time>2015-08-31T03:56:00Z</time>
      </trkpt>
      <trkpt lat="34.08951" lon="77.15575">
        <ele>4454.4</ele>
        <time>2015-08-31T03:56:08Z</time>
      </trkpt>
      <trkpt lat="34.08953" lon="77.15578">
        <ele>4455.4</ele>
        <time>2015-08-31T03:56:23Z</time>
      </trkpt>
      <trkpt lat="34.08952" lon="77.15582">
        <ele>4456.6</ele>
        <time>2015-08-31T03:56:31Z</time>
      </trkpt>
      <trkpt lat="34.08951" lon="77.15585">
        <ele>4457.6</ele>
        <time>2015-08-31T03:56:43Z</time>
      </trkpt>
      <trkpt lat="34.08949" lon="77.15587">
        <ele>4458.6</ele>
        <time>2015-08-31T03:56:54Z</time>
      </trkpt>
      <trkpt lat="34.08946" lon="77.15589">
        <ele>4459.8</ele>
        <time>2015-08-31T03:57:07Z</time>
      </trkpt>
      <trkpt lat="34.08947" lon="77.15594">
        <ele>4460.8</ele>
        <time>2015-08-31T03:57:15Z</time>
      </trkpt>
      <trkpt lat="34.08945" lon="77.15599">
        <ele>4461.8</ele>
        <time>2015-08-31T03:57:27Z</time>
      </trkpt>
      <trkpt lat="34.0894" lon="77.15599">
        <ele>4462.8</ele>
        <time>2015-08-31T03:57:39Z</time>
      </trkpt>
      <trkpt lat="34.08938" lon="77.15603">
        <ele>4463.6</ele>
        <time>2015-08-31T03:57:49Z</time>
      </trkpt>
      <trkpt lat="34.08936" lon="77.15604">
        <ele>4463.8</ele>
        <time>2015-08-31T03:57:53Z</time>
      </trkpt>
      <trkpt lat="34.08933" lon="77.15608">
        <ele>4465</ele>
        <time>2015-08-31T03:58:05Z</time>
      </trkpt>
      <trkpt lat="34.0893" lon="77.15612">
        <ele>4466</ele>
        <time>2015-08-31T03:58:14Z</time>
      </trkpt>
      <trkpt lat="34.08928" lon="77.15614">
        <ele>4466.4</ele>
        <time>2015-08-31T03:58:18Z</time>
      </trkpt>
      <trkpt lat="34.08925" lon="77.15617">
        <ele>4467</ele>
        <time>2015-08-31T03:58:26Z</time>
      </trkpt>
      <trkpt lat="34.08926" lon="77.15619">
        <ele>4468</ele>
        <time>2015-08-31T03:58:33Z</time>
      </trkpt>
      <trkpt lat="34.08929" lon="77.15618">
        <ele>4469</ele>
        <time>2015-08-31T03:58:49Z</time>
      </trkpt>
      <trkpt lat="34.08933" lon="77.15621">
        <ele>4470</ele>
        <time>2015-08-31T03:59:02Z</time>
      </trkpt>
      <trkpt lat="34.0893" lon="77.15622">
        <ele>4471.2</ele>
        <time>2015-08-31T03:59:07Z</time>
      </trkpt>
      <trkpt lat="34.08925" lon="77.15625">
        <ele>4472.2</ele>
        <time>2015-08-31T03:59:18Z</time>
      </trkpt>
      <trkpt lat="34.08927" lon="77.15632">
        <ele>4473.2</ele>
        <time>2015-08-31T03:59:32Z</time>
      </trkpt>
      <trkpt lat="34.08923" lon="77.15637">
        <ele>4474.4</ele>
        <time>2015-08-31T03:59:44Z</time>
      </trkpt>
      <trkpt lat="34.08923" lon="77.1564">
        <ele>4475.4</ele>
        <time>2015-08-31T03:59:55Z</time>
      </trkpt>
      <trkpt lat="34.08923" lon="77.15646">
        <ele>4476.6</ele>
        <time>2015-08-31T04:00:08Z</time>
      </trkpt>
      <trkpt lat="34.08923" lon="77.15647">
        <ele>4477.6</ele>
        <time>2015-08-31T04:00:20Z</time>
      </trkpt>
      <trkpt lat="34.08921" lon="77.1565">
        <ele>4478.6</ele>
        <time>2015-08-31T04:00:32Z</time>
      </trkpt>
      <trkpt lat="34.08919" lon="77.15655">
        <ele>4479.6</ele>
        <time>2015-08-31T04:00:45Z</time>
      </trkpt>
      <trkpt lat="34.08919" lon="77.15656">
        <ele>4480.8</ele>
        <time>2015-08-31T04:00:54Z</time>
      </trkpt>
      <trkpt lat="34.08918" lon="77.15659">
        <ele>4481.8</ele>
        <time>2015-08-31T04:01:08Z</time>
      </trkpt>
      <trkpt lat="34.08914" lon="77.1567">
        <ele>4482.8</ele>
        <time>2015-08-31T04:01:28Z</time>
      </trkpt>
      <trkpt lat="34.0891" lon="77.15669">
        <ele>4483.8</ele>
        <time>2015-08-31T04:01:46Z</time>
      </trkpt>
      <trkpt lat="34.08911" lon="77.15673">
        <ele>4484.8</ele>
        <time>2015-08-31T04:01:55Z</time>
      </trkpt>
      <trkpt lat="34.0891" lon="77.15675">
        <ele>4485.2</ele>
        <time>2015-08-31T04:02:00Z</time>
      </trkpt>
      <trkpt lat="34.08911" lon="77.15676">
        <ele>4486</ele>
        <time>2015-08-31T04:02:04Z</time>
      </trkpt>
      <trkpt lat="34.0891" lon="77.15677">
        <ele>4487.2</ele>
        <time>2015-08-31T04:02:10Z</time>
      </trkpt>
      <trkpt lat="34.0891" lon="77.15678">
        <ele>4487.2</ele>
        <time>2015-08-31T04:02:11Z</time>
      </trkpt>
      <trkpt lat="34.08908" lon="77.15681">
        <ele>4488.2</ele>
        <time>2015-08-31T04:02:24Z</time>
      </trkpt>
      <trkpt lat="34.08905" lon="77.15687">
        <ele>4489.2</ele>
        <time>2015-08-31T04:02:39Z</time>
      </trkpt>
      <trkpt lat="34.08906" lon="77.15687">
        <ele>4490.4</ele>
        <time>2015-08-31T04:02:50Z</time>
      </trkpt>
      <trkpt lat="34.08905" lon="77.15687">
        <ele>4491.4</ele>
        <time>2015-08-31T04:02:58Z</time>
      </trkpt>
      <trkpt lat="34.08903" lon="77.15694">
        <ele>4492</ele>
        <time>2015-08-31T04:03:07Z</time>
      </trkpt>
      <trkpt lat="34.08902" lon="77.15696">
        <ele>4492.6</ele>
        <time>2015-08-31T04:03:17Z</time>
      </trkpt>
      <trkpt lat="34.08897" lon="77.15697">
        <ele>4493.6</ele>
        <time>2015-08-31T04:03:30Z</time>
      </trkpt>
      <trkpt lat="34.08895" lon="77.15699">
        <ele>4494.8</ele>
        <time>2015-08-31T04:03:42Z</time>
      </trkpt>
      <trkpt lat="34.08897" lon="77.15701">
        <ele>4495.8</ele>
        <time>2015-08-31T04:03:55Z</time>
      </trkpt>
      <trkpt lat="34.08896" lon="77.15703">
        <ele>4496.8</ele>
        <time>2015-08-31T04:04:03Z</time>
      </trkpt>
      <trkpt lat="34.08895" lon="77.15707">
        <ele>4498</ele>
        <time>2015-08-31T04:04:16Z</time>
      </trkpt>
      <trkpt lat="34.08891" lon="77.15711">
        <ele>4499</ele>
        <time>2015-08-31T04:04:28Z</time>
      </trkpt>
      <trkpt lat="34.08886" lon="77.15708">
        <ele>4500</ele>
        <time>2015-08-31T04:04:40Z</time>
      </trkpt>
      <trkpt lat="34.08885" lon="77.15715">
        <ele>4501.2</ele>
        <time>2015-08-31T04:04:51Z</time>
      </trkpt>
      <trkpt lat="34.08885" lon="77.15719">
        <ele>4502.2</ele>
        <time>2015-08-31T04:05:03Z</time>
      </trkpt>
      <trkpt lat="34.08882" lon="77.1572">
        <ele>4503.2</ele>
        <time>2015-08-31T04:05:16Z</time>
      </trkpt>
      <trkpt lat="34.08881" lon="77.15725">
        <ele>4504.4</ele>
        <time>2015-08-31T04:05:27Z</time>
      </trkpt>
      <trkpt lat="34.08881" lon="77.15725">
        <ele>4505.4</ele>
        <time>2015-08-31T04:05:40Z</time>
      </trkpt>
      <trkpt lat="34.08879" lon="77.15727">
        <ele>4506.6</ele>
        <time>2015-08-31T04:05:49Z</time>
      </trkpt>
      <trkpt lat="34.08878" lon="77.15733">
        <ele>4507.6</ele>
        <time>2015-08-31T04:05:59Z</time>
      </trkpt>
      <trkpt lat="34.08876" lon="77.15734">
        <ele>4508.6</ele>
        <time>2015-08-31T04:06:12Z</time>
      </trkpt>
      <trkpt lat="34.08873" lon="77.15736">
        <ele>4509.6</ele>
        <time>2015-08-31T04:06:25Z</time>
      </trkpt>
      <trkpt lat="34.08873" lon="77.15739">
        <ele>4510.8</ele>
        <time>2015-08-31T04:06:40Z</time>
      </trkpt>
      <trkpt lat="34.08875" lon="77.15742">
        <ele>4511.8</ele>
        <time>2015-08-31T04:06:51Z</time>
      </trkpt>
      <trkpt lat="34.08877" lon="77.15743">
        <ele>4512.8</ele>
        <time>2015-08-31T04:07:04Z</time>
      </trkpt>
      <trkpt lat="34.08879" lon="77.15744">
        <ele>4513.8</ele>
        <time>2015-08-31T04:07:12Z</time>
      </trkpt>
      <trkpt lat="34.08877" lon="77.15749">
        <ele>4515</ele>
        <time>2015-08-31T04:07:23Z</time>
      </trkpt>
      <trkpt lat="34.08877" lon="77.15752">
        <ele>4516</ele>
        <time>2015-08-31T04:07:35Z</time>
      </trkpt>
      <trkpt lat="34.08878" lon="77.15757">
        <ele>4517.2</ele>
        <time>2015-08-31T04:07:50Z</time>
      </trkpt>
      <trkpt lat="34.08875" lon="77.15759">
        <ele>4518.2</ele>
        <time>2015-08-31T04:08:01Z</time>
      </trkpt>
      <trkpt lat="34.08872" lon="77.1576">
        <ele>4519.2</ele>
        <time>2015-08-31T04:08:08Z</time>
      </trkpt>
      <trkpt lat="34.08868" lon="77.15757">
        <ele>4520.2</ele>
        <time>2015-08-31T04:08:19Z</time>
      </trkpt>
      <trkpt lat="34.08864" lon="77.15763">
        <ele>4521.2</ele>
        <time>2015-08-31T04:08:32Z</time>
      </trkpt>
      <trkpt lat="34.08863" lon="77.15762">
        <ele>4522.4</ele>
        <time>2015-08-31T04:08:45Z</time>
      </trkpt>
      <trkpt lat="34.08861" lon="77.15767">
        <ele>4523.4</ele>
        <time>2015-08-31T04:08:57Z</time>
      </trkpt>
      <trkpt lat="34.08862" lon="77.1577">
        <ele>4524.6</ele>
        <time>2015-08-31T04:09:04Z</time>
      </trkpt>
      <trkpt lat="34.08865" lon="77.15772">
        <ele>4525.6</ele>
        <time>2015-08-31T04:09:15Z</time>
      </trkpt>
      <trkpt lat="34.08866" lon="77.15775">
        <ele>4526.6</ele>
        <time>2015-08-31T04:09:27Z</time>
      </trkpt>
      <trkpt lat="34.08862" lon="77.1578">
        <ele>4527.6</ele>
        <time>2015-08-31T04:09:40Z</time>
      </trkpt>
      <trkpt lat="34.0886" lon="77.15777">
        <ele>4528.8</ele>
        <time>2015-08-31T04:09:57Z</time>
      </trkpt>
      <trkpt lat="34.08858" lon="77.15781">
        <ele>4529.8</ele>
        <time>2015-08-31T04:10:07Z</time>
      </trkpt>
      <trkpt lat="34.08858" lon="77.15783">
        <ele>4531</ele>
        <time>2015-08-31T04:10:14Z</time>
      </trkpt>
      <trkpt lat="34.08857" lon="77.15785">
        <ele>4532.2</ele>
        <time>2015-08-31T04:10:24Z</time>
      </trkpt>
      <trkpt lat="34.08851" lon="77.15786">
        <ele>4533.2</ele>
        <time>2015-08-31T04:10:40Z</time>
      </trkpt>
      <trkpt lat="34.08851" lon="77.15788">
        <ele>4534.4</ele>
        <time>2015-08-31T04:10:53Z</time>
      </trkpt>
      <trkpt lat="34.08851" lon="77.15786">
        <ele>4535.4</ele>
        <time>2015-08-31T04:11:05Z</time>
      </trkpt>
      <trkpt lat="34.08852" lon="77.15787">
        <ele>4536.4</ele>
        <time>2015-08-31T04:11:18Z</time>
      </trkpt>
      <trkpt lat="34.08855" lon="77.15791">
        <ele>4537.4</ele>
        <time>2015-08-31T04:11:27Z</time>
      </trkpt>
      <trkpt lat="34.08854" lon="77.15794">
        <ele>4538.6</ele>
        <time>2015-08-31T04:11:35Z</time>
      </trkpt>
      <trkpt lat="34.08852" lon="77.15798">
        <ele>4539.6</ele>
        <time>2015-08-31T04:11:44Z</time>
      </trkpt>
      <trkpt lat="34.08852" lon="77.15801">
        <ele>4540.6</ele>
        <time>2015-08-31T04:11:53Z</time>
      </trkpt>
      <trkpt lat="34.08853" lon="77.15804">
        <ele>4541.8</ele>
        <time>2015-08-31T04:12:03Z</time>
      </trkpt>
      <trkpt lat="34.08858" lon="77.15805">
        <ele>4542.8</ele>
        <time>2015-08-31T04:12:22Z</time>
      </trkpt>
      <trkpt lat="34.08858" lon="77.15806">
        <ele>4544</ele>
        <time>2015-08-31T04:12:29Z</time>
      </trkpt>
      <trkpt lat="34.08861" lon="77.15807">
        <ele>4545</ele>
        <time>2015-08-31T04:12:44Z</time>
      </trkpt>
      <trkpt lat="34.08864" lon="77.15806">
        <ele>4546.2</ele>
        <time>2015-08-31T04:12:51Z</time>
      </trkpt>
      <trkpt lat="34.08867" lon="77.15808">
        <ele>4546.8</ele>
        <time>2015-08-31T04:12:58Z</time>
      </trkpt>
      <trkpt lat="34.08869" lon="77.15808">
        <ele>4547.2</ele>
        <time>2015-08-31T04:13:01Z</time>
      </trkpt>
      <trkpt lat="34.08871" lon="77.15813">
        <ele>4548.4</ele>
        <time>2015-08-31T04:13:10Z</time>
      </trkpt>
      <trkpt lat="34.08868" lon="77.15814">
        <ele>4549.4</ele>
        <time>2015-08-31T04:13:18Z</time>
      </trkpt>
      <trkpt lat="34.08863" lon="77.15818">
        <ele>4550.4</ele>
        <time>2015-08-31T04:13:32Z</time>
      </trkpt>
      <trkpt lat="34.08863" lon="77.15821">
        <ele>4551.4</ele>
        <time>2015-08-31T04:13:45Z</time>
      </trkpt>
      <trkpt lat="34.08861" lon="77.15823">
        <ele>4552.4</ele>
        <time>2015-08-31T04:13:53Z</time>
      </trkpt>
      <trkpt lat="34.08856" lon="77.15823">
        <ele>4553.4</ele>
        <time>2015-08-31T04:14:11Z</time>
      </trkpt>
      <trkpt lat="34.08858" lon="77.15819">
        <ele>4554.6</ele>
        <time>2015-08-31T04:15:08Z</time>
      </trkpt>
      <trkpt lat="34.08864" lon="77.15827">
        <ele>4555.6</ele>
        <time>2015-08-31T04:15:29Z</time>
      </trkpt>
      <trkpt lat="34.08866" lon="77.15827">
        <ele>4556.8</ele>
        <time>2015-08-31T04:15:33Z</time>
      </trkpt>
      <trkpt lat="34.08867" lon="77.15827">
        <ele>4557</ele>
        <time>2015-08-31T04:15:35Z</time>
      </trkpt>
      <trkpt lat="34.08868" lon="77.15832">
        <ele>4557.6</ele>
        <time>2015-08-31T04:15:40Z</time>
      </trkpt>
      <trkpt lat="34.08868" lon="77.15832">
        <ele>4557.8</ele>
        <time>2015-08-31T04:15:41Z</time>
      </trkpt>
      <trkpt lat="34.08871" lon="77.15836">
        <ele>4559</ele>
        <time>2015-08-31T04:15:47Z</time>
      </trkpt>
      <trkpt lat="34.08872" lon="77.15838">
        <ele>4560</ele>
        <time>2015-08-31T04:15:55Z</time>
      </trkpt>
      <trkpt lat="34.08869" lon="77.15842">
        <ele>4561.2</ele>
        <time>2015-08-31T04:16:05Z</time>
      </trkpt>
      <trkpt lat="34.08868" lon="77.15843">
        <ele>4562.2</ele>
        <time>2015-08-31T04:16:12Z</time>
      </trkpt>
      <trkpt lat="34.08866" lon="77.15848">
        <ele>4563.2</ele>
        <time>2015-08-31T04:16:20Z</time>
      </trkpt>
      <trkpt lat="34.08865" lon="77.15852">
        <ele>4564.2</ele>
        <time>2015-08-31T04:16:30Z</time>
      </trkpt>
      <trkpt lat="34.08864" lon="77.15854">
        <ele>4565.4</ele>
        <time>2015-08-31T04:16:36Z</time>
      </trkpt>
      <trkpt lat="34.08862" lon="77.15855">
        <ele>4566.4</ele>
        <time>2015-08-31T04:16:44Z</time>
      </trkpt>
      <trkpt lat="34.08859" lon="77.15853">
        <ele>4567.4</ele>
        <time>2015-08-31T04:16:52Z</time>
      </trkpt>
      <trkpt lat="34.08855" lon="77.15858">
        <ele>4568.6</ele>
        <time>2015-08-31T04:17:00Z</time>
      </trkpt>
      <trkpt lat="34.08856" lon="77.15864">
        <ele>4569</ele>
        <time>2015-08-31T04:17:05Z</time>
      </trkpt>
      <trkpt lat="34.08855" lon="77.15865">
        <ele>4569.6</ele>
        <time>2015-08-31T04:17:10Z</time>
      </trkpt>
      <trkpt lat="34.08852" lon="77.15862">
        <ele>4570.6</ele>
        <time>2015-08-31T04:17:23Z</time>
      </trkpt>
      <trkpt lat="34.08854" lon="77.15867">
        <ele>4571.8</ele>
        <time>2015-08-31T04:17:34Z</time>
      </trkpt>
      <trkpt lat="34.08858" lon="77.15871">
        <ele>4572.8</ele>
        <time>2015-08-31T04:17:45Z</time>
      </trkpt>
      <trkpt lat="34.08868" lon="77.15868">
        <ele>4573.8</ele>
        <time>2015-08-31T04:17:54Z</time>
      </trkpt>
      <trkpt lat="34.0887" lon="77.15869">
        <ele>4574</ele>
        <time>2015-08-31T04:17:56Z</time>
      </trkpt>
      <trkpt lat="34.08866" lon="77.15873">
        <ele>4574.8</ele>
        <time>2015-08-31T04:18:04Z</time>
      </trkpt>
      <trkpt lat="34.08864" lon="77.15878">
        <ele>4576</ele>
        <time>2015-08-31T04:18:14Z</time>
      </trkpt>
      <trkpt lat="34.08861" lon="77.15879">
        <ele>4577.2</ele>
        <time>2015-08-31T04:18:22Z</time>
      </trkpt>
      <trkpt lat="34.08857" lon="77.15876">
        <ele>4578.2</ele>
        <time>2015-08-31T04:18:30Z</time>
      </trkpt>
      <trkpt lat="34.08858" lon="77.15875">
        <ele>4579.2</ele>
        <time>2015-08-31T04:18:39Z</time>
      </trkpt>
      <trkpt lat="34.08857" lon="77.15881">
        <ele>4580.2</ele>
        <time>2015-08-31T04:18:49Z</time>
      </trkpt>
      <trkpt lat="34.08858" lon="77.15886">
        <ele>4581.2</ele>
        <time>2015-08-31T04:19:00Z</time>
      </trkpt>
      <trkpt lat="34.0886" lon="77.15889">
        <ele>4582.4</ele>
        <time>2015-08-31T04:19:10Z</time>
      </trkpt>
      <trkpt lat="34.08865" lon="77.15887">
        <ele>4583.4</ele>
        <time>2015-08-31T04:19:22Z</time>
      </trkpt>
      <trkpt lat="34.08867" lon="77.15891">
        <ele>4584.4</ele>
        <time>2015-08-31T04:19:32Z</time>
      </trkpt>
      <trkpt lat="34.08872" lon="77.15894">
        <ele>4585.6</ele>
        <time>2015-08-31T04:19:40Z</time>
      </trkpt>
      <trkpt lat="34.08869" lon="77.15898">
        <ele>4586.6</ele>
        <time>2015-08-31T04:19:49Z</time>
      </trkpt>
      <trkpt lat="34.08864" lon="77.15901">
        <ele>4587.6</ele>
        <time>2015-08-31T04:19:59Z</time>
      </trkpt>
      <trkpt lat="34.08863" lon="77.15903">
        <ele>4588.6</ele>
        <time>2015-08-31T04:20:06Z</time>
      </trkpt>
      <trkpt lat="34.08864" lon="77.15906">
        <ele>4589.6</ele>
        <time>2015-08-31T04:20:17Z</time>
      </trkpt>
      <trkpt lat="34.08866" lon="77.15909">
        <ele>4590.8</ele>
        <time>2015-08-31T04:20:26Z</time>
      </trkpt>
      <trkpt lat="34.08866" lon="77.15911">
        <ele>4592</ele>
        <time>2015-08-31T04:20:33Z</time>
      </trkpt>
      <trkpt lat="34.08864" lon="77.1592">
        <ele>4593</ele>
        <time>2015-08-31T04:20:49Z</time>
      </trkpt>
      <trkpt lat="34.08868" lon="77.15921">
        <ele>4594.2</ele>
        <time>2015-08-31T04:20:55Z</time>
      </trkpt>
      <trkpt lat="34.0887" lon="77.15924">
        <ele>4595.2</ele>
        <time>2015-08-31T04:21:03Z</time>
      </trkpt>
      <trkpt lat="34.08869" lon="77.15927">
        <ele>4596.4</ele>
        <time>2015-08-31T04:21:10Z</time>
      </trkpt>
      <trkpt lat="34.08872" lon="77.15933">
        <ele>4597.4</ele>
        <time>2015-08-31T04:21:31Z</time>
      </trkpt>
      <trkpt lat="34.08878" lon="77.15933">
        <ele>4597.6</ele>
        <time>2015-08-31T04:22:35Z</time>
      </trkpt>
      <trkpt lat="34.08875" lon="77.15929">
        <ele>4598.4</ele>
        <time>2015-08-31T04:22:46Z</time>
      </trkpt>
      <trkpt lat="34.08874" lon="77.1593">
        <ele>4598.6</ele>
        <time>2015-08-31T04:23:48Z</time>
      </trkpt>
      <trkpt lat="34.08873" lon="77.1593">
        <ele>4598.4</ele>
        <time>2015-08-31T04:24:43Z</time>
      </trkpt>
      <trkpt lat="34.08876" lon="77.1593">
        <ele>4599.4</ele>
        <time>2015-08-31T04:26:13Z</time>
      </trkpt>
      <trkpt lat="34.08874" lon="77.1593">
        <ele>4600.4</ele>
        <time>2015-08-31T04:26:37Z</time>
      </trkpt>
      <trkpt lat="34.08874" lon="77.15929">
        <ele>4600.6</ele>
        <time>2015-08-31T04:27:43Z</time>
      </trkpt>
      <trkpt lat="34.08876" lon="77.15931">
        <ele>4601.2</ele>
        <time>2015-08-31T04:28:47Z</time>
      </trkpt>
      <trkpt lat="34.08877" lon="77.15928">
        <ele>4601.6</ele>
        <time>2015-08-31T04:29:01Z</time>
      </trkpt>
      <trkpt lat="34.08874" lon="77.15922">
        <ele>4600.4</ele>
        <time>2015-08-31T04:29:25Z</time>
      </trkpt>
      <trkpt lat="34.08872" lon="77.15923">
        <ele>4599.8</ele>
        <time>2015-08-31T04:29:27Z</time>
      </trkpt>
      <trkpt lat="34.08875" lon="77.15935">
        <ele>4600.8</ele>
        <time>2015-08-31T04:29:56Z</time>
      </trkpt>
      <trkpt lat="34.08876" lon="77.15929">
        <ele>4601.2</ele>
        <time>2015-08-31T04:30:12Z</time>
      </trkpt>
      <trkpt lat="34.08872" lon="77.15927">
        <ele>4600.6</ele>
        <time>2015-08-31T04:30:16Z</time>
      </trkpt>
      <trkpt lat="34.08875" lon="77.15927">
        <ele>4600.6</ele>
        <time>2015-08-31T04:31:03Z</time>
      </trkpt>
      <trkpt lat="34.08868" lon="77.15927">
        <ele>4601.6</ele>
        <time>2015-08-31T04:31:29Z</time>
      </trkpt>
      <trkpt lat="34.08876" lon="77.15931">
        <ele>4601.8</ele>
        <time>2015-08-31T04:32:26Z</time>
      </trkpt>
      <trkpt lat="34.08877" lon="77.1593">
        <ele>4601.2</ele>
        <time>2015-08-31T04:33:44Z</time>
      </trkpt>
      <trkpt lat="34.08874" lon="77.15932">
        <ele>4601.4</ele>
        <time>2015-08-31T04:33:52Z</time>
      </trkpt>
      <trkpt lat="34.08872" lon="77.15934">
        <ele>4602.6</ele>
        <time>2015-08-31T04:34:08Z</time>
      </trkpt>
      <trkpt lat="34.08871" lon="77.15934">
        <ele>4602.2</ele>
        <time>2015-08-31T04:35:38Z</time>
      </trkpt>
      <trkpt lat="34.08874" lon="77.15931">
        <ele>4602.8</ele>
        <time>2015-08-31T04:37:19Z</time>
      </trkpt>
      <trkpt lat="34.08876" lon="77.15934">
        <ele>4603.2</ele>
        <time>2015-08-31T04:38:34Z</time>
      </trkpt>
      <trkpt lat="34.08871" lon="77.15933">
        <ele>4603.6</ele>
        <time>2015-08-31T04:39:06Z</time>
      </trkpt>
      <trkpt lat="34.08872" lon="77.15938">
        <ele>4603.2</ele>
        <time>2015-08-31T04:40:27Z</time>
      </trkpt>
      <trkpt lat="34.08864" lon="77.15947">
        <ele>4603.2</ele>
        <time>2015-08-31T04:41:15Z</time>
      </trkpt>
      <trkpt lat="34.08851" lon="77.15963">
        <ele>4603.6</ele>
        <time>2015-08-31T04:41:40Z</time>
      </trkpt>
      <trkpt lat="34.08842" lon="77.15975">
        <ele>4602.6</ele>
        <time>2015-08-31T04:41:55Z</time>
      </trkpt>
      <trkpt lat="34.08828" lon="77.15985">
        <ele>4601.8</ele>
        <time>2015-08-31T04:42:18Z</time>
      </trkpt>
      <trkpt lat="34.08826" lon="77.15986">
        <ele>4601.4</ele>
        <time>2015-08-31T04:42:21Z</time>
      </trkpt>
      <trkpt lat="34.08819" lon="77.15991">
        <ele>4600.4</ele>
        <time>2015-08-31T04:42:34Z</time>
      </trkpt>
      <trkpt lat="34.08806" lon="77.16006">
        <ele>4600.4</ele>
        <time>2015-08-31T04:42:55Z</time>
      </trkpt>
      <trkpt lat="34.08804" lon="77.16009">
        <ele>4600.2</ele>
        <time>2015-08-31T04:42:58Z</time>
      </trkpt>
      <trkpt lat="34.08792" lon="77.16026">
        <ele>4599.6</ele>
        <time>2015-08-31T04:43:17Z</time>
      </trkpt>
      <trkpt lat="34.08779" lon="77.16037">
        <ele>4599.4</ele>
        <time>2015-08-31T04:43:36Z</time>
      </trkpt>
      <trkpt lat="34.08765" lon="77.16051">
        <ele>4598.4</ele>
        <time>2015-08-31T04:43:55Z</time>
      </trkpt>
      <trkpt lat="34.0876" lon="77.16057">
        <ele>4598.2</ele>
        <time>2015-08-31T04:44:02Z</time>
      </trkpt>
      <trkpt lat="34.08755" lon="77.16063">
        <ele>4597.2</ele>
        <time>2015-08-31T04:44:11Z</time>
      </trkpt>
      <trkpt lat="34.08749" lon="77.1607">
        <ele>4596.2</ele>
        <time>2015-08-31T04:44:20Z</time>
      </trkpt>
      <trkpt lat="34.0874" lon="77.16085">
        <ele>4595.2</ele>
        <time>2015-08-31T04:44:41Z</time>
      </trkpt>
      <trkpt lat="34.08735" lon="77.16093">
        <ele>4594</ele>
        <time>2015-08-31T04:44:51Z</time>
      </trkpt>
      <trkpt lat="34.08722" lon="77.16085">
        <ele>4593.2</ele>
        <time>2015-08-31T04:45:12Z</time>
      </trkpt>
      <trkpt lat="34.08719" lon="77.16083">
        <ele>4593</ele>
        <time>2015-08-31T04:45:18Z</time>
      </trkpt>
      <trkpt lat="34.08712" lon="77.16076">
        <ele>4591.8</ele>
        <time>2015-08-31T04:45:34Z</time>
      </trkpt>
      <trkpt lat="34.0871" lon="77.16077">
        <ele>4590.8</ele>
        <time>2015-08-31T04:45:42Z</time>
      </trkpt>
      <trkpt lat="34.0871" lon="77.16074">
        <ele>4589.6</ele>
        <time>2015-08-31T04:45:56Z</time>
      </trkpt>
      <trkpt lat="34.08705" lon="77.16075">
        <ele>4588.6</ele>
        <time>2015-08-31T04:46:06Z</time>
      </trkpt>
      <trkpt lat="34.08701" lon="77.16079">
        <ele>4587.8</ele>
        <time>2015-08-31T04:46:12Z</time>
      </trkpt>
      <trkpt lat="34.08701" lon="77.16078">
        <ele>4587.4</ele>
        <time>2015-08-31T04:46:13Z</time>
      </trkpt>
      <trkpt lat="34.08697" lon="77.16075">
        <ele>4586.2</ele>
        <time>2015-08-31T04:46:19Z</time>
      </trkpt>
      <trkpt lat="34.08697" lon="77.16071">
        <ele>4585.2</ele>
        <time>2015-08-31T04:46:23Z</time>
      </trkpt>
      <trkpt lat="34.08696" lon="77.16065">
        <ele>4584.2</ele>
        <time>2015-08-31T04:46:31Z</time>
      </trkpt>
      <trkpt lat="34.08693" lon="77.16062">
        <ele>4583</ele>
        <time>2015-08-31T04:46:37Z</time>
      </trkpt>
      <trkpt lat="34.08693" lon="77.16058">
        <ele>4582</ele>
        <time>2015-08-31T04:46:42Z</time>
      </trkpt>
      <trkpt lat="34.08693" lon="77.16052">
        <ele>4581</ele>
        <time>2015-08-31T04:46:48Z</time>
      </trkpt>
      <trkpt lat="34.08693" lon="77.16051">
        <ele>4581</ele>
        <time>2015-08-31T04:46:50Z</time>
      </trkpt>
      <trkpt lat="34.08693" lon="77.16047">
        <ele>4580.8</ele>
        <time>2015-08-31T04:46:58Z</time>
      </trkpt>
      <trkpt lat="34.08688" lon="77.16042">
        <ele>4579.8</ele>
        <time>2015-08-31T04:47:08Z</time>
      </trkpt>
      <trkpt lat="34.08684" lon="77.16041">
        <ele>4578.6</ele>
        <time>2015-08-31T04:47:17Z</time>
      </trkpt>
      <trkpt lat="34.08681" lon="77.16037">
        <ele>4577.6</ele>
        <time>2015-08-31T04:47:24Z</time>
      </trkpt>
      <trkpt lat="34.08678" lon="77.1603">
        <ele>4576.4</ele>
        <time>2015-08-31T04:47:32Z</time>
      </trkpt>
      <trkpt lat="34.08668" lon="77.16022">
        <ele>4575.4</ele>
        <time>2015-08-31T04:47:43Z</time>
      </trkpt>
      <trkpt lat="34.08664" lon="77.16017">
        <ele>4574.4</ele>
        <time>2015-08-31T04:47:51Z</time>
      </trkpt>
      <trkpt lat="34.08659" lon="77.16015">
        <ele>4573.6</ele>
        <time>2015-08-31T04:47:58Z</time>
      </trkpt>
      <trkpt lat="34.08657" lon="77.16014">
        <ele>4573.2</ele>
        <time>2015-08-31T04:48:00Z</time>
      </trkpt>
      <trkpt lat="34.0865" lon="77.16012">
        <ele>4572</ele>
        <time>2015-08-31T04:48:05Z</time>
      </trkpt>
      <trkpt lat="34.08641" lon="77.16007">
        <ele>4571.6</ele>
        <time>2015-08-31T04:48:17Z</time>
      </trkpt>
      <trkpt lat="34.08625" lon="77.15998">
        <ele>4571.8</ele>
        <time>2015-08-31T04:49:06Z</time>
      </trkpt>
      <trkpt lat="34.08621" lon="77.15992">
        <ele>4571</ele>
        <time>2015-08-31T04:49:15Z</time>
      </trkpt>
      <trkpt lat="34.08612" lon="77.15984">
        <ele>4570</ele>
        <time>2015-08-31T04:49:38Z</time>
      </trkpt>
      <trkpt lat="34.08611" lon="77.15984">
        <ele>4569.8</ele>
        <time>2015-08-31T04:49:39Z</time>
      </trkpt>
      <trkpt lat="34.08607" lon="77.15984">
        <ele>4568.8</ele>
        <time>2015-08-31T04:49:42Z</time>
      </trkpt>
      <trkpt lat="34.08606" lon="77.15984">
        <ele>4568.6</ele>
        <time>2015-08-31T04:49:43Z</time>
      </trkpt>
      <trkpt lat="34.08604" lon="77.15983">
        <ele>4567.8</ele>
        <time>2015-08-31T04:49:45Z</time>
      </trkpt>
      <trkpt lat="34.08601" lon="77.15982">
        <ele>4566.8</ele>
        <time>2015-08-31T04:49:49Z</time>
      </trkpt>
      <trkpt lat="34.08597" lon="77.1598">
        <ele>4565.6</ele>
        <time>2015-08-31T04:49:54Z</time>
      </trkpt>
      <trkpt lat="34.08592" lon="77.1598">
        <ele>4564.4</ele>
        <time>2015-08-31T04:50:00Z</time>
      </trkpt>
      <trkpt lat="34.08586" lon="77.15979">
        <ele>4563.2</ele>
        <time>2015-08-31T04:50:05Z</time>
      </trkpt>
      <trkpt lat="34.08581" lon="77.15979">
        <ele>4562.2</ele>
        <time>2015-08-31T04:50:10Z</time>
      </trkpt>
      <trkpt lat="34.08571" lon="77.15982">
        <ele>4561</ele>
        <time>2015-08-31T04:50:21Z</time>
      </trkpt>
      <trkpt lat="34.08565" lon="77.15983">
        <ele>4560</ele>
        <time>2015-08-31T04:50:26Z</time>
      </trkpt>
      <trkpt lat="34.08552" lon="77.15983">
        <ele>4559</ele>
        <time>2015-08-31T04:50:41Z</time>
      </trkpt>
      <trkpt lat="34.08548" lon="77.15987">
        <ele>4557.6</ele>
        <time>2015-08-31T04:50:47Z</time>
      </trkpt>
      <trkpt lat="34.08545" lon="77.15989">
        <ele>4556.4</ele>
        <time>2015-08-31T04:50:52Z</time>
      </trkpt>
      <trkpt lat="34.08538" lon="77.15995">
        <ele>4555.4</ele>
        <time>2015-08-31T04:51:04Z</time>
      </trkpt>
      <trkpt lat="34.08534" lon="77.15996">
        <ele>4554.2</ele>
        <time>2015-08-31T04:51:09Z</time>
      </trkpt>
      <trkpt lat="34.0853" lon="77.15998">
        <ele>4553.2</ele>
        <time>2015-08-31T04:51:14Z</time>
      </trkpt>
      <trkpt lat="34.08523" lon="77.15998">
        <ele>4552</ele>
        <time>2015-08-31T04:51:23Z</time>
      </trkpt>
      <trkpt lat="34.08516" lon="77.15993">
        <ele>4551</ele>
        <time>2015-08-31T04:51:32Z</time>
      </trkpt>
      <trkpt lat="34.0851" lon="77.1599">
        <ele>4550</ele>
        <time>2015-08-31T04:51:41Z</time>
      </trkpt>
      <trkpt lat="34.08505" lon="77.15988">
        <ele>4549</ele>
        <time>2015-08-31T04:51:48Z</time>
      </trkpt>
      <trkpt lat="34.08498" lon="77.15986">
        <ele>4548</ele>
        <time>2015-08-31T04:51:57Z</time>
      </trkpt>
      <trkpt lat="34.08485" lon="77.15995">
        <ele>4546.8</ele>
        <time>2015-08-31T04:52:11Z</time>
      </trkpt>
      <trkpt lat="34.08475" lon="77.16002">
        <ele>4545.8</ele>
        <time>2015-08-31T04:52:23Z</time>
      </trkpt>
      <trkpt lat="34.08457" lon="77.16011">
        <ele>4545.2</ele>
        <time>2015-08-31T04:52:43Z</time>
      </trkpt>
      <trkpt lat="34.08442" lon="77.16014">
        <ele>4544.8</ele>
        <time>2015-08-31T04:53:00Z</time>
      </trkpt>
      <trkpt lat="34.08434" lon="77.16015">
        <ele>4543.8</ele>
        <time>2015-08-31T04:53:10Z</time>
      </trkpt>
      <trkpt lat="34.08422" lon="77.16017">
        <ele>4542.6</ele>
        <time>2015-08-31T04:53:23Z</time>
      </trkpt>
      <trkpt lat="34.0841" lon="77.16025">
        <ele>4541.6</ele>
        <time>2015-08-31T04:53:36Z</time>
      </trkpt>
      <trkpt lat="34.08397" lon="77.16033">
        <ele>4540.6</ele>
        <time>2015-08-31T04:53:52Z</time>
      </trkpt>
      <trkpt lat="34.08393" lon="77.16036">
        <ele>4539.4</ele>
        <time>2015-08-31T04:53:57Z</time>
      </trkpt>
      <trkpt lat="34.08388" lon="77.16039">
        <ele>4539</ele>
        <time>2015-08-31T04:54:01Z</time>
      </trkpt>
      <trkpt lat="34.0838" lon="77.16047">
        <ele>4538.2</ele>
        <time>2015-08-31T04:54:11Z</time>
      </trkpt>
      <trkpt lat="34.08377" lon="77.1605">
        <ele>4537.8</ele>
        <time>2015-08-31T04:54:14Z</time>
      </trkpt>
      <trkpt lat="34.08365" lon="77.16063">
        <ele>4537.4</ele>
        <time>2015-08-31T04:54:32Z</time>
      </trkpt>
      <trkpt lat="34.08363" lon="77.16066">
        <ele>4537</ele>
        <time>2015-08-31T04:54:34Z</time>
      </trkpt>
      <trkpt lat="34.08355" lon="77.16076">
        <ele>4536.4</ele>
        <time>2015-08-31T04:54:44Z</time>
      </trkpt>
      <trkpt lat="34.08343" lon="77.16094">
        <ele>4536.4</ele>
        <time>2015-08-31T04:55:05Z</time>
      </trkpt>
      <trkpt lat="34.08327" lon="77.16105">
        <ele>4536.4</ele>
        <time>2015-08-31T04:55:25Z</time>
      </trkpt>
      <trkpt lat="34.08324" lon="77.1611">
        <ele>4535.8</ele>
        <time>2015-08-31T04:55:29Z</time>
      </trkpt>
      <trkpt lat="34.0832" lon="77.16118">
        <ele>4534.8</ele>
        <time>2015-08-31T04:55:36Z</time>
      </trkpt>
      <trkpt lat="34.08311" lon="77.16128">
        <ele>4533.8</ele>
        <time>2015-08-31T04:55:50Z</time>
      </trkpt>
      <trkpt lat="34.0831" lon="77.16128">
        <ele>4533.6</ele>
        <time>2015-08-31T04:55:52Z</time>
      </trkpt>
      <trkpt lat="34.08306" lon="77.16133">
        <ele>4533.2</ele>
        <time>2015-08-31T04:56:00Z</time>
      </trkpt>
      <trkpt lat="34.08287" lon="77.16136">
        <ele>4533.2</ele>
        <time>2015-08-31T04:56:15Z</time>
      </trkpt>
      <trkpt lat="34.0827" lon="77.16139">
        <ele>4533.6</ele>
        <time>2015-08-31T04:56:33Z</time>
      </trkpt>
      <trkpt lat="34.08255" lon="77.16152">
        <ele>4533.2</ele>
        <time>2015-08-31T04:56:47Z</time>
      </trkpt>
      <trkpt lat="34.0825" lon="77.16155">
        <ele>4532.6</ele>
        <time>2015-08-31T04:56:53Z</time>
      </trkpt>
      <trkpt lat="34.08248" lon="77.16157">
        <ele>4532</ele>
        <time>2015-08-31T04:56:56Z</time>
      </trkpt>
      <trkpt lat="34.08247" lon="77.1616">
        <ele>4531.4</ele>
        <time>2015-08-31T04:56:59Z</time>
      </trkpt>
      <trkpt lat="34.08244" lon="77.16162">
        <ele>4530.4</ele>
        <time>2015-08-31T04:57:02Z</time>
      </trkpt>
      <trkpt lat="34.08243" lon="77.16165">
        <ele>4529</ele>
        <time>2015-08-31T04:57:05Z</time>
      </trkpt>
      <trkpt lat="34.0824" lon="77.16167">
        <ele>4527.8</ele>
        <time>2015-08-31T04:57:08Z</time>
      </trkpt>
      <trkpt lat="34.08237" lon="77.1617">
        <ele>4526.8</ele>
        <time>2015-08-31T04:57:11Z</time>
      </trkpt>
      <trkpt lat="34.08233" lon="77.16172">
        <ele>4526.6</ele>
        <time>2015-08-31T04:57:16Z</time>
      </trkpt>
      <trkpt lat="34.0823" lon="77.16173">
        <ele>4526.8</ele>
        <time>2015-08-31T04:57:19Z</time>
      </trkpt>
      <trkpt lat="34.08228" lon="77.16173">
        <ele>4527.8</ele>
        <time>2015-08-31T04:57:24Z</time>
      </trkpt>
      <trkpt lat="34.08213" lon="77.16185">
        <ele>4527.8</ele>
        <time>2015-08-31T04:57:41Z</time>
      </trkpt>
      <trkpt lat="34.08206" lon="77.16189">
        <ele>4526.8</ele>
        <time>2015-08-31T04:57:47Z</time>
      </trkpt>
      <trkpt lat="34.08199" lon="77.16192">
        <ele>4525.6</ele>
        <time>2015-08-31T04:57:53Z</time>
      </trkpt>
      <trkpt lat="34.08197" lon="77.16192">
        <ele>4525.2</ele>
        <time>2015-08-31T04:57:55Z</time>
      </trkpt>
      <trkpt lat="34.08194" lon="77.16192">
        <ele>4524.6</ele>
        <time>2015-08-31T04:57:58Z</time>
      </trkpt>
      <trkpt lat="34.08186" lon="77.16195">
        <ele>4523.8</ele>
        <time>2015-08-31T04:58:06Z</time>
      </trkpt>
      <trkpt lat="34.08185" lon="77.16196">
        <ele>4523.6</ele>
        <time>2015-08-31T04:58:07Z</time>
      </trkpt>
      <trkpt lat="34.08178" lon="77.16198">
        <ele>4522.4</ele>
        <time>2015-08-31T04:58:13Z</time>
      </trkpt>
      <trkpt lat="34.0816" lon="77.16206">
        <ele>4521.4</ele>
        <time>2015-08-31T04:58:29Z</time>
      </trkpt>
      <trkpt lat="34.08147" lon="77.16216">
        <ele>4520.8</ele>
        <time>2015-08-31T04:58:42Z</time>
      </trkpt>
      <trkpt lat="34.08141" lon="77.16219">
        <ele>4520.4</ele>
        <time>2015-08-31T04:58:48Z</time>
      </trkpt>
      <trkpt lat="34.08128" lon="77.16231">
        <ele>4519.2</ele>
        <time>2015-08-31T04:59:03Z</time>
      </trkpt>
      <trkpt lat="34.08125" lon="77.16236">
        <ele>4518.2</ele>
        <time>2015-08-31T04:59:08Z</time>
      </trkpt>
      <trkpt lat="34.08119" lon="77.16242">
        <ele>4517.2</ele>
        <time>2015-08-31T04:59:14Z</time>
      </trkpt>
      <trkpt lat="34.08105" lon="77.16256">
        <ele>4516.4</ele>
        <time>2015-08-31T04:59:30Z</time>
      </trkpt>
      <trkpt lat="34.08091" lon="77.16272">
        <ele>4516</ele>
        <time>2015-08-31T04:59:46Z</time>
      </trkpt>
      <trkpt lat="34.0808" lon="77.1629">
        <ele>4516.2</ele>
        <time>2015-08-31T05:00:03Z</time>
      </trkpt>
      <trkpt lat="34.08072" lon="77.1631">
        <ele>4516.8</ele>
        <time>2015-08-31T05:00:19Z</time>
      </trkpt>
      <trkpt lat="34.0807" lon="77.16313">
        <ele>4517.2</ele>
        <time>2015-08-31T05:00:23Z</time>
      </trkpt>
      <trkpt lat="34.08057" lon="77.1632">
        <ele>4517.6</ele>
        <time>2015-08-31T05:00:39Z</time>
      </trkpt>
      <trkpt lat="34.08054" lon="77.1632">
        <ele>4517.6</ele>
        <time>2015-08-31T05:00:42Z</time>
      </trkpt>
      <trkpt lat="34.0805" lon="77.16322">
        <ele>4517.8</ele>
        <time>2015-08-31T05:00:47Z</time>
      </trkpt>
      <trkpt lat="34.08039" lon="77.16328">
        <ele>4517</ele>
        <time>2015-08-31T05:00:59Z</time>
      </trkpt>
      <trkpt lat="34.08038" lon="77.16328">
        <ele>4516.6</ele>
        <time>2015-08-31T05:02:09Z</time>
      </trkpt>
      <trkpt lat="34.08037" lon="77.16332">
        <ele>4516</ele>
        <time>2015-08-31T05:03:01Z</time>
      </trkpt>
      <trkpt lat="34.08035" lon="77.16333">
        <ele>4515.8</ele>
        <time>2015-08-31T05:03:03Z</time>
      </trkpt>
      <trkpt lat="34.08028" lon="77.16339">
        <ele>4515</ele>
        <time>2015-08-31T05:03:09Z</time>
      </trkpt>
      <trkpt lat="34.08012" lon="77.1635">
        <ele>4514.8</ele>
        <time>2015-08-31T05:03:28Z</time>
      </trkpt>
      <trkpt lat="34.08004" lon="77.16356">
        <ele>4514.8</ele>
        <time>2015-08-31T05:03:37Z</time>
      </trkpt>
      <trkpt lat="34.07999" lon="77.16357">
        <ele>4515</ele>
        <time>2015-08-31T05:03:47Z</time>
      </trkpt>
      <trkpt lat="34.07994" lon="77.16366">
        <ele>4514.6</ele>
        <time>2015-08-31T05:03:59Z</time>
      </trkpt>
      <trkpt lat="34.07994" lon="77.16368">
        <ele>4514.4</ele>
        <time>2015-08-31T05:04:01Z</time>
      </trkpt>
      <trkpt lat="34.07982" lon="77.16386">
        <ele>4514.4</ele>
        <time>2015-08-31T05:04:21Z</time>
      </trkpt>
      <trkpt lat="34.07975" lon="77.16406">
        <ele>4514</ele>
        <time>2015-08-31T05:04:39Z</time>
      </trkpt>
      <trkpt lat="34.07967" lon="77.16411">
        <ele>4514</ele>
        <time>2015-08-31T05:04:47Z</time>
      </trkpt>
      <trkpt lat="34.07962" lon="77.16429">
        <ele>4514.4</ele>
        <time>2015-08-31T05:05:04Z</time>
      </trkpt>
      <trkpt lat="34.07962" lon="77.16436">
        <ele>4515.2</ele>
        <time>2015-08-31T05:05:10Z</time>
      </trkpt>
      <trkpt lat="34.07962" lon="77.16449">
        <ele>4516</ele>
        <time>2015-08-31T05:05:22Z</time>
      </trkpt>
      <trkpt lat="34.07961" lon="77.1645">
        <ele>4516</ele>
        <time>2015-08-31T05:05:24Z</time>
      </trkpt>
      <trkpt lat="34.07961" lon="77.16452">
        <ele>4516.2</ele>
        <time>2015-08-31T05:05:26Z</time>
      </trkpt>
      <trkpt lat="34.07952" lon="77.16448">
        <ele>4516.2</ele>
        <time>2015-08-31T05:05:31Z</time>
      </trkpt>
      <trkpt lat="34.07948" lon="77.16453">
        <ele>4516.4</ele>
        <time>2015-08-31T05:05:38Z</time>
      </trkpt>
      <trkpt lat="34.07946" lon="77.16459">
        <ele>4516.6</ele>
        <time>2015-08-31T05:05:45Z</time>
      </trkpt>
      <trkpt lat="34.07945" lon="77.16461">
        <ele>4516.2</ele>
        <time>2015-08-31T05:05:47Z</time>
      </trkpt>
      <trkpt lat="34.07944" lon="77.16463">
        <ele>4516</ele>
        <time>2015-08-31T05:05:49Z</time>
      </trkpt>
      <trkpt lat="34.07942" lon="77.16464">
        <ele>4515.8</ele>
        <time>2015-08-31T05:05:51Z</time>
      </trkpt>
      <trkpt lat="34.07939" lon="77.16469">
        <ele>4515</ele>
        <time>2015-08-31T05:05:56Z</time>
      </trkpt>
      <trkpt lat="34.07932" lon="77.1647">
        <ele>4514</ele>
        <time>2015-08-31T05:06:04Z</time>
      </trkpt>
      <trkpt lat="34.07921" lon="77.16473">
        <ele>4513</ele>
        <time>2015-08-31T05:06:16Z</time>
      </trkpt>
      <trkpt lat="34.07918" lon="77.16474">
        <ele>4512.2</ele>
        <time>2015-08-31T05:06:20Z</time>
      </trkpt>
      <trkpt lat="34.07918" lon="77.16474">
        <ele>4512</ele>
        <time>2015-08-31T05:06:21Z</time>
      </trkpt>
      <trkpt lat="34.07913" lon="77.16474">
        <ele>4510.8</ele>
        <time>2015-08-31T05:06:37Z</time>
      </trkpt>
      <trkpt lat="34.07912" lon="77.16475">
        <ele>4510.4</ele>
        <time>2015-08-31T05:06:38Z</time>
      </trkpt>
      <trkpt lat="34.07909" lon="77.16478">
        <ele>4509.6</ele>
        <time>2015-08-31T05:06:42Z</time>
      </trkpt>
      <trkpt lat="34.07908" lon="77.1648">
        <ele>4509.4</ele>
        <time>2015-08-31T05:06:44Z</time>
      </trkpt>
      <trkpt lat="34.07903" lon="77.16485">
        <ele>4508.8</ele>
        <time>2015-08-31T05:06:50Z</time>
      </trkpt>
      <trkpt lat="34.07901" lon="77.16486">
        <ele>4508.6</ele>
        <time>2015-08-31T05:06:52Z</time>
      </trkpt>
      <trkpt lat="34.07899" lon="77.1649">
        <ele>4507.4</ele>
        <time>2015-08-31T05:06:58Z</time>
      </trkpt>
      <trkpt lat="34.07896" lon="77.16491">
        <ele>4506.4</ele>
        <time>2015-08-31T05:07:03Z</time>
      </trkpt>
      <trkpt lat="34.07892" lon="77.16496">
        <ele>4505.4</ele>
        <time>2015-08-31T05:07:12Z</time>
      </trkpt>
      <trkpt lat="34.07888" lon="77.16505">
        <ele>4504.6</ele>
        <time>2015-08-31T05:07:19Z</time>
      </trkpt>
      <trkpt lat="34.07883" lon="77.16511">
        <ele>4504.2</ele>
        <time>2015-08-31T05:07:28Z</time>
      </trkpt>
      <trkpt lat="34.07879" lon="77.16514">
        <ele>4504</ele>
        <time>2015-08-31T05:07:33Z</time>
      </trkpt>
      <trkpt lat="34.07877" lon="77.16517">
        <ele>4503</ele>
        <time>2015-08-31T05:07:36Z</time>
      </trkpt>
      <trkpt lat="34.07875" lon="77.1652">
        <ele>4501.6</ele>
        <time>2015-08-31T05:07:40Z</time>
      </trkpt>
      <trkpt lat="34.07873" lon="77.16522">
        <ele>4500.6</ele>
        <time>2015-08-31T05:07:44Z</time>
      </trkpt>
      <trkpt lat="34.07867" lon="77.16522">
        <ele>4501.6</ele>
        <time>2015-08-31T05:08:40Z</time>
      </trkpt>
      <trkpt lat="34.0787" lon="77.16517">
        <ele>4500.6</ele>
        <time>2015-08-31T05:08:50Z</time>
      </trkpt>
      <trkpt lat="34.07866" lon="77.16516">
        <ele>4500.6</ele>
        <time>2015-08-31T05:09:07Z</time>
      </trkpt>
      <trkpt lat="34.07866" lon="77.16516">
        <ele>4501.6</ele>
        <time>2015-08-31T05:09:11Z</time>
      </trkpt>
      <trkpt lat="34.07866" lon="77.16523">
        <ele>4500.4</ele>
        <time>2015-08-31T05:09:25Z</time>
      </trkpt>
      <trkpt lat="34.07867" lon="77.16528">
        <ele>4499.8</ele>
        <time>2015-08-31T05:09:33Z</time>
      </trkpt>
      <trkpt lat="34.07868" lon="77.16529">
        <ele>4499.8</ele>
        <time>2015-08-31T05:09:35Z</time>
      </trkpt>
      <trkpt lat="34.07869" lon="77.16528">
        <ele>4499.4</ele>
        <time>2015-08-31T05:09:40Z</time>
      </trkpt>
      <trkpt lat="34.07874" lon="77.16529">
        <ele>4498.8</ele>
        <time>2015-08-31T05:10:00Z</time>
      </trkpt>
      <trkpt lat="34.07875" lon="77.16529">
        <ele>4498.4</ele>
        <time>2015-08-31T05:10:01Z</time>
      </trkpt>
      <trkpt lat="34.07875" lon="77.16529">
        <ele>4498</ele>
        <time>2015-08-31T05:10:02Z</time>
      </trkpt>
      <trkpt lat="34.07875" lon="77.1653">
        <ele>4497.2</ele>
        <time>2015-08-31T05:10:03Z</time>
      </trkpt>
      <trkpt lat="34.07876" lon="77.16532">
        <ele>4496</ele>
        <time>2015-08-31T05:10:05Z</time>
      </trkpt>
      <trkpt lat="34.07875" lon="77.16535">
        <ele>4494.8</ele>
        <time>2015-08-31T05:10:09Z</time>
      </trkpt>
      <trkpt lat="34.07872" lon="77.16539">
        <ele>4493.6</ele>
        <time>2015-08-31T05:10:16Z</time>
      </trkpt>
      <trkpt lat="34.07872" lon="77.16544">
        <ele>4492.4</ele>
        <time>2015-08-31T05:10:20Z</time>
      </trkpt>
      <trkpt lat="34.07872" lon="77.16547">
        <ele>4491.4</ele>
        <time>2015-08-31T05:10:23Z</time>
      </trkpt>
      <trkpt lat="34.07872" lon="77.16548">
        <ele>4491.2</ele>
        <time>2015-08-31T05:10:24Z</time>
      </trkpt>
      <trkpt lat="34.07869" lon="77.16553">
        <ele>4490.2</ele>
        <time>2015-08-31T05:10:36Z</time>
      </trkpt>
      <trkpt lat="34.07868" lon="77.16557">
        <ele>4489.2</ele>
        <time>2015-08-31T05:10:42Z</time>
      </trkpt>
      <trkpt lat="34.07865" lon="77.16561">
        <ele>4488.6</ele>
        <time>2015-08-31T05:11:03Z</time>
      </trkpt>
      <trkpt lat="34.07864" lon="77.16564">
        <ele>4488.2</ele>
        <time>2015-08-31T05:11:06Z</time>
      </trkpt>
      <trkpt lat="34.07863" lon="77.16565">
        <ele>4488</ele>
        <time>2015-08-31T05:11:08Z</time>
      </trkpt>
      <trkpt lat="34.07864" lon="77.16573">
        <ele>4487.2</ele>
        <time>2015-08-31T05:11:16Z</time>
      </trkpt>
      <trkpt lat="34.07859" lon="77.16577">
        <ele>4486</ele>
        <time>2015-08-31T05:11:23Z</time>
      </trkpt>
      <trkpt lat="34.07855" lon="77.1658">
        <ele>4485</ele>
        <time>2015-08-31T05:11:28Z</time>
      </trkpt>
      <trkpt lat="34.07852" lon="77.16583">
        <ele>4483.8</ele>
        <time>2015-08-31T05:11:36Z</time>
      </trkpt>
      <trkpt lat="34.07847" lon="77.16585">
        <ele>4482.8</ele>
        <time>2015-08-31T05:11:42Z</time>
      </trkpt>
      <trkpt lat="34.07845" lon="77.16586">
        <ele>4482.2</ele>
        <time>2015-08-31T05:11:45Z</time>
      </trkpt>
      <trkpt lat="34.07844" lon="77.16586">
        <ele>4481.8</ele>
        <time>2015-08-31T05:11:47Z</time>
      </trkpt>
      <trkpt lat="34.07841" lon="77.16589">
        <ele>4481</ele>
        <time>2015-08-31T05:11:51Z</time>
      </trkpt>
      <trkpt lat="34.07839" lon="77.16591">
        <ele>4480.6</ele>
        <time>2015-08-31T05:11:53Z</time>
      </trkpt>
      <trkpt lat="34.07838" lon="77.16593">
        <ele>4480.2</ele>
        <time>2015-08-31T05:11:56Z</time>
      </trkpt>
      <trkpt lat="34.07836" lon="77.16594">
        <ele>4479.6</ele>
        <time>2015-08-31T05:11:58Z</time>
      </trkpt>
      <trkpt lat="34.07833" lon="77.16598">
        <ele>4478.4</ele>
        <time>2015-08-31T05:12:04Z</time>
      </trkpt>
      <trkpt lat="34.07831" lon="77.166">
        <ele>4477.2</ele>
        <time>2015-08-31T05:12:08Z</time>
      </trkpt>
      <trkpt lat="34.07824" lon="77.16605">
        <ele>4476.2</ele>
        <time>2015-08-31T05:12:25Z</time>
      </trkpt>
      <trkpt lat="34.07824" lon="77.16612">
        <ele>4475.4</ele>
        <time>2015-08-31T05:12:33Z</time>
      </trkpt>
      <trkpt lat="34.07825" lon="77.16614">
        <ele>4475.4</ele>
        <time>2015-08-31T05:12:35Z</time>
      </trkpt>
      <trkpt lat="34.07827" lon="77.16617">
        <ele>4474.8</ele>
        <time>2015-08-31T05:12:38Z</time>
      </trkpt>
      <trkpt lat="34.07827" lon="77.1662">
        <ele>4473.8</ele>
        <time>2015-08-31T05:12:41Z</time>
      </trkpt>
      <trkpt lat="34.07825" lon="77.16626">
        <ele>4472.8</ele>
        <time>2015-08-31T05:12:48Z</time>
      </trkpt>
      <trkpt lat="34.07822" lon="77.16632">
        <ele>4471.6</ele>
        <time>2015-08-31T05:12:55Z</time>
      </trkpt>
      <trkpt lat="34.0782" lon="77.16637">
        <ele>4470.4</ele>
        <time>2015-08-31T05:13:01Z</time>
      </trkpt>
      <trkpt lat="34.07817" lon="77.16643">
        <ele>4469.4</ele>
        <time>2015-08-31T05:13:07Z</time>
      </trkpt>
      <trkpt lat="34.07812" lon="77.16651">
        <ele>4468.4</ele>
        <time>2015-08-31T05:13:15Z</time>
      </trkpt>
      <trkpt lat="34.07809" lon="77.16655">
        <ele>4467.2</ele>
        <time>2015-08-31T05:13:21Z</time>
      </trkpt>
      <trkpt lat="34.07808" lon="77.16656">
        <ele>4467</ele>
        <time>2015-08-31T05:13:22Z</time>
      </trkpt>
      <trkpt lat="34.07806" lon="77.16658">
        <ele>4466.8</ele>
        <time>2015-08-31T05:13:25Z</time>
      </trkpt>
      <trkpt lat="34.07805" lon="77.16658">
        <ele>4466.2</ele>
        <time>2015-08-31T05:13:27Z</time>
      </trkpt>
      <trkpt lat="34.07802" lon="77.1666">
        <ele>4465.4</ele>
        <time>2015-08-31T05:13:31Z</time>
      </trkpt>
      <trkpt lat="34.07801" lon="77.16664">
        <ele>4465</ele>
        <time>2015-08-31T05:13:33Z</time>
      </trkpt>
      <trkpt lat="34.078" lon="77.16666">
        <ele>4464.2</ele>
        <time>2015-08-31T05:13:35Z</time>
      </trkpt>
      <trkpt lat="34.078" lon="77.16667">
        <ele>4463.8</ele>
        <time>2015-08-31T05:13:36Z</time>
      </trkpt>
      <trkpt lat="34.07798" lon="77.16671">
        <ele>4462.6</ele>
        <time>2015-08-31T05:13:41Z</time>
      </trkpt>
      <trkpt lat="34.0779" lon="77.16683">
        <ele>4461.4</ele>
        <time>2015-08-31T05:13:53Z</time>
      </trkpt>
      <trkpt lat="34.07785" lon="77.16686">
        <ele>4461</ele>
        <time>2015-08-31T05:13:59Z</time>
      </trkpt>
      <trkpt lat="34.07772" lon="77.167">
        <ele>4461.2</ele>
        <time>2015-08-31T05:14:16Z</time>
      </trkpt>
      <trkpt lat="34.07763" lon="77.16719">
        <ele>4461.4</ele>
        <time>2015-08-31T05:14:31Z</time>
      </trkpt>
      <trkpt lat="34.07757" lon="77.16738">
        <ele>4461</ele>
        <time>2015-08-31T05:14:49Z</time>
      </trkpt>
      <trkpt lat="34.07758" lon="77.16741">
        <ele>4461</ele>
        <time>2015-08-31T05:14:52Z</time>
      </trkpt>
      <trkpt lat="34.07758" lon="77.16745">
        <ele>4461</ele>
        <time>2015-08-31T05:14:55Z</time>
      </trkpt>
      <trkpt lat="34.07753" lon="77.16762">
        <ele>4461.8</ele>
        <time>2015-08-31T05:15:12Z</time>
      </trkpt>
      <trkpt lat="34.07752" lon="77.16764">
        <ele>4462.4</ele>
        <time>2015-08-31T05:15:19Z</time>
      </trkpt>
      <trkpt lat="34.07753" lon="77.1677">
        <ele>4462.4</ele>
        <time>2015-08-31T05:15:24Z</time>
      </trkpt>
      <trkpt lat="34.07752" lon="77.16771">
        <ele>4462.4</ele>
        <time>2015-08-31T05:15:26Z</time>
      </trkpt>
      <trkpt lat="34.07746" lon="77.16776">
        <ele>4463</ele>
        <time>2015-08-31T05:15:36Z</time>
      </trkpt>
      <trkpt lat="34.07745" lon="77.16785">
        <ele>4463.2</ele>
        <time>2015-08-31T05:15:56Z</time>
      </trkpt>
      <trkpt lat="34.07746" lon="77.16786">
        <ele>4463.4</ele>
        <time>2015-08-31T05:15:58Z</time>
      </trkpt>
      <trkpt lat="34.07742" lon="77.16788">
        <ele>4463.6</ele>
        <time>2015-08-31T05:16:03Z</time>
      </trkpt>
      <trkpt lat="34.07741" lon="77.16789">
        <ele>4463.6</ele>
        <time>2015-08-31T05:16:04Z</time>
      </trkpt>
      <trkpt lat="34.07736" lon="77.16797">
        <ele>4464.6</ele>
        <time>2015-08-31T05:16:10Z</time>
      </trkpt>
      <trkpt lat="34.07735" lon="77.16797">
        <ele>4464.8</ele>
        <time>2015-08-31T05:16:14Z</time>
      </trkpt>
      <trkpt lat="34.07731" lon="77.16802">
        <ele>4465.6</ele>
        <time>2015-08-31T05:16:23Z</time>
      </trkpt>
      <trkpt lat="34.07724" lon="77.1681">
        <ele>4466.6</ele>
        <time>2015-08-31T05:16:37Z</time>
      </trkpt>
      <trkpt lat="34.07721" lon="77.16817">
        <ele>4467.8</ele>
        <time>2015-08-31T05:16:45Z</time>
      </trkpt>
      <trkpt lat="34.07719" lon="77.1682">
        <ele>4468.2</ele>
        <time>2015-08-31T05:16:48Z</time>
      </trkpt>
      <trkpt lat="34.07716" lon="77.16824">
        <ele>4468.6</ele>
        <time>2015-08-31T05:16:54Z</time>
      </trkpt>
      <trkpt lat="34.07715" lon="77.16827">
        <ele>4468.8</ele>
        <time>2015-08-31T05:16:59Z</time>
      </trkpt>
      <trkpt lat="34.07713" lon="77.1683">
        <ele>4469</ele>
        <time>2015-08-31T05:17:03Z</time>
      </trkpt>
      <trkpt lat="34.07712" lon="77.16833">
        <ele>4469.2</ele>
        <time>2015-08-31T05:17:06Z</time>
      </trkpt>
      <trkpt lat="34.07706" lon="77.16841">
        <ele>4468.6</ele>
        <time>2015-08-31T05:17:17Z</time>
      </trkpt>
      <trkpt lat="34.07704" lon="77.16844">
        <ele>4468.8</ele>
        <time>2015-08-31T05:17:20Z</time>
      </trkpt>
      <trkpt lat="34.07699" lon="77.16845">
        <ele>4469.8</ele>
        <time>2015-08-31T05:17:35Z</time>
      </trkpt>
      <trkpt lat="34.0769" lon="77.16852">
        <ele>4470.4</ele>
        <time>2015-08-31T05:17:48Z</time>
      </trkpt>
      <trkpt lat="34.07687" lon="77.16859">
        <ele>4470.4</ele>
        <time>2015-08-31T05:17:58Z</time>
      </trkpt>
      <trkpt lat="34.07689" lon="77.1688">
        <ele>4470.2</ele>
        <time>2015-08-31T05:18:19Z</time>
      </trkpt>
      <trkpt lat="34.07694" lon="77.16901">
        <ele>4469</ele>
        <time>2015-08-31T05:18:37Z</time>
      </trkpt>
      <trkpt lat="34.07692" lon="77.16905">
        <ele>4468.8</ele>
        <time>2015-08-31T05:18:44Z</time>
      </trkpt>
      <trkpt lat="34.07687" lon="77.16913">
        <ele>4467.8</ele>
        <time>2015-08-31T05:18:52Z</time>
      </trkpt>
      <trkpt lat="34.07683" lon="77.16923">
        <ele>4467</ele>
        <time>2015-08-31T05:19:02Z</time>
      </trkpt>
      <trkpt lat="34.07683" lon="77.16924">
        <ele>4466.6</ele>
        <time>2015-08-31T05:19:03Z</time>
      </trkpt>
      <trkpt lat="34.07679" lon="77.16937">
        <ele>4465.8</ele>
        <time>2015-08-31T05:19:16Z</time>
      </trkpt>
      <trkpt lat="34.07678" lon="77.1694">
        <ele>4465.8</ele>
        <time>2015-08-31T05:19:19Z</time>
      </trkpt>
      <trkpt lat="34.07675" lon="77.16944">
        <ele>4465.6</ele>
        <time>2015-08-31T05:19:23Z</time>
      </trkpt>
      <trkpt lat="34.07673" lon="77.16946">
        <ele>4465.6</ele>
        <time>2015-08-31T05:19:27Z</time>
      </trkpt>
      <trkpt lat="34.07661" lon="77.16962">
        <ele>4465.2</ele>
        <time>2015-08-31T05:19:45Z</time>
      </trkpt>
      <trkpt lat="34.07653" lon="77.16971">
        <ele>4464.6</ele>
        <time>2015-08-31T05:19:58Z</time>
      </trkpt>
      <trkpt lat="34.07653" lon="77.16972">
        <ele>4464.6</ele>
        <time>2015-08-31T05:19:59Z</time>
      </trkpt>
      <trkpt lat="34.07647" lon="77.16975">
        <ele>4463.8</ele>
        <time>2015-08-31T05:20:05Z</time>
      </trkpt>
      <trkpt lat="34.07646" lon="77.16977">
        <ele>4463.4</ele>
        <time>2015-08-31T05:20:08Z</time>
      </trkpt>
      <trkpt lat="34.07639" lon="77.16991">
        <ele>4462.4</ele>
        <time>2015-08-31T05:20:24Z</time>
      </trkpt>
      <trkpt lat="34.07636" lon="77.16996">
        <ele>4462.2</ele>
        <time>2015-08-31T05:20:28Z</time>
      </trkpt>
      <trkpt lat="34.07631" lon="77.17004">
        <ele>4461.4</ele>
        <time>2015-08-31T05:20:37Z</time>
      </trkpt>
      <trkpt lat="34.07628" lon="77.17007">
        <ele>4461</ele>
        <time>2015-08-31T05:20:42Z</time>
      </trkpt>
      <trkpt lat="34.07625" lon="77.17011">
        <ele>4461</ele>
        <time>2015-08-31T05:20:46Z</time>
      </trkpt>
      <trkpt lat="34.07622" lon="77.17016">
        <ele>4461.4</ele>
        <time>2015-08-31T05:20:51Z</time>
      </trkpt>
      <trkpt lat="34.0762" lon="77.17021">
        <ele>4461.4</ele>
        <time>2015-08-31T05:20:56Z</time>
      </trkpt>
      <trkpt lat="34.0762" lon="77.17023">
        <ele>4461.4</ele>
        <time>2015-08-31T05:20:58Z</time>
      </trkpt>
      <trkpt lat="34.0761" lon="77.17037">
        <ele>4460.4</ele>
        <time>2015-08-31T05:21:13Z</time>
      </trkpt>
      <trkpt lat="34.07604" lon="77.17042">
        <ele>4459.2</ele>
        <time>2015-08-31T05:21:20Z</time>
      </trkpt>
      <trkpt lat="34.07603" lon="77.17044">
        <ele>4459</ele>
        <time>2015-08-31T05:21:22Z</time>
      </trkpt>
      <trkpt lat="34.07601" lon="77.17045">
        <ele>4458.8</ele>
        <time>2015-08-31T05:21:24Z</time>
      </trkpt>
      <trkpt lat="34.07598" lon="77.17047">
        <ele>4458.2</ele>
        <time>2015-08-31T05:21:28Z</time>
      </trkpt>
      <trkpt lat="34.07593" lon="77.1705">
        <ele>4457.2</ele>
        <time>2015-08-31T05:21:34Z</time>
      </trkpt>
      <trkpt lat="34.0759" lon="77.17052">
        <ele>4456.8</ele>
        <time>2015-08-31T05:21:37Z</time>
      </trkpt>
      <trkpt lat="34.07587" lon="77.17054">
        <ele>4456.4</ele>
        <time>2015-08-31T05:21:41Z</time>
      </trkpt>
      <trkpt lat="34.07585" lon="77.17055">
        <ele>4456</ele>
        <time>2015-08-31T05:21:43Z</time>
      </trkpt>
      <trkpt lat="34.0758" lon="77.17059">
        <ele>4455.2</ele>
        <time>2015-08-31T05:21:49Z</time>
      </trkpt>
      <trkpt lat="34.0758" lon="77.17059">
        <ele>4455</ele>
        <time>2015-08-31T05:21:50Z</time>
      </trkpt>
      <trkpt lat="34.07579" lon="77.1706">
        <ele>4454.8</ele>
        <time>2015-08-31T05:21:52Z</time>
      </trkpt>
      <trkpt lat="34.07571" lon="77.17069">
        <ele>4454</ele>
        <time>2015-08-31T05:22:03Z</time>
      </trkpt>
      <trkpt lat="34.07566" lon="77.17077">
        <ele>4453</ele>
        <time>2015-08-31T05:22:12Z</time>
      </trkpt>
      <trkpt lat="34.07564" lon="77.17079">
        <ele>4452.8</ele>
        <time>2015-08-31T05:22:14Z</time>
      </trkpt>
      <trkpt lat="34.07559" lon="77.17085">
        <ele>4451.8</ele>
        <time>2015-08-31T05:22:21Z</time>
      </trkpt>
      <trkpt lat="34.07555" lon="77.1709">
        <ele>4451.2</ele>
        <time>2015-08-31T05:22:27Z</time>
      </trkpt>
      <trkpt lat="34.07554" lon="77.17091">
        <ele>4451.2</ele>
        <time>2015-08-31T05:22:29Z</time>
      </trkpt>
      <trkpt lat="34.07553" lon="77.17094">
        <ele>4450.8</ele>
        <time>2015-08-31T05:22:35Z</time>
      </trkpt>
      <trkpt lat="34.07553" lon="77.17095">
        <ele>4450.8</ele>
        <time>2015-08-31T05:22:36Z</time>
      </trkpt>
      <trkpt lat="34.07552" lon="77.17098">
        <ele>4450.4</ele>
        <time>2015-08-31T05:22:38Z</time>
      </trkpt>
      <trkpt lat="34.07549" lon="77.17102">
        <ele>4449.6</ele>
        <time>2015-08-31T05:22:43Z</time>
      </trkpt>
      <trkpt lat="34.07543" lon="77.17109">
        <ele>4448.8</ele>
        <time>2015-08-31T05:22:51Z</time>
      </trkpt>
      <trkpt lat="34.07543" lon="77.1711">
        <ele>4448.6</ele>
        <time>2015-08-31T05:22:53Z</time>
      </trkpt>
      <trkpt lat="34.07541" lon="77.17115">
        <ele>4448.2</ele>
        <time>2015-08-31T05:22:58Z</time>
      </trkpt>
      <trkpt lat="34.07536" lon="77.17119">
        <ele>4448</ele>
        <time>2015-08-31T05:23:03Z</time>
      </trkpt>
      <trkpt lat="34.07534" lon="77.17119">
        <ele>4447.4</ele>
        <time>2015-08-31T05:23:05Z</time>
      </trkpt>
      <trkpt lat="34.07532" lon="77.17123">
        <ele>4446.6</ele>
        <time>2015-08-31T05:23:09Z</time>
      </trkpt>
      <trkpt lat="34.07531" lon="77.17124">
        <ele>4446.2</ele>
        <time>2015-08-31T05:23:10Z</time>
      </trkpt>
      <trkpt lat="34.07529" lon="77.17127">
        <ele>4446</ele>
        <time>2015-08-31T05:23:12Z</time>
      </trkpt>
      <trkpt lat="34.07528" lon="77.17129">
        <ele>4445.8</ele>
        <time>2015-08-31T05:23:15Z</time>
      </trkpt>
      <trkpt lat="34.07523" lon="77.17136">
        <ele>4445.2</ele>
        <time>2015-08-31T05:23:23Z</time>
      </trkpt>
      <trkpt lat="34.07521" lon="77.17142">
        <ele>4444.2</ele>
        <time>2015-08-31T05:23:27Z</time>
      </trkpt>
      <trkpt lat="34.0752" lon="77.17142">
        <ele>4444</ele>
        <time>2015-08-31T05:23:28Z</time>
      </trkpt>
      <trkpt lat="34.07516" lon="77.17145">
        <ele>4442.8</ele>
        <time>2015-08-31T05:23:33Z</time>
      </trkpt>
      <trkpt lat="34.07513" lon="77.17146">
        <ele>4441.8</ele>
        <time>2015-08-31T05:23:37Z</time>
      </trkpt>
      <trkpt lat="34.07509" lon="77.1715">
        <ele>4440.6</ele>
        <time>2015-08-31T05:23:45Z</time>
      </trkpt>
      <trkpt lat="34.07504" lon="77.17156">
        <ele>4439.6</ele>
        <time>2015-08-31T05:23:52Z</time>
      </trkpt>
      <trkpt lat="34.07501" lon="77.17159">
        <ele>4438.4</ele>
        <time>2015-08-31T05:23:56Z</time>
      </trkpt>
      <trkpt lat="34.07498" lon="77.17162">
        <ele>4438.2</ele>
        <time>2015-08-31T05:24:00Z</time>
      </trkpt>
      <trkpt lat="34.07494" lon="77.17166">
        <ele>4437.2</ele>
        <time>2015-08-31T05:24:08Z</time>
      </trkpt>
      <trkpt lat="34.07489" lon="77.17171">
        <ele>4436.2</ele>
        <time>2015-08-31T05:24:15Z</time>
      </trkpt>
      <trkpt lat="34.07487" lon="77.17172">
        <ele>4435.8</ele>
        <time>2015-08-31T05:24:17Z</time>
      </trkpt>
      <trkpt lat="34.07483" lon="77.17173">
        <ele>4435</ele>
        <time>2015-08-31T05:24:22Z</time>
      </trkpt>
      <trkpt lat="34.07482" lon="77.17172">
        <ele>4434.4</ele>
        <time>2015-08-31T05:24:24Z</time>
      </trkpt>
      <trkpt lat="34.07481" lon="77.17171">
        <ele>4434</ele>
        <time>2015-08-31T05:24:26Z</time>
      </trkpt>
      <trkpt lat="34.07475" lon="77.17177">
        <ele>4433.6</ele>
        <time>2015-08-31T05:24:31Z</time>
      </trkpt>
      <trkpt lat="34.0747" lon="77.17183">
        <ele>4433</ele>
        <time>2015-08-31T05:24:37Z</time>
      </trkpt>
      <trkpt lat="34.07464" lon="77.17191">
        <ele>4432.2</ele>
        <time>2015-08-31T05:24:45Z</time>
      </trkpt>
      <trkpt lat="34.07461" lon="77.17194">
        <ele>4432</ele>
        <time>2015-08-31T05:24:49Z</time>
      </trkpt>
      <trkpt lat="34.07457" lon="77.17198">
        <ele>4430.8</ele>
        <time>2015-08-31T05:24:55Z</time>
      </trkpt>
      <trkpt lat="34.07456" lon="77.17199">
        <ele>4430.6</ele>
        <time>2015-08-31T05:24:57Z</time>
      </trkpt>
      <trkpt lat="34.07451" lon="77.17202">
        <ele>4430.2</ele>
        <time>2015-08-31T05:25:02Z</time>
      </trkpt>
      <trkpt lat="34.0745" lon="77.17204">
        <ele>4429.8</ele>
        <time>2015-08-31T05:25:04Z</time>
      </trkpt>
      <trkpt lat="34.07449" lon="77.17205">
        <ele>4429.6</ele>
        <time>2015-08-31T05:25:06Z</time>
      </trkpt>
      <trkpt lat="34.07445" lon="77.17208">
        <ele>4429.2</ele>
        <time>2015-08-31T05:25:10Z</time>
      </trkpt>
      <trkpt lat="34.07443" lon="77.1721">
        <ele>4428.8</ele>
        <time>2015-08-31T05:25:13Z</time>
      </trkpt>
      <trkpt lat="34.07438" lon="77.17213">
        <ele>4427.6</ele>
        <time>2015-08-31T05:25:18Z</time>
      </trkpt>
      <trkpt lat="34.07434" lon="77.17218">
        <ele>4426.8</ele>
        <time>2015-08-31T05:25:23Z</time>
      </trkpt>
      <trkpt lat="34.07432" lon="77.1722">
        <ele>4426.6</ele>
        <time>2015-08-31T05:25:25Z</time>
      </trkpt>
      <trkpt lat="34.07431" lon="77.17222">
        <ele>4426.4</ele>
        <time>2015-08-31T05:25:27Z</time>
      </trkpt>
      <trkpt lat="34.07429" lon="77.1723">
        <ele>4425.6</ele>
        <time>2015-08-31T05:25:33Z</time>
      </trkpt>
      <trkpt lat="34.07427" lon="77.17235">
        <ele>4424.4</ele>
        <time>2015-08-31T05:25:39Z</time>
      </trkpt>
      <trkpt lat="34.07421" lon="77.17239">
        <ele>4423.2</ele>
        <time>2015-08-31T05:25:46Z</time>
      </trkpt>
      <trkpt lat="34.0742" lon="77.17242">
        <ele>4422.2</ele>
        <time>2015-08-31T05:25:50Z</time>
      </trkpt>
      <trkpt lat="34.07416" lon="77.17248">
        <ele>4421.2</ele>
        <time>2015-08-31T05:25:55Z</time>
      </trkpt>
      <trkpt lat="34.07415" lon="77.17251">
        <ele>4421</ele>
        <time>2015-08-31T05:25:57Z</time>
      </trkpt>
      <trkpt lat="34.07412" lon="77.17254">
        <ele>4420.2</ele>
        <time>2015-08-31T05:26:01Z</time>
      </trkpt>
      <trkpt lat="34.0741" lon="77.17255">
        <ele>4419</ele>
        <time>2015-08-31T05:26:05Z</time>
      </trkpt>
      <trkpt lat="34.07409" lon="77.17257">
        <ele>4418</ele>
        <time>2015-08-31T05:26:08Z</time>
      </trkpt>
      <trkpt lat="34.07407" lon="77.17258">
        <ele>4417.4</ele>
        <time>2015-08-31T05:26:10Z</time>
      </trkpt>
      <trkpt lat="34.07405" lon="77.17263">
        <ele>4416.8</ele>
        <time>2015-08-31T05:26:15Z</time>
      </trkpt>
      <trkpt lat="34.07403" lon="77.17269">
        <ele>4415.6</ele>
        <time>2015-08-31T05:26:22Z</time>
      </trkpt>
      <trkpt lat="34.07401" lon="77.17272">
        <ele>4415</ele>
        <time>2015-08-31T05:26:25Z</time>
      </trkpt>
      <trkpt lat="34.07399" lon="77.17278">
        <ele>4414.6</ele>
        <time>2015-08-31T05:26:30Z</time>
      </trkpt>
      <trkpt lat="34.07392" lon="77.1729">
        <ele>4413.6</ele>
        <time>2015-08-31T05:26:42Z</time>
      </trkpt>
      <trkpt lat="34.07388" lon="77.173">
        <ele>4412.8</ele>
        <time>2015-08-31T05:26:52Z</time>
      </trkpt>
      <trkpt lat="34.07386" lon="77.17304">
        <ele>4412.8</ele>
        <time>2015-08-31T05:26:56Z</time>
      </trkpt>
      <trkpt lat="34.07385" lon="77.17307">
        <ele>4412.8</ele>
        <time>2015-08-31T05:26:59Z</time>
      </trkpt>
      <trkpt lat="34.07381" lon="77.17311">
        <ele>4412.4</ele>
        <time>2015-08-31T05:27:03Z</time>
      </trkpt>
      <trkpt lat="34.0738" lon="77.17311">
        <ele>4412.4</ele>
        <time>2015-08-31T05:27:04Z</time>
      </trkpt>
      <trkpt lat="34.07376" lon="77.17316">
        <ele>4411.4</ele>
        <time>2015-08-31T05:27:09Z</time>
      </trkpt>
      <trkpt lat="34.07375" lon="77.17317">
        <ele>4411</ele>
        <time>2015-08-31T05:27:11Z</time>
      </trkpt>
      <trkpt lat="34.07374" lon="77.17322">
        <ele>4410.4</ele>
        <time>2015-08-31T05:27:15Z</time>
      </trkpt>
      <trkpt lat="34.07373" lon="77.17327">
        <ele>4409.6</ele>
        <time>2015-08-31T05:27:18Z</time>
      </trkpt>
      <trkpt lat="34.0737" lon="77.17329">
        <ele>4409.4</ele>
        <time>2015-08-31T05:27:24Z</time>
      </trkpt>
      <trkpt lat="34.07369" lon="77.17331">
        <ele>4409.2</ele>
        <time>2015-08-31T05:27:26Z</time>
      </trkpt>
      <trkpt lat="34.07363" lon="77.17339">
        <ele>4408.2</ele>
        <time>2015-08-31T05:27:33Z</time>
      </trkpt>
      <trkpt lat="34.07356" lon="77.17347">
        <ele>4406.8</ele>
        <time>2015-08-31T05:27:41Z</time>
      </trkpt>
      <trkpt lat="34.07353" lon="77.17352">
        <ele>4405.8</ele>
        <time>2015-08-31T05:27:46Z</time>
      </trkpt>
      <trkpt lat="34.07352" lon="77.17352">
        <ele>4405.8</ele>
        <time>2015-08-31T05:27:47Z</time>
      </trkpt>
      <trkpt lat="34.0735" lon="77.17357">
        <ele>4404.6</ele>
        <time>2015-08-31T05:27:53Z</time>
      </trkpt>
      <trkpt lat="34.07349" lon="77.17362">
        <ele>4404.2</ele>
        <time>2015-08-31T05:27:56Z</time>
      </trkpt>
      <trkpt lat="34.07348" lon="77.17362">
        <ele>4404</ele>
        <time>2015-08-31T05:27:57Z</time>
      </trkpt>
      <trkpt lat="34.07346" lon="77.17366">
        <ele>4403.6</ele>
        <time>2015-08-31T05:28:00Z</time>
      </trkpt>
      <trkpt lat="34.07342" lon="77.17369">
        <ele>4402.6</ele>
        <time>2015-08-31T05:28:04Z</time>
      </trkpt>
      <trkpt lat="34.07342" lon="77.1737">
        <ele>4402.4</ele>
        <time>2015-08-31T05:28:05Z</time>
      </trkpt>
      <trkpt lat="34.07337" lon="77.17377">
        <ele>4401.2</ele>
        <time>2015-08-31T05:28:11Z</time>
      </trkpt>
      <trkpt lat="34.07333" lon="77.17384">
        <ele>4400.2</ele>
        <time>2015-08-31T05:28:18Z</time>
      </trkpt>
      <trkpt lat="34.07329" lon="77.17387">
        <ele>4399.4</ele>
        <time>2015-08-31T05:28:23Z</time>
      </trkpt>
      <trkpt lat="34.07328" lon="77.17387">
        <ele>4399.2</ele>
        <time>2015-08-31T05:28:25Z</time>
      </trkpt>
      <trkpt lat="34.07325" lon="77.17392">
        <ele>4399</ele>
        <time>2015-08-31T05:28:30Z</time>
      </trkpt>
      <trkpt lat="34.07324" lon="77.17397">
        <ele>4398.6</ele>
        <time>2015-08-31T05:28:34Z</time>
      </trkpt>
      <trkpt lat="34.07323" lon="77.17399">
        <ele>4398.2</ele>
        <time>2015-08-31T05:28:36Z</time>
      </trkpt>
      <trkpt lat="34.07322" lon="77.17399">
        <ele>4398</ele>
        <time>2015-08-31T05:28:37Z</time>
      </trkpt>
      <trkpt lat="34.07317" lon="77.17405">
        <ele>4397</ele>
        <time>2015-08-31T05:28:43Z</time>
      </trkpt>
      <trkpt lat="34.07312" lon="77.17411">
        <ele>4395.8</ele>
        <time>2015-08-31T05:28:48Z</time>
      </trkpt>
      <trkpt lat="34.07308" lon="77.17411">
        <ele>4394.8</ele>
        <time>2015-08-31T05:28:53Z</time>
      </trkpt>
      <trkpt lat="34.07305" lon="77.17417">
        <ele>4393.6</ele>
        <time>2015-08-31T05:29:00Z</time>
      </trkpt>
      <trkpt lat="34.07301" lon="77.17421">
        <ele>4392.6</ele>
        <time>2015-08-31T05:29:06Z</time>
      </trkpt>
      <trkpt lat="34.07297" lon="77.17426">
        <ele>4391.8</ele>
        <time>2015-08-31T05:29:10Z</time>
      </trkpt>
      <trkpt lat="34.07294" lon="77.17429">
        <ele>4391.4</ele>
        <time>2015-08-31T05:29:13Z</time>
      </trkpt>
      <trkpt lat="34.07291" lon="77.17431">
        <ele>4391.4</ele>
        <time>2015-08-31T05:29:17Z</time>
      </trkpt>
      <trkpt lat="34.07285" lon="77.17437">
        <ele>4390.4</ele>
        <time>2015-08-31T05:29:24Z</time>
      </trkpt>
      <trkpt lat="34.07285" lon="77.17438">
        <ele>4390.2</ele>
        <time>2015-08-31T05:29:25Z</time>
      </trkpt>
      <trkpt lat="34.07281" lon="77.17444">
        <ele>4389.4</ele>
        <time>2015-08-31T05:29:30Z</time>
      </trkpt>
      <trkpt lat="34.0728" lon="77.17445">
        <ele>4388.8</ele>
        <time>2015-08-31T05:29:32Z</time>
      </trkpt>
      <trkpt lat="34.07277" lon="77.17452">
        <ele>4388.2</ele>
        <time>2015-08-31T05:29:38Z</time>
      </trkpt>
      <trkpt lat="34.07272" lon="77.17457">
        <ele>4387.2</ele>
        <time>2015-08-31T05:29:45Z</time>
      </trkpt>
      <trkpt lat="34.0726" lon="77.17466">
        <ele>4386.2</ele>
        <time>2015-08-31T05:29:57Z</time>
      </trkpt>
      <trkpt lat="34.07256" lon="77.17469">
        <ele>4385.8</ele>
        <time>2015-08-31T05:30:01Z</time>
      </trkpt>
      <trkpt lat="34.07253" lon="77.17472">
        <ele>4385.2</ele>
        <time>2015-08-31T05:30:04Z</time>
      </trkpt>
      <trkpt lat="34.0725" lon="77.17475">
        <ele>4384.8</ele>
        <time>2015-08-31T05:30:07Z</time>
      </trkpt>
      <trkpt lat="34.07245" lon="77.17478">
        <ele>4384.4</ele>
        <time>2015-08-31T05:30:11Z</time>
      </trkpt>
      <trkpt lat="34.07235" lon="77.17488">
        <ele>4384</ele>
        <time>2015-08-31T05:30:24Z</time>
      </trkpt>
      <trkpt lat="34.07232" lon="77.17489">
        <ele>4383.4</ele>
        <time>2015-08-31T05:30:29Z</time>
      </trkpt>
      <trkpt lat="34.0723" lon="77.17491">
        <ele>4383</ele>
        <time>2015-08-31T05:30:31Z</time>
      </trkpt>
      <trkpt lat="34.07226" lon="77.17493">
        <ele>4382</ele>
        <time>2015-08-31T05:30:39Z</time>
      </trkpt>
      <trkpt lat="34.07222" lon="77.17493">
        <ele>4381.6</ele>
        <time>2015-08-31T05:30:42Z</time>
      </trkpt>
      <trkpt lat="34.0722" lon="77.17495">
        <ele>4380.8</ele>
        <time>2015-08-31T05:30:45Z</time>
      </trkpt>
      <trkpt lat="34.07219" lon="77.17485">
        <ele>4379.6</ele>
        <time>2015-08-31T05:31:04Z</time>
      </trkpt>
      <trkpt lat="34.07212" lon="77.17488">
        <ele>4379</ele>
        <time>2015-08-31T05:31:15Z</time>
      </trkpt>
      <trkpt lat="34.07211" lon="77.1749">
        <ele>4378.6</ele>
        <time>2015-08-31T05:31:22Z</time>
      </trkpt>
      <trkpt lat="34.07211" lon="77.17491">
        <ele>4378.6</ele>
        <time>2015-08-31T05:32:27Z</time>
      </trkpt>
      <trkpt lat="34.07216" lon="77.17491">
        <ele>4379.8</ele>
        <time>2015-08-31T05:32:55Z</time>
      </trkpt>
      <trkpt lat="34.07215" lon="77.17491">
        <ele>4381</ele>
        <time>2015-08-31T05:33:00Z</time>
      </trkpt>
      <trkpt lat="34.07216" lon="77.1749">
        <ele>4380.4</ele>
        <time>2015-08-31T05:33:26Z</time>
      </trkpt>
      <trkpt lat="34.07216" lon="77.1749">
        <ele>4379.8</ele>
        <time>2015-08-31T05:33:30Z</time>
      </trkpt>
      <trkpt lat="34.07214" lon="77.17487">
        <ele>4378.6</ele>
        <time>2015-08-31T05:33:38Z</time>
      </trkpt>
      <trkpt lat="34.07214" lon="77.1749">
        <ele>4377.6</ele>
        <time>2015-08-31T05:34:07Z</time>
      </trkpt>
      <trkpt lat="34.07214" lon="77.17492">
        <ele>4377</ele>
        <time>2015-08-31T05:34:19Z</time>
      </trkpt>
      <trkpt lat="34.07213" lon="77.17487">
        <ele>4376.8</ele>
        <time>2015-08-31T05:34:45Z</time>
      </trkpt>
      <trkpt lat="34.07213" lon="77.17488">
        <ele>4376.6</ele>
        <time>2015-08-31T05:34:54Z</time>
      </trkpt>
      <trkpt lat="34.07215" lon="77.17494">
        <ele>4375.6</ele>
        <time>2015-08-31T05:35:34Z</time>
      </trkpt>
      <trkpt lat="34.07213" lon="77.17488">
        <ele>4374.8</ele>
        <time>2015-08-31T05:36:44Z</time>
      </trkpt>
      <trkpt lat="34.07213" lon="77.17487">
        <ele>4374.8</ele>
        <time>2015-08-31T05:36:45Z</time>
      </trkpt>
      <trkpt lat="34.07212" lon="77.17487">
        <ele>4375</ele>
        <time>2015-08-31T05:37:05Z</time>
      </trkpt>
      <trkpt lat="34.07212" lon="77.17488">
        <ele>4375</ele>
        <time>2015-08-31T05:37:07Z</time>
      </trkpt>
      <trkpt lat="34.07212" lon="77.17489">
        <ele>4375.2</ele>
        <time>2015-08-31T05:37:24Z</time>
      </trkpt>
      <trkpt lat="34.07212" lon="77.17489">
        <ele>4374.6</ele>
        <time>2015-08-31T05:37:34Z</time>
      </trkpt>
      <trkpt lat="34.07212" lon="77.17487">
        <ele>4373.4</ele>
        <time>2015-08-31T05:37:44Z</time>
      </trkpt>
      <trkpt lat="34.07216" lon="77.1748">
        <ele>4374.2</ele>
        <time>2015-08-31T05:38:31Z</time>
      </trkpt>
      <trkpt lat="34.07218" lon="77.17479">
        <ele>4374.2</ele>
        <time>2015-08-31T05:38:33Z</time>
      </trkpt>
      <trkpt lat="34.07219" lon="77.17478">
        <ele>4374.2</ele>
        <time>2015-08-31T05:38:35Z</time>
      </trkpt>
      <trkpt lat="34.07225" lon="77.17463">
        <ele>4372.4</ele>
        <time>2015-08-31T05:39:36Z</time>
      </trkpt>
      <trkpt lat="34.07226" lon="77.17462">
        <ele>4372.2</ele>
        <time>2015-08-31T05:39:39Z</time>
      </trkpt>
      <trkpt lat="34.07223" lon="77.1747">
        <ele>4372.6</ele>
        <time>2015-08-31T05:40:27Z</time>
      </trkpt>
      <trkpt lat="34.07227" lon="77.17466">
        <ele>4371.6</ele>
        <time>2015-08-31T05:40:55Z</time>
      </trkpt>
      <trkpt lat="34.07227" lon="77.17468">
        <ele>4371.6</ele>
        <time>2015-08-31T05:40:58Z</time>
      </trkpt>
      <trkpt lat="34.07229" lon="77.17463">
        <ele>4371.8</ele>
        <time>2015-08-31T05:41:39Z</time>
      </trkpt>
      <trkpt lat="34.07225" lon="77.17462">
        <ele>4371.4</ele>
        <time>2015-08-31T05:42:18Z</time>
      </trkpt>
      <trkpt lat="34.07224" lon="77.17462">
        <ele>4371</ele>
        <time>2015-08-31T05:42:50Z</time>
      </trkpt>
      <trkpt lat="34.0723" lon="77.17462">
        <ele>4370.8</ele>
        <time>2015-08-31T05:43:24Z</time>
      </trkpt>
      <trkpt lat="34.07228" lon="77.17463">
        <ele>4370.8</ele>
        <time>2015-08-31T05:44:18Z</time>
      </trkpt>
      <trkpt lat="34.07227" lon="77.17468">
        <ele>4370</ele>
        <time>2015-08-31T05:44:53Z</time>
      </trkpt>
      <trkpt lat="34.07224" lon="77.17475">
        <ele>4370</ele>
        <time>2015-08-31T05:44:58Z</time>
      </trkpt>
      <trkpt lat="34.07213" lon="77.17492">
        <ele>4370</ele>
        <time>2015-08-31T05:45:11Z</time>
      </trkpt>
      <trkpt lat="34.07226" lon="77.17473">
        <ele>4369.8</ele>
        <time>2015-08-31T05:45:25Z</time>
      </trkpt>
      <trkpt lat="34.07226" lon="77.17465">
        <ele>4369.8</ele>
        <time>2015-08-31T05:45:26Z</time>
      </trkpt>
      <trkpt lat="34.0723" lon="77.17461">
        <ele>4369.8</ele>
        <time>2015-08-31T05:46:27Z</time>
      </trkpt>
      <trkpt lat="34.07227" lon="77.17465">
        <ele>4370</ele>
        <time>2015-08-31T05:47:20Z</time>
      </trkpt>
      <trkpt lat="34.07226" lon="77.1747">
        <ele>4369.6</ele>
        <time>2015-08-31T05:47:26Z</time>
      </trkpt>
      <trkpt lat="34.07224" lon="77.17475">
        <ele>4369.8</ele>
        <time>2015-08-31T05:47:31Z</time>
      </trkpt>
      <trkpt lat="34.07223" lon="77.17477">
        <ele>4369.8</ele>
        <time>2015-08-31T05:47:34Z</time>
      </trkpt>
      <trkpt lat="34.07221" lon="77.17479">
        <ele>4369.8</ele>
        <time>2015-08-31T05:47:38Z</time>
      </trkpt>
      <trkpt lat="34.07223" lon="77.1749">
        <ele>4370.8</ele>
        <time>2015-08-31T05:47:51Z</time>
      </trkpt>
      <trkpt lat="34.07221" lon="77.17492">
        <ele>4371</ele>
        <time>2015-08-31T05:47:55Z</time>
      </trkpt>
      <trkpt lat="34.07213" lon="77.17492">
        <ele>4370</ele>
        <time>2015-08-31T05:48:32Z</time>
      </trkpt>
      <trkpt lat="34.07214" lon="77.17489">
        <ele>4368.8</ele>
        <time>2015-08-31T05:48:54Z</time>
      </trkpt>
      <trkpt lat="34.07213" lon="77.17491">
        <ele>4367.8</ele>
        <time>2015-08-31T05:49:17Z</time>
      </trkpt>
      <trkpt lat="34.07207" lon="77.17499">
        <ele>4366.8</ele>
        <time>2015-08-31T05:49:49Z</time>
      </trkpt>
      <trkpt lat="34.07206" lon="77.17502">
        <ele>4365.6</ele>
        <time>2015-08-31T05:49:54Z</time>
      </trkpt>
      <trkpt lat="34.07207" lon="77.17505">
        <ele>4365.2</ele>
        <time>2015-08-31T05:49:57Z</time>
      </trkpt>
      <trkpt lat="34.07204" lon="77.17506">
        <ele>4364.4</ele>
        <time>2015-08-31T05:50:00Z</time>
      </trkpt>
      <trkpt lat="34.07204" lon="77.17506">
        <ele>4363.2</ele>
        <time>2015-08-31T05:50:02Z</time>
      </trkpt>
      <trkpt lat="34.07204" lon="77.1751">
        <ele>4362.2</ele>
        <time>2015-08-31T05:50:07Z</time>
      </trkpt>
      <trkpt lat="34.07205" lon="77.17515">
        <ele>4361.2</ele>
        <time>2015-08-31T05:50:11Z</time>
      </trkpt>
      <trkpt lat="34.07206" lon="77.1752">
        <ele>4360</ele>
        <time>2015-08-31T05:50:16Z</time>
      </trkpt>
      <trkpt lat="34.07206" lon="77.17523">
        <ele>4359.8</ele>
        <time>2015-08-31T05:50:18Z</time>
      </trkpt>
      <trkpt lat="34.07207" lon="77.17525">
        <ele>4359.4</ele>
        <time>2015-08-31T05:50:21Z</time>
      </trkpt>
      <trkpt lat="34.07206" lon="77.17526">
        <ele>4359</ele>
        <time>2015-08-31T05:50:23Z</time>
      </trkpt>
      <trkpt lat="34.07205" lon="77.1753">
        <ele>4357.8</ele>
        <time>2015-08-31T05:50:28Z</time>
      </trkpt>
      <trkpt lat="34.07202" lon="77.17532">
        <ele>4356.6</ele>
        <time>2015-08-31T05:50:34Z</time>
      </trkpt>
      <trkpt lat="34.07199" lon="77.17534">
        <ele>4355.2</ele>
        <time>2015-08-31T05:50:39Z</time>
      </trkpt>
      <trkpt lat="34.07196" lon="77.17536">
        <ele>4354</ele>
        <time>2015-08-31T05:50:44Z</time>
      </trkpt>
      <trkpt lat="34.07192" lon="77.17539">
        <ele>4353</ele>
        <time>2015-08-31T05:50:49Z</time>
      </trkpt>
      <trkpt lat="34.07192" lon="77.17538">
        <ele>4352.6</ele>
        <time>2015-08-31T05:50:50Z</time>
      </trkpt>
      <trkpt lat="34.07189" lon="77.17537">
        <ele>4351.6</ele>
        <time>2015-08-31T05:50:53Z</time>
      </trkpt>
      <trkpt lat="34.07189" lon="77.17537">
        <ele>4351.2</ele>
        <time>2015-08-31T05:50:54Z</time>
      </trkpt>
      <trkpt lat="34.07187" lon="77.17537">
        <ele>4350.6</ele>
        <time>2015-08-31T05:50:56Z</time>
      </trkpt>
      <trkpt lat="34.07186" lon="77.17539">
        <ele>4350</ele>
        <time>2015-08-31T05:50:58Z</time>
      </trkpt>
      <trkpt lat="34.07184" lon="77.17543">
        <ele>4349.4</ele>
        <time>2015-08-31T05:51:01Z</time>
      </trkpt>
      <trkpt lat="34.07182" lon="77.17546">
        <ele>4348.2</ele>
        <time>2015-08-31T05:51:05Z</time>
      </trkpt>
      <trkpt lat="34.07179" lon="77.17551">
        <ele>4347.2</ele>
        <time>2015-08-31T05:51:09Z</time>
      </trkpt>
      <trkpt lat="34.07178" lon="77.17551">
        <ele>4346.6</ele>
        <time>2015-08-31T05:51:11Z</time>
      </trkpt>
      <trkpt lat="34.07178" lon="77.17552">
        <ele>4346</ele>
        <time>2015-08-31T05:51:14Z</time>
      </trkpt>
      <trkpt lat="34.07176" lon="77.17558">
        <ele>4344.8</ele>
        <time>2015-08-31T05:51:24Z</time>
      </trkpt>
      <trkpt lat="34.07173" lon="77.17568">
        <ele>4344.2</ele>
        <time>2015-08-31T05:51:30Z</time>
      </trkpt>
      <trkpt lat="34.07172" lon="77.17572">
        <ele>4343.6</ele>
        <time>2015-08-31T05:51:34Z</time>
      </trkpt>
      <trkpt lat="34.07171" lon="77.17573">
        <ele>4342.6</ele>
        <time>2015-08-31T05:51:38Z</time>
      </trkpt>
      <trkpt lat="34.07169" lon="77.17577">
        <ele>4341.6</ele>
        <time>2015-08-31T05:51:44Z</time>
      </trkpt>
      <trkpt lat="34.07167" lon="77.1758">
        <ele>4340.6</ele>
        <time>2015-08-31T05:51:49Z</time>
      </trkpt>
      <trkpt lat="34.07165" lon="77.17584">
        <ele>4339.4</ele>
        <time>2015-08-31T05:51:54Z</time>
      </trkpt>
      <trkpt lat="34.07162" lon="77.17588">
        <ele>4338.2</ele>
        <time>2015-08-31T05:52:00Z</time>
      </trkpt>
      <trkpt lat="34.07162" lon="77.17591">
        <ele>4337</ele>
        <time>2015-08-31T05:52:04Z</time>
      </trkpt>
      <trkpt lat="34.07158" lon="77.17594">
        <ele>4336</ele>
        <time>2015-08-31T05:52:09Z</time>
      </trkpt>
      <trkpt lat="34.07157" lon="77.17597">
        <ele>4334.8</ele>
        <time>2015-08-31T05:52:13Z</time>
      </trkpt>
      <trkpt lat="34.07155" lon="77.17598">
        <ele>4334.4</ele>
        <time>2015-08-31T05:52:15Z</time>
      </trkpt>
      <trkpt lat="34.07154" lon="77.17601">
        <ele>4333.8</ele>
        <time>2015-08-31T05:52:18Z</time>
      </trkpt>
      <trkpt lat="34.07152" lon="77.17606">
        <ele>4332.4</ele>
        <time>2015-08-31T05:52:23Z</time>
      </trkpt>
      <trkpt lat="34.0715" lon="77.1761">
        <ele>4331.4</ele>
        <time>2015-08-31T05:52:28Z</time>
      </trkpt>
      <trkpt lat="34.07145" lon="77.17617">
        <ele>4330</ele>
        <time>2015-08-31T05:52:36Z</time>
      </trkpt>
      <trkpt lat="34.07141" lon="77.17617">
        <ele>4329</ele>
        <time>2015-08-31T05:52:41Z</time>
      </trkpt>
      <trkpt lat="34.07137" lon="77.1762">
        <ele>4327.8</ele>
        <time>2015-08-31T05:52:46Z</time>
      </trkpt>
      <trkpt lat="34.07136" lon="77.17621">
        <ele>4327.2</ele>
        <time>2015-08-31T05:52:48Z</time>
      </trkpt>
      <trkpt lat="34.07136" lon="77.17623">
        <ele>4326.8</ele>
        <time>2015-08-31T05:52:50Z</time>
      </trkpt>
      <trkpt lat="34.07135" lon="77.17623">
        <ele>4326.6</ele>
        <time>2015-08-31T05:52:51Z</time>
      </trkpt>
      <trkpt lat="34.07131" lon="77.17623">
        <ele>4325.8</ele>
        <time>2015-08-31T05:52:55Z</time>
      </trkpt>
      <trkpt lat="34.0713" lon="77.17624">
        <ele>4325.4</ele>
        <time>2015-08-31T05:52:56Z</time>
      </trkpt>
      <trkpt lat="34.0713" lon="77.17624">
        <ele>4325.2</ele>
        <time>2015-08-31T05:52:57Z</time>
      </trkpt>
      <trkpt lat="34.07127" lon="77.17626">
        <ele>4324.2</ele>
        <time>2015-08-31T05:53:00Z</time>
      </trkpt>
      <trkpt lat="34.07126" lon="77.17627">
        <ele>4324</ele>
        <time>2015-08-31T05:53:01Z</time>
      </trkpt>
      <trkpt lat="34.07125" lon="77.17632">
        <ele>4323.4</ele>
        <time>2015-08-31T05:53:04Z</time>
      </trkpt>
      <trkpt lat="34.07124" lon="77.17632">
        <ele>4323.2</ele>
        <time>2015-08-31T05:53:05Z</time>
      </trkpt>
      <trkpt lat="34.07118" lon="77.17639">
        <ele>4322.2</ele>
        <time>2015-08-31T05:53:12Z</time>
      </trkpt>
      <trkpt lat="34.07116" lon="77.17645">
        <ele>4321.8</ele>
        <time>2015-08-31T05:53:16Z</time>
      </trkpt>
      <trkpt lat="34.07114" lon="77.17647">
        <ele>4320.8</ele>
        <time>2015-08-31T05:53:20Z</time>
      </trkpt>
      <trkpt lat="34.07112" lon="77.1765">
        <ele>4319.8</ele>
        <time>2015-08-31T05:53:24Z</time>
      </trkpt>
      <trkpt lat="34.07108" lon="77.17655">
        <ele>4318.8</ele>
        <time>2015-08-31T05:53:29Z</time>
      </trkpt>
      <trkpt lat="34.07105" lon="77.17658">
        <ele>4318.4</ele>
        <time>2015-08-31T05:53:32Z</time>
      </trkpt>
      <trkpt lat="34.071" lon="77.17661">
        <ele>4317.6</ele>
        <time>2015-08-31T05:53:37Z</time>
      </trkpt>
      <trkpt lat="34.07099" lon="77.17663">
        <ele>4317</ele>
        <time>2015-08-31T05:53:39Z</time>
      </trkpt>
      <trkpt lat="34.07097" lon="77.17665">
        <ele>4316.4</ele>
        <time>2015-08-31T05:53:41Z</time>
      </trkpt>
      <trkpt lat="34.07093" lon="77.17669">
        <ele>4315.4</ele>
        <time>2015-08-31T05:53:47Z</time>
      </trkpt>
      <trkpt lat="34.07093" lon="77.17669">
        <ele>4315.2</ele>
        <time>2015-08-31T05:53:48Z</time>
      </trkpt>
      <trkpt lat="34.07088" lon="77.17672">
        <ele>4314</ele>
        <time>2015-08-31T05:53:55Z</time>
      </trkpt>
      <trkpt lat="34.07084" lon="77.17675">
        <ele>4313</ele>
        <time>2015-08-31T05:54:01Z</time>
      </trkpt>
      <trkpt lat="34.07081" lon="77.17678">
        <ele>4312.4</ele>
        <time>2015-08-31T05:54:06Z</time>
      </trkpt>
      <trkpt lat="34.07079" lon="77.17679">
        <ele>4311.8</ele>
        <time>2015-08-31T05:54:09Z</time>
      </trkpt>
      <trkpt lat="34.07078" lon="77.1768">
        <ele>4311.6</ele>
        <time>2015-08-31T05:54:10Z</time>
      </trkpt>
      <trkpt lat="34.07078" lon="77.17681">
        <ele>4311.2</ele>
        <time>2015-08-31T05:54:11Z</time>
      </trkpt>
      <trkpt lat="34.07077" lon="77.17683">
        <ele>4310.8</ele>
        <time>2015-08-31T05:54:13Z</time>
      </trkpt>
      <trkpt lat="34.07077" lon="77.17684">
        <ele>4310.6</ele>
        <time>2015-08-31T05:54:14Z</time>
      </trkpt>
      <trkpt lat="34.07073" lon="77.17687">
        <ele>4309.6</ele>
        <time>2015-08-31T05:54:19Z</time>
      </trkpt>
      <trkpt lat="34.07069" lon="77.17689">
        <ele>4308.4</ele>
        <time>2015-08-31T05:54:23Z</time>
      </trkpt>
      <trkpt lat="34.07066" lon="77.17691">
        <ele>4307.4</ele>
        <time>2015-08-31T05:54:28Z</time>
      </trkpt>
      <trkpt lat="34.07057" lon="77.17701">
        <ele>4306.2</ele>
        <time>2015-08-31T05:54:38Z</time>
      </trkpt>
      <trkpt lat="34.07053" lon="77.17704">
        <ele>4305.2</ele>
        <time>2015-08-31T05:54:43Z</time>
      </trkpt>
      <trkpt lat="34.07049" lon="77.17708">
        <ele>4304</ele>
        <time>2015-08-31T05:54:50Z</time>
      </trkpt>
      <trkpt lat="34.07044" lon="77.17717">
        <ele>4303</ele>
        <time>2015-08-31T05:54:58Z</time>
      </trkpt>
      <trkpt lat="34.07043" lon="77.17719">
        <ele>4302.6</ele>
        <time>2015-08-31T05:55:00Z</time>
      </trkpt>
      <trkpt lat="34.07038" lon="77.17724">
        <ele>4301.8</ele>
        <time>2015-08-31T05:55:07Z</time>
      </trkpt>
      <trkpt lat="34.07036" lon="77.17725">
        <ele>4301.4</ele>
        <time>2015-08-31T05:55:09Z</time>
      </trkpt>
      <trkpt lat="34.07033" lon="77.17726">
        <ele>4300.6</ele>
        <time>2015-08-31T05:55:13Z</time>
      </trkpt>
      <trkpt lat="34.07032" lon="77.17726">
        <ele>4300.4</ele>
        <time>2015-08-31T05:55:14Z</time>
      </trkpt>
      <trkpt lat="34.0703" lon="77.17727">
        <ele>4299.4</ele>
        <time>2015-08-31T05:55:18Z</time>
      </trkpt>
      <trkpt lat="34.07027" lon="77.17728">
        <ele>4298.2</ele>
        <time>2015-08-31T05:55:22Z</time>
      </trkpt>
      <trkpt lat="34.07023" lon="77.17726">
        <ele>4297.2</ele>
        <time>2015-08-31T05:55:27Z</time>
      </trkpt>
      <trkpt lat="34.07021" lon="77.17734">
        <ele>4296.4</ele>
        <time>2015-08-31T05:55:31Z</time>
      </trkpt>
      <trkpt lat="34.0702" lon="77.17736">
        <ele>4296</ele>
        <time>2015-08-31T05:55:33Z</time>
      </trkpt>
      <trkpt lat="34.07017" lon="77.17744">
        <ele>4294.8</ele>
        <time>2015-08-31T05:55:38Z</time>
      </trkpt>
      <trkpt lat="34.07015" lon="77.17748">
        <ele>4293.8</ele>
        <time>2015-08-31T05:55:42Z</time>
      </trkpt>
      <trkpt lat="34.07015" lon="77.1775">
        <ele>4293.2</ele>
        <time>2015-08-31T05:55:44Z</time>
      </trkpt>
      <trkpt lat="34.07012" lon="77.17753">
        <ele>4292.6</ele>
        <time>2015-08-31T05:55:47Z</time>
      </trkpt>
      <trkpt lat="34.07008" lon="77.17752">
        <ele>4291.6</ele>
        <time>2015-08-31T05:55:50Z</time>
      </trkpt>
      <trkpt lat="34.07004" lon="77.17753">
        <ele>4290.8</ele>
        <time>2015-08-31T05:55:54Z</time>
      </trkpt>
      <trkpt lat="34.07004" lon="77.17754">
        <ele>4290.6</ele>
        <time>2015-08-31T05:55:55Z</time>
      </trkpt>
      <trkpt lat="34.07002" lon="77.1776">
        <ele>4290.4</ele>
        <time>2015-08-31T05:55:59Z</time>
      </trkpt>
      <trkpt lat="34.07004" lon="77.1777">
        <ele>4289.4</ele>
        <time>2015-08-31T05:56:06Z</time>
      </trkpt>
      <trkpt lat="34.07" lon="77.17775">
        <ele>4288.8</ele>
        <time>2015-08-31T05:56:10Z</time>
      </trkpt>
      <trkpt lat="34.06997" lon="77.17777">
        <ele>4288.4</ele>
        <time>2015-08-31T05:56:13Z</time>
      </trkpt>
      <trkpt lat="34.06995" lon="77.17778">
        <ele>4288</ele>
        <time>2015-08-31T05:56:16Z</time>
      </trkpt>
      <trkpt lat="34.06993" lon="77.17777">
        <ele>4287.4</ele>
        <time>2015-08-31T05:56:18Z</time>
      </trkpt>
      <trkpt lat="34.06988" lon="77.17779">
        <ele>4286.4</ele>
        <time>2015-08-31T05:56:22Z</time>
      </trkpt>
      <trkpt lat="34.06987" lon="77.17779">
        <ele>4286.4</ele>
        <time>2015-08-31T05:56:23Z</time>
      </trkpt>
      <trkpt lat="34.06978" lon="77.17783">
        <ele>4285.2</ele>
        <time>2015-08-31T05:56:31Z</time>
      </trkpt>
      <trkpt lat="34.06966" lon="77.17778">
        <ele>4284.2</ele>
        <time>2015-08-31T05:56:41Z</time>
      </trkpt>
      <trkpt lat="34.06954" lon="77.17774">
        <ele>4283</ele>
        <time>2015-08-31T05:56:52Z</time>
      </trkpt>
      <trkpt lat="34.0695" lon="77.17773">
        <ele>4282</ele>
        <time>2015-08-31T05:56:55Z</time>
      </trkpt>
      <trkpt lat="34.06947" lon="77.17771">
        <ele>4280.4</ele>
        <time>2015-08-31T05:56:59Z</time>
      </trkpt>
      <trkpt lat="34.06944" lon="77.17767">
        <ele>4279.4</ele>
        <time>2015-08-31T05:57:04Z</time>
      </trkpt>
      <trkpt lat="34.0694" lon="77.17764">
        <ele>4278.2</ele>
        <time>2015-08-31T05:57:09Z</time>
      </trkpt>
      <trkpt lat="34.06938" lon="77.17763">
        <ele>4277.8</ele>
        <time>2015-08-31T05:57:11Z</time>
      </trkpt>
      <trkpt lat="34.06932" lon="77.17762">
        <ele>4277.2</ele>
        <time>2015-08-31T05:57:17Z</time>
      </trkpt>
      <trkpt lat="34.06931" lon="77.17762">
        <ele>4277</ele>
        <time>2015-08-31T05:57:18Z</time>
      </trkpt>
      <trkpt lat="34.06923" lon="77.17762">
        <ele>4276</ele>
        <time>2015-08-31T05:57:26Z</time>
      </trkpt>
      <trkpt lat="34.06921" lon="77.17762">
        <ele>4275.8</ele>
        <time>2015-08-31T05:57:27Z</time>
      </trkpt>
      <trkpt lat="34.06917" lon="77.17761">
        <ele>4274.8</ele>
        <time>2015-08-31T05:57:30Z</time>
      </trkpt>
      <trkpt lat="34.06914" lon="77.1776">
        <ele>4273.8</ele>
        <time>2015-08-31T05:57:33Z</time>
      </trkpt>
      <trkpt lat="34.06899" lon="77.17746">
        <ele>4272.8</ele>
        <time>2015-08-31T05:57:47Z</time>
      </trkpt>
      <trkpt lat="34.06899" lon="77.17745">
        <ele>4272.8</ele>
        <time>2015-08-31T05:57:48Z</time>
      </trkpt>
      <trkpt lat="34.06896" lon="77.17724">
        <ele>4272.8</ele>
        <time>2015-08-31T05:58:05Z</time>
      </trkpt>
      <trkpt lat="34.06895" lon="77.17722">
        <ele>4272.6</ele>
        <time>2015-08-31T05:58:06Z</time>
      </trkpt>
      <trkpt lat="34.06891" lon="77.17715">
        <ele>4271.8</ele>
        <time>2015-08-31T05:58:12Z</time>
      </trkpt>
      <trkpt lat="34.0689" lon="77.17711">
        <ele>4271.6</ele>
        <time>2015-08-31T05:58:15Z</time>
      </trkpt>
      <trkpt lat="34.06888" lon="77.17709">
        <ele>4271.2</ele>
        <time>2015-08-31T05:58:18Z</time>
      </trkpt>
      <trkpt lat="34.06886" lon="77.17705">
        <ele>4270.4</ele>
        <time>2015-08-31T05:58:22Z</time>
      </trkpt>
      <trkpt lat="34.06886" lon="77.17703">
        <ele>4270.4</ele>
        <time>2015-08-31T05:58:23Z</time>
      </trkpt>
      <trkpt lat="34.06885" lon="77.177">
        <ele>4270</ele>
        <time>2015-08-31T05:58:26Z</time>
      </trkpt>
      <trkpt lat="34.06882" lon="77.17694">
        <ele>4269.4</ele>
        <time>2015-08-31T05:58:32Z</time>
      </trkpt>
      <trkpt lat="34.06872" lon="77.17679">
        <ele>4268.4</ele>
        <time>2015-08-31T05:58:47Z</time>
      </trkpt>
      <trkpt lat="34.06869" lon="77.17667">
        <ele>4267.4</ele>
        <time>2015-08-31T05:58:57Z</time>
      </trkpt>
      <trkpt lat="34.06869" lon="77.17667">
        <ele>4267.2</ele>
        <time>2015-08-31T05:58:58Z</time>
      </trkpt>
      <trkpt lat="34.06869" lon="77.17665">
        <ele>4266</ele>
        <time>2015-08-31T05:59:00Z</time>
      </trkpt>
      <trkpt lat="34.06868" lon="77.17658">
        <ele>4265</ele>
        <time>2015-08-31T05:59:06Z</time>
      </trkpt>
      <trkpt lat="34.06858" lon="77.17642">
        <ele>4263.8</ele>
        <time>2015-08-31T05:59:20Z</time>
      </trkpt>
      <trkpt lat="34.0685" lon="77.17629">
        <ele>4263.4</ele>
        <time>2015-08-31T05:59:31Z</time>
      </trkpt>
      <trkpt lat="34.06846" lon="77.17624">
        <ele>4263</ele>
        <time>2015-08-31T05:59:38Z</time>
      </trkpt>
      <trkpt lat="34.06849" lon="77.17622">
        <ele>4262.8</ele>
        <time>2015-08-31T05:59:42Z</time>
      </trkpt>
      <trkpt lat="34.06849" lon="77.17618">
        <ele>4261.4</ele>
        <time>2015-08-31T05:59:47Z</time>
      </trkpt>
      <trkpt lat="34.0685" lon="77.17611">
        <ele>4260.6</ele>
        <time>2015-08-31T05:59:53Z</time>
      </trkpt>
      <trkpt lat="34.0685" lon="77.1761">
        <ele>4260.4</ele>
        <time>2015-08-31T05:59:54Z</time>
      </trkpt>
      <trkpt lat="34.0685" lon="77.17606">
        <ele>4259.4</ele>
        <time>2015-08-31T05:59:57Z</time>
      </trkpt>
      <trkpt lat="34.0685" lon="77.17606">
        <ele>4258.8</ele>
        <time>2015-08-31T05:59:59Z</time>
      </trkpt>
      <trkpt lat="34.0685" lon="77.17605">
        <ele>4258.4</ele>
        <time>2015-08-31T06:00:01Z</time>
      </trkpt>
      <trkpt lat="34.06847" lon="77.17603">
        <ele>4257.2</ele>
        <time>2015-08-31T06:00:05Z</time>
      </trkpt>
      <trkpt lat="34.06842" lon="77.17602">
        <ele>4256</ele>
        <time>2015-08-31T06:00:10Z</time>
      </trkpt>
      <trkpt lat="34.0684" lon="77.17601">
        <ele>4255</ele>
        <time>2015-08-31T06:00:13Z</time>
      </trkpt>
      <trkpt lat="34.06834" lon="77.17603">
        <ele>4254</ele>
        <time>2015-08-31T06:00:18Z</time>
      </trkpt>
      <trkpt lat="34.0683" lon="77.17604">
        <ele>4253.6</ele>
        <time>2015-08-31T06:00:22Z</time>
      </trkpt>
      <trkpt lat="34.06829" lon="77.17604">
        <ele>4253.6</ele>
        <time>2015-08-31T06:00:24Z</time>
      </trkpt>
      <trkpt lat="34.06826" lon="77.17611">
        <ele>4252.8</ele>
        <time>2015-08-31T06:00:28Z</time>
      </trkpt>
      <trkpt lat="34.06824" lon="77.17615">
        <ele>4251.8</ele>
        <time>2015-08-31T06:00:31Z</time>
      </trkpt>
      <trkpt lat="34.06823" lon="77.17615">
        <ele>4251.6</ele>
        <time>2015-08-31T06:00:32Z</time>
      </trkpt>
      <trkpt lat="34.0682" lon="77.17618">
        <ele>4250.6</ele>
        <time>2015-08-31T06:00:36Z</time>
      </trkpt>
      <trkpt lat="34.06819" lon="77.17619">
        <ele>4250.4</ele>
        <time>2015-08-31T06:00:37Z</time>
      </trkpt>
      <trkpt lat="34.06818" lon="77.17619">
        <ele>4250.2</ele>
        <time>2015-08-31T06:00:38Z</time>
      </trkpt>
      <trkpt lat="34.06816" lon="77.17625">
        <ele>4249.6</ele>
        <time>2015-08-31T06:00:41Z</time>
      </trkpt>
      <trkpt lat="34.06816" lon="77.17626">
        <ele>4249.4</ele>
        <time>2015-08-31T06:00:42Z</time>
      </trkpt>
      <trkpt lat="34.06813" lon="77.17632">
        <ele>4248.4</ele>
        <time>2015-08-31T06:00:47Z</time>
      </trkpt>
      <trkpt lat="34.06813" lon="77.17633">
        <ele>4248.2</ele>
        <time>2015-08-31T06:00:48Z</time>
      </trkpt>
      <trkpt lat="34.06812" lon="77.17637">
        <ele>4247.4</ele>
        <time>2015-08-31T06:00:52Z</time>
      </trkpt>
      <trkpt lat="34.06811" lon="77.17638">
        <ele>4247.2</ele>
        <time>2015-08-31T06:00:53Z</time>
      </trkpt>
      <trkpt lat="34.06811" lon="77.17639">
        <ele>4247</ele>
        <time>2015-08-31T06:00:54Z</time>
      </trkpt>
      <trkpt lat="34.0681" lon="77.17641">
        <ele>4246.4</ele>
        <time>2015-08-31T06:00:57Z</time>
      </trkpt>
      <trkpt lat="34.06809" lon="77.17642">
        <ele>4246</ele>
        <time>2015-08-31T06:00:58Z</time>
      </trkpt>
      <trkpt lat="34.06807" lon="77.17646">
        <ele>4245</ele>
        <time>2015-08-31T06:01:03Z</time>
      </trkpt>
      <trkpt lat="34.06803" lon="77.17649">
        <ele>4244.4</ele>
        <time>2015-08-31T06:01:08Z</time>
      </trkpt>
      <trkpt lat="34.068" lon="77.1765">
        <ele>4244</ele>
        <time>2015-08-31T06:01:13Z</time>
      </trkpt>
      <trkpt lat="34.06797" lon="77.1765">
        <ele>4243.6</ele>
        <time>2015-08-31T06:01:16Z</time>
      </trkpt>
      <trkpt lat="34.06793" lon="77.17651">
        <ele>4242.6</ele>
        <time>2015-08-31T06:01:20Z</time>
      </trkpt>
      <trkpt lat="34.0679" lon="77.17651">
        <ele>4241.6</ele>
        <time>2015-08-31T06:01:24Z</time>
      </trkpt>
      <trkpt lat="34.06787" lon="77.17654">
        <ele>4241.2</ele>
        <time>2015-08-31T06:01:27Z</time>
      </trkpt>
      <trkpt lat="34.06786" lon="77.17654">
        <ele>4240.8</ele>
        <time>2015-08-31T06:01:29Z</time>
      </trkpt>
      <trkpt lat="34.06784" lon="77.17655">
        <ele>4240.4</ele>
        <time>2015-08-31T06:01:31Z</time>
      </trkpt>
      <trkpt lat="34.06783" lon="77.17654">
        <ele>4240</ele>
        <time>2015-08-31T06:01:33Z</time>
      </trkpt>
      <trkpt lat="34.06782" lon="77.17654">
        <ele>4239.8</ele>
        <time>2015-08-31T06:01:35Z</time>
      </trkpt>
      <trkpt lat="34.06781" lon="77.17654">
        <ele>4239.2</ele>
        <time>2015-08-31T06:01:37Z</time>
      </trkpt>
      <trkpt lat="34.06777" lon="77.17657">
        <ele>4238.2</ele>
        <time>2015-08-31T06:01:43Z</time>
      </trkpt>
      <trkpt lat="34.06775" lon="77.1766">
        <ele>4237.4</ele>
        <time>2015-08-31T06:01:45Z</time>
      </trkpt>
      <trkpt lat="34.06775" lon="77.17662">
        <ele>4237</ele>
        <time>2015-08-31T06:01:47Z</time>
      </trkpt>
      <trkpt lat="34.06771" lon="77.17664">
        <ele>4236.4</ele>
        <time>2015-08-31T06:01:51Z</time>
      </trkpt>
      <trkpt lat="34.06769" lon="77.17665">
        <ele>4236</ele>
        <time>2015-08-31T06:01:54Z</time>
      </trkpt>
      <trkpt lat="34.06769" lon="77.17665">
        <ele>4236</ele>
        <time>2015-08-31T06:01:55Z</time>
      </trkpt>
      <trkpt lat="34.06766" lon="77.17665">
        <ele>4234.8</ele>
        <time>2015-08-31T06:01:59Z</time>
      </trkpt>
      <trkpt lat="34.06758" lon="77.17664">
        <ele>4233.8</ele>
        <time>2015-08-31T06:02:06Z</time>
      </trkpt>
      <trkpt lat="34.06752" lon="77.17656">
        <ele>4232.8</ele>
        <time>2015-08-31T06:02:16Z</time>
      </trkpt>
      <trkpt lat="34.06751" lon="77.17655">
        <ele>4232.6</ele>
        <time>2015-08-31T06:02:17Z</time>
      </trkpt>
      <trkpt lat="34.06749" lon="77.17646">
        <ele>4232.2</ele>
        <time>2015-08-31T06:02:25Z</time>
      </trkpt>
      <trkpt lat="34.0675" lon="77.17643">
        <ele>4231.4</ele>
        <time>2015-08-31T06:02:28Z</time>
      </trkpt>
      <trkpt lat="34.06751" lon="77.17642">
        <ele>4230.6</ele>
        <time>2015-08-31T06:02:32Z</time>
      </trkpt>
      <trkpt lat="34.0675" lon="77.1764">
        <ele>4230.4</ele>
        <time>2015-08-31T06:02:34Z</time>
      </trkpt>
      <trkpt lat="34.06752" lon="77.17637">
        <ele>4229.2</ele>
        <time>2015-08-31T06:02:39Z</time>
      </trkpt>
      <trkpt lat="34.0675" lon="77.17633">
        <ele>4228.2</ele>
        <time>2015-08-31T06:02:48Z</time>
      </trkpt>
      <trkpt lat="34.06746" lon="77.17631">
        <ele>4227.2</ele>
        <time>2015-08-31T06:02:54Z</time>
      </trkpt>
      <trkpt lat="34.06741" lon="77.17628">
        <ele>4226</ele>
        <time>2015-08-31T06:03:00Z</time>
      </trkpt>
      <trkpt lat="34.06738" lon="77.17628">
        <ele>4224.8</ele>
        <time>2015-08-31T06:03:05Z</time>
      </trkpt>
      <trkpt lat="34.06736" lon="77.17625">
        <ele>4223.6</ele>
        <time>2015-08-31T06:03:10Z</time>
      </trkpt>
      <trkpt lat="34.06729" lon="77.17625">
        <ele>4222.4</ele>
        <time>2015-08-31T06:03:15Z</time>
      </trkpt>
      <trkpt lat="34.06725" lon="77.17622">
        <ele>4221.2</ele>
        <time>2015-08-31T06:03:22Z</time>
      </trkpt>
      <trkpt lat="34.06721" lon="77.1762">
        <ele>4220</ele>
        <time>2015-08-31T06:03:26Z</time>
      </trkpt>
      <trkpt lat="34.06721" lon="77.17619">
        <ele>4219.8</ele>
        <time>2015-08-31T06:03:27Z</time>
      </trkpt>
      <trkpt lat="34.0672" lon="77.17618">
        <ele>4219.4</ele>
        <time>2015-08-31T06:03:29Z</time>
      </trkpt>
      <trkpt lat="34.06719" lon="77.17617">
        <ele>4219</ele>
        <time>2015-08-31T06:03:31Z</time>
      </trkpt>
      <trkpt lat="34.06718" lon="77.17615">
        <ele>4217.8</ele>
        <time>2015-08-31T06:03:35Z</time>
      </trkpt>
      <trkpt lat="34.06716" lon="77.1761">
        <ele>4216.8</ele>
        <time>2015-08-31T06:03:46Z</time>
      </trkpt>
      <trkpt lat="34.06711" lon="77.17609">
        <ele>4215.6</ele>
        <time>2015-08-31T06:03:51Z</time>
      </trkpt>
      <trkpt lat="34.0671" lon="77.17609">
        <ele>4215.4</ele>
        <time>2015-08-31T06:03:52Z</time>
      </trkpt>
      <trkpt lat="34.06705" lon="77.1761">
        <ele>4214.4</ele>
        <time>2015-08-31T06:03:56Z</time>
      </trkpt>
      <trkpt lat="34.06703" lon="77.1761">
        <ele>4213.8</ele>
        <time>2015-08-31T06:03:59Z</time>
      </trkpt>
      <trkpt lat="34.06702" lon="77.1761">
        <ele>4213.4</ele>
        <time>2015-08-31T06:04:02Z</time>
      </trkpt>
      <trkpt lat="34.06701" lon="77.1761">
        <ele>4213.2</ele>
        <time>2015-08-31T06:04:03Z</time>
      </trkpt>
      <trkpt lat="34.06698" lon="77.17609">
        <ele>4212.2</ele>
        <time>2015-08-31T06:04:08Z</time>
      </trkpt>
      <trkpt lat="34.06696" lon="77.17608">
        <ele>4211.2</ele>
        <time>2015-08-31T06:04:12Z</time>
      </trkpt>
      <trkpt lat="34.06693" lon="77.17608">
        <ele>4210</ele>
        <time>2015-08-31T06:04:15Z</time>
      </trkpt>
      <trkpt lat="34.0669" lon="77.17608">
        <ele>4209</ele>
        <time>2015-08-31T06:04:18Z</time>
      </trkpt>
      <trkpt lat="34.06688" lon="77.17609">
        <ele>4208.6</ele>
        <time>2015-08-31T06:04:20Z</time>
      </trkpt>
      <trkpt lat="34.06685" lon="77.1761">
        <ele>4207.6</ele>
        <time>2015-08-31T06:04:24Z</time>
      </trkpt>
      <trkpt lat="34.06683" lon="77.17609">
        <ele>4207.2</ele>
        <time>2015-08-31T06:04:26Z</time>
      </trkpt>
      <trkpt lat="34.06679" lon="77.17609">
        <ele>4206.6</ele>
        <time>2015-08-31T06:04:29Z</time>
      </trkpt>
      <trkpt lat="34.06676" lon="77.17611">
        <ele>4205.8</ele>
        <time>2015-08-31T06:04:33Z</time>
      </trkpt>
      <trkpt lat="34.06675" lon="77.1761">
        <ele>4205.4</ele>
        <time>2015-08-31T06:04:35Z</time>
      </trkpt>
      <trkpt lat="34.06669" lon="77.17612">
        <ele>4204.8</ele>
        <time>2015-08-31T06:04:39Z</time>
      </trkpt>
      <trkpt lat="34.06669" lon="77.1761">
        <ele>4204.2</ele>
        <time>2015-08-31T06:04:41Z</time>
      </trkpt>
      <trkpt lat="34.06662" lon="77.17605">
        <ele>4203.2</ele>
        <time>2015-08-31T06:04:50Z</time>
      </trkpt>
      <trkpt lat="34.06655" lon="77.17595">
        <ele>4202</ele>
        <time>2015-08-31T06:05:01Z</time>
      </trkpt>
      <trkpt lat="34.06655" lon="77.17593">
        <ele>4201.8</ele>
        <time>2015-08-31T06:05:02Z</time>
      </trkpt>
      <trkpt lat="34.06655" lon="77.17584">
        <ele>4200.8</ele>
        <time>2015-08-31T06:05:08Z</time>
      </trkpt>
      <trkpt lat="34.06654" lon="77.17583">
        <ele>4200.6</ele>
        <time>2015-08-31T06:05:10Z</time>
      </trkpt>
      <trkpt lat="34.06655" lon="77.17583">
        <ele>4199.8</ele>
        <time>2015-08-31T06:05:12Z</time>
      </trkpt>
      <trkpt lat="34.06656" lon="77.17579">
        <ele>4201</ele>
        <time>2015-08-31T06:05:22Z</time>
      </trkpt>
      <trkpt lat="34.06652" lon="77.17575">
        <ele>4199.8</ele>
        <time>2015-08-31T06:05:28Z</time>
      </trkpt>
      <trkpt lat="34.06652" lon="77.17572">
        <ele>4198.6</ele>
        <time>2015-08-31T06:05:32Z</time>
      </trkpt>
      <trkpt lat="34.06648" lon="77.17568">
        <ele>4197.4</ele>
        <time>2015-08-31T06:05:37Z</time>
      </trkpt>
      <trkpt lat="34.06646" lon="77.17566">
        <ele>4196.4</ele>
        <time>2015-08-31T06:05:41Z</time>
      </trkpt>
      <trkpt lat="34.06641" lon="77.17565">
        <ele>4195.2</ele>
        <time>2015-08-31T06:05:47Z</time>
      </trkpt>
      <trkpt lat="34.06633" lon="77.17566">
        <ele>4194</ele>
        <time>2015-08-31T06:05:55Z</time>
      </trkpt>
      <trkpt lat="34.06633" lon="77.1756">
        <ele>4193</ele>
        <time>2015-08-31T06:06:00Z</time>
      </trkpt>
      <trkpt lat="34.06634" lon="77.17558">
        <ele>4192</ele>
        <time>2015-08-31T06:06:04Z</time>
      </trkpt>
      <trkpt lat="34.06634" lon="77.17557">
        <ele>4191.8</ele>
        <time>2015-08-31T06:06:05Z</time>
      </trkpt>
      <trkpt lat="34.06634" lon="77.17555">
        <ele>4190.6</ele>
        <time>2015-08-31T06:06:09Z</time>
      </trkpt>
      <trkpt lat="34.06635" lon="77.1755">
        <ele>4189.4</ele>
        <time>2015-08-31T06:06:13Z</time>
      </trkpt>
      <trkpt lat="34.06634" lon="77.17547">
        <ele>4188.2</ele>
        <time>2015-08-31T06:06:16Z</time>
      </trkpt>
      <trkpt lat="34.06634" lon="77.17543">
        <ele>4187.2</ele>
        <time>2015-08-31T06:06:20Z</time>
      </trkpt>
      <trkpt lat="34.06633" lon="77.17539">
        <ele>4186.6</ele>
        <time>2015-08-31T06:06:23Z</time>
      </trkpt>
      <trkpt lat="34.06632" lon="77.17535">
        <ele>4186</ele>
        <time>2015-08-31T06:06:28Z</time>
      </trkpt>
      <trkpt lat="34.06632" lon="77.17531">
        <ele>4185</ele>
        <time>2015-08-31T06:06:33Z</time>
      </trkpt>
      <trkpt lat="34.06633" lon="77.17526">
        <ele>4184</ele>
        <time>2015-08-31T06:06:39Z</time>
      </trkpt>
      <trkpt lat="34.06635" lon="77.17522">
        <ele>4182.8</ele>
        <time>2015-08-31T06:06:46Z</time>
      </trkpt>
      <trkpt lat="34.06635" lon="77.17518">
        <ele>4181.6</ele>
        <time>2015-08-31T06:06:51Z</time>
      </trkpt>
      <trkpt lat="34.06636" lon="77.17514">
        <ele>4180.4</ele>
        <time>2015-08-31T06:06:55Z</time>
      </trkpt>
      <trkpt lat="34.06636" lon="77.17509">
        <ele>4179.2</ele>
        <time>2015-08-31T06:07:00Z</time>
      </trkpt>
      <trkpt lat="34.06635" lon="77.17504">
        <ele>4177.8</ele>
        <time>2015-08-31T06:07:06Z</time>
      </trkpt>
      <trkpt lat="34.06634" lon="77.17499">
        <ele>4176.8</ele>
        <time>2015-08-31T06:07:10Z</time>
      </trkpt>
      <trkpt lat="34.06632" lon="77.17491">
        <ele>4175.6</ele>
        <time>2015-08-31T06:07:18Z</time>
      </trkpt>
      <trkpt lat="34.0663" lon="77.17486">
        <ele>4174.4</ele>
        <time>2015-08-31T06:07:23Z</time>
      </trkpt>
      <trkpt lat="34.06629" lon="77.17482">
        <ele>4173.6</ele>
        <time>2015-08-31T06:07:27Z</time>
      </trkpt>
      <trkpt lat="34.06629" lon="77.1748">
        <ele>4173.2</ele>
        <time>2015-08-31T06:07:29Z</time>
      </trkpt>
      <trkpt lat="34.06627" lon="77.17476">
        <ele>4172.2</ele>
        <time>2015-08-31T06:07:35Z</time>
      </trkpt>
      <trkpt lat="34.06627" lon="77.17471">
        <ele>4171.2</ele>
        <time>2015-08-31T06:07:42Z</time>
      </trkpt>
      <trkpt lat="34.06625" lon="77.17466">
        <ele>4170.8</ele>
        <time>2015-08-31T06:07:47Z</time>
      </trkpt>
      <trkpt lat="34.06624" lon="77.17462">
        <ele>4170.2</ele>
        <time>2015-08-31T06:07:51Z</time>
      </trkpt>
      <trkpt lat="34.06624" lon="77.17461">
        <ele>4170</ele>
        <time>2015-08-31T06:07:52Z</time>
      </trkpt>
      <trkpt lat="34.06625" lon="77.17458">
        <ele>4169</ele>
        <time>2015-08-31T06:07:56Z</time>
      </trkpt>
      <trkpt lat="34.06626" lon="77.17456">
        <ele>4168</ele>
        <time>2015-08-31T06:08:01Z</time>
      </trkpt>
      <trkpt lat="34.06628" lon="77.17444">
        <ele>4167</ele>
        <time>2015-08-31T06:08:15Z</time>
      </trkpt>
      <trkpt lat="34.06627" lon="77.17441">
        <ele>4166.8</ele>
        <time>2015-08-31T06:08:17Z</time>
      </trkpt>
      <trkpt lat="34.06626" lon="77.17439">
        <ele>4166.4</ele>
        <time>2015-08-31T06:08:20Z</time>
      </trkpt>
      <trkpt lat="34.06625" lon="77.17438">
        <ele>4165.8</ele>
        <time>2015-08-31T06:08:22Z</time>
      </trkpt>
      <trkpt lat="34.06623" lon="77.17432">
        <ele>4164.8</ele>
        <time>2015-08-31T06:08:31Z</time>
      </trkpt>
      <trkpt lat="34.06621" lon="77.17429">
        <ele>4163.6</ele>
        <time>2015-08-31T06:08:36Z</time>
      </trkpt>
      <trkpt lat="34.06622" lon="77.17426">
        <ele>4163.4</ele>
        <time>2015-08-31T06:08:38Z</time>
      </trkpt>
      <trkpt lat="34.06619" lon="77.17427">
        <ele>4163</ele>
        <time>2015-08-31T06:08:40Z</time>
      </trkpt>
      <trkpt lat="34.0662" lon="77.17426">
        <ele>4162.6</ele>
        <time>2015-08-31T06:08:42Z</time>
      </trkpt>
      <trkpt lat="34.06622" lon="77.17426">
        <ele>4162.4</ele>
        <time>2015-08-31T06:08:43Z</time>
      </trkpt>
      <trkpt lat="34.06619" lon="77.17425">
        <ele>4161.4</ele>
        <time>2015-08-31T06:08:47Z</time>
      </trkpt>
      <trkpt lat="34.06614" lon="77.17428">
        <ele>4160.2</ele>
        <time>2015-08-31T06:08:52Z</time>
      </trkpt>
      <trkpt lat="34.0661" lon="77.17424">
        <ele>4159.2</ele>
        <time>2015-08-31T06:08:58Z</time>
      </trkpt>
      <trkpt lat="34.06609" lon="77.17424">
        <ele>4159</ele>
        <time>2015-08-31T06:08:59Z</time>
      </trkpt>
      <trkpt lat="34.06605" lon="77.17423">
        <ele>4158</ele>
        <time>2015-08-31T06:09:03Z</time>
      </trkpt>
      <trkpt lat="34.06605" lon="77.17423">
        <ele>4157.8</ele>
        <time>2015-08-31T06:09:04Z</time>
      </trkpt>
      <trkpt lat="34.06606" lon="77.1742">
        <ele>4156.8</ele>
        <time>2015-08-31T06:09:12Z</time>
      </trkpt>
      <trkpt lat="34.06607" lon="77.17416">
        <ele>4155.6</ele>
        <time>2015-08-31T06:09:19Z</time>
      </trkpt>
      <trkpt lat="34.06605" lon="77.17413">
        <ele>4154.4</ele>
        <time>2015-08-31T06:09:24Z</time>
      </trkpt>
      <trkpt lat="34.06603" lon="77.17412">
        <ele>4153.4</ele>
        <time>2015-08-31T06:09:28Z</time>
      </trkpt>
      <trkpt lat="34.066" lon="77.17415">
        <ele>4152.2</ele>
        <time>2015-08-31T06:09:33Z</time>
      </trkpt>
      <trkpt lat="34.06598" lon="77.17417">
        <ele>4152</ele>
        <time>2015-08-31T06:09:36Z</time>
      </trkpt>
      <trkpt lat="34.06597" lon="77.17414">
        <ele>4151.8</ele>
        <time>2015-08-31T06:09:38Z</time>
      </trkpt>
      <trkpt lat="34.06595" lon="77.17413">
        <ele>4151.2</ele>
        <time>2015-08-31T06:09:42Z</time>
      </trkpt>
      <trkpt lat="34.06595" lon="77.17412">
        <ele>4150.2</ele>
        <time>2015-08-31T06:09:48Z</time>
      </trkpt>
      <trkpt lat="34.06594" lon="77.17411">
        <ele>4149</ele>
        <time>2015-08-31T06:09:51Z</time>
      </trkpt>
      <trkpt lat="34.06591" lon="77.1741">
        <ele>4148</ele>
        <time>2015-08-31T06:09:55Z</time>
      </trkpt>
      <trkpt lat="34.06587" lon="77.17407">
        <ele>4147</ele>
        <time>2015-08-31T06:10:01Z</time>
      </trkpt>
      <trkpt lat="34.06585" lon="77.17408">
        <ele>4145.6</ele>
        <time>2015-08-31T06:10:04Z</time>
      </trkpt>
      <trkpt lat="34.06581" lon="77.1741">
        <ele>4144.4</ele>
        <time>2015-08-31T06:10:08Z</time>
      </trkpt>
      <trkpt lat="34.0658" lon="77.1741">
        <ele>4144.2</ele>
        <time>2015-08-31T06:10:09Z</time>
      </trkpt>
      <trkpt lat="34.06573" lon="77.1741">
        <ele>4143.4</ele>
        <time>2015-08-31T06:10:16Z</time>
      </trkpt>
      <trkpt lat="34.0657" lon="77.17404">
        <ele>4142.4</ele>
        <time>2015-08-31T06:10:22Z</time>
      </trkpt>
      <trkpt lat="34.0657" lon="77.17401">
        <ele>4142</ele>
        <time>2015-08-31T06:10:24Z</time>
      </trkpt>
      <trkpt lat="34.06567" lon="77.17398">
        <ele>4141.2</ele>
        <time>2015-08-31T06:10:27Z</time>
      </trkpt>
      <trkpt lat="34.06564" lon="77.1739">
        <ele>4140.2</ele>
        <time>2015-08-31T06:10:35Z</time>
      </trkpt>
      <trkpt lat="34.06562" lon="77.17386">
        <ele>4139.6</ele>
        <time>2015-08-31T06:10:39Z</time>
      </trkpt>
      <trkpt lat="34.06561" lon="77.17382">
        <ele>4139</ele>
        <time>2015-08-31T06:10:42Z</time>
      </trkpt>
      <trkpt lat="34.06561" lon="77.17379">
        <ele>4138.2</ele>
        <time>2015-08-31T06:10:46Z</time>
      </trkpt>
      <trkpt lat="34.06561" lon="77.17378">
        <ele>4137.8</ele>
        <time>2015-08-31T06:10:47Z</time>
      </trkpt>
      <trkpt lat="34.06559" lon="77.17375">
        <ele>4136.8</ele>
        <time>2015-08-31T06:10:51Z</time>
      </trkpt>
      <trkpt lat="34.06562" lon="77.17373">
        <ele>4135.6</ele>
        <time>2015-08-31T06:10:56Z</time>
      </trkpt>
      <trkpt lat="34.06565" lon="77.17374">
        <ele>4134.6</ele>
        <time>2015-08-31T06:10:58Z</time>
      </trkpt>
      <trkpt lat="34.06566" lon="77.17374">
        <ele>4134.2</ele>
        <time>2015-08-31T06:10:59Z</time>
      </trkpt>
      <trkpt lat="34.06569" lon="77.17375">
        <ele>4133</ele>
        <time>2015-08-31T06:11:04Z</time>
      </trkpt>
      <trkpt lat="34.0657" lon="77.17375">
        <ele>4132.8</ele>
        <time>2015-08-31T06:11:05Z</time>
      </trkpt>
      <trkpt lat="34.06573" lon="77.17376">
        <ele>4132</ele>
        <time>2015-08-31T06:11:09Z</time>
      </trkpt>
      <trkpt lat="34.06575" lon="77.17373">
        <ele>4130.8</ele>
        <time>2015-08-31T06:11:17Z</time>
      </trkpt>
      <trkpt lat="34.06578" lon="77.17372">
        <ele>4129.6</ele>
        <time>2015-08-31T06:11:23Z</time>
      </trkpt>
      <trkpt lat="34.0658" lon="77.17372">
        <ele>4128.6</ele>
        <time>2015-08-31T06:11:27Z</time>
      </trkpt>
      <trkpt lat="34.06583" lon="77.17367">
        <ele>4127.4</ele>
        <time>2015-08-31T06:11:34Z</time>
      </trkpt>
      <trkpt lat="34.06585" lon="77.17364">
        <ele>4126.2</ele>
        <time>2015-08-31T06:11:38Z</time>
      </trkpt>
      <trkpt lat="34.06589" lon="77.17363">
        <ele>4125.4</ele>
        <time>2015-08-31T06:11:42Z</time>
      </trkpt>
      <trkpt lat="34.0659" lon="77.17363">
        <ele>4125.2</ele>
        <time>2015-08-31T06:11:43Z</time>
      </trkpt>
      <trkpt lat="34.06595" lon="77.17362">
        <ele>4124.2</ele>
        <time>2015-08-31T06:11:51Z</time>
      </trkpt>
      <trkpt lat="34.06601" lon="77.17349">
        <ele>4123</ele>
        <time>2015-08-31T06:12:00Z</time>
      </trkpt>
      <trkpt lat="34.06603" lon="77.17345">
        <ele>4122.6</ele>
        <time>2015-08-31T06:12:03Z</time>
      </trkpt>
      <trkpt lat="34.06604" lon="77.17339">
        <ele>4122</ele>
        <time>2015-08-31T06:12:07Z</time>
      </trkpt>
      <trkpt lat="34.06604" lon="77.17338">
        <ele>4121.8</ele>
        <time>2015-08-31T06:12:08Z</time>
      </trkpt>
      <trkpt lat="34.06603" lon="77.17336">
        <ele>4121.4</ele>
        <time>2015-08-31T06:12:10Z</time>
      </trkpt>
      <trkpt lat="34.06604" lon="77.17332">
        <ele>4120.8</ele>
        <time>2015-08-31T06:12:14Z</time>
      </trkpt>
      <trkpt lat="34.06604" lon="77.17331">
        <ele>4120.6</ele>
        <time>2015-08-31T06:12:15Z</time>
      </trkpt>
      <trkpt lat="34.06606" lon="77.17327">
        <ele>4119.6</ele>
        <time>2015-08-31T06:12:19Z</time>
      </trkpt>
      <trkpt lat="34.06606" lon="77.17327">
        <ele>4119.6</ele>
        <time>2015-08-31T06:12:20Z</time>
      </trkpt>
      <trkpt lat="34.06609" lon="77.17321">
        <ele>4118.6</ele>
        <time>2015-08-31T06:12:27Z</time>
      </trkpt>
      <trkpt lat="34.0661" lon="77.17321">
        <ele>4118.2</ele>
        <time>2015-08-31T06:12:28Z</time>
      </trkpt>
      <trkpt lat="34.06613" lon="77.1732">
        <ele>4117.6</ele>
        <time>2015-08-31T06:12:33Z</time>
      </trkpt>
      <trkpt lat="34.06618" lon="77.17321">
        <ele>4116.6</ele>
        <time>2015-08-31T06:12:38Z</time>
      </trkpt>
      <trkpt lat="34.06622" lon="77.17321">
        <ele>4116.4</ele>
        <time>2015-08-31T06:12:41Z</time>
      </trkpt>
      <trkpt lat="34.06626" lon="77.17321">
        <ele>4115.4</ele>
        <time>2015-08-31T06:12:47Z</time>
      </trkpt>
      <trkpt lat="34.06626" lon="77.17321">
        <ele>4115.2</ele>
        <time>2015-08-31T06:12:48Z</time>
      </trkpt>
      <trkpt lat="34.06628" lon="77.17312">
        <ele>4114</ele>
        <time>2015-08-31T06:12:53Z</time>
      </trkpt>
      <trkpt lat="34.06626" lon="77.17307">
        <ele>4113</ele>
        <time>2015-08-31T06:12:56Z</time>
      </trkpt>
      <trkpt lat="34.06625" lon="77.17304">
        <ele>4112.6</ele>
        <time>2015-08-31T06:12:58Z</time>
      </trkpt>
      <trkpt lat="34.06624" lon="77.17301">
        <ele>4112</ele>
        <time>2015-08-31T06:13:00Z</time>
      </trkpt>
      <trkpt lat="34.06624" lon="77.173">
        <ele>4111.8</ele>
        <time>2015-08-31T06:13:01Z</time>
      </trkpt>
      <trkpt lat="34.06622" lon="77.17298">
        <ele>4111.4</ele>
        <time>2015-08-31T06:13:03Z</time>
      </trkpt>
      <trkpt lat="34.06625" lon="77.17295">
        <ele>4110.8</ele>
        <time>2015-08-31T06:13:05Z</time>
      </trkpt>
      <trkpt lat="34.06627" lon="77.17294">
        <ele>4109.6</ele>
        <time>2015-08-31T06:13:09Z</time>
      </trkpt>
      <trkpt lat="34.06627" lon="77.17291">
        <ele>4108.6</ele>
        <time>2015-08-31T06:13:14Z</time>
      </trkpt>
      <trkpt lat="34.06627" lon="77.17288">
        <ele>4107.4</ele>
        <time>2015-08-31T06:13:19Z</time>
      </trkpt>
      <trkpt lat="34.06628" lon="77.17277">
        <ele>4106.6</ele>
        <time>2015-08-31T06:13:27Z</time>
      </trkpt>
      <trkpt lat="34.06627" lon="77.17277">
        <ele>4106.4</ele>
        <time>2015-08-31T06:13:28Z</time>
      </trkpt>
      <trkpt lat="34.06627" lon="77.17276">
        <ele>4106.2</ele>
        <time>2015-08-31T06:13:29Z</time>
      </trkpt>
      <trkpt lat="34.06625" lon="77.17274">
        <ele>4105.4</ele>
        <time>2015-08-31T06:13:32Z</time>
      </trkpt>
      <trkpt lat="34.06623" lon="77.17272">
        <ele>4104.2</ele>
        <time>2015-08-31T06:13:36Z</time>
      </trkpt>
      <trkpt lat="34.0662" lon="77.17269">
        <ele>4102.8</ele>
        <time>2015-08-31T06:13:42Z</time>
      </trkpt>
      <trkpt lat="34.06616" lon="77.17271">
        <ele>4101.8</ele>
        <time>2015-08-31T06:13:45Z</time>
      </trkpt>
      <trkpt lat="34.06614" lon="77.17267">
        <ele>4100.6</ele>
        <time>2015-08-31T06:13:50Z</time>
      </trkpt>
      <trkpt lat="34.06618" lon="77.17265">
        <ele>4099.4</ele>
        <time>2015-08-31T06:13:54Z</time>
      </trkpt>
      <trkpt lat="34.0662" lon="77.17265">
        <ele>4099.2</ele>
        <time>2015-08-31T06:13:57Z</time>
      </trkpt>
      <trkpt lat="34.06621" lon="77.17258">
        <ele>4098.4</ele>
        <time>2015-08-31T06:14:01Z</time>
      </trkpt>
      <trkpt lat="34.06621" lon="77.17257">
        <ele>4097.2</ele>
        <time>2015-08-31T06:14:04Z</time>
      </trkpt>
      <trkpt lat="34.06619" lon="77.17255">
        <ele>4096</ele>
        <time>2015-08-31T06:14:07Z</time>
      </trkpt>
      <trkpt lat="34.06614" lon="77.17251">
        <ele>4095</ele>
        <time>2015-08-31T06:14:14Z</time>
      </trkpt>
      <trkpt lat="34.06613" lon="77.1725">
        <ele>4095</ele>
        <time>2015-08-31T06:14:16Z</time>
      </trkpt>
      <trkpt lat="34.06613" lon="77.17247">
        <ele>4093.8</ele>
        <time>2015-08-31T06:14:20Z</time>
      </trkpt>
      <trkpt lat="34.0661" lon="77.17245">
        <ele>4092.6</ele>
        <time>2015-08-31T06:14:23Z</time>
      </trkpt>
      <trkpt lat="34.06609" lon="77.17245">
        <ele>4092.2</ele>
        <time>2015-08-31T06:14:24Z</time>
      </trkpt>
      <trkpt lat="34.06608" lon="77.17242">
        <ele>4091.6</ele>
        <time>2015-08-31T06:14:27Z</time>
      </trkpt>
      <trkpt lat="34.06607" lon="77.17242">
        <ele>4091.6</ele>
        <time>2015-08-31T06:14:28Z</time>
      </trkpt>
      <trkpt lat="34.06605" lon="77.17241">
        <ele>4090.4</ele>
        <time>2015-08-31T06:14:32Z</time>
      </trkpt>
      <trkpt lat="34.06603" lon="77.17243">
        <ele>4089.2</ele>
        <time>2015-08-31T06:14:37Z</time>
      </trkpt>
      <trkpt lat="34.06598" lon="77.17244">
        <ele>4088.2</ele>
        <time>2015-08-31T06:14:43Z</time>
      </trkpt>
      <trkpt lat="34.06593" lon="77.17242">
        <ele>4087</ele>
        <time>2015-08-31T06:14:48Z</time>
      </trkpt>
      <trkpt lat="34.06591" lon="77.17236">
        <ele>4086.2</ele>
        <time>2015-08-31T06:14:53Z</time>
      </trkpt>
      <trkpt lat="34.06591" lon="77.17234">
        <ele>4086</ele>
        <time>2015-08-31T06:14:54Z</time>
      </trkpt>
      <trkpt lat="34.0659" lon="77.17229">
        <ele>4084.8</ele>
        <time>2015-08-31T06:14:59Z</time>
      </trkpt>
      <trkpt lat="34.06591" lon="77.17224">
        <ele>4083.8</ele>
        <time>2015-08-31T06:15:04Z</time>
      </trkpt>
      <trkpt lat="34.06596" lon="77.17218">
        <ele>4082.8</ele>
        <time>2015-08-31T06:15:10Z</time>
      </trkpt>
      <trkpt lat="34.06597" lon="77.17214">
        <ele>4081.8</ele>
        <time>2015-08-31T06:15:14Z</time>
      </trkpt>
      <trkpt lat="34.06596" lon="77.17214">
        <ele>4081.6</ele>
        <time>2015-08-31T06:15:15Z</time>
      </trkpt>
      <trkpt lat="34.06597" lon="77.17214">
        <ele>4080.6</ele>
        <time>2015-08-31T06:15:18Z</time>
      </trkpt>
      <trkpt lat="34.06594" lon="77.17211">
        <ele>4079.4</ele>
        <time>2015-08-31T06:15:23Z</time>
      </trkpt>
      <trkpt lat="34.0659" lon="77.17208">
        <ele>4078.2</ele>
        <time>2015-08-31T06:15:29Z</time>
      </trkpt>
      <trkpt lat="34.06589" lon="77.17208">
        <ele>4078</ele>
        <time>2015-08-31T06:15:30Z</time>
      </trkpt>
      <trkpt lat="34.06584" lon="77.17209">
        <ele>4077</ele>
        <time>2015-08-31T06:15:34Z</time>
      </trkpt>
      <trkpt lat="34.06582" lon="77.17203">
        <ele>4075.8</ele>
        <time>2015-08-31T06:15:40Z</time>
      </trkpt>
      <trkpt lat="34.06581" lon="77.17199">
        <ele>4075.4</ele>
        <time>2015-08-31T06:15:44Z</time>
      </trkpt>
      <trkpt lat="34.06579" lon="77.17198">
        <ele>4074.6</ele>
        <time>2015-08-31T06:15:47Z</time>
      </trkpt>
      <trkpt lat="34.06579" lon="77.17197">
        <ele>4074.4</ele>
        <time>2015-08-31T06:15:48Z</time>
      </trkpt>
      <trkpt lat="34.06577" lon="77.17198">
        <ele>4073.6</ele>
        <time>2015-08-31T06:15:52Z</time>
      </trkpt>
      <trkpt lat="34.06576" lon="77.17199">
        <ele>4072.6</ele>
        <time>2015-08-31T06:15:56Z</time>
      </trkpt>
      <trkpt lat="34.06573" lon="77.172">
        <ele>4071.4</ele>
        <time>2015-08-31T06:16:01Z</time>
      </trkpt>
      <trkpt lat="34.0657" lon="77.172">
        <ele>4071</ele>
        <time>2015-08-31T06:16:03Z</time>
      </trkpt>
      <trkpt lat="34.06569" lon="77.17197">
        <ele>4070.2</ele>
        <time>2015-08-31T06:16:06Z</time>
      </trkpt>
      <trkpt lat="34.06567" lon="77.17194">
        <ele>4069.2</ele>
        <time>2015-08-31T06:16:11Z</time>
      </trkpt>
      <trkpt lat="34.06563" lon="77.17187">
        <ele>4068.2</ele>
        <time>2015-08-31T06:16:16Z</time>
      </trkpt>
      <trkpt lat="34.06563" lon="77.17184">
        <ele>4067.6</ele>
        <time>2015-08-31T06:16:19Z</time>
      </trkpt>
      <trkpt lat="34.06563" lon="77.17184">
        <ele>4067.2</ele>
        <time>2015-08-31T06:16:21Z</time>
      </trkpt>
      <trkpt lat="34.06563" lon="77.17184">
        <ele>4067</ele>
        <time>2015-08-31T06:16:22Z</time>
      </trkpt>
      <trkpt lat="34.06562" lon="77.17188">
        <ele>4066</ele>
        <time>2015-08-31T06:16:27Z</time>
      </trkpt>
      <trkpt lat="34.06559" lon="77.1719">
        <ele>4064.6</ele>
        <time>2015-08-31T06:16:32Z</time>
      </trkpt>
      <trkpt lat="34.06556" lon="77.17191">
        <ele>4063.6</ele>
        <time>2015-08-31T06:16:36Z</time>
      </trkpt>
      <trkpt lat="34.06551" lon="77.17191">
        <ele>4062.4</ele>
        <time>2015-08-31T06:16:42Z</time>
      </trkpt>
      <trkpt lat="34.06545" lon="77.17194">
        <ele>4061.4</ele>
        <time>2015-08-31T06:16:48Z</time>
      </trkpt>
      <trkpt lat="34.06545" lon="77.17194">
        <ele>4061.4</ele>
        <time>2015-08-31T06:16:49Z</time>
      </trkpt>
      <trkpt lat="34.06545" lon="77.17191">
        <ele>4060.2</ele>
        <time>2015-08-31T06:16:54Z</time>
      </trkpt>
      <trkpt lat="34.06543" lon="77.17188">
        <ele>4059.2</ele>
        <time>2015-08-31T06:16:59Z</time>
      </trkpt>
      <trkpt lat="34.0654" lon="77.17184">
        <ele>4057.8</ele>
        <time>2015-08-31T06:17:04Z</time>
      </trkpt>
      <trkpt lat="34.06538" lon="77.17179">
        <ele>4056.6</ele>
        <time>2015-08-31T06:17:09Z</time>
      </trkpt>
      <trkpt lat="34.06536" lon="77.17173">
        <ele>4055.4</ele>
        <time>2015-08-31T06:17:15Z</time>
      </trkpt>
      <trkpt lat="34.06535" lon="77.17171">
        <ele>4054.2</ele>
        <time>2015-08-31T06:17:20Z</time>
      </trkpt>
      <trkpt lat="34.06534" lon="77.17169">
        <ele>4053.2</ele>
        <time>2015-08-31T06:17:24Z</time>
      </trkpt>
      <trkpt lat="34.0653" lon="77.17167">
        <ele>4052</ele>
        <time>2015-08-31T06:17:32Z</time>
      </trkpt>
      <trkpt lat="34.06527" lon="77.17165">
        <ele>4051</ele>
        <time>2015-08-31T06:17:36Z</time>
      </trkpt>
      <trkpt lat="34.06526" lon="77.17163">
        <ele>4049.8</ele>
        <time>2015-08-31T06:17:39Z</time>
      </trkpt>
      <trkpt lat="34.06527" lon="77.17162">
        <ele>4049.4</ele>
        <time>2015-08-31T06:17:41Z</time>
      </trkpt>
      <trkpt lat="34.06526" lon="77.17162">
        <ele>4048.6</ele>
        <time>2015-08-31T06:17:45Z</time>
      </trkpt>
      <trkpt lat="34.06522" lon="77.1716">
        <ele>4047.6</ele>
        <time>2015-08-31T06:17:50Z</time>
      </trkpt>
      <trkpt lat="34.06519" lon="77.1716">
        <ele>4047.2</ele>
        <time>2015-08-31T06:17:52Z</time>
      </trkpt>
      <trkpt lat="34.06517" lon="77.17158">
        <ele>4046.6</ele>
        <time>2015-08-31T06:17:55Z</time>
      </trkpt>
      <trkpt lat="34.06516" lon="77.17157">
        <ele>4046.4</ele>
        <time>2015-08-31T06:17:57Z</time>
      </trkpt>
      <trkpt lat="34.06512" lon="77.17153">
        <ele>4045.6</ele>
        <time>2015-08-31T06:18:01Z</time>
      </trkpt>
      <trkpt lat="34.06511" lon="77.17153">
        <ele>4045.4</ele>
        <time>2015-08-31T06:18:02Z</time>
      </trkpt>
      <trkpt lat="34.06507" lon="77.17153">
        <ele>4044.2</ele>
        <time>2015-08-31T06:18:06Z</time>
      </trkpt>
      <trkpt lat="34.06507" lon="77.17152">
        <ele>4044</ele>
        <time>2015-08-31T06:18:07Z</time>
      </trkpt>
      <trkpt lat="34.06502" lon="77.1715">
        <ele>4043.2</ele>
        <time>2015-08-31T06:18:11Z</time>
      </trkpt>
      <trkpt lat="34.065" lon="77.1715">
        <ele>4042.8</ele>
        <time>2015-08-31T06:18:13Z</time>
      </trkpt>
      <trkpt lat="34.06497" lon="77.17151">
        <ele>4042.2</ele>
        <time>2015-08-31T06:18:16Z</time>
      </trkpt>
      <trkpt lat="34.06493" lon="77.17154">
        <ele>4041</ele>
        <time>2015-08-31T06:18:19Z</time>
      </trkpt>
      <trkpt lat="34.06489" lon="77.17155">
        <ele>4040</ele>
        <time>2015-08-31T06:18:22Z</time>
      </trkpt>
      <trkpt lat="34.06488" lon="77.17155">
        <ele>4039.6</ele>
        <time>2015-08-31T06:18:23Z</time>
      </trkpt>
      <trkpt lat="34.06487" lon="77.17154">
        <ele>4039.4</ele>
        <time>2015-08-31T06:18:25Z</time>
      </trkpt>
      <trkpt lat="34.06486" lon="77.1715">
        <ele>4038.8</ele>
        <time>2015-08-31T06:18:30Z</time>
      </trkpt>
      <trkpt lat="34.06483" lon="77.17147">
        <ele>4037.8</ele>
        <time>2015-08-31T06:18:33Z</time>
      </trkpt>
      <trkpt lat="34.06481" lon="77.17145">
        <ele>4036.8</ele>
        <time>2015-08-31T06:18:36Z</time>
      </trkpt>
      <trkpt lat="34.06481" lon="77.17144">
        <ele>4036.6</ele>
        <time>2015-08-31T06:18:37Z</time>
      </trkpt>
      <trkpt lat="34.06478" lon="77.17143">
        <ele>4035.6</ele>
        <time>2015-08-31T06:18:40Z</time>
      </trkpt>
      <trkpt lat="34.06475" lon="77.17142">
        <ele>4034.4</ele>
        <time>2015-08-31T06:18:44Z</time>
      </trkpt>
      <trkpt lat="34.06471" lon="77.17141">
        <ele>4033.4</ele>
        <time>2015-08-31T06:18:48Z</time>
      </trkpt>
      <trkpt lat="34.06466" lon="77.17137">
        <ele>4032.4</ele>
        <time>2015-08-31T06:18:57Z</time>
      </trkpt>
      <trkpt lat="34.06463" lon="77.17134">
        <ele>4031.2</ele>
        <time>2015-08-31T06:19:01Z</time>
      </trkpt>
      <trkpt lat="34.06459" lon="77.17135">
        <ele>4030.2</ele>
        <time>2015-08-31T06:19:06Z</time>
      </trkpt>
      <trkpt lat="34.06456" lon="77.17134">
        <ele>4029</ele>
        <time>2015-08-31T06:19:10Z</time>
      </trkpt>
      <trkpt lat="34.06451" lon="77.17138">
        <ele>4028</ele>
        <time>2015-08-31T06:19:16Z</time>
      </trkpt>
      <trkpt lat="34.06449" lon="77.17141">
        <ele>4027</ele>
        <time>2015-08-31T06:19:20Z</time>
      </trkpt>
      <trkpt lat="34.06448" lon="77.17147">
        <ele>4025.8</ele>
        <time>2015-08-31T06:19:25Z</time>
      </trkpt>
      <trkpt lat="34.06446" lon="77.17154">
        <ele>4024.8</ele>
        <time>2015-08-31T06:19:31Z</time>
      </trkpt>
      <trkpt lat="34.06445" lon="77.17155">
        <ele>4024.4</ele>
        <time>2015-08-31T06:19:32Z</time>
      </trkpt>
      <trkpt lat="34.06443" lon="77.17156">
        <ele>4023.8</ele>
        <time>2015-08-31T06:19:34Z</time>
      </trkpt>
      <trkpt lat="34.06442" lon="77.17155">
        <ele>4023.4</ele>
        <time>2015-08-31T06:19:35Z</time>
      </trkpt>
      <trkpt lat="34.06441" lon="77.17154">
        <ele>4023</ele>
        <time>2015-08-31T06:19:37Z</time>
      </trkpt>
      <trkpt lat="34.06438" lon="77.17151">
        <ele>4022.4</ele>
        <time>2015-08-31T06:19:42Z</time>
      </trkpt>
      <trkpt lat="34.06433" lon="77.17146">
        <ele>4021.4</ele>
        <time>2015-08-31T06:19:48Z</time>
      </trkpt>
      <trkpt lat="34.06433" lon="77.17141">
        <ele>4020.2</ele>
        <time>2015-08-31T06:19:54Z</time>
      </trkpt>
      <trkpt lat="34.0643" lon="77.17141">
        <ele>4019</ele>
        <time>2015-08-31T06:19:59Z</time>
      </trkpt>
      <trkpt lat="34.06423" lon="77.17142">
        <ele>4017.8</ele>
        <time>2015-08-31T06:20:06Z</time>
      </trkpt>
      <trkpt lat="34.06417" lon="77.17142">
        <ele>4016.8</ele>
        <time>2015-08-31T06:20:12Z</time>
      </trkpt>
      <trkpt lat="34.06412" lon="77.17134">
        <ele>4015.8</ele>
        <time>2015-08-31T06:20:22Z</time>
      </trkpt>
      <trkpt lat="34.06411" lon="77.17134">
        <ele>4015.6</ele>
        <time>2015-08-31T06:20:23Z</time>
      </trkpt>
      <trkpt lat="34.06409" lon="77.17133">
        <ele>4014.4</ele>
        <time>2015-08-31T06:20:26Z</time>
      </trkpt>
      <trkpt lat="34.06407" lon="77.17133">
        <ele>4013.2</ele>
        <time>2015-08-31T06:20:29Z</time>
      </trkpt>
      <trkpt lat="34.06396" lon="77.17135">
        <ele>4012</ele>
        <time>2015-08-31T06:20:42Z</time>
      </trkpt>
      <trkpt lat="34.06385" lon="77.17129">
        <ele>4012.8</ele>
        <time>2015-08-31T06:20:56Z</time>
      </trkpt>
      <trkpt lat="34.06384" lon="77.17129">
        <ele>4013</ele>
        <time>2015-08-31T06:20:57Z</time>
      </trkpt>
      <trkpt lat="34.06381" lon="77.17127">
        <ele>4014.2</ele>
        <time>2015-08-31T06:21:04Z</time>
      </trkpt>
      <trkpt lat="34.06376" lon="77.17125">
        <ele>4014</ele>
        <time>2015-08-31T06:21:10Z</time>
      </trkpt>
      <trkpt lat="34.06376" lon="77.17114">
        <ele>4015.4</ele>
        <time>2015-08-31T06:21:48Z</time>
      </trkpt>
      <trkpt lat="34.06373" lon="77.17115">
        <ele>4014.2</ele>
        <time>2015-08-31T06:22:15Z</time>
      </trkpt>
      <trkpt lat="34.06372" lon="77.17114">
        <ele>4013.2</ele>
        <time>2015-08-31T06:23:19Z</time>
      </trkpt>
      <trkpt lat="34.06374" lon="77.17114">
        <ele>4012.2</ele>
        <time>2015-08-31T06:23:50Z</time>
      </trkpt>
      <trkpt lat="34.06373" lon="77.17118">
        <ele>4012</ele>
        <time>2015-08-31T06:24:16Z</time>
      </trkpt>
      <trkpt lat="34.06372" lon="77.17117">
        <ele>4012</ele>
        <time>2015-08-31T06:24:18Z</time>
      </trkpt>
      <trkpt lat="34.06375" lon="77.17118">
        <ele>4013.4</ele>
        <time>2015-08-31T06:24:56Z</time>
      </trkpt>
      <trkpt lat="34.06375" lon="77.17113">
        <ele>4012.4</ele>
        <time>2015-08-31T06:26:04Z</time>
      </trkpt>
      <trkpt lat="34.06375" lon="77.17114">
        <ele>4011.4</ele>
        <time>2015-08-31T06:26:20Z</time>
      </trkpt>
      <trkpt lat="34.06378" lon="77.17112">
        <ele>4011</ele>
        <time>2015-08-31T06:27:47Z</time>
      </trkpt>
      <trkpt lat="34.06374" lon="77.17116">
        <ele>4011</ele>
        <time>2015-08-31T06:29:14Z</time>
      </trkpt>
      <trkpt lat="34.06371" lon="77.17116">
        <ele>4010.8</ele>
        <time>2015-08-31T06:29:26Z</time>
      </trkpt>
      <trkpt lat="34.06371" lon="77.17115">
        <ele>4010.4</ele>
        <time>2015-08-31T06:29:30Z</time>
      </trkpt>
      <trkpt lat="34.06372" lon="77.17115">
        <ele>4010.4</ele>
        <time>2015-08-31T06:29:55Z</time>
      </trkpt>
      <trkpt lat="34.06376" lon="77.17116">
        <ele>4011.4</ele>
        <time>2015-08-31T06:30:04Z</time>
      </trkpt>
      <trkpt lat="34.06371" lon="77.17115">
        <ele>4011.2</ele>
        <time>2015-08-31T06:30:09Z</time>
      </trkpt>
      <trkpt lat="34.06378" lon="77.17115">
        <ele>4010.6</ele>
        <time>2015-08-31T06:30:24Z</time>
      </trkpt>
      <trkpt lat="34.06377" lon="77.17111">
        <ele>4012.4</ele>
        <time>2015-08-31T06:31:48Z</time>
      </trkpt>
      <trkpt lat="34.06378" lon="77.17113">
        <ele>4012.6</ele>
        <time>2015-08-31T06:33:24Z</time>
      </trkpt>
      <trkpt lat="34.06379" lon="77.17113">
        <ele>4012.2</ele>
        <time>2015-08-31T06:33:54Z</time>
      </trkpt>
      <trkpt lat="34.06377" lon="77.17113">
        <ele>4012.6</ele>
        <time>2015-08-31T06:35:16Z</time>
      </trkpt>
      <trkpt lat="34.06378" lon="77.17109">
        <ele>4011.4</ele>
        <time>2015-08-31T06:35:38Z</time>
      </trkpt>
      <trkpt lat="34.06381" lon="77.17113">
        <ele>4012.4</ele>
        <time>2015-08-31T06:36:08Z</time>
      </trkpt>
      <trkpt lat="34.06381" lon="77.17113">
        <ele>4012</ele>
        <time>2015-08-31T06:37:33Z</time>
      </trkpt>
      <trkpt lat="34.06378" lon="77.17116">
        <ele>4011.4</ele>
        <time>2015-08-31T06:38:18Z</time>
      </trkpt>
      <trkpt lat="34.06384" lon="77.17108">
        <ele>4010.8</ele>
        <time>2015-08-31T06:39:24Z</time>
      </trkpt>
      <trkpt lat="34.06384" lon="77.17106">
        <ele>4010.4</ele>
        <time>2015-08-31T06:39:43Z</time>
      </trkpt>
      <trkpt lat="34.06382" lon="77.17115">
        <ele>4009.6</ele>
        <time>2015-08-31T06:40:47Z</time>
      </trkpt>
      <trkpt lat="34.06379" lon="77.17114">
        <ele>4009.8</ele>
        <time>2015-08-31T06:42:02Z</time>
      </trkpt>
      <trkpt lat="34.06378" lon="77.17115">
        <ele>4009.2</ele>
        <time>2015-08-31T06:42:06Z</time>
      </trkpt>
      <trkpt lat="34.06378" lon="77.17117">
        <ele>4010.4</ele>
        <time>2015-08-31T06:43:07Z</time>
      </trkpt>
      <trkpt lat="34.0638" lon="77.17117">
        <ele>4011.4</ele>
        <time>2015-08-31T06:43:27Z</time>
      </trkpt>
      <trkpt lat="34.0638" lon="77.17113">
        <ele>4010.4</ele>
        <time>2015-08-31T06:44:19Z</time>
      </trkpt>
      <trkpt lat="34.06378" lon="77.1711">
        <ele>4010.4</ele>
        <time>2015-08-31T06:44:29Z</time>
      </trkpt>
      <trkpt lat="34.06379" lon="77.17119">
        <ele>4010</ele>
        <time>2015-08-31T06:45:38Z</time>
      </trkpt>
      <trkpt lat="34.06377" lon="77.17114">
        <ele>4010.6</ele>
        <time>2015-08-31T06:46:22Z</time>
      </trkpt>
      <trkpt lat="34.0638" lon="77.17112">
        <ele>4009.2</ele>
        <time>2015-08-31T06:46:31Z</time>
      </trkpt>
      <trkpt lat="34.0638" lon="77.17112">
        <ele>4009.2</ele>
        <time>2015-08-31T06:46:32Z</time>
      </trkpt>
      <trkpt lat="34.06379" lon="77.17114">
        <ele>4009.2</ele>
        <time>2015-08-31T06:46:45Z</time>
      </trkpt>
      <trkpt lat="34.06381" lon="77.17111">
        <ele>4008.2</ele>
        <time>2015-08-31T06:47:41Z</time>
      </trkpt>
      <trkpt lat="34.06377" lon="77.17115">
        <ele>4008.6</ele>
        <time>2015-08-31T06:48:05Z</time>
      </trkpt>
      <trkpt lat="34.06378" lon="77.17113">
        <ele>4008.8</ele>
        <time>2015-08-31T06:49:08Z</time>
      </trkpt>
      <trkpt lat="34.06377" lon="77.17114">
        <ele>4008.6</ele>
        <time>2015-08-31T06:50:57Z</time>
      </trkpt>
      <trkpt lat="34.06377" lon="77.17115">
        <ele>4007.8</ele>
        <time>2015-08-31T06:52:04Z</time>
      </trkpt>
      <trkpt lat="34.06378" lon="77.17114">
        <ele>4009.2</ele>
        <time>2015-08-31T06:52:58Z</time>
      </trkpt>
      <trkpt lat="34.06377" lon="77.17114">
        <ele>4009.2</ele>
        <time>2015-08-31T06:53:08Z</time>
      </trkpt>
      <trkpt lat="34.06377" lon="77.17114">
        <ele>4009</ele>
        <time>2015-08-31T06:53:47Z</time>
      </trkpt>
      <trkpt lat="34.06377" lon="77.17114">
        <ele>4009.6</ele>
        <time>2015-08-31T06:54:49Z</time>
      </trkpt>
      <trkpt lat="34.06377" lon="77.17115">
        <ele>4010.4</ele>
        <time>2015-08-31T06:56:16Z</time>
      </trkpt>
      <trkpt lat="34.06377" lon="77.17115">
        <ele>4010.4</ele>
        <time>2015-08-31T06:56:20Z</time>
      </trkpt>
      <trkpt lat="34.06377" lon="77.17114">
        <ele>4009.2</ele>
        <time>2015-08-31T06:57:15Z</time>
      </trkpt>
      <trkpt lat="34.06377" lon="77.17114">
        <ele>4009.4</ele>
        <time>2015-08-31T06:58:57Z</time>
      </trkpt>
      <trkpt lat="34.06377" lon="77.17113">
        <ele>4009.6</ele>
        <time>2015-08-31T07:00:30Z</time>
      </trkpt>
      <trkpt lat="34.06377" lon="77.17113">
        <ele>4010.4</ele>
        <time>2015-08-31T07:02:37Z</time>
      </trkpt>
      <trkpt lat="34.06377" lon="77.17113">
        <ele>4009.2</ele>
        <time>2015-08-31T07:04:40Z</time>
      </trkpt>
      <trkpt lat="34.06377" lon="77.17115">
        <ele>4008.2</ele>
        <time>2015-08-31T07:10:12Z</time>
      </trkpt>
      <trkpt lat="34.06376" lon="77.17115">
        <ele>4009.2</ele>
        <time>2015-08-31T07:11:23Z</time>
      </trkpt>
      <trkpt lat="34.06375" lon="77.17115">
        <ele>4010.2</ele>
        <time>2015-08-31T07:12:15Z</time>
      </trkpt>
      <trkpt lat="34.06373" lon="77.17117">
        <ele>4009.2</ele>
        <time>2015-08-31T07:13:10Z</time>
      </trkpt>
      <trkpt lat="34.06373" lon="77.17117">
        <ele>4009</ele>
        <time>2015-08-31T07:13:13Z</time>
      </trkpt>
      <trkpt lat="34.06375" lon="77.17115">
        <ele>4009.4</ele>
        <time>2015-08-31T07:13:42Z</time>
      </trkpt>
      <trkpt lat="34.06375" lon="77.17115">
        <ele>4010.2</ele>
        <time>2015-08-31T07:13:59Z</time>
      </trkpt>
      <trkpt lat="34.06374" lon="77.17116">
        <ele>4009.2</ele>
        <time>2015-08-31T07:14:38Z</time>
      </trkpt>
      <trkpt lat="34.06373" lon="77.17116">
        <ele>4009.4</ele>
        <time>2015-08-31T07:15:05Z</time>
      </trkpt>
      <trkpt lat="34.06374" lon="77.17114">
        <ele>4010.4</ele>
        <time>2015-08-31T07:15:48Z</time>
      </trkpt>
      <trkpt lat="34.06365" lon="77.17105">
        <ele>4011.2</ele>
        <time>2015-08-31T07:16:04Z</time>
      </trkpt>
      <trkpt lat="34.06365" lon="77.17104">
        <ele>4011.4</ele>
        <time>2015-08-31T07:16:05Z</time>
      </trkpt>
      <trkpt lat="34.06365" lon="77.17104">
        <ele>4011.6</ele>
        <time>2015-08-31T07:16:06Z</time>
      </trkpt>
      <trkpt lat="34.06365" lon="77.17102">
        <ele>4012.8</ele>
        <time>2015-08-31T07:16:08Z</time>
      </trkpt>
      <trkpt lat="34.06366" lon="77.17101">
        <ele>4014.4</ele>
        <time>2015-08-31T07:16:10Z</time>
      </trkpt>
      <trkpt lat="34.06367" lon="77.17098">
        <ele>4015.6</ele>
        <time>2015-08-31T07:16:16Z</time>
      </trkpt>
      <trkpt lat="34.06366" lon="77.17097">
        <ele>4017</ele>
        <time>2015-08-31T07:16:20Z</time>
      </trkpt>
      <trkpt lat="34.06366" lon="77.17097">
        <ele>4018.2</ele>
        <time>2015-08-31T07:16:23Z</time>
      </trkpt>
      <trkpt lat="34.06362" lon="77.17094">
        <ele>4016.8</ele>
        <time>2015-08-31T07:16:34Z</time>
      </trkpt>
      <trkpt lat="34.06362" lon="77.17093">
        <ele>4016.4</ele>
        <time>2015-08-31T07:16:37Z</time>
      </trkpt>
      <trkpt lat="34.06362" lon="77.17091">
        <ele>4015.8</ele>
        <time>2015-08-31T07:16:45Z</time>
      </trkpt>
      <trkpt lat="34.06359" lon="77.17085">
        <ele>4016.8</ele>
        <time>2015-08-31T07:17:06Z</time>
      </trkpt>
      <trkpt lat="34.0636" lon="77.17084">
        <ele>4017</ele>
        <time>2015-08-31T07:17:07Z</time>
      </trkpt>
      <trkpt lat="34.0637" lon="77.1709">
        <ele>4017</ele>
        <time>2015-08-31T07:17:10Z</time>
      </trkpt>
      <trkpt lat="34.06371" lon="77.1709">
        <ele>4016.8</ele>
        <time>2015-08-31T07:17:11Z</time>
      </trkpt>
      <trkpt lat="34.06372" lon="77.17091">
        <ele>4016.6</ele>
        <time>2015-08-31T07:17:13Z</time>
      </trkpt>
      <trkpt lat="34.06373" lon="77.17091">
        <ele>4015.8</ele>
        <time>2015-08-31T07:17:15Z</time>
      </trkpt>
      <trkpt lat="34.06367" lon="77.17099">
        <ele>4015.2</ele>
        <time>2015-08-31T07:17:35Z</time>
      </trkpt>
      <trkpt lat="34.06367" lon="77.17102">
        <ele>4014.6</ele>
        <time>2015-08-31T07:17:37Z</time>
      </trkpt>
      <trkpt lat="34.06368" lon="77.17109">
        <ele>4013.6</ele>
        <time>2015-08-31T07:17:41Z</time>
      </trkpt>
      <trkpt lat="34.06371" lon="77.17111">
        <ele>4012.6</ele>
        <time>2015-08-31T07:17:44Z</time>
      </trkpt>
      <trkpt lat="34.06372" lon="77.17111">
        <ele>4012.2</ele>
        <time>2015-08-31T07:17:45Z</time>
      </trkpt>
      <trkpt lat="34.06374" lon="77.17111">
        <ele>4011.8</ele>
        <time>2015-08-31T07:17:46Z</time>
      </trkpt>
      <trkpt lat="34.06377" lon="77.17111">
        <ele>4011</ele>
        <time>2015-08-31T07:17:47Z</time>
      </trkpt>
      <trkpt lat="34.06377" lon="77.17113">
        <ele>4010</ele>
        <time>2015-08-31T07:17:49Z</time>
      </trkpt>
      <trkpt lat="34.06377" lon="77.17112">
        <ele>4009</ele>
        <time>2015-08-31T07:17:56Z</time>
      </trkpt>
      <trkpt lat="34.06378" lon="77.17119">
        <ele>4010.2</ele>
        <time>2015-08-31T07:18:13Z</time>
      </trkpt>
      <trkpt lat="34.06377" lon="77.17124">
        <ele>4008.8</ele>
        <time>2015-08-31T07:18:19Z</time>
      </trkpt>
      <trkpt lat="34.06374" lon="77.17133">
        <ele>4008.6</ele>
        <time>2015-08-31T07:18:31Z</time>
      </trkpt>
      <trkpt lat="34.06374" lon="77.17134">
        <ele>4008.8</ele>
        <time>2015-08-31T07:18:33Z</time>
      </trkpt>
      <trkpt lat="34.06378" lon="77.17138">
        <ele>4008</ele>
        <time>2015-08-31T07:18:37Z</time>
      </trkpt>
      <trkpt lat="34.06379" lon="77.17139">
        <ele>4007.8</ele>
        <time>2015-08-31T07:18:38Z</time>
      </trkpt>
      <trkpt lat="34.0638" lon="77.17143">
        <ele>4006.6</ele>
        <time>2015-08-31T07:18:42Z</time>
      </trkpt>
      <trkpt lat="34.0638" lon="77.17145">
        <ele>4006.2</ele>
        <time>2015-08-31T07:18:43Z</time>
      </trkpt>
      <trkpt lat="34.06378" lon="77.17146">
        <ele>4005.4</ele>
        <time>2015-08-31T07:18:45Z</time>
      </trkpt>
      <trkpt lat="34.06378" lon="77.17146">
        <ele>4004.6</ele>
        <time>2015-08-31T07:18:46Z</time>
      </trkpt>
      <trkpt lat="34.06377" lon="77.17147">
        <ele>4004.2</ele>
        <time>2015-08-31T07:18:47Z</time>
      </trkpt>
      <trkpt lat="34.06377" lon="77.17151">
        <ele>4003.6</ele>
        <time>2015-08-31T07:18:50Z</time>
      </trkpt>
      <trkpt lat="34.06377" lon="77.17154">
        <ele>4003.4</ele>
        <time>2015-08-31T07:18:53Z</time>
      </trkpt>
      <trkpt lat="34.06376" lon="77.17154">
        <ele>4003.2</ele>
        <time>2015-08-31T07:18:54Z</time>
      </trkpt>
      <trkpt lat="34.06375" lon="77.17155">
        <ele>4002.4</ele>
        <time>2015-08-31T07:18:56Z</time>
      </trkpt>
      <trkpt lat="34.06374" lon="77.17156">
        <ele>4002</ele>
        <time>2015-08-31T07:18:57Z</time>
      </trkpt>
      <trkpt lat="34.06371" lon="77.17157">
        <ele>4001</ele>
        <time>2015-08-31T07:19:01Z</time>
      </trkpt>
      <trkpt lat="34.0637" lon="77.17158">
        <ele>3999.8</ele>
        <time>2015-08-31T07:19:03Z</time>
      </trkpt>
      <trkpt lat="34.06369" lon="77.17162">
        <ele>4001</ele>
        <time>2015-08-31T07:19:07Z</time>
      </trkpt>
      <trkpt lat="34.06367" lon="77.17165">
        <ele>4002.4</ele>
        <time>2015-08-31T07:19:09Z</time>
      </trkpt>
      <trkpt lat="34.06362" lon="77.1717">
        <ele>4001.4</ele>
        <time>2015-08-31T07:19:14Z</time>
      </trkpt>
      <trkpt lat="34.0636" lon="77.17171">
        <ele>4000</ele>
        <time>2015-08-31T07:19:16Z</time>
      </trkpt>
      <trkpt lat="34.06357" lon="77.17174">
        <ele>3998.8</ele>
        <time>2015-08-31T07:19:20Z</time>
      </trkpt>
      <trkpt lat="34.06353" lon="77.17175">
        <ele>3997.8</ele>
        <time>2015-08-31T07:19:24Z</time>
      </trkpt>
      <trkpt lat="34.06353" lon="77.17173">
        <ele>3996.6</ele>
        <time>2015-08-31T07:19:26Z</time>
      </trkpt>
      <trkpt lat="34.06347" lon="77.17177">
        <ele>3995.6</ele>
        <time>2015-08-31T07:19:33Z</time>
      </trkpt>
      <trkpt lat="34.06344" lon="77.17181">
        <ele>3995.4</ele>
        <time>2015-08-31T07:19:38Z</time>
      </trkpt>
      <trkpt lat="34.06336" lon="77.17191">
        <ele>3995.4</ele>
        <time>2015-08-31T07:19:47Z</time>
      </trkpt>
      <trkpt lat="34.06332" lon="77.17194">
        <ele>3995</ele>
        <time>2015-08-31T07:19:51Z</time>
      </trkpt>
      <trkpt lat="34.06327" lon="77.17197">
        <ele>3994.6</ele>
        <time>2015-08-31T07:19:57Z</time>
      </trkpt>
      <trkpt lat="34.06324" lon="77.172">
        <ele>3994</ele>
        <time>2015-08-31T07:20:01Z</time>
      </trkpt>
      <trkpt lat="34.06321" lon="77.17202">
        <ele>3993.4</ele>
        <time>2015-08-31T07:20:06Z</time>
      </trkpt>
      <trkpt lat="34.06315" lon="77.17202">
        <ele>3992.2</ele>
        <time>2015-08-31T07:20:18Z</time>
      </trkpt>
      <trkpt lat="34.06302" lon="77.17209">
        <ele>3991.6</ele>
        <time>2015-08-31T07:20:28Z</time>
      </trkpt>
      <trkpt lat="34.06296" lon="77.17208">
        <ele>3991.2</ele>
        <time>2015-08-31T07:20:36Z</time>
      </trkpt>
      <trkpt lat="34.06295" lon="77.17207">
        <ele>3991</ele>
        <time>2015-08-31T07:20:37Z</time>
      </trkpt>
      <trkpt lat="34.06293" lon="77.17207">
        <ele>3990.4</ele>
        <time>2015-08-31T07:20:38Z</time>
      </trkpt>
      <trkpt lat="34.06292" lon="77.17208">
        <ele>3989.8</ele>
        <time>2015-08-31T07:20:39Z</time>
      </trkpt>
      <trkpt lat="34.06288" lon="77.17208">
        <ele>3989.6</ele>
        <time>2015-08-31T07:20:45Z</time>
      </trkpt>
      <trkpt lat="34.06283" lon="77.17217">
        <ele>3989.4</ele>
        <time>2015-08-31T07:21:01Z</time>
      </trkpt>
      <trkpt lat="34.06282" lon="77.17221">
        <ele>3988.8</ele>
        <time>2015-08-31T07:21:04Z</time>
      </trkpt>
      <trkpt lat="34.06281" lon="77.17227">
        <ele>3987.4</ele>
        <time>2015-08-31T07:21:12Z</time>
      </trkpt>
      <trkpt lat="34.06278" lon="77.17229">
        <ele>3986.2</ele>
        <time>2015-08-31T07:21:18Z</time>
      </trkpt>
      <trkpt lat="34.06276" lon="77.17231">
        <ele>3985.6</ele>
        <time>2015-08-31T07:21:21Z</time>
      </trkpt>
      <trkpt lat="34.06273" lon="77.17235">
        <ele>3985.2</ele>
        <time>2015-08-31T07:21:24Z</time>
      </trkpt>
      <trkpt lat="34.06267" lon="77.17244">
        <ele>3984</ele>
        <time>2015-08-31T07:21:31Z</time>
      </trkpt>
      <trkpt lat="34.06265" lon="77.17245">
        <ele>3983.2</ele>
        <time>2015-08-31T07:21:33Z</time>
      </trkpt>
      <trkpt lat="34.06264" lon="77.17246">
        <ele>3982.8</ele>
        <time>2015-08-31T07:21:34Z</time>
      </trkpt>
      <trkpt lat="34.06255" lon="77.17264">
        <ele>3982</ele>
        <time>2015-08-31T07:21:48Z</time>
      </trkpt>
      <trkpt lat="34.06255" lon="77.17264">
        <ele>3981.6</ele>
        <time>2015-08-31T07:21:50Z</time>
      </trkpt>
      <trkpt lat="34.06255" lon="77.17264">
        <ele>3980.6</ele>
        <time>2015-08-31T07:21:52Z</time>
      </trkpt>
      <trkpt lat="34.06251" lon="77.17271">
        <ele>3979.2</ele>
        <time>2015-08-31T07:22:00Z</time>
      </trkpt>
      <trkpt lat="34.0625" lon="77.17273">
        <ele>3978.2</ele>
        <time>2015-08-31T07:22:03Z</time>
      </trkpt>
      <trkpt lat="34.0625" lon="77.17276">
        <ele>3976.8</ele>
        <time>2015-08-31T07:22:06Z</time>
      </trkpt>
      <trkpt lat="34.0625" lon="77.17279">
        <ele>3975.6</ele>
        <time>2015-08-31T07:22:09Z</time>
      </trkpt>
      <trkpt lat="34.06247" lon="77.17286">
        <ele>3974.6</ele>
        <time>2015-08-31T07:22:18Z</time>
      </trkpt>
      <trkpt lat="34.06243" lon="77.17293">
        <ele>3974.8</ele>
        <time>2015-08-31T07:22:25Z</time>
      </trkpt>
      <trkpt lat="34.06242" lon="77.17299">
        <ele>3974.6</ele>
        <time>2015-08-31T07:22:30Z</time>
      </trkpt>
      <trkpt lat="34.06239" lon="77.17303">
        <ele>3973.4</ele>
        <time>2015-08-31T07:22:34Z</time>
      </trkpt>
      <trkpt lat="34.06236" lon="77.17308">
        <ele>3972.4</ele>
        <time>2015-08-31T07:22:40Z</time>
      </trkpt>
      <trkpt lat="34.06236" lon="77.17308">
        <ele>3972.2</ele>
        <time>2015-08-31T07:22:41Z</time>
      </trkpt>
      <trkpt lat="34.06235" lon="77.17309">
        <ele>3971.8</ele>
        <time>2015-08-31T07:22:42Z</time>
      </trkpt>
      <trkpt lat="34.06232" lon="77.17312">
        <ele>3971.2</ele>
        <time>2015-08-31T07:22:46Z</time>
      </trkpt>
      <trkpt lat="34.06231" lon="77.17314">
        <ele>3971.2</ele>
        <time>2015-08-31T07:22:48Z</time>
      </trkpt>
      <trkpt lat="34.0623" lon="77.17319">
        <ele>3970.8</ele>
        <time>2015-08-31T07:22:52Z</time>
      </trkpt>
      <trkpt lat="34.06227" lon="77.17324">
        <ele>3970.2</ele>
        <time>2015-08-31T07:22:57Z</time>
      </trkpt>
      <trkpt lat="34.06229" lon="77.17325">
        <ele>3970</ele>
        <time>2015-08-31T07:22:59Z</time>
      </trkpt>
      <trkpt lat="34.06229" lon="77.17325">
        <ele>3969</ele>
        <time>2015-08-31T07:23:03Z</time>
      </trkpt>
      <trkpt lat="34.06227" lon="77.17327">
        <ele>3969.2</ele>
        <time>2015-08-31T07:23:08Z</time>
      </trkpt>
      <trkpt lat="34.06215" lon="77.17344">
        <ele>3968.2</ele>
        <time>2015-08-31T07:23:24Z</time>
      </trkpt>
      <trkpt lat="34.06215" lon="77.17346">
        <ele>3967.6</ele>
        <time>2015-08-31T07:23:26Z</time>
      </trkpt>
      <trkpt lat="34.06212" lon="77.17352">
        <ele>3966.6</ele>
        <time>2015-08-31T07:23:30Z</time>
      </trkpt>
      <trkpt lat="34.06214" lon="77.17362">
        <ele>3965.6</ele>
        <time>2015-08-31T07:23:37Z</time>
      </trkpt>
      <trkpt lat="34.06216" lon="77.17366">
        <ele>3964.6</ele>
        <time>2015-08-31T07:23:41Z</time>
      </trkpt>
      <trkpt lat="34.06216" lon="77.17367">
        <ele>3964.2</ele>
        <time>2015-08-31T07:23:42Z</time>
      </trkpt>
      <trkpt lat="34.06215" lon="77.17369">
        <ele>3963.8</ele>
        <time>2015-08-31T07:23:44Z</time>
      </trkpt>
      <trkpt lat="34.06215" lon="77.17371">
        <ele>3963.6</ele>
        <time>2015-08-31T07:23:47Z</time>
      </trkpt>
      <trkpt lat="34.06214" lon="77.17373">
        <ele>3963</ele>
        <time>2015-08-31T07:23:49Z</time>
      </trkpt>
      <trkpt lat="34.06213" lon="77.17375">
        <ele>3962.4</ele>
        <time>2015-08-31T07:23:51Z</time>
      </trkpt>
      <trkpt lat="34.06214" lon="77.1738">
        <ele>3961.4</ele>
        <time>2015-08-31T07:23:55Z</time>
      </trkpt>
      <trkpt lat="34.06214" lon="77.17384">
        <ele>3960.4</ele>
        <time>2015-08-31T07:23:59Z</time>
      </trkpt>
      <trkpt lat="34.06213" lon="77.17387">
        <ele>3960.2</ele>
        <time>2015-08-31T07:24:02Z</time>
      </trkpt>
      <trkpt lat="34.06211" lon="77.17398">
        <ele>3959.6</ele>
        <time>2015-08-31T07:24:11Z</time>
      </trkpt>
      <trkpt lat="34.06208" lon="77.17402">
        <ele>3959.2</ele>
        <time>2015-08-31T07:24:16Z</time>
      </trkpt>
      <trkpt lat="34.06207" lon="77.17404">
        <ele>3958.6</ele>
        <time>2015-08-31T07:24:18Z</time>
      </trkpt>
      <trkpt lat="34.06207" lon="77.17404">
        <ele>3958.2</ele>
        <time>2015-08-31T07:24:20Z</time>
      </trkpt>
      <trkpt lat="34.06208" lon="77.17407">
        <ele>3958.2</ele>
        <time>2015-08-31T07:24:30Z</time>
      </trkpt>
      <trkpt lat="34.06208" lon="77.17408">
        <ele>3958</ele>
        <time>2015-08-31T07:24:31Z</time>
      </trkpt>
      <trkpt lat="34.06197" lon="77.17424">
        <ele>3957</ele>
        <time>2015-08-31T07:24:43Z</time>
      </trkpt>
      <trkpt lat="34.0619" lon="77.17431">
        <ele>3956</ele>
        <time>2015-08-31T07:24:48Z</time>
      </trkpt>
      <trkpt lat="34.06179" lon="77.17449">
        <ele>3955.8</ele>
        <time>2015-08-31T07:25:03Z</time>
      </trkpt>
      <trkpt lat="34.06179" lon="77.17451">
        <ele>3955.6</ele>
        <time>2015-08-31T07:25:05Z</time>
      </trkpt>
      <trkpt lat="34.06176" lon="77.17454">
        <ele>3955.4</ele>
        <time>2015-08-31T07:25:08Z</time>
      </trkpt>
      <trkpt lat="34.06173" lon="77.17457">
        <ele>3954.8</ele>
        <time>2015-08-31T07:25:12Z</time>
      </trkpt>
      <trkpt lat="34.06167" lon="77.17468">
        <ele>3954.4</ele>
        <time>2015-08-31T07:25:23Z</time>
      </trkpt>
      <trkpt lat="34.06165" lon="77.17474">
        <ele>3954</ele>
        <time>2015-08-31T07:25:27Z</time>
      </trkpt>
      <trkpt lat="34.06166" lon="77.17477">
        <ele>3953.8</ele>
        <time>2015-08-31T07:25:29Z</time>
      </trkpt>
      <trkpt lat="34.06165" lon="77.17479">
        <ele>3953.8</ele>
        <time>2015-08-31T07:25:31Z</time>
      </trkpt>
      <trkpt lat="34.06161" lon="77.17489">
        <ele>3952.6</ele>
        <time>2015-08-31T07:25:40Z</time>
      </trkpt>
      <trkpt lat="34.06159" lon="77.17492">
        <ele>3952.2</ele>
        <time>2015-08-31T07:25:42Z</time>
      </trkpt>
      <trkpt lat="34.06158" lon="77.175">
        <ele>3951.6</ele>
        <time>2015-08-31T07:25:49Z</time>
      </trkpt>
      <trkpt lat="34.06152" lon="77.17516">
        <ele>3950.8</ele>
        <time>2015-08-31T07:26:04Z</time>
      </trkpt>
      <trkpt lat="34.06152" lon="77.17518">
        <ele>3950.6</ele>
        <time>2015-08-31T07:26:05Z</time>
      </trkpt>
      <trkpt lat="34.0615" lon="77.17519">
        <ele>3950.4</ele>
        <time>2015-08-31T07:26:07Z</time>
      </trkpt>
      <trkpt lat="34.06149" lon="77.17522">
        <ele>3950.4</ele>
        <time>2015-08-31T07:26:10Z</time>
      </trkpt>
      <trkpt lat="34.06148" lon="77.17538">
        <ele>3950.4</ele>
        <time>2015-08-31T07:26:25Z</time>
      </trkpt>
      <trkpt lat="34.06145" lon="77.17548">
        <ele>3949.6</ele>
        <time>2015-08-31T07:26:33Z</time>
      </trkpt>
      <trkpt lat="34.06145" lon="77.17555">
        <ele>3949.8</ele>
        <time>2015-08-31T07:26:37Z</time>
      </trkpt>
      <trkpt lat="34.06145" lon="77.17558">
        <ele>3950</ele>
        <time>2015-08-31T07:26:39Z</time>
      </trkpt>
      <trkpt lat="34.06145" lon="77.17562">
        <ele>3949.8</ele>
        <time>2015-08-31T07:26:41Z</time>
      </trkpt>
      <trkpt lat="34.06145" lon="77.17566">
        <ele>3949.6</ele>
        <time>2015-08-31T07:26:43Z</time>
      </trkpt>
      <trkpt lat="34.0614" lon="77.17587">
        <ele>3948.8</ele>
        <time>2015-08-31T07:27:00Z</time>
      </trkpt>
      <trkpt lat="34.06138" lon="77.1759">
        <ele>3948.4</ele>
        <time>2015-08-31T07:27:03Z</time>
      </trkpt>
      <trkpt lat="34.06135" lon="77.17598">
        <ele>3947.4</ele>
        <time>2015-08-31T07:27:10Z</time>
      </trkpt>
      <trkpt lat="34.06128" lon="77.17618">
        <ele>3946.4</ele>
        <time>2015-08-31T07:27:25Z</time>
      </trkpt>
      <trkpt lat="34.06127" lon="77.17621">
        <ele>3946.2</ele>
        <time>2015-08-31T07:27:27Z</time>
      </trkpt>
      <trkpt lat="34.06126" lon="77.17628">
        <ele>3945.2</ele>
        <time>2015-08-31T07:27:32Z</time>
      </trkpt>
      <trkpt lat="34.06126" lon="77.17631">
        <ele>3945.2</ele>
        <time>2015-08-31T07:27:34Z</time>
      </trkpt>
      <trkpt lat="34.06117" lon="77.17646">
        <ele>3944.2</ele>
        <time>2015-08-31T07:27:45Z</time>
      </trkpt>
      <trkpt lat="34.06115" lon="77.17652">
        <ele>3944</ele>
        <time>2015-08-31T07:27:50Z</time>
      </trkpt>
      <trkpt lat="34.06116" lon="77.17657">
        <ele>3943</ele>
        <time>2015-08-31T07:27:55Z</time>
      </trkpt>
      <trkpt lat="34.06113" lon="77.17661">
        <ele>3942</ele>
        <time>2015-08-31T07:27:59Z</time>
      </trkpt>
      <trkpt lat="34.06111" lon="77.17662">
        <ele>3941.6</ele>
        <time>2015-08-31T07:28:01Z</time>
      </trkpt>
      <trkpt lat="34.06109" lon="77.17672">
        <ele>3941.6</ele>
        <time>2015-08-31T07:28:09Z</time>
      </trkpt>
      <trkpt lat="34.06109" lon="77.17675">
        <ele>3940.8</ele>
        <time>2015-08-31T07:28:11Z</time>
      </trkpt>
      <trkpt lat="34.06107" lon="77.17678">
        <ele>3939.6</ele>
        <time>2015-08-31T07:28:14Z</time>
      </trkpt>
      <trkpt lat="34.06102" lon="77.17688">
        <ele>3940.6</ele>
        <time>2015-08-31T07:28:21Z</time>
      </trkpt>
      <trkpt lat="34.061" lon="77.17691">
        <ele>3940.6</ele>
        <time>2015-08-31T07:28:23Z</time>
      </trkpt>
      <trkpt lat="34.06095" lon="77.17705">
        <ele>3941.6</ele>
        <time>2015-08-31T07:28:35Z</time>
      </trkpt>
      <trkpt lat="34.06095" lon="77.17707">
        <ele>3942</ele>
        <time>2015-08-31T07:28:37Z</time>
      </trkpt>
      <trkpt lat="34.06091" lon="77.17719">
        <ele>3941.6</ele>
        <time>2015-08-31T07:28:49Z</time>
      </trkpt>
      <trkpt lat="34.06089" lon="77.17732">
        <ele>3941</ele>
        <time>2015-08-31T07:29:00Z</time>
      </trkpt>
      <trkpt lat="34.0609" lon="77.17734">
        <ele>3940.6</ele>
        <time>2015-08-31T07:29:02Z</time>
      </trkpt>
      <trkpt lat="34.06089" lon="77.17739">
        <ele>3940.8</ele>
        <time>2015-08-31T07:29:07Z</time>
      </trkpt>
      <trkpt lat="34.06086" lon="77.17744">
        <ele>3940.4</ele>
        <time>2015-08-31T07:29:12Z</time>
      </trkpt>
      <trkpt lat="34.06082" lon="77.17751">
        <ele>3940.2</ele>
        <time>2015-08-31T07:29:19Z</time>
      </trkpt>
      <trkpt lat="34.06081" lon="77.17752">
        <ele>3939.8</ele>
        <time>2015-08-31T07:29:20Z</time>
      </trkpt>
      <trkpt lat="34.06081" lon="77.17755">
        <ele>3939.6</ele>
        <time>2015-08-31T07:29:22Z</time>
      </trkpt>
      <trkpt lat="34.06081" lon="77.17759">
        <ele>3939.6</ele>
        <time>2015-08-31T07:29:25Z</time>
      </trkpt>
      <trkpt lat="34.06082" lon="77.17771">
        <ele>3938.8</ele>
        <time>2015-08-31T07:29:32Z</time>
      </trkpt>
      <trkpt lat="34.06082" lon="77.17775">
        <ele>3938.4</ele>
        <time>2015-08-31T07:29:34Z</time>
      </trkpt>
      <trkpt lat="34.06083" lon="77.17786">
        <ele>3938.4</ele>
        <time>2015-08-31T07:29:42Z</time>
      </trkpt>
      <trkpt lat="34.06081" lon="77.1779">
        <ele>3937.4</ele>
        <time>2015-08-31T07:29:45Z</time>
      </trkpt>
      <trkpt lat="34.0608" lon="77.17791">
        <ele>3937</ele>
        <time>2015-08-31T07:29:46Z</time>
      </trkpt>
      <trkpt lat="34.06078" lon="77.17793">
        <ele>3936.2</ele>
        <time>2015-08-31T07:29:48Z</time>
      </trkpt>
      <trkpt lat="34.06069" lon="77.17805">
        <ele>3935</ele>
        <time>2015-08-31T07:29:58Z</time>
      </trkpt>
      <trkpt lat="34.06064" lon="77.1781">
        <ele>3934</ele>
        <time>2015-08-31T07:30:02Z</time>
      </trkpt>
      <trkpt lat="34.0606" lon="77.17813">
        <ele>3933</ele>
        <time>2015-08-31T07:30:05Z</time>
      </trkpt>
      <trkpt lat="34.06054" lon="77.17819">
        <ele>3931.6</ele>
        <time>2015-08-31T07:30:11Z</time>
      </trkpt>
      <trkpt lat="34.0605" lon="77.17821">
        <ele>3930.4</ele>
        <time>2015-08-31T07:30:15Z</time>
      </trkpt>
      <trkpt lat="34.06045" lon="77.17822">
        <ele>3929.4</ele>
        <time>2015-08-31T07:30:21Z</time>
      </trkpt>
      <trkpt lat="34.06044" lon="77.17822">
        <ele>3929.2</ele>
        <time>2015-08-31T07:30:23Z</time>
      </trkpt>
      <trkpt lat="34.06041" lon="77.17828">
        <ele>3929.6</ele>
        <time>2015-08-31T07:30:31Z</time>
      </trkpt>
      <trkpt lat="34.06034" lon="77.17834">
        <ele>3928.2</ele>
        <time>2015-08-31T07:30:38Z</time>
      </trkpt>
      <trkpt lat="34.0603" lon="77.17837">
        <ele>3926.6</ele>
        <time>2015-08-31T07:30:42Z</time>
      </trkpt>
      <trkpt lat="34.06029" lon="77.17839">
        <ele>3925.4</ele>
        <time>2015-08-31T07:30:45Z</time>
      </trkpt>
      <trkpt lat="34.06027" lon="77.1784">
        <ele>3924.2</ele>
        <time>2015-08-31T07:30:47Z</time>
      </trkpt>
      <trkpt lat="34.06026" lon="77.1784">
        <ele>3923.8</ele>
        <time>2015-08-31T07:30:48Z</time>
      </trkpt>
      <trkpt lat="34.06026" lon="77.17842">
        <ele>3923.2</ele>
        <time>2015-08-31T07:30:50Z</time>
      </trkpt>
      <trkpt lat="34.06019" lon="77.17847">
        <ele>3921.8</ele>
        <time>2015-08-31T07:30:56Z</time>
      </trkpt>
      <trkpt lat="34.06017" lon="77.17848">
        <ele>3921.4</ele>
        <time>2015-08-31T07:30:59Z</time>
      </trkpt>
      <trkpt lat="34.06014" lon="77.17853">
        <ele>3921.4</ele>
        <time>2015-08-31T07:31:03Z</time>
      </trkpt>
      <trkpt lat="34.06013" lon="77.17856">
        <ele>3921.2</ele>
        <time>2015-08-31T07:31:07Z</time>
      </trkpt>
      <trkpt lat="34.06013" lon="77.17858">
        <ele>3920.8</ele>
        <time>2015-08-31T07:31:10Z</time>
      </trkpt>
      <trkpt lat="34.06018" lon="77.17857">
        <ele>3919.6</ele>
        <time>2015-08-31T07:31:35Z</time>
      </trkpt>
      <trkpt lat="34.0602" lon="77.17856">
        <ele>3919.4</ele>
        <time>2015-08-31T07:31:41Z</time>
      </trkpt>
      <trkpt lat="34.0602" lon="77.17856">
        <ele>3918.6</ele>
        <time>2015-08-31T07:32:06Z</time>
      </trkpt>
      <trkpt lat="34.0602" lon="77.17858">
        <ele>3917.4</ele>
        <time>2015-08-31T07:32:12Z</time>
      </trkpt>
      <trkpt lat="34.0602" lon="77.17858">
        <ele>3918.6</ele>
        <time>2015-08-31T07:32:21Z</time>
      </trkpt>
      <trkpt lat="34.06019" lon="77.17857">
        <ele>3919.6</ele>
        <time>2015-08-31T07:32:24Z</time>
      </trkpt>
      <trkpt lat="34.06019" lon="77.17857">
        <ele>3920.6</ele>
        <time>2015-08-31T07:32:30Z</time>
      </trkpt>
      <trkpt lat="34.06014" lon="77.17858">
        <ele>3919.8</ele>
        <time>2015-08-31T07:32:37Z</time>
      </trkpt>
      <trkpt lat="34.06015" lon="77.17858">
        <ele>3919.8</ele>
        <time>2015-08-31T07:32:39Z</time>
      </trkpt>
      <trkpt lat="34.06016" lon="77.17856">
        <ele>3919.4</ele>
        <time>2015-08-31T07:32:41Z</time>
      </trkpt>
      <trkpt lat="34.06016" lon="77.17858">
        <ele>3918.4</ele>
        <time>2015-08-31T07:32:45Z</time>
      </trkpt>
      <trkpt lat="34.06016" lon="77.17861">
        <ele>3917.2</ele>
        <time>2015-08-31T07:32:51Z</time>
      </trkpt>
      <trkpt lat="34.06015" lon="77.17868">
        <ele>3916</ele>
        <time>2015-08-31T07:33:01Z</time>
      </trkpt>
      <trkpt lat="34.06016" lon="77.17869">
        <ele>3915.4</ele>
        <time>2015-08-31T07:33:04Z</time>
      </trkpt>
      <trkpt lat="34.06015" lon="77.1787">
        <ele>3914.8</ele>
        <time>2015-08-31T07:33:07Z</time>
      </trkpt>
      <trkpt lat="34.06013" lon="77.17875">
        <ele>3913.8</ele>
        <time>2015-08-31T07:33:12Z</time>
      </trkpt>
      <trkpt lat="34.06013" lon="77.17879">
        <ele>3912.6</ele>
        <time>2015-08-31T07:33:19Z</time>
      </trkpt>
      <trkpt lat="34.0601" lon="77.17886">
        <ele>3911.4</ele>
        <time>2015-08-31T07:33:24Z</time>
      </trkpt>
      <trkpt lat="34.06009" lon="77.17889">
        <ele>3910.6</ele>
        <time>2015-08-31T07:33:26Z</time>
      </trkpt>
      <trkpt lat="34.0601" lon="77.1789">
        <ele>3910.4</ele>
        <time>2015-08-31T07:33:27Z</time>
      </trkpt>
      <trkpt lat="34.06013" lon="77.17893">
        <ele>3909.4</ele>
        <time>2015-08-31T07:33:31Z</time>
      </trkpt>
      <trkpt lat="34.06013" lon="77.17894">
        <ele>3909.2</ele>
        <time>2015-08-31T07:33:32Z</time>
      </trkpt>
      <trkpt lat="34.06009" lon="77.17903">
        <ele>3908.2</ele>
        <time>2015-08-31T07:33:41Z</time>
      </trkpt>
      <trkpt lat="34.06007" lon="77.17907">
        <ele>3906.8</ele>
        <time>2015-08-31T07:33:46Z</time>
      </trkpt>
      <trkpt lat="34.06007" lon="77.17911">
        <ele>3906</ele>
        <time>2015-08-31T07:33:52Z</time>
      </trkpt>
      <trkpt lat="34.06005" lon="77.17912">
        <ele>3905.8</ele>
        <time>2015-08-31T07:33:54Z</time>
      </trkpt>
      <trkpt lat="34.06003" lon="77.17916">
        <ele>3905.2</ele>
        <time>2015-08-31T07:33:58Z</time>
      </trkpt>
      <trkpt lat="34.06004" lon="77.17918">
        <ele>3904.8</ele>
        <time>2015-08-31T07:34:00Z</time>
      </trkpt>
      <trkpt lat="34.06003" lon="77.17919">
        <ele>3904.2</ele>
        <time>2015-08-31T07:34:03Z</time>
      </trkpt>
      <trkpt lat="34.06002" lon="77.17921">
        <ele>3904</ele>
        <time>2015-08-31T07:34:05Z</time>
      </trkpt>
      <trkpt lat="34.06001" lon="77.17921">
        <ele>3903.6</ele>
        <time>2015-08-31T07:34:06Z</time>
      </trkpt>
      <trkpt lat="34.06001" lon="77.17923">
        <ele>3902.6</ele>
        <time>2015-08-31T07:34:10Z</time>
      </trkpt>
      <trkpt lat="34.06001" lon="77.17927">
        <ele>3901.4</ele>
        <time>2015-08-31T07:34:14Z</time>
      </trkpt>
      <trkpt lat="34.06001" lon="77.17935">
        <ele>3900.4</ele>
        <time>2015-08-31T07:34:22Z</time>
      </trkpt>
      <trkpt lat="34.06001" lon="77.17936">
        <ele>3900.2</ele>
        <time>2015-08-31T07:34:23Z</time>
      </trkpt>
      <trkpt lat="34.06003" lon="77.17941">
        <ele>3899.2</ele>
        <time>2015-08-31T07:34:30Z</time>
      </trkpt>
      <trkpt lat="34.06001" lon="77.17945">
        <ele>3898.2</ele>
        <time>2015-08-31T07:34:33Z</time>
      </trkpt>
      <trkpt lat="34.06" lon="77.17946">
        <ele>3897.4</ele>
        <time>2015-08-31T07:34:36Z</time>
      </trkpt>
      <trkpt lat="34.05999" lon="77.17947">
        <ele>3897</ele>
        <time>2015-08-31T07:34:37Z</time>
      </trkpt>
      <trkpt lat="34.05996" lon="77.17953">
        <ele>3896</ele>
        <time>2015-08-31T07:34:42Z</time>
      </trkpt>
      <trkpt lat="34.05996" lon="77.17957">
        <ele>3894.6</ele>
        <time>2015-08-31T07:34:47Z</time>
      </trkpt>
      <trkpt lat="34.05995" lon="77.17959">
        <ele>3893.6</ele>
        <time>2015-08-31T07:34:50Z</time>
      </trkpt>
      <trkpt lat="34.06" lon="77.17966">
        <ele>3892.4</ele>
        <time>2015-08-31T07:34:57Z</time>
      </trkpt>
      <trkpt lat="34.05996" lon="77.17971">
        <ele>3891.4</ele>
        <time>2015-08-31T07:35:02Z</time>
      </trkpt>
      <trkpt lat="34.05994" lon="77.17974">
        <ele>3890.2</ele>
        <time>2015-08-31T07:35:05Z</time>
      </trkpt>
      <trkpt lat="34.05993" lon="77.17975">
        <ele>3889.8</ele>
        <time>2015-08-31T07:35:06Z</time>
      </trkpt>
      <trkpt lat="34.0599" lon="77.17981">
        <ele>3889.2</ele>
        <time>2015-08-31T07:35:11Z</time>
      </trkpt>
      <trkpt lat="34.0599" lon="77.17984">
        <ele>3888.8</ele>
        <time>2015-08-31T07:35:14Z</time>
      </trkpt>
      <trkpt lat="34.05991" lon="77.17988">
        <ele>3888</ele>
        <time>2015-08-31T07:35:24Z</time>
      </trkpt>
      <trkpt lat="34.05991" lon="77.17992">
        <ele>3887.8</ele>
        <time>2015-08-31T07:36:04Z</time>
      </trkpt>
      <trkpt lat="34.0599" lon="77.17995">
        <ele>3887</ele>
        <time>2015-08-31T07:36:08Z</time>
      </trkpt>
      <trkpt lat="34.05988" lon="77.17999">
        <ele>3886.4</ele>
        <time>2015-08-31T07:36:12Z</time>
      </trkpt>
      <trkpt lat="34.05988" lon="77.18001">
        <ele>3886</ele>
        <time>2015-08-31T07:36:15Z</time>
      </trkpt>
      <trkpt lat="34.05989" lon="77.18003">
        <ele>3885.6</ele>
        <time>2015-08-31T07:36:17Z</time>
      </trkpt>
      <trkpt lat="34.0599" lon="77.18009">
        <ele>3884.8</ele>
        <time>2015-08-31T07:36:22Z</time>
      </trkpt>
      <trkpt lat="34.05989" lon="77.18015">
        <ele>3883.6</ele>
        <time>2015-08-31T07:36:27Z</time>
      </trkpt>
      <trkpt lat="34.05986" lon="77.18021">
        <ele>3882.4</ele>
        <time>2015-08-31T07:36:32Z</time>
      </trkpt>
      <trkpt lat="34.05982" lon="77.18032">
        <ele>3881.4</ele>
        <time>2015-08-31T07:36:43Z</time>
      </trkpt>
      <trkpt lat="34.05981" lon="77.18036">
        <ele>3880.2</ele>
        <time>2015-08-31T07:36:51Z</time>
      </trkpt>
      <trkpt lat="34.05981" lon="77.18039">
        <ele>3879.4</ele>
        <time>2015-08-31T07:36:56Z</time>
      </trkpt>
      <trkpt lat="34.05979" lon="77.1804">
        <ele>3879.2</ele>
        <time>2015-08-31T07:36:57Z</time>
      </trkpt>
      <trkpt lat="34.05976" lon="77.18047">
        <ele>3878</ele>
        <time>2015-08-31T07:37:05Z</time>
      </trkpt>
      <trkpt lat="34.05973" lon="77.18056">
        <ele>3877</ele>
        <time>2015-08-31T07:37:11Z</time>
      </trkpt>
      <trkpt lat="34.05974" lon="77.18058">
        <ele>3876.6</ele>
        <time>2015-08-31T07:37:14Z</time>
      </trkpt>
      <trkpt lat="34.05973" lon="77.18063">
        <ele>3875.8</ele>
        <time>2015-08-31T07:37:22Z</time>
      </trkpt>
      <trkpt lat="34.0597" lon="77.18067">
        <ele>3875.4</ele>
        <time>2015-08-31T07:37:25Z</time>
      </trkpt>
      <trkpt lat="34.05969" lon="77.18067">
        <ele>3875</ele>
        <time>2015-08-31T07:37:27Z</time>
      </trkpt>
      <trkpt lat="34.05968" lon="77.18066">
        <ele>3874.8</ele>
        <time>2015-08-31T07:37:28Z</time>
      </trkpt>
      <trkpt lat="34.05965" lon="77.18064">
        <ele>3873.8</ele>
        <time>2015-08-31T07:37:35Z</time>
      </trkpt>
      <trkpt lat="34.05961" lon="77.18061">
        <ele>3872.6</ele>
        <time>2015-08-31T07:37:41Z</time>
      </trkpt>
      <trkpt lat="34.05958" lon="77.18058">
        <ele>3871.6</ele>
        <time>2015-08-31T07:37:47Z</time>
      </trkpt>
      <trkpt lat="34.05954" lon="77.18053">
        <ele>3870.4</ele>
        <time>2015-08-31T07:37:54Z</time>
      </trkpt>
      <trkpt lat="34.0595" lon="77.18051">
        <ele>3869.4</ele>
        <time>2015-08-31T07:37:59Z</time>
      </trkpt>
      <trkpt lat="34.05947" lon="77.18053">
        <ele>3869</ele>
        <time>2015-08-31T07:38:02Z</time>
      </trkpt>
      <trkpt lat="34.05946" lon="77.18053">
        <ele>3868.6</ele>
        <time>2015-08-31T07:38:04Z</time>
      </trkpt>
      <trkpt lat="34.05946" lon="77.18051">
        <ele>3868.4</ele>
        <time>2015-08-31T07:38:06Z</time>
      </trkpt>
      <trkpt lat="34.05947" lon="77.18051">
        <ele>3868.4</ele>
        <time>2015-08-31T07:38:08Z</time>
      </trkpt>
      <trkpt lat="34.05947" lon="77.18054">
        <ele>3868.2</ele>
        <time>2015-08-31T07:38:21Z</time>
      </trkpt>
      <trkpt lat="34.05946" lon="77.18059">
        <ele>3867.2</ele>
        <time>2015-08-31T07:38:30Z</time>
      </trkpt>
      <trkpt lat="34.05943" lon="77.18061">
        <ele>3866.2</ele>
        <time>2015-08-31T07:38:36Z</time>
      </trkpt>
      <trkpt lat="34.05937" lon="77.18062">
        <ele>3865.2</ele>
        <time>2015-08-31T07:38:48Z</time>
      </trkpt>
      <trkpt lat="34.05931" lon="77.18065">
        <ele>3864</ele>
        <time>2015-08-31T07:38:53Z</time>
      </trkpt>
      <trkpt lat="34.05931" lon="77.18074">
        <ele>3863</ele>
        <time>2015-08-31T07:39:00Z</time>
      </trkpt>
      <trkpt lat="34.05932" lon="77.18076">
        <ele>3862.8</ele>
        <time>2015-08-31T07:39:01Z</time>
      </trkpt>
      <trkpt lat="34.05931" lon="77.18078">
        <ele>3861.8</ele>
        <time>2015-08-31T07:39:05Z</time>
      </trkpt>
      <trkpt lat="34.05927" lon="77.18081">
        <ele>3860.6</ele>
        <time>2015-08-31T07:39:10Z</time>
      </trkpt>
      <trkpt lat="34.05921" lon="77.18087">
        <ele>3859.4</ele>
        <time>2015-08-31T07:39:16Z</time>
      </trkpt>
      <trkpt lat="34.05917" lon="77.18089">
        <ele>3858.2</ele>
        <time>2015-08-31T07:39:20Z</time>
      </trkpt>
      <trkpt lat="34.05912" lon="77.18091">
        <ele>3857.4</ele>
        <time>2015-08-31T07:39:26Z</time>
      </trkpt>
      <trkpt lat="34.0591" lon="77.18092">
        <ele>3857.4</ele>
        <time>2015-08-31T07:39:28Z</time>
      </trkpt>
      <trkpt lat="34.05911" lon="77.18091">
        <ele>3857.8</ele>
        <time>2015-08-31T07:39:30Z</time>
      </trkpt>
      <trkpt lat="34.05897" lon="77.18107">
        <ele>3859.4</ele>
        <time>2015-08-31T07:39:41Z</time>
      </trkpt>
      <trkpt lat="34.05895" lon="77.18109">
        <ele>3859.4</ele>
        <time>2015-08-31T07:39:43Z</time>
      </trkpt>
      <trkpt lat="34.05902" lon="77.18112">
        <ele>3859.4</ele>
        <time>2015-08-31T07:39:50Z</time>
      </trkpt>
      <trkpt lat="34.05901" lon="77.18105">
        <ele>3859.2</ele>
        <time>2015-08-31T07:40:21Z</time>
      </trkpt>
      <trkpt lat="34.05902" lon="77.18104">
        <ele>3859.4</ele>
        <time>2015-08-31T07:41:00Z</time>
      </trkpt>
      <trkpt lat="34.05903" lon="77.1811">
        <ele>3860.4</ele>
        <time>2015-08-31T07:41:26Z</time>
      </trkpt>
      <trkpt lat="34.05901" lon="77.18107">
        <ele>3860.4</ele>
        <time>2015-08-31T07:41:30Z</time>
      </trkpt>
      <trkpt lat="34.05901" lon="77.18107">
        <ele>3860.4</ele>
        <time>2015-08-31T07:41:31Z</time>
      </trkpt>
      <trkpt lat="34.05899" lon="77.18102">
        <ele>3860.2</ele>
        <time>2015-08-31T07:41:34Z</time>
      </trkpt>
      <trkpt lat="34.05897" lon="77.18101">
        <ele>3860.4</ele>
        <time>2015-08-31T07:41:43Z</time>
      </trkpt>
      <trkpt lat="34.05904" lon="77.18102">
        <ele>3860</ele>
        <time>2015-08-31T07:42:09Z</time>
      </trkpt>
      <trkpt lat="34.05899" lon="77.18107">
        <ele>3859.8</ele>
        <time>2015-08-31T07:42:22Z</time>
      </trkpt>
      <trkpt lat="34.05904" lon="77.18106">
        <ele>3860.6</ele>
        <time>2015-08-31T07:42:49Z</time>
      </trkpt>
      <trkpt lat="34.05898" lon="77.18108">
        <ele>3859.6</ele>
        <time>2015-08-31T07:43:20Z</time>
      </trkpt>
      <trkpt lat="34.05899" lon="77.18108">
        <ele>3859.2</ele>
        <time>2015-08-31T07:43:22Z</time>
      </trkpt>
      <trkpt lat="34.05902" lon="77.18107">
        <ele>3859</ele>
        <time>2015-08-31T07:43:26Z</time>
      </trkpt>
      <trkpt lat="34.05903" lon="77.18103">
        <ele>3858</ele>
        <time>2015-08-31T07:43:33Z</time>
      </trkpt>
      <trkpt lat="34.05907" lon="77.18105">
        <ele>3857.2</ele>
        <time>2015-08-31T07:43:38Z</time>
      </trkpt>
      <trkpt lat="34.05908" lon="77.18107">
        <ele>3857</ele>
        <time>2015-08-31T07:43:42Z</time>
      </trkpt>
      <trkpt lat="34.0591" lon="77.18112">
        <ele>3856</ele>
        <time>2015-08-31T07:43:49Z</time>
      </trkpt>
      <trkpt lat="34.05911" lon="77.18114">
        <ele>3855</ele>
        <time>2015-08-31T07:43:52Z</time>
      </trkpt>
      <trkpt lat="34.05911" lon="77.18115">
        <ele>3854.8</ele>
        <time>2015-08-31T07:43:53Z</time>
      </trkpt>
      <trkpt lat="34.05919" lon="77.18122">
        <ele>3853.8</ele>
        <time>2015-08-31T07:43:58Z</time>
      </trkpt>
      <trkpt lat="34.05922" lon="77.18124">
        <ele>3852.8</ele>
        <time>2015-08-31T07:44:03Z</time>
      </trkpt>
      <trkpt lat="34.05923" lon="77.18123">
        <ele>3852.8</ele>
        <time>2015-08-31T07:44:04Z</time>
      </trkpt>
      <trkpt lat="34.05925" lon="77.18118">
        <ele>3851.6</ele>
        <time>2015-08-31T07:44:21Z</time>
      </trkpt>
      <trkpt lat="34.05924" lon="77.18118">
        <ele>3851.4</ele>
        <time>2015-08-31T07:44:22Z</time>
      </trkpt>
      <trkpt lat="34.05921" lon="77.18119">
        <ele>3850.4</ele>
        <time>2015-08-31T07:44:26Z</time>
      </trkpt>
      <trkpt lat="34.05919" lon="77.18125">
        <ele>3849.4</ele>
        <time>2015-08-31T07:44:39Z</time>
      </trkpt>
      <trkpt lat="34.0592" lon="77.18128">
        <ele>3848.4</ele>
        <time>2015-08-31T07:44:44Z</time>
      </trkpt>
      <trkpt lat="34.05922" lon="77.18132">
        <ele>3847.2</ele>
        <time>2015-08-31T07:44:49Z</time>
      </trkpt>
      <trkpt lat="34.05925" lon="77.18133">
        <ele>3846.2</ele>
        <time>2015-08-31T07:44:52Z</time>
      </trkpt>
      <trkpt lat="34.05925" lon="77.18133">
        <ele>3846</ele>
        <time>2015-08-31T07:44:53Z</time>
      </trkpt>
      <trkpt lat="34.05924" lon="77.18133">
        <ele>3845.2</ele>
        <time>2015-08-31T07:44:55Z</time>
      </trkpt>
      <trkpt lat="34.05921" lon="77.18132">
        <ele>3844</ele>
        <time>2015-08-31T07:44:59Z</time>
      </trkpt>
      <trkpt lat="34.05919" lon="77.18129">
        <ele>3842.8</ele>
        <time>2015-08-31T07:45:03Z</time>
      </trkpt>
      <trkpt lat="34.05918" lon="77.1813">
        <ele>3841.8</ele>
        <time>2015-08-31T07:45:08Z</time>
      </trkpt>
      <trkpt lat="34.05915" lon="77.18133">
        <ele>3840.6</ele>
        <time>2015-08-31T07:45:12Z</time>
      </trkpt>
      <trkpt lat="34.05913" lon="77.18137">
        <ele>3839.6</ele>
        <time>2015-08-31T07:45:17Z</time>
      </trkpt>
      <trkpt lat="34.05911" lon="77.18142">
        <ele>3838.6</ele>
        <time>2015-08-31T07:45:26Z</time>
      </trkpt>
      <trkpt lat="34.05914" lon="77.18146">
        <ele>3837.4</ele>
        <time>2015-08-31T07:45:31Z</time>
      </trkpt>
      <trkpt lat="34.05917" lon="77.18146">
        <ele>3837</ele>
        <time>2015-08-31T07:45:33Z</time>
      </trkpt>
      <trkpt lat="34.05917" lon="77.18144">
        <ele>3836.2</ele>
        <time>2015-08-31T07:45:36Z</time>
      </trkpt>
      <trkpt lat="34.05916" lon="77.18141">
        <ele>3835.2</ele>
        <time>2015-08-31T07:45:41Z</time>
      </trkpt>
      <trkpt lat="34.05916" lon="77.18141">
        <ele>3834.2</ele>
        <time>2015-08-31T07:45:52Z</time>
      </trkpt>
      <trkpt lat="34.05914" lon="77.18136">
        <ele>3833.8</ele>
        <time>2015-08-31T07:46:01Z</time>
      </trkpt>
      <trkpt lat="34.05911" lon="77.18138">
        <ele>3833.4</ele>
        <time>2015-08-31T07:46:03Z</time>
      </trkpt>
      <trkpt lat="34.05911" lon="77.18139">
        <ele>3833.2</ele>
        <time>2015-08-31T07:46:05Z</time>
      </trkpt>
      <trkpt lat="34.0591" lon="77.1814">
        <ele>3833</ele>
        <time>2015-08-31T07:46:06Z</time>
      </trkpt>
      <trkpt lat="34.05908" lon="77.1814">
        <ele>3831.8</ele>
        <time>2015-08-31T07:46:11Z</time>
      </trkpt>
      <trkpt lat="34.05906" lon="77.1814">
        <ele>3830.8</ele>
        <time>2015-08-31T07:46:14Z</time>
      </trkpt>
      <trkpt lat="34.05906" lon="77.18135">
        <ele>3829.8</ele>
        <time>2015-08-31T07:46:22Z</time>
      </trkpt>
      <trkpt lat="34.05904" lon="77.18136">
        <ele>3829.6</ele>
        <time>2015-08-31T07:46:24Z</time>
      </trkpt>
      <trkpt lat="34.05903" lon="77.18137">
        <ele>3829.4</ele>
        <time>2015-08-31T07:46:25Z</time>
      </trkpt>
      <trkpt lat="34.059" lon="77.18141">
        <ele>3828.4</ele>
        <time>2015-08-31T07:46:28Z</time>
      </trkpt>
      <trkpt lat="34.05893" lon="77.18149">
        <ele>3827.4</ele>
        <time>2015-08-31T07:46:33Z</time>
      </trkpt>
      <trkpt lat="34.05891" lon="77.18154">
        <ele>3827</ele>
        <time>2015-08-31T07:46:35Z</time>
      </trkpt>
      <trkpt lat="34.0589" lon="77.18162">
        <ele>3826.2</ele>
        <time>2015-08-31T07:46:40Z</time>
      </trkpt>
      <trkpt lat="34.05886" lon="77.18166">
        <ele>3825</ele>
        <time>2015-08-31T07:46:43Z</time>
      </trkpt>
      <trkpt lat="34.05882" lon="77.18169">
        <ele>3824</ele>
        <time>2015-08-31T07:46:46Z</time>
      </trkpt>
      <trkpt lat="34.05879" lon="77.18172">
        <ele>3822.8</ele>
        <time>2015-08-31T07:46:51Z</time>
      </trkpt>
      <trkpt lat="34.05876" lon="77.18173">
        <ele>3821.6</ele>
        <time>2015-08-31T07:46:54Z</time>
      </trkpt>
      <trkpt lat="34.05872" lon="77.18177">
        <ele>3820.4</ele>
        <time>2015-08-31T07:46:58Z</time>
      </trkpt>
      <trkpt lat="34.05866" lon="77.18176">
        <ele>3819.8</ele>
        <time>2015-08-31T07:47:01Z</time>
      </trkpt>
      <trkpt lat="34.05864" lon="77.18175">
        <ele>3819.2</ele>
        <time>2015-08-31T07:47:03Z</time>
      </trkpt>
      <trkpt lat="34.05864" lon="77.18177">
        <ele>3819</ele>
        <time>2015-08-31T07:47:04Z</time>
      </trkpt>
      <trkpt lat="34.05868" lon="77.18179">
        <ele>3818.6</ele>
        <time>2015-08-31T07:47:06Z</time>
      </trkpt>
      <trkpt lat="34.05869" lon="77.18181">
        <ele>3818</ele>
        <time>2015-08-31T07:47:08Z</time>
      </trkpt>
      <trkpt lat="34.05869" lon="77.18182">
        <ele>3817.4</ele>
        <time>2015-08-31T07:47:10Z</time>
      </trkpt>
      <trkpt lat="34.05867" lon="77.18184">
        <ele>3816.8</ele>
        <time>2015-08-31T07:47:13Z</time>
      </trkpt>
      <trkpt lat="34.05863" lon="77.18187">
        <ele>3815.6</ele>
        <time>2015-08-31T07:47:19Z</time>
      </trkpt>
      <trkpt lat="34.0586" lon="77.18188">
        <ele>3814.4</ele>
        <time>2015-08-31T07:47:23Z</time>
      </trkpt>
      <trkpt lat="34.05856" lon="77.18191">
        <ele>3813.4</ele>
        <time>2015-08-31T07:47:28Z</time>
      </trkpt>
      <trkpt lat="34.05851" lon="77.18191">
        <ele>3812.2</ele>
        <time>2015-08-31T07:47:34Z</time>
      </trkpt>
      <trkpt lat="34.05851" lon="77.18186">
        <ele>3811.2</ele>
        <time>2015-08-31T07:47:39Z</time>
      </trkpt>
      <trkpt lat="34.05851" lon="77.18184">
        <ele>3810.8</ele>
        <time>2015-08-31T07:47:41Z</time>
      </trkpt>
      <trkpt lat="34.05851" lon="77.18183">
        <ele>3810.4</ele>
        <time>2015-08-31T07:47:43Z</time>
      </trkpt>
      <trkpt lat="34.0585" lon="77.18183">
        <ele>3810.4</ele>
        <time>2015-08-31T07:47:45Z</time>
      </trkpt>
      <trkpt lat="34.0585" lon="77.18182">
        <ele>3810.2</ele>
        <time>2015-08-31T07:47:46Z</time>
      </trkpt>
      <trkpt lat="34.05844" lon="77.18187">
        <ele>3809</ele>
        <time>2015-08-31T07:47:51Z</time>
      </trkpt>
      <trkpt lat="34.05842" lon="77.18192">
        <ele>3808.4</ele>
        <time>2015-08-31T07:47:53Z</time>
      </trkpt>
      <trkpt lat="34.05841" lon="77.18193">
        <ele>3808</ele>
        <time>2015-08-31T07:47:54Z</time>
      </trkpt>
      <trkpt lat="34.05834" lon="77.18195">
        <ele>3807</ele>
        <time>2015-08-31T07:47:59Z</time>
      </trkpt>
      <trkpt lat="34.05828" lon="77.18197">
        <ele>3805.8</ele>
        <time>2015-08-31T07:48:08Z</time>
      </trkpt>
      <trkpt lat="34.05826" lon="77.18197">
        <ele>3804.8</ele>
        <time>2015-08-31T07:48:13Z</time>
      </trkpt>
      <trkpt lat="34.05822" lon="77.18198">
        <ele>3803.8</ele>
        <time>2015-08-31T07:48:18Z</time>
      </trkpt>
      <trkpt lat="34.05819" lon="77.18199">
        <ele>3802.6</ele>
        <time>2015-08-31T07:48:22Z</time>
      </trkpt>
      <trkpt lat="34.05814" lon="77.18203">
        <ele>3801.4</ele>
        <time>2015-08-31T07:48:28Z</time>
      </trkpt>
      <trkpt lat="34.05812" lon="77.18204">
        <ele>3800.6</ele>
        <time>2015-08-31T07:48:31Z</time>
      </trkpt>
      <trkpt lat="34.05812" lon="77.18204">
        <ele>3800.4</ele>
        <time>2015-08-31T07:48:32Z</time>
      </trkpt>
      <trkpt lat="34.05807" lon="77.1821">
        <ele>3799.4</ele>
        <time>2015-08-31T07:48:47Z</time>
      </trkpt>
      <trkpt lat="34.05806" lon="77.1821">
        <ele>3798.8</ele>
        <time>2015-08-31T07:48:50Z</time>
      </trkpt>
      <trkpt lat="34.05803" lon="77.18211">
        <ele>3798.2</ele>
        <time>2015-08-31T07:48:53Z</time>
      </trkpt>
      <trkpt lat="34.05801" lon="77.18209">
        <ele>3797.4</ele>
        <time>2015-08-31T07:48:56Z</time>
      </trkpt>
      <trkpt lat="34.05796" lon="77.18207">
        <ele>3797.2</ele>
        <time>2015-08-31T07:49:01Z</time>
      </trkpt>
      <trkpt lat="34.05786" lon="77.18225">
        <ele>3797.8</ele>
        <time>2015-08-31T07:49:12Z</time>
      </trkpt>
      <trkpt lat="34.05786" lon="77.18226">
        <ele>3797.6</ele>
        <time>2015-08-31T07:49:14Z</time>
      </trkpt>
      <trkpt lat="34.05786" lon="77.18226">
        <ele>3797.2</ele>
        <time>2015-08-31T07:49:15Z</time>
      </trkpt>
      <trkpt lat="34.05784" lon="77.18225">
        <ele>3795.6</ele>
        <time>2015-08-31T07:49:17Z</time>
      </trkpt>
      <trkpt lat="34.05783" lon="77.18224">
        <ele>3794.6</ele>
        <time>2015-08-31T07:49:18Z</time>
      </trkpt>
      <trkpt lat="34.05782" lon="77.18224">
        <ele>3793.4</ele>
        <time>2015-08-31T07:49:19Z</time>
      </trkpt>
      <trkpt lat="34.05782" lon="77.18222">
        <ele>3792.4</ele>
        <time>2015-08-31T07:49:21Z</time>
      </trkpt>
      <trkpt lat="34.05781" lon="77.18223">
        <ele>3792.2</ele>
        <time>2015-08-31T07:49:22Z</time>
      </trkpt>
      <trkpt lat="34.05775" lon="77.18227">
        <ele>3790.8</ele>
        <time>2015-08-31T07:49:33Z</time>
      </trkpt>
      <trkpt lat="34.05774" lon="77.18231">
        <ele>3790.2</ele>
        <time>2015-08-31T07:49:36Z</time>
      </trkpt>
      <trkpt lat="34.05773" lon="77.1823">
        <ele>3789.8</ele>
        <time>2015-08-31T07:49:37Z</time>
      </trkpt>
      <trkpt lat="34.05773" lon="77.18229">
        <ele>3789</ele>
        <time>2015-08-31T07:49:38Z</time>
      </trkpt>
      <trkpt lat="34.05772" lon="77.18228">
        <ele>3788.2</ele>
        <time>2015-08-31T07:49:39Z</time>
      </trkpt>
      <trkpt lat="34.05771" lon="77.18227">
        <ele>3787</ele>
        <time>2015-08-31T07:49:41Z</time>
      </trkpt>
      <trkpt lat="34.05759" lon="77.18219">
        <ele>3786</ele>
        <time>2015-08-31T07:49:55Z</time>
      </trkpt>
      <trkpt lat="34.05756" lon="77.18215">
        <ele>3784.6</ele>
        <time>2015-08-31T07:49:59Z</time>
      </trkpt>
      <trkpt lat="34.0575" lon="77.1821">
        <ele>3783.2</ele>
        <time>2015-08-31T07:50:05Z</time>
      </trkpt>
      <trkpt lat="34.05749" lon="77.1821">
        <ele>3782.8</ele>
        <time>2015-08-31T07:50:07Z</time>
      </trkpt>
      <trkpt lat="34.05746" lon="77.18217">
        <ele>3782.2</ele>
        <time>2015-08-31T07:50:11Z</time>
      </trkpt>
      <trkpt lat="34.05744" lon="77.18219">
        <ele>3782.2</ele>
        <time>2015-08-31T07:50:12Z</time>
      </trkpt>
      <trkpt lat="34.05734" lon="77.18232">
        <ele>3780.8</ele>
        <time>2015-08-31T07:50:20Z</time>
      </trkpt>
      <trkpt lat="34.05732" lon="77.18236">
        <ele>3779.8</ele>
        <time>2015-08-31T07:50:23Z</time>
      </trkpt>
      <trkpt lat="34.05731" lon="77.18237">
        <ele>3778.8</ele>
        <time>2015-08-31T07:50:25Z</time>
      </trkpt>
      <trkpt lat="34.0573" lon="77.18238">
        <ele>3778.6</ele>
        <time>2015-08-31T07:50:26Z</time>
      </trkpt>
      <trkpt lat="34.05728" lon="77.18239">
        <ele>3778.2</ele>
        <time>2015-08-31T07:50:28Z</time>
      </trkpt>
      <trkpt lat="34.05726" lon="77.18241">
        <ele>3778</ele>
        <time>2015-08-31T07:50:30Z</time>
      </trkpt>
      <trkpt lat="34.05725" lon="77.18244">
        <ele>3777.6</ele>
        <time>2015-08-31T07:50:34Z</time>
      </trkpt>
      <trkpt lat="34.05724" lon="77.1825">
        <ele>3776.4</ele>
        <time>2015-08-31T07:50:38Z</time>
      </trkpt>
      <trkpt lat="34.05722" lon="77.18252">
        <ele>3775.8</ele>
        <time>2015-08-31T07:50:41Z</time>
      </trkpt>
      <trkpt lat="34.05722" lon="77.18252">
        <ele>3775.2</ele>
        <time>2015-08-31T07:50:43Z</time>
      </trkpt>
      <trkpt lat="34.05721" lon="77.18251">
        <ele>3775</ele>
        <time>2015-08-31T07:50:44Z</time>
      </trkpt>
      <trkpt lat="34.05719" lon="77.18251">
        <ele>3774.6</ele>
        <time>2015-08-31T07:50:46Z</time>
      </trkpt>
      <trkpt lat="34.05715" lon="77.18255">
        <ele>3774.2</ele>
        <time>2015-08-31T07:50:53Z</time>
      </trkpt>
      <trkpt lat="34.05715" lon="77.18257">
        <ele>3774</ele>
        <time>2015-08-31T07:50:54Z</time>
      </trkpt>
      <trkpt lat="34.05716" lon="77.1826">
        <ele>3773.4</ele>
        <time>2015-08-31T07:50:57Z</time>
      </trkpt>
      <trkpt lat="34.05716" lon="77.1826">
        <ele>3772.8</ele>
        <time>2015-08-31T07:50:59Z</time>
      </trkpt>
      <trkpt lat="34.05715" lon="77.18263">
        <ele>3771.8</ele>
        <time>2015-08-31T07:51:03Z</time>
      </trkpt>
      <trkpt lat="34.05714" lon="77.18268">
        <ele>3770.4</ele>
        <time>2015-08-31T07:51:07Z</time>
      </trkpt>
      <trkpt lat="34.05713" lon="77.18271">
        <ele>3769.6</ele>
        <time>2015-08-31T07:51:10Z</time>
      </trkpt>
      <trkpt lat="34.05713" lon="77.18271">
        <ele>3769.4</ele>
        <time>2015-08-31T07:51:11Z</time>
      </trkpt>
      <trkpt lat="34.0571" lon="77.18271">
        <ele>3767.8</ele>
        <time>2015-08-31T07:51:19Z</time>
      </trkpt>
      <trkpt lat="34.05702" lon="77.18281">
        <ele>3766.6</ele>
        <time>2015-08-31T07:51:31Z</time>
      </trkpt>
      <trkpt lat="34.05701" lon="77.18285">
        <ele>3766.2</ele>
        <time>2015-08-31T07:51:34Z</time>
      </trkpt>
      <trkpt lat="34.05699" lon="77.18287">
        <ele>3766.2</ele>
        <time>2015-08-31T07:51:37Z</time>
      </trkpt>
      <trkpt lat="34.05696" lon="77.18289">
        <ele>3765.6</ele>
        <time>2015-08-31T07:51:40Z</time>
      </trkpt>
      <trkpt lat="34.05692" lon="77.18293">
        <ele>3764.4</ele>
        <time>2015-08-31T07:51:47Z</time>
      </trkpt>
      <trkpt lat="34.05685" lon="77.18298">
        <ele>3763.4</ele>
        <time>2015-08-31T07:51:55Z</time>
      </trkpt>
      <trkpt lat="34.05677" lon="77.18308">
        <ele>3762.4</ele>
        <time>2015-08-31T07:52:03Z</time>
      </trkpt>
      <trkpt lat="34.05676" lon="77.18308">
        <ele>3762.4</ele>
        <time>2015-08-31T07:52:04Z</time>
      </trkpt>
      <trkpt lat="34.05671" lon="77.18312">
        <ele>3761.8</ele>
        <time>2015-08-31T07:52:09Z</time>
      </trkpt>
      <trkpt lat="34.05671" lon="77.18316">
        <ele>3761.2</ele>
        <time>2015-08-31T07:52:13Z</time>
      </trkpt>
      <trkpt lat="34.05668" lon="77.18318">
        <ele>3761</ele>
        <time>2015-08-31T07:52:15Z</time>
      </trkpt>
      <trkpt lat="34.05664" lon="77.18319">
        <ele>3760.6</ele>
        <time>2015-08-31T07:52:17Z</time>
      </trkpt>
      <trkpt lat="34.05664" lon="77.18321">
        <ele>3760</ele>
        <time>2015-08-31T07:52:19Z</time>
      </trkpt>
      <trkpt lat="34.05664" lon="77.18322">
        <ele>3759.8</ele>
        <time>2015-08-31T07:52:21Z</time>
      </trkpt>
      <trkpt lat="34.05662" lon="77.18328">
        <ele>3759</ele>
        <time>2015-08-31T07:52:28Z</time>
      </trkpt>
      <trkpt lat="34.0566" lon="77.18329">
        <ele>3758.8</ele>
        <time>2015-08-31T07:52:29Z</time>
      </trkpt>
      <trkpt lat="34.05657" lon="77.1833">
        <ele>3758</ele>
        <time>2015-08-31T07:52:32Z</time>
      </trkpt>
      <trkpt lat="34.05656" lon="77.1833">
        <ele>3757.8</ele>
        <time>2015-08-31T07:52:33Z</time>
      </trkpt>
      <trkpt lat="34.05653" lon="77.18331">
        <ele>3757.2</ele>
        <time>2015-08-31T07:52:37Z</time>
      </trkpt>
      <trkpt lat="34.05651" lon="77.18331">
        <ele>3757</ele>
        <time>2015-08-31T07:52:39Z</time>
      </trkpt>
      <trkpt lat="34.05649" lon="77.18335">
        <ele>3756.8</ele>
        <time>2015-08-31T07:52:42Z</time>
      </trkpt>
      <trkpt lat="34.0565" lon="77.18336">
        <ele>3755.6</ele>
        <time>2015-08-31T07:52:48Z</time>
      </trkpt>
      <trkpt lat="34.05648" lon="77.18338">
        <ele>3754.4</ele>
        <time>2015-08-31T07:52:53Z</time>
      </trkpt>
      <trkpt lat="34.05645" lon="77.18342">
        <ele>3753.6</ele>
        <time>2015-08-31T07:52:57Z</time>
      </trkpt>
      <trkpt lat="34.05643" lon="77.18344">
        <ele>3753.2</ele>
        <time>2015-08-31T07:52:59Z</time>
      </trkpt>
      <trkpt lat="34.0564" lon="77.18347">
        <ele>3752.2</ele>
        <time>2015-08-31T07:53:05Z</time>
      </trkpt>
      <trkpt lat="34.05638" lon="77.18348">
        <ele>3751.2</ele>
        <time>2015-08-31T07:53:09Z</time>
      </trkpt>
      <trkpt lat="34.05632" lon="77.18347">
        <ele>3749.8</ele>
        <time>2015-08-31T07:53:14Z</time>
      </trkpt>
      <trkpt lat="34.05631" lon="77.18347">
        <ele>3749.4</ele>
        <time>2015-08-31T07:53:15Z</time>
      </trkpt>
      <trkpt lat="34.05629" lon="77.18347">
        <ele>3748.8</ele>
        <time>2015-08-31T07:53:17Z</time>
      </trkpt>
      <trkpt lat="34.05627" lon="77.1835">
        <ele>3748.8</ele>
        <time>2015-08-31T07:53:18Z</time>
      </trkpt>
      <trkpt lat="34.05623" lon="77.18351">
        <ele>3748.6</ele>
        <time>2015-08-31T07:53:22Z</time>
      </trkpt>
      <trkpt lat="34.05621" lon="77.1835">
        <ele>3747</ele>
        <time>2015-08-31T07:53:29Z</time>
      </trkpt>
      <trkpt lat="34.05619" lon="77.18347">
        <ele>3745.6</ele>
        <time>2015-08-31T07:53:32Z</time>
      </trkpt>
      <trkpt lat="34.05618" lon="77.18346">
        <ele>3745</ele>
        <time>2015-08-31T07:53:33Z</time>
      </trkpt>
      <trkpt lat="34.05611" lon="77.18352">
        <ele>3745.2</ele>
        <time>2015-08-31T07:53:40Z</time>
      </trkpt>
      <trkpt lat="34.05608" lon="77.18357">
        <ele>3745.2</ele>
        <time>2015-08-31T07:53:45Z</time>
      </trkpt>
      <trkpt lat="34.05606" lon="77.18357">
        <ele>3744</ele>
        <time>2015-08-31T07:53:47Z</time>
      </trkpt>
      <trkpt lat="34.05603" lon="77.18357">
        <ele>3742.8</ele>
        <time>2015-08-31T07:53:50Z</time>
      </trkpt>
      <trkpt lat="34.05596" lon="77.18358">
        <ele>3741.8</ele>
        <time>2015-08-31T07:53:56Z</time>
      </trkpt>
      <trkpt lat="34.05594" lon="77.18362">
        <ele>3741.6</ele>
        <time>2015-08-31T07:53:59Z</time>
      </trkpt>
      <trkpt lat="34.05591" lon="77.18373">
        <ele>3740.8</ele>
        <time>2015-08-31T07:54:05Z</time>
      </trkpt>
      <trkpt lat="34.0559" lon="77.18373">
        <ele>3740.4</ele>
        <time>2015-08-31T07:54:06Z</time>
      </trkpt>
      <trkpt lat="34.05589" lon="77.18375">
        <ele>3739.2</ele>
        <time>2015-08-31T07:54:08Z</time>
      </trkpt>
      <trkpt lat="34.05587" lon="77.18376">
        <ele>3738</ele>
        <time>2015-08-31T07:54:11Z</time>
      </trkpt>
      <trkpt lat="34.05584" lon="77.18379">
        <ele>3736.8</ele>
        <time>2015-08-31T07:54:16Z</time>
      </trkpt>
      <trkpt lat="34.05582" lon="77.18385">
        <ele>3735.6</ele>
        <time>2015-08-31T07:54:21Z</time>
      </trkpt>
      <trkpt lat="34.05582" lon="77.18386">
        <ele>3735.4</ele>
        <time>2015-08-31T07:54:23Z</time>
      </trkpt>
      <trkpt lat="34.05574" lon="77.1839">
        <ele>3734.4</ele>
        <time>2015-08-31T07:54:36Z</time>
      </trkpt>
      <trkpt lat="34.0557" lon="77.18392">
        <ele>3733.4</ele>
        <time>2015-08-31T07:54:41Z</time>
      </trkpt>
      <trkpt lat="34.0557" lon="77.18392">
        <ele>3733.4</ele>
        <time>2015-08-31T07:54:42Z</time>
      </trkpt>
      <trkpt lat="34.05567" lon="77.18395">
        <ele>3732.4</ele>
        <time>2015-08-31T07:54:56Z</time>
      </trkpt>
      <trkpt lat="34.05561" lon="77.18395">
        <ele>3732.4</ele>
        <time>2015-08-31T07:55:08Z</time>
      </trkpt>
      <trkpt lat="34.05556" lon="77.18394">
        <ele>3732</ele>
        <time>2015-08-31T07:55:14Z</time>
      </trkpt>
      <trkpt lat="34.0555" lon="77.18399">
        <ele>3731.6</ele>
        <time>2015-08-31T07:55:23Z</time>
      </trkpt>
      <trkpt lat="34.05548" lon="77.18405">
        <ele>3731.2</ele>
        <time>2015-08-31T07:55:26Z</time>
      </trkpt>
      <trkpt lat="34.05546" lon="77.18408">
        <ele>3730.6</ele>
        <time>2015-08-31T07:55:28Z</time>
      </trkpt>
      <trkpt lat="34.05545" lon="77.18411">
        <ele>3730.2</ele>
        <time>2015-08-31T07:55:30Z</time>
      </trkpt>
      <trkpt lat="34.05531" lon="77.18424">
        <ele>3729.6</ele>
        <time>2015-08-31T07:55:43Z</time>
      </trkpt>
      <trkpt lat="34.05529" lon="77.18423">
        <ele>3729.6</ele>
        <time>2015-08-31T07:55:46Z</time>
      </trkpt>
      <trkpt lat="34.05526" lon="77.18425">
        <ele>3729</ele>
        <time>2015-08-31T07:55:49Z</time>
      </trkpt>
      <trkpt lat="34.05525" lon="77.18426">
        <ele>3728.6</ele>
        <time>2015-08-31T07:55:50Z</time>
      </trkpt>
      <trkpt lat="34.05522" lon="77.18428">
        <ele>3727.8</ele>
        <time>2015-08-31T07:55:54Z</time>
      </trkpt>
      <trkpt lat="34.05516" lon="77.1843">
        <ele>3726.8</ele>
        <time>2015-08-31T07:56:02Z</time>
      </trkpt>
      <trkpt lat="34.05514" lon="77.18431">
        <ele>3725.8</ele>
        <time>2015-08-31T07:56:04Z</time>
      </trkpt>
      <trkpt lat="34.05512" lon="77.18433">
        <ele>3724.8</ele>
        <time>2015-08-31T07:56:07Z</time>
      </trkpt>
      <trkpt lat="34.05508" lon="77.18436">
        <ele>3723.8</ele>
        <time>2015-08-31T07:56:13Z</time>
      </trkpt>
      <trkpt lat="34.05507" lon="77.18439">
        <ele>3723.2</ele>
        <time>2015-08-31T07:56:15Z</time>
      </trkpt>
      <trkpt lat="34.05506" lon="77.1844">
        <ele>3722.8</ele>
        <time>2015-08-31T07:56:17Z</time>
      </trkpt>
      <trkpt lat="34.05504" lon="77.18443">
        <ele>3721.6</ele>
        <time>2015-08-31T07:56:22Z</time>
      </trkpt>
      <trkpt lat="34.055" lon="77.18442">
        <ele>3720.2</ele>
        <time>2015-08-31T07:56:26Z</time>
      </trkpt>
      <trkpt lat="34.05499" lon="77.18438">
        <ele>3719</ele>
        <time>2015-08-31T07:56:28Z</time>
      </trkpt>
      <trkpt lat="34.05493" lon="77.18445">
        <ele>3718.8</ele>
        <time>2015-08-31T07:56:36Z</time>
      </trkpt>
      <trkpt lat="34.05489" lon="77.18446">
        <ele>3717.6</ele>
        <time>2015-08-31T07:56:40Z</time>
      </trkpt>
      <trkpt lat="34.05485" lon="77.18448">
        <ele>3716.4</ele>
        <time>2015-08-31T07:56:45Z</time>
      </trkpt>
      <trkpt lat="34.05483" lon="77.18451">
        <ele>3715.2</ele>
        <time>2015-08-31T07:56:49Z</time>
      </trkpt>
      <trkpt lat="34.0548" lon="77.18449">
        <ele>3714</ele>
        <time>2015-08-31T07:56:55Z</time>
      </trkpt>
      <trkpt lat="34.05468" lon="77.18442">
        <ele>3713</ele>
        <time>2015-08-31T07:57:02Z</time>
      </trkpt>
      <trkpt lat="34.0546" lon="77.18442">
        <ele>3711.8</ele>
        <time>2015-08-31T07:57:07Z</time>
      </trkpt>
      <trkpt lat="34.05453" lon="77.18441">
        <ele>3710.8</ele>
        <time>2015-08-31T07:57:15Z</time>
      </trkpt>
      <trkpt lat="34.05449" lon="77.18451">
        <ele>3710</ele>
        <time>2015-08-31T07:57:23Z</time>
      </trkpt>
      <trkpt lat="34.0545" lon="77.18457">
        <ele>3709.8</ele>
        <time>2015-08-31T07:57:25Z</time>
      </trkpt>
      <trkpt lat="34.05447" lon="77.18464">
        <ele>3708.6</ele>
        <time>2015-08-31T07:57:31Z</time>
      </trkpt>
      <trkpt lat="34.05441" lon="77.18463">
        <ele>3707.6</ele>
        <time>2015-08-31T07:57:40Z</time>
      </trkpt>
      <trkpt lat="34.0544" lon="77.18473">
        <ele>3706.6</ele>
        <time>2015-08-31T07:57:49Z</time>
      </trkpt>
      <trkpt lat="34.05436" lon="77.18481">
        <ele>3705.6</ele>
        <time>2015-08-31T07:57:54Z</time>
      </trkpt>
      <trkpt lat="34.05435" lon="77.18482">
        <ele>3705.4</ele>
        <time>2015-08-31T07:57:55Z</time>
      </trkpt>
      <trkpt lat="34.05433" lon="77.18485">
        <ele>3704.8</ele>
        <time>2015-08-31T07:57:58Z</time>
      </trkpt>
      <trkpt lat="34.05432" lon="77.18484">
        <ele>3704.4</ele>
        <time>2015-08-31T07:58:00Z</time>
      </trkpt>
      <trkpt lat="34.0543" lon="77.18484">
        <ele>3703.2</ele>
        <time>2015-08-31T07:58:04Z</time>
      </trkpt>
      <trkpt lat="34.05428" lon="77.18485">
        <ele>3702.2</ele>
        <time>2015-08-31T07:58:08Z</time>
      </trkpt>
      <trkpt lat="34.05426" lon="77.18486">
        <ele>3701</ele>
        <time>2015-08-31T07:58:13Z</time>
      </trkpt>
      <trkpt lat="34.05423" lon="77.18486">
        <ele>3700</ele>
        <time>2015-08-31T07:58:20Z</time>
      </trkpt>
      <trkpt lat="34.0542" lon="77.18485">
        <ele>3699</ele>
        <time>2015-08-31T07:58:28Z</time>
      </trkpt>
      <trkpt lat="34.05417" lon="77.1849">
        <ele>3698.4</ele>
        <time>2015-08-31T07:58:31Z</time>
      </trkpt>
      <trkpt lat="34.05416" lon="77.18489">
        <ele>3697.8</ele>
        <time>2015-08-31T07:58:33Z</time>
      </trkpt>
      <trkpt lat="34.05414" lon="77.1849">
        <ele>3696.2</ele>
        <time>2015-08-31T07:58:35Z</time>
      </trkpt>
      <trkpt lat="34.05413" lon="77.1849">
        <ele>3695.2</ele>
        <time>2015-08-31T07:58:36Z</time>
      </trkpt>
      <trkpt lat="34.05411" lon="77.18487">
        <ele>3693.8</ele>
        <time>2015-08-31T07:58:38Z</time>
      </trkpt>
      <trkpt lat="34.05409" lon="77.18483">
        <ele>3692.8</ele>
        <time>2015-08-31T07:58:42Z</time>
      </trkpt>
      <trkpt lat="34.05411" lon="77.18484">
        <ele>3692.2</ele>
        <time>2015-08-31T07:58:47Z</time>
      </trkpt>
      <trkpt lat="34.05408" lon="77.18492">
        <ele>3692.2</ele>
        <time>2015-08-31T07:58:53Z</time>
      </trkpt>
      <trkpt lat="34.05403" lon="77.18495">
        <ele>3691.4</ele>
        <time>2015-08-31T07:58:57Z</time>
      </trkpt>
      <trkpt lat="34.054" lon="77.18496">
        <ele>3690.6</ele>
        <time>2015-08-31T07:59:00Z</time>
      </trkpt>
      <trkpt lat="34.054" lon="77.18497">
        <ele>3690.2</ele>
        <time>2015-08-31T07:59:01Z</time>
      </trkpt>
      <trkpt lat="34.054" lon="77.18498">
        <ele>3688.6</ele>
        <time>2015-08-31T07:59:03Z</time>
      </trkpt>
      <trkpt lat="34.05402" lon="77.18499">
        <ele>3687</ele>
        <time>2015-08-31T07:59:05Z</time>
      </trkpt>
      <trkpt lat="34.05403" lon="77.18502">
        <ele>3686.4</ele>
        <time>2015-08-31T07:59:07Z</time>
      </trkpt>
      <trkpt lat="34.054" lon="77.18489">
        <ele>3686</ele>
        <time>2015-08-31T07:59:29Z</time>
      </trkpt>
      <trkpt lat="34.05396" lon="77.18488">
        <ele>3685.8</ele>
        <time>2015-08-31T07:59:35Z</time>
      </trkpt>
      <trkpt lat="34.05395" lon="77.18488">
        <ele>3686</ele>
        <time>2015-08-31T07:59:37Z</time>
      </trkpt>
      <trkpt lat="34.05391" lon="77.18485">
        <ele>3684.6</ele>
        <time>2015-08-31T07:59:42Z</time>
      </trkpt>
      <trkpt lat="34.05391" lon="77.18485">
        <ele>3684.4</ele>
        <time>2015-08-31T07:59:43Z</time>
      </trkpt>
      <trkpt lat="34.05395" lon="77.18476">
        <ele>3684.4</ele>
        <time>2015-08-31T08:00:11Z</time>
      </trkpt>
      <trkpt lat="34.05396" lon="77.18476">
        <ele>3684.4</ele>
        <time>2015-08-31T08:00:13Z</time>
      </trkpt>
      <trkpt lat="34.05399" lon="77.18462">
        <ele>3684.6</ele>
        <time>2015-08-31T08:01:10Z</time>
      </trkpt>
      <trkpt lat="34.05397" lon="77.18472">
        <ele>3685</ele>
        <time>2015-08-31T08:01:33Z</time>
      </trkpt>
      <trkpt lat="34.05387" lon="77.1848">
        <ele>3684.2</ele>
        <time>2015-08-31T08:02:13Z</time>
      </trkpt>
      <trkpt lat="34.05386" lon="77.18478">
        <ele>3683.4</ele>
        <time>2015-08-31T08:02:16Z</time>
      </trkpt>
      <trkpt lat="34.05385" lon="77.18472">
        <ele>3682.4</ele>
        <time>2015-08-31T08:02:20Z</time>
      </trkpt>
      <trkpt lat="34.05385" lon="77.1847">
        <ele>3681.4</ele>
        <time>2015-08-31T08:02:24Z</time>
      </trkpt>
      <trkpt lat="34.05385" lon="77.1847">
        <ele>3681.2</ele>
        <time>2015-08-31T08:02:25Z</time>
      </trkpt>
      <trkpt lat="34.05382" lon="77.18476">
        <ele>3680.2</ele>
        <time>2015-08-31T08:02:36Z</time>
      </trkpt>
      <trkpt lat="34.05381" lon="77.18484">
        <ele>3679</ele>
        <time>2015-08-31T08:02:42Z</time>
      </trkpt>
      <trkpt lat="34.05381" lon="77.18486">
        <ele>3678.8</ele>
        <time>2015-08-31T08:02:44Z</time>
      </trkpt>
      <trkpt lat="34.0538" lon="77.18488">
        <ele>3678</ele>
        <time>2015-08-31T08:02:47Z</time>
      </trkpt>
      <trkpt lat="34.05383" lon="77.18478">
        <ele>3677.4</ele>
        <time>2015-08-31T08:03:00Z</time>
      </trkpt>
      <trkpt lat="34.05381" lon="77.1848">
        <ele>3677.4</ele>
        <time>2015-08-31T08:03:03Z</time>
      </trkpt>
      <trkpt lat="34.05379" lon="77.18481">
        <ele>3677.4</ele>
        <time>2015-08-31T08:03:05Z</time>
      </trkpt>
      <trkpt lat="34.05374" lon="77.18482">
        <ele>3677</ele>
        <time>2015-08-31T08:03:13Z</time>
      </trkpt>
      <trkpt lat="34.05369" lon="77.18482">
        <ele>3675.8</ele>
        <time>2015-08-31T08:03:19Z</time>
      </trkpt>
      <trkpt lat="34.05365" lon="77.18479">
        <ele>3675.2</ele>
        <time>2015-08-31T08:03:23Z</time>
      </trkpt>
      <trkpt lat="34.05364" lon="77.18482">
        <ele>3674.6</ele>
        <time>2015-08-31T08:03:26Z</time>
      </trkpt>
      <trkpt lat="34.05363" lon="77.18479">
        <ele>3673.8</ele>
        <time>2015-08-31T08:03:29Z</time>
      </trkpt>
      <trkpt lat="34.05361" lon="77.18477">
        <ele>3673.4</ele>
        <time>2015-08-31T08:03:31Z</time>
      </trkpt>
      <trkpt lat="34.05357" lon="77.18478">
        <ele>3672.2</ele>
        <time>2015-08-31T08:03:35Z</time>
      </trkpt>
      <trkpt lat="34.05352" lon="77.18477">
        <ele>3671</ele>
        <time>2015-08-31T08:03:39Z</time>
      </trkpt>
      <trkpt lat="34.05351" lon="77.18478">
        <ele>3670.6</ele>
        <time>2015-08-31T08:03:41Z</time>
      </trkpt>
      <trkpt lat="34.0535" lon="77.18479">
        <ele>3670</ele>
        <time>2015-08-31T08:03:43Z</time>
      </trkpt>
      <trkpt lat="34.05347" lon="77.1848">
        <ele>3668.8</ele>
        <time>2015-08-31T08:03:47Z</time>
      </trkpt>
      <trkpt lat="34.05343" lon="77.18479">
        <ele>3667.6</ele>
        <time>2015-08-31T08:03:51Z</time>
      </trkpt>
      <trkpt lat="34.0534" lon="77.1848">
        <ele>3666.4</ele>
        <time>2015-08-31T08:03:55Z</time>
      </trkpt>
      <trkpt lat="34.05336" lon="77.18476">
        <ele>3665.4</ele>
        <time>2015-08-31T08:03:59Z</time>
      </trkpt>
      <trkpt lat="34.05333" lon="77.18473">
        <ele>3664.2</ele>
        <time>2015-08-31T08:04:03Z</time>
      </trkpt>
      <trkpt lat="34.05332" lon="77.1847">
        <ele>3663</ele>
        <time>2015-08-31T08:04:07Z</time>
      </trkpt>
      <trkpt lat="34.05332" lon="77.18469">
        <ele>3662.8</ele>
        <time>2015-08-31T08:04:08Z</time>
      </trkpt>
      <trkpt lat="34.0533" lon="77.18469">
        <ele>3662</ele>
        <time>2015-08-31T08:04:11Z</time>
      </trkpt>
      <trkpt lat="34.05326" lon="77.18471">
        <ele>3660.8</ele>
        <time>2015-08-31T08:04:16Z</time>
      </trkpt>
      <trkpt lat="34.05321" lon="77.18476">
        <ele>3659.8</ele>
        <time>2015-08-31T08:04:20Z</time>
      </trkpt>
      <trkpt lat="34.05319" lon="77.18477">
        <ele>3659.4</ele>
        <time>2015-08-31T08:04:22Z</time>
      </trkpt>
      <trkpt lat="34.05316" lon="77.18478">
        <ele>3658.6</ele>
        <time>2015-08-31T08:04:25Z</time>
      </trkpt>
      <trkpt lat="34.05312" lon="77.18474">
        <ele>3657.4</ele>
        <time>2015-08-31T08:04:30Z</time>
      </trkpt>
      <trkpt lat="34.05311" lon="77.18473">
        <ele>3657.2</ele>
        <time>2015-08-31T08:04:31Z</time>
      </trkpt>
      <trkpt lat="34.05308" lon="77.18472">
        <ele>3656.4</ele>
        <time>2015-08-31T08:04:35Z</time>
      </trkpt>
      <trkpt lat="34.05305" lon="77.18473">
        <ele>3655.4</ele>
        <time>2015-08-31T08:04:39Z</time>
      </trkpt>
      <trkpt lat="34.05302" lon="77.18474">
        <ele>3654.4</ele>
        <time>2015-08-31T08:04:42Z</time>
      </trkpt>
      <trkpt lat="34.05299" lon="77.18476">
        <ele>3653.2</ele>
        <time>2015-08-31T08:04:46Z</time>
      </trkpt>
      <trkpt lat="34.05297" lon="77.18473">
        <ele>3652.4</ele>
        <time>2015-08-31T08:04:50Z</time>
      </trkpt>
      <trkpt lat="34.05296" lon="77.18473">
        <ele>3652</ele>
        <time>2015-08-31T08:04:51Z</time>
      </trkpt>
      <trkpt lat="34.05295" lon="77.18472">
        <ele>3651.8</ele>
        <time>2015-08-31T08:04:52Z</time>
      </trkpt>
      <trkpt lat="34.05292" lon="77.18469">
        <ele>3651</ele>
        <time>2015-08-31T08:04:55Z</time>
      </trkpt>
      <trkpt lat="34.05292" lon="77.18468">
        <ele>3649.8</ele>
        <time>2015-08-31T08:04:59Z</time>
      </trkpt>
      <trkpt lat="34.0529" lon="77.18467">
        <ele>3648.6</ele>
        <time>2015-08-31T08:05:04Z</time>
      </trkpt>
      <trkpt lat="34.05286" lon="77.18463">
        <ele>3647.6</ele>
        <time>2015-08-31T08:05:10Z</time>
      </trkpt>
      <trkpt lat="34.05282" lon="77.18459">
        <ele>3646.6</ele>
        <time>2015-08-31T08:05:13Z</time>
      </trkpt>
      <trkpt lat="34.05282" lon="77.18461">
        <ele>3646.2</ele>
        <time>2015-08-31T08:05:14Z</time>
      </trkpt>
      <trkpt lat="34.05278" lon="77.18462">
        <ele>3645</ele>
        <time>2015-08-31T08:05:18Z</time>
      </trkpt>
      <trkpt lat="34.05275" lon="77.18461">
        <ele>3643.8</ele>
        <time>2015-08-31T08:05:22Z</time>
      </trkpt>
      <trkpt lat="34.05272" lon="77.18464">
        <ele>3642.8</ele>
        <time>2015-08-31T08:05:27Z</time>
      </trkpt>
      <trkpt lat="34.05272" lon="77.18466">
        <ele>3642.6</ele>
        <time>2015-08-31T08:05:28Z</time>
      </trkpt>
      <trkpt lat="34.05268" lon="77.18474">
        <ele>3641.8</ele>
        <time>2015-08-31T08:05:32Z</time>
      </trkpt>
      <trkpt lat="34.05268" lon="77.18475">
        <ele>3641.6</ele>
        <time>2015-08-31T08:05:33Z</time>
      </trkpt>
      <trkpt lat="34.05266" lon="77.18479">
        <ele>3641</ele>
        <time>2015-08-31T08:05:36Z</time>
      </trkpt>
      <trkpt lat="34.05262" lon="77.18486">
        <ele>3640.8</ele>
        <time>2015-08-31T08:05:40Z</time>
      </trkpt>
      <trkpt lat="34.05261" lon="77.18488">
        <ele>3640.6</ele>
        <time>2015-08-31T08:05:42Z</time>
      </trkpt>
      <trkpt lat="34.05257" lon="77.18493">
        <ele>3640.2</ele>
        <time>2015-08-31T08:05:47Z</time>
      </trkpt>
      <trkpt lat="34.05248" lon="77.18489">
        <ele>3639.6</ele>
        <time>2015-08-31T08:05:55Z</time>
      </trkpt>
      <trkpt lat="34.05246" lon="77.18489">
        <ele>3638.8</ele>
        <time>2015-08-31T08:05:58Z</time>
      </trkpt>
      <trkpt lat="34.05245" lon="77.18489">
        <ele>3638.6</ele>
        <time>2015-08-31T08:05:59Z</time>
      </trkpt>
      <trkpt lat="34.05244" lon="77.18489">
        <ele>3638.2</ele>
        <time>2015-08-31T08:06:01Z</time>
      </trkpt>
      <trkpt lat="34.05242" lon="77.18489">
        <ele>3637.8</ele>
        <time>2015-08-31T08:06:03Z</time>
      </trkpt>
      <trkpt lat="34.0524" lon="77.18489">
        <ele>3637.4</ele>
        <time>2015-08-31T08:06:05Z</time>
      </trkpt>
      <trkpt lat="34.05239" lon="77.18489">
        <ele>3637.4</ele>
        <time>2015-08-31T08:06:06Z</time>
      </trkpt>
      <trkpt lat="34.05234" lon="77.18488">
        <ele>3636.6</ele>
        <time>2015-08-31T08:06:11Z</time>
      </trkpt>
      <trkpt lat="34.05233" lon="77.18488">
        <ele>3636.4</ele>
        <time>2015-08-31T08:06:12Z</time>
      </trkpt>
      <trkpt lat="34.0523" lon="77.18484">
        <ele>3635.4</ele>
        <time>2015-08-31T08:06:19Z</time>
      </trkpt>
      <trkpt lat="34.05228" lon="77.18485">
        <ele>3634.8</ele>
        <time>2015-08-31T08:06:22Z</time>
      </trkpt>
      <trkpt lat="34.05226" lon="77.18485">
        <ele>3634.2</ele>
        <time>2015-08-31T08:06:25Z</time>
      </trkpt>
      <trkpt lat="34.0522" lon="77.18487">
        <ele>3633.4</ele>
        <time>2015-08-31T08:06:37Z</time>
      </trkpt>
      <trkpt lat="34.05219" lon="77.18487">
        <ele>3633.2</ele>
        <time>2015-08-31T08:06:39Z</time>
      </trkpt>
      <trkpt lat="34.05218" lon="77.18486">
        <ele>3633</ele>
        <time>2015-08-31T08:06:40Z</time>
      </trkpt>
      <trkpt lat="34.05215" lon="77.18481">
        <ele>3632.4</ele>
        <time>2015-08-31T08:06:45Z</time>
      </trkpt>
      <trkpt lat="34.05212" lon="77.18477">
        <ele>3631.8</ele>
        <time>2015-08-31T08:06:48Z</time>
      </trkpt>
      <trkpt lat="34.05211" lon="77.18478">
        <ele>3631.4</ele>
        <time>2015-08-31T08:06:50Z</time>
      </trkpt>
      <trkpt lat="34.05211" lon="77.18479">
        <ele>3630.8</ele>
        <time>2015-08-31T08:06:52Z</time>
      </trkpt>
      <trkpt lat="34.05204" lon="77.18483">
        <ele>3630.4</ele>
        <time>2015-08-31T08:07:03Z</time>
      </trkpt>
      <trkpt lat="34.05204" lon="77.18479">
        <ele>3629.6</ele>
        <time>2015-08-31T08:07:05Z</time>
      </trkpt>
      <trkpt lat="34.05203" lon="77.18477">
        <ele>3628.6</ele>
        <time>2015-08-31T08:07:08Z</time>
      </trkpt>
      <trkpt lat="34.05205" lon="77.1847">
        <ele>3627.4</ele>
        <time>2015-08-31T08:07:18Z</time>
      </trkpt>
      <trkpt lat="34.05209" lon="77.18472">
        <ele>3626.4</ele>
        <time>2015-08-31T08:07:21Z</time>
      </trkpt>
      <trkpt lat="34.05213" lon="77.18473">
        <ele>3625.6</ele>
        <time>2015-08-31T08:07:27Z</time>
      </trkpt>
      <trkpt lat="34.05212" lon="77.18471">
        <ele>3625.2</ele>
        <time>2015-08-31T08:07:33Z</time>
      </trkpt>
      <trkpt lat="34.05217" lon="77.18466">
        <ele>3624.4</ele>
        <time>2015-08-31T08:07:40Z</time>
      </trkpt>
      <trkpt lat="34.05217" lon="77.18465">
        <ele>3624.2</ele>
        <time>2015-08-31T08:07:41Z</time>
      </trkpt>
      <trkpt lat="34.05219" lon="77.18464">
        <ele>3623.8</ele>
        <time>2015-08-31T08:07:43Z</time>
      </trkpt>
      <trkpt lat="34.05222" lon="77.18465">
        <ele>3623</ele>
        <time>2015-08-31T08:07:47Z</time>
      </trkpt>
      <trkpt lat="34.05224" lon="77.18465">
        <ele>3621.8</ele>
        <time>2015-08-31T08:07:52Z</time>
      </trkpt>
      <trkpt lat="34.05234" lon="77.18462">
        <ele>3621</ele>
        <time>2015-08-31T08:08:05Z</time>
      </trkpt>
      <trkpt lat="34.05235" lon="77.18461">
        <ele>3620.8</ele>
        <time>2015-08-31T08:08:06Z</time>
      </trkpt>
      <trkpt lat="34.05239" lon="77.18456">
        <ele>3619.8</ele>
        <time>2015-08-31T08:08:10Z</time>
      </trkpt>
      <trkpt lat="34.05239" lon="77.18455">
        <ele>3619.6</ele>
        <time>2015-08-31T08:08:11Z</time>
      </trkpt>
      <trkpt lat="34.05243" lon="77.1844">
        <ele>3618.6</ele>
        <time>2015-08-31T08:08:20Z</time>
      </trkpt>
      <trkpt lat="34.05241" lon="77.18432">
        <ele>3615.2</ele>
        <time>2015-08-31T08:08:41Z</time>
      </trkpt>
      <trkpt lat="34.05247" lon="77.18427">
        <ele>3614</ele>
        <time>2015-08-31T08:09:03Z</time>
      </trkpt>
      <trkpt lat="34.05244" lon="77.18425">
        <ele>3613</ele>
        <time>2015-08-31T08:09:07Z</time>
      </trkpt>
      <trkpt lat="34.05239" lon="77.18417">
        <ele>3612.6</ele>
        <time>2015-08-31T08:09:09Z</time>
      </trkpt>
      <trkpt lat="34.05232" lon="77.18412">
        <ele>3611.8</ele>
        <time>2015-08-31T08:09:13Z</time>
      </trkpt>
      <trkpt lat="34.05231" lon="77.18412">
        <ele>3611.8</ele>
        <time>2015-08-31T08:09:14Z</time>
      </trkpt>
      <trkpt lat="34.05224" lon="77.18411">
        <ele>3610.6</ele>
        <time>2015-08-31T08:09:19Z</time>
      </trkpt>
      <trkpt lat="34.05219" lon="77.1841">
        <ele>3610.2</ele>
        <time>2015-08-31T08:09:25Z</time>
      </trkpt>
      <trkpt lat="34.05217" lon="77.18413">
        <ele>3609.6</ele>
        <time>2015-08-31T08:09:28Z</time>
      </trkpt>
      <trkpt lat="34.05215" lon="77.18416">
        <ele>3608.8</ele>
        <time>2015-08-31T08:09:31Z</time>
      </trkpt>
      <trkpt lat="34.05214" lon="77.18419">
        <ele>3608.4</ele>
        <time>2015-08-31T08:09:33Z</time>
      </trkpt>
      <trkpt lat="34.05209" lon="77.1841">
        <ele>3607.4</ele>
        <time>2015-08-31T08:09:45Z</time>
      </trkpt>
      <trkpt lat="34.05207" lon="77.18409">
        <ele>3606</ele>
        <time>2015-08-31T08:09:49Z</time>
      </trkpt>
      <trkpt lat="34.05203" lon="77.18411">
        <ele>3604.6</ele>
        <time>2015-08-31T08:09:54Z</time>
      </trkpt>
      <trkpt lat="34.052" lon="77.1842">
        <ele>3603.6</ele>
        <time>2015-08-31T08:09:58Z</time>
      </trkpt>
      <trkpt lat="34.05199" lon="77.18421">
        <ele>3603.4</ele>
        <time>2015-08-31T08:09:59Z</time>
      </trkpt>
      <trkpt lat="34.05196" lon="77.18421">
        <ele>3602.4</ele>
        <time>2015-08-31T08:10:02Z</time>
      </trkpt>
      <trkpt lat="34.05194" lon="77.1842">
        <ele>3601.4</ele>
        <time>2015-08-31T08:10:06Z</time>
      </trkpt>
      <trkpt lat="34.0519" lon="77.18421">
        <ele>3600.2</ele>
        <time>2015-08-31T08:10:10Z</time>
      </trkpt>
      <trkpt lat="34.05186" lon="77.18422">
        <ele>3599</ele>
        <time>2015-08-31T08:10:15Z</time>
      </trkpt>
      <trkpt lat="34.05181" lon="77.1842">
        <ele>3597.8</ele>
        <time>2015-08-31T08:10:20Z</time>
      </trkpt>
      <trkpt lat="34.05181" lon="77.18419">
        <ele>3597.2</ele>
        <time>2015-08-31T08:10:22Z</time>
      </trkpt>
      <trkpt lat="34.05177" lon="77.18424">
        <ele>3596.8</ele>
        <time>2015-08-31T08:10:33Z</time>
      </trkpt>
      <trkpt lat="34.05177" lon="77.18425">
        <ele>3596.6</ele>
        <time>2015-08-31T08:10:34Z</time>
      </trkpt>
      <trkpt lat="34.05174" lon="77.18418">
        <ele>3595.8</ele>
        <time>2015-08-31T08:10:43Z</time>
      </trkpt>
      <trkpt lat="34.05172" lon="77.18417">
        <ele>3595.6</ele>
        <time>2015-08-31T08:10:45Z</time>
      </trkpt>
      <trkpt lat="34.05171" lon="77.18417">
        <ele>3595.2</ele>
        <time>2015-08-31T08:10:46Z</time>
      </trkpt>
      <trkpt lat="34.05169" lon="77.18419">
        <ele>3594.6</ele>
        <time>2015-08-31T08:10:49Z</time>
      </trkpt>
      <trkpt lat="34.05169" lon="77.1842">
        <ele>3594.2</ele>
        <time>2015-08-31T08:10:50Z</time>
      </trkpt>
      <trkpt lat="34.05166" lon="77.18422">
        <ele>3593</ele>
        <time>2015-08-31T08:10:56Z</time>
      </trkpt>
      <trkpt lat="34.05165" lon="77.18422">
        <ele>3591.8</ele>
        <time>2015-08-31T08:11:01Z</time>
      </trkpt>
      <trkpt lat="34.05165" lon="77.18421">
        <ele>3590.6</ele>
        <time>2015-08-31T08:11:06Z</time>
      </trkpt>
      <trkpt lat="34.0516" lon="77.18417">
        <ele>3589.6</ele>
        <time>2015-08-31T08:11:12Z</time>
      </trkpt>
      <trkpt lat="34.05158" lon="77.18417">
        <ele>3588.8</ele>
        <time>2015-08-31T08:11:15Z</time>
      </trkpt>
      <trkpt lat="34.05157" lon="77.18417">
        <ele>3588.6</ele>
        <time>2015-08-31T08:11:16Z</time>
      </trkpt>
      <trkpt lat="34.05156" lon="77.18425">
        <ele>3587.6</ele>
        <time>2015-08-31T08:11:25Z</time>
      </trkpt>
      <trkpt lat="34.05156" lon="77.18426">
        <ele>3587.4</ele>
        <time>2015-08-31T08:11:26Z</time>
      </trkpt>
      <trkpt lat="34.05155" lon="77.18427">
        <ele>3586.2</ele>
        <time>2015-08-31T08:11:30Z</time>
      </trkpt>
      <trkpt lat="34.05154" lon="77.18434">
        <ele>3585.2</ele>
        <time>2015-08-31T08:11:33Z</time>
      </trkpt>
      <trkpt lat="34.05154" lon="77.18435">
        <ele>3585</ele>
        <time>2015-08-31T08:11:34Z</time>
      </trkpt>
      <trkpt lat="34.05154" lon="77.18438">
        <ele>3584</ele>
        <time>2015-08-31T08:11:38Z</time>
      </trkpt>
      <trkpt lat="34.05152" lon="77.18441">
        <ele>3583.2</ele>
        <time>2015-08-31T08:11:41Z</time>
      </trkpt>
      <trkpt lat="34.05151" lon="77.18443">
        <ele>3583</ele>
        <time>2015-08-31T08:11:43Z</time>
      </trkpt>
      <trkpt lat="34.0515" lon="77.18445">
        <ele>3582.4</ele>
        <time>2015-08-31T08:11:45Z</time>
      </trkpt>
      <trkpt lat="34.05149" lon="77.18445">
        <ele>3581.6</ele>
        <time>2015-08-31T08:11:47Z</time>
      </trkpt>
      <trkpt lat="34.05146" lon="77.18444">
        <ele>3580.6</ele>
        <time>2015-08-31T08:11:52Z</time>
      </trkpt>
      <trkpt lat="34.05147" lon="77.18448">
        <ele>3579.6</ele>
        <time>2015-08-31T08:11:57Z</time>
      </trkpt>
      <trkpt lat="34.05145" lon="77.18451">
        <ele>3578.4</ele>
        <time>2015-08-31T08:12:02Z</time>
      </trkpt>
      <trkpt lat="34.05142" lon="77.1845">
        <ele>3577.2</ele>
        <time>2015-08-31T08:12:07Z</time>
      </trkpt>
      <trkpt lat="34.05139" lon="77.18447">
        <ele>3576</ele>
        <time>2015-08-31T08:12:11Z</time>
      </trkpt>
      <trkpt lat="34.05139" lon="77.18452">
        <ele>3575.4</ele>
        <time>2015-08-31T08:12:13Z</time>
      </trkpt>
      <trkpt lat="34.05138" lon="77.18454">
        <ele>3575</ele>
        <time>2015-08-31T08:12:16Z</time>
      </trkpt>
      <trkpt lat="34.05141" lon="77.18445">
        <ele>3574</ele>
        <time>2015-08-31T08:12:26Z</time>
      </trkpt>
      <trkpt lat="34.05145" lon="77.18447">
        <ele>3574.4</ele>
        <time>2015-08-31T08:12:54Z</time>
      </trkpt>
      <trkpt lat="34.05138" lon="77.18454">
        <ele>3574.2</ele>
        <time>2015-08-31T08:12:58Z</time>
      </trkpt>
      <trkpt lat="34.05134" lon="77.18452">
        <ele>3572.6</ele>
        <time>2015-08-31T08:13:02Z</time>
      </trkpt>
      <trkpt lat="34.0513" lon="77.18451">
        <ele>3571.8</ele>
        <time>2015-08-31T08:13:08Z</time>
      </trkpt>
      <trkpt lat="34.05129" lon="77.1845">
        <ele>3571.6</ele>
        <time>2015-08-31T08:13:09Z</time>
      </trkpt>
      <trkpt lat="34.05126" lon="77.18449">
        <ele>3571</ele>
        <time>2015-08-31T08:13:13Z</time>
      </trkpt>
      <trkpt lat="34.05124" lon="77.18454">
        <ele>3570.4</ele>
        <time>2015-08-31T08:13:16Z</time>
      </trkpt>
      <trkpt lat="34.05122" lon="77.18451">
        <ele>3569.8</ele>
        <time>2015-08-31T08:13:19Z</time>
      </trkpt>
      <trkpt lat="34.05125" lon="77.18461">
        <ele>3569.2</ele>
        <time>2015-08-31T08:13:23Z</time>
      </trkpt>
      <trkpt lat="34.05125" lon="77.18465">
        <ele>3568</ele>
        <time>2015-08-31T08:13:26Z</time>
      </trkpt>
      <trkpt lat="34.05114" lon="77.18467">
        <ele>3567</ele>
        <time>2015-08-31T08:13:48Z</time>
      </trkpt>
      <trkpt lat="34.05109" lon="77.18466">
        <ele>3566</ele>
        <time>2015-08-31T08:13:53Z</time>
      </trkpt>
      <trkpt lat="34.05108" lon="77.18468">
        <ele>3565.8</ele>
        <time>2015-08-31T08:13:54Z</time>
      </trkpt>
      <trkpt lat="34.05104" lon="77.18472">
        <ele>3565.2</ele>
        <time>2015-08-31T08:13:59Z</time>
      </trkpt>
      <trkpt lat="34.051" lon="77.18472">
        <ele>3565</ele>
        <time>2015-08-31T08:14:02Z</time>
      </trkpt>
      <trkpt lat="34.05096" lon="77.18475">
        <ele>3563.8</ele>
        <time>2015-08-31T08:14:06Z</time>
      </trkpt>
      <trkpt lat="34.0509" lon="77.18481">
        <ele>3562.6</ele>
        <time>2015-08-31T08:14:11Z</time>
      </trkpt>
      <trkpt lat="34.05084" lon="77.18488">
        <ele>3561.4</ele>
        <time>2015-08-31T08:14:17Z</time>
      </trkpt>
      <trkpt lat="34.05082" lon="77.18492">
        <ele>3560.6</ele>
        <time>2015-08-31T08:14:20Z</time>
      </trkpt>
      <trkpt lat="34.05082" lon="77.18492">
        <ele>3560.4</ele>
        <time>2015-08-31T08:14:21Z</time>
      </trkpt>
      <trkpt lat="34.05079" lon="77.18495">
        <ele>3559.4</ele>
        <time>2015-08-31T08:14:29Z</time>
      </trkpt>
      <trkpt lat="34.05078" lon="77.18497">
        <ele>3559.2</ele>
        <time>2015-08-31T08:14:30Z</time>
      </trkpt>
      <trkpt lat="34.05075" lon="77.18501">
        <ele>3558.8</ele>
        <time>2015-08-31T08:14:33Z</time>
      </trkpt>
      <trkpt lat="34.05071" lon="77.18501">
        <ele>3558.4</ele>
        <time>2015-08-31T08:14:38Z</time>
      </trkpt>
      <trkpt lat="34.05071" lon="77.185">
        <ele>3558.2</ele>
        <time>2015-08-31T08:14:39Z</time>
      </trkpt>
      <trkpt lat="34.05068" lon="77.18507">
        <ele>3557.8</ele>
        <time>2015-08-31T08:14:47Z</time>
      </trkpt>
      <trkpt lat="34.05065" lon="77.18513">
        <ele>3557.2</ele>
        <time>2015-08-31T08:14:53Z</time>
      </trkpt>
      <trkpt lat="34.05059" lon="77.18523">
        <ele>3556.4</ele>
        <time>2015-08-31T08:14:58Z</time>
      </trkpt>
      <trkpt lat="34.05058" lon="77.18525">
        <ele>3556.2</ele>
        <time>2015-08-31T08:15:00Z</time>
      </trkpt>
      <trkpt lat="34.0505" lon="77.18535">
        <ele>3555</ele>
        <time>2015-08-31T08:15:08Z</time>
      </trkpt>
      <trkpt lat="34.05045" lon="77.18537">
        <ele>3554</ele>
        <time>2015-08-31T08:15:14Z</time>
      </trkpt>
      <trkpt lat="34.05042" lon="77.18539">
        <ele>3552.6</ele>
        <time>2015-08-31T08:15:21Z</time>
      </trkpt>
      <trkpt lat="34.05036" lon="77.18539">
        <ele>3551.6</ele>
        <time>2015-08-31T08:15:26Z</time>
      </trkpt>
      <trkpt lat="34.05032" lon="77.18549">
        <ele>3550.6</ele>
        <time>2015-08-31T08:15:32Z</time>
      </trkpt>
      <trkpt lat="34.05032" lon="77.18549">
        <ele>3550.4</ele>
        <time>2015-08-31T08:15:33Z</time>
      </trkpt>
      <trkpt lat="34.05032" lon="77.18547">
        <ele>3550.2</ele>
        <time>2015-08-31T08:15:35Z</time>
      </trkpt>
      <trkpt lat="34.05033" lon="77.18543">
        <ele>3550.2</ele>
        <time>2015-08-31T08:15:39Z</time>
      </trkpt>
      <trkpt lat="34.05032" lon="77.18536">
        <ele>3551.2</ele>
        <time>2015-08-31T08:15:46Z</time>
      </trkpt>
      <trkpt lat="34.05034" lon="77.18541">
        <ele>3550.6</ele>
        <time>2015-08-31T08:15:52Z</time>
      </trkpt>
      <trkpt lat="34.05036" lon="77.18542">
        <ele>3551.2</ele>
        <time>2015-08-31T08:16:01Z</time>
      </trkpt>
      <trkpt lat="34.05033" lon="77.18547">
        <ele>3551.2</ele>
        <time>2015-08-31T08:16:03Z</time>
      </trkpt>
      <trkpt lat="34.05041" lon="77.18539">
        <ele>3550.2</ele>
        <time>2015-08-31T08:16:43Z</time>
      </trkpt>
      <trkpt lat="34.05047" lon="77.18525">
        <ele>3551.4</ele>
        <time>2015-08-31T08:17:18Z</time>
      </trkpt>
      <trkpt lat="34.05048" lon="77.18519">
        <ele>3550.2</ele>
        <time>2015-08-31T08:17:29Z</time>
      </trkpt>
      <trkpt lat="34.05047" lon="77.18521">
        <ele>3549.6</ele>
        <time>2015-08-31T08:17:31Z</time>
      </trkpt>
      <trkpt lat="34.05045" lon="77.18522">
        <ele>3549.4</ele>
        <time>2015-08-31T08:17:32Z</time>
      </trkpt>
      <trkpt lat="34.05041" lon="77.18525">
        <ele>3549.2</ele>
        <time>2015-08-31T08:17:35Z</time>
      </trkpt>
      <trkpt lat="34.05039" lon="77.18529">
        <ele>3549.2</ele>
        <time>2015-08-31T08:17:38Z</time>
      </trkpt>
      <trkpt lat="34.05039" lon="77.18538">
        <ele>3549.8</ele>
        <time>2015-08-31T08:17:55Z</time>
      </trkpt>
      <trkpt lat="34.05042" lon="77.18545">
        <ele>3550.4</ele>
        <time>2015-08-31T08:18:36Z</time>
      </trkpt>
      <trkpt lat="34.05037" lon="77.18548">
        <ele>3550</ele>
        <time>2015-08-31T08:18:41Z</time>
      </trkpt>
      <trkpt lat="34.05034" lon="77.18547">
        <ele>3550</ele>
        <time>2015-08-31T08:18:45Z</time>
      </trkpt>
      <trkpt lat="34.05036" lon="77.18544">
        <ele>3549.4</ele>
        <time>2015-08-31T08:19:01Z</time>
      </trkpt>
      <trkpt lat="34.05037" lon="77.18536">
        <ele>3549.6</ele>
        <time>2015-08-31T08:19:08Z</time>
      </trkpt>
      <trkpt lat="34.05034" lon="77.18535">
        <ele>3549.8</ele>
        <time>2015-08-31T08:19:29Z</time>
      </trkpt>
      <trkpt lat="34.05036" lon="77.18539">
        <ele>3549.6</ele>
        <time>2015-08-31T08:19:41Z</time>
      </trkpt>
      <trkpt lat="34.05035" lon="77.18546">
        <ele>3549.2</ele>
        <time>2015-08-31T08:19:49Z</time>
      </trkpt>
      <trkpt lat="34.05033" lon="77.18545">
        <ele>3549.4</ele>
        <time>2015-08-31T08:19:51Z</time>
      </trkpt>
      <trkpt lat="34.05034" lon="77.18552">
        <ele>3549.4</ele>
        <time>2015-08-31T08:19:56Z</time>
      </trkpt>
      <trkpt lat="34.05032" lon="77.18541">
        <ele>3548.4</ele>
        <time>2015-08-31T08:20:11Z</time>
      </trkpt>
      <trkpt lat="34.05029" lon="77.18536">
        <ele>3548.4</ele>
        <time>2015-08-31T08:20:12Z</time>
      </trkpt>
      <trkpt lat="34.05029" lon="77.18525">
        <ele>3548.2</ele>
        <time>2015-08-31T08:20:32Z</time>
      </trkpt>
      <trkpt lat="34.05044" lon="77.18535">
        <ele>3548.2</ele>
        <time>2015-08-31T08:20:50Z</time>
      </trkpt>
      <trkpt lat="34.05042" lon="77.18533">
        <ele>3547.8</ele>
        <time>2015-08-31T08:20:55Z</time>
      </trkpt>
      <trkpt lat="34.05037" lon="77.18545">
        <ele>3548</ele>
        <time>2015-08-31T08:21:06Z</time>
      </trkpt>
      <trkpt lat="34.05034" lon="77.18547">
        <ele>3547.6</ele>
        <time>2015-08-31T08:21:37Z</time>
      </trkpt>
      <trkpt lat="34.05032" lon="77.18547">
        <ele>3547.2</ele>
        <time>2015-08-31T08:21:59Z</time>
      </trkpt>
      <trkpt lat="34.05027" lon="77.18536">
        <ele>3547.2</ele>
        <time>2015-08-31T08:22:05Z</time>
      </trkpt>
      <trkpt lat="34.05025" lon="77.18529">
        <ele>3547.2</ele>
        <time>2015-08-31T08:22:08Z</time>
      </trkpt>
      <trkpt lat="34.0503" lon="77.18536">
        <ele>3546.2</ele>
        <time>2015-08-31T08:22:24Z</time>
      </trkpt>
      <trkpt lat="34.05029" lon="77.18537">
        <ele>3546.2</ele>
        <time>2015-08-31T08:22:25Z</time>
      </trkpt>
      <trkpt lat="34.05024" lon="77.18556">
        <ele>3546</ele>
        <time>2015-08-31T08:22:37Z</time>
      </trkpt>
      <trkpt lat="34.05022" lon="77.18556">
        <ele>3546</ele>
        <time>2015-08-31T08:22:39Z</time>
      </trkpt>
      <trkpt lat="34.05018" lon="77.18558">
        <ele>3545.2</ele>
        <time>2015-08-31T08:22:43Z</time>
      </trkpt>
      <trkpt lat="34.05017" lon="77.1856">
        <ele>3545</ele>
        <time>2015-08-31T08:22:44Z</time>
      </trkpt>
      <trkpt lat="34.05016" lon="77.18562">
        <ele>3544.6</ele>
        <time>2015-08-31T08:22:47Z</time>
      </trkpt>
      <trkpt lat="34.05014" lon="77.18561">
        <ele>3544</ele>
        <time>2015-08-31T08:22:52Z</time>
      </trkpt>
      <trkpt lat="34.0501" lon="77.18559">
        <ele>3543.6</ele>
        <time>2015-08-31T08:22:54Z</time>
      </trkpt>
      <trkpt lat="34.05007" lon="77.18564">
        <ele>3543</ele>
        <time>2015-08-31T08:22:57Z</time>
      </trkpt>
      <trkpt lat="34.05002" lon="77.18582">
        <ele>3542.6</ele>
        <time>2015-08-31T08:23:06Z</time>
      </trkpt>
      <trkpt lat="34.05001" lon="77.18586">
        <ele>3542</ele>
        <time>2015-08-31T08:23:10Z</time>
      </trkpt>
      <trkpt lat="34.05001" lon="77.18587">
        <ele>3542</ele>
        <time>2015-08-31T08:23:11Z</time>
      </trkpt>
      <trkpt lat="34.04994" lon="77.18595">
        <ele>3540.8</ele>
        <time>2015-08-31T08:23:20Z</time>
      </trkpt>
      <trkpt lat="34.04986" lon="77.18598">
        <ele>3541.4</ele>
        <time>2015-08-31T08:23:28Z</time>
      </trkpt>
      <trkpt lat="34.0497" lon="77.18593">
        <ele>3540.6</ele>
        <time>2015-08-31T08:23:41Z</time>
      </trkpt>
      <trkpt lat="34.04961" lon="77.18596">
        <ele>3539.8</ele>
        <time>2015-08-31T08:23:53Z</time>
      </trkpt>
      <trkpt lat="34.04954" lon="77.18597">
        <ele>3539</ele>
        <time>2015-08-31T08:24:01Z</time>
      </trkpt>
      <trkpt lat="34.04953" lon="77.18597">
        <ele>3538.8</ele>
        <time>2015-08-31T08:24:02Z</time>
      </trkpt>
      <trkpt lat="34.04951" lon="77.18598">
        <ele>3537.8</ele>
        <time>2015-08-31T08:24:04Z</time>
      </trkpt>
      <trkpt lat="34.04946" lon="77.18599">
        <ele>3536.6</ele>
        <time>2015-08-31T08:24:08Z</time>
      </trkpt>
      <trkpt lat="34.04942" lon="77.18601">
        <ele>3536.4</ele>
        <time>2015-08-31T08:24:12Z</time>
      </trkpt>
      <trkpt lat="34.04935" lon="77.18605">
        <ele>3535.6</ele>
        <time>2015-08-31T08:24:18Z</time>
      </trkpt>
      <trkpt lat="34.0493" lon="77.18607">
        <ele>3534.6</ele>
        <time>2015-08-31T08:24:22Z</time>
      </trkpt>
      <trkpt lat="34.04927" lon="77.18608">
        <ele>3534.4</ele>
        <time>2015-08-31T08:24:24Z</time>
      </trkpt>
      <trkpt lat="34.04918" lon="77.18606">
        <ele>3533.4</ele>
        <time>2015-08-31T08:24:31Z</time>
      </trkpt>
      <trkpt lat="34.04918" lon="77.18606">
        <ele>3533.2</ele>
        <time>2015-08-31T08:24:32Z</time>
      </trkpt>
      <trkpt lat="34.04914" lon="77.18606">
        <ele>3531.8</ele>
        <time>2015-08-31T08:24:35Z</time>
      </trkpt>
      <trkpt lat="34.04912" lon="77.18607">
        <ele>3530.6</ele>
        <time>2015-08-31T08:24:37Z</time>
      </trkpt>
      <trkpt lat="34.0491" lon="77.18609">
        <ele>3530</ele>
        <time>2015-08-31T08:24:39Z</time>
      </trkpt>
      <trkpt lat="34.04907" lon="77.18609">
        <ele>3529.6</ele>
        <time>2015-08-31T08:24:42Z</time>
      </trkpt>
      <trkpt lat="34.04899" lon="77.18611">
        <ele>3528.4</ele>
        <time>2015-08-31T08:24:50Z</time>
      </trkpt>
      <trkpt lat="34.04893" lon="77.18612">
        <ele>3527.6</ele>
        <time>2015-08-31T08:24:58Z</time>
      </trkpt>
      <trkpt lat="34.04891" lon="77.18612">
        <ele>3527.4</ele>
        <time>2015-08-31T08:24:59Z</time>
      </trkpt>
      <trkpt lat="34.04878" lon="77.18605">
        <ele>3526.8</ele>
        <time>2015-08-31T08:25:14Z</time>
      </trkpt>
      <trkpt lat="34.04875" lon="77.18605">
        <ele>3526.2</ele>
        <time>2015-08-31T08:25:17Z</time>
      </trkpt>
      <trkpt lat="34.04871" lon="77.18603">
        <ele>3525</ele>
        <time>2015-08-31T08:25:22Z</time>
      </trkpt>
      <trkpt lat="34.04869" lon="77.18601">
        <ele>3524.8</ele>
        <time>2015-08-31T08:25:24Z</time>
      </trkpt>
      <trkpt lat="34.04866" lon="77.18601">
        <ele>3524.6</ele>
        <time>2015-08-31T08:25:26Z</time>
      </trkpt>
      <trkpt lat="34.04858" lon="77.18605">
        <ele>3524.8</ele>
        <time>2015-08-31T08:25:35Z</time>
      </trkpt>
      <trkpt lat="34.04856" lon="77.18609">
        <ele>3524</ele>
        <time>2015-08-31T08:25:39Z</time>
      </trkpt>
      <trkpt lat="34.04856" lon="77.18609">
        <ele>3523.8</ele>
        <time>2015-08-31T08:25:40Z</time>
      </trkpt>
      <trkpt lat="34.04849" lon="77.1861">
        <ele>3522.8</ele>
        <time>2015-08-31T08:25:49Z</time>
      </trkpt>
      <trkpt lat="34.04846" lon="77.18613">
        <ele>3522.6</ele>
        <time>2015-08-31T08:25:54Z</time>
      </trkpt>
      <trkpt lat="34.04843" lon="77.18612">
        <ele>3522.6</ele>
        <time>2015-08-31T08:25:57Z</time>
      </trkpt>
      <trkpt lat="34.04837" lon="77.18612">
        <ele>3522.6</ele>
        <time>2015-08-31T08:26:01Z</time>
      </trkpt>
      <trkpt lat="34.04835" lon="77.18617">
        <ele>3522.6</ele>
        <time>2015-08-31T08:26:05Z</time>
      </trkpt>
      <trkpt lat="34.04835" lon="77.18621">
        <ele>3522.8</ele>
        <time>2015-08-31T08:26:07Z</time>
      </trkpt>
      <trkpt lat="34.04832" lon="77.18624">
        <ele>3522.8</ele>
        <time>2015-08-31T08:26:11Z</time>
      </trkpt>
      <trkpt lat="34.04825" lon="77.18628">
        <ele>3522</ele>
        <time>2015-08-31T08:26:20Z</time>
      </trkpt>
      <trkpt lat="34.04823" lon="77.18628">
        <ele>3521.6</ele>
        <time>2015-08-31T08:26:22Z</time>
      </trkpt>
      <trkpt lat="34.04818" lon="77.18629">
        <ele>3520.4</ele>
        <time>2015-08-31T08:26:27Z</time>
      </trkpt>
      <trkpt lat="34.04816" lon="77.1863">
        <ele>3520</ele>
        <time>2015-08-31T08:26:29Z</time>
      </trkpt>
      <trkpt lat="34.04813" lon="77.18632">
        <ele>3519.8</ele>
        <time>2015-08-31T08:26:32Z</time>
      </trkpt>
      <trkpt lat="34.04811" lon="77.1863">
        <ele>3519.4</ele>
        <time>2015-08-31T08:26:34Z</time>
      </trkpt>
      <trkpt lat="34.04802" lon="77.18633">
        <ele>3518.6</ele>
        <time>2015-08-31T08:26:41Z</time>
      </trkpt>
      <trkpt lat="34.04801" lon="77.18633">
        <ele>3518.2</ele>
        <time>2015-08-31T08:26:42Z</time>
      </trkpt>
      <trkpt lat="34.04798" lon="77.18636">
        <ele>3517.4</ele>
        <time>2015-08-31T08:26:45Z</time>
      </trkpt>
      <trkpt lat="34.04797" lon="77.18636">
        <ele>3517.2</ele>
        <time>2015-08-31T08:26:46Z</time>
      </trkpt>
      <trkpt lat="34.04796" lon="77.18637">
        <ele>3517</ele>
        <time>2015-08-31T08:26:47Z</time>
      </trkpt>
      <trkpt lat="34.0479" lon="77.18647">
        <ele>3516.4</ele>
        <time>2015-08-31T08:26:53Z</time>
      </trkpt>
      <trkpt lat="34.0479" lon="77.18648">
        <ele>3516.2</ele>
        <time>2015-08-31T08:26:54Z</time>
      </trkpt>
      <trkpt lat="34.04789" lon="77.18649">
        <ele>3516</ele>
        <time>2015-08-31T08:26:55Z</time>
      </trkpt>
      <trkpt lat="34.04784" lon="77.18654">
        <ele>3515</ele>
        <time>2015-08-31T08:27:01Z</time>
      </trkpt>
      <trkpt lat="34.04782" lon="77.18657">
        <ele>3514</ele>
        <time>2015-08-31T08:27:06Z</time>
      </trkpt>
      <trkpt lat="34.0478" lon="77.1866">
        <ele>3512.8</ele>
        <time>2015-08-31T08:27:10Z</time>
      </trkpt>
      <trkpt lat="34.04779" lon="77.18661">
        <ele>3512.6</ele>
        <time>2015-08-31T08:27:11Z</time>
      </trkpt>
      <trkpt lat="34.04777" lon="77.18668">
        <ele>3512</ele>
        <time>2015-08-31T08:27:16Z</time>
      </trkpt>
      <trkpt lat="34.04777" lon="77.18672">
        <ele>3511.8</ele>
        <time>2015-08-31T08:27:18Z</time>
      </trkpt>
      <trkpt lat="34.04776" lon="77.18673">
        <ele>3511.2</ele>
        <time>2015-08-31T08:27:20Z</time>
      </trkpt>
      <trkpt lat="34.04773" lon="77.18674">
        <ele>3510.8</ele>
        <time>2015-08-31T08:27:23Z</time>
      </trkpt>
      <trkpt lat="34.04772" lon="77.18674">
        <ele>3510.6</ele>
        <time>2015-08-31T08:27:24Z</time>
      </trkpt>
      <trkpt lat="34.04764" lon="77.18681">
        <ele>3510.2</ele>
        <time>2015-08-31T08:27:30Z</time>
      </trkpt>
      <trkpt lat="34.04762" lon="77.18687">
        <ele>3509.6</ele>
        <time>2015-08-31T08:27:34Z</time>
      </trkpt>
      <trkpt lat="34.04755" lon="77.18697">
        <ele>3508.4</ele>
        <time>2015-08-31T08:27:44Z</time>
      </trkpt>
      <trkpt lat="34.04749" lon="77.18705">
        <ele>3507.2</ele>
        <time>2015-08-31T08:27:51Z</time>
      </trkpt>
      <trkpt lat="34.04746" lon="77.1871">
        <ele>3506.2</ele>
        <time>2015-08-31T08:27:56Z</time>
      </trkpt>
      <trkpt lat="34.04746" lon="77.18711">
        <ele>3506</ele>
        <time>2015-08-31T08:27:57Z</time>
      </trkpt>
      <trkpt lat="34.04742" lon="77.18714">
        <ele>3505.2</ele>
        <time>2015-08-31T08:28:03Z</time>
      </trkpt>
      <trkpt lat="34.04739" lon="77.18726">
        <ele>3504</ele>
        <time>2015-08-31T08:28:13Z</time>
      </trkpt>
      <trkpt lat="34.04733" lon="77.18739">
        <ele>3503</ele>
        <time>2015-08-31T08:28:23Z</time>
      </trkpt>
      <trkpt lat="34.04724" lon="77.18751">
        <ele>3502.6</ele>
        <time>2015-08-31T08:28:36Z</time>
      </trkpt>
      <trkpt lat="34.04721" lon="77.18754">
        <ele>3501.8</ele>
        <time>2015-08-31T08:28:40Z</time>
      </trkpt>
      <trkpt lat="34.0472" lon="77.18758">
        <ele>3500.2</ele>
        <time>2015-08-31T08:28:42Z</time>
      </trkpt>
      <trkpt lat="34.04719" lon="77.18762">
        <ele>3499.6</ele>
        <time>2015-08-31T08:28:44Z</time>
      </trkpt>
      <trkpt lat="34.04715" lon="77.18769">
        <ele>3501.4</ele>
        <time>2015-08-31T08:28:49Z</time>
      </trkpt>
      <trkpt lat="34.04708" lon="77.18772">
        <ele>3501</ele>
        <time>2015-08-31T08:28:57Z</time>
      </trkpt>
      <trkpt lat="34.04705" lon="77.18774">
        <ele>3500.8</ele>
        <time>2015-08-31T08:29:00Z</time>
      </trkpt>
      <trkpt lat="34.04703" lon="77.1878">
        <ele>3500.2</ele>
        <time>2015-08-31T08:29:05Z</time>
      </trkpt>
      <trkpt lat="34.04702" lon="77.18786">
        <ele>3499.2</ele>
        <time>2015-08-31T08:29:10Z</time>
      </trkpt>
      <trkpt lat="34.04702" lon="77.18788">
        <ele>3498.8</ele>
        <time>2015-08-31T08:29:11Z</time>
      </trkpt>
      <trkpt lat="34.04702" lon="77.1879">
        <ele>3498.6</ele>
        <time>2015-08-31T08:29:13Z</time>
      </trkpt>
      <trkpt lat="34.04699" lon="77.18794">
        <ele>3498.4</ele>
        <time>2015-08-31T08:29:18Z</time>
      </trkpt>
      <trkpt lat="34.04698" lon="77.18795">
        <ele>3498.4</ele>
        <time>2015-08-31T08:29:20Z</time>
      </trkpt>
      <trkpt lat="34.04697" lon="77.18796">
        <ele>3498.2</ele>
        <time>2015-08-31T08:29:22Z</time>
      </trkpt>
      <trkpt lat="34.04695" lon="77.18797">
        <ele>3497.6</ele>
        <time>2015-08-31T08:29:24Z</time>
      </trkpt>
      <trkpt lat="34.04693" lon="77.18801">
        <ele>3496.6</ele>
        <time>2015-08-31T08:29:28Z</time>
      </trkpt>
      <trkpt lat="34.04692" lon="77.18803">
        <ele>3495.8</ele>
        <time>2015-08-31T08:29:30Z</time>
      </trkpt>
      <trkpt lat="34.0469" lon="77.18804">
        <ele>3495.4</ele>
        <time>2015-08-31T08:29:32Z</time>
      </trkpt>
      <trkpt lat="34.04685" lon="77.18813">
        <ele>3495</ele>
        <time>2015-08-31T08:29:40Z</time>
      </trkpt>
      <trkpt lat="34.04682" lon="77.18818">
        <ele>3494.8</ele>
        <time>2015-08-31T08:29:44Z</time>
      </trkpt>
      <trkpt lat="34.04678" lon="77.18823">
        <ele>3494.4</ele>
        <time>2015-08-31T08:29:51Z</time>
      </trkpt>
      <trkpt lat="34.04675" lon="77.18825">
        <ele>3493.4</ele>
        <time>2015-08-31T08:29:54Z</time>
      </trkpt>
      <trkpt lat="34.04674" lon="77.18826">
        <ele>3493.2</ele>
        <time>2015-08-31T08:29:55Z</time>
      </trkpt>
      <trkpt lat="34.04673" lon="77.18827">
        <ele>3493.2</ele>
        <time>2015-08-31T08:29:57Z</time>
      </trkpt>
      <trkpt lat="34.04667" lon="77.18831">
        <ele>3493</ele>
        <time>2015-08-31T08:30:04Z</time>
      </trkpt>
      <trkpt lat="34.04666" lon="77.18841">
        <ele>3492.6</ele>
        <time>2015-08-31T08:30:11Z</time>
      </trkpt>
      <trkpt lat="34.04665" lon="77.18843">
        <ele>3492.6</ele>
        <time>2015-08-31T08:30:14Z</time>
      </trkpt>
      <trkpt lat="34.04663" lon="77.18846">
        <ele>3492.8</ele>
        <time>2015-08-31T08:30:17Z</time>
      </trkpt>
      <trkpt lat="34.04661" lon="77.18852">
        <ele>3492.8</ele>
        <time>2015-08-31T08:30:21Z</time>
      </trkpt>
      <trkpt lat="34.04654" lon="77.18863">
        <ele>3492.2</ele>
        <time>2015-08-31T08:30:33Z</time>
      </trkpt>
      <trkpt lat="34.04653" lon="77.18864">
        <ele>3491.8</ele>
        <time>2015-08-31T08:30:35Z</time>
      </trkpt>
      <trkpt lat="34.04652" lon="77.18865">
        <ele>3491.4</ele>
        <time>2015-08-31T08:30:37Z</time>
      </trkpt>
      <trkpt lat="34.04652" lon="77.18866">
        <ele>3491.2</ele>
        <time>2015-08-31T08:30:38Z</time>
      </trkpt>
      <trkpt lat="34.04653" lon="77.18883">
        <ele>3490.4</ele>
        <time>2015-08-31T08:30:50Z</time>
      </trkpt>
      <trkpt lat="34.04653" lon="77.18884">
        <ele>3490</ele>
        <time>2015-08-31T08:30:51Z</time>
      </trkpt>
      <trkpt lat="34.04652" lon="77.18885">
        <ele>3489.6</ele>
        <time>2015-08-31T08:30:52Z</time>
      </trkpt>
      <trkpt lat="34.04651" lon="77.18887">
        <ele>3489</ele>
        <time>2015-08-31T08:30:54Z</time>
      </trkpt>
      <trkpt lat="34.0465" lon="77.18889">
        <ele>3488.8</ele>
        <time>2015-08-31T08:30:55Z</time>
      </trkpt>
      <trkpt lat="34.04648" lon="77.18897">
        <ele>3488</ele>
        <time>2015-08-31T08:31:01Z</time>
      </trkpt>
      <trkpt lat="34.04648" lon="77.18898">
        <ele>3487.8</ele>
        <time>2015-08-31T08:31:02Z</time>
      </trkpt>
      <trkpt lat="34.04647" lon="77.18905">
        <ele>3486.6</ele>
        <time>2015-08-31T08:31:07Z</time>
      </trkpt>
      <trkpt lat="34.04646" lon="77.18907">
        <ele>3486</ele>
        <time>2015-08-31T08:31:09Z</time>
      </trkpt>
      <trkpt lat="34.04646" lon="77.18907">
        <ele>3485.4</ele>
        <time>2015-08-31T08:31:10Z</time>
      </trkpt>
      <trkpt lat="34.04644" lon="77.18909">
        <ele>3484.2</ele>
        <time>2015-08-31T08:31:12Z</time>
      </trkpt>
      <trkpt lat="34.04642" lon="77.1891">
        <ele>3483.6</ele>
        <time>2015-08-31T08:31:14Z</time>
      </trkpt>
      <trkpt lat="34.04641" lon="77.1891">
        <ele>3483.2</ele>
        <time>2015-08-31T08:31:15Z</time>
      </trkpt>
      <trkpt lat="34.04641" lon="77.18911">
        <ele>3482.6</ele>
        <time>2015-08-31T08:31:16Z</time>
      </trkpt>
      <trkpt lat="34.0464" lon="77.1891">
        <ele>3482.2</ele>
        <time>2015-08-31T08:31:17Z</time>
      </trkpt>
      <trkpt lat="34.04638" lon="77.18911">
        <ele>3481.6</ele>
        <time>2015-08-31T08:31:19Z</time>
      </trkpt>
      <trkpt lat="34.04637" lon="77.18926">
        <ele>3481.6</ele>
        <time>2015-08-31T08:31:31Z</time>
      </trkpt>
      <trkpt lat="34.04636" lon="77.18937">
        <ele>3481.4</ele>
        <time>2015-08-31T08:31:40Z</time>
      </trkpt>
      <trkpt lat="34.04636" lon="77.18944">
        <ele>3481</ele>
        <time>2015-08-31T08:31:47Z</time>
      </trkpt>
      <trkpt lat="34.04629" lon="77.18948">
        <ele>3481.4</ele>
        <time>2015-08-31T08:32:00Z</time>
      </trkpt>
      <trkpt lat="34.04626" lon="77.1896">
        <ele>3480.4</ele>
        <time>2015-08-31T08:32:07Z</time>
      </trkpt>
      <trkpt lat="34.04624" lon="77.18963">
        <ele>3480</ele>
        <time>2015-08-31T08:32:10Z</time>
      </trkpt>
      <trkpt lat="34.04623" lon="77.18964">
        <ele>3480</ele>
        <time>2015-08-31T08:32:11Z</time>
      </trkpt>
      <trkpt lat="34.04619" lon="77.18965">
        <ele>3479.4</ele>
        <time>2015-08-31T08:32:14Z</time>
      </trkpt>
      <trkpt lat="34.04617" lon="77.18968">
        <ele>3479</ele>
        <time>2015-08-31T08:32:17Z</time>
      </trkpt>
      <trkpt lat="34.04615" lon="77.18975">
        <ele>3479</ele>
        <time>2015-08-31T08:32:21Z</time>
      </trkpt>
      <trkpt lat="34.04612" lon="77.1898">
        <ele>3478.8</ele>
        <time>2015-08-31T08:32:26Z</time>
      </trkpt>
      <trkpt lat="34.04611" lon="77.18982">
        <ele>3478.6</ele>
        <time>2015-08-31T08:32:28Z</time>
      </trkpt>
      <trkpt lat="34.04606" lon="77.18993">
        <ele>3478</ele>
        <time>2015-08-31T08:32:38Z</time>
      </trkpt>
      <trkpt lat="34.04605" lon="77.18995">
        <ele>3477.8</ele>
        <time>2015-08-31T08:32:39Z</time>
      </trkpt>
      <trkpt lat="34.04599" lon="77.19001">
        <ele>3477.4</ele>
        <time>2015-08-31T08:32:44Z</time>
      </trkpt>
      <trkpt lat="34.04591" lon="77.19019">
        <ele>3477.2</ele>
        <time>2015-08-31T08:32:59Z</time>
      </trkpt>
      <trkpt lat="34.04589" lon="77.19022">
        <ele>3477</ele>
        <time>2015-08-31T08:33:01Z</time>
      </trkpt>
      <trkpt lat="34.04588" lon="77.19023">
        <ele>3476.8</ele>
        <time>2015-08-31T08:33:02Z</time>
      </trkpt>
      <trkpt lat="34.04586" lon="77.19025">
        <ele>3475.6</ele>
        <time>2015-08-31T08:33:04Z</time>
      </trkpt>
      <trkpt lat="34.04585" lon="77.19026">
        <ele>3474.8</ele>
        <time>2015-08-31T08:33:05Z</time>
      </trkpt>
      <trkpt lat="34.04584" lon="77.19026">
        <ele>3474</ele>
        <time>2015-08-31T08:33:06Z</time>
      </trkpt>
      <trkpt lat="34.04581" lon="77.19026">
        <ele>3473</ele>
        <time>2015-08-31T08:33:08Z</time>
      </trkpt>
      <trkpt lat="34.04577" lon="77.19027">
        <ele>3472</ele>
        <time>2015-08-31T08:33:12Z</time>
      </trkpt>
      <trkpt lat="34.04576" lon="77.19028">
        <ele>3471.8</ele>
        <time>2015-08-31T08:33:13Z</time>
      </trkpt>
      <trkpt lat="34.04574" lon="77.1903">
        <ele>3470.4</ele>
        <time>2015-08-31T08:33:16Z</time>
      </trkpt>
      <trkpt lat="34.0457" lon="77.1904">
        <ele>3469.4</ele>
        <time>2015-08-31T08:33:24Z</time>
      </trkpt>
      <trkpt lat="34.04569" lon="77.19042">
        <ele>3469.4</ele>
        <time>2015-08-31T08:33:25Z</time>
      </trkpt>
      <trkpt lat="34.04569" lon="77.19043">
        <ele>3469</ele>
        <time>2015-08-31T08:33:27Z</time>
      </trkpt>
      <trkpt lat="34.04568" lon="77.19046">
        <ele>3468.4</ele>
        <time>2015-08-31T08:33:30Z</time>
      </trkpt>
      <trkpt lat="34.04567" lon="77.19049">
        <ele>3467</ele>
        <time>2015-08-31T08:33:37Z</time>
      </trkpt>
      <trkpt lat="34.04568" lon="77.19054">
        <ele>3465.8</ele>
        <time>2015-08-31T08:34:04Z</time>
      </trkpt>
      <trkpt lat="34.04566" lon="77.19054">
        <ele>3464.4</ele>
        <time>2015-08-31T08:34:06Z</time>
      </trkpt>
      <trkpt lat="34.04563" lon="77.19059">
        <ele>3463.2</ele>
        <time>2015-08-31T08:34:15Z</time>
      </trkpt>
      <trkpt lat="34.04562" lon="77.19068">
        <ele>3462.2</ele>
        <time>2015-08-31T08:34:24Z</time>
      </trkpt>
      <trkpt lat="34.04562" lon="77.19072">
        <ele>3462.2</ele>
        <time>2015-08-31T08:34:27Z</time>
      </trkpt>
      <trkpt lat="34.04561" lon="77.19075">
        <ele>3460.6</ele>
        <time>2015-08-31T08:34:30Z</time>
      </trkpt>
      <trkpt lat="34.0456" lon="77.19077">
        <ele>3459.2</ele>
        <time>2015-08-31T08:34:32Z</time>
      </trkpt>
      <trkpt lat="34.04559" lon="77.19078">
        <ele>3458</ele>
        <time>2015-08-31T08:34:34Z</time>
      </trkpt>
      <trkpt lat="34.04557" lon="77.19083">
        <ele>3456.8</ele>
        <time>2015-08-31T08:34:39Z</time>
      </trkpt>
      <trkpt lat="34.04553" lon="77.19081">
        <ele>3457.4</ele>
        <time>2015-08-31T08:34:46Z</time>
      </trkpt>
      <trkpt lat="34.04549" lon="77.19088">
        <ele>3457</ele>
        <time>2015-08-31T08:34:53Z</time>
      </trkpt>
      <trkpt lat="34.04548" lon="77.19089">
        <ele>3456.6</ele>
        <time>2015-08-31T08:34:55Z</time>
      </trkpt>
      <trkpt lat="34.04547" lon="77.19089">
        <ele>3455.6</ele>
        <time>2015-08-31T08:34:57Z</time>
      </trkpt>
      <trkpt lat="34.04545" lon="77.19089">
        <ele>3454.4</ele>
        <time>2015-08-31T08:35:00Z</time>
      </trkpt>
      <trkpt lat="34.04542" lon="77.19087">
        <ele>3453.6</ele>
        <time>2015-08-31T08:35:04Z</time>
      </trkpt>
      <trkpt lat="34.0454" lon="77.19086">
        <ele>3453</ele>
        <time>2015-08-31T08:35:05Z</time>
      </trkpt>
      <trkpt lat="34.04537" lon="77.19086">
        <ele>3452</ele>
        <time>2015-08-31T08:35:08Z</time>
      </trkpt>
      <trkpt lat="34.04533" lon="77.19088">
        <ele>3451.2</ele>
        <time>2015-08-31T08:35:13Z</time>
      </trkpt>
      <trkpt lat="34.04533" lon="77.19089">
        <ele>3451</ele>
        <time>2015-08-31T08:35:14Z</time>
      </trkpt>
      <trkpt lat="34.04532" lon="77.19092">
        <ele>3450.6</ele>
        <time>2015-08-31T08:35:16Z</time>
      </trkpt>
      <trkpt lat="34.04532" lon="77.19095">
        <ele>3449.8</ele>
        <time>2015-08-31T08:35:19Z</time>
      </trkpt>
      <trkpt lat="34.04532" lon="77.19097">
        <ele>3449.2</ele>
        <time>2015-08-31T08:35:21Z</time>
      </trkpt>
      <trkpt lat="34.04533" lon="77.19097">
        <ele>3448.8</ele>
        <time>2015-08-31T08:35:23Z</time>
      </trkpt>
      <trkpt lat="34.04534" lon="77.19099">
        <ele>3447.6</ele>
        <time>2015-08-31T08:35:28Z</time>
      </trkpt>
      <trkpt lat="34.04534" lon="77.19104">
        <ele>3446.6</ele>
        <time>2015-08-31T08:35:34Z</time>
      </trkpt>
      <trkpt lat="34.04535" lon="77.19108">
        <ele>3445.4</ele>
        <time>2015-08-31T08:35:41Z</time>
      </trkpt>
      <trkpt lat="34.04535" lon="77.19113">
        <ele>3444.8</ele>
        <time>2015-08-31T08:35:50Z</time>
      </trkpt>
      <trkpt lat="34.04533" lon="77.19114">
        <ele>3444.4</ele>
        <time>2015-08-31T08:35:53Z</time>
      </trkpt>
      <trkpt lat="34.04532" lon="77.19118">
        <ele>3443.4</ele>
        <time>2015-08-31T08:36:09Z</time>
      </trkpt>
      <trkpt lat="34.04533" lon="77.19126">
        <ele>3442.4</ele>
        <time>2015-08-31T08:36:17Z</time>
      </trkpt>
      <trkpt lat="34.04532" lon="77.19132">
        <ele>3441.6</ele>
        <time>2015-08-31T08:36:24Z</time>
      </trkpt>
      <trkpt lat="34.04531" lon="77.19134">
        <ele>3441.2</ele>
        <time>2015-08-31T08:36:26Z</time>
      </trkpt>
      <trkpt lat="34.04531" lon="77.19146">
        <ele>3440.2</ele>
        <time>2015-08-31T08:36:43Z</time>
      </trkpt>
      <trkpt lat="34.04532" lon="77.19148">
        <ele>3439</ele>
        <time>2015-08-31T08:36:46Z</time>
      </trkpt>
      <trkpt lat="34.04529" lon="77.19157">
        <ele>3438</ele>
        <time>2015-08-31T08:36:55Z</time>
      </trkpt>
      <trkpt lat="34.04534" lon="77.19163">
        <ele>3437</ele>
        <time>2015-08-31T08:37:04Z</time>
      </trkpt>
      <trkpt lat="34.0454" lon="77.19172">
        <ele>3436.4</ele>
        <time>2015-08-31T08:37:32Z</time>
      </trkpt>
      <trkpt lat="34.0454" lon="77.19173">
        <ele>3436.2</ele>
        <time>2015-08-31T08:37:34Z</time>
      </trkpt>
      <trkpt lat="34.04543" lon="77.19176">
        <ele>3435.8</ele>
        <time>2015-08-31T08:37:39Z</time>
      </trkpt>
      <trkpt lat="34.04543" lon="77.19176">
        <ele>3435.6</ele>
        <time>2015-08-31T08:37:40Z</time>
      </trkpt>
      <trkpt lat="34.04539" lon="77.19181">
        <ele>3434.8</ele>
        <time>2015-08-31T08:38:04Z</time>
      </trkpt>
      <trkpt lat="34.04535" lon="77.19184">
        <ele>3434.8</ele>
        <time>2015-08-31T08:38:13Z</time>
      </trkpt>
      <trkpt lat="34.04535" lon="77.19186">
        <ele>3433.6</ele>
        <time>2015-08-31T08:38:27Z</time>
      </trkpt>
      <trkpt lat="34.04536" lon="77.19185">
        <ele>3432.6</ele>
        <time>2015-08-31T08:38:38Z</time>
      </trkpt>
      <trkpt lat="34.04536" lon="77.19183">
        <ele>3434</ele>
        <time>2015-08-31T08:38:46Z</time>
      </trkpt>
      <trkpt lat="34.04525" lon="77.19183">
        <ele>3434.8</ele>
        <time>2015-08-31T08:39:00Z</time>
      </trkpt>
      <trkpt lat="34.0453" lon="77.19184">
        <ele>3434</ele>
        <time>2015-08-31T08:39:07Z</time>
      </trkpt>
      <trkpt lat="34.0453" lon="77.19184">
        <ele>3433.8</ele>
        <time>2015-08-31T08:39:09Z</time>
      </trkpt>
      <trkpt lat="34.04526" lon="77.19178">
        <ele>3435</ele>
        <time>2015-08-31T08:39:22Z</time>
      </trkpt>
      <trkpt lat="34.04531" lon="77.19181">
        <ele>3434.2</ele>
        <time>2015-08-31T08:39:45Z</time>
      </trkpt>
      <trkpt lat="34.04533" lon="77.19185">
        <ele>3434</ele>
        <time>2015-08-31T08:39:46Z</time>
      </trkpt>
      <trkpt lat="34.04531" lon="77.19183">
        <ele>3433</ele>
        <time>2015-08-31T08:40:07Z</time>
      </trkpt>
      <trkpt lat="34.04532" lon="77.1918">
        <ele>3433.6</ele>
        <time>2015-08-31T08:40:23Z</time>
      </trkpt>
      <trkpt lat="34.04533" lon="77.19183">
        <ele>3433.6</ele>
        <time>2015-08-31T08:40:25Z</time>
      </trkpt>
      <trkpt lat="34.04535" lon="77.19188">
        <ele>3432.2</ele>
        <time>2015-08-31T08:40:28Z</time>
      </trkpt>
      <trkpt lat="34.04535" lon="77.19189">
        <ele>3431.8</ele>
        <time>2015-08-31T08:40:29Z</time>
      </trkpt>
      <trkpt lat="34.04541" lon="77.19191">
        <ele>3432.8</ele>
        <time>2015-08-31T08:40:36Z</time>
      </trkpt>
      <trkpt lat="34.04542" lon="77.1919">
        <ele>3433</ele>
        <time>2015-08-31T08:40:37Z</time>
      </trkpt>
      <trkpt lat="34.04544" lon="77.19189">
        <ele>3432.6</ele>
        <time>2015-08-31T08:40:39Z</time>
      </trkpt>
      <trkpt lat="34.04544" lon="77.1919">
        <ele>3431.4</ele>
        <time>2015-08-31T08:40:41Z</time>
      </trkpt>
      <trkpt lat="34.04543" lon="77.19194">
        <ele>3430.2</ele>
        <time>2015-08-31T08:40:52Z</time>
      </trkpt>
      <trkpt lat="34.04543" lon="77.19197">
        <ele>3428.8</ele>
        <time>2015-08-31T08:40:57Z</time>
      </trkpt>
      <trkpt lat="34.04545" lon="77.19198">
        <ele>3427</ele>
        <time>2015-08-31T08:40:59Z</time>
      </trkpt>
      <trkpt lat="34.0455" lon="77.19199">
        <ele>3426.6</ele>
        <time>2015-08-31T08:41:04Z</time>
      </trkpt>
      <trkpt lat="34.04552" lon="77.19204">
        <ele>3427.2</ele>
        <time>2015-08-31T08:41:08Z</time>
      </trkpt>
      <trkpt lat="34.04551" lon="77.19208">
        <ele>3426</ele>
        <time>2015-08-31T08:41:11Z</time>
      </trkpt>
      <trkpt lat="34.04554" lon="77.19218">
        <ele>3425</ele>
        <time>2015-08-31T08:41:30Z</time>
      </trkpt>
      <trkpt lat="34.04558" lon="77.19233">
        <ele>3424.2</ele>
        <time>2015-08-31T08:41:49Z</time>
      </trkpt>
      <trkpt lat="34.04559" lon="77.19235">
        <ele>3423.8</ele>
        <time>2015-08-31T08:41:52Z</time>
      </trkpt>
      <trkpt lat="34.04559" lon="77.19238">
        <ele>3422.6</ele>
        <time>2015-08-31T08:41:55Z</time>
      </trkpt>
      <trkpt lat="34.04554" lon="77.19239">
        <ele>3421.8</ele>
        <time>2015-08-31T08:42:02Z</time>
      </trkpt>
      <trkpt lat="34.0455" lon="77.19237">
        <ele>3421.8</ele>
        <time>2015-08-31T08:42:05Z</time>
      </trkpt>
      <trkpt lat="34.04548" lon="77.19236">
        <ele>3421.6</ele>
        <time>2015-08-31T08:42:07Z</time>
      </trkpt>
      <trkpt lat="34.0455" lon="77.1924">
        <ele>3421.4</ele>
        <time>2015-08-31T08:42:10Z</time>
      </trkpt>
      <trkpt lat="34.04548" lon="77.19239">
        <ele>3421.4</ele>
        <time>2015-08-31T08:42:14Z</time>
      </trkpt>
      <trkpt lat="34.04547" lon="77.19242">
        <ele>3420.2</ele>
        <time>2015-08-31T08:42:18Z</time>
      </trkpt>
      <trkpt lat="34.04546" lon="77.19254">
        <ele>3419.4</ele>
        <time>2015-08-31T08:42:27Z</time>
      </trkpt>
      <trkpt lat="34.04545" lon="77.19255">
        <ele>3419</ele>
        <time>2015-08-31T08:42:29Z</time>
      </trkpt>
      <trkpt lat="34.04543" lon="77.19256">
        <ele>3417.8</ele>
        <time>2015-08-31T08:42:34Z</time>
      </trkpt>
      <trkpt lat="34.04539" lon="77.19258">
        <ele>3418.8</ele>
        <time>2015-08-31T08:42:42Z</time>
      </trkpt>
      <trkpt lat="34.04538" lon="77.19256">
        <ele>3420</ele>
        <time>2015-08-31T08:42:45Z</time>
      </trkpt>
      <trkpt lat="34.04537" lon="77.19255">
        <ele>3420</ele>
        <time>2015-08-31T08:42:46Z</time>
      </trkpt>
      <trkpt lat="34.04534" lon="77.19254">
        <ele>3419.8</ele>
        <time>2015-08-31T08:42:50Z</time>
      </trkpt>
      <trkpt lat="34.04532" lon="77.19253">
        <ele>3419.8</ele>
        <time>2015-08-31T08:42:53Z</time>
      </trkpt>
      <trkpt lat="34.04527" lon="77.19252">
        <ele>3418.8</ele>
        <time>2015-08-31T08:43:01Z</time>
      </trkpt>
      <trkpt lat="34.04525" lon="77.19252">
        <ele>3418.6</ele>
        <time>2015-08-31T08:43:03Z</time>
      </trkpt>
      <trkpt lat="34.04524" lon="77.19253">
        <ele>3418.6</ele>
        <time>2015-08-31T08:43:05Z</time>
      </trkpt>
      <trkpt lat="34.04522" lon="77.19255">
        <ele>3419.2</ele>
        <time>2015-08-31T08:43:08Z</time>
      </trkpt>
      <trkpt lat="34.04521" lon="77.19257">
        <ele>3419.8</ele>
        <time>2015-08-31T08:43:10Z</time>
      </trkpt>
      <trkpt lat="34.04521" lon="77.19257">
        <ele>3421</ele>
        <time>2015-08-31T08:43:16Z</time>
      </trkpt>
      <trkpt lat="34.04518" lon="77.19257">
        <ele>3419.8</ele>
        <time>2015-08-31T08:43:28Z</time>
      </trkpt>
      <trkpt lat="34.04517" lon="77.19265">
        <ele>3419.2</ele>
        <time>2015-08-31T08:43:35Z</time>
      </trkpt>
      <trkpt lat="34.04514" lon="77.19268">
        <ele>3418.4</ele>
        <time>2015-08-31T08:43:42Z</time>
      </trkpt>
      <trkpt lat="34.04512" lon="77.1927">
        <ele>3417.4</ele>
        <time>2015-08-31T08:43:46Z</time>
      </trkpt>
      <trkpt lat="34.04508" lon="77.19272">
        <ele>3416.8</ele>
        <time>2015-08-31T08:43:51Z</time>
      </trkpt>
      <trkpt lat="34.04505" lon="77.19274">
        <ele>3416.4</ele>
        <time>2015-08-31T08:43:54Z</time>
      </trkpt>
      <trkpt lat="34.04505" lon="77.19274">
        <ele>3416.4</ele>
        <time>2015-08-31T08:43:55Z</time>
      </trkpt>
      <trkpt lat="34.04504" lon="77.19274">
        <ele>3416.2</ele>
        <time>2015-08-31T08:43:56Z</time>
      </trkpt>
      <trkpt lat="34.04499" lon="77.19271">
        <ele>3415.2</ele>
        <time>2015-08-31T08:44:04Z</time>
      </trkpt>
      <trkpt lat="34.04497" lon="77.19272">
        <ele>3415.2</ele>
        <time>2015-08-31T08:44:06Z</time>
      </trkpt>
      <trkpt lat="34.04495" lon="77.19273">
        <ele>3415.4</ele>
        <time>2015-08-31T08:44:08Z</time>
      </trkpt>
      <trkpt lat="34.04481" lon="77.19277">
        <ele>3414.2</ele>
        <time>2015-08-31T08:44:25Z</time>
      </trkpt>
      <trkpt lat="34.04475" lon="77.19273">
        <ele>3413.6</ele>
        <time>2015-08-31T08:44:30Z</time>
      </trkpt>
      <trkpt lat="34.04471" lon="77.19275">
        <ele>3413.2</ele>
        <time>2015-08-31T08:44:35Z</time>
      </trkpt>
      <trkpt lat="34.0447" lon="77.19275">
        <ele>3413.2</ele>
        <time>2015-08-31T08:44:36Z</time>
      </trkpt>
      <trkpt lat="34.04466" lon="77.19274">
        <ele>3412</ele>
        <time>2015-08-31T08:44:42Z</time>
      </trkpt>
      <trkpt lat="34.04456" lon="77.19276">
        <ele>3410.8</ele>
        <time>2015-08-31T08:44:49Z</time>
      </trkpt>
      <trkpt lat="34.04452" lon="77.19282">
        <ele>3409.6</ele>
        <time>2015-08-31T08:44:55Z</time>
      </trkpt>
      <trkpt lat="34.04448" lon="77.19285">
        <ele>3408.4</ele>
        <time>2015-08-31T08:44:59Z</time>
      </trkpt>
      <trkpt lat="34.04448" lon="77.19286">
        <ele>3407.2</ele>
        <time>2015-08-31T08:45:02Z</time>
      </trkpt>
      <trkpt lat="34.04447" lon="77.19289">
        <ele>3406</ele>
        <time>2015-08-31T08:45:06Z</time>
      </trkpt>
      <trkpt lat="34.04445" lon="77.19297">
        <ele>3405.4</ele>
        <time>2015-08-31T08:45:11Z</time>
      </trkpt>
      <trkpt lat="34.04445" lon="77.193">
        <ele>3405</ele>
        <time>2015-08-31T08:45:17Z</time>
      </trkpt>
      <trkpt lat="34.0444" lon="77.19314">
        <ele>3404</ele>
        <time>2015-08-31T08:45:29Z</time>
      </trkpt>
      <trkpt lat="34.04436" lon="77.19322">
        <ele>3403</ele>
        <time>2015-08-31T08:45:36Z</time>
      </trkpt>
      <trkpt lat="34.04437" lon="77.19327">
        <ele>3402.6</ele>
        <time>2015-08-31T08:45:38Z</time>
      </trkpt>
      <trkpt lat="34.04437" lon="77.19334">
        <ele>3401.8</ele>
        <time>2015-08-31T08:45:43Z</time>
      </trkpt>
      <trkpt lat="34.04442" lon="77.19341">
        <ele>3401.6</ele>
        <time>2015-08-31T08:45:47Z</time>
      </trkpt>
      <trkpt lat="34.04443" lon="77.19345">
        <ele>3401.6</ele>
        <time>2015-08-31T08:45:51Z</time>
      </trkpt>
      <trkpt lat="34.04439" lon="77.19353">
        <ele>3400.8</ele>
        <time>2015-08-31T08:46:02Z</time>
      </trkpt>
      <trkpt lat="34.04437" lon="77.19356">
        <ele>3399.6</ele>
        <time>2015-08-31T08:46:06Z</time>
      </trkpt>
      <trkpt lat="34.04437" lon="77.1936">
        <ele>3398.6</ele>
        <time>2015-08-31T08:46:11Z</time>
      </trkpt>
      <trkpt lat="34.04438" lon="77.19362">
        <ele>3397.4</ele>
        <time>2015-08-31T08:46:14Z</time>
      </trkpt>
      <trkpt lat="34.04441" lon="77.19366">
        <ele>3396.2</ele>
        <time>2015-08-31T08:46:18Z</time>
      </trkpt>
      <trkpt lat="34.04445" lon="77.19379">
        <ele>3395.2</ele>
        <time>2015-08-31T08:46:30Z</time>
      </trkpt>
      <trkpt lat="34.04447" lon="77.19383">
        <ele>3394</ele>
        <time>2015-08-31T08:46:36Z</time>
      </trkpt>
      <trkpt lat="34.04446" lon="77.19388">
        <ele>3392.6</ele>
        <time>2015-08-31T08:46:41Z</time>
      </trkpt>
      <trkpt lat="34.04456" lon="77.1939">
        <ele>3392</ele>
        <time>2015-08-31T08:46:45Z</time>
      </trkpt>
      <trkpt lat="34.04464" lon="77.19393">
        <ele>3391.4</ele>
        <time>2015-08-31T08:46:47Z</time>
      </trkpt>
      <trkpt lat="34.04462" lon="77.19395">
        <ele>3390.6</ele>
        <time>2015-08-31T08:46:49Z</time>
      </trkpt>
      <trkpt lat="34.04461" lon="77.19396">
        <ele>3390.4</ele>
        <time>2015-08-31T08:46:50Z</time>
      </trkpt>
      <trkpt lat="34.04458" lon="77.19399">
        <ele>3390.2</ele>
        <time>2015-08-31T08:46:53Z</time>
      </trkpt>
      <trkpt lat="34.04457" lon="77.19405">
        <ele>3389.2</ele>
        <time>2015-08-31T08:47:00Z</time>
      </trkpt>
      <trkpt lat="34.04456" lon="77.19408">
        <ele>3388.8</ele>
        <time>2015-08-31T08:47:02Z</time>
      </trkpt>
      <trkpt lat="34.04457" lon="77.19413">
        <ele>3388.2</ele>
        <time>2015-08-31T08:47:04Z</time>
      </trkpt>
      <trkpt lat="34.04457" lon="77.19414">
        <ele>3388</ele>
        <time>2015-08-31T08:47:05Z</time>
      </trkpt>
      <trkpt lat="34.04458" lon="77.19412">
        <ele>3386.6</ele>
        <time>2015-08-31T08:47:09Z</time>
      </trkpt>
      <trkpt lat="34.04454" lon="77.19419">
        <ele>3385.6</ele>
        <time>2015-08-31T08:47:19Z</time>
      </trkpt>
      <trkpt lat="34.04455" lon="77.1942">
        <ele>3385.4</ele>
        <time>2015-08-31T08:47:20Z</time>
      </trkpt>
      <trkpt lat="34.04458" lon="77.19422">
        <ele>3384.8</ele>
        <time>2015-08-31T08:47:23Z</time>
      </trkpt>
      <trkpt lat="34.04458" lon="77.19424">
        <ele>3384.6</ele>
        <time>2015-08-31T08:47:26Z</time>
      </trkpt>
      <trkpt lat="34.0446" lon="77.19437">
        <ele>3383.6</ele>
        <time>2015-08-31T08:47:43Z</time>
      </trkpt>
      <trkpt lat="34.04465" lon="77.19441">
        <ele>3382.4</ele>
        <time>2015-08-31T08:47:54Z</time>
      </trkpt>
      <trkpt lat="34.04466" lon="77.19446">
        <ele>3381.4</ele>
        <time>2015-08-31T08:47:59Z</time>
      </trkpt>
      <trkpt lat="34.04466" lon="77.19448">
        <ele>3381.2</ele>
        <time>2015-08-31T08:48:01Z</time>
      </trkpt>
      <trkpt lat="34.04465" lon="77.19454">
        <ele>3380</ele>
        <time>2015-08-31T08:48:13Z</time>
      </trkpt>
      <trkpt lat="34.04461" lon="77.19456">
        <ele>3379.6</ele>
        <time>2015-08-31T08:48:17Z</time>
      </trkpt>
      <trkpt lat="34.04459" lon="77.19459">
        <ele>3379.2</ele>
        <time>2015-08-31T08:48:20Z</time>
      </trkpt>
      <trkpt lat="34.04458" lon="77.19458">
        <ele>3378.8</ele>
        <time>2015-08-31T08:48:21Z</time>
      </trkpt>
      <trkpt lat="34.04456" lon="77.19458">
        <ele>3378.2</ele>
        <time>2015-08-31T08:48:22Z</time>
      </trkpt>
      <trkpt lat="34.04455" lon="77.19459">
        <ele>3377.8</ele>
        <time>2015-08-31T08:48:23Z</time>
      </trkpt>
      <trkpt lat="34.04449" lon="77.19461">
        <ele>3377</ele>
        <time>2015-08-31T08:48:30Z</time>
      </trkpt>
      <trkpt lat="34.04445" lon="77.19462">
        <ele>3377.2</ele>
        <time>2015-08-31T08:48:34Z</time>
      </trkpt>
      <trkpt lat="34.04443" lon="77.19463">
        <ele>3377.4</ele>
        <time>2015-08-31T08:48:36Z</time>
      </trkpt>
      <trkpt lat="34.0444" lon="77.19467">
        <ele>3378</ele>
        <time>2015-08-31T08:48:40Z</time>
      </trkpt>
      <trkpt lat="34.04441" lon="77.19475">
        <ele>3377.8</ele>
        <time>2015-08-31T08:48:50Z</time>
      </trkpt>
      <trkpt lat="34.04442" lon="77.19478">
        <ele>3377.4</ele>
        <time>2015-08-31T08:48:53Z</time>
      </trkpt>
      <trkpt lat="34.04442" lon="77.19481">
        <ele>3377.4</ele>
        <time>2015-08-31T08:48:57Z</time>
      </trkpt>
      <trkpt lat="34.04442" lon="77.19483">
        <ele>3376.4</ele>
        <time>2015-08-31T08:49:00Z</time>
      </trkpt>
      <trkpt lat="34.04441" lon="77.19488">
        <ele>3375.4</ele>
        <time>2015-08-31T08:49:06Z</time>
      </trkpt>
      <trkpt lat="34.04437" lon="77.19494">
        <ele>3375.4</ele>
        <time>2015-08-31T08:49:13Z</time>
      </trkpt>
      <trkpt lat="34.04436" lon="77.19495">
        <ele>3375.4</ele>
        <time>2015-08-31T08:49:15Z</time>
      </trkpt>
      <trkpt lat="34.04434" lon="77.19498">
        <ele>3374.4</ele>
        <time>2015-08-31T08:49:23Z</time>
      </trkpt>
      <trkpt lat="34.04431" lon="77.19506">
        <ele>3373.4</ele>
        <time>2015-08-31T08:49:36Z</time>
      </trkpt>
      <trkpt lat="34.0442" lon="77.19519">
        <ele>3372.8</ele>
        <time>2015-08-31T08:49:52Z</time>
      </trkpt>
      <trkpt lat="34.04412" lon="77.19524">
        <ele>3372.2</ele>
        <time>2015-08-31T08:49:56Z</time>
      </trkpt>
      <trkpt lat="34.04423" lon="77.19537">
        <ele>3371.6</ele>
        <time>2015-08-31T08:50:15Z</time>
      </trkpt>
      <trkpt lat="34.04422" lon="77.19538">
        <ele>3371.2</ele>
        <time>2015-08-31T08:50:16Z</time>
      </trkpt>
      <trkpt lat="34.04416" lon="77.1954">
        <ele>3370.4</ele>
        <time>2015-08-31T08:50:19Z</time>
      </trkpt>
      <trkpt lat="34.04415" lon="77.1954">
        <ele>3370</ele>
        <time>2015-08-31T08:50:20Z</time>
      </trkpt>
      <trkpt lat="34.0441" lon="77.19542">
        <ele>3369.4</ele>
        <time>2015-08-31T08:50:24Z</time>
      </trkpt>
      <trkpt lat="34.04403" lon="77.19552">
        <ele>3369</ele>
        <time>2015-08-31T08:50:35Z</time>
      </trkpt>
      <trkpt lat="34.04395" lon="77.19558">
        <ele>3368</ele>
        <time>2015-08-31T08:50:44Z</time>
      </trkpt>
      <trkpt lat="34.04394" lon="77.19562">
        <ele>3368</ele>
        <time>2015-08-31T08:50:45Z</time>
      </trkpt>
      <trkpt lat="34.04392" lon="77.19565">
        <ele>3367.6</ele>
        <time>2015-08-31T08:50:48Z</time>
      </trkpt>
      <trkpt lat="34.04388" lon="77.1957">
        <ele>3366.8</ele>
        <time>2015-08-31T08:50:53Z</time>
      </trkpt>
      <trkpt lat="34.04387" lon="77.1957">
        <ele>3366.6</ele>
        <time>2015-08-31T08:50:54Z</time>
      </trkpt>
      <trkpt lat="34.04382" lon="77.19573">
        <ele>3365.8</ele>
        <time>2015-08-31T08:50:59Z</time>
      </trkpt>
      <trkpt lat="34.0438" lon="77.19574">
        <ele>3365.4</ele>
        <time>2015-08-31T08:51:02Z</time>
      </trkpt>
      <trkpt lat="34.04363" lon="77.19578">
        <ele>3365.2</ele>
        <time>2015-08-31T08:51:16Z</time>
      </trkpt>
      <trkpt lat="34.04359" lon="77.19576">
        <ele>3364.8</ele>
        <time>2015-08-31T08:51:23Z</time>
      </trkpt>
      <trkpt lat="34.04357" lon="77.19586">
        <ele>3363.8</ele>
        <time>2015-08-31T08:51:31Z</time>
      </trkpt>
      <trkpt lat="34.04355" lon="77.19589">
        <ele>3363.8</ele>
        <time>2015-08-31T08:51:34Z</time>
      </trkpt>
      <trkpt lat="34.04354" lon="77.1959">
        <ele>3363.6</ele>
        <time>2015-08-31T08:51:35Z</time>
      </trkpt>
      <trkpt lat="34.04353" lon="77.1959">
        <ele>3363.6</ele>
        <time>2015-08-31T08:51:36Z</time>
      </trkpt>
      <trkpt lat="34.0435" lon="77.19592">
        <ele>3363.4</ele>
        <time>2015-08-31T08:51:40Z</time>
      </trkpt>
      <trkpt lat="34.04348" lon="77.19595">
        <ele>3362.6</ele>
        <time>2015-08-31T08:51:44Z</time>
      </trkpt>
      <trkpt lat="34.04347" lon="77.19596">
        <ele>3362</ele>
        <time>2015-08-31T08:51:46Z</time>
      </trkpt>
      <trkpt lat="34.04345" lon="77.19596">
        <ele>3361.6</ele>
        <time>2015-08-31T08:51:48Z</time>
      </trkpt>
      <trkpt lat="34.04344" lon="77.19597">
        <ele>3361.2</ele>
        <time>2015-08-31T08:51:50Z</time>
      </trkpt>
      <trkpt lat="34.0434" lon="77.19597">
        <ele>3360.4</ele>
        <time>2015-08-31T08:51:55Z</time>
      </trkpt>
      <trkpt lat="34.04327" lon="77.19609">
        <ele>3359.8</ele>
        <time>2015-08-31T08:52:08Z</time>
      </trkpt>
      <trkpt lat="34.04324" lon="77.1961">
        <ele>3359.6</ele>
        <time>2015-08-31T08:52:11Z</time>
      </trkpt>
      <trkpt lat="34.04323" lon="77.1961">
        <ele>3359.4</ele>
        <time>2015-08-31T08:52:12Z</time>
      </trkpt>
      <trkpt lat="34.04321" lon="77.19611">
        <ele>3359</ele>
        <time>2015-08-31T08:52:15Z</time>
      </trkpt>
      <trkpt lat="34.0432" lon="77.19614">
        <ele>3359.2</ele>
        <time>2015-08-31T08:52:17Z</time>
      </trkpt>
      <trkpt lat="34.04318" lon="77.19616">
        <ele>3359.2</ele>
        <time>2015-08-31T08:52:19Z</time>
      </trkpt>
      <trkpt lat="34.04309" lon="77.19622">
        <ele>3359.2</ele>
        <time>2015-08-31T08:52:25Z</time>
      </trkpt>
      <trkpt lat="34.04302" lon="77.19626">
        <ele>3359.4</ele>
        <time>2015-08-31T08:52:30Z</time>
      </trkpt>
      <trkpt lat="34.04302" lon="77.19629">
        <ele>3359</ele>
        <time>2015-08-31T08:52:33Z</time>
      </trkpt>
      <trkpt lat="34.04299" lon="77.19632">
        <ele>3359</ele>
        <time>2015-08-31T08:52:37Z</time>
      </trkpt>
      <trkpt lat="34.04298" lon="77.19632">
        <ele>3358.8</ele>
        <time>2015-08-31T08:52:38Z</time>
      </trkpt>
      <trkpt lat="34.04296" lon="77.19633">
        <ele>3358.4</ele>
        <time>2015-08-31T08:52:41Z</time>
      </trkpt>
      <trkpt lat="34.04294" lon="77.19637">
        <ele>3357.8</ele>
        <time>2015-08-31T08:52:44Z</time>
      </trkpt>
      <trkpt lat="34.04292" lon="77.19637">
        <ele>3357.6</ele>
        <time>2015-08-31T08:52:46Z</time>
      </trkpt>
      <trkpt lat="34.04291" lon="77.19636">
        <ele>3357.4</ele>
        <time>2015-08-31T08:52:47Z</time>
      </trkpt>
      <trkpt lat="34.0429" lon="77.19636">
        <ele>3357</ele>
        <time>2015-08-31T08:52:49Z</time>
      </trkpt>
      <trkpt lat="34.04287" lon="77.19635">
        <ele>3356.4</ele>
        <time>2015-08-31T08:52:52Z</time>
      </trkpt>
      <trkpt lat="34.04286" lon="77.19635">
        <ele>3356.2</ele>
        <time>2015-08-31T08:52:53Z</time>
      </trkpt>
      <trkpt lat="34.04284" lon="77.19636">
        <ele>3356</ele>
        <time>2015-08-31T08:52:55Z</time>
      </trkpt>
      <trkpt lat="34.04282" lon="77.19635">
        <ele>3355.2</ele>
        <time>2015-08-31T08:52:59Z</time>
      </trkpt>
      <trkpt lat="34.04282" lon="77.19634">
        <ele>3354.6</ele>
        <time>2015-08-31T08:53:01Z</time>
      </trkpt>
      <trkpt lat="34.04282" lon="77.19629">
        <ele>3354</ele>
        <time>2015-08-31T08:53:04Z</time>
      </trkpt>
      <trkpt lat="34.0428" lon="77.19626">
        <ele>3353.4</ele>
        <time>2015-08-31T08:53:07Z</time>
      </trkpt>
      <trkpt lat="34.04279" lon="77.19625">
        <ele>3353.2</ele>
        <time>2015-08-31T08:53:09Z</time>
      </trkpt>
      <trkpt lat="34.04274" lon="77.19627">
        <ele>3353</ele>
        <time>2015-08-31T08:53:14Z</time>
      </trkpt>
      <trkpt lat="34.04273" lon="77.1962">
        <ele>3353</ele>
        <time>2015-08-31T08:53:20Z</time>
      </trkpt>
      <trkpt lat="34.04274" lon="77.19618">
        <ele>3353.2</ele>
        <time>2015-08-31T08:53:24Z</time>
      </trkpt>
      <trkpt lat="34.04274" lon="77.19617">
        <ele>3354</ele>
        <time>2015-08-31T08:53:28Z</time>
      </trkpt>
      <trkpt lat="34.04273" lon="77.19616">
        <ele>3355</ele>
        <time>2015-08-31T08:53:34Z</time>
      </trkpt>
      <trkpt lat="34.04279" lon="77.19616">
        <ele>3355.2</ele>
        <time>2015-08-31T08:53:44Z</time>
      </trkpt>
      <trkpt lat="34.04277" lon="77.19623">
        <ele>3355.2</ele>
        <time>2015-08-31T08:53:48Z</time>
      </trkpt>
      <trkpt lat="34.04276" lon="77.19625">
        <ele>3355</ele>
        <time>2015-08-31T08:53:52Z</time>
      </trkpt>
      <trkpt lat="34.04276" lon="77.1963">
        <ele>3354</ele>
        <time>2015-08-31T08:53:59Z</time>
      </trkpt>
      <trkpt lat="34.04275" lon="77.19634">
        <ele>3355</ele>
        <time>2015-08-31T08:54:16Z</time>
      </trkpt>
      <trkpt lat="34.04286" lon="77.19637">
        <ele>3355.6</ele>
        <time>2015-08-31T08:55:05Z</time>
      </trkpt>
      <trkpt lat="34.04289" lon="77.19641">
        <ele>3354.8</ele>
        <time>2015-08-31T08:55:21Z</time>
      </trkpt>
      <trkpt lat="34.04285" lon="77.19637">
        <ele>3354.6</ele>
        <time>2015-08-31T08:55:29Z</time>
      </trkpt>
      <trkpt lat="34.04278" lon="77.19639">
        <ele>3355</ele>
        <time>2015-08-31T08:55:38Z</time>
      </trkpt>
      <trkpt lat="34.04271" lon="77.19644">
        <ele>3354.2</ele>
        <time>2015-08-31T08:55:47Z</time>
      </trkpt>
      <trkpt lat="34.04269" lon="77.19646">
        <ele>3354</ele>
        <time>2015-08-31T08:55:49Z</time>
      </trkpt>
      <trkpt lat="34.04265" lon="77.1964">
        <ele>3353</ele>
        <time>2015-08-31T08:56:01Z</time>
      </trkpt>
      <trkpt lat="34.04264" lon="77.19641">
        <ele>3352.8</ele>
        <time>2015-08-31T08:56:02Z</time>
      </trkpt>
      <trkpt lat="34.04262" lon="77.1964">
        <ele>3352.4</ele>
        <time>2015-08-31T08:56:04Z</time>
      </trkpt>
      <trkpt lat="34.04261" lon="77.19635">
        <ele>3351.8</ele>
        <time>2015-08-31T08:56:08Z</time>
      </trkpt>
      <trkpt lat="34.0426" lon="77.19633">
        <ele>3351.6</ele>
        <time>2015-08-31T08:56:09Z</time>
      </trkpt>
      <trkpt lat="34.04258" lon="77.19624">
        <ele>3350.6</ele>
        <time>2015-08-31T08:56:18Z</time>
      </trkpt>
      <trkpt lat="34.04252" lon="77.19617">
        <ele>3349.4</ele>
        <time>2015-08-31T08:56:34Z</time>
      </trkpt>
      <trkpt lat="34.04252" lon="77.19616">
        <ele>3349</ele>
        <time>2015-08-31T08:56:36Z</time>
      </trkpt>
      <trkpt lat="34.04252" lon="77.19612">
        <ele>3348.4</ele>
        <time>2015-08-31T08:56:40Z</time>
      </trkpt>
      <trkpt lat="34.04252" lon="77.1961">
        <ele>3348.2</ele>
        <time>2015-08-31T08:56:42Z</time>
      </trkpt>
      <trkpt lat="34.04254" lon="77.19594">
        <ele>3348.2</ele>
        <time>2015-08-31T08:57:03Z</time>
      </trkpt>
      <trkpt lat="34.04251" lon="77.19591">
        <ele>3347.8</ele>
        <time>2015-08-31T08:57:05Z</time>
      </trkpt>
      <trkpt lat="34.0425" lon="77.19589">
        <ele>3347.6</ele>
        <time>2015-08-31T08:57:07Z</time>
      </trkpt>
      <trkpt lat="34.04249" lon="77.19589">
        <ele>3347.4</ele>
        <time>2015-08-31T08:57:08Z</time>
      </trkpt>
      <trkpt lat="34.04246" lon="77.19587">
        <ele>3346.6</ele>
        <time>2015-08-31T08:57:12Z</time>
      </trkpt>
      <trkpt lat="34.04244" lon="77.19586">
        <ele>3346.2</ele>
        <time>2015-08-31T08:57:14Z</time>
      </trkpt>
      <trkpt lat="34.04244" lon="77.19585">
        <ele>3346.2</ele>
        <time>2015-08-31T08:57:15Z</time>
      </trkpt>
      <trkpt lat="34.04239" lon="77.19584">
        <ele>3345.4</ele>
        <time>2015-08-31T08:57:20Z</time>
      </trkpt>
      <trkpt lat="34.04243" lon="77.1958">
        <ele>3345.2</ele>
        <time>2015-08-31T08:57:21Z</time>
      </trkpt>
      <trkpt lat="34.04239" lon="77.19578">
        <ele>3344.2</ele>
        <time>2015-08-31T08:57:29Z</time>
      </trkpt>
      <trkpt lat="34.04238" lon="77.19576">
        <ele>3343.6</ele>
        <time>2015-08-31T08:57:32Z</time>
      </trkpt>
      <trkpt lat="34.04234" lon="77.19575">
        <ele>3343</ele>
        <time>2015-08-31T08:57:36Z</time>
      </trkpt>
      <trkpt lat="34.04229" lon="77.1957">
        <ele>3342</ele>
        <time>2015-08-31T08:57:43Z</time>
      </trkpt>
      <trkpt lat="34.04224" lon="77.19565">
        <ele>3340.8</ele>
        <time>2015-08-31T08:57:53Z</time>
      </trkpt>
      <trkpt lat="34.04224" lon="77.19565">
        <ele>3340.8</ele>
        <time>2015-08-31T08:57:54Z</time>
      </trkpt>
      <trkpt lat="34.04217" lon="77.19566">
        <ele>3340.4</ele>
        <time>2015-08-31T08:58:00Z</time>
      </trkpt>
      <trkpt lat="34.04213" lon="77.19568">
        <ele>3340</ele>
        <time>2015-08-31T08:58:03Z</time>
      </trkpt>
      <trkpt lat="34.04212" lon="77.19569">
        <ele>3339.8</ele>
        <time>2015-08-31T08:58:04Z</time>
      </trkpt>
      <trkpt lat="34.04205" lon="77.19569">
        <ele>3338.6</ele>
        <time>2015-08-31T08:58:12Z</time>
      </trkpt>
      <trkpt lat="34.04198" lon="77.19567">
        <ele>3337.6</ele>
        <time>2015-08-31T08:58:26Z</time>
      </trkpt>
      <trkpt lat="34.04193" lon="77.19564">
        <ele>3336.6</ele>
        <time>2015-08-31T08:58:39Z</time>
      </trkpt>
      <trkpt lat="34.04186" lon="77.19562">
        <ele>3335.6</ele>
        <time>2015-08-31T08:58:49Z</time>
      </trkpt>
      <trkpt lat="34.04182" lon="77.19564">
        <ele>3335</ele>
        <time>2015-08-31T08:58:52Z</time>
      </trkpt>
      <trkpt lat="34.04177" lon="77.19562">
        <ele>3334.4</ele>
        <time>2015-08-31T08:58:57Z</time>
      </trkpt>
      <trkpt lat="34.04174" lon="77.19556">
        <ele>3334</ele>
        <time>2015-08-31T08:59:09Z</time>
      </trkpt>
      <trkpt lat="34.04179" lon="77.19551">
        <ele>3333.4</ele>
        <time>2015-08-31T08:59:13Z</time>
      </trkpt>
      <trkpt lat="34.04179" lon="77.1955">
        <ele>3333.4</ele>
        <time>2015-08-31T08:59:14Z</time>
      </trkpt>
      <trkpt lat="34.04177" lon="77.1955">
        <ele>3333.2</ele>
        <time>2015-08-31T08:59:17Z</time>
      </trkpt>
      <trkpt lat="34.04174" lon="77.19552">
        <ele>3333</ele>
        <time>2015-08-31T08:59:19Z</time>
      </trkpt>
      <trkpt lat="34.04172" lon="77.19554">
        <ele>3333</ele>
        <time>2015-08-31T08:59:21Z</time>
      </trkpt>
      <trkpt lat="34.0417" lon="77.19554">
        <ele>3333</ele>
        <time>2015-08-31T08:59:23Z</time>
      </trkpt>
      <trkpt lat="34.04168" lon="77.19555">
        <ele>3333.2</ele>
        <time>2015-08-31T08:59:26Z</time>
      </trkpt>
      <trkpt lat="34.04158" lon="77.19554">
        <ele>3333.8</ele>
        <time>2015-08-31T08:59:37Z</time>
      </trkpt>
      <trkpt lat="34.04143" lon="77.1955">
        <ele>3333.2</ele>
        <time>2015-08-31T09:00:09Z</time>
      </trkpt>
      <trkpt lat="34.04137" lon="77.19551">
        <ele>3332.4</ele>
        <time>2015-08-31T09:00:20Z</time>
      </trkpt>
      <trkpt lat="34.04131" lon="77.19557">
        <ele>3332</ele>
        <time>2015-08-31T09:00:31Z</time>
      </trkpt>
      <trkpt lat="34.04128" lon="77.19558">
        <ele>3331.8</ele>
        <time>2015-08-31T09:00:34Z</time>
      </trkpt>
      <trkpt lat="34.04127" lon="77.19562">
        <ele>3331.4</ele>
        <time>2015-08-31T09:00:36Z</time>
      </trkpt>
      <trkpt lat="34.04125" lon="77.19568">
        <ele>3330.2</ele>
        <time>2015-08-31T09:00:41Z</time>
      </trkpt>
      <trkpt lat="34.04124" lon="77.19572">
        <ele>3329</ele>
        <time>2015-08-31T09:00:46Z</time>
      </trkpt>
      <trkpt lat="34.04125" lon="77.19578">
        <ele>3327.8</ele>
        <time>2015-08-31T09:00:53Z</time>
      </trkpt>
      <trkpt lat="34.04125" lon="77.1958">
        <ele>3327.4</ele>
        <time>2015-08-31T09:00:56Z</time>
      </trkpt>
      <trkpt lat="34.04126" lon="77.19582">
        <ele>3327</ele>
        <time>2015-08-31T09:00:58Z</time>
      </trkpt>
      <trkpt lat="34.04126" lon="77.19583">
        <ele>3326.8</ele>
        <time>2015-08-31T09:00:59Z</time>
      </trkpt>
      <trkpt lat="34.04123" lon="77.19588">
        <ele>3325.8</ele>
        <time>2015-08-31T09:01:06Z</time>
      </trkpt>
      <trkpt lat="34.04122" lon="77.19588">
        <ele>3325.6</ele>
        <time>2015-08-31T09:01:07Z</time>
      </trkpt>
      <trkpt lat="34.04122" lon="77.19597">
        <ele>3324.8</ele>
        <time>2015-08-31T09:01:15Z</time>
      </trkpt>
      <trkpt lat="34.04121" lon="77.19598">
        <ele>3324.6</ele>
        <time>2015-08-31T09:01:17Z</time>
      </trkpt>
      <trkpt lat="34.04121" lon="77.19598">
        <ele>3324.6</ele>
        <time>2015-08-31T09:01:18Z</time>
      </trkpt>
      <trkpt lat="34.04117" lon="77.19603">
        <ele>3324</ele>
        <time>2015-08-31T09:01:26Z</time>
      </trkpt>
      <trkpt lat="34.04115" lon="77.19604">
        <ele>3323.6</ele>
        <time>2015-08-31T09:01:29Z</time>
      </trkpt>
      <trkpt lat="34.04112" lon="77.19607">
        <ele>3323.2</ele>
        <time>2015-08-31T09:01:33Z</time>
      </trkpt>
      <trkpt lat="34.04107" lon="77.19608">
        <ele>3322.6</ele>
        <time>2015-08-31T09:01:44Z</time>
      </trkpt>
      <trkpt lat="34.04103" lon="77.1961">
        <ele>3322</ele>
        <time>2015-08-31T09:01:47Z</time>
      </trkpt>
      <trkpt lat="34.04099" lon="77.19613">
        <ele>3321.6</ele>
        <time>2015-08-31T09:01:50Z</time>
      </trkpt>
      <trkpt lat="34.04099" lon="77.19614">
        <ele>3321.2</ele>
        <time>2015-08-31T09:01:52Z</time>
      </trkpt>
      <trkpt lat="34.04094" lon="77.19626">
        <ele>3320.6</ele>
        <time>2015-08-31T09:02:07Z</time>
      </trkpt>
      <trkpt lat="34.04094" lon="77.1963">
        <ele>3320.8</ele>
        <time>2015-08-31T09:02:10Z</time>
      </trkpt>
      <trkpt lat="34.04093" lon="77.19632">
        <ele>3321</ele>
        <time>2015-08-31T09:02:12Z</time>
      </trkpt>
      <trkpt lat="34.04088" lon="77.19635">
        <ele>3320.4</ele>
        <time>2015-08-31T09:02:17Z</time>
      </trkpt>
      <trkpt lat="34.04087" lon="77.1964">
        <ele>3319.4</ele>
        <time>2015-08-31T09:02:22Z</time>
      </trkpt>
      <trkpt lat="34.04087" lon="77.19641">
        <ele>3319.4</ele>
        <time>2015-08-31T09:02:23Z</time>
      </trkpt>
      <trkpt lat="34.04088" lon="77.19664">
        <ele>3318.2</ele>
        <time>2015-08-31T09:02:35Z</time>
      </trkpt>
      <trkpt lat="34.04088" lon="77.19668">
        <ele>3317.8</ele>
        <time>2015-08-31T09:02:39Z</time>
      </trkpt>
      <trkpt lat="34.04088" lon="77.19673">
        <ele>3317</ele>
        <time>2015-08-31T09:02:44Z</time>
      </trkpt>
      <trkpt lat="34.0409" lon="77.1968">
        <ele>3316</ele>
        <time>2015-08-31T09:02:53Z</time>
      </trkpt>
      <trkpt lat="34.0409" lon="77.19692">
        <ele>3315</ele>
        <time>2015-08-31T09:03:05Z</time>
      </trkpt>
      <trkpt lat="34.04089" lon="77.19693">
        <ele>3314.8</ele>
        <time>2015-08-31T09:03:06Z</time>
      </trkpt>
      <trkpt lat="34.0409" lon="77.19694">
        <ele>3314.6</ele>
        <time>2015-08-31T09:03:08Z</time>
      </trkpt>
      <trkpt lat="34.04093" lon="77.19697">
        <ele>3314</ele>
        <time>2015-08-31T09:03:12Z</time>
      </trkpt>
      <trkpt lat="34.04094" lon="77.19699">
        <ele>3313.8</ele>
        <time>2015-08-31T09:03:14Z</time>
      </trkpt>
      <trkpt lat="34.04094" lon="77.19699">
        <ele>3313.6</ele>
        <time>2015-08-31T09:03:15Z</time>
      </trkpt>
      <trkpt lat="34.04094" lon="77.19699">
        <ele>3313.4</ele>
        <time>2015-08-31T09:03:18Z</time>
      </trkpt>
      <trkpt lat="34.04096" lon="77.197">
        <ele>3313.2</ele>
        <time>2015-08-31T09:03:20Z</time>
      </trkpt>
      <trkpt lat="34.041" lon="77.19705">
        <ele>3312.8</ele>
        <time>2015-08-31T09:03:26Z</time>
      </trkpt>
      <trkpt lat="34.04101" lon="77.19706">
        <ele>3312.6</ele>
        <time>2015-08-31T09:03:28Z</time>
      </trkpt>
      <trkpt lat="34.04101" lon="77.19707">
        <ele>3312.6</ele>
        <time>2015-08-31T09:03:29Z</time>
      </trkpt>
      <trkpt lat="34.041" lon="77.19714">
        <ele>3312.4</ele>
        <time>2015-08-31T09:03:34Z</time>
      </trkpt>
      <trkpt lat="34.04103" lon="77.19724">
        <ele>3311.6</ele>
        <time>2015-08-31T09:03:44Z</time>
      </trkpt>
      <trkpt lat="34.04106" lon="77.19727">
        <ele>3311.2</ele>
        <time>2015-08-31T09:03:48Z</time>
      </trkpt>
      <trkpt lat="34.04106" lon="77.19731">
        <ele>3311.4</ele>
        <time>2015-08-31T09:03:52Z</time>
      </trkpt>
      <trkpt lat="34.04106" lon="77.19734">
        <ele>3311.4</ele>
        <time>2015-08-31T09:03:55Z</time>
      </trkpt>
      <trkpt lat="34.04109" lon="77.19739">
        <ele>3310.6</ele>
        <time>2015-08-31T09:04:01Z</time>
      </trkpt>
      <trkpt lat="34.0411" lon="77.1974">
        <ele>3310.4</ele>
        <time>2015-08-31T09:04:02Z</time>
      </trkpt>
      <trkpt lat="34.04114" lon="77.19749">
        <ele>3309.2</ele>
        <time>2015-08-31T09:04:10Z</time>
      </trkpt>
      <trkpt lat="34.04123" lon="77.19757">
        <ele>3308.2</ele>
        <time>2015-08-31T09:04:21Z</time>
      </trkpt>
      <trkpt lat="34.04127" lon="77.19757">
        <ele>3307.8</ele>
        <time>2015-08-31T09:04:24Z</time>
      </trkpt>
      <trkpt lat="34.0413" lon="77.19762">
        <ele>3307.4</ele>
        <time>2015-08-31T09:04:28Z</time>
      </trkpt>
      <trkpt lat="34.04133" lon="77.19764">
        <ele>3307.2</ele>
        <time>2015-08-31T09:04:30Z</time>
      </trkpt>
      <trkpt lat="34.04139" lon="77.19771">
        <ele>3306</ele>
        <time>2015-08-31T09:04:37Z</time>
      </trkpt>
      <trkpt lat="34.04145" lon="77.19777">
        <ele>3305.6</ele>
        <time>2015-08-31T09:04:43Z</time>
      </trkpt>
      <trkpt lat="34.04151" lon="77.1978">
        <ele>3305.6</ele>
        <time>2015-08-31T09:04:47Z</time>
      </trkpt>
      <trkpt lat="34.04152" lon="77.19782">
        <ele>3305.6</ele>
        <time>2015-08-31T09:04:49Z</time>
      </trkpt>
      <trkpt lat="34.04153" lon="77.19784">
        <ele>3305.6</ele>
        <time>2015-08-31T09:04:51Z</time>
      </trkpt>
      <trkpt lat="34.04154" lon="77.19788">
        <ele>3305</ele>
        <time>2015-08-31T09:04:55Z</time>
      </trkpt>
      <trkpt lat="34.04156" lon="77.1979">
        <ele>3303.8</ele>
        <time>2015-08-31T09:05:00Z</time>
      </trkpt>
      <trkpt lat="34.04162" lon="77.19796">
        <ele>3302.8</ele>
        <time>2015-08-31T09:05:08Z</time>
      </trkpt>
      <trkpt lat="34.04168" lon="77.198">
        <ele>3301.8</ele>
        <time>2015-08-31T09:05:15Z</time>
      </trkpt>
      <trkpt lat="34.04174" lon="77.19806">
        <ele>3301</ele>
        <time>2015-08-31T09:05:21Z</time>
      </trkpt>
      <trkpt lat="34.04178" lon="77.19812">
        <ele>3300.8</ele>
        <time>2015-08-31T09:05:27Z</time>
      </trkpt>
      <trkpt lat="34.04177" lon="77.19814">
        <ele>3300.8</ele>
        <time>2015-08-31T09:05:29Z</time>
      </trkpt>
      <trkpt lat="34.04177" lon="77.19815">
        <ele>3300.6</ele>
        <time>2015-08-31T09:05:30Z</time>
      </trkpt>
      <trkpt lat="34.04176" lon="77.1982">
        <ele>3300.6</ele>
        <time>2015-08-31T09:05:34Z</time>
      </trkpt>
      <trkpt lat="34.04179" lon="77.1983">
        <ele>3301.8</ele>
        <time>2015-08-31T09:05:42Z</time>
      </trkpt>
      <trkpt lat="34.0418" lon="77.19832">
        <ele>3301.8</ele>
        <time>2015-08-31T09:05:43Z</time>
      </trkpt>
      <trkpt lat="34.04179" lon="77.19835">
        <ele>3301.2</ele>
        <time>2015-08-31T09:06:09Z</time>
      </trkpt>
      <trkpt lat="34.04178" lon="77.19837">
        <ele>3301.2</ele>
        <time>2015-08-31T09:06:10Z</time>
      </trkpt>
      <trkpt lat="34.0418" lon="77.1984">
        <ele>3300.8</ele>
        <time>2015-08-31T09:06:13Z</time>
      </trkpt>
      <trkpt lat="34.04182" lon="77.19841">
        <ele>3300.6</ele>
        <time>2015-08-31T09:06:15Z</time>
      </trkpt>
      <trkpt lat="34.04188" lon="77.19843">
        <ele>3300.2</ele>
        <time>2015-08-31T09:06:17Z</time>
      </trkpt>
      <trkpt lat="34.0419" lon="77.19846">
        <ele>3299.4</ele>
        <time>2015-08-31T09:06:19Z</time>
      </trkpt>
      <trkpt lat="34.04192" lon="77.19851">
        <ele>3298.4</ele>
        <time>2015-08-31T09:06:23Z</time>
      </trkpt>
      <trkpt lat="34.04195" lon="77.19866">
        <ele>3297.4</ele>
        <time>2015-08-31T09:06:32Z</time>
      </trkpt>
      <trkpt lat="34.04196" lon="77.19872">
        <ele>3296.8</ele>
        <time>2015-08-31T09:06:37Z</time>
      </trkpt>
      <trkpt lat="34.042" lon="77.19876">
        <ele>3296.8</ele>
        <time>2015-08-31T09:06:42Z</time>
      </trkpt>
      <trkpt lat="34.04199" lon="77.19876">
        <ele>3296.4</ele>
        <time>2015-08-31T09:06:44Z</time>
      </trkpt>
      <trkpt lat="34.04198" lon="77.19876">
        <ele>3296.2</ele>
        <time>2015-08-31T09:06:45Z</time>
      </trkpt>
      <trkpt lat="34.04194" lon="77.19876">
        <ele>3296</ele>
        <time>2015-08-31T09:06:51Z</time>
      </trkpt>
      <trkpt lat="34.04192" lon="77.1988">
        <ele>3295.8</ele>
        <time>2015-08-31T09:06:58Z</time>
      </trkpt>
      <trkpt lat="34.04196" lon="77.19879">
        <ele>3296.4</ele>
        <time>2015-08-31T09:07:01Z</time>
      </trkpt>
      <trkpt lat="34.04197" lon="77.19883">
        <ele>3294.8</ele>
        <time>2015-08-31T09:07:08Z</time>
      </trkpt>
      <trkpt lat="34.04193" lon="77.19884">
        <ele>3293.6</ele>
        <time>2015-08-31T09:07:13Z</time>
      </trkpt>
      <trkpt lat="34.04191" lon="77.1989">
        <ele>3292.8</ele>
        <time>2015-08-31T09:07:15Z</time>
      </trkpt>
      <trkpt lat="34.04191" lon="77.19895">
        <ele>3292.2</ele>
        <time>2015-08-31T09:07:17Z</time>
      </trkpt>
      <trkpt lat="34.04192" lon="77.199">
        <ele>3291.2</ele>
        <time>2015-08-31T09:07:25Z</time>
      </trkpt>
      <trkpt lat="34.04191" lon="77.19903">
        <ele>3291.2</ele>
        <time>2015-08-31T09:07:27Z</time>
      </trkpt>
      <trkpt lat="34.04188" lon="77.19908">
        <ele>3290.8</ele>
        <time>2015-08-31T09:07:43Z</time>
      </trkpt>
      <trkpt lat="34.04175" lon="77.19908">
        <ele>3290.6</ele>
        <time>2015-08-31T09:07:53Z</time>
      </trkpt>
      <trkpt lat="34.04173" lon="77.19908">
        <ele>3290.2</ele>
        <time>2015-08-31T09:07:55Z</time>
      </trkpt>
      <trkpt lat="34.04171" lon="77.19905">
        <ele>3289.6</ele>
        <time>2015-08-31T09:07:59Z</time>
      </trkpt>
      <trkpt lat="34.0417" lon="77.19905">
        <ele>3289.2</ele>
        <time>2015-08-31T09:08:01Z</time>
      </trkpt>
      <trkpt lat="34.04169" lon="77.19905">
        <ele>3289.2</ele>
        <time>2015-08-31T09:08:02Z</time>
      </trkpt>
      <trkpt lat="34.04164" lon="77.19913">
        <ele>3288.2</ele>
        <time>2015-08-31T09:08:20Z</time>
      </trkpt>
      <trkpt lat="34.0416" lon="77.1992">
        <ele>3287.4</ele>
        <time>2015-08-31T09:08:27Z</time>
      </trkpt>
      <trkpt lat="34.04158" lon="77.19926">
        <ele>3287.4</ele>
        <time>2015-08-31T09:08:30Z</time>
      </trkpt>
      <trkpt lat="34.04151" lon="77.19932">
        <ele>3287</ele>
        <time>2015-08-31T09:08:36Z</time>
      </trkpt>
      <trkpt lat="34.04146" lon="77.1994">
        <ele>3285.8</ele>
        <time>2015-08-31T09:08:42Z</time>
      </trkpt>
      <trkpt lat="34.04145" lon="77.19941">
        <ele>3284.6</ele>
        <time>2015-08-31T09:08:48Z</time>
      </trkpt>
      <trkpt lat="34.04144" lon="77.19946">
        <ele>3284</ele>
        <time>2015-08-31T09:08:52Z</time>
      </trkpt>
      <trkpt lat="34.04145" lon="77.19948">
        <ele>3283.6</ele>
        <time>2015-08-31T09:08:54Z</time>
      </trkpt>
      <trkpt lat="34.04145" lon="77.19949">
        <ele>3283</ele>
        <time>2015-08-31T09:08:56Z</time>
      </trkpt>
      <trkpt lat="34.04146" lon="77.19949">
        <ele>3282.6</ele>
        <time>2015-08-31T09:08:57Z</time>
      </trkpt>
      <trkpt lat="34.04143" lon="77.19953">
        <ele>3281.4</ele>
        <time>2015-08-31T09:09:02Z</time>
      </trkpt>
      <trkpt lat="34.04141" lon="77.19954">
        <ele>3280.8</ele>
        <time>2015-08-31T09:09:04Z</time>
      </trkpt>
      <trkpt lat="34.04139" lon="77.19955">
        <ele>3280.2</ele>
        <time>2015-08-31T09:09:06Z</time>
      </trkpt>
      <trkpt lat="34.04139" lon="77.19956">
        <ele>3278.8</ele>
        <time>2015-08-31T09:09:10Z</time>
      </trkpt>
      <trkpt lat="34.04139" lon="77.19957">
        <ele>3277.8</ele>
        <time>2015-08-31T09:09:13Z</time>
      </trkpt>
      <trkpt lat="34.04135" lon="77.19963">
        <ele>3276.8</ele>
        <time>2015-08-31T09:09:19Z</time>
      </trkpt>
      <trkpt lat="34.04135" lon="77.19965">
        <ele>3276.6</ele>
        <time>2015-08-31T09:09:21Z</time>
      </trkpt>
      <trkpt lat="34.04134" lon="77.19971">
        <ele>3276</ele>
        <time>2015-08-31T09:09:26Z</time>
      </trkpt>
      <trkpt lat="34.04131" lon="77.19975">
        <ele>3275.8</ele>
        <time>2015-08-31T09:09:29Z</time>
      </trkpt>
      <trkpt lat="34.04128" lon="77.19983">
        <ele>3274.6</ele>
        <time>2015-08-31T09:09:35Z</time>
      </trkpt>
      <trkpt lat="34.04127" lon="77.19983">
        <ele>3274</ele>
        <time>2015-08-31T09:09:37Z</time>
      </trkpt>
      <trkpt lat="34.04126" lon="77.19983">
        <ele>3273.4</ele>
        <time>2015-08-31T09:09:40Z</time>
      </trkpt>
      <trkpt lat="34.04122" lon="77.19988">
        <ele>3272.8</ele>
        <time>2015-08-31T09:09:46Z</time>
      </trkpt>
      <trkpt lat="34.04119" lon="77.19993">
        <ele>3272.4</ele>
        <time>2015-08-31T09:09:49Z</time>
      </trkpt>
      <trkpt lat="34.04115" lon="77.19995">
        <ele>3271.4</ele>
        <time>2015-08-31T09:09:56Z</time>
      </trkpt>
      <trkpt lat="34.0411" lon="77.19997">
        <ele>3271</ele>
        <time>2015-08-31T09:10:00Z</time>
      </trkpt>
      <trkpt lat="34.04105" lon="77.20005">
        <ele>3270.4</ele>
        <time>2015-08-31T09:10:08Z</time>
      </trkpt>
      <trkpt lat="34.04104" lon="77.20005">
        <ele>3270.2</ele>
        <time>2015-08-31T09:10:11Z</time>
      </trkpt>
      <trkpt lat="34.04086" lon="77.20013">
        <ele>3269.4</ele>
        <time>2015-08-31T09:10:31Z</time>
      </trkpt>
      <trkpt lat="34.04074" lon="77.20023">
        <ele>3270.8</ele>
        <time>2015-08-31T09:10:45Z</time>
      </trkpt>
      <trkpt lat="34.0407" lon="77.2003">
        <ele>3271.4</ele>
        <time>2015-08-31T09:10:50Z</time>
      </trkpt>
      <trkpt lat="34.04063" lon="77.20038">
        <ele>3272</ele>
        <time>2015-08-31T09:10:57Z</time>
      </trkpt>
      <trkpt lat="34.04061" lon="77.2004">
        <ele>3272.4</ele>
        <time>2015-08-31T09:10:59Z</time>
      </trkpt>
      <trkpt lat="34.04067" lon="77.20038">
        <ele>3272.4</ele>
        <time>2015-08-31T09:11:00Z</time>
      </trkpt>
      <trkpt lat="34.04067" lon="77.20038">
        <ele>3272.6</ele>
        <time>2015-08-31T09:11:01Z</time>
      </trkpt>
      <trkpt lat="34.04067" lon="77.20038">
        <ele>3273.4</ele>
        <time>2015-08-31T09:11:08Z</time>
      </trkpt>
      <trkpt lat="34.04062" lon="77.20045">
        <ele>3274.6</ele>
        <time>2015-08-31T09:11:20Z</time>
      </trkpt>
      <trkpt lat="34.04063" lon="77.20048">
        <ele>3275.6</ele>
        <time>2015-08-31T09:11:26Z</time>
      </trkpt>
      <trkpt lat="34.04058" lon="77.20053">
        <ele>3275.4</ele>
        <time>2015-08-31T09:11:38Z</time>
      </trkpt>
      <trkpt lat="34.04056" lon="77.20056">
        <ele>3274.8</ele>
        <time>2015-08-31T09:11:45Z</time>
      </trkpt>
      <trkpt lat="34.04055" lon="77.20064">
        <ele>3274.6</ele>
        <time>2015-08-31T09:11:54Z</time>
      </trkpt>
      <trkpt lat="34.04052" lon="77.20064">
        <ele>3273.4</ele>
        <time>2015-08-31T09:11:59Z</time>
      </trkpt>
      <trkpt lat="34.04049" lon="77.20065">
        <ele>3273</ele>
        <time>2015-08-31T09:12:02Z</time>
      </trkpt>
      <trkpt lat="34.04049" lon="77.20066">
        <ele>3272.4</ele>
        <time>2015-08-31T09:12:04Z</time>
      </trkpt>
      <trkpt lat="34.0405" lon="77.20067">
        <ele>3271.8</ele>
        <time>2015-08-31T09:12:06Z</time>
      </trkpt>
      <trkpt lat="34.04049" lon="77.20068">
        <ele>3271</ele>
        <time>2015-08-31T09:12:08Z</time>
      </trkpt>
      <trkpt lat="34.04043" lon="77.20073">
        <ele>3271</ele>
        <time>2015-08-31T09:12:18Z</time>
      </trkpt>
      <trkpt lat="34.04037" lon="77.20078">
        <ele>3271.6</ele>
        <time>2015-08-31T09:12:23Z</time>
      </trkpt>
      <trkpt lat="34.04028" lon="77.20088">
        <ele>3271.8</ele>
        <time>2015-08-31T09:12:29Z</time>
      </trkpt>
      <trkpt lat="34.04015" lon="77.20104">
        <ele>3271.8</ele>
        <time>2015-08-31T09:12:42Z</time>
      </trkpt>
      <trkpt lat="34.04001" lon="77.20119">
        <ele>3271.6</ele>
        <time>2015-08-31T09:12:56Z</time>
      </trkpt>
      <trkpt lat="34.03997" lon="77.20125">
        <ele>3271.2</ele>
        <time>2015-08-31T09:13:00Z</time>
      </trkpt>
      <trkpt lat="34.03996" lon="77.20129">
        <ele>3271</ele>
        <time>2015-08-31T09:13:03Z</time>
      </trkpt>
      <trkpt lat="34.03979" lon="77.20138">
        <ele>3271.4</ele>
        <time>2015-08-31T09:13:19Z</time>
      </trkpt>
      <trkpt lat="34.03974" lon="77.20139">
        <ele>3271.8</ele>
        <time>2015-08-31T09:13:24Z</time>
      </trkpt>
      <trkpt lat="34.03972" lon="77.20141">
        <ele>3272.2</ele>
        <time>2015-08-31T09:13:26Z</time>
      </trkpt>
      <trkpt lat="34.0397" lon="77.20141">
        <ele>3272.4</ele>
        <time>2015-08-31T09:13:28Z</time>
      </trkpt>
      <trkpt lat="34.03957" lon="77.20134">
        <ele>3271.2</ele>
        <time>2015-08-31T09:13:54Z</time>
      </trkpt>
      <trkpt lat="34.03957" lon="77.20133">
        <ele>3271</ele>
        <time>2015-08-31T09:13:55Z</time>
      </trkpt>
      <trkpt lat="34.03955" lon="77.20132">
        <ele>3270.2</ele>
        <time>2015-08-31T09:13:58Z</time>
      </trkpt>
      <trkpt lat="34.03954" lon="77.20131">
        <ele>3270</ele>
        <time>2015-08-31T09:13:59Z</time>
      </trkpt>
      <trkpt lat="34.03952" lon="77.2013">
        <ele>3269.4</ele>
        <time>2015-08-31T09:14:01Z</time>
      </trkpt>
      <trkpt lat="34.0395" lon="77.2013">
        <ele>3269.2</ele>
        <time>2015-08-31T09:14:02Z</time>
      </trkpt>
      <trkpt lat="34.03947" lon="77.20129">
        <ele>3267.8</ele>
        <time>2015-08-31T09:14:06Z</time>
      </trkpt>
      <trkpt lat="34.03944" lon="77.20129">
        <ele>3266.8</ele>
        <time>2015-08-31T09:14:10Z</time>
      </trkpt>
      <trkpt lat="34.03943" lon="77.20125">
        <ele>3265.8</ele>
        <time>2015-08-31T09:14:14Z</time>
      </trkpt>
      <trkpt lat="34.03943" lon="77.20125">
        <ele>3265.4</ele>
        <time>2015-08-31T09:14:15Z</time>
      </trkpt>
      <trkpt lat="34.03939" lon="77.20123">
        <ele>3264.4</ele>
        <time>2015-08-31T09:14:20Z</time>
      </trkpt>
      <trkpt lat="34.03939" lon="77.2012">
        <ele>3263.4</ele>
        <time>2015-08-31T09:14:23Z</time>
      </trkpt>
      <trkpt lat="34.03938" lon="77.20119">
        <ele>3263.2</ele>
        <time>2015-08-31T09:14:24Z</time>
      </trkpt>
      <trkpt lat="34.0393" lon="77.20124">
        <ele>3262</ele>
        <time>2015-08-31T09:14:29Z</time>
      </trkpt>
      <trkpt lat="34.03923" lon="77.20137">
        <ele>3261</ele>
        <time>2015-08-31T09:14:33Z</time>
      </trkpt>
      <trkpt lat="34.03925" lon="77.2014">
        <ele>3259.8</ele>
        <time>2015-08-31T09:14:38Z</time>
      </trkpt>
      <trkpt lat="34.03931" lon="77.2014">
        <ele>3258.6</ele>
        <time>2015-08-31T09:14:45Z</time>
      </trkpt>
      <trkpt lat="34.03933" lon="77.2013">
        <ele>3257.4</ele>
        <time>2015-08-31T09:14:51Z</time>
      </trkpt>
      <trkpt lat="34.03932" lon="77.20127">
        <ele>3256.4</ele>
        <time>2015-08-31T09:14:55Z</time>
      </trkpt>
      <trkpt lat="34.03932" lon="77.20126">
        <ele>3256.2</ele>
        <time>2015-08-31T09:14:56Z</time>
      </trkpt>
      <trkpt lat="34.03933" lon="77.2012">
        <ele>3255</ele>
        <time>2015-08-31T09:15:00Z</time>
      </trkpt>
      <trkpt lat="34.03934" lon="77.20117">
        <ele>3254</ele>
        <time>2015-08-31T09:15:04Z</time>
      </trkpt>
      <trkpt lat="34.03935" lon="77.20116">
        <ele>3253.8</ele>
        <time>2015-08-31T09:15:05Z</time>
      </trkpt>
      <trkpt lat="34.03936" lon="77.20115">
        <ele>3253.6</ele>
        <time>2015-08-31T09:15:07Z</time>
      </trkpt>
      <trkpt lat="34.03937" lon="77.20113">
        <ele>3253.2</ele>
        <time>2015-08-31T09:15:09Z</time>
      </trkpt>
      <trkpt lat="34.03938" lon="77.20112">
        <ele>3253</ele>
        <time>2015-08-31T09:15:10Z</time>
      </trkpt>
      <trkpt lat="34.03938" lon="77.20112">
        <ele>3252.6</ele>
        <time>2015-08-31T09:15:12Z</time>
      </trkpt>
      <trkpt lat="34.03938" lon="77.20111">
        <ele>3251.8</ele>
        <time>2015-08-31T09:15:16Z</time>
      </trkpt>
      <trkpt lat="34.03939" lon="77.20109">
        <ele>3251.8</ele>
        <time>2015-08-31T09:15:22Z</time>
      </trkpt>
      <trkpt lat="34.03939" lon="77.20107">
        <ele>3250.8</ele>
        <time>2015-08-31T09:15:28Z</time>
      </trkpt>
      <trkpt lat="34.03938" lon="77.201">
        <ele>3250</ele>
        <time>2015-08-31T09:15:36Z</time>
      </trkpt>
      <trkpt lat="34.03937" lon="77.20099">
        <ele>3249.6</ele>
        <time>2015-08-31T09:15:38Z</time>
      </trkpt>
      <trkpt lat="34.03933" lon="77.20098">
        <ele>3248.6</ele>
        <time>2015-08-31T09:15:42Z</time>
      </trkpt>
      <trkpt lat="34.03926" lon="77.20094">
        <ele>3247.4</ele>
        <time>2015-08-31T09:15:49Z</time>
      </trkpt>
      <trkpt lat="34.0392" lon="77.20091">
        <ele>3246.8</ele>
        <time>2015-08-31T09:15:54Z</time>
      </trkpt>
      <trkpt lat="34.03914" lon="77.2009">
        <ele>3246.4</ele>
        <time>2015-08-31T09:16:01Z</time>
      </trkpt>
      <trkpt lat="34.03911" lon="77.20089">
        <ele>3246.2</ele>
        <time>2015-08-31T09:16:03Z</time>
      </trkpt>
      <trkpt lat="34.03905" lon="77.20083">
        <ele>3245.2</ele>
        <time>2015-08-31T09:16:14Z</time>
      </trkpt>
      <trkpt lat="34.03898" lon="77.20078">
        <ele>3244.4</ele>
        <time>2015-08-31T09:16:22Z</time>
      </trkpt>
      <trkpt lat="34.03897" lon="77.20077">
        <ele>3244.2</ele>
        <time>2015-08-31T09:16:23Z</time>
      </trkpt>
      <trkpt lat="34.03891" lon="77.20074">
        <ele>3243</ele>
        <time>2015-08-31T09:16:30Z</time>
      </trkpt>
      <trkpt lat="34.0389" lon="77.20072">
        <ele>3242.8</ele>
        <time>2015-08-31T09:16:32Z</time>
      </trkpt>
      <trkpt lat="34.0389" lon="77.20063">
        <ele>3242</ele>
        <time>2015-08-31T09:16:48Z</time>
      </trkpt>
      <trkpt lat="34.03881" lon="77.20064">
        <ele>3241.4</ele>
        <time>2015-08-31T09:16:56Z</time>
      </trkpt>
      <trkpt lat="34.03878" lon="77.20063">
        <ele>3241</ele>
        <time>2015-08-31T09:16:59Z</time>
      </trkpt>
      <trkpt lat="34.03877" lon="77.20061">
        <ele>3240.8</ele>
        <time>2015-08-31T09:17:01Z</time>
      </trkpt>
      <trkpt lat="34.03875" lon="77.20059">
        <ele>3240.4</ele>
        <time>2015-08-31T09:17:04Z</time>
      </trkpt>
      <trkpt lat="34.03873" lon="77.20057">
        <ele>3240</ele>
        <time>2015-08-31T09:17:07Z</time>
      </trkpt>
      <trkpt lat="34.03871" lon="77.20057">
        <ele>3239.8</ele>
        <time>2015-08-31T09:17:08Z</time>
      </trkpt>
      <trkpt lat="34.03868" lon="77.20056">
        <ele>3239.6</ele>
        <time>2015-08-31T09:17:11Z</time>
      </trkpt>
      <trkpt lat="34.03865" lon="77.20055">
        <ele>3238.8</ele>
        <time>2015-08-31T09:17:18Z</time>
      </trkpt>
      <trkpt lat="34.03863" lon="77.20065">
        <ele>3292.2</ele>
        <time>2015-08-31T09:17:46Z</time>
      </trkpt>
    </trkseg>
  </trk>
  <trk>
    <name><![CDATA[Chilling (3210m) - Village de Kaya (3380m)]]></name>
    <trkseg>
      <trkpt lat="34.03866" lon="77.20054">
        <ele>3229.4</ele>
        <time>2015-09-01T03:03:50Z</time>
      </trkpt>
      <trkpt lat="34.03865" lon="77.20055">
        <ele>3229.2</ele>
        <time>2015-09-01T03:03:51Z</time>
      </trkpt>
      <trkpt lat="34.03866" lon="77.20064">
        <ele>3228.8</ele>
        <time>2015-09-01T03:03:55Z</time>
      </trkpt>
      <trkpt lat="34.0386" lon="77.20068">
        <ele>3228.4</ele>
        <time>2015-09-01T03:04:01Z</time>
      </trkpt>
      <trkpt lat="34.03855" lon="77.20071">
        <ele>3227.2</ele>
        <time>2015-09-01T03:04:08Z</time>
      </trkpt>
      <trkpt lat="34.03839" lon="77.20081">
        <ele>3226.8</ele>
        <time>2015-09-01T03:04:23Z</time>
      </trkpt>
      <trkpt lat="34.03831" lon="77.20083">
        <ele>3226.2</ele>
        <time>2015-09-01T03:04:30Z</time>
      </trkpt>
      <trkpt lat="34.03815" lon="77.20096">
        <ele>3225.4</ele>
        <time>2015-09-01T03:04:46Z</time>
      </trkpt>
      <trkpt lat="34.03813" lon="77.201">
        <ele>3225.2</ele>
        <time>2015-09-01T03:04:50Z</time>
      </trkpt>
      <trkpt lat="34.03796" lon="77.2011">
        <ele>3224.4</ele>
        <time>2015-09-01T03:05:04Z</time>
      </trkpt>
      <trkpt lat="34.03779" lon="77.20111">
        <ele>3224.2</ele>
        <time>2015-09-01T03:05:16Z</time>
      </trkpt>
      <trkpt lat="34.03764" lon="77.20107">
        <ele>3223</ele>
        <time>2015-09-01T03:05:27Z</time>
      </trkpt>
      <trkpt lat="34.03754" lon="77.201">
        <ele>3222</ele>
        <time>2015-09-01T03:05:33Z</time>
      </trkpt>
      <trkpt lat="34.03751" lon="77.20098">
        <ele>3221.6</ele>
        <time>2015-09-01T03:05:35Z</time>
      </trkpt>
      <trkpt lat="34.03746" lon="77.20094">
        <ele>3221.4</ele>
        <time>2015-09-01T03:05:37Z</time>
      </trkpt>
      <trkpt lat="34.03743" lon="77.20091">
        <ele>3221</ele>
        <time>2015-09-01T03:05:40Z</time>
      </trkpt>
      <trkpt lat="34.03741" lon="77.20091">
        <ele>3220.8</ele>
        <time>2015-09-01T03:05:42Z</time>
      </trkpt>
      <trkpt lat="34.0374" lon="77.20089">
        <ele>3220.8</ele>
        <time>2015-09-01T03:05:46Z</time>
      </trkpt>
      <trkpt lat="34.0373" lon="77.2008">
        <ele>3220.4</ele>
        <time>2015-09-01T03:06:02Z</time>
      </trkpt>
      <trkpt lat="34.03728" lon="77.20078">
        <ele>3220.4</ele>
        <time>2015-09-01T03:06:03Z</time>
      </trkpt>
      <trkpt lat="34.03727" lon="77.20075">
        <ele>3220.2</ele>
        <time>2015-09-01T03:06:05Z</time>
      </trkpt>
      <trkpt lat="34.03727" lon="77.20074">
        <ele>3220.2</ele>
        <time>2015-09-01T03:06:07Z</time>
      </trkpt>
      <trkpt lat="34.03728" lon="77.20072">
        <ele>3219.8</ele>
        <time>2015-09-01T03:06:14Z</time>
      </trkpt>
      <trkpt lat="34.03729" lon="77.20061">
        <ele>3219.6</ele>
        <time>2015-09-01T03:06:27Z</time>
      </trkpt>
      <trkpt lat="34.03729" lon="77.20059">
        <ele>3219.6</ele>
        <time>2015-09-01T03:06:29Z</time>
      </trkpt>
      <trkpt lat="34.03729" lon="77.20057">
        <ele>3219.4</ele>
        <time>2015-09-01T03:06:31Z</time>
      </trkpt>
      <trkpt lat="34.03733" lon="77.20048">
        <ele>3218.8</ele>
        <time>2015-09-01T03:06:49Z</time>
      </trkpt>
      <trkpt lat="34.0373" lon="77.20029">
        <ele>3218.2</ele>
        <time>2015-09-01T03:07:04Z</time>
      </trkpt>
      <trkpt lat="34.03729" lon="77.20022">
        <ele>3217.8</ele>
        <time>2015-09-01T03:07:09Z</time>
      </trkpt>
      <trkpt lat="34.03729" lon="77.2002">
        <ele>3217.6</ele>
        <time>2015-09-01T03:07:11Z</time>
      </trkpt>
      <trkpt lat="34.03732" lon="77.20015">
        <ele>3217.4</ele>
        <time>2015-09-01T03:07:17Z</time>
      </trkpt>
      <trkpt lat="34.03737" lon="77.20012">
        <ele>3216.8</ele>
        <time>2015-09-01T03:07:28Z</time>
      </trkpt>
      <trkpt lat="34.03739" lon="77.20009">
        <ele>3216.6</ele>
        <time>2015-09-01T03:07:31Z</time>
      </trkpt>
      <trkpt lat="34.03747" lon="77.20012">
        <ele>3216.6</ele>
        <time>2015-09-01T03:07:39Z</time>
      </trkpt>
      <trkpt lat="34.03748" lon="77.2001">
        <ele>3216.8</ele>
        <time>2015-09-01T03:07:41Z</time>
      </trkpt>
      <trkpt lat="34.03746" lon="77.20005">
        <ele>3216.8</ele>
        <time>2015-09-01T03:07:43Z</time>
      </trkpt>
      <trkpt lat="34.03745" lon="77.19995">
        <ele>3216</ele>
        <time>2015-09-01T03:07:50Z</time>
      </trkpt>
      <trkpt lat="34.03744" lon="77.19985">
        <ele>3215.6</ele>
        <time>2015-09-01T03:07:55Z</time>
      </trkpt>
      <trkpt lat="34.03744" lon="77.19975">
        <ele>3215.8</ele>
        <time>2015-09-01T03:08:02Z</time>
      </trkpt>
      <trkpt lat="34.03747" lon="77.19954">
        <ele>3215.4</ele>
        <time>2015-09-01T03:08:18Z</time>
      </trkpt>
      <trkpt lat="34.0375" lon="77.1994">
        <ele>3215.4</ele>
        <time>2015-09-01T03:08:30Z</time>
      </trkpt>
      <trkpt lat="34.0375" lon="77.19936">
        <ele>3215.2</ele>
        <time>2015-09-01T03:08:34Z</time>
      </trkpt>
      <trkpt lat="34.03755" lon="77.19923">
        <ele>3215.2</ele>
        <time>2015-09-01T03:08:49Z</time>
      </trkpt>
      <trkpt lat="34.03754" lon="77.1992">
        <ele>3215.2</ele>
        <time>2015-09-01T03:08:51Z</time>
      </trkpt>
      <trkpt lat="34.03751" lon="77.199">
        <ele>3215</ele>
        <time>2015-09-01T03:09:11Z</time>
      </trkpt>
      <trkpt lat="34.03742" lon="77.19881">
        <ele>3214.6</ele>
        <time>2015-09-01T03:09:27Z</time>
      </trkpt>
      <trkpt lat="34.0374" lon="77.19881">
        <ele>3214.6</ele>
        <time>2015-09-01T03:09:29Z</time>
      </trkpt>
      <trkpt lat="34.0373" lon="77.19868">
        <ele>3214.8</ele>
        <time>2015-09-01T03:09:45Z</time>
      </trkpt>
      <trkpt lat="34.03729" lon="77.19865">
        <ele>3214.8</ele>
        <time>2015-09-01T03:09:48Z</time>
      </trkpt>
      <trkpt lat="34.03725" lon="77.19859">
        <ele>3214.6</ele>
        <time>2015-09-01T03:09:54Z</time>
      </trkpt>
      <trkpt lat="34.03709" lon="77.1985">
        <ele>3214.2</ele>
        <time>2015-09-01T03:10:10Z</time>
      </trkpt>
      <trkpt lat="34.03705" lon="77.19848">
        <ele>3214.2</ele>
        <time>2015-09-01T03:10:14Z</time>
      </trkpt>
      <trkpt lat="34.0369" lon="77.19839">
        <ele>3213.6</ele>
        <time>2015-09-01T03:10:39Z</time>
      </trkpt>
      <trkpt lat="34.0369" lon="77.19839">
        <ele>3213.6</ele>
        <time>2015-09-01T03:10:40Z</time>
      </trkpt>
      <trkpt lat="34.03687" lon="77.19835">
        <ele>3213.4</ele>
        <time>2015-09-01T03:10:44Z</time>
      </trkpt>
      <trkpt lat="34.03685" lon="77.19832">
        <ele>3213.4</ele>
        <time>2015-09-01T03:10:47Z</time>
      </trkpt>
      <trkpt lat="34.03684" lon="77.1983">
        <ele>3213.6</ele>
        <time>2015-09-01T03:10:50Z</time>
      </trkpt>
      <trkpt lat="34.03671" lon="77.1982">
        <ele>3212.8</ele>
        <time>2015-09-01T03:11:16Z</time>
      </trkpt>
      <trkpt lat="34.03669" lon="77.19819">
        <ele>3213</ele>
        <time>2015-09-01T03:11:18Z</time>
      </trkpt>
      <trkpt lat="34.03658" lon="77.19811">
        <ele>3212.6</ele>
        <time>2015-09-01T03:11:29Z</time>
      </trkpt>
      <trkpt lat="34.03641" lon="77.19802">
        <ele>3212.2</ele>
        <time>2015-09-01T03:11:44Z</time>
      </trkpt>
      <trkpt lat="34.03634" lon="77.19801">
        <ele>3211.8</ele>
        <time>2015-09-01T03:11:51Z</time>
      </trkpt>
      <trkpt lat="34.03631" lon="77.19806">
        <ele>3211.8</ele>
        <time>2015-09-01T03:11:56Z</time>
      </trkpt>
      <trkpt lat="34.0363" lon="77.19805">
        <ele>3211.2</ele>
        <time>2015-09-01T03:11:58Z</time>
      </trkpt>
      <trkpt lat="34.03628" lon="77.19799">
        <ele>3211.6</ele>
        <time>2015-09-01T03:12:09Z</time>
      </trkpt>
      <trkpt lat="34.03622" lon="77.19791">
        <ele>3211.6</ele>
        <time>2015-09-01T03:12:21Z</time>
      </trkpt>
      <trkpt lat="34.0362" lon="77.1979">
        <ele>3211.6</ele>
        <time>2015-09-01T03:12:23Z</time>
      </trkpt>
      <trkpt lat="34.03619" lon="77.19789">
        <ele>3211.4</ele>
        <time>2015-09-01T03:12:25Z</time>
      </trkpt>
      <trkpt lat="34.03617" lon="77.19789">
        <ele>3211.4</ele>
        <time>2015-09-01T03:12:28Z</time>
      </trkpt>
      <trkpt lat="34.03616" lon="77.19792">
        <ele>3211.2</ele>
        <time>2015-09-01T03:12:39Z</time>
      </trkpt>
      <trkpt lat="34.03609" lon="77.19791">
        <ele>3210.8</ele>
        <time>2015-09-01T03:12:49Z</time>
      </trkpt>
      <trkpt lat="34.03591" lon="77.19784">
        <ele>3211</ele>
        <time>2015-09-01T03:13:06Z</time>
      </trkpt>
      <trkpt lat="34.03589" lon="77.19785">
        <ele>3211</ele>
        <time>2015-09-01T03:13:07Z</time>
      </trkpt>
      <trkpt lat="34.03581" lon="77.19786">
        <ele>3210.8</ele>
        <time>2015-09-01T03:13:17Z</time>
      </trkpt>
      <trkpt lat="34.03579" lon="77.19788">
        <ele>3210.4</ele>
        <time>2015-09-01T03:14:22Z</time>
      </trkpt>
      <trkpt lat="34.03576" lon="77.1979">
        <ele>3210.2</ele>
        <time>2015-09-01T03:14:27Z</time>
      </trkpt>
      <trkpt lat="34.03574" lon="77.1979">
        <ele>3210.2</ele>
        <time>2015-09-01T03:14:31Z</time>
      </trkpt>
      <trkpt lat="34.03576" lon="77.19792">
        <ele>3209.8</ele>
        <time>2015-09-01T03:15:00Z</time>
      </trkpt>
      <trkpt lat="34.03581" lon="77.19781">
        <ele>3209.2</ele>
        <time>2015-09-01T03:15:30Z</time>
      </trkpt>
      <trkpt lat="34.03579" lon="77.19775">
        <ele>3209.4</ele>
        <time>2015-09-01T03:16:01Z</time>
      </trkpt>
      <trkpt lat="34.03575" lon="77.19777">
        <ele>3209.2</ele>
        <time>2015-09-01T03:16:13Z</time>
      </trkpt>
      <trkpt lat="34.03557" lon="77.19778">
        <ele>3208.6</ele>
        <time>2015-09-01T03:16:25Z</time>
      </trkpt>
      <trkpt lat="34.03539" lon="77.19774">
        <ele>3208.6</ele>
        <time>2015-09-01T03:16:41Z</time>
      </trkpt>
      <trkpt lat="34.03524" lon="77.19776">
        <ele>3208.8</ele>
        <time>2015-09-01T03:16:53Z</time>
      </trkpt>
      <trkpt lat="34.03518" lon="77.19773">
        <ele>3208.2</ele>
        <time>2015-09-01T03:16:58Z</time>
      </trkpt>
      <trkpt lat="34.03505" lon="77.19773">
        <ele>3208.2</ele>
        <time>2015-09-01T03:17:11Z</time>
      </trkpt>
      <trkpt lat="34.03498" lon="77.19774">
        <ele>3208.6</ele>
        <time>2015-09-01T03:17:20Z</time>
      </trkpt>
      <trkpt lat="34.03493" lon="77.19777">
        <ele>3208.4</ele>
        <time>2015-09-01T03:17:36Z</time>
      </trkpt>
      <trkpt lat="34.0349" lon="77.19774">
        <ele>3208.6</ele>
        <time>2015-09-01T03:17:38Z</time>
      </trkpt>
      <trkpt lat="34.03488" lon="77.1977">
        <ele>3208.8</ele>
        <time>2015-09-01T03:17:41Z</time>
      </trkpt>
      <trkpt lat="34.03475" lon="77.19769">
        <ele>3208.6</ele>
        <time>2015-09-01T03:17:49Z</time>
      </trkpt>
      <trkpt lat="34.03458" lon="77.19764">
        <ele>3208.6</ele>
        <time>2015-09-01T03:18:04Z</time>
      </trkpt>
      <trkpt lat="34.03457" lon="77.19763">
        <ele>3208.4</ele>
        <time>2015-09-01T03:18:05Z</time>
      </trkpt>
      <trkpt lat="34.03438" lon="77.19761">
        <ele>3208.6</ele>
        <time>2015-09-01T03:18:19Z</time>
      </trkpt>
      <trkpt lat="34.03426" lon="77.19754">
        <ele>3208.8</ele>
        <time>2015-09-01T03:18:31Z</time>
      </trkpt>
      <trkpt lat="34.03424" lon="77.19753">
        <ele>3209.2</ele>
        <time>2015-09-01T03:18:33Z</time>
      </trkpt>
      <trkpt lat="34.03405" lon="77.19747">
        <ele>3208.6</ele>
        <time>2015-09-01T03:18:48Z</time>
      </trkpt>
      <trkpt lat="34.0339" lon="77.19737">
        <ele>3208.2</ele>
        <time>2015-09-01T03:19:02Z</time>
      </trkpt>
      <trkpt lat="34.03374" lon="77.19727">
        <ele>3208.4</ele>
        <time>2015-09-01T03:19:16Z</time>
      </trkpt>
      <trkpt lat="34.03365" lon="77.19717">
        <ele>3208.2</ele>
        <time>2015-09-01T03:19:27Z</time>
      </trkpt>
      <trkpt lat="34.03363" lon="77.19716">
        <ele>3207.6</ele>
        <time>2015-09-01T03:19:31Z</time>
      </trkpt>
      <trkpt lat="34.03359" lon="77.19713">
        <ele>3207.4</ele>
        <time>2015-09-01T03:19:42Z</time>
      </trkpt>
      <trkpt lat="34.0335" lon="77.19705">
        <ele>3207.2</ele>
        <time>2015-09-01T03:19:49Z</time>
      </trkpt>
      <trkpt lat="34.03348" lon="77.19701">
        <ele>3207.2</ele>
        <time>2015-09-01T03:19:53Z</time>
      </trkpt>
      <trkpt lat="34.03337" lon="77.19684">
        <ele>3207.6</ele>
        <time>2015-09-01T03:20:09Z</time>
      </trkpt>
      <trkpt lat="34.03328" lon="77.19671">
        <ele>3208</ele>
        <time>2015-09-01T03:20:22Z</time>
      </trkpt>
      <trkpt lat="34.03316" lon="77.19653">
        <ele>3207.8</ele>
        <time>2015-09-01T03:20:39Z</time>
      </trkpt>
      <trkpt lat="34.03315" lon="77.19652">
        <ele>3207.8</ele>
        <time>2015-09-01T03:20:40Z</time>
      </trkpt>
      <trkpt lat="34.03304" lon="77.19634">
        <ele>3207.8</ele>
        <time>2015-09-01T03:20:57Z</time>
      </trkpt>
      <trkpt lat="34.03301" lon="77.19631">
        <ele>3208.2</ele>
        <time>2015-09-01T03:21:01Z</time>
      </trkpt>
      <trkpt lat="34.03293" lon="77.19621">
        <ele>3207.8</ele>
        <time>2015-09-01T03:21:12Z</time>
      </trkpt>
      <trkpt lat="34.03285" lon="77.19613">
        <ele>3208.8</ele>
        <time>2015-09-01T03:21:19Z</time>
      </trkpt>
      <trkpt lat="34.03278" lon="77.19607">
        <ele>3209.2</ele>
        <time>2015-09-01T03:21:29Z</time>
      </trkpt>
      <trkpt lat="34.03267" lon="77.19589">
        <ele>3209.8</ele>
        <time>2015-09-01T03:21:44Z</time>
      </trkpt>
      <trkpt lat="34.03262" lon="77.1958">
        <ele>3210.2</ele>
        <time>2015-09-01T03:21:51Z</time>
      </trkpt>
      <trkpt lat="34.03259" lon="77.19577">
        <ele>3210.4</ele>
        <time>2015-09-01T03:21:55Z</time>
      </trkpt>
      <trkpt lat="34.03245" lon="77.19562">
        <ele>3210.6</ele>
        <time>2015-09-01T03:22:10Z</time>
      </trkpt>
      <trkpt lat="34.03235" lon="77.19545">
        <ele>3209.8</ele>
        <time>2015-09-01T03:22:28Z</time>
      </trkpt>
      <trkpt lat="34.03223" lon="77.19529">
        <ele>3209.4</ele>
        <time>2015-09-01T03:22:41Z</time>
      </trkpt>
      <trkpt lat="34.0322" lon="77.19526">
        <ele>3209.2</ele>
        <time>2015-09-01T03:22:43Z</time>
      </trkpt>
      <trkpt lat="34.03211" lon="77.19521">
        <ele>3208</ele>
        <time>2015-09-01T03:22:58Z</time>
      </trkpt>
      <trkpt lat="34.03199" lon="77.19505">
        <ele>3208.2</ele>
        <time>2015-09-01T03:23:11Z</time>
      </trkpt>
      <trkpt lat="34.03187" lon="77.19487">
        <ele>3207.6</ele>
        <time>2015-09-01T03:23:25Z</time>
      </trkpt>
      <trkpt lat="34.03184" lon="77.19481">
        <ele>3207.4</ele>
        <time>2015-09-01T03:23:29Z</time>
      </trkpt>
      <trkpt lat="34.03175" lon="77.19461">
        <ele>3207.6</ele>
        <time>2015-09-01T03:23:41Z</time>
      </trkpt>
      <trkpt lat="34.03168" lon="77.19439">
        <ele>3207.6</ele>
        <time>2015-09-01T03:23:56Z</time>
      </trkpt>
      <trkpt lat="34.03154" lon="77.19424">
        <ele>3208</ele>
        <time>2015-09-01T03:24:14Z</time>
      </trkpt>
      <trkpt lat="34.03151" lon="77.1942">
        <ele>3208.4</ele>
        <time>2015-09-01T03:24:18Z</time>
      </trkpt>
      <trkpt lat="34.03148" lon="77.1942">
        <ele>3208.4</ele>
        <time>2015-09-01T03:24:20Z</time>
      </trkpt>
      <trkpt lat="34.03144" lon="77.19427">
        <ele>3207.8</ele>
        <time>2015-09-01T03:24:43Z</time>
      </trkpt>
      <trkpt lat="34.03144" lon="77.19422">
        <ele>3208.2</ele>
        <time>2015-09-01T03:24:47Z</time>
      </trkpt>
      <trkpt lat="34.03134" lon="77.19402">
        <ele>3208</ele>
        <time>2015-09-01T03:25:00Z</time>
      </trkpt>
      <trkpt lat="34.0312" lon="77.19385">
        <ele>3208</ele>
        <time>2015-09-01T03:25:17Z</time>
      </trkpt>
      <trkpt lat="34.03108" lon="77.19368">
        <ele>3208</ele>
        <time>2015-09-01T03:25:31Z</time>
      </trkpt>
      <trkpt lat="34.03101" lon="77.19357">
        <ele>3207.2</ele>
        <time>2015-09-01T03:25:44Z</time>
      </trkpt>
      <trkpt lat="34.03098" lon="77.19349">
        <ele>3207.6</ele>
        <time>2015-09-01T03:25:49Z</time>
      </trkpt>
      <trkpt lat="34.03096" lon="77.19348">
        <ele>3207.6</ele>
        <time>2015-09-01T03:25:51Z</time>
      </trkpt>
      <trkpt lat="34.03086" lon="77.19348">
        <ele>3207</ele>
        <time>2015-09-01T03:25:58Z</time>
      </trkpt>
      <trkpt lat="34.0308" lon="77.19345">
        <ele>3206.8</ele>
        <time>2015-09-01T03:26:03Z</time>
      </trkpt>
      <trkpt lat="34.03063" lon="77.19337">
        <ele>3206.4</ele>
        <time>2015-09-01T03:26:22Z</time>
      </trkpt>
      <trkpt lat="34.03051" lon="77.19337">
        <ele>3206.4</ele>
        <time>2015-09-01T03:26:33Z</time>
      </trkpt>
      <trkpt lat="34.03034" lon="77.19331">
        <ele>3206.6</ele>
        <time>2015-09-01T03:26:47Z</time>
      </trkpt>
      <trkpt lat="34.03025" lon="77.19329">
        <ele>3206.4</ele>
        <time>2015-09-01T03:26:54Z</time>
      </trkpt>
      <trkpt lat="34.03023" lon="77.1933">
        <ele>3206.4</ele>
        <time>2015-09-01T03:26:56Z</time>
      </trkpt>
      <trkpt lat="34.03009" lon="77.19333">
        <ele>3206.6</ele>
        <time>2015-09-01T03:27:10Z</time>
      </trkpt>
      <trkpt lat="34.02992" lon="77.1934">
        <ele>3207.2</ele>
        <time>2015-09-01T03:27:26Z</time>
      </trkpt>
      <trkpt lat="34.02988" lon="77.19341">
        <ele>3207.4</ele>
        <time>2015-09-01T03:27:30Z</time>
      </trkpt>
      <trkpt lat="34.0297" lon="77.19343">
        <ele>3208</ele>
        <time>2015-09-01T03:27:47Z</time>
      </trkpt>
      <trkpt lat="34.02969" lon="77.19343">
        <ele>3208</ele>
        <time>2015-09-01T03:27:48Z</time>
      </trkpt>
      <trkpt lat="34.02951" lon="77.1935">
        <ele>3208.2</ele>
        <time>2015-09-01T03:28:02Z</time>
      </trkpt>
      <trkpt lat="34.02937" lon="77.19349">
        <ele>3208</ele>
        <time>2015-09-01T03:28:14Z</time>
      </trkpt>
      <trkpt lat="34.0292" lon="77.19355">
        <ele>3208.2</ele>
        <time>2015-09-01T03:28:31Z</time>
      </trkpt>
      <trkpt lat="34.02917" lon="77.19356">
        <ele>3208.2</ele>
        <time>2015-09-01T03:28:33Z</time>
      </trkpt>
      <trkpt lat="34.02913" lon="77.19357">
        <ele>3208.2</ele>
        <time>2015-09-01T03:28:37Z</time>
      </trkpt>
      <trkpt lat="34.02905" lon="77.19363">
        <ele>3209</ele>
        <time>2015-09-01T03:28:43Z</time>
      </trkpt>
      <trkpt lat="34.02903" lon="77.19363">
        <ele>3209.2</ele>
        <time>2015-09-01T03:28:44Z</time>
      </trkpt>
      <trkpt lat="34.02887" lon="77.19371">
        <ele>3209.2</ele>
        <time>2015-09-01T03:28:59Z</time>
      </trkpt>
      <trkpt lat="34.02873" lon="77.19372">
        <ele>3208.8</ele>
        <time>2015-09-01T03:29:15Z</time>
      </trkpt>
      <trkpt lat="34.02855" lon="77.19375">
        <ele>3209.2</ele>
        <time>2015-09-01T03:29:30Z</time>
      </trkpt>
      <trkpt lat="34.02843" lon="77.19383">
        <ele>3210</ele>
        <time>2015-09-01T03:29:41Z</time>
      </trkpt>
      <trkpt lat="34.02832" lon="77.19394">
        <ele>3211.2</ele>
        <time>2015-09-01T03:29:52Z</time>
      </trkpt>
      <trkpt lat="34.0283" lon="77.19395">
        <ele>3211.4</ele>
        <time>2015-09-01T03:29:54Z</time>
      </trkpt>
      <trkpt lat="34.02826" lon="77.194">
        <ele>3212.2</ele>
        <time>2015-09-01T03:30:00Z</time>
      </trkpt>
      <trkpt lat="34.02814" lon="77.19404">
        <ele>3213.2</ele>
        <time>2015-09-01T03:30:16Z</time>
      </trkpt>
      <trkpt lat="34.02798" lon="77.19416">
        <ele>3213.8</ele>
        <time>2015-09-01T03:30:34Z</time>
      </trkpt>
      <trkpt lat="34.02793" lon="77.19421">
        <ele>3214.2</ele>
        <time>2015-09-01T03:30:39Z</time>
      </trkpt>
      <trkpt lat="34.02791" lon="77.19422">
        <ele>3214.2</ele>
        <time>2015-09-01T03:30:41Z</time>
      </trkpt>
      <trkpt lat="34.02774" lon="77.19433">
        <ele>3215.2</ele>
        <time>2015-09-01T03:30:56Z</time>
      </trkpt>
      <trkpt lat="34.02772" lon="77.19436">
        <ele>3215.2</ele>
        <time>2015-09-01T03:30:59Z</time>
      </trkpt>
      <trkpt lat="34.02764" lon="77.19443">
        <ele>3215.4</ele>
        <time>2015-09-01T03:31:10Z</time>
      </trkpt>
      <trkpt lat="34.02749" lon="77.19456">
        <ele>3215.6</ele>
        <time>2015-09-01T03:31:26Z</time>
      </trkpt>
      <trkpt lat="34.02733" lon="77.19467">
        <ele>3216.2</ele>
        <time>2015-09-01T03:31:46Z</time>
      </trkpt>
      <trkpt lat="34.02732" lon="77.19468">
        <ele>3216.2</ele>
        <time>2015-09-01T03:31:47Z</time>
      </trkpt>
      <trkpt lat="34.0273" lon="77.19474">
        <ele>3216</ele>
        <time>2015-09-01T03:31:52Z</time>
      </trkpt>
      <trkpt lat="34.0272" lon="77.19492">
        <ele>3216</ele>
        <time>2015-09-01T03:32:17Z</time>
      </trkpt>
      <trkpt lat="34.0272" lon="77.19496">
        <ele>3215.8</ele>
        <time>2015-09-01T03:32:21Z</time>
      </trkpt>
      <trkpt lat="34.02717" lon="77.19492">
        <ele>3215.6</ele>
        <time>2015-09-01T03:32:48Z</time>
      </trkpt>
      <trkpt lat="34.02716" lon="77.19492">
        <ele>3215.8</ele>
        <time>2015-09-01T03:32:51Z</time>
      </trkpt>
      <trkpt lat="34.02713" lon="77.19488">
        <ele>3216.2</ele>
        <time>2015-09-01T03:32:56Z</time>
      </trkpt>
      <trkpt lat="34.02709" lon="77.19491">
        <ele>3216</ele>
        <time>2015-09-01T03:32:59Z</time>
      </trkpt>
      <trkpt lat="34.02697" lon="77.19507">
        <ele>3215.4</ele>
        <time>2015-09-01T03:33:12Z</time>
      </trkpt>
      <trkpt lat="34.02681" lon="77.19521">
        <ele>3215.2</ele>
        <time>2015-09-01T03:33:31Z</time>
      </trkpt>
      <trkpt lat="34.02675" lon="77.19529">
        <ele>3214.8</ele>
        <time>2015-09-01T03:33:39Z</time>
      </trkpt>
      <trkpt lat="34.02672" lon="77.19534">
        <ele>3214.8</ele>
        <time>2015-09-01T03:33:43Z</time>
      </trkpt>
      <trkpt lat="34.02659" lon="77.1955">
        <ele>3215</ele>
        <time>2015-09-01T03:33:57Z</time>
      </trkpt>
      <trkpt lat="34.02649" lon="77.1957">
        <ele>3214.4</ele>
        <time>2015-09-01T03:34:12Z</time>
      </trkpt>
      <trkpt lat="34.02645" lon="77.19578">
        <ele>3214.2</ele>
        <time>2015-09-01T03:34:17Z</time>
      </trkpt>
      <trkpt lat="34.02636" lon="77.19596">
        <ele>3214</ele>
        <time>2015-09-01T03:34:36Z</time>
      </trkpt>
      <trkpt lat="34.02625" lon="77.19614">
        <ele>3213.6</ele>
        <time>2015-09-01T03:34:50Z</time>
      </trkpt>
      <trkpt lat="34.02613" lon="77.19625">
        <ele>3213.2</ele>
        <time>2015-09-01T03:35:04Z</time>
      </trkpt>
      <trkpt lat="34.02606" lon="77.19647">
        <ele>3212.8</ele>
        <time>2015-09-01T03:35:17Z</time>
      </trkpt>
      <trkpt lat="34.02595" lon="77.19659">
        <ele>3213.2</ele>
        <time>2015-09-01T03:35:30Z</time>
      </trkpt>
      <trkpt lat="34.02596" lon="77.19651">
        <ele>3213.4</ele>
        <time>2015-09-01T03:35:34Z</time>
      </trkpt>
      <trkpt lat="34.02599" lon="77.1964">
        <ele>3213.6</ele>
        <time>2015-09-01T03:35:36Z</time>
      </trkpt>
      <trkpt lat="34.02593" lon="77.19645">
        <ele>3213.6</ele>
        <time>2015-09-01T03:35:39Z</time>
      </trkpt>
      <trkpt lat="34.02589" lon="77.19653">
        <ele>3213.6</ele>
        <time>2015-09-01T03:35:41Z</time>
      </trkpt>
      <trkpt lat="34.02573" lon="77.19667">
        <ele>3213.2</ele>
        <time>2015-09-01T03:35:49Z</time>
      </trkpt>
      <trkpt lat="34.02556" lon="77.19676">
        <ele>3213.2</ele>
        <time>2015-09-01T03:36:00Z</time>
      </trkpt>
      <trkpt lat="34.02544" lon="77.19683">
        <ele>3212.2</ele>
        <time>2015-09-01T03:36:10Z</time>
      </trkpt>
      <trkpt lat="34.02531" lon="77.19693">
        <ele>3211.2</ele>
        <time>2015-09-01T03:36:23Z</time>
      </trkpt>
      <trkpt lat="34.02513" lon="77.19698">
        <ele>3210.2</ele>
        <time>2015-09-01T03:36:39Z</time>
      </trkpt>
      <trkpt lat="34.02495" lon="77.19705">
        <ele>3209.4</ele>
        <time>2015-09-01T03:36:53Z</time>
      </trkpt>
      <trkpt lat="34.0249" lon="77.19705">
        <ele>3209</ele>
        <time>2015-09-01T03:36:59Z</time>
      </trkpt>
      <trkpt lat="34.02489" lon="77.19706">
        <ele>3208.8</ele>
        <time>2015-09-01T03:37:00Z</time>
      </trkpt>
      <trkpt lat="34.02488" lon="77.19708">
        <ele>3208.6</ele>
        <time>2015-09-01T03:37:02Z</time>
      </trkpt>
      <trkpt lat="34.02487" lon="77.1971">
        <ele>3208.6</ele>
        <time>2015-09-01T03:37:04Z</time>
      </trkpt>
      <trkpt lat="34.02485" lon="77.19712">
        <ele>3208.8</ele>
        <time>2015-09-01T03:37:06Z</time>
      </trkpt>
      <trkpt lat="34.02482" lon="77.19717">
        <ele>3208.6</ele>
        <time>2015-09-01T03:37:14Z</time>
      </trkpt>
      <trkpt lat="34.02464" lon="77.19718">
        <ele>3208.8</ele>
        <time>2015-09-01T03:37:41Z</time>
      </trkpt>
      <trkpt lat="34.0245" lon="77.19725">
        <ele>3208.4</ele>
        <time>2015-09-01T03:37:53Z</time>
      </trkpt>
      <trkpt lat="34.02433" lon="77.19731">
        <ele>3208.2</ele>
        <time>2015-09-01T03:38:09Z</time>
      </trkpt>
      <trkpt lat="34.02414" lon="77.19737">
        <ele>3208.2</ele>
        <time>2015-09-01T03:38:25Z</time>
      </trkpt>
      <trkpt lat="34.02395" lon="77.19742">
        <ele>3208.2</ele>
        <time>2015-09-01T03:38:43Z</time>
      </trkpt>
      <trkpt lat="34.02379" lon="77.19753">
        <ele>3208.2</ele>
        <time>2015-09-01T03:38:57Z</time>
      </trkpt>
      <trkpt lat="34.02361" lon="77.19759">
        <ele>3208.4</ele>
        <time>2015-09-01T03:39:13Z</time>
      </trkpt>
      <trkpt lat="34.02345" lon="77.19755">
        <ele>3208.4</ele>
        <time>2015-09-01T03:39:26Z</time>
      </trkpt>
      <trkpt lat="34.02327" lon="77.19757">
        <ele>3208</ele>
        <time>2015-09-01T03:39:43Z</time>
      </trkpt>
      <trkpt lat="34.02324" lon="77.19756">
        <ele>3208</ele>
        <time>2015-09-01T03:39:45Z</time>
      </trkpt>
      <trkpt lat="34.02314" lon="77.19762">
        <ele>3207.4</ele>
        <time>2015-09-01T03:39:53Z</time>
      </trkpt>
      <trkpt lat="34.02297" lon="77.19767">
        <ele>3207.2</ele>
        <time>2015-09-01T03:40:07Z</time>
      </trkpt>
      <trkpt lat="34.02285" lon="77.19767">
        <ele>3206.8</ele>
        <time>2015-09-01T03:40:16Z</time>
      </trkpt>
      <trkpt lat="34.02268" lon="77.19772">
        <ele>3206.6</ele>
        <time>2015-09-01T03:40:31Z</time>
      </trkpt>
      <trkpt lat="34.02252" lon="77.19772">
        <ele>3205.8</ele>
        <time>2015-09-01T03:40:44Z</time>
      </trkpt>
      <trkpt lat="34.02234" lon="77.19775">
        <ele>3205.2</ele>
        <time>2015-09-01T03:41:00Z</time>
      </trkpt>
      <trkpt lat="34.02223" lon="77.19773">
        <ele>3204.8</ele>
        <time>2015-09-01T03:41:08Z</time>
      </trkpt>
      <trkpt lat="34.02206" lon="77.19781">
        <ele>3204</ele>
        <time>2015-09-01T03:41:21Z</time>
      </trkpt>
      <trkpt lat="34.02188" lon="77.19781">
        <ele>3203.8</ele>
        <time>2015-09-01T03:41:36Z</time>
      </trkpt>
      <trkpt lat="34.0217" lon="77.1979">
        <ele>3204.4</ele>
        <time>2015-09-01T03:41:53Z</time>
      </trkpt>
      <trkpt lat="34.02164" lon="77.19791">
        <ele>3204.8</ele>
        <time>2015-09-01T03:42:02Z</time>
      </trkpt>
      <trkpt lat="34.02164" lon="77.19792">
        <ele>3204.8</ele>
        <time>2015-09-01T03:42:37Z</time>
      </trkpt>
      <trkpt lat="34.0216" lon="77.19785">
        <ele>3204.8</ele>
        <time>2015-09-01T03:42:45Z</time>
      </trkpt>
      <trkpt lat="34.02147" lon="77.19785">
        <ele>3205</ele>
        <time>2015-09-01T03:42:57Z</time>
      </trkpt>
      <trkpt lat="34.02145" lon="77.19787">
        <ele>3205.2</ele>
        <time>2015-09-01T03:42:59Z</time>
      </trkpt>
      <trkpt lat="34.02129" lon="77.19798">
        <ele>3205.4</ele>
        <time>2015-09-01T03:43:12Z</time>
      </trkpt>
      <trkpt lat="34.02112" lon="77.19806">
        <ele>3205.8</ele>
        <time>2015-09-01T03:43:27Z</time>
      </trkpt>
      <trkpt lat="34.0211" lon="77.19805">
        <ele>3205.8</ele>
        <time>2015-09-01T03:43:29Z</time>
      </trkpt>
      <trkpt lat="34.02093" lon="77.19796">
        <ele>3206.4</ele>
        <time>2015-09-01T03:43:45Z</time>
      </trkpt>
      <trkpt lat="34.02075" lon="77.19804">
        <ele>3206.6</ele>
        <time>2015-09-01T03:44:02Z</time>
      </trkpt>
      <trkpt lat="34.02068" lon="77.19805">
        <ele>3206.8</ele>
        <time>2015-09-01T03:44:07Z</time>
      </trkpt>
      <trkpt lat="34.02061" lon="77.19806">
        <ele>3207</ele>
        <time>2015-09-01T03:44:13Z</time>
      </trkpt>
      <trkpt lat="34.02046" lon="77.19804">
        <ele>3207.2</ele>
        <time>2015-09-01T03:44:23Z</time>
      </trkpt>
      <trkpt lat="34.0203" lon="77.19815">
        <ele>3207.4</ele>
        <time>2015-09-01T03:44:36Z</time>
      </trkpt>
      <trkpt lat="34.02012" lon="77.19821">
        <ele>3207.2</ele>
        <time>2015-09-01T03:44:50Z</time>
      </trkpt>
      <trkpt lat="34.01993" lon="77.19816">
        <ele>3207.4</ele>
        <time>2015-09-01T03:45:09Z</time>
      </trkpt>
      <trkpt lat="34.01975" lon="77.19819">
        <ele>3207.6</ele>
        <time>2015-09-01T03:45:22Z</time>
      </trkpt>
      <trkpt lat="34.01957" lon="77.19824">
        <ele>3207.6</ele>
        <time>2015-09-01T03:45:35Z</time>
      </trkpt>
      <trkpt lat="34.01939" lon="77.19825">
        <ele>3207.4</ele>
        <time>2015-09-01T03:45:52Z</time>
      </trkpt>
      <trkpt lat="34.01921" lon="77.19827">
        <ele>3207.4</ele>
        <time>2015-09-01T03:46:10Z</time>
      </trkpt>
      <trkpt lat="34.01904" lon="77.19839">
        <ele>3207.2</ele>
        <time>2015-09-01T03:46:22Z</time>
      </trkpt>
      <trkpt lat="34.01888" lon="77.19848">
        <ele>3207.4</ele>
        <time>2015-09-01T03:46:35Z</time>
      </trkpt>
      <trkpt lat="34.01872" lon="77.19861">
        <ele>3207.2</ele>
        <time>2015-09-01T03:46:50Z</time>
      </trkpt>
      <trkpt lat="34.01866" lon="77.19867">
        <ele>3207.2</ele>
        <time>2015-09-01T03:46:56Z</time>
      </trkpt>
      <trkpt lat="34.0185" lon="77.19878">
        <ele>3207</ele>
        <time>2015-09-01T03:47:11Z</time>
      </trkpt>
      <trkpt lat="34.01833" lon="77.19888">
        <ele>3207.6</ele>
        <time>2015-09-01T03:47:27Z</time>
      </trkpt>
      <trkpt lat="34.01818" lon="77.19903">
        <ele>3207.6</ele>
        <time>2015-09-01T03:47:41Z</time>
      </trkpt>
      <trkpt lat="34.01805" lon="77.19919">
        <ele>3207.2</ele>
        <time>2015-09-01T03:47:55Z</time>
      </trkpt>
      <trkpt lat="34.01795" lon="77.19938">
        <ele>3207</ele>
        <time>2015-09-01T03:48:04Z</time>
      </trkpt>
      <trkpt lat="34.01783" lon="77.19955">
        <ele>3206.8</ele>
        <time>2015-09-01T03:48:15Z</time>
      </trkpt>
      <trkpt lat="34.01771" lon="77.19955">
        <ele>3206.8</ele>
        <time>2015-09-01T03:48:31Z</time>
      </trkpt>
      <trkpt lat="34.01759" lon="77.19971">
        <ele>3206.6</ele>
        <time>2015-09-01T03:48:43Z</time>
      </trkpt>
      <trkpt lat="34.01745" lon="77.19986">
        <ele>3206.8</ele>
        <time>2015-09-01T03:48:56Z</time>
      </trkpt>
      <trkpt lat="34.0173" lon="77.19999">
        <ele>3207</ele>
        <time>2015-09-01T03:49:11Z</time>
      </trkpt>
      <trkpt lat="34.01715" lon="77.20011">
        <ele>3206.6</ele>
        <time>2015-09-01T03:49:28Z</time>
      </trkpt>
      <trkpt lat="34.01701" lon="77.20024">
        <ele>3206.4</ele>
        <time>2015-09-01T03:49:43Z</time>
      </trkpt>
      <trkpt lat="34.01695" lon="77.20033">
        <ele>3205.8</ele>
        <time>2015-09-01T03:49:50Z</time>
      </trkpt>
      <trkpt lat="34.01682" lon="77.20048">
        <ele>3205.6</ele>
        <time>2015-09-01T03:50:05Z</time>
      </trkpt>
      <trkpt lat="34.01668" lon="77.20063">
        <ele>3206</ele>
        <time>2015-09-01T03:50:18Z</time>
      </trkpt>
      <trkpt lat="34.0165" lon="77.20072">
        <ele>3205.6</ele>
        <time>2015-09-01T03:50:40Z</time>
      </trkpt>
      <trkpt lat="34.01646" lon="77.20073">
        <ele>3205.4</ele>
        <time>2015-09-01T03:50:44Z</time>
      </trkpt>
      <trkpt lat="34.01632" lon="77.20087">
        <ele>3205.4</ele>
        <time>2015-09-01T03:50:59Z</time>
      </trkpt>
      <trkpt lat="34.01625" lon="77.20108">
        <ele>3205.4</ele>
        <time>2015-09-01T03:51:04Z</time>
      </trkpt>
      <trkpt lat="34.01615" lon="77.20127">
        <ele>3205.4</ele>
        <time>2015-09-01T03:51:12Z</time>
      </trkpt>
      <trkpt lat="34.01603" lon="77.20141">
        <ele>3205.4</ele>
        <time>2015-09-01T03:51:29Z</time>
      </trkpt>
      <trkpt lat="34.01592" lon="77.2015">
        <ele>3205.4</ele>
        <time>2015-09-01T03:51:43Z</time>
      </trkpt>
      <trkpt lat="34.01587" lon="77.20153">
        <ele>3205.4</ele>
        <time>2015-09-01T03:51:48Z</time>
      </trkpt>
      <trkpt lat="34.01569" lon="77.20162">
        <ele>3205.6</ele>
        <time>2015-09-01T03:52:06Z</time>
      </trkpt>
      <trkpt lat="34.01553" lon="77.20173">
        <ele>3205.8</ele>
        <time>2015-09-01T03:52:20Z</time>
      </trkpt>
      <trkpt lat="34.01544" lon="77.20172">
        <ele>3205.8</ele>
        <time>2015-09-01T03:52:30Z</time>
      </trkpt>
      <trkpt lat="34.01542" lon="77.20172">
        <ele>3205.8</ele>
        <time>2015-09-01T03:52:32Z</time>
      </trkpt>
      <trkpt lat="34.01533" lon="77.20173">
        <ele>3205.6</ele>
        <time>2015-09-01T03:52:39Z</time>
      </trkpt>
      <trkpt lat="34.0152" lon="77.20185">
        <ele>3205.4</ele>
        <time>2015-09-01T03:52:47Z</time>
      </trkpt>
      <trkpt lat="34.01502" lon="77.20192">
        <ele>3205.8</ele>
        <time>2015-09-01T03:53:02Z</time>
      </trkpt>
      <trkpt lat="34.01486" lon="77.20181">
        <ele>3205.2</ele>
        <time>2015-09-01T03:53:18Z</time>
      </trkpt>
      <trkpt lat="34.01474" lon="77.20164">
        <ele>3204.8</ele>
        <time>2015-09-01T03:53:30Z</time>
      </trkpt>
      <trkpt lat="34.01473" lon="77.20164">
        <ele>3204.6</ele>
        <time>2015-09-01T03:53:31Z</time>
      </trkpt>
      <trkpt lat="34.01451" lon="77.20163">
        <ele>3204.4</ele>
        <time>2015-09-01T03:53:44Z</time>
      </trkpt>
      <trkpt lat="34.01436" lon="77.20161">
        <ele>3204.8</ele>
        <time>2015-09-01T03:53:55Z</time>
      </trkpt>
      <trkpt lat="34.01417" lon="77.20167">
        <ele>3205.4</ele>
        <time>2015-09-01T03:54:09Z</time>
      </trkpt>
      <trkpt lat="34.01413" lon="77.2017">
        <ele>3205.8</ele>
        <time>2015-09-01T03:54:13Z</time>
      </trkpt>
      <trkpt lat="34.01397" lon="77.20182">
        <ele>3206.2</ele>
        <time>2015-09-01T03:54:25Z</time>
      </trkpt>
      <trkpt lat="34.01389" lon="77.20183">
        <ele>3206.8</ele>
        <time>2015-09-01T03:54:32Z</time>
      </trkpt>
      <trkpt lat="34.01382" lon="77.20181">
        <ele>3207</ele>
        <time>2015-09-01T03:54:38Z</time>
      </trkpt>
      <trkpt lat="34.01379" lon="77.20179">
        <ele>3207</ele>
        <time>2015-09-01T03:54:40Z</time>
      </trkpt>
      <trkpt lat="34.01363" lon="77.20165">
        <ele>3207</ele>
        <time>2015-09-01T03:54:54Z</time>
      </trkpt>
      <trkpt lat="34.01357" lon="77.20164">
        <ele>3207</ele>
        <time>2015-09-01T03:54:59Z</time>
      </trkpt>
      <trkpt lat="34.01355" lon="77.20164">
        <ele>3207</ele>
        <time>2015-09-01T03:55:01Z</time>
      </trkpt>
      <trkpt lat="34.01342" lon="77.2016">
        <ele>3207</ele>
        <time>2015-09-01T03:55:10Z</time>
      </trkpt>
      <trkpt lat="34.01325" lon="77.20172">
        <ele>3206.8</ele>
        <time>2015-09-01T03:55:24Z</time>
      </trkpt>
      <trkpt lat="34.01313" lon="77.20182">
        <ele>3206.8</ele>
        <time>2015-09-01T03:55:34Z</time>
      </trkpt>
      <trkpt lat="34.01298" lon="77.20199">
        <ele>3206.8</ele>
        <time>2015-09-01T03:55:48Z</time>
      </trkpt>
      <trkpt lat="34.0129" lon="77.2022">
        <ele>3206.8</ele>
        <time>2015-09-01T03:55:57Z</time>
      </trkpt>
      <trkpt lat="34.01272" lon="77.2023">
        <ele>3207</ele>
        <time>2015-09-01T03:56:15Z</time>
      </trkpt>
      <trkpt lat="34.01256" lon="77.20237">
        <ele>3206.8</ele>
        <time>2015-09-01T03:56:29Z</time>
      </trkpt>
      <trkpt lat="34.01247" lon="77.20242">
        <ele>3207</ele>
        <time>2015-09-01T03:56:36Z</time>
      </trkpt>
      <trkpt lat="34.01245" lon="77.20243">
        <ele>3207.2</ele>
        <time>2015-09-01T03:56:38Z</time>
      </trkpt>
      <trkpt lat="34.01239" lon="77.20246">
        <ele>3207.8</ele>
        <time>2015-09-01T03:56:43Z</time>
      </trkpt>
      <trkpt lat="34.0123" lon="77.20245">
        <ele>3208.2</ele>
        <time>2015-09-01T03:56:49Z</time>
      </trkpt>
      <trkpt lat="34.01226" lon="77.20245">
        <ele>3208.2</ele>
        <time>2015-09-01T03:56:53Z</time>
      </trkpt>
      <trkpt lat="34.01223" lon="77.20244">
        <ele>3208.4</ele>
        <time>2015-09-01T03:56:57Z</time>
      </trkpt>
      <trkpt lat="34.01213" lon="77.2025">
        <ele>3208.6</ele>
        <time>2015-09-01T03:57:04Z</time>
      </trkpt>
      <trkpt lat="34.0121" lon="77.20252">
        <ele>3208.8</ele>
        <time>2015-09-01T03:57:07Z</time>
      </trkpt>
      <trkpt lat="34.01205" lon="77.20256">
        <ele>3208.8</ele>
        <time>2015-09-01T03:57:11Z</time>
      </trkpt>
      <trkpt lat="34.01186" lon="77.20253">
        <ele>3209</ele>
        <time>2015-09-01T03:57:27Z</time>
      </trkpt>
      <trkpt lat="34.01179" lon="77.20252">
        <ele>3209.4</ele>
        <time>2015-09-01T03:57:35Z</time>
      </trkpt>
      <trkpt lat="34.01175" lon="77.20252">
        <ele>3209.2</ele>
        <time>2015-09-01T03:57:38Z</time>
      </trkpt>
      <trkpt lat="34.01171" lon="77.20251">
        <ele>3209</ele>
        <time>2015-09-01T03:57:41Z</time>
      </trkpt>
      <trkpt lat="34.01167" lon="77.20255">
        <ele>3209.2</ele>
        <time>2015-09-01T03:57:45Z</time>
      </trkpt>
      <trkpt lat="34.01162" lon="77.2026">
        <ele>3209.4</ele>
        <time>2015-09-01T03:57:49Z</time>
      </trkpt>
      <trkpt lat="34.01155" lon="77.20268">
        <ele>3209.6</ele>
        <time>2015-09-01T03:57:55Z</time>
      </trkpt>
      <trkpt lat="34.01141" lon="77.20286">
        <ele>3209.8</ele>
        <time>2015-09-01T03:58:06Z</time>
      </trkpt>
      <trkpt lat="34.01138" lon="77.20289">
        <ele>3209.8</ele>
        <time>2015-09-01T03:58:09Z</time>
      </trkpt>
      <trkpt lat="34.01126" lon="77.20293">
        <ele>3209.8</ele>
        <time>2015-09-01T03:58:26Z</time>
      </trkpt>
      <trkpt lat="34.01126" lon="77.20284">
        <ele>3209.8</ele>
        <time>2015-09-01T03:58:28Z</time>
      </trkpt>
      <trkpt lat="34.01117" lon="77.20308">
        <ele>3209.2</ele>
        <time>2015-09-01T03:58:44Z</time>
      </trkpt>
      <trkpt lat="34.01114" lon="77.20328">
        <ele>3209.4</ele>
        <time>2015-09-01T03:58:51Z</time>
      </trkpt>
      <trkpt lat="34.01108" lon="77.2035">
        <ele>3209.6</ele>
        <time>2015-09-01T03:58:59Z</time>
      </trkpt>
      <trkpt lat="34.01104" lon="77.20372">
        <ele>3209.6</ele>
        <time>2015-09-01T03:59:12Z</time>
      </trkpt>
      <trkpt lat="34.01102" lon="77.20379">
        <ele>3209.6</ele>
        <time>2015-09-01T03:59:18Z</time>
      </trkpt>
      <trkpt lat="34.011" lon="77.20401">
        <ele>3209</ele>
        <time>2015-09-01T03:59:34Z</time>
      </trkpt>
      <trkpt lat="34.01099" lon="77.20404">
        <ele>3209</ele>
        <time>2015-09-01T03:59:36Z</time>
      </trkpt>
      <trkpt lat="34.01098" lon="77.20407">
        <ele>3208.8</ele>
        <time>2015-09-01T03:59:38Z</time>
      </trkpt>
      <trkpt lat="34.0109" lon="77.20413">
        <ele>3208.2</ele>
        <time>2015-09-01T03:59:51Z</time>
      </trkpt>
      <trkpt lat="34.01087" lon="77.20419">
        <ele>3208</ele>
        <time>2015-09-01T03:59:55Z</time>
      </trkpt>
      <trkpt lat="34.01084" lon="77.20425">
        <ele>3207.6</ele>
        <time>2015-09-01T03:59:59Z</time>
      </trkpt>
      <trkpt lat="34.01073" lon="77.20444">
        <ele>3207.6</ele>
        <time>2015-09-01T04:00:13Z</time>
      </trkpt>
      <trkpt lat="34.01063" lon="77.20463">
        <ele>3207.2</ele>
        <time>2015-09-01T04:00:27Z</time>
      </trkpt>
      <trkpt lat="34.01052" lon="77.2048">
        <ele>3207.4</ele>
        <time>2015-09-01T04:00:42Z</time>
      </trkpt>
      <trkpt lat="34.01048" lon="77.20484">
        <ele>3206.8</ele>
        <time>2015-09-01T04:00:47Z</time>
      </trkpt>
      <trkpt lat="34.01047" lon="77.20484">
        <ele>3206.6</ele>
        <time>2015-09-01T04:00:48Z</time>
      </trkpt>
      <trkpt lat="34.01045" lon="77.20486">
        <ele>3206.8</ele>
        <time>2015-09-01T04:00:50Z</time>
      </trkpt>
      <trkpt lat="34.01041" lon="77.20487">
        <ele>3206.8</ele>
        <time>2015-09-01T04:00:55Z</time>
      </trkpt>
      <trkpt lat="34.01027" lon="77.20501">
        <ele>3206.2</ele>
        <time>2015-09-01T04:01:11Z</time>
      </trkpt>
      <trkpt lat="34.01012" lon="77.20515">
        <ele>3206.4</ele>
        <time>2015-09-01T04:01:26Z</time>
      </trkpt>
      <trkpt lat="34.0101" lon="77.20519">
        <ele>3206.4</ele>
        <time>2015-09-01T04:01:29Z</time>
      </trkpt>
      <trkpt lat="34.01006" lon="77.20525">
        <ele>3206.4</ele>
        <time>2015-09-01T04:01:35Z</time>
      </trkpt>
      <trkpt lat="34.00997" lon="77.20532">
        <ele>3206</ele>
        <time>2015-09-01T04:01:46Z</time>
      </trkpt>
      <trkpt lat="34.00984" lon="77.20549">
        <ele>3205.8</ele>
        <time>2015-09-01T04:02:02Z</time>
      </trkpt>
      <trkpt lat="34.00983" lon="77.2055">
        <ele>3205.6</ele>
        <time>2015-09-01T04:02:03Z</time>
      </trkpt>
      <trkpt lat="34.00977" lon="77.20568">
        <ele>3205.4</ele>
        <time>2015-09-01T04:02:15Z</time>
      </trkpt>
      <trkpt lat="34.00975" lon="77.2058">
        <ele>3205.4</ele>
        <time>2015-09-01T04:02:18Z</time>
      </trkpt>
      <trkpt lat="34.00966" lon="77.20599">
        <ele>3205.6</ele>
        <time>2015-09-01T04:02:28Z</time>
      </trkpt>
      <trkpt lat="34.00957" lon="77.20598">
        <ele>3206.2</ele>
        <time>2015-09-01T04:02:41Z</time>
      </trkpt>
      <trkpt lat="34.00955" lon="77.20599">
        <ele>3206</ele>
        <time>2015-09-01T04:02:46Z</time>
      </trkpt>
      <trkpt lat="34.00955" lon="77.20587">
        <ele>3206</ele>
        <time>2015-09-01T04:02:50Z</time>
      </trkpt>
      <trkpt lat="34.00959" lon="77.20585">
        <ele>3204.6</ele>
        <time>2015-09-01T04:03:05Z</time>
      </trkpt>
      <trkpt lat="34.00959" lon="77.20588">
        <ele>3204.4</ele>
        <time>2015-09-01T04:03:08Z</time>
      </trkpt>
      <trkpt lat="34.00958" lon="77.20591">
        <ele>3204.4</ele>
        <time>2015-09-01T04:03:09Z</time>
      </trkpt>
      <trkpt lat="34.00956" lon="77.206">
        <ele>3204.2</ele>
        <time>2015-09-01T04:03:12Z</time>
      </trkpt>
      <trkpt lat="34.00955" lon="77.20601">
        <ele>3204</ele>
        <time>2015-09-01T04:03:14Z</time>
      </trkpt>
      <trkpt lat="34.00955" lon="77.20602">
        <ele>3203.8</ele>
        <time>2015-09-01T04:03:16Z</time>
      </trkpt>
      <trkpt lat="34.00951" lon="77.20607">
        <ele>3203.6</ele>
        <time>2015-09-01T04:03:21Z</time>
      </trkpt>
      <trkpt lat="34.00948" lon="77.20621">
        <ele>3203.4</ele>
        <time>2015-09-01T04:03:24Z</time>
      </trkpt>
      <trkpt lat="34.00942" lon="77.20633">
        <ele>3203.2</ele>
        <time>2015-09-01T04:03:30Z</time>
      </trkpt>
      <trkpt lat="34.00938" lon="77.20636">
        <ele>3203</ele>
        <time>2015-09-01T04:03:33Z</time>
      </trkpt>
      <trkpt lat="34.0093" lon="77.20642">
        <ele>3203</ele>
        <time>2015-09-01T04:03:41Z</time>
      </trkpt>
      <trkpt lat="34.00927" lon="77.20645">
        <ele>3202.6</ele>
        <time>2015-09-01T04:03:45Z</time>
      </trkpt>
      <trkpt lat="34.00922" lon="77.20645">
        <ele>3201.4</ele>
        <time>2015-09-01T04:03:50Z</time>
      </trkpt>
      <trkpt lat="34.00907" lon="77.20661">
        <ele>3200.6</ele>
        <time>2015-09-01T04:04:04Z</time>
      </trkpt>
      <trkpt lat="34.00902" lon="77.20662">
        <ele>3200.4</ele>
        <time>2015-09-01T04:04:08Z</time>
      </trkpt>
      <trkpt lat="34.00889" lon="77.20666">
        <ele>3199.6</ele>
        <time>2015-09-01T04:04:24Z</time>
      </trkpt>
      <trkpt lat="34.00888" lon="77.20668">
        <ele>3199.2</ele>
        <time>2015-09-01T04:04:26Z</time>
      </trkpt>
      <trkpt lat="34.00882" lon="77.20668">
        <ele>3198</ele>
        <time>2015-09-01T04:04:34Z</time>
      </trkpt>
      <trkpt lat="34.0088" lon="77.20672">
        <ele>3198</ele>
        <time>2015-09-01T04:04:38Z</time>
      </trkpt>
      <trkpt lat="34.00876" lon="77.20659">
        <ele>3198.2</ele>
        <time>2015-09-01T04:04:44Z</time>
      </trkpt>
      <trkpt lat="34.00867" lon="77.20664">
        <ele>3198</ele>
        <time>2015-09-01T04:04:53Z</time>
      </trkpt>
      <trkpt lat="34.00865" lon="77.20658">
        <ele>3197.6</ele>
        <time>2015-09-01T04:05:01Z</time>
      </trkpt>
      <trkpt lat="34.00862" lon="77.20663">
        <ele>3197.4</ele>
        <time>2015-09-01T04:05:06Z</time>
      </trkpt>
      <trkpt lat="34.00858" lon="77.20673">
        <ele>3197.8</ele>
        <time>2015-09-01T04:05:14Z</time>
      </trkpt>
      <trkpt lat="34.00857" lon="77.20672">
        <ele>3198.2</ele>
        <time>2015-09-01T04:05:16Z</time>
      </trkpt>
      <trkpt lat="34.00856" lon="77.20678">
        <ele>3198.2</ele>
        <time>2015-09-01T04:05:20Z</time>
      </trkpt>
      <trkpt lat="34.00857" lon="77.20678">
        <ele>3198</ele>
        <time>2015-09-01T04:05:23Z</time>
      </trkpt>
      <trkpt lat="34.00857" lon="77.2068">
        <ele>3197.8</ele>
        <time>2015-09-01T04:05:24Z</time>
      </trkpt>
      <trkpt lat="34.00856" lon="77.20682">
        <ele>3197.6</ele>
        <time>2015-09-01T04:05:26Z</time>
      </trkpt>
      <trkpt lat="34.00855" lon="77.20684">
        <ele>3197.6</ele>
        <time>2015-09-01T04:05:28Z</time>
      </trkpt>
      <trkpt lat="34.00854" lon="77.20705">
        <ele>3197.8</ele>
        <time>2015-09-01T04:06:07Z</time>
      </trkpt>
      <trkpt lat="34.00855" lon="77.20693">
        <ele>3198.4</ele>
        <time>2015-09-01T04:07:05Z</time>
      </trkpt>
      <trkpt lat="34.00856" lon="77.20708">
        <ele>3198.8</ele>
        <time>2015-09-01T04:07:25Z</time>
      </trkpt>
      <trkpt lat="34.00854" lon="77.20703">
        <ele>3198.8</ele>
        <time>2015-09-01T04:07:39Z</time>
      </trkpt>
      <trkpt lat="34.00855" lon="77.20699">
        <ele>3199</ele>
        <time>2015-09-01T04:07:58Z</time>
      </trkpt>
      <trkpt lat="34.00858" lon="77.20684">
        <ele>3199.2</ele>
        <time>2015-09-01T04:08:23Z</time>
      </trkpt>
      <trkpt lat="34.0086" lon="77.20698">
        <ele>3199</ele>
        <time>2015-09-01T04:08:51Z</time>
      </trkpt>
      <trkpt lat="34.00857" lon="77.20708">
        <ele>3199.2</ele>
        <time>2015-09-01T04:09:06Z</time>
      </trkpt>
      <trkpt lat="34.00858" lon="77.20703">
        <ele>3199.2</ele>
        <time>2015-09-01T04:09:09Z</time>
      </trkpt>
      <trkpt lat="34.00861" lon="77.20691">
        <ele>3199.2</ele>
        <time>2015-09-01T04:09:17Z</time>
      </trkpt>
      <trkpt lat="34.00861" lon="77.20694">
        <ele>3199.2</ele>
        <time>2015-09-01T04:09:20Z</time>
      </trkpt>
      <trkpt lat="34.00857" lon="77.20703">
        <ele>3199.6</ele>
        <time>2015-09-01T04:10:03Z</time>
      </trkpt>
      <trkpt lat="34.0086" lon="77.2071">
        <ele>3199.6</ele>
        <time>2015-09-01T04:10:07Z</time>
      </trkpt>
      <trkpt lat="34.00857" lon="77.20712">
        <ele>3200.2</ele>
        <time>2015-09-01T04:10:20Z</time>
      </trkpt>
      <trkpt lat="34.00859" lon="77.20711">
        <ele>3200.2</ele>
        <time>2015-09-01T04:10:21Z</time>
      </trkpt>
      <trkpt lat="34.00859" lon="77.20696">
        <ele>3200.2</ele>
        <time>2015-09-01T04:10:23Z</time>
      </trkpt>
      <trkpt lat="34.00858" lon="77.20696">
        <ele>3200.4</ele>
        <time>2015-09-01T04:10:25Z</time>
      </trkpt>
      <trkpt lat="34.00856" lon="77.2069">
        <ele>3200.6</ele>
        <time>2015-09-01T04:10:30Z</time>
      </trkpt>
      <trkpt lat="34.00855" lon="77.20685">
        <ele>3200.8</ele>
        <time>2015-09-01T04:10:33Z</time>
      </trkpt>
      <trkpt lat="34.00854" lon="77.20683">
        <ele>3200.8</ele>
        <time>2015-09-01T04:10:35Z</time>
      </trkpt>
      <trkpt lat="34.00854" lon="77.20679">
        <ele>3201.4</ele>
        <time>2015-09-01T04:10:39Z</time>
      </trkpt>
      <trkpt lat="34.00852" lon="77.2069">
        <ele>3202.2</ele>
        <time>2015-09-01T04:11:22Z</time>
      </trkpt>
      <trkpt lat="34.00852" lon="77.20689">
        <ele>3202.4</ele>
        <time>2015-09-01T04:11:25Z</time>
      </trkpt>
      <trkpt lat="34.00857" lon="77.20681">
        <ele>3201.6</ele>
        <time>2015-09-01T04:11:35Z</time>
      </trkpt>
      <trkpt lat="34.00858" lon="77.20681">
        <ele>3201.6</ele>
        <time>2015-09-01T04:11:37Z</time>
      </trkpt>
      <trkpt lat="34.00856" lon="77.20683">
        <ele>3201.2</ele>
        <time>2015-09-01T04:12:02Z</time>
      </trkpt>
      <trkpt lat="34.00852" lon="77.2069">
        <ele>3201.8</ele>
        <time>2015-09-01T04:12:15Z</time>
      </trkpt>
      <trkpt lat="34.00848" lon="77.207">
        <ele>3201.2</ele>
        <time>2015-09-01T04:12:33Z</time>
      </trkpt>
      <trkpt lat="34.00849" lon="77.20695">
        <ele>3200.8</ele>
        <time>2015-09-01T04:12:36Z</time>
      </trkpt>
      <trkpt lat="34.00852" lon="77.20695">
        <ele>3200.2</ele>
        <time>2015-09-01T04:12:57Z</time>
      </trkpt>
      <trkpt lat="34.00859" lon="77.20687">
        <ele>3200.8</ele>
        <time>2015-09-01T04:13:14Z</time>
      </trkpt>
      <trkpt lat="34.00862" lon="77.20679">
        <ele>3200.4</ele>
        <time>2015-09-01T04:13:22Z</time>
      </trkpt>
      <trkpt lat="34.00857" lon="77.20682">
        <ele>3201</ele>
        <time>2015-09-01T04:13:26Z</time>
      </trkpt>
      <trkpt lat="34.00856" lon="77.20685">
        <ele>3201.2</ele>
        <time>2015-09-01T04:13:29Z</time>
      </trkpt>
      <trkpt lat="34.00855" lon="77.20685">
        <ele>3201.4</ele>
        <time>2015-09-01T04:13:30Z</time>
      </trkpt>
      <trkpt lat="34.00853" lon="77.20693">
        <ele>3202.4</ele>
        <time>2015-09-01T04:13:56Z</time>
      </trkpt>
      <trkpt lat="34.00855" lon="77.20696">
        <ele>3203</ele>
        <time>2015-09-01T04:14:34Z</time>
      </trkpt>
      <trkpt lat="34.00853" lon="77.20693">
        <ele>3203.2</ele>
        <time>2015-09-01T04:14:36Z</time>
      </trkpt>
      <trkpt lat="34.00849" lon="77.20693">
        <ele>3203.4</ele>
        <time>2015-09-01T04:15:19Z</time>
      </trkpt>
      <trkpt lat="34.00855" lon="77.20696">
        <ele>3203.4</ele>
        <time>2015-09-01T04:15:32Z</time>
      </trkpt>
      <trkpt lat="34.00853" lon="77.20694">
        <ele>3231</ele>
        <time>2015-09-01T04:15:54Z</time>
      </trkpt>
      <trkpt lat="34.00851" lon="77.20691">
        <ele>3203.2</ele>
        <time>2015-09-01T04:15:57Z</time>
      </trkpt>
      <trkpt lat="34.00852" lon="77.20692">
        <ele>3203.4</ele>
        <time>2015-09-01T04:16:09Z</time>
      </trkpt>
      <trkpt lat="34.0085" lon="77.20688">
        <ele>3203.8</ele>
        <time>2015-09-01T04:16:35Z</time>
      </trkpt>
      <trkpt lat="34.00851" lon="77.20686">
        <ele>3203.4</ele>
        <time>2015-09-01T04:17:20Z</time>
      </trkpt>
      <trkpt lat="34.0085" lon="77.20684">
        <ele>3204.2</ele>
        <time>2015-09-01T04:17:27Z</time>
      </trkpt>
      <trkpt lat="34.00852" lon="77.20704">
        <ele>3204.4</ele>
        <time>2015-09-01T04:17:47Z</time>
      </trkpt>
      <trkpt lat="34.00862" lon="77.20693">
        <ele>3203.8</ele>
        <time>2015-09-01T04:18:16Z</time>
      </trkpt>
      <trkpt lat="34.0085" lon="77.2069">
        <ele>3204.4</ele>
        <time>2015-09-01T04:18:35Z</time>
      </trkpt>
      <trkpt lat="34.00855" lon="77.20689">
        <ele>3204.4</ele>
        <time>2015-09-01T04:19:51Z</time>
      </trkpt>
      <trkpt lat="34.00856" lon="77.20692">
        <ele>3204.6</ele>
        <time>2015-09-01T04:20:05Z</time>
      </trkpt>
      <trkpt lat="34.00848" lon="77.20698">
        <ele>3204</ele>
        <time>2015-09-01T04:20:27Z</time>
      </trkpt>
      <trkpt lat="34.00847" lon="77.20699">
        <ele>3204</ele>
        <time>2015-09-01T04:20:29Z</time>
      </trkpt>
      <trkpt lat="34.00849" lon="77.20694">
        <ele>3203.6</ele>
        <time>2015-09-01T04:20:39Z</time>
      </trkpt>
      <trkpt lat="34.00849" lon="77.20693">
        <ele>3203.8</ele>
        <time>2015-09-01T04:20:53Z</time>
      </trkpt>
      <trkpt lat="34.0085" lon="77.20697">
        <ele>3203.8</ele>
        <time>2015-09-01T04:20:55Z</time>
      </trkpt>
      <trkpt lat="34.00849" lon="77.20696">
        <ele>3203.6</ele>
        <time>2015-09-01T04:20:58Z</time>
      </trkpt>
      <trkpt lat="34.00848" lon="77.207">
        <ele>3203.6</ele>
        <time>2015-09-01T04:21:00Z</time>
      </trkpt>
      <trkpt lat="34.00847" lon="77.20709">
        <ele>3203.8</ele>
        <time>2015-09-01T04:21:12Z</time>
      </trkpt>
      <trkpt lat="34.00846" lon="77.20705">
        <ele>3203.8</ele>
        <time>2015-09-01T04:21:15Z</time>
      </trkpt>
      <trkpt lat="34.0085" lon="77.20698">
        <ele>3203.2</ele>
        <time>2015-09-01T04:21:40Z</time>
      </trkpt>
      <trkpt lat="34.0086" lon="77.20687">
        <ele>3203.2</ele>
        <time>2015-09-01T04:22:03Z</time>
      </trkpt>
      <trkpt lat="34.00863" lon="77.207">
        <ele>3202.8</ele>
        <time>2015-09-01T04:22:30Z</time>
      </trkpt>
      <trkpt lat="34.00863" lon="77.20713">
        <ele>3202.8</ele>
        <time>2015-09-01T04:22:37Z</time>
      </trkpt>
      <trkpt lat="34.00865" lon="77.20711">
        <ele>3202.8</ele>
        <time>2015-09-01T04:22:39Z</time>
      </trkpt>
      <trkpt lat="34.00867" lon="77.20699">
        <ele>3202.6</ele>
        <time>2015-09-01T04:22:46Z</time>
      </trkpt>
      <trkpt lat="34.00866" lon="77.20699">
        <ele>3202.6</ele>
        <time>2015-09-01T04:22:48Z</time>
      </trkpt>
      <trkpt lat="34.00862" lon="77.20705">
        <ele>3202.8</ele>
        <time>2015-09-01T04:22:56Z</time>
      </trkpt>
      <trkpt lat="34.00859" lon="77.20714">
        <ele>3202.4</ele>
        <time>2015-09-01T04:23:04Z</time>
      </trkpt>
      <trkpt lat="34.00857" lon="77.20717">
        <ele>3202.6</ele>
        <time>2015-09-01T04:23:07Z</time>
      </trkpt>
      <trkpt lat="34.00859" lon="77.20713">
        <ele>3202.6</ele>
        <time>2015-09-01T04:23:12Z</time>
      </trkpt>
      <trkpt lat="34.00854" lon="77.20721">
        <ele>3203.2</ele>
        <time>2015-09-01T04:23:39Z</time>
      </trkpt>
      <trkpt lat="34.00852" lon="77.20716">
        <ele>3203.6</ele>
        <time>2015-09-01T04:23:48Z</time>
      </trkpt>
      <trkpt lat="34.00868" lon="77.20687">
        <ele>3203.4</ele>
        <time>2015-09-01T04:23:59Z</time>
      </trkpt>
      <trkpt lat="34.00868" lon="77.20693">
        <ele>3203.4</ele>
        <time>2015-09-01T04:24:01Z</time>
      </trkpt>
      <trkpt lat="34.00867" lon="77.20693">
        <ele>3203.2</ele>
        <time>2015-09-01T04:24:03Z</time>
      </trkpt>
      <trkpt lat="34.00868" lon="77.20696">
        <ele>3203.2</ele>
        <time>2015-09-01T04:24:12Z</time>
      </trkpt>
      <trkpt lat="34.00865" lon="77.20698">
        <ele>3203.2</ele>
        <time>2015-09-01T04:24:13Z</time>
      </trkpt>
      <trkpt lat="34.00842" lon="77.20724">
        <ele>3203.4</ele>
        <time>2015-09-01T04:24:27Z</time>
      </trkpt>
      <trkpt lat="34.00838" lon="77.20723">
        <ele>3203.6</ele>
        <time>2015-09-01T04:24:33Z</time>
      </trkpt>
      <trkpt lat="34.00848" lon="77.20699">
        <ele>3204.2</ele>
        <time>2015-09-01T04:25:01Z</time>
      </trkpt>
      <trkpt lat="34.0085" lon="77.20692">
        <ele>3204.2</ele>
        <time>2015-09-01T04:25:05Z</time>
      </trkpt>
      <trkpt lat="34.00857" lon="77.20686">
        <ele>3204.4</ele>
        <time>2015-09-01T04:25:28Z</time>
      </trkpt>
      <trkpt lat="34.00841" lon="77.20709">
        <ele>3204</ele>
        <time>2015-09-01T04:25:54Z</time>
      </trkpt>
      <trkpt lat="34.00844" lon="77.20702">
        <ele>3204.6</ele>
        <time>2015-09-01T04:26:39Z</time>
      </trkpt>
      <trkpt lat="34.00841" lon="77.20708">
        <ele>3205</ele>
        <time>2015-09-01T04:27:06Z</time>
      </trkpt>
      <trkpt lat="34.00832" lon="77.20716">
        <ele>3205.2</ele>
        <time>2015-09-01T04:27:20Z</time>
      </trkpt>
      <trkpt lat="34.00841" lon="77.20715">
        <ele>3205.6</ele>
        <time>2015-09-01T04:27:32Z</time>
      </trkpt>
      <trkpt lat="34.00844" lon="77.20717">
        <ele>3206.4</ele>
        <time>2015-09-01T04:27:39Z</time>
      </trkpt>
      <trkpt lat="34.00841" lon="77.20706">
        <ele>3206.8</ele>
        <time>2015-09-01T04:28:10Z</time>
      </trkpt>
      <trkpt lat="34.00846" lon="77.20711">
        <ele>3207</ele>
        <time>2015-09-01T04:28:18Z</time>
      </trkpt>
      <trkpt lat="34.00846" lon="77.20713">
        <ele>3207.4</ele>
        <time>2015-09-01T04:28:22Z</time>
      </trkpt>
      <trkpt lat="34.00842" lon="77.20707">
        <ele>3208</ele>
        <time>2015-09-01T04:28:45Z</time>
      </trkpt>
      <trkpt lat="34.00843" lon="77.20705">
        <ele>3208.4</ele>
        <time>2015-09-01T04:29:06Z</time>
      </trkpt>
      <trkpt lat="34.00842" lon="77.207">
        <ele>3208.6</ele>
        <time>2015-09-01T04:29:12Z</time>
      </trkpt>
      <trkpt lat="34.0084" lon="77.20697">
        <ele>3208.8</ele>
        <time>2015-09-01T04:29:15Z</time>
      </trkpt>
      <trkpt lat="34.00841" lon="77.20696">
        <ele>3209.2</ele>
        <time>2015-09-01T04:29:18Z</time>
      </trkpt>
      <trkpt lat="34.00843" lon="77.20702">
        <ele>3209</ele>
        <time>2015-09-01T04:29:22Z</time>
      </trkpt>
      <trkpt lat="34.00843" lon="77.20703">
        <ele>3208.8</ele>
        <time>2015-09-01T04:29:24Z</time>
      </trkpt>
      <trkpt lat="34.00854" lon="77.20702">
        <ele>3208.8</ele>
        <time>2015-09-01T04:30:18Z</time>
      </trkpt>
      <trkpt lat="34.00845" lon="77.20706">
        <ele>3209.2</ele>
        <time>2015-09-01T04:31:08Z</time>
      </trkpt>
      <trkpt lat="34.0084" lon="77.20707">
        <ele>3209.4</ele>
        <time>2015-09-01T04:31:40Z</time>
      </trkpt>
      <trkpt lat="34.00852" lon="77.207">
        <ele>3209.8</ele>
        <time>2015-09-01T04:31:56Z</time>
      </trkpt>
      <trkpt lat="34.00859" lon="77.20702">
        <ele>3209.8</ele>
        <time>2015-09-01T04:32:33Z</time>
      </trkpt>
      <trkpt lat="34.00848" lon="77.20707">
        <ele>3210</ele>
        <time>2015-09-01T04:33:01Z</time>
      </trkpt>
      <trkpt lat="34.0085" lon="77.20704">
        <ele>3210.4</ele>
        <time>2015-09-01T04:33:29Z</time>
      </trkpt>
      <trkpt lat="34.00846" lon="77.20704">
        <ele>3210.6</ele>
        <time>2015-09-01T04:33:33Z</time>
      </trkpt>
      <trkpt lat="34.00852" lon="77.20706">
        <ele>3211.2</ele>
        <time>2015-09-01T04:33:42Z</time>
      </trkpt>
      <trkpt lat="34.0085" lon="77.2071">
        <ele>3211.2</ele>
        <time>2015-09-01T04:33:46Z</time>
      </trkpt>
      <trkpt lat="34.00849" lon="77.20708">
        <ele>3211.4</ele>
        <time>2015-09-01T04:33:57Z</time>
      </trkpt>
      <trkpt lat="34.00849" lon="77.20706">
        <ele>3211.4</ele>
        <time>2015-09-01T04:34:00Z</time>
      </trkpt>
      <trkpt lat="34.00846" lon="77.20702">
        <ele>3211.6</ele>
        <time>2015-09-01T04:35:08Z</time>
      </trkpt>
      <trkpt lat="34.00845" lon="77.20705">
        <ele>3212.4</ele>
        <time>2015-09-01T04:36:03Z</time>
      </trkpt>
      <trkpt lat="34.00842" lon="77.20706">
        <ele>3212.4</ele>
        <time>2015-09-01T04:36:20Z</time>
      </trkpt>
      <trkpt lat="34.0085" lon="77.20706">
        <ele>3213</ele>
        <time>2015-09-01T04:36:26Z</time>
      </trkpt>
      <trkpt lat="34.0085" lon="77.20703">
        <ele>3213.4</ele>
        <time>2015-09-01T04:36:57Z</time>
      </trkpt>
      <trkpt lat="34.00844" lon="77.20701">
        <ele>3213.4</ele>
        <time>2015-09-01T04:37:08Z</time>
      </trkpt>
      <trkpt lat="34.00853" lon="77.20702">
        <ele>3214.4</ele>
        <time>2015-09-01T04:37:43Z</time>
      </trkpt>
      <trkpt lat="34.00856" lon="77.20701">
        <ele>3214.6</ele>
        <time>2015-09-01T04:37:47Z</time>
      </trkpt>
      <trkpt lat="34.00854" lon="77.20689">
        <ele>3215</ele>
        <time>2015-09-01T04:38:07Z</time>
      </trkpt>
      <trkpt lat="34.00851" lon="77.20697">
        <ele>3214.6</ele>
        <time>2015-09-01T04:39:08Z</time>
      </trkpt>
      <trkpt lat="34.00854" lon="77.20701">
        <ele>3214.4</ele>
        <time>2015-09-01T04:39:44Z</time>
      </trkpt>
      <trkpt lat="34.0086" lon="77.20693">
        <ele>3214.2</ele>
        <time>2015-09-01T04:39:52Z</time>
      </trkpt>
      <trkpt lat="34.00857" lon="77.20694">
        <ele>3213.8</ele>
        <time>2015-09-01T04:39:59Z</time>
      </trkpt>
      <trkpt lat="34.00852" lon="77.20698">
        <ele>3213.6</ele>
        <time>2015-09-01T04:40:56Z</time>
      </trkpt>
      <trkpt lat="34.00852" lon="77.207">
        <ele>3213.2</ele>
        <time>2015-09-01T04:41:32Z</time>
      </trkpt>
      <trkpt lat="34.00852" lon="77.20698">
        <ele>3213.2</ele>
        <time>2015-09-01T04:41:35Z</time>
      </trkpt>
      <trkpt lat="34.00851" lon="77.20687">
        <ele>3213.2</ele>
        <time>2015-09-01T04:42:16Z</time>
      </trkpt>
      <trkpt lat="34.00851" lon="77.20692">
        <ele>3213.4</ele>
        <time>2015-09-01T04:43:12Z</time>
      </trkpt>
      <trkpt lat="34.00853" lon="77.20697">
        <ele>3213.8</ele>
        <time>2015-09-01T04:44:12Z</time>
      </trkpt>
      <trkpt lat="34.00849" lon="77.20692">
        <ele>3214.2</ele>
        <time>2015-09-01T04:44:23Z</time>
      </trkpt>
      <trkpt lat="34.00849" lon="77.20688">
        <ele>3214.4</ele>
        <time>2015-09-01T04:44:26Z</time>
      </trkpt>
      <trkpt lat="34.00849" lon="77.20693">
        <ele>3214.6</ele>
        <time>2015-09-01T04:45:02Z</time>
      </trkpt>
      <trkpt lat="34.00858" lon="77.20704">
        <ele>3214.2</ele>
        <time>2015-09-01T04:45:27Z</time>
      </trkpt>
      <trkpt lat="34.00858" lon="77.20699">
        <ele>3214</ele>
        <time>2015-09-01T04:45:31Z</time>
      </trkpt>
      <trkpt lat="34.00857" lon="77.207">
        <ele>3214.2</ele>
        <time>2015-09-01T04:46:22Z</time>
      </trkpt>
      <trkpt lat="34.00855" lon="77.20697">
        <ele>3214.2</ele>
        <time>2015-09-01T04:46:27Z</time>
      </trkpt>
      <trkpt lat="34.00855" lon="77.20698">
        <ele>3214.2</ele>
        <time>2015-09-01T04:46:29Z</time>
      </trkpt>
      <trkpt lat="34.00852" lon="77.20696">
        <ele>3213.6</ele>
        <time>2015-09-01T04:46:49Z</time>
      </trkpt>
      <trkpt lat="34.00853" lon="77.20696">
        <ele>3213.4</ele>
        <time>2015-09-01T04:46:56Z</time>
      </trkpt>
      <trkpt lat="34.00852" lon="77.20696">
        <ele>3214</ele>
        <time>2015-09-01T04:47:18Z</time>
      </trkpt>
      <trkpt lat="34.0085" lon="77.2069">
        <ele>3214.6</ele>
        <time>2015-09-01T04:48:19Z</time>
      </trkpt>
      <trkpt lat="34.00849" lon="77.20698">
        <ele>3212.6</ele>
        <time>2015-09-01T04:48:50Z</time>
      </trkpt>
      <trkpt lat="34.00853" lon="77.2072">
        <ele>3212.2</ele>
        <time>2015-09-01T04:48:58Z</time>
      </trkpt>
      <trkpt lat="34.00855" lon="77.20736">
        <ele>3211.6</ele>
        <time>2015-09-01T04:49:08Z</time>
      </trkpt>
      <trkpt lat="34.00857" lon="77.20736">
        <ele>3211.6</ele>
        <time>2015-09-01T04:49:13Z</time>
      </trkpt>
      <trkpt lat="34.00861" lon="77.20742">
        <ele>3211.4</ele>
        <time>2015-09-01T04:49:24Z</time>
      </trkpt>
      <trkpt lat="34.00861" lon="77.20757">
        <ele>3211.6</ele>
        <time>2015-09-01T04:49:36Z</time>
      </trkpt>
      <trkpt lat="34.0087" lon="77.20771">
        <ele>3212.6</ele>
        <time>2015-09-01T04:50:08Z</time>
      </trkpt>
      <trkpt lat="34.00869" lon="77.20776">
        <ele>3213.6</ele>
        <time>2015-09-01T04:50:14Z</time>
      </trkpt>
      <trkpt lat="34.00868" lon="77.20777">
        <ele>3213.6</ele>
        <time>2015-09-01T04:50:15Z</time>
      </trkpt>
      <trkpt lat="34.00867" lon="77.20778">
        <ele>3213.6</ele>
        <time>2015-09-01T04:50:17Z</time>
      </trkpt>
      <trkpt lat="34.00863" lon="77.20783">
        <ele>3213.4</ele>
        <time>2015-09-01T04:50:44Z</time>
      </trkpt>
      <trkpt lat="34.00861" lon="77.20776">
        <ele>3214</ele>
        <time>2015-09-01T04:51:19Z</time>
      </trkpt>
      <trkpt lat="34.0086" lon="77.20776">
        <ele>3213.8</ele>
        <time>2015-09-01T04:51:22Z</time>
      </trkpt>
      <trkpt lat="34.0086" lon="77.2078">
        <ele>3213.8</ele>
        <time>2015-09-01T04:51:26Z</time>
      </trkpt>
      <trkpt lat="34.00857" lon="77.20786">
        <ele>3214.8</ele>
        <time>2015-09-01T04:51:39Z</time>
      </trkpt>
      <trkpt lat="34.00855" lon="77.20788">
        <ele>3215.2</ele>
        <time>2015-09-01T04:52:37Z</time>
      </trkpt>
      <trkpt lat="34.00861" lon="77.20787">
        <ele>3215</ele>
        <time>2015-09-01T04:52:50Z</time>
      </trkpt>
      <trkpt lat="34.00864" lon="77.20787">
        <ele>3215</ele>
        <time>2015-09-01T04:52:54Z</time>
      </trkpt>
      <trkpt lat="34.00862" lon="77.20795">
        <ele>3215.2</ele>
        <time>2015-09-01T04:53:10Z</time>
      </trkpt>
      <trkpt lat="34.0086" lon="77.20798">
        <ele>3215.2</ele>
        <time>2015-09-01T04:53:14Z</time>
      </trkpt>
      <trkpt lat="34.00866" lon="77.20788">
        <ele>3214.8</ele>
        <time>2015-09-01T04:53:48Z</time>
      </trkpt>
      <trkpt lat="34.00864" lon="77.20787">
        <ele>3214.4</ele>
        <time>2015-09-01T04:53:51Z</time>
      </trkpt>
      <trkpt lat="34.00863" lon="77.20786">
        <ele>3214.2</ele>
        <time>2015-09-01T04:54:07Z</time>
      </trkpt>
      <trkpt lat="34.00862" lon="77.2079">
        <ele>3213.6</ele>
        <time>2015-09-01T04:54:33Z</time>
      </trkpt>
      <trkpt lat="34.00853" lon="77.20773">
        <ele>3213.2</ele>
        <time>2015-09-01T04:55:07Z</time>
      </trkpt>
      <trkpt lat="34.00854" lon="77.20779">
        <ele>3213</ele>
        <time>2015-09-01T04:55:14Z</time>
      </trkpt>
      <trkpt lat="34.00856" lon="77.20776">
        <ele>3213</ele>
        <time>2015-09-01T04:55:17Z</time>
      </trkpt>
      <trkpt lat="34.00859" lon="77.20779">
        <ele>3213.4</ele>
        <time>2015-09-01T04:55:23Z</time>
      </trkpt>
      <trkpt lat="34.00861" lon="77.20788">
        <ele>3212.6</ele>
        <time>2015-09-01T04:55:34Z</time>
      </trkpt>
      <trkpt lat="34.00863" lon="77.2079">
        <ele>3212</ele>
        <time>2015-09-01T04:56:05Z</time>
      </trkpt>
      <trkpt lat="34.00863" lon="77.20789">
        <ele>3212</ele>
        <time>2015-09-01T04:56:07Z</time>
      </trkpt>
      <trkpt lat="34.00871" lon="77.20792">
        <ele>3212.4</ele>
        <time>2015-09-01T04:56:37Z</time>
      </trkpt>
      <trkpt lat="34.00866" lon="77.20793">
        <ele>3212</ele>
        <time>2015-09-01T04:57:03Z</time>
      </trkpt>
      <trkpt lat="34.00866" lon="77.20795">
        <ele>3212</ele>
        <time>2015-09-01T04:57:05Z</time>
      </trkpt>
      <trkpt lat="34.00865" lon="77.20793">
        <ele>3212.2</ele>
        <time>2015-09-01T04:57:13Z</time>
      </trkpt>
      <trkpt lat="34.00865" lon="77.20793">
        <ele>3212</ele>
        <time>2015-09-01T04:57:42Z</time>
      </trkpt>
      <trkpt lat="34.00866" lon="77.20795">
        <ele>3211.8</ele>
        <time>2015-09-01T04:57:51Z</time>
      </trkpt>
      <trkpt lat="34.00868" lon="77.20799">
        <ele>3211.6</ele>
        <time>2015-09-01T04:58:11Z</time>
      </trkpt>
      <trkpt lat="34.00864" lon="77.20791">
        <ele>3211.6</ele>
        <time>2015-09-01T04:58:30Z</time>
      </trkpt>
      <trkpt lat="34.00868" lon="77.20785">
        <ele>3211.8</ele>
        <time>2015-09-01T04:58:38Z</time>
      </trkpt>
      <trkpt lat="34.0087" lon="77.20785">
        <ele>3211.8</ele>
        <time>2015-09-01T04:58:40Z</time>
      </trkpt>
      <trkpt lat="34.00869" lon="77.20794">
        <ele>3211.8</ele>
        <time>2015-09-01T04:58:55Z</time>
      </trkpt>
      <trkpt lat="34.00869" lon="77.20798">
        <ele>3211.8</ele>
        <time>2015-09-01T04:58:57Z</time>
      </trkpt>
      <trkpt lat="34.00871" lon="77.20809">
        <ele>3211.6</ele>
        <time>2015-09-01T05:00:18Z</time>
      </trkpt>
      <trkpt lat="34.00867" lon="77.2082">
        <ele>3211.4</ele>
        <time>2015-09-01T05:00:34Z</time>
      </trkpt>
      <trkpt lat="34.00867" lon="77.20825">
        <ele>3211.4</ele>
        <time>2015-09-01T05:00:38Z</time>
      </trkpt>
      <trkpt lat="34.00866" lon="77.20831">
        <ele>3211.4</ele>
        <time>2015-09-01T05:00:42Z</time>
      </trkpt>
      <trkpt lat="34.00865" lon="77.20835">
        <ele>3211.2</ele>
        <time>2015-09-01T05:00:46Z</time>
      </trkpt>
      <trkpt lat="34.00865" lon="77.20819">
        <ele>3210.8</ele>
        <time>2015-09-01T05:01:03Z</time>
      </trkpt>
      <trkpt lat="34.00865" lon="77.20802">
        <ele>3211</ele>
        <time>2015-09-01T05:01:05Z</time>
      </trkpt>
      <trkpt lat="34.00865" lon="77.20796">
        <ele>3211</ele>
        <time>2015-09-01T05:01:07Z</time>
      </trkpt>
      <trkpt lat="34.00866" lon="77.20794">
        <ele>3211</ele>
        <time>2015-09-01T05:01:09Z</time>
      </trkpt>
      <trkpt lat="34.00865" lon="77.2079">
        <ele>3211</ele>
        <time>2015-09-01T05:01:12Z</time>
      </trkpt>
      <trkpt lat="34.00866" lon="77.2079">
        <ele>3211</ele>
        <time>2015-09-01T05:01:14Z</time>
      </trkpt>
      <trkpt lat="34.00863" lon="77.20789">
        <ele>3210.6</ele>
        <time>2015-09-01T05:02:03Z</time>
      </trkpt>
      <trkpt lat="34.00853" lon="77.20789">
        <ele>3211.2</ele>
        <time>2015-09-01T05:02:35Z</time>
      </trkpt>
      <trkpt lat="34.00857" lon="77.20789">
        <ele>3211.2</ele>
        <time>2015-09-01T05:02:39Z</time>
      </trkpt>
      <trkpt lat="34.00862" lon="77.20788">
        <ele>3211</ele>
        <time>2015-09-01T05:02:43Z</time>
      </trkpt>
      <trkpt lat="34.00864" lon="77.20788">
        <ele>3211</ele>
        <time>2015-09-01T05:02:46Z</time>
      </trkpt>
      <trkpt lat="34.00865" lon="77.20784">
        <ele>3211.6</ele>
        <time>2015-09-01T05:03:00Z</time>
      </trkpt>
      <trkpt lat="34.00869" lon="77.2079">
        <ele>3212</ele>
        <time>2015-09-01T05:03:11Z</time>
      </trkpt>
      <trkpt lat="34.00868" lon="77.20789">
        <ele>3211.2</ele>
        <time>2015-09-01T05:03:43Z</time>
      </trkpt>
      <trkpt lat="34.00866" lon="77.20786">
        <ele>3210.8</ele>
        <time>2015-09-01T05:04:04Z</time>
      </trkpt>
      <trkpt lat="34.00865" lon="77.20789">
        <ele>3211.6</ele>
        <time>2015-09-01T05:04:40Z</time>
      </trkpt>
      <trkpt lat="34.00864" lon="77.20793">
        <ele>3210.8</ele>
        <time>2015-09-01T05:05:26Z</time>
      </trkpt>
      <trkpt lat="34.0086" lon="77.20793">
        <ele>3211</ele>
        <time>2015-09-01T05:06:09Z</time>
      </trkpt>
      <trkpt lat="34.00865" lon="77.20791">
        <ele>3211.2</ele>
        <time>2015-09-01T05:06:16Z</time>
      </trkpt>
      <trkpt lat="34.00861" lon="77.20787">
        <ele>3211</ele>
        <time>2015-09-01T05:07:18Z</time>
      </trkpt>
      <trkpt lat="34.0086" lon="77.20768">
        <ele>3211.2</ele>
        <time>2015-09-01T05:07:27Z</time>
      </trkpt>
      <trkpt lat="34.0086" lon="77.20763">
        <ele>3211.4</ele>
        <time>2015-09-01T05:07:30Z</time>
      </trkpt>
      <trkpt lat="34.0086" lon="77.20768">
        <ele>3212</ele>
        <time>2015-09-01T05:07:33Z</time>
      </trkpt>
      <trkpt lat="34.0086" lon="77.20768">
        <ele>3212.2</ele>
        <time>2015-09-01T05:07:35Z</time>
      </trkpt>
      <trkpt lat="34.00858" lon="77.2078">
        <ele>3212.4</ele>
        <time>2015-09-01T05:07:40Z</time>
      </trkpt>
      <trkpt lat="34.0086" lon="77.20793">
        <ele>3212.2</ele>
        <time>2015-09-01T05:08:03Z</time>
      </trkpt>
      <trkpt lat="34.00863" lon="77.20792">
        <ele>3212.6</ele>
        <time>2015-09-01T05:08:07Z</time>
      </trkpt>
      <trkpt lat="34.00864" lon="77.20791">
        <ele>3212.6</ele>
        <time>2015-09-01T05:08:08Z</time>
      </trkpt>
      <trkpt lat="34.00868" lon="77.20794">
        <ele>3212</ele>
        <time>2015-09-01T05:08:33Z</time>
      </trkpt>
      <trkpt lat="34.00864" lon="77.20789">
        <ele>3212.2</ele>
        <time>2015-09-01T05:09:35Z</time>
      </trkpt>
      <trkpt lat="34.00865" lon="77.20798">
        <ele>3212.4</ele>
        <time>2015-09-01T05:10:13Z</time>
      </trkpt>
      <trkpt lat="34.00865" lon="77.20799">
        <ele>3212.4</ele>
        <time>2015-09-01T05:10:15Z</time>
      </trkpt>
      <trkpt lat="34.0086" lon="77.20792">
        <ele>3212</ele>
        <time>2015-09-01T05:10:38Z</time>
      </trkpt>
      <trkpt lat="34.00863" lon="77.20795">
        <ele>3212</ele>
        <time>2015-09-01T05:10:42Z</time>
      </trkpt>
      <trkpt lat="34.00869" lon="77.20806">
        <ele>3211.8</ele>
        <time>2015-09-01T05:11:23Z</time>
      </trkpt>
      <trkpt lat="34.00876" lon="77.20811">
        <ele>3211.8</ele>
        <time>2015-09-01T05:11:27Z</time>
      </trkpt>
      <trkpt lat="34.00875" lon="77.20811">
        <ele>3211.8</ele>
        <time>2015-09-01T05:11:29Z</time>
      </trkpt>
      <trkpt lat="34.00865" lon="77.20802">
        <ele>3211.4</ele>
        <time>2015-09-01T05:11:48Z</time>
      </trkpt>
      <trkpt lat="34.00867" lon="77.20798">
        <ele>3211.4</ele>
        <time>2015-09-01T05:11:53Z</time>
      </trkpt>
      <trkpt lat="34.00858" lon="77.20789">
        <ele>3210.6</ele>
        <time>2015-09-01T05:12:03Z</time>
      </trkpt>
      <trkpt lat="34.00849" lon="77.20771">
        <ele>3210.6</ele>
        <time>2015-09-01T05:12:17Z</time>
      </trkpt>
      <trkpt lat="34.00848" lon="77.20762">
        <ele>3210.6</ele>
        <time>2015-09-01T05:12:22Z</time>
      </trkpt>
      <trkpt lat="34.00849" lon="77.20762">
        <ele>3210.6</ele>
        <time>2015-09-01T05:12:23Z</time>
      </trkpt>
      <trkpt lat="34.00865" lon="77.20779">
        <ele>3210.2</ele>
        <time>2015-09-01T05:12:32Z</time>
      </trkpt>
      <trkpt lat="34.0085" lon="77.20777">
        <ele>3211.4</ele>
        <time>2015-09-01T05:13:03Z</time>
      </trkpt>
      <trkpt lat="34.00848" lon="77.20771">
        <ele>3211.4</ele>
        <time>2015-09-01T05:13:05Z</time>
      </trkpt>
      <trkpt lat="34.00859" lon="77.20784">
        <ele>3211.4</ele>
        <time>2015-09-01T05:13:10Z</time>
      </trkpt>
      <trkpt lat="34.00861" lon="77.20785">
        <ele>3211.2</ele>
        <time>2015-09-01T05:13:13Z</time>
      </trkpt>
      <trkpt lat="34.00864" lon="77.20786">
        <ele>3211</ele>
        <time>2015-09-01T05:13:15Z</time>
      </trkpt>
      <trkpt lat="34.00866" lon="77.20785">
        <ele>3210.8</ele>
        <time>2015-09-01T05:13:18Z</time>
      </trkpt>
      <trkpt lat="34.00865" lon="77.20791">
        <ele>3211.4</ele>
        <time>2015-09-01T05:13:32Z</time>
      </trkpt>
      <trkpt lat="34.00863" lon="77.2079">
        <ele>3211.2</ele>
        <time>2015-09-01T05:13:35Z</time>
      </trkpt>
      <trkpt lat="34.00877" lon="77.20802">
        <ele>3211</ele>
        <time>2015-09-01T05:14:16Z</time>
      </trkpt>
      <trkpt lat="34.00882" lon="77.20806">
        <ele>3211</ele>
        <time>2015-09-01T05:14:19Z</time>
      </trkpt>
      <trkpt lat="34.00867" lon="77.20791">
        <ele>3210.2</ele>
        <time>2015-09-01T05:14:47Z</time>
      </trkpt>
      <trkpt lat="34.00864" lon="77.2079">
        <ele>3211.2</ele>
        <time>2015-09-01T05:14:59Z</time>
      </trkpt>
      <trkpt lat="34.00863" lon="77.20798">
        <ele>3210.6</ele>
        <time>2015-09-01T05:15:49Z</time>
      </trkpt>
      <trkpt lat="34.00863" lon="77.20791">
        <ele>3210.2</ele>
        <time>2015-09-01T05:16:09Z</time>
      </trkpt>
      <trkpt lat="34.0086" lon="77.20788">
        <ele>3210.2</ele>
        <time>2015-09-01T05:16:13Z</time>
      </trkpt>
      <trkpt lat="34.00854" lon="77.2079">
        <ele>3210.6</ele>
        <time>2015-09-01T05:16:46Z</time>
      </trkpt>
      <trkpt lat="34.00852" lon="77.20789">
        <ele>3210.8</ele>
        <time>2015-09-01T05:16:48Z</time>
      </trkpt>
      <trkpt lat="34.00857" lon="77.20789">
        <ele>3210.8</ele>
        <time>2015-09-01T05:17:04Z</time>
      </trkpt>
      <trkpt lat="34.00855" lon="77.20797">
        <ele>3210.8</ele>
        <time>2015-09-01T05:17:20Z</time>
      </trkpt>
      <trkpt lat="34.0084" lon="77.20788">
        <ele>3210.6</ele>
        <time>2015-09-01T05:17:45Z</time>
      </trkpt>
      <trkpt lat="34.00827" lon="77.2078">
        <ele>3210</ele>
        <time>2015-09-01T05:18:06Z</time>
      </trkpt>
      <trkpt lat="34.00828" lon="77.20768">
        <ele>3209.6</ele>
        <time>2015-09-01T05:18:24Z</time>
      </trkpt>
      <trkpt lat="34.00844" lon="77.20781">
        <ele>3209.2</ele>
        <time>2015-09-01T05:18:42Z</time>
      </trkpt>
      <trkpt lat="34.00858" lon="77.20794">
        <ele>3209.4</ele>
        <time>2015-09-01T05:19:26Z</time>
      </trkpt>
      <trkpt lat="34.00864" lon="77.20793">
        <ele>3209.2</ele>
        <time>2015-09-01T05:19:34Z</time>
      </trkpt>
      <trkpt lat="34.00867" lon="77.20796">
        <ele>3209.6</ele>
        <time>2015-09-01T05:19:38Z</time>
      </trkpt>
      <trkpt lat="34.00867" lon="77.2079">
        <ele>3209.4</ele>
        <time>2015-09-01T05:19:53Z</time>
      </trkpt>
      <trkpt lat="34.00864" lon="77.20789">
        <ele>3209.4</ele>
        <time>2015-09-01T05:19:58Z</time>
      </trkpt>
      <trkpt lat="34.00864" lon="77.20787">
        <ele>3209.4</ele>
        <time>2015-09-01T05:20:00Z</time>
      </trkpt>
      <trkpt lat="34.00866" lon="77.20789">
        <ele>3209.4</ele>
        <time>2015-09-01T05:20:03Z</time>
      </trkpt>
      <trkpt lat="34.00866" lon="77.20797">
        <ele>3208.6</ele>
        <time>2015-09-01T05:20:21Z</time>
      </trkpt>
      <trkpt lat="34.00861" lon="77.20795">
        <ele>3208.6</ele>
        <time>2015-09-01T05:21:50Z</time>
      </trkpt>
      <trkpt lat="34.00858" lon="77.20791">
        <ele>3209</ele>
        <time>2015-09-01T05:21:54Z</time>
      </trkpt>
      <trkpt lat="34.00858" lon="77.2079">
        <ele>3209</ele>
        <time>2015-09-01T05:21:56Z</time>
      </trkpt>
      <trkpt lat="34.00863" lon="77.20792">
        <ele>3208.8</ele>
        <time>2015-09-01T05:22:29Z</time>
      </trkpt>
      <trkpt lat="34.00856" lon="77.20801">
        <ele>3208</ele>
        <time>2015-09-01T05:23:33Z</time>
      </trkpt>
      <trkpt lat="34.00856" lon="77.20802">
        <ele>3208</ele>
        <time>2015-09-01T05:23:34Z</time>
      </trkpt>
      <trkpt lat="34.00856" lon="77.20804">
        <ele>3208</ele>
        <time>2015-09-01T05:23:36Z</time>
      </trkpt>
      <trkpt lat="34.00856" lon="77.20817">
        <ele>3207.6</ele>
        <time>2015-09-01T05:23:55Z</time>
      </trkpt>
      <trkpt lat="34.00857" lon="77.20823">
        <ele>3207.2</ele>
        <time>2015-09-01T05:23:59Z</time>
      </trkpt>
      <trkpt lat="34.00856" lon="77.20829">
        <ele>3207</ele>
        <time>2015-09-01T05:24:12Z</time>
      </trkpt>
      <trkpt lat="34.00856" lon="77.20835">
        <ele>3206.6</ele>
        <time>2015-09-01T05:24:17Z</time>
      </trkpt>
      <trkpt lat="34.00857" lon="77.20835">
        <ele>3206.4</ele>
        <time>2015-09-01T05:24:20Z</time>
      </trkpt>
      <trkpt lat="34.00856" lon="77.20825">
        <ele>3206.2</ele>
        <time>2015-09-01T05:24:24Z</time>
      </trkpt>
      <trkpt lat="34.00856" lon="77.20824">
        <ele>3206.2</ele>
        <time>2015-09-01T05:24:26Z</time>
      </trkpt>
      <trkpt lat="34.00858" lon="77.20827">
        <ele>3205.6</ele>
        <time>2015-09-01T05:24:33Z</time>
      </trkpt>
      <trkpt lat="34.00859" lon="77.20824">
        <ele>3205.4</ele>
        <time>2015-09-01T05:24:35Z</time>
      </trkpt>
      <trkpt lat="34.00861" lon="77.20819">
        <ele>3205.4</ele>
        <time>2015-09-01T05:24:39Z</time>
      </trkpt>
      <trkpt lat="34.00861" lon="77.20814">
        <ele>3205.2</ele>
        <time>2015-09-01T05:24:41Z</time>
      </trkpt>
      <trkpt lat="34.0086" lon="77.208">
        <ele>3205.2</ele>
        <time>2015-09-01T05:24:46Z</time>
      </trkpt>
      <trkpt lat="34.00862" lon="77.20797">
        <ele>3205.2</ele>
        <time>2015-09-01T05:24:49Z</time>
      </trkpt>
      <trkpt lat="34.00862" lon="77.20793">
        <ele>3205.4</ele>
        <time>2015-09-01T05:24:54Z</time>
      </trkpt>
      <trkpt lat="34.00865" lon="77.20792">
        <ele>3205.4</ele>
        <time>2015-09-01T05:24:58Z</time>
      </trkpt>
      <trkpt lat="34.00866" lon="77.20793">
        <ele>3205.2</ele>
        <time>2015-09-01T05:25:01Z</time>
      </trkpt>
      <trkpt lat="34.00864" lon="77.20797">
        <ele>3205.2</ele>
        <time>2015-09-01T05:25:05Z</time>
      </trkpt>
      <trkpt lat="34.00861" lon="77.20793">
        <ele>3205.4</ele>
        <time>2015-09-01T05:25:13Z</time>
      </trkpt>
      <trkpt lat="34.0086" lon="77.20797">
        <ele>3205.4</ele>
        <time>2015-09-01T05:25:16Z</time>
      </trkpt>
      <trkpt lat="34.0086" lon="77.20788">
        <ele>3205.6</ele>
        <time>2015-09-01T05:25:45Z</time>
      </trkpt>
      <trkpt lat="34.00857" lon="77.20787">
        <ele>3205.4</ele>
        <time>2015-09-01T05:25:52Z</time>
      </trkpt>
      <trkpt lat="34.00855" lon="77.20786">
        <ele>3204.4</ele>
        <time>2015-09-01T05:26:16Z</time>
      </trkpt>
      <trkpt lat="34.00856" lon="77.20794">
        <ele>3204</ele>
        <time>2015-09-01T05:26:30Z</time>
      </trkpt>
      <trkpt lat="34.00862" lon="77.20794">
        <ele>3204</ele>
        <time>2015-09-01T05:27:24Z</time>
      </trkpt>
      <trkpt lat="34.00858" lon="77.20798">
        <ele>3203.4</ele>
        <time>2015-09-01T05:27:57Z</time>
      </trkpt>
      <trkpt lat="34.0085" lon="77.20797">
        <ele>3203.4</ele>
        <time>2015-09-01T05:28:07Z</time>
      </trkpt>
      <trkpt lat="34.00859" lon="77.20788">
        <ele>3203</ele>
        <time>2015-09-01T05:28:33Z</time>
      </trkpt>
      <trkpt lat="34.00852" lon="77.20793">
        <ele>3202.6</ele>
        <time>2015-09-01T05:28:45Z</time>
      </trkpt>
      <trkpt lat="34.00854" lon="77.20806">
        <ele>3202.6</ele>
        <time>2015-09-01T05:29:43Z</time>
      </trkpt>
      <trkpt lat="34.00857" lon="77.20804">
        <ele>3202.4</ele>
        <time>2015-09-01T05:29:51Z</time>
      </trkpt>
      <trkpt lat="34.0086" lon="77.208">
        <ele>3202.2</ele>
        <time>2015-09-01T05:30:05Z</time>
      </trkpt>
      <trkpt lat="34.00857" lon="77.20795">
        <ele>3202.2</ele>
        <time>2015-09-01T05:31:18Z</time>
      </trkpt>
      <trkpt lat="34.00854" lon="77.20807">
        <ele>3202</ele>
        <time>2015-09-01T05:31:54Z</time>
      </trkpt>
      <trkpt lat="34.0086" lon="77.20809">
        <ele>3201.4</ele>
        <time>2015-09-01T05:32:47Z</time>
      </trkpt>
      <trkpt lat="34.00858" lon="77.20803">
        <ele>3200.4</ele>
        <time>2015-09-01T05:33:38Z</time>
      </trkpt>
      <trkpt lat="34.0086" lon="77.20795">
        <ele>3199.8</ele>
        <time>2015-09-01T05:34:26Z</time>
      </trkpt>
      <trkpt lat="34.00867" lon="77.20795">
        <ele>3199.4</ele>
        <time>2015-09-01T05:35:21Z</time>
      </trkpt>
      <trkpt lat="34.00854" lon="77.20805">
        <ele>3199.4</ele>
        <time>2015-09-01T05:35:31Z</time>
      </trkpt>
      <trkpt lat="34.00855" lon="77.20796">
        <ele>3200.2</ele>
        <time>2015-09-01T05:36:08Z</time>
      </trkpt>
      <trkpt lat="34.00858" lon="77.20792">
        <ele>3198.8</ele>
        <time>2015-09-01T05:36:55Z</time>
      </trkpt>
      <trkpt lat="34.00856" lon="77.20791">
        <ele>3199.4</ele>
        <time>2015-09-01T05:37:45Z</time>
      </trkpt>
      <trkpt lat="34.00856" lon="77.20787">
        <ele>3199.2</ele>
        <time>2015-09-01T05:37:53Z</time>
      </trkpt>
      <trkpt lat="34.00852" lon="77.20788">
        <ele>3199</ele>
        <time>2015-09-01T05:38:56Z</time>
      </trkpt>
      <trkpt lat="34.00846" lon="77.20786">
        <ele>3198.6</ele>
        <time>2015-09-01T05:40:00Z</time>
      </trkpt>
      <trkpt lat="34.00849" lon="77.20784">
        <ele>3198.4</ele>
        <time>2015-09-01T05:40:26Z</time>
      </trkpt>
      <trkpt lat="34.00849" lon="77.20794">
        <ele>3199</ele>
        <time>2015-09-01T05:40:52Z</time>
      </trkpt>
      <trkpt lat="34.00849" lon="77.20796">
        <ele>3199</ele>
        <time>2015-09-01T05:40:54Z</time>
      </trkpt>
      <trkpt lat="34.00848" lon="77.20798">
        <ele>3199.2</ele>
        <time>2015-09-01T05:40:57Z</time>
      </trkpt>
      <trkpt lat="34.00854" lon="77.20799">
        <ele>3199.4</ele>
        <time>2015-09-01T05:41:00Z</time>
      </trkpt>
      <trkpt lat="34.00853" lon="77.20798">
        <ele>3199.4</ele>
        <time>2015-09-01T05:41:01Z</time>
      </trkpt>
      <trkpt lat="34.00848" lon="77.208">
        <ele>3199.4</ele>
        <time>2015-09-01T05:41:05Z</time>
      </trkpt>
      <trkpt lat="34.00844" lon="77.20797">
        <ele>3199.6</ele>
        <time>2015-09-01T05:41:09Z</time>
      </trkpt>
      <trkpt lat="34.00838" lon="77.2079">
        <ele>3199.4</ele>
        <time>2015-09-01T05:41:16Z</time>
      </trkpt>
      <trkpt lat="34.00834" lon="77.2079">
        <ele>3199.2</ele>
        <time>2015-09-01T05:41:20Z</time>
      </trkpt>
      <trkpt lat="34.00832" lon="77.20798">
        <ele>3199.2</ele>
        <time>2015-09-01T05:41:38Z</time>
      </trkpt>
      <trkpt lat="34.00832" lon="77.20797">
        <ele>3199.4</ele>
        <time>2015-09-01T05:41:40Z</time>
      </trkpt>
      <trkpt lat="34.00832" lon="77.20794">
        <ele>3199.6</ele>
        <time>2015-09-01T05:41:43Z</time>
      </trkpt>
      <trkpt lat="34.0083" lon="77.2079">
        <ele>3199.6</ele>
        <time>2015-09-01T05:41:46Z</time>
      </trkpt>
      <trkpt lat="34.00835" lon="77.20771">
        <ele>3199</ele>
        <time>2015-09-01T05:42:04Z</time>
      </trkpt>
      <trkpt lat="34.00834" lon="77.20786">
        <ele>3198.8</ele>
        <time>2015-09-01T05:42:13Z</time>
      </trkpt>
      <trkpt lat="34.00832" lon="77.20787">
        <ele>3199</ele>
        <time>2015-09-01T05:42:17Z</time>
      </trkpt>
      <trkpt lat="34.00826" lon="77.20777">
        <ele>3199.8</ele>
        <time>2015-09-01T05:42:27Z</time>
      </trkpt>
      <trkpt lat="34.00818" lon="77.20793">
        <ele>3199.8</ele>
        <time>2015-09-01T05:42:31Z</time>
      </trkpt>
      <trkpt lat="34.00813" lon="77.20794">
        <ele>3200.4</ele>
        <time>2015-09-01T05:42:38Z</time>
      </trkpt>
      <trkpt lat="34.00802" lon="77.20797">
        <ele>3200.8</ele>
        <time>2015-09-01T05:42:48Z</time>
      </trkpt>
      <trkpt lat="34.008" lon="77.20796">
        <ele>3200.6</ele>
        <time>2015-09-01T05:42:50Z</time>
      </trkpt>
      <trkpt lat="34.00792" lon="77.20796">
        <ele>3201</ele>
        <time>2015-09-01T05:42:59Z</time>
      </trkpt>
      <trkpt lat="34.00788" lon="77.20797">
        <ele>3201</ele>
        <time>2015-09-01T05:43:07Z</time>
      </trkpt>
      <trkpt lat="34.00775" lon="77.20799">
        <ele>3201.2</ele>
        <time>2015-09-01T05:43:16Z</time>
      </trkpt>
      <trkpt lat="34.00772" lon="77.208">
        <ele>3201.2</ele>
        <time>2015-09-01T05:43:20Z</time>
      </trkpt>
      <trkpt lat="34.00766" lon="77.20801">
        <ele>3201.4</ele>
        <time>2015-09-01T05:43:25Z</time>
      </trkpt>
      <trkpt lat="34.00755" lon="77.20805">
        <ele>3201.6</ele>
        <time>2015-09-01T05:43:34Z</time>
      </trkpt>
      <trkpt lat="34.0074" lon="77.20813">
        <ele>3202.4</ele>
        <time>2015-09-01T05:43:48Z</time>
      </trkpt>
      <trkpt lat="34.0073" lon="77.20822">
        <ele>3203</ele>
        <time>2015-09-01T05:44:00Z</time>
      </trkpt>
      <trkpt lat="34.00727" lon="77.20823">
        <ele>3203.2</ele>
        <time>2015-09-01T05:44:03Z</time>
      </trkpt>
      <trkpt lat="34.00722" lon="77.20826">
        <ele>3203.4</ele>
        <time>2015-09-01T05:44:08Z</time>
      </trkpt>
      <trkpt lat="34.00711" lon="77.20831">
        <ele>3203.6</ele>
        <time>2015-09-01T05:44:18Z</time>
      </trkpt>
      <trkpt lat="34.00709" lon="77.20832">
        <ele>3203.8</ele>
        <time>2015-09-01T05:44:21Z</time>
      </trkpt>
      <trkpt lat="34.00707" lon="77.20839">
        <ele>3203.8</ele>
        <time>2015-09-01T05:44:28Z</time>
      </trkpt>
      <trkpt lat="34.00706" lon="77.20838">
        <ele>3204.6</ele>
        <time>2015-09-01T05:44:33Z</time>
      </trkpt>
      <trkpt lat="34.00702" lon="77.2083">
        <ele>3204.8</ele>
        <time>2015-09-01T05:44:38Z</time>
      </trkpt>
      <trkpt lat="34.00703" lon="77.20834">
        <ele>3205</ele>
        <time>2015-09-01T05:44:43Z</time>
      </trkpt>
      <trkpt lat="34.00697" lon="77.20844">
        <ele>3205.6</ele>
        <time>2015-09-01T05:44:51Z</time>
      </trkpt>
      <trkpt lat="34.00693" lon="77.20847">
        <ele>3206</ele>
        <time>2015-09-01T05:44:55Z</time>
      </trkpt>
      <trkpt lat="34.00689" lon="77.20848">
        <ele>3206.4</ele>
        <time>2015-09-01T05:44:58Z</time>
      </trkpt>
      <trkpt lat="34.00686" lon="77.20849">
        <ele>3206.8</ele>
        <time>2015-09-01T05:45:01Z</time>
      </trkpt>
      <trkpt lat="34.00681" lon="77.20856">
        <ele>3207</ele>
        <time>2015-09-01T05:45:07Z</time>
      </trkpt>
      <trkpt lat="34.00665" lon="77.20866">
        <ele>3206.8</ele>
        <time>2015-09-01T05:45:24Z</time>
      </trkpt>
      <trkpt lat="34.00664" lon="77.20867">
        <ele>3207</ele>
        <time>2015-09-01T05:45:25Z</time>
      </trkpt>
      <trkpt lat="34.00662" lon="77.20889">
        <ele>3206.2</ele>
        <time>2015-09-01T05:45:39Z</time>
      </trkpt>
      <trkpt lat="34.00658" lon="77.20887">
        <ele>3206</ele>
        <time>2015-09-01T05:45:44Z</time>
      </trkpt>
      <trkpt lat="34.0064" lon="77.20885">
        <ele>3206.4</ele>
        <time>2015-09-01T05:46:01Z</time>
      </trkpt>
      <trkpt lat="34.00634" lon="77.20888">
        <ele>3205.8</ele>
        <time>2015-09-01T05:46:07Z</time>
      </trkpt>
      <trkpt lat="34.00627" lon="77.20895">
        <ele>3204.4</ele>
        <time>2015-09-01T05:46:14Z</time>
      </trkpt>
      <trkpt lat="34.00622" lon="77.20907">
        <ele>3205.4</ele>
        <time>2015-09-01T05:46:24Z</time>
      </trkpt>
      <trkpt lat="34.00622" lon="77.20917">
        <ele>3206.2</ele>
        <time>2015-09-01T05:46:31Z</time>
      </trkpt>
      <trkpt lat="34.00622" lon="77.20925">
        <ele>3206.6</ele>
        <time>2015-09-01T05:46:37Z</time>
      </trkpt>
      <trkpt lat="34.00622" lon="77.20931">
        <ele>3207.2</ele>
        <time>2015-09-01T05:46:43Z</time>
      </trkpt>
      <trkpt lat="34.00622" lon="77.20937">
        <ele>3207.6</ele>
        <time>2015-09-01T05:46:47Z</time>
      </trkpt>
      <trkpt lat="34.00618" lon="77.20944">
        <ele>3208.6</ele>
        <time>2015-09-01T05:46:55Z</time>
      </trkpt>
      <trkpt lat="34.00616" lon="77.20955">
        <ele>3209.8</ele>
        <time>2015-09-01T05:47:05Z</time>
      </trkpt>
      <trkpt lat="34.00615" lon="77.20966">
        <ele>3210.8</ele>
        <time>2015-09-01T05:47:19Z</time>
      </trkpt>
      <trkpt lat="34.00615" lon="77.2097">
        <ele>3212</ele>
        <time>2015-09-01T05:47:24Z</time>
      </trkpt>
      <trkpt lat="34.00616" lon="77.20973">
        <ele>3213.2</ele>
        <time>2015-09-01T05:47:28Z</time>
      </trkpt>
      <trkpt lat="34.00616" lon="77.20983">
        <ele>3214.4</ele>
        <time>2015-09-01T05:47:39Z</time>
      </trkpt>
      <trkpt lat="34.00616" lon="77.20988">
        <ele>3215.4</ele>
        <time>2015-09-01T05:47:49Z</time>
      </trkpt>
      <trkpt lat="34.0062" lon="77.21005">
        <ele>3216.8</ele>
        <time>2015-09-01T05:48:05Z</time>
      </trkpt>
      <trkpt lat="34.00621" lon="77.21007">
        <ele>3217.2</ele>
        <time>2015-09-01T05:48:07Z</time>
      </trkpt>
      <trkpt lat="34.00622" lon="77.21018">
        <ele>3217.8</ele>
        <time>2015-09-01T05:48:15Z</time>
      </trkpt>
      <trkpt lat="34.00625" lon="77.21026">
        <ele>3218.2</ele>
        <time>2015-09-01T05:48:22Z</time>
      </trkpt>
      <trkpt lat="34.00623" lon="77.2104">
        <ele>3218.8</ele>
        <time>2015-09-01T05:48:35Z</time>
      </trkpt>
      <trkpt lat="34.0062" lon="77.21044">
        <ele>3219.8</ele>
        <time>2015-09-01T05:48:40Z</time>
      </trkpt>
      <trkpt lat="34.00616" lon="77.21055">
        <ele>3221</ele>
        <time>2015-09-01T05:48:50Z</time>
      </trkpt>
      <trkpt lat="34.00613" lon="77.21059">
        <ele>3221.4</ele>
        <time>2015-09-01T05:48:54Z</time>
      </trkpt>
      <trkpt lat="34.0061" lon="77.21068">
        <ele>3222.2</ele>
        <time>2015-09-01T05:49:01Z</time>
      </trkpt>
      <trkpt lat="34.00609" lon="77.21072">
        <ele>3222.8</ele>
        <time>2015-09-01T05:49:04Z</time>
      </trkpt>
      <trkpt lat="34.00608" lon="77.21083">
        <ele>3223.2</ele>
        <time>2015-09-01T05:49:14Z</time>
      </trkpt>
      <trkpt lat="34.00602" lon="77.21095">
        <ele>3224.2</ele>
        <time>2015-09-01T05:49:25Z</time>
      </trkpt>
      <trkpt lat="34.00602" lon="77.21096">
        <ele>3224.4</ele>
        <time>2015-09-01T05:49:26Z</time>
      </trkpt>
      <trkpt lat="34.00601" lon="77.21106">
        <ele>3225.4</ele>
        <time>2015-09-01T05:49:39Z</time>
      </trkpt>
      <trkpt lat="34.00603" lon="77.21115">
        <ele>3226.4</ele>
        <time>2015-09-01T05:49:48Z</time>
      </trkpt>
      <trkpt lat="34.00602" lon="77.21117">
        <ele>3226.6</ele>
        <time>2015-09-01T05:49:50Z</time>
      </trkpt>
      <trkpt lat="34.00596" lon="77.21126">
        <ele>3226.8</ele>
        <time>2015-09-01T05:49:59Z</time>
      </trkpt>
      <trkpt lat="34.00595" lon="77.21133">
        <ele>3226.2</ele>
        <time>2015-09-01T05:50:10Z</time>
      </trkpt>
      <trkpt lat="34.00595" lon="77.21136">
        <ele>3225.4</ele>
        <time>2015-09-01T05:50:12Z</time>
      </trkpt>
      <trkpt lat="34.00598" lon="77.21148">
        <ele>3224.4</ele>
        <time>2015-09-01T05:50:19Z</time>
      </trkpt>
      <trkpt lat="34.00598" lon="77.21149">
        <ele>3224.2</ele>
        <time>2015-09-01T05:50:21Z</time>
      </trkpt>
      <trkpt lat="34.00599" lon="77.21157">
        <ele>3223.2</ele>
        <time>2015-09-01T05:50:27Z</time>
      </trkpt>
      <trkpt lat="34.006" lon="77.2116">
        <ele>3223</ele>
        <time>2015-09-01T05:50:31Z</time>
      </trkpt>
      <trkpt lat="34.00603" lon="77.21167">
        <ele>3224.2</ele>
        <time>2015-09-01T05:50:39Z</time>
      </trkpt>
      <trkpt lat="34.00603" lon="77.21168">
        <ele>3224.4</ele>
        <time>2015-09-01T05:50:40Z</time>
      </trkpt>
      <trkpt lat="34.00609" lon="77.21173">
        <ele>3225.4</ele>
        <time>2015-09-01T05:50:48Z</time>
      </trkpt>
      <trkpt lat="34.0061" lon="77.21183">
        <ele>3226.4</ele>
        <time>2015-09-01T05:51:02Z</time>
      </trkpt>
      <trkpt lat="34.00616" lon="77.21187">
        <ele>3227.6</ele>
        <time>2015-09-01T05:51:09Z</time>
      </trkpt>
      <trkpt lat="34.00617" lon="77.21188">
        <ele>3227.8</ele>
        <time>2015-09-01T05:51:11Z</time>
      </trkpt>
      <trkpt lat="34.00621" lon="77.21196">
        <ele>3228.8</ele>
        <time>2015-09-01T05:51:21Z</time>
      </trkpt>
      <trkpt lat="34.00623" lon="77.21202">
        <ele>3229.8</ele>
        <time>2015-09-01T05:51:28Z</time>
      </trkpt>
      <trkpt lat="34.00625" lon="77.21206">
        <ele>3230.8</ele>
        <time>2015-09-01T05:51:35Z</time>
      </trkpt>
      <trkpt lat="34.00628" lon="77.21214">
        <ele>3232</ele>
        <time>2015-09-01T05:51:44Z</time>
      </trkpt>
      <trkpt lat="34.00623" lon="77.21218">
        <ele>3233</ele>
        <time>2015-09-01T05:51:50Z</time>
      </trkpt>
      <trkpt lat="34.00622" lon="77.21218">
        <ele>3233.2</ele>
        <time>2015-09-01T05:51:51Z</time>
      </trkpt>
      <trkpt lat="34.00621" lon="77.21221">
        <ele>3233.8</ele>
        <time>2015-09-01T05:51:54Z</time>
      </trkpt>
      <trkpt lat="34.0062" lon="77.21223">
        <ele>3234</ele>
        <time>2015-09-01T05:51:56Z</time>
      </trkpt>
      <trkpt lat="34.00621" lon="77.21224">
        <ele>3234.4</ele>
        <time>2015-09-01T05:51:58Z</time>
      </trkpt>
      <trkpt lat="34.00621" lon="77.21228">
        <ele>3235</ele>
        <time>2015-09-01T05:52:04Z</time>
      </trkpt>
      <trkpt lat="34.00621" lon="77.2123">
        <ele>3235.2</ele>
        <time>2015-09-01T05:52:06Z</time>
      </trkpt>
      <trkpt lat="34.00626" lon="77.2124">
        <ele>3236.4</ele>
        <time>2015-09-01T05:52:13Z</time>
      </trkpt>
      <trkpt lat="34.00624" lon="77.2124">
        <ele>3237.2</ele>
        <time>2015-09-01T05:52:17Z</time>
      </trkpt>
      <trkpt lat="34.00623" lon="77.21239">
        <ele>3237.6</ele>
        <time>2015-09-01T05:52:19Z</time>
      </trkpt>
      <trkpt lat="34.00619" lon="77.2124">
        <ele>3238.8</ele>
        <time>2015-09-01T05:52:28Z</time>
      </trkpt>
      <trkpt lat="34.00618" lon="77.21241">
        <ele>3239.8</ele>
        <time>2015-09-01T05:52:35Z</time>
      </trkpt>
      <trkpt lat="34.00616" lon="77.21247">
        <ele>3241</ele>
        <time>2015-09-01T05:52:43Z</time>
      </trkpt>
      <trkpt lat="34.00612" lon="77.21252">
        <ele>3242</ele>
        <time>2015-09-01T05:52:52Z</time>
      </trkpt>
      <trkpt lat="34.00608" lon="77.21254">
        <ele>3243</ele>
        <time>2015-09-01T05:52:59Z</time>
      </trkpt>
      <trkpt lat="34.00612" lon="77.21257">
        <ele>3243.6</ele>
        <time>2015-09-01T05:53:10Z</time>
      </trkpt>
      <trkpt lat="34.00613" lon="77.21262">
        <ele>3244.2</ele>
        <time>2015-09-01T05:53:16Z</time>
      </trkpt>
      <trkpt lat="34.00612" lon="77.21261">
        <ele>3245.2</ele>
        <time>2015-09-01T05:53:24Z</time>
      </trkpt>
      <trkpt lat="34.00618" lon="77.21263">
        <ele>3246.4</ele>
        <time>2015-09-01T05:53:44Z</time>
      </trkpt>
      <trkpt lat="34.00622" lon="77.21267">
        <ele>3246.8</ele>
        <time>2015-09-01T05:53:49Z</time>
      </trkpt>
      <trkpt lat="34.00623" lon="77.21269">
        <ele>3246.8</ele>
        <time>2015-09-01T05:53:51Z</time>
      </trkpt>
      <trkpt lat="34.00624" lon="77.21271">
        <ele>3247.4</ele>
        <time>2015-09-01T05:53:54Z</time>
      </trkpt>
      <trkpt lat="34.00624" lon="77.21272">
        <ele>3247.6</ele>
        <time>2015-09-01T05:53:55Z</time>
      </trkpt>
      <trkpt lat="34.00627" lon="77.2128">
        <ele>3248.4</ele>
        <time>2015-09-01T05:54:05Z</time>
      </trkpt>
      <trkpt lat="34.00627" lon="77.21285">
        <ele>3249.4</ele>
        <time>2015-09-01T05:54:13Z</time>
      </trkpt>
      <trkpt lat="34.0063" lon="77.21295">
        <ele>3249.4</ele>
        <time>2015-09-01T05:54:24Z</time>
      </trkpt>
      <trkpt lat="34.00632" lon="77.21297">
        <ele>3249.6</ele>
        <time>2015-09-01T05:54:26Z</time>
      </trkpt>
      <trkpt lat="34.00632" lon="77.21298">
        <ele>3250</ele>
        <time>2015-09-01T05:54:28Z</time>
      </trkpt>
      <trkpt lat="34.00631" lon="77.21304">
        <ele>3250.4</ele>
        <time>2015-09-01T05:54:33Z</time>
      </trkpt>
      <trkpt lat="34.0063" lon="77.21305">
        <ele>3250.6</ele>
        <time>2015-09-01T05:54:34Z</time>
      </trkpt>
      <trkpt lat="34.00627" lon="77.21313">
        <ele>3251</ele>
        <time>2015-09-01T05:54:42Z</time>
      </trkpt>
      <trkpt lat="34.00623" lon="77.2132">
        <ele>3251.6</ele>
        <time>2015-09-01T05:54:50Z</time>
      </trkpt>
      <trkpt lat="34.0062" lon="77.21342">
        <ele>3252.6</ele>
        <time>2015-09-01T05:55:09Z</time>
      </trkpt>
      <trkpt lat="34.00619" lon="77.21346">
        <ele>3252.8</ele>
        <time>2015-09-01T05:55:13Z</time>
      </trkpt>
      <trkpt lat="34.00615" lon="77.21357">
        <ele>3253.6</ele>
        <time>2015-09-01T05:55:25Z</time>
      </trkpt>
      <trkpt lat="34.00614" lon="77.21359">
        <ele>3253.6</ele>
        <time>2015-09-01T05:55:27Z</time>
      </trkpt>
      <trkpt lat="34.00617" lon="77.21364">
        <ele>3253.6</ele>
        <time>2015-09-01T05:55:31Z</time>
      </trkpt>
      <trkpt lat="34.00617" lon="77.21366">
        <ele>3253.4</ele>
        <time>2015-09-01T05:55:34Z</time>
      </trkpt>
      <trkpt lat="34.00614" lon="77.21373">
        <ele>3254.6</ele>
        <time>2015-09-01T05:55:43Z</time>
      </trkpt>
      <trkpt lat="34.0061" lon="77.2138">
        <ele>3255.8</ele>
        <time>2015-09-01T05:55:53Z</time>
      </trkpt>
      <trkpt lat="34.00607" lon="77.21379">
        <ele>3256</ele>
        <time>2015-09-01T05:55:56Z</time>
      </trkpt>
      <trkpt lat="34.00609" lon="77.21375">
        <ele>3256.2</ele>
        <time>2015-09-01T05:56:02Z</time>
      </trkpt>
      <trkpt lat="34.00608" lon="77.21374">
        <ele>3257</ele>
        <time>2015-09-01T05:56:07Z</time>
      </trkpt>
      <trkpt lat="34.0061" lon="77.21371">
        <ele>3258</ele>
        <time>2015-09-01T05:56:17Z</time>
      </trkpt>
      <trkpt lat="34.00602" lon="77.21376">
        <ele>3259.2</ele>
        <time>2015-09-01T05:56:25Z</time>
      </trkpt>
      <trkpt lat="34.00601" lon="77.21377">
        <ele>3260.2</ele>
        <time>2015-09-01T05:56:32Z</time>
      </trkpt>
      <trkpt lat="34.00596" lon="77.21384">
        <ele>3261.2</ele>
        <time>2015-09-01T05:56:40Z</time>
      </trkpt>
      <trkpt lat="34.00595" lon="77.21385">
        <ele>3261.2</ele>
        <time>2015-09-01T05:56:41Z</time>
      </trkpt>
      <trkpt lat="34.00595" lon="77.21384">
        <ele>3262.4</ele>
        <time>2015-09-01T05:56:48Z</time>
      </trkpt>
      <trkpt lat="34.00594" lon="77.21385">
        <ele>3263.4</ele>
        <time>2015-09-01T05:56:56Z</time>
      </trkpt>
      <trkpt lat="34.00593" lon="77.21389">
        <ele>3264.4</ele>
        <time>2015-09-01T05:57:02Z</time>
      </trkpt>
      <trkpt lat="34.00592" lon="77.2139">
        <ele>3265.6</ele>
        <time>2015-09-01T05:57:09Z</time>
      </trkpt>
      <trkpt lat="34.00585" lon="77.21394">
        <ele>3266.8</ele>
        <time>2015-09-01T05:57:34Z</time>
      </trkpt>
      <trkpt lat="34.00583" lon="77.21393">
        <ele>3267.8</ele>
        <time>2015-09-01T05:57:40Z</time>
      </trkpt>
      <trkpt lat="34.0058" lon="77.21398">
        <ele>3269</ele>
        <time>2015-09-01T05:57:51Z</time>
      </trkpt>
      <trkpt lat="34.00576" lon="77.21398">
        <ele>3270</ele>
        <time>2015-09-01T05:58:00Z</time>
      </trkpt>
      <trkpt lat="34.00577" lon="77.21394">
        <ele>3271</ele>
        <time>2015-09-01T05:58:10Z</time>
      </trkpt>
      <trkpt lat="34.00578" lon="77.21398">
        <ele>3272</ele>
        <time>2015-09-01T05:58:20Z</time>
      </trkpt>
      <trkpt lat="34.00577" lon="77.21404">
        <ele>3273.2</ele>
        <time>2015-09-01T05:58:27Z</time>
      </trkpt>
      <trkpt lat="34.00575" lon="77.2141">
        <ele>3274.2</ele>
        <time>2015-09-01T05:58:36Z</time>
      </trkpt>
      <trkpt lat="34.00575" lon="77.21413">
        <ele>3275.2</ele>
        <time>2015-09-01T05:58:42Z</time>
      </trkpt>
      <trkpt lat="34.0056" lon="77.21417">
        <ele>3275.8</ele>
        <time>2015-09-01T05:59:08Z</time>
      </trkpt>
      <trkpt lat="34.00553" lon="77.21418">
        <ele>3276.2</ele>
        <time>2015-09-01T05:59:24Z</time>
      </trkpt>
      <trkpt lat="34.00553" lon="77.21419">
        <ele>3276.4</ele>
        <time>2015-09-01T05:59:30Z</time>
      </trkpt>
      <trkpt lat="34.00545" lon="77.21426">
        <ele>3277.4</ele>
        <time>2015-09-01T06:00:19Z</time>
      </trkpt>
      <trkpt lat="34.00543" lon="77.21425">
        <ele>3278.6</ele>
        <time>2015-09-01T06:00:26Z</time>
      </trkpt>
      <trkpt lat="34.0054" lon="77.21421">
        <ele>3279.6</ele>
        <time>2015-09-01T06:00:42Z</time>
      </trkpt>
      <trkpt lat="34.00533" lon="77.2143">
        <ele>3280.6</ele>
        <time>2015-09-01T06:01:04Z</time>
      </trkpt>
      <trkpt lat="34.00533" lon="77.21435">
        <ele>3281.8</ele>
        <time>2015-09-01T06:01:08Z</time>
      </trkpt>
      <trkpt lat="34.00533" lon="77.21436">
        <ele>3282.2</ele>
        <time>2015-09-01T06:01:10Z</time>
      </trkpt>
      <trkpt lat="34.00534" lon="77.21439">
        <ele>3282.8</ele>
        <time>2015-09-01T06:01:16Z</time>
      </trkpt>
      <trkpt lat="34.00534" lon="77.21438">
        <ele>3284</ele>
        <time>2015-09-01T06:01:25Z</time>
      </trkpt>
      <trkpt lat="34.00532" lon="77.2144">
        <ele>3285</ele>
        <time>2015-09-01T06:01:31Z</time>
      </trkpt>
      <trkpt lat="34.00532" lon="77.21441">
        <ele>3286</ele>
        <time>2015-09-01T06:01:39Z</time>
      </trkpt>
      <trkpt lat="34.00528" lon="77.21445">
        <ele>3287.2</ele>
        <time>2015-09-01T06:01:48Z</time>
      </trkpt>
      <trkpt lat="34.00526" lon="77.2145">
        <ele>3288.2</ele>
        <time>2015-09-01T06:01:58Z</time>
      </trkpt>
      <trkpt lat="34.00525" lon="77.21453">
        <ele>3289.2</ele>
        <time>2015-09-01T06:02:08Z</time>
      </trkpt>
      <trkpt lat="34.00525" lon="77.21452">
        <ele>3290.4</ele>
        <time>2015-09-01T06:02:23Z</time>
      </trkpt>
      <trkpt lat="34.00523" lon="77.21456">
        <ele>3291.4</ele>
        <time>2015-09-01T06:02:33Z</time>
      </trkpt>
      <trkpt lat="34.00514" lon="77.2146">
        <ele>3291.6</ele>
        <time>2015-09-01T06:02:40Z</time>
      </trkpt>
      <trkpt lat="34.0051" lon="77.21459">
        <ele>3291.8</ele>
        <time>2015-09-01T06:02:44Z</time>
      </trkpt>
      <trkpt lat="34.00511" lon="77.21464">
        <ele>3292.2</ele>
        <time>2015-09-01T06:03:19Z</time>
      </trkpt>
      <trkpt lat="34.00512" lon="77.21467">
        <ele>3292.2</ele>
        <time>2015-09-01T06:03:21Z</time>
      </trkpt>
      <trkpt lat="34.00509" lon="77.21472">
        <ele>3292.4</ele>
        <time>2015-09-01T06:03:27Z</time>
      </trkpt>
      <trkpt lat="34.00504" lon="77.21474">
        <ele>3293.4</ele>
        <time>2015-09-01T06:03:37Z</time>
      </trkpt>
      <trkpt lat="34.00495" lon="77.21484">
        <ele>3294.4</ele>
        <time>2015-09-01T06:03:49Z</time>
      </trkpt>
      <trkpt lat="34.00494" lon="77.21485">
        <ele>3294.4</ele>
        <time>2015-09-01T06:03:50Z</time>
      </trkpt>
      <trkpt lat="34.00484" lon="77.21494">
        <ele>3295.4</ele>
        <time>2015-09-01T06:04:02Z</time>
      </trkpt>
      <trkpt lat="34.00484" lon="77.21494">
        <ele>3295.6</ele>
        <time>2015-09-01T06:04:03Z</time>
      </trkpt>
      <trkpt lat="34.00481" lon="77.21496">
        <ele>3295.6</ele>
        <time>2015-09-01T06:04:06Z</time>
      </trkpt>
      <trkpt lat="34.00468" lon="77.21502">
        <ele>3296.2</ele>
        <time>2015-09-01T06:04:16Z</time>
      </trkpt>
      <trkpt lat="34.00463" lon="77.21502">
        <ele>3296.6</ele>
        <time>2015-09-01T06:04:21Z</time>
      </trkpt>
      <trkpt lat="34.00449" lon="77.21502">
        <ele>3297.6</ele>
        <time>2015-09-01T06:04:41Z</time>
      </trkpt>
      <trkpt lat="34.00433" lon="77.21502">
        <ele>3298.8</ele>
        <time>2015-09-01T06:04:57Z</time>
      </trkpt>
      <trkpt lat="34.00432" lon="77.21501">
        <ele>3299</ele>
        <time>2015-09-01T06:04:59Z</time>
      </trkpt>
      <trkpt lat="34.00424" lon="77.21502">
        <ele>3299.8</ele>
        <time>2015-09-01T06:05:08Z</time>
      </trkpt>
      <trkpt lat="34.00423" lon="77.21503">
        <ele>3299.8</ele>
        <time>2015-09-01T06:05:10Z</time>
      </trkpt>
      <trkpt lat="34.00413" lon="77.21518">
        <ele>3300.8</ele>
        <time>2015-09-01T06:05:28Z</time>
      </trkpt>
      <trkpt lat="34.00412" lon="77.21524">
        <ele>3301.2</ele>
        <time>2015-09-01T06:05:35Z</time>
      </trkpt>
      <trkpt lat="34.00411" lon="77.21527">
        <ele>3301.6</ele>
        <time>2015-09-01T06:05:38Z</time>
      </trkpt>
      <trkpt lat="34.0041" lon="77.21529">
        <ele>3301.8</ele>
        <time>2015-09-01T06:05:42Z</time>
      </trkpt>
      <trkpt lat="34.00412" lon="77.2154">
        <ele>3302.2</ele>
        <time>2015-09-01T06:05:53Z</time>
      </trkpt>
      <trkpt lat="34.00413" lon="77.2155">
        <ele>3302.8</ele>
        <time>2015-09-01T06:06:05Z</time>
      </trkpt>
      <trkpt lat="34.00412" lon="77.21567">
        <ele>3304</ele>
        <time>2015-09-01T06:06:22Z</time>
      </trkpt>
      <trkpt lat="34.00411" lon="77.21577">
        <ele>3305</ele>
        <time>2015-09-01T06:06:36Z</time>
      </trkpt>
      <trkpt lat="34.00413" lon="77.21589">
        <ele>3306</ele>
        <time>2015-09-01T06:06:50Z</time>
      </trkpt>
      <trkpt lat="34.00415" lon="77.21602">
        <ele>3307</ele>
        <time>2015-09-01T06:07:02Z</time>
      </trkpt>
      <trkpt lat="34.00415" lon="77.21613">
        <ele>3307.6</ele>
        <time>2015-09-01T06:07:13Z</time>
      </trkpt>
      <trkpt lat="34.00414" lon="77.21615">
        <ele>3307.8</ele>
        <time>2015-09-01T06:07:16Z</time>
      </trkpt>
      <trkpt lat="34.00413" lon="77.21618">
        <ele>3308</ele>
        <time>2015-09-01T06:07:20Z</time>
      </trkpt>
      <trkpt lat="34.00409" lon="77.21633">
        <ele>3309.2</ele>
        <time>2015-09-01T06:07:35Z</time>
      </trkpt>
      <trkpt lat="34.00409" lon="77.21637">
        <ele>3309.6</ele>
        <time>2015-09-01T06:07:38Z</time>
      </trkpt>
      <trkpt lat="34.00407" lon="77.21643">
        <ele>3310.4</ele>
        <time>2015-09-01T06:07:54Z</time>
      </trkpt>
      <trkpt lat="34.00404" lon="77.21645">
        <ele>3311.4</ele>
        <time>2015-09-01T06:08:02Z</time>
      </trkpt>
      <trkpt lat="34.00401" lon="77.2165">
        <ele>3312.6</ele>
        <time>2015-09-01T06:08:12Z</time>
      </trkpt>
      <trkpt lat="34.00395" lon="77.2165">
        <ele>3313.6</ele>
        <time>2015-09-01T06:08:23Z</time>
      </trkpt>
      <trkpt lat="34.00389" lon="77.21657">
        <ele>3314.6</ele>
        <time>2015-09-01T06:08:44Z</time>
      </trkpt>
      <trkpt lat="34.00383" lon="77.21665">
        <ele>3315.6</ele>
        <time>2015-09-01T06:09:00Z</time>
      </trkpt>
      <trkpt lat="34.00375" lon="77.21674">
        <ele>3316.8</ele>
        <time>2015-09-01T06:09:18Z</time>
      </trkpt>
      <trkpt lat="34.00371" lon="77.21673">
        <ele>3317.8</ele>
        <time>2015-09-01T06:09:31Z</time>
      </trkpt>
      <trkpt lat="34.00367" lon="77.21683">
        <ele>3318.8</ele>
        <time>2015-09-01T06:09:46Z</time>
      </trkpt>
      <trkpt lat="34.00368" lon="77.21686">
        <ele>3319.8</ele>
        <time>2015-09-01T06:09:55Z</time>
      </trkpt>
      <trkpt lat="34.00367" lon="77.2169">
        <ele>3320.8</ele>
        <time>2015-09-01T06:10:05Z</time>
      </trkpt>
      <trkpt lat="34.00364" lon="77.21697">
        <ele>3322</ele>
        <time>2015-09-01T06:10:17Z</time>
      </trkpt>
      <trkpt lat="34.00362" lon="77.217">
        <ele>3323</ele>
        <time>2015-09-01T06:10:28Z</time>
      </trkpt>
      <trkpt lat="34.0036" lon="77.21705">
        <ele>3324</ele>
        <time>2015-09-01T06:10:39Z</time>
      </trkpt>
      <trkpt lat="34.00358" lon="77.21705">
        <ele>3325.2</ele>
        <time>2015-09-01T06:10:49Z</time>
      </trkpt>
      <trkpt lat="34.00354" lon="77.21712">
        <ele>3326.2</ele>
        <time>2015-09-01T06:11:04Z</time>
      </trkpt>
      <trkpt lat="34.00352" lon="77.21715">
        <ele>3327.2</ele>
        <time>2015-09-01T06:11:12Z</time>
      </trkpt>
      <trkpt lat="34.0035" lon="77.21718">
        <ele>3328.4</ele>
        <time>2015-09-01T06:11:22Z</time>
      </trkpt>
      <trkpt lat="34.00345" lon="77.21723">
        <ele>3329.4</ele>
        <time>2015-09-01T06:11:35Z</time>
      </trkpt>
      <trkpt lat="34.00339" lon="77.21726">
        <ele>3330</ele>
        <time>2015-09-01T06:11:43Z</time>
      </trkpt>
      <trkpt lat="34.00337" lon="77.21727">
        <ele>3330.2</ele>
        <time>2015-09-01T06:11:46Z</time>
      </trkpt>
      <trkpt lat="34.00335" lon="77.21728">
        <ele>3330.4</ele>
        <time>2015-09-01T06:11:49Z</time>
      </trkpt>
      <trkpt lat="34.00332" lon="77.21737">
        <ele>3331.4</ele>
        <time>2015-09-01T06:12:04Z</time>
      </trkpt>
      <trkpt lat="34.00327" lon="77.21753">
        <ele>3332.2</ele>
        <time>2015-09-01T06:12:55Z</time>
      </trkpt>
      <trkpt lat="34.00327" lon="77.21755">
        <ele>3332.4</ele>
        <time>2015-09-01T06:12:58Z</time>
      </trkpt>
      <trkpt lat="34.00324" lon="77.21772">
        <ele>3333.6</ele>
        <time>2015-09-01T06:13:23Z</time>
      </trkpt>
      <trkpt lat="34.00324" lon="77.21775">
        <ele>3333.6</ele>
        <time>2015-09-01T06:13:25Z</time>
      </trkpt>
      <trkpt lat="34.00323" lon="77.21779">
        <ele>3333.6</ele>
        <time>2015-09-01T06:13:29Z</time>
      </trkpt>
      <trkpt lat="34.00323" lon="77.21781">
        <ele>3333.8</ele>
        <time>2015-09-01T06:13:31Z</time>
      </trkpt>
      <trkpt lat="34.00324" lon="77.21781">
        <ele>3334.6</ele>
        <time>2015-09-01T06:13:39Z</time>
      </trkpt>
      <trkpt lat="34.00323" lon="77.21783">
        <ele>3334.4</ele>
        <time>2015-09-01T06:14:25Z</time>
      </trkpt>
      <trkpt lat="34.00325" lon="77.21793">
        <ele>3334.4</ele>
        <time>2015-09-01T06:14:34Z</time>
      </trkpt>
      <trkpt lat="34.00326" lon="77.21796">
        <ele>3334.6</ele>
        <time>2015-09-01T06:14:36Z</time>
      </trkpt>
      <trkpt lat="34.00329" lon="77.21809">
        <ele>3335.6</ele>
        <time>2015-09-01T06:14:47Z</time>
      </trkpt>
      <trkpt lat="34.00328" lon="77.21828">
        <ele>3335.8</ele>
        <time>2015-09-01T06:14:58Z</time>
      </trkpt>
      <trkpt lat="34.00323" lon="77.21838">
        <ele>3336.6</ele>
        <time>2015-09-01T06:15:10Z</time>
      </trkpt>
      <trkpt lat="34.00321" lon="77.21842">
        <ele>3336.8</ele>
        <time>2015-09-01T06:15:15Z</time>
      </trkpt>
      <trkpt lat="34.00315" lon="77.21852">
        <ele>3337</ele>
        <time>2015-09-01T06:15:24Z</time>
      </trkpt>
      <trkpt lat="34.00311" lon="77.21873">
        <ele>3337.8</ele>
        <time>2015-09-01T06:15:42Z</time>
      </trkpt>
      <trkpt lat="34.00311" lon="77.21875">
        <ele>3337.8</ele>
        <time>2015-09-01T06:15:43Z</time>
      </trkpt>
      <trkpt lat="34.00307" lon="77.21882">
        <ele>3337.8</ele>
        <time>2015-09-01T06:15:50Z</time>
      </trkpt>
      <trkpt lat="34.00305" lon="77.21886">
        <ele>3338</ele>
        <time>2015-09-01T06:15:54Z</time>
      </trkpt>
      <trkpt lat="34.003" lon="77.21907">
        <ele>3338.4</ele>
        <time>2015-09-01T06:16:13Z</time>
      </trkpt>
      <trkpt lat="34.00299" lon="77.21909">
        <ele>3338.4</ele>
        <time>2015-09-01T06:16:15Z</time>
      </trkpt>
      <trkpt lat="34.00299" lon="77.21911">
        <ele>3338.4</ele>
        <time>2015-09-01T06:16:17Z</time>
      </trkpt>
      <trkpt lat="34.00297" lon="77.21915">
        <ele>3338.6</ele>
        <time>2015-09-01T06:16:22Z</time>
      </trkpt>
      <trkpt lat="34.00297" lon="77.21916">
        <ele>3338.8</ele>
        <time>2015-09-01T06:16:30Z</time>
      </trkpt>
      <trkpt lat="34.00295" lon="77.21935">
        <ele>3339.6</ele>
        <time>2015-09-01T06:16:44Z</time>
      </trkpt>
      <trkpt lat="34.00295" lon="77.21942">
        <ele>3339.2</ele>
        <time>2015-09-01T06:16:49Z</time>
      </trkpt>
      <trkpt lat="34.00294" lon="77.21962">
        <ele>3339.8</ele>
        <time>2015-09-01T06:17:05Z</time>
      </trkpt>
      <trkpt lat="34.00294" lon="77.2197">
        <ele>3340.2</ele>
        <time>2015-09-01T06:17:10Z</time>
      </trkpt>
      <trkpt lat="34.0029" lon="77.21981">
        <ele>3340.6</ele>
        <time>2015-09-01T06:17:20Z</time>
      </trkpt>
      <trkpt lat="34.0029" lon="77.21984">
        <ele>3340.6</ele>
        <time>2015-09-01T06:17:23Z</time>
      </trkpt>
      <trkpt lat="34.0029" lon="77.21986">
        <ele>3340.8</ele>
        <time>2015-09-01T06:17:25Z</time>
      </trkpt>
      <trkpt lat="34.0029" lon="77.21988">
        <ele>3341</ele>
        <time>2015-09-01T06:17:27Z</time>
      </trkpt>
      <trkpt lat="34.0029" lon="77.21991">
        <ele>3341</ele>
        <time>2015-09-01T06:17:30Z</time>
      </trkpt>
      <trkpt lat="34.00291" lon="77.21994">
        <ele>3341.6</ele>
        <time>2015-09-01T06:17:33Z</time>
      </trkpt>
      <trkpt lat="34.0029" lon="77.21999">
        <ele>3341.8</ele>
        <time>2015-09-01T06:17:36Z</time>
      </trkpt>
      <trkpt lat="34.00289" lon="77.22004">
        <ele>3342</ele>
        <time>2015-09-01T06:17:41Z</time>
      </trkpt>
      <trkpt lat="34.00288" lon="77.22014">
        <ele>3342.8</ele>
        <time>2015-09-01T06:18:03Z</time>
      </trkpt>
      <trkpt lat="34.00289" lon="77.22016">
        <ele>3343</ele>
        <time>2015-09-01T06:18:09Z</time>
      </trkpt>
      <trkpt lat="34.00288" lon="77.22016">
        <ele>3343.4</ele>
        <time>2015-09-01T06:18:12Z</time>
      </trkpt>
      <trkpt lat="34.00286" lon="77.22038">
        <ele>3343.4</ele>
        <time>2015-09-01T06:18:26Z</time>
      </trkpt>
      <trkpt lat="34.00285" lon="77.22048">
        <ele>3343.2</ele>
        <time>2015-09-01T06:18:33Z</time>
      </trkpt>
      <trkpt lat="34.00283" lon="77.22069">
        <ele>3344</ele>
        <time>2015-09-01T06:18:49Z</time>
      </trkpt>
      <trkpt lat="34.00279" lon="77.22084">
        <ele>3345.2</ele>
        <time>2015-09-01T06:19:04Z</time>
      </trkpt>
      <trkpt lat="34.00277" lon="77.2209">
        <ele>3346.4</ele>
        <time>2015-09-01T06:19:09Z</time>
      </trkpt>
      <trkpt lat="34.00268" lon="77.2211">
        <ele>3345.4</ele>
        <time>2015-09-01T06:19:24Z</time>
      </trkpt>
      <trkpt lat="34.00263" lon="77.22132">
        <ele>3345.6</ele>
        <time>2015-09-01T06:19:44Z</time>
      </trkpt>
      <trkpt lat="34.00261" lon="77.22151">
        <ele>3346.2</ele>
        <time>2015-09-01T06:19:56Z</time>
      </trkpt>
      <trkpt lat="34.00259" lon="77.22154">
        <ele>3346.2</ele>
        <time>2015-09-01T06:19:58Z</time>
      </trkpt>
      <trkpt lat="34.00253" lon="77.22174">
        <ele>3345.6</ele>
        <time>2015-09-01T06:20:21Z</time>
      </trkpt>
      <trkpt lat="34.00251" lon="77.22176">
        <ele>3345.6</ele>
        <time>2015-09-01T06:20:24Z</time>
      </trkpt>
      <trkpt lat="34.00249" lon="77.22178">
        <ele>3345.8</ele>
        <time>2015-09-01T06:20:26Z</time>
      </trkpt>
      <trkpt lat="34.00243" lon="77.22199">
        <ele>3345.4</ele>
        <time>2015-09-01T06:20:44Z</time>
      </trkpt>
      <trkpt lat="34.00241" lon="77.22206">
        <ele>3345.4</ele>
        <time>2015-09-01T06:20:49Z</time>
      </trkpt>
      <trkpt lat="34.00239" lon="77.2221">
        <ele>3345.2</ele>
        <time>2015-09-01T06:20:53Z</time>
      </trkpt>
      <trkpt lat="34.00236" lon="77.22215">
        <ele>3345.2</ele>
        <time>2015-09-01T06:20:58Z</time>
      </trkpt>
      <trkpt lat="34.00235" lon="77.22217">
        <ele>3345.2</ele>
        <time>2015-09-01T06:21:00Z</time>
      </trkpt>
      <trkpt lat="34.00234" lon="77.2222">
        <ele>3345.6</ele>
        <time>2015-09-01T06:21:03Z</time>
      </trkpt>
      <trkpt lat="34.0023" lon="77.22227">
        <ele>3346.2</ele>
        <time>2015-09-01T06:21:11Z</time>
      </trkpt>
      <trkpt lat="34.0023" lon="77.22231">
        <ele>3346.4</ele>
        <time>2015-09-01T06:21:14Z</time>
      </trkpt>
      <trkpt lat="34.00229" lon="77.22233">
        <ele>3346.4</ele>
        <time>2015-09-01T06:21:16Z</time>
      </trkpt>
      <trkpt lat="34.00229" lon="77.22235">
        <ele>3346.6</ele>
        <time>2015-09-01T06:21:18Z</time>
      </trkpt>
      <trkpt lat="34.00228" lon="77.22239">
        <ele>3346.8</ele>
        <time>2015-09-01T06:21:22Z</time>
      </trkpt>
      <trkpt lat="34.00227" lon="77.22243">
        <ele>3346.8</ele>
        <time>2015-09-01T06:21:25Z</time>
      </trkpt>
      <trkpt lat="34.00225" lon="77.22247">
        <ele>3347.2</ele>
        <time>2015-09-01T06:21:30Z</time>
      </trkpt>
      <trkpt lat="34.00218" lon="77.22253">
        <ele>3347.4</ele>
        <time>2015-09-01T06:21:38Z</time>
      </trkpt>
      <trkpt lat="34.00207" lon="77.22269">
        <ele>3347.4</ele>
        <time>2015-09-01T06:21:53Z</time>
      </trkpt>
      <trkpt lat="34.00197" lon="77.22282">
        <ele>3348.4</ele>
        <time>2015-09-01T06:22:10Z</time>
      </trkpt>
      <trkpt lat="34.00188" lon="77.22286">
        <ele>3349.4</ele>
        <time>2015-09-01T06:22:20Z</time>
      </trkpt>
      <trkpt lat="34.00179" lon="77.22308">
        <ele>3349.6</ele>
        <time>2015-09-01T06:22:32Z</time>
      </trkpt>
      <trkpt lat="34.00177" lon="77.22312">
        <ele>3349.6</ele>
        <time>2015-09-01T06:22:34Z</time>
      </trkpt>
      <trkpt lat="34.00166" lon="77.22324">
        <ele>3348.8</ele>
        <time>2015-09-01T06:22:47Z</time>
      </trkpt>
      <trkpt lat="34.00164" lon="77.22326">
        <ele>3348.4</ele>
        <time>2015-09-01T06:22:50Z</time>
      </trkpt>
      <trkpt lat="34.00161" lon="77.22331">
        <ele>3347.4</ele>
        <time>2015-09-01T06:22:57Z</time>
      </trkpt>
      <trkpt lat="34.00157" lon="77.22338">
        <ele>3346.2</ele>
        <time>2015-09-01T06:23:06Z</time>
      </trkpt>
      <trkpt lat="34.00156" lon="77.22343">
        <ele>3346</ele>
        <time>2015-09-01T06:23:10Z</time>
      </trkpt>
      <trkpt lat="34.00155" lon="77.22349">
        <ele>3345.2</ele>
        <time>2015-09-01T06:23:15Z</time>
      </trkpt>
      <trkpt lat="34.00152" lon="77.22358">
        <ele>3344.2</ele>
        <time>2015-09-01T06:23:21Z</time>
      </trkpt>
      <trkpt lat="34.00152" lon="77.22368">
        <ele>3343.2</ele>
        <time>2015-09-01T06:23:28Z</time>
      </trkpt>
      <trkpt lat="34.00152" lon="77.2237">
        <ele>3343.2</ele>
        <time>2015-09-01T06:23:29Z</time>
      </trkpt>
      <trkpt lat="34.00153" lon="77.22391">
        <ele>3342.2</ele>
        <time>2015-09-01T06:23:45Z</time>
      </trkpt>
      <trkpt lat="34.00157" lon="77.22412">
        <ele>3341.4</ele>
        <time>2015-09-01T06:23:59Z</time>
      </trkpt>
      <trkpt lat="34.00155" lon="77.2242">
        <ele>3341.2</ele>
        <time>2015-09-01T06:24:04Z</time>
      </trkpt>
      <trkpt lat="34.00148" lon="77.2244">
        <ele>3340.6</ele>
        <time>2015-09-01T06:24:20Z</time>
      </trkpt>
      <trkpt lat="34.00147" lon="77.22443">
        <ele>3340.4</ele>
        <time>2015-09-01T06:24:22Z</time>
      </trkpt>
      <trkpt lat="34.00148" lon="77.22445">
        <ele>3340</ele>
        <time>2015-09-01T06:24:24Z</time>
      </trkpt>
      <trkpt lat="34.00144" lon="77.22468">
        <ele>3339.8</ele>
        <time>2015-09-01T06:24:40Z</time>
      </trkpt>
      <trkpt lat="34.00142" lon="77.2249">
        <ele>3339.4</ele>
        <time>2015-09-01T06:24:58Z</time>
      </trkpt>
      <trkpt lat="34.00141" lon="77.225">
        <ele>3339.6</ele>
        <time>2015-09-01T06:25:05Z</time>
      </trkpt>
      <trkpt lat="34.00136" lon="77.22521">
        <ele>3339.2</ele>
        <time>2015-09-01T06:25:20Z</time>
      </trkpt>
      <trkpt lat="34.00135" lon="77.22522">
        <ele>3339.2</ele>
        <time>2015-09-01T06:25:21Z</time>
      </trkpt>
      <trkpt lat="34.00133" lon="77.22524">
        <ele>3339</ele>
        <time>2015-09-01T06:25:24Z</time>
      </trkpt>
      <trkpt lat="34.00127" lon="77.22528">
        <ele>3338</ele>
        <time>2015-09-01T06:25:30Z</time>
      </trkpt>
      <trkpt lat="34.00112" lon="77.22542">
        <ele>3337.6</ele>
        <time>2015-09-01T06:25:47Z</time>
      </trkpt>
      <trkpt lat="34.00106" lon="77.22548">
        <ele>3336.8</ele>
        <time>2015-09-01T06:25:54Z</time>
      </trkpt>
      <trkpt lat="34.00101" lon="77.22553">
        <ele>3336.6</ele>
        <time>2015-09-01T06:25:59Z</time>
      </trkpt>
      <trkpt lat="34.00088" lon="77.22568">
        <ele>3336.4</ele>
        <time>2015-09-01T06:26:13Z</time>
      </trkpt>
      <trkpt lat="34.00084" lon="77.22571">
        <ele>3335.8</ele>
        <time>2015-09-01T06:26:17Z</time>
      </trkpt>
      <trkpt lat="34.00082" lon="77.22573">
        <ele>3335.8</ele>
        <time>2015-09-01T06:26:20Z</time>
      </trkpt>
      <trkpt lat="34.0008" lon="77.22575">
        <ele>3335.6</ele>
        <time>2015-09-01T06:26:22Z</time>
      </trkpt>
      <trkpt lat="34.00069" lon="77.22589">
        <ele>3335</ele>
        <time>2015-09-01T06:26:36Z</time>
      </trkpt>
      <trkpt lat="34.00066" lon="77.22592">
        <ele>3334.8</ele>
        <time>2015-09-01T06:26:40Z</time>
      </trkpt>
      <trkpt lat="34.00054" lon="77.22601">
        <ele>3333.8</ele>
        <time>2015-09-01T06:26:52Z</time>
      </trkpt>
      <trkpt lat="34.00048" lon="77.22607">
        <ele>3333.2</ele>
        <time>2015-09-01T06:26:59Z</time>
      </trkpt>
      <trkpt lat="34.00041" lon="77.22618">
        <ele>3332.6</ele>
        <time>2015-09-01T06:27:09Z</time>
      </trkpt>
      <trkpt lat="34.0004" lon="77.22619">
        <ele>3332.6</ele>
        <time>2015-09-01T06:27:10Z</time>
      </trkpt>
      <trkpt lat="34.00037" lon="77.22623">
        <ele>3332.2</ele>
        <time>2015-09-01T06:27:15Z</time>
      </trkpt>
      <trkpt lat="34.00036" lon="77.22625">
        <ele>3332.2</ele>
        <time>2015-09-01T06:27:17Z</time>
      </trkpt>
      <trkpt lat="34.00034" lon="77.22634">
        <ele>3331.6</ele>
        <time>2015-09-01T06:27:24Z</time>
      </trkpt>
      <trkpt lat="34.00036" lon="77.22638">
        <ele>3331.4</ele>
        <time>2015-09-01T06:27:27Z</time>
      </trkpt>
      <trkpt lat="34.00034" lon="77.22649">
        <ele>3331</ele>
        <time>2015-09-01T06:27:36Z</time>
      </trkpt>
      <trkpt lat="34.00039" lon="77.22658">
        <ele>3330.4</ele>
        <time>2015-09-01T06:27:41Z</time>
      </trkpt>
      <trkpt lat="34.00045" lon="77.2267">
        <ele>3329.4</ele>
        <time>2015-09-01T06:27:49Z</time>
      </trkpt>
      <trkpt lat="34.00046" lon="77.22681">
        <ele>3328.4</ele>
        <time>2015-09-01T06:28:00Z</time>
      </trkpt>
      <trkpt lat="34.00042" lon="77.22694">
        <ele>3327.2</ele>
        <time>2015-09-01T06:28:10Z</time>
      </trkpt>
      <trkpt lat="34.0004" lon="77.227">
        <ele>3326.6</ele>
        <time>2015-09-01T06:28:15Z</time>
      </trkpt>
      <trkpt lat="34.00039" lon="77.22703">
        <ele>3326.2</ele>
        <time>2015-09-01T06:28:18Z</time>
      </trkpt>
      <trkpt lat="34.00033" lon="77.22711">
        <ele>3325.2</ele>
        <time>2015-09-01T06:28:26Z</time>
      </trkpt>
      <trkpt lat="34.00032" lon="77.22712">
        <ele>3325</ele>
        <time>2015-09-01T06:28:27Z</time>
      </trkpt>
      <trkpt lat="34.00022" lon="77.22718">
        <ele>3324</ele>
        <time>2015-09-01T06:28:39Z</time>
      </trkpt>
      <trkpt lat="34.00003" lon="77.2272">
        <ele>3323.2</ele>
        <time>2015-09-01T06:28:52Z</time>
      </trkpt>
      <trkpt lat="34.00002" lon="77.22722">
        <ele>3322.8</ele>
        <time>2015-09-01T06:28:54Z</time>
      </trkpt>
      <trkpt lat="33.99994" lon="77.22734">
        <ele>3321.8</ele>
        <time>2015-09-01T06:29:04Z</time>
      </trkpt>
      <trkpt lat="33.99977" lon="77.22734">
        <ele>3321.4</ele>
        <time>2015-09-01T06:29:17Z</time>
      </trkpt>
      <trkpt lat="33.99967" lon="77.22736">
        <ele>3321</ele>
        <time>2015-09-01T06:29:23Z</time>
      </trkpt>
      <trkpt lat="33.99967" lon="77.22738">
        <ele>3320.8</ele>
        <time>2015-09-01T06:29:24Z</time>
      </trkpt>
      <trkpt lat="33.99964" lon="77.22757">
        <ele>3320</ele>
        <time>2015-09-01T06:29:35Z</time>
      </trkpt>
      <trkpt lat="33.99963" lon="77.22762">
        <ele>3319.8</ele>
        <time>2015-09-01T06:29:39Z</time>
      </trkpt>
      <trkpt lat="33.99957" lon="77.22771">
        <ele>3318.8</ele>
        <time>2015-09-01T06:29:48Z</time>
      </trkpt>
      <trkpt lat="33.99957" lon="77.22771">
        <ele>3318.6</ele>
        <time>2015-09-01T06:29:49Z</time>
      </trkpt>
      <trkpt lat="33.99946" lon="77.22776">
        <ele>3317.6</ele>
        <time>2015-09-01T06:30:00Z</time>
      </trkpt>
      <trkpt lat="33.99928" lon="77.22786">
        <ele>3316.8</ele>
        <time>2015-09-01T06:30:13Z</time>
      </trkpt>
      <trkpt lat="33.99926" lon="77.2279">
        <ele>3316.6</ele>
        <time>2015-09-01T06:30:16Z</time>
      </trkpt>
      <trkpt lat="33.99917" lon="77.22796">
        <ele>3316.4</ele>
        <time>2015-09-01T06:30:25Z</time>
      </trkpt>
      <trkpt lat="33.99914" lon="77.22796">
        <ele>3316.2</ele>
        <time>2015-09-01T06:30:27Z</time>
      </trkpt>
      <trkpt lat="33.9991" lon="77.22798">
        <ele>3316.2</ele>
        <time>2015-09-01T06:30:32Z</time>
      </trkpt>
      <trkpt lat="33.99904" lon="77.22804">
        <ele>3315.6</ele>
        <time>2015-09-01T06:30:40Z</time>
      </trkpt>
      <trkpt lat="33.99895" lon="77.22815">
        <ele>3314.6</ele>
        <time>2015-09-01T06:30:51Z</time>
      </trkpt>
      <trkpt lat="33.99893" lon="77.22817">
        <ele>3314.2</ele>
        <time>2015-09-01T06:30:54Z</time>
      </trkpt>
      <trkpt lat="33.99882" lon="77.22828">
        <ele>3313.6</ele>
        <time>2015-09-01T06:31:05Z</time>
      </trkpt>
      <trkpt lat="33.99877" lon="77.22837">
        <ele>3312.6</ele>
        <time>2015-09-01T06:31:14Z</time>
      </trkpt>
      <trkpt lat="33.99864" lon="77.22852">
        <ele>3312</ele>
        <time>2015-09-01T06:31:27Z</time>
      </trkpt>
      <trkpt lat="33.99854" lon="77.22872">
        <ele>3311.6</ele>
        <time>2015-09-01T06:31:40Z</time>
      </trkpt>
      <trkpt lat="33.99851" lon="77.22878">
        <ele>3311.6</ele>
        <time>2015-09-01T06:31:45Z</time>
      </trkpt>
      <trkpt lat="33.99849" lon="77.22887">
        <ele>3311.4</ele>
        <time>2015-09-01T06:31:53Z</time>
      </trkpt>
      <trkpt lat="33.99839" lon="77.22908">
        <ele>3311.4</ele>
        <time>2015-09-01T06:32:11Z</time>
      </trkpt>
      <trkpt lat="33.99825" lon="77.22923">
        <ele>3310.8</ele>
        <time>2015-09-01T06:32:25Z</time>
      </trkpt>
      <trkpt lat="33.99821" lon="77.22928">
        <ele>3310.4</ele>
        <time>2015-09-01T06:32:31Z</time>
      </trkpt>
      <trkpt lat="33.99815" lon="77.22946">
        <ele>3310.4</ele>
        <time>2015-09-01T06:32:44Z</time>
      </trkpt>
      <trkpt lat="33.99809" lon="77.22962">
        <ele>3309.4</ele>
        <time>2015-09-01T06:32:56Z</time>
      </trkpt>
      <trkpt lat="33.99805" lon="77.22979">
        <ele>3308.4</ele>
        <time>2015-09-01T06:33:10Z</time>
      </trkpt>
      <trkpt lat="33.99801" lon="77.22987">
        <ele>3308.2</ele>
        <time>2015-09-01T06:33:17Z</time>
      </trkpt>
      <trkpt lat="33.99799" lon="77.2299">
        <ele>3307.8</ele>
        <time>2015-09-01T06:33:21Z</time>
      </trkpt>
      <trkpt lat="33.99797" lon="77.22993">
        <ele>3307.6</ele>
        <time>2015-09-01T06:33:23Z</time>
      </trkpt>
      <trkpt lat="33.99796" lon="77.22995">
        <ele>3307.6</ele>
        <time>2015-09-01T06:33:26Z</time>
      </trkpt>
      <trkpt lat="33.99798" lon="77.23">
        <ele>3307.8</ele>
        <time>2015-09-01T06:33:33Z</time>
      </trkpt>
      <trkpt lat="33.99799" lon="77.23001">
        <ele>3307.6</ele>
        <time>2015-09-01T06:33:35Z</time>
      </trkpt>
      <trkpt lat="33.99801" lon="77.23002">
        <ele>3307.4</ele>
        <time>2015-09-01T06:33:37Z</time>
      </trkpt>
      <trkpt lat="33.99796" lon="77.23001">
        <ele>3307.4</ele>
        <time>2015-09-01T06:33:45Z</time>
      </trkpt>
      <trkpt lat="33.99793" lon="77.23">
        <ele>3307.6</ele>
        <time>2015-09-01T06:33:47Z</time>
      </trkpt>
      <trkpt lat="33.99787" lon="77.23008">
        <ele>3307.6</ele>
        <time>2015-09-01T06:33:57Z</time>
      </trkpt>
      <trkpt lat="33.99777" lon="77.23027">
        <ele>3308</ele>
        <time>2015-09-01T06:34:13Z</time>
      </trkpt>
      <trkpt lat="33.99767" lon="77.23047">
        <ele>3308.4</ele>
        <time>2015-09-01T06:34:29Z</time>
      </trkpt>
      <trkpt lat="33.99763" lon="77.23055">
        <ele>3308.4</ele>
        <time>2015-09-01T06:34:36Z</time>
      </trkpt>
      <trkpt lat="33.99762" lon="77.23056">
        <ele>3308.4</ele>
        <time>2015-09-01T06:34:37Z</time>
      </trkpt>
      <trkpt lat="33.99755" lon="77.23076">
        <ele>3308.4</ele>
        <time>2015-09-01T06:34:54Z</time>
      </trkpt>
      <trkpt lat="33.9975" lon="77.23097">
        <ele>3308.8</ele>
        <time>2015-09-01T06:35:09Z</time>
      </trkpt>
      <trkpt lat="33.99751" lon="77.23112">
        <ele>3308.8</ele>
        <time>2015-09-01T06:35:19Z</time>
      </trkpt>
      <trkpt lat="33.99745" lon="77.23133">
        <ele>3308.4</ele>
        <time>2015-09-01T06:35:35Z</time>
      </trkpt>
      <trkpt lat="33.99739" lon="77.23154">
        <ele>3308.4</ele>
        <time>2015-09-01T06:35:50Z</time>
      </trkpt>
      <trkpt lat="33.99733" lon="77.23174">
        <ele>3308.8</ele>
        <time>2015-09-01T06:36:07Z</time>
      </trkpt>
      <trkpt lat="33.9973" lon="77.23196">
        <ele>3308.2</ele>
        <time>2015-09-01T06:36:22Z</time>
      </trkpt>
      <trkpt lat="33.99729" lon="77.23203">
        <ele>3308.2</ele>
        <time>2015-09-01T06:36:27Z</time>
      </trkpt>
      <trkpt lat="33.9972" lon="77.23223">
        <ele>3308.6</ele>
        <time>2015-09-01T06:36:41Z</time>
      </trkpt>
      <trkpt lat="33.99714" lon="77.23232">
        <ele>3308.8</ele>
        <time>2015-09-01T06:36:49Z</time>
      </trkpt>
      <trkpt lat="33.99714" lon="77.23251">
        <ele>3309.6</ele>
        <time>2015-09-01T06:37:03Z</time>
      </trkpt>
      <trkpt lat="33.99712" lon="77.23262">
        <ele>3309.8</ele>
        <time>2015-09-01T06:37:12Z</time>
      </trkpt>
      <trkpt lat="33.99711" lon="77.23276">
        <ele>3310.2</ele>
        <time>2015-09-01T06:37:22Z</time>
      </trkpt>
      <trkpt lat="33.99709" lon="77.23295">
        <ele>3310</ele>
        <time>2015-09-01T06:37:35Z</time>
      </trkpt>
      <trkpt lat="33.99706" lon="77.2331">
        <ele>3309.8</ele>
        <time>2015-09-01T06:37:45Z</time>
      </trkpt>
      <trkpt lat="33.99689" lon="77.23319">
        <ele>3310</ele>
        <time>2015-09-01T06:37:57Z</time>
      </trkpt>
      <trkpt lat="33.99687" lon="77.23319">
        <ele>3309.8</ele>
        <time>2015-09-01T06:37:59Z</time>
      </trkpt>
      <trkpt lat="33.99681" lon="77.23322">
        <ele>3310</ele>
        <time>2015-09-01T06:38:08Z</time>
      </trkpt>
      <trkpt lat="33.99677" lon="77.23322">
        <ele>3310</ele>
        <time>2015-09-01T06:38:10Z</time>
      </trkpt>
      <trkpt lat="33.99673" lon="77.2333">
        <ele>3309.8</ele>
        <time>2015-09-01T06:38:16Z</time>
      </trkpt>
      <trkpt lat="33.99665" lon="77.23348">
        <ele>3309.8</ele>
        <time>2015-09-01T06:38:32Z</time>
      </trkpt>
      <trkpt lat="33.99662" lon="77.23353">
        <ele>3309.8</ele>
        <time>2015-09-01T06:38:36Z</time>
      </trkpt>
      <trkpt lat="33.99646" lon="77.23365">
        <ele>3309.6</ele>
        <time>2015-09-01T06:38:49Z</time>
      </trkpt>
      <trkpt lat="33.99626" lon="77.23366">
        <ele>3309.4</ele>
        <time>2015-09-01T06:38:59Z</time>
      </trkpt>
      <trkpt lat="33.99631" lon="77.23372">
        <ele>3309.4</ele>
        <time>2015-09-01T06:39:08Z</time>
      </trkpt>
      <trkpt lat="33.99628" lon="77.23373">
        <ele>3309.6</ele>
        <time>2015-09-01T06:39:11Z</time>
      </trkpt>
      <trkpt lat="33.99625" lon="77.23377">
        <ele>3309.6</ele>
        <time>2015-09-01T06:39:15Z</time>
      </trkpt>
      <trkpt lat="33.99623" lon="77.23378">
        <ele>3309.6</ele>
        <time>2015-09-01T06:39:18Z</time>
      </trkpt>
      <trkpt lat="33.99619" lon="77.23381">
        <ele>3309.6</ele>
        <time>2015-09-01T06:39:22Z</time>
      </trkpt>
      <trkpt lat="33.99609" lon="77.23387">
        <ele>3309.4</ele>
        <time>2015-09-01T06:39:30Z</time>
      </trkpt>
      <trkpt lat="33.99594" lon="77.23402">
        <ele>3309</ele>
        <time>2015-09-01T06:39:45Z</time>
      </trkpt>
      <trkpt lat="33.99583" lon="77.23416">
        <ele>3309.4</ele>
        <time>2015-09-01T06:40:00Z</time>
      </trkpt>
      <trkpt lat="33.99564" lon="77.23416">
        <ele>3309.6</ele>
        <time>2015-09-01T06:40:14Z</time>
      </trkpt>
      <trkpt lat="33.99545" lon="77.23413">
        <ele>3310.4</ele>
        <time>2015-09-01T06:40:30Z</time>
      </trkpt>
      <trkpt lat="33.99544" lon="77.23411">
        <ele>3310.6</ele>
        <time>2015-09-01T06:40:32Z</time>
      </trkpt>
      <trkpt lat="33.99526" lon="77.23411">
        <ele>3311.2</ele>
        <time>2015-09-01T06:40:45Z</time>
      </trkpt>
      <trkpt lat="33.99518" lon="77.23425">
        <ele>3311.6</ele>
        <time>2015-09-01T06:40:57Z</time>
      </trkpt>
      <trkpt lat="33.99513" lon="77.23444">
        <ele>3312</ele>
        <time>2015-09-01T06:41:10Z</time>
      </trkpt>
      <trkpt lat="33.99511" lon="77.23446">
        <ele>3312.2</ele>
        <time>2015-09-01T06:41:12Z</time>
      </trkpt>
      <trkpt lat="33.99509" lon="77.23448">
        <ele>3312.2</ele>
        <time>2015-09-01T06:41:15Z</time>
      </trkpt>
      <trkpt lat="33.99507" lon="77.23452">
        <ele>3312.4</ele>
        <time>2015-09-01T06:41:21Z</time>
      </trkpt>
      <trkpt lat="33.99506" lon="77.23453">
        <ele>3312.6</ele>
        <time>2015-09-01T06:41:22Z</time>
      </trkpt>
      <trkpt lat="33.99505" lon="77.23454">
        <ele>3312.8</ele>
        <time>2015-09-01T06:41:23Z</time>
      </trkpt>
      <trkpt lat="33.99504" lon="77.23456">
        <ele>3313.2</ele>
        <time>2015-09-01T06:41:26Z</time>
      </trkpt>
      <trkpt lat="33.99504" lon="77.23457">
        <ele>3313.4</ele>
        <time>2015-09-01T06:41:28Z</time>
      </trkpt>
      <trkpt lat="33.99504" lon="77.23458">
        <ele>3313.2</ele>
        <time>2015-09-01T06:41:43Z</time>
      </trkpt>
      <trkpt lat="33.99504" lon="77.2346">
        <ele>3313</ele>
        <time>2015-09-01T06:41:45Z</time>
      </trkpt>
      <trkpt lat="33.99503" lon="77.23464">
        <ele>3312.8</ele>
        <time>2015-09-01T06:41:47Z</time>
      </trkpt>
      <trkpt lat="33.99496" lon="77.2348">
        <ele>3312.4</ele>
        <time>2015-09-01T06:42:01Z</time>
      </trkpt>
      <trkpt lat="33.99495" lon="77.23485">
        <ele>3312.4</ele>
        <time>2015-09-01T06:42:07Z</time>
      </trkpt>
      <trkpt lat="33.99492" lon="77.23496">
        <ele>3313.4</ele>
        <time>2015-09-01T06:43:14Z</time>
      </trkpt>
      <trkpt lat="33.99488" lon="77.23493">
        <ele>3313.2</ele>
        <time>2015-09-01T06:43:23Z</time>
      </trkpt>
      <trkpt lat="33.99485" lon="77.2349">
        <ele>3312.4</ele>
        <time>2015-09-01T06:43:51Z</time>
      </trkpt>
      <trkpt lat="33.99478" lon="77.235">
        <ele>3312.2</ele>
        <time>2015-09-01T06:44:01Z</time>
      </trkpt>
      <trkpt lat="33.99477" lon="77.23501">
        <ele>3312</ele>
        <time>2015-09-01T06:44:05Z</time>
      </trkpt>
      <trkpt lat="33.99477" lon="77.23504">
        <ele>3312</ele>
        <time>2015-09-01T06:44:07Z</time>
      </trkpt>
      <trkpt lat="33.99475" lon="77.23524">
        <ele>3311.6</ele>
        <time>2015-09-01T06:44:21Z</time>
      </trkpt>
      <trkpt lat="33.99475" lon="77.23525">
        <ele>3311.6</ele>
        <time>2015-09-01T06:44:22Z</time>
      </trkpt>
      <trkpt lat="33.99472" lon="77.23535">
        <ele>3311.4</ele>
        <time>2015-09-01T06:44:30Z</time>
      </trkpt>
      <trkpt lat="33.99473" lon="77.23536">
        <ele>3311.2</ele>
        <time>2015-09-01T06:44:33Z</time>
      </trkpt>
      <trkpt lat="33.99472" lon="77.23541">
        <ele>3311.2</ele>
        <time>2015-09-01T06:44:39Z</time>
      </trkpt>
      <trkpt lat="33.99472" lon="77.23546">
        <ele>3311.2</ele>
        <time>2015-09-01T06:44:42Z</time>
      </trkpt>
      <trkpt lat="33.99474" lon="77.23556">
        <ele>3311.4</ele>
        <time>2015-09-01T06:44:49Z</time>
      </trkpt>
      <trkpt lat="33.99472" lon="77.23576">
        <ele>3310.8</ele>
        <time>2015-09-01T06:45:07Z</time>
      </trkpt>
      <trkpt lat="33.99473" lon="77.23582">
        <ele>3310.4</ele>
        <time>2015-09-01T06:45:12Z</time>
      </trkpt>
      <trkpt lat="33.99477" lon="77.23587">
        <ele>3310.4</ele>
        <time>2015-09-01T06:45:16Z</time>
      </trkpt>
      <trkpt lat="33.99477" lon="77.23593">
        <ele>3309.4</ele>
        <time>2015-09-01T06:45:24Z</time>
      </trkpt>
      <trkpt lat="33.99477" lon="77.23594">
        <ele>3309.4</ele>
        <time>2015-09-01T06:45:25Z</time>
      </trkpt>
      <trkpt lat="33.99476" lon="77.23596">
        <ele>3309.2</ele>
        <time>2015-09-01T06:45:27Z</time>
      </trkpt>
      <trkpt lat="33.99474" lon="77.23604">
        <ele>3309.2</ele>
        <time>2015-09-01T06:45:34Z</time>
      </trkpt>
      <trkpt lat="33.99472" lon="77.23604">
        <ele>3309.2</ele>
        <time>2015-09-01T06:45:36Z</time>
      </trkpt>
      <trkpt lat="33.99471" lon="77.23605">
        <ele>3309.8</ele>
        <time>2015-09-01T06:46:35Z</time>
      </trkpt>
      <trkpt lat="33.99474" lon="77.23608">
        <ele>3309.6</ele>
        <time>2015-09-01T06:46:38Z</time>
      </trkpt>
      <trkpt lat="33.99474" lon="77.23612">
        <ele>3309.2</ele>
        <time>2015-09-01T06:46:41Z</time>
      </trkpt>
      <trkpt lat="33.99474" lon="77.23629">
        <ele>3308.4</ele>
        <time>2015-09-01T06:46:52Z</time>
      </trkpt>
      <trkpt lat="33.99474" lon="77.23637">
        <ele>3308</ele>
        <time>2015-09-01T06:46:58Z</time>
      </trkpt>
      <trkpt lat="33.99472" lon="77.23659">
        <ele>3307.8</ele>
        <time>2015-09-01T06:47:14Z</time>
      </trkpt>
      <trkpt lat="33.99472" lon="77.23662">
        <ele>3307.2</ele>
        <time>2015-09-01T06:47:16Z</time>
      </trkpt>
      <trkpt lat="33.9947" lon="77.23684">
        <ele>3306.6</ele>
        <time>2015-09-01T06:47:32Z</time>
      </trkpt>
      <trkpt lat="33.9947" lon="77.23707">
        <ele>3306.4</ele>
        <time>2015-09-01T06:47:47Z</time>
      </trkpt>
      <trkpt lat="33.99469" lon="77.2373">
        <ele>3307</ele>
        <time>2015-09-01T06:48:03Z</time>
      </trkpt>
      <trkpt lat="33.99472" lon="77.23748">
        <ele>3307.2</ele>
        <time>2015-09-01T06:48:13Z</time>
      </trkpt>
      <trkpt lat="33.99469" lon="77.23758">
        <ele>3307.6</ele>
        <time>2015-09-01T06:48:20Z</time>
      </trkpt>
      <trkpt lat="33.99467" lon="77.23763">
        <ele>3307.6</ele>
        <time>2015-09-01T06:48:23Z</time>
      </trkpt>
      <trkpt lat="33.99467" lon="77.23768">
        <ele>3307.6</ele>
        <time>2015-09-01T06:48:26Z</time>
      </trkpt>
      <trkpt lat="33.99463" lon="77.23775">
        <ele>3307.6</ele>
        <time>2015-09-01T06:48:33Z</time>
      </trkpt>
      <trkpt lat="33.99463" lon="77.23779">
        <ele>3307.6</ele>
        <time>2015-09-01T06:48:36Z</time>
      </trkpt>
      <trkpt lat="33.99459" lon="77.23791">
        <ele>3307.8</ele>
        <time>2015-09-01T06:48:46Z</time>
      </trkpt>
      <trkpt lat="33.99459" lon="77.23795">
        <ele>3307.6</ele>
        <time>2015-09-01T06:48:49Z</time>
      </trkpt>
      <trkpt lat="33.99457" lon="77.23798">
        <ele>3307.6</ele>
        <time>2015-09-01T06:48:52Z</time>
      </trkpt>
      <trkpt lat="33.99449" lon="77.23808">
        <ele>3308</ele>
        <time>2015-09-01T06:49:05Z</time>
      </trkpt>
      <trkpt lat="33.99451" lon="77.23819">
        <ele>3308.4</ele>
        <time>2015-09-01T06:49:10Z</time>
      </trkpt>
      <trkpt lat="33.99451" lon="77.23825">
        <ele>3308.6</ele>
        <time>2015-09-01T06:49:14Z</time>
      </trkpt>
      <trkpt lat="33.99444" lon="77.23841">
        <ele>3309.4</ele>
        <time>2015-09-01T06:49:25Z</time>
      </trkpt>
      <trkpt lat="33.99443" lon="77.23842">
        <ele>3309.4</ele>
        <time>2015-09-01T06:49:26Z</time>
      </trkpt>
      <trkpt lat="33.99441" lon="77.23845">
        <ele>3309.4</ele>
        <time>2015-09-01T06:49:28Z</time>
      </trkpt>
      <trkpt lat="33.9944" lon="77.23849">
        <ele>3309.2</ele>
        <time>2015-09-01T06:49:32Z</time>
      </trkpt>
      <trkpt lat="33.99437" lon="77.23852">
        <ele>3309.2</ele>
        <time>2015-09-01T06:49:34Z</time>
      </trkpt>
      <trkpt lat="33.99434" lon="77.2386">
        <ele>3309.8</ele>
        <time>2015-09-01T06:49:41Z</time>
      </trkpt>
      <trkpt lat="33.99432" lon="77.23861">
        <ele>3309.8</ele>
        <time>2015-09-01T06:49:44Z</time>
      </trkpt>
      <trkpt lat="33.9943" lon="77.23868">
        <ele>3309.8</ele>
        <time>2015-09-01T06:49:53Z</time>
      </trkpt>
      <trkpt lat="33.99428" lon="77.23872">
        <ele>3309.8</ele>
        <time>2015-09-01T06:49:56Z</time>
      </trkpt>
      <trkpt lat="33.99426" lon="77.23874">
        <ele>3309.8</ele>
        <time>2015-09-01T06:49:58Z</time>
      </trkpt>
      <trkpt lat="33.9942" lon="77.23884">
        <ele>3310</ele>
        <time>2015-09-01T06:50:04Z</time>
      </trkpt>
      <trkpt lat="33.99413" lon="77.23899">
        <ele>3310</ele>
        <time>2015-09-01T06:50:23Z</time>
      </trkpt>
      <trkpt lat="33.99411" lon="77.23899">
        <ele>3310</ele>
        <time>2015-09-01T06:50:25Z</time>
      </trkpt>
      <trkpt lat="33.99408" lon="77.239">
        <ele>3310</ele>
        <time>2015-09-01T06:50:27Z</time>
      </trkpt>
      <trkpt lat="33.99407" lon="77.23907">
        <ele>3310</ele>
        <time>2015-09-01T06:50:32Z</time>
      </trkpt>
      <trkpt lat="33.99406" lon="77.23911">
        <ele>3310.2</ele>
        <time>2015-09-01T06:50:35Z</time>
      </trkpt>
      <trkpt lat="33.99406" lon="77.23914">
        <ele>3310.4</ele>
        <time>2015-09-01T06:50:37Z</time>
      </trkpt>
      <trkpt lat="33.99403" lon="77.23923">
        <ele>3310.6</ele>
        <time>2015-09-01T06:50:45Z</time>
      </trkpt>
      <trkpt lat="33.99402" lon="77.23925">
        <ele>3310.6</ele>
        <time>2015-09-01T06:50:47Z</time>
      </trkpt>
      <trkpt lat="33.99401" lon="77.23928">
        <ele>3310.6</ele>
        <time>2015-09-01T06:50:49Z</time>
      </trkpt>
      <trkpt lat="33.99401" lon="77.2393">
        <ele>3310.6</ele>
        <time>2015-09-01T06:50:51Z</time>
      </trkpt>
      <trkpt lat="33.99398" lon="77.23937">
        <ele>3310.4</ele>
        <time>2015-09-01T06:50:58Z</time>
      </trkpt>
      <trkpt lat="33.99397" lon="77.23941">
        <ele>3310.4</ele>
        <time>2015-09-01T06:51:01Z</time>
      </trkpt>
      <trkpt lat="33.99396" lon="77.23948">
        <ele>3310.4</ele>
        <time>2015-09-01T06:51:06Z</time>
      </trkpt>
      <trkpt lat="33.99392" lon="77.23953">
        <ele>3310.4</ele>
        <time>2015-09-01T06:51:11Z</time>
      </trkpt>
      <trkpt lat="33.99388" lon="77.23957">
        <ele>3310.4</ele>
        <time>2015-09-01T06:51:15Z</time>
      </trkpt>
      <trkpt lat="33.9938" lon="77.23966">
        <ele>3310.6</ele>
        <time>2015-09-01T06:51:23Z</time>
      </trkpt>
      <trkpt lat="33.99369" lon="77.23985">
        <ele>3311</ele>
        <time>2015-09-01T06:51:39Z</time>
      </trkpt>
      <trkpt lat="33.99354" lon="77.23999">
        <ele>3311.2</ele>
        <time>2015-09-01T06:51:56Z</time>
      </trkpt>
      <trkpt lat="33.99353" lon="77.24001">
        <ele>3311.2</ele>
        <time>2015-09-01T06:51:58Z</time>
      </trkpt>
      <trkpt lat="33.9935" lon="77.24017">
        <ele>3311.4</ele>
        <time>2015-09-01T06:52:10Z</time>
      </trkpt>
      <trkpt lat="33.99348" lon="77.24021">
        <ele>3311.2</ele>
        <time>2015-09-01T06:52:13Z</time>
      </trkpt>
      <trkpt lat="33.99341" lon="77.24033">
        <ele>3311.4</ele>
        <time>2015-09-01T06:52:23Z</time>
      </trkpt>
      <trkpt lat="33.9934" lon="77.24036">
        <ele>3311.2</ele>
        <time>2015-09-01T06:52:26Z</time>
      </trkpt>
      <trkpt lat="33.99334" lon="77.24044">
        <ele>3311</ele>
        <time>2015-09-01T06:52:32Z</time>
      </trkpt>
      <trkpt lat="33.99333" lon="77.24047">
        <ele>3311</ele>
        <time>2015-09-01T06:52:35Z</time>
      </trkpt>
      <trkpt lat="33.9933" lon="77.24054">
        <ele>3311.2</ele>
        <time>2015-09-01T06:52:42Z</time>
      </trkpt>
      <trkpt lat="33.99322" lon="77.24059">
        <ele>3311.4</ele>
        <time>2015-09-01T06:52:48Z</time>
      </trkpt>
      <trkpt lat="33.99315" lon="77.24065">
        <ele>3311.2</ele>
        <time>2015-09-01T06:52:54Z</time>
      </trkpt>
      <trkpt lat="33.99316" lon="77.24067">
        <ele>3311</ele>
        <time>2015-09-01T06:52:56Z</time>
      </trkpt>
      <trkpt lat="33.99306" lon="77.2408">
        <ele>3310.8</ele>
        <time>2015-09-01T06:53:07Z</time>
      </trkpt>
      <trkpt lat="33.99305" lon="77.24086">
        <ele>3310.8</ele>
        <time>2015-09-01T06:53:14Z</time>
      </trkpt>
      <trkpt lat="33.99292" lon="77.24099">
        <ele>3310.8</ele>
        <time>2015-09-01T06:53:29Z</time>
      </trkpt>
      <trkpt lat="33.99289" lon="77.24108">
        <ele>3311</ele>
        <time>2015-09-01T06:53:38Z</time>
      </trkpt>
      <trkpt lat="33.99278" lon="77.24126">
        <ele>3310.8</ele>
        <time>2015-09-01T06:53:54Z</time>
      </trkpt>
      <trkpt lat="33.99267" lon="77.24145">
        <ele>3310.4</ele>
        <time>2015-09-01T06:54:09Z</time>
      </trkpt>
      <trkpt lat="33.99261" lon="77.2415">
        <ele>3310.2</ele>
        <time>2015-09-01T06:54:14Z</time>
      </trkpt>
      <trkpt lat="33.99256" lon="77.24152">
        <ele>3310.2</ele>
        <time>2015-09-01T06:54:17Z</time>
      </trkpt>
      <trkpt lat="33.99244" lon="77.24166">
        <ele>3310.4</ele>
        <time>2015-09-01T06:54:31Z</time>
      </trkpt>
      <trkpt lat="33.99243" lon="77.24171">
        <ele>3310.6</ele>
        <time>2015-09-01T06:54:36Z</time>
      </trkpt>
      <trkpt lat="33.9924" lon="77.24174">
        <ele>3310.4</ele>
        <time>2015-09-01T06:54:40Z</time>
      </trkpt>
      <trkpt lat="33.99235" lon="77.24181">
        <ele>3310.4</ele>
        <time>2015-09-01T06:54:47Z</time>
      </trkpt>
      <trkpt lat="33.99225" lon="77.24196">
        <ele>3310.2</ele>
        <time>2015-09-01T06:55:03Z</time>
      </trkpt>
      <trkpt lat="33.99223" lon="77.24197">
        <ele>3310.2</ele>
        <time>2015-09-01T06:55:05Z</time>
      </trkpt>
      <trkpt lat="33.99222" lon="77.24202">
        <ele>3310.6</ele>
        <time>2015-09-01T06:55:14Z</time>
      </trkpt>
      <trkpt lat="33.99217" lon="77.24204">
        <ele>3310.8</ele>
        <time>2015-09-01T06:55:17Z</time>
      </trkpt>
      <trkpt lat="33.99206" lon="77.24217">
        <ele>3311.4</ele>
        <time>2015-09-01T06:55:37Z</time>
      </trkpt>
      <trkpt lat="33.99202" lon="77.24223">
        <ele>3312.2</ele>
        <time>2015-09-01T06:55:47Z</time>
      </trkpt>
      <trkpt lat="33.99203" lon="77.24225">
        <ele>3312.4</ele>
        <time>2015-09-01T06:55:49Z</time>
      </trkpt>
      <trkpt lat="33.99203" lon="77.24226">
        <ele>3312.4</ele>
        <time>2015-09-01T06:55:50Z</time>
      </trkpt>
      <trkpt lat="33.99199" lon="77.24229">
        <ele>3312.6</ele>
        <time>2015-09-01T06:55:53Z</time>
      </trkpt>
      <trkpt lat="33.99196" lon="77.24232">
        <ele>3312.8</ele>
        <time>2015-09-01T06:55:57Z</time>
      </trkpt>
      <trkpt lat="33.9918" lon="77.24243">
        <ele>3313.2</ele>
        <time>2015-09-01T06:56:07Z</time>
      </trkpt>
      <trkpt lat="33.99178" lon="77.24246">
        <ele>3313.2</ele>
        <time>2015-09-01T06:56:09Z</time>
      </trkpt>
      <trkpt lat="33.99179" lon="77.24251">
        <ele>3313.6</ele>
        <time>2015-09-01T06:56:13Z</time>
      </trkpt>
      <trkpt lat="33.99178" lon="77.24259">
        <ele>3314</ele>
        <time>2015-09-01T06:56:19Z</time>
      </trkpt>
      <trkpt lat="33.99175" lon="77.24262">
        <ele>3314.2</ele>
        <time>2015-09-01T06:56:23Z</time>
      </trkpt>
      <trkpt lat="33.99169" lon="77.24267">
        <ele>3314.6</ele>
        <time>2015-09-01T06:56:30Z</time>
      </trkpt>
      <trkpt lat="33.99167" lon="77.24268">
        <ele>3314.8</ele>
        <time>2015-09-01T06:56:33Z</time>
      </trkpt>
      <trkpt lat="33.99167" lon="77.24271">
        <ele>3314.8</ele>
        <time>2015-09-01T06:56:36Z</time>
      </trkpt>
      <trkpt lat="33.99164" lon="77.24284">
        <ele>3315</ele>
        <time>2015-09-01T06:56:40Z</time>
      </trkpt>
      <trkpt lat="33.99149" lon="77.24297">
        <ele>3315.4</ele>
        <time>2015-09-01T06:56:50Z</time>
      </trkpt>
      <trkpt lat="33.99147" lon="77.24301">
        <ele>3315.6</ele>
        <time>2015-09-01T06:56:53Z</time>
      </trkpt>
      <trkpt lat="33.99142" lon="77.2431">
        <ele>3315.8</ele>
        <time>2015-09-01T06:57:00Z</time>
      </trkpt>
      <trkpt lat="33.99139" lon="77.24313">
        <ele>3316</ele>
        <time>2015-09-01T06:57:05Z</time>
      </trkpt>
      <trkpt lat="33.99141" lon="77.24319">
        <ele>3316</ele>
        <time>2015-09-01T06:57:10Z</time>
      </trkpt>
      <trkpt lat="33.99131" lon="77.24326">
        <ele>3316</ele>
        <time>2015-09-01T06:57:19Z</time>
      </trkpt>
      <trkpt lat="33.99117" lon="77.24338">
        <ele>3316.4</ele>
        <time>2015-09-01T06:57:29Z</time>
      </trkpt>
      <trkpt lat="33.99116" lon="77.24339">
        <ele>3316.6</ele>
        <time>2015-09-01T06:57:31Z</time>
      </trkpt>
      <trkpt lat="33.99111" lon="77.24345">
        <ele>3316.6</ele>
        <time>2015-09-01T06:57:37Z</time>
      </trkpt>
      <trkpt lat="33.99101" lon="77.24347">
        <ele>3317.2</ele>
        <time>2015-09-01T06:57:51Z</time>
      </trkpt>
      <trkpt lat="33.99098" lon="77.24353">
        <ele>3317.4</ele>
        <time>2015-09-01T06:57:58Z</time>
      </trkpt>
      <trkpt lat="33.9909" lon="77.24357">
        <ele>3317.6</ele>
        <time>2015-09-01T06:58:05Z</time>
      </trkpt>
      <trkpt lat="33.99083" lon="77.24359">
        <ele>3318.6</ele>
        <time>2015-09-01T06:58:16Z</time>
      </trkpt>
      <trkpt lat="33.99081" lon="77.24361">
        <ele>3318.6</ele>
        <time>2015-09-01T06:58:18Z</time>
      </trkpt>
      <trkpt lat="33.99078" lon="77.24367">
        <ele>3319.2</ele>
        <time>2015-09-01T06:58:22Z</time>
      </trkpt>
      <trkpt lat="33.99077" lon="77.24371">
        <ele>3319.4</ele>
        <time>2015-09-01T06:58:24Z</time>
      </trkpt>
      <trkpt lat="33.99074" lon="77.24373">
        <ele>3319.6</ele>
        <time>2015-09-01T06:58:27Z</time>
      </trkpt>
      <trkpt lat="33.99069" lon="77.24387">
        <ele>3320.8</ele>
        <time>2015-09-01T06:58:37Z</time>
      </trkpt>
      <trkpt lat="33.99063" lon="77.24393">
        <ele>3321.4</ele>
        <time>2015-09-01T06:58:46Z</time>
      </trkpt>
      <trkpt lat="33.99058" lon="77.24396">
        <ele>3321.6</ele>
        <time>2015-09-01T06:58:52Z</time>
      </trkpt>
      <trkpt lat="33.99059" lon="77.24396">
        <ele>3321.8</ele>
        <time>2015-09-01T06:58:53Z</time>
      </trkpt>
      <trkpt lat="33.99036" lon="77.24433">
        <ele>3322.8</ele>
        <time>2015-09-01T06:59:12Z</time>
      </trkpt>
      <trkpt lat="33.99033" lon="77.24436">
        <ele>3322.8</ele>
        <time>2015-09-01T06:59:13Z</time>
      </trkpt>
      <trkpt lat="33.99032" lon="77.24438">
        <ele>3322.8</ele>
        <time>2015-09-01T06:59:14Z</time>
      </trkpt>
      <trkpt lat="33.99019" lon="77.24455">
        <ele>3323.2</ele>
        <time>2015-09-01T06:59:26Z</time>
      </trkpt>
      <trkpt lat="33.99008" lon="77.2447">
        <ele>3324</ele>
        <time>2015-09-01T06:59:34Z</time>
      </trkpt>
      <trkpt lat="33.99011" lon="77.24477">
        <ele>3324.4</ele>
        <time>2015-09-01T06:59:47Z</time>
      </trkpt>
      <trkpt lat="33.99011" lon="77.24477">
        <ele>3324.6</ele>
        <time>2015-09-01T06:59:49Z</time>
      </trkpt>
      <trkpt lat="33.99015" lon="77.24472">
        <ele>3325</ele>
        <time>2015-09-01T06:59:55Z</time>
      </trkpt>
      <trkpt lat="33.99005" lon="77.24475">
        <ele>3325.8</ele>
        <time>2015-09-01T07:00:08Z</time>
      </trkpt>
      <trkpt lat="33.99006" lon="77.24475">
        <ele>3326.2</ele>
        <time>2015-09-01T07:00:10Z</time>
      </trkpt>
      <trkpt lat="33.99002" lon="77.24478">
        <ele>3327</ele>
        <time>2015-09-01T07:00:18Z</time>
      </trkpt>
      <trkpt lat="33.99001" lon="77.24479">
        <ele>3327.2</ele>
        <time>2015-09-01T07:00:20Z</time>
      </trkpt>
      <trkpt lat="33.99" lon="77.24481">
        <ele>3327.4</ele>
        <time>2015-09-01T07:00:21Z</time>
      </trkpt>
      <trkpt lat="33.98989" lon="77.24507">
        <ele>3327.4</ele>
        <time>2015-09-01T07:00:22Z</time>
      </trkpt>
      <trkpt lat="33.9898" lon="77.24516">
        <ele>3328.2</ele>
        <time>2015-09-01T07:00:28Z</time>
      </trkpt>
      <trkpt lat="33.98978" lon="77.24518">
        <ele>3328.4</ele>
        <time>2015-09-01T07:00:31Z</time>
      </trkpt>
      <trkpt lat="33.98975" lon="77.24519">
        <ele>3328.4</ele>
        <time>2015-09-01T07:00:34Z</time>
      </trkpt>
      <trkpt lat="33.98975" lon="77.24526">
        <ele>3328.8</ele>
        <time>2015-09-01T07:00:41Z</time>
      </trkpt>
      <trkpt lat="33.9898" lon="77.24531">
        <ele>3329.2</ele>
        <time>2015-09-01T07:00:45Z</time>
      </trkpt>
      <trkpt lat="33.98978" lon="77.24544">
        <ele>3330.2</ele>
        <time>2015-09-01T07:00:58Z</time>
      </trkpt>
      <trkpt lat="33.98977" lon="77.24545">
        <ele>3330.2</ele>
        <time>2015-09-01T07:00:59Z</time>
      </trkpt>
      <trkpt lat="33.98964" lon="77.2456">
        <ele>3331.2</ele>
        <time>2015-09-01T07:01:16Z</time>
      </trkpt>
      <trkpt lat="33.98964" lon="77.24566">
        <ele>3331.2</ele>
        <time>2015-09-01T07:01:21Z</time>
      </trkpt>
      <trkpt lat="33.98964" lon="77.24567">
        <ele>3331.2</ele>
        <time>2015-09-01T07:01:22Z</time>
      </trkpt>
      <trkpt lat="33.98968" lon="77.24582">
        <ele>3331.8</ele>
        <time>2015-09-01T07:01:35Z</time>
      </trkpt>
      <trkpt lat="33.9897" lon="77.24588">
        <ele>3332.4</ele>
        <time>2015-09-01T07:01:42Z</time>
      </trkpt>
      <trkpt lat="33.98978" lon="77.24591">
        <ele>3332.8</ele>
        <time>2015-09-01T07:01:54Z</time>
      </trkpt>
      <trkpt lat="33.98982" lon="77.24594">
        <ele>3332.8</ele>
        <time>2015-09-01T07:01:59Z</time>
      </trkpt>
      <trkpt lat="33.98977" lon="77.24593">
        <ele>3332.6</ele>
        <time>2015-09-01T07:02:02Z</time>
      </trkpt>
      <trkpt lat="33.98977" lon="77.24593">
        <ele>3332.8</ele>
        <time>2015-09-01T07:02:07Z</time>
      </trkpt>
      <trkpt lat="33.98979" lon="77.24594">
        <ele>3332.8</ele>
        <time>2015-09-01T07:02:11Z</time>
      </trkpt>
      <trkpt lat="33.98981" lon="77.24595">
        <ele>3333</ele>
        <time>2015-09-01T07:02:13Z</time>
      </trkpt>
      <trkpt lat="33.98989" lon="77.24597">
        <ele>3332.6</ele>
        <time>2015-09-01T07:02:26Z</time>
      </trkpt>
      <trkpt lat="33.98993" lon="77.246">
        <ele>3332.2</ele>
        <time>2015-09-01T07:02:31Z</time>
      </trkpt>
      <trkpt lat="33.98979" lon="77.24612">
        <ele>3333.2</ele>
        <time>2015-09-01T07:02:47Z</time>
      </trkpt>
      <trkpt lat="33.98974" lon="77.24613">
        <ele>3333.4</ele>
        <time>2015-09-01T07:02:50Z</time>
      </trkpt>
      <trkpt lat="33.98967" lon="77.24612">
        <ele>3334.2</ele>
        <time>2015-09-01T07:02:57Z</time>
      </trkpt>
      <trkpt lat="33.98962" lon="77.24611">
        <ele>3334</ele>
        <time>2015-09-01T07:03:04Z</time>
      </trkpt>
      <trkpt lat="33.98962" lon="77.2462">
        <ele>3333.6</ele>
        <time>2015-09-01T07:03:15Z</time>
      </trkpt>
      <trkpt lat="33.98959" lon="77.24631">
        <ele>3332.8</ele>
        <time>2015-09-01T07:03:21Z</time>
      </trkpt>
      <trkpt lat="33.98958" lon="77.24641">
        <ele>3332.4</ele>
        <time>2015-09-01T07:03:26Z</time>
      </trkpt>
      <trkpt lat="33.98954" lon="77.24654">
        <ele>3332.2</ele>
        <time>2015-09-01T07:03:31Z</time>
      </trkpt>
      <trkpt lat="33.98939" lon="77.24666">
        <ele>3331.4</ele>
        <time>2015-09-01T07:03:41Z</time>
      </trkpt>
      <trkpt lat="33.98938" lon="77.24669">
        <ele>3331.4</ele>
        <time>2015-09-01T07:03:44Z</time>
      </trkpt>
      <trkpt lat="33.98935" lon="77.24689">
        <ele>3331</ele>
        <time>2015-09-01T07:04:08Z</time>
      </trkpt>
      <trkpt lat="33.98934" lon="77.2469">
        <ele>3331</ele>
        <time>2015-09-01T07:04:09Z</time>
      </trkpt>
      <trkpt lat="33.98933" lon="77.24694">
        <ele>3331</ele>
        <time>2015-09-01T07:04:13Z</time>
      </trkpt>
      <trkpt lat="33.98927" lon="77.247">
        <ele>3330.8</ele>
        <time>2015-09-01T07:04:20Z</time>
      </trkpt>
      <trkpt lat="33.98921" lon="77.24708">
        <ele>3330.6</ele>
        <time>2015-09-01T07:04:28Z</time>
      </trkpt>
      <trkpt lat="33.98912" lon="77.24729">
        <ele>3330.4</ele>
        <time>2015-09-01T07:04:40Z</time>
      </trkpt>
      <trkpt lat="33.98912" lon="77.24747">
        <ele>3330.4</ele>
        <time>2015-09-01T07:04:53Z</time>
      </trkpt>
      <trkpt lat="33.98911" lon="77.24757">
        <ele>3330.4</ele>
        <time>2015-09-01T07:05:02Z</time>
      </trkpt>
      <trkpt lat="33.98908" lon="77.24762">
        <ele>3330.4</ele>
        <time>2015-09-01T07:05:05Z</time>
      </trkpt>
      <trkpt lat="33.98906" lon="77.24764">
        <ele>3330.2</ele>
        <time>2015-09-01T07:05:06Z</time>
      </trkpt>
      <trkpt lat="33.98902" lon="77.24774">
        <ele>3330</ele>
        <time>2015-09-01T07:05:12Z</time>
      </trkpt>
      <trkpt lat="33.98898" lon="77.24795">
        <ele>3330.2</ele>
        <time>2015-09-01T07:05:29Z</time>
      </trkpt>
      <trkpt lat="33.98892" lon="77.24809">
        <ele>3330.4</ele>
        <time>2015-09-01T07:05:38Z</time>
      </trkpt>
      <trkpt lat="33.98891" lon="77.24816">
        <ele>3330.2</ele>
        <time>2015-09-01T07:05:45Z</time>
      </trkpt>
      <trkpt lat="33.98889" lon="77.2482">
        <ele>3330.2</ele>
        <time>2015-09-01T07:05:48Z</time>
      </trkpt>
      <trkpt lat="33.98888" lon="77.2483">
        <ele>3330.4</ele>
        <time>2015-09-01T07:05:55Z</time>
      </trkpt>
      <trkpt lat="33.98888" lon="77.24834">
        <ele>3330.8</ele>
        <time>2015-09-01T07:05:59Z</time>
      </trkpt>
      <trkpt lat="33.98891" lon="77.24834">
        <ele>3331</ele>
        <time>2015-09-01T07:06:01Z</time>
      </trkpt>
      <trkpt lat="33.98893" lon="77.24834">
        <ele>3331.4</ele>
        <time>2015-09-01T07:06:03Z</time>
      </trkpt>
      <trkpt lat="33.98895" lon="77.24832">
        <ele>3332</ele>
        <time>2015-09-01T07:06:06Z</time>
      </trkpt>
      <trkpt lat="33.98895" lon="77.24835">
        <ele>3332.2</ele>
        <time>2015-09-01T07:06:09Z</time>
      </trkpt>
      <trkpt lat="33.98894" lon="77.24837">
        <ele>3332.2</ele>
        <time>2015-09-01T07:06:11Z</time>
      </trkpt>
      <trkpt lat="33.98893" lon="77.24839">
        <ele>3332.2</ele>
        <time>2015-09-01T07:06:14Z</time>
      </trkpt>
      <trkpt lat="33.98892" lon="77.24843">
        <ele>3332.6</ele>
        <time>2015-09-01T07:06:16Z</time>
      </trkpt>
      <trkpt lat="33.98892" lon="77.24844">
        <ele>3332.6</ele>
        <time>2015-09-01T07:06:17Z</time>
      </trkpt>
      <trkpt lat="33.98881" lon="77.24861">
        <ele>3332.6</ele>
        <time>2015-09-01T07:06:25Z</time>
      </trkpt>
      <trkpt lat="33.9888" lon="77.24867">
        <ele>3332.8</ele>
        <time>2015-09-01T07:06:29Z</time>
      </trkpt>
      <trkpt lat="33.98879" lon="77.2487">
        <ele>3332.6</ele>
        <time>2015-09-01T07:06:33Z</time>
      </trkpt>
      <trkpt lat="33.98878" lon="77.24868">
        <ele>3332.2</ele>
        <time>2015-09-01T07:06:36Z</time>
      </trkpt>
      <trkpt lat="33.98873" lon="77.24871">
        <ele>3332.2</ele>
        <time>2015-09-01T07:06:41Z</time>
      </trkpt>
      <trkpt lat="33.9887" lon="77.24874">
        <ele>3332.2</ele>
        <time>2015-09-01T07:06:44Z</time>
      </trkpt>
      <trkpt lat="33.98869" lon="77.24886">
        <ele>3332.8</ele>
        <time>2015-09-01T07:07:12Z</time>
      </trkpt>
      <trkpt lat="33.98869" lon="77.24893">
        <ele>3333.2</ele>
        <time>2015-09-01T07:07:23Z</time>
      </trkpt>
      <trkpt lat="33.98869" lon="77.24896">
        <ele>3333.2</ele>
        <time>2015-09-01T07:07:25Z</time>
      </trkpt>
      <trkpt lat="33.98866" lon="77.24901">
        <ele>3333.6</ele>
        <time>2015-09-01T07:07:29Z</time>
      </trkpt>
      <trkpt lat="33.98865" lon="77.2491">
        <ele>3333.8</ele>
        <time>2015-09-01T07:07:35Z</time>
      </trkpt>
      <trkpt lat="33.98865" lon="77.24916">
        <ele>3333.8</ele>
        <time>2015-09-01T07:07:40Z</time>
      </trkpt>
      <trkpt lat="33.98861" lon="77.24919">
        <ele>3333.8</ele>
        <time>2015-09-01T07:07:42Z</time>
      </trkpt>
      <trkpt lat="33.98849" lon="77.24936">
        <ele>3334.2</ele>
        <time>2015-09-01T07:07:56Z</time>
      </trkpt>
      <trkpt lat="33.98841" lon="77.24951">
        <ele>3334.4</ele>
        <time>2015-09-01T07:08:14Z</time>
      </trkpt>
      <trkpt lat="33.98837" lon="77.24953">
        <ele>3334.4</ele>
        <time>2015-09-01T07:08:19Z</time>
      </trkpt>
      <trkpt lat="33.98833" lon="77.24957">
        <ele>3334</ele>
        <time>2015-09-01T07:08:25Z</time>
      </trkpt>
      <trkpt lat="33.9882" lon="77.24972">
        <ele>3333.6</ele>
        <time>2015-09-01T07:08:38Z</time>
      </trkpt>
      <trkpt lat="33.98814" lon="77.24981">
        <ele>3334</ele>
        <time>2015-09-01T07:08:48Z</time>
      </trkpt>
      <trkpt lat="33.98807" lon="77.25002">
        <ele>3334</ele>
        <time>2015-09-01T07:08:53Z</time>
      </trkpt>
      <trkpt lat="33.98801" lon="77.2501">
        <ele>3334</ele>
        <time>2015-09-01T07:08:57Z</time>
      </trkpt>
      <trkpt lat="33.988" lon="77.25013">
        <ele>3334.4</ele>
        <time>2015-09-01T07:08:59Z</time>
      </trkpt>
      <trkpt lat="33.98802" lon="77.25017">
        <ele>3334.6</ele>
        <time>2015-09-01T07:09:01Z</time>
      </trkpt>
      <trkpt lat="33.98799" lon="77.25024">
        <ele>3334.8</ele>
        <time>2015-09-01T07:09:07Z</time>
      </trkpt>
      <trkpt lat="33.98815" lon="77.25037">
        <ele>3335.6</ele>
        <time>2015-09-01T07:09:22Z</time>
      </trkpt>
      <trkpt lat="33.98811" lon="77.25041">
        <ele>3335.6</ele>
        <time>2015-09-01T07:09:23Z</time>
      </trkpt>
      <trkpt lat="33.98802" lon="77.2505">
        <ele>3335.6</ele>
        <time>2015-09-01T07:09:25Z</time>
      </trkpt>
      <trkpt lat="33.98795" lon="77.25061">
        <ele>3335.8</ele>
        <time>2015-09-01T07:09:32Z</time>
      </trkpt>
      <trkpt lat="33.9881" lon="77.25066">
        <ele>3336.6</ele>
        <time>2015-09-01T07:09:46Z</time>
      </trkpt>
      <trkpt lat="33.988" lon="77.25085">
        <ele>3337.2</ele>
        <time>2015-09-01T07:09:56Z</time>
      </trkpt>
      <trkpt lat="33.98804" lon="77.25091">
        <ele>3337.6</ele>
        <time>2015-09-01T07:10:04Z</time>
      </trkpt>
      <trkpt lat="33.98801" lon="77.25092">
        <ele>3337.6</ele>
        <time>2015-09-01T07:10:06Z</time>
      </trkpt>
      <trkpt lat="33.988" lon="77.25092">
        <ele>3337.6</ele>
        <time>2015-09-01T07:10:07Z</time>
      </trkpt>
      <trkpt lat="33.98798" lon="77.25095">
        <ele>3337.6</ele>
        <time>2015-09-01T07:10:12Z</time>
      </trkpt>
      <trkpt lat="33.98792" lon="77.25107">
        <ele>3338.2</ele>
        <time>2015-09-01T07:10:24Z</time>
      </trkpt>
      <trkpt lat="33.98794" lon="77.25116">
        <ele>3338.2</ele>
        <time>2015-09-01T07:10:34Z</time>
      </trkpt>
      <trkpt lat="33.98792" lon="77.25121">
        <ele>3338.8</ele>
        <time>2015-09-01T07:10:39Z</time>
      </trkpt>
      <trkpt lat="33.98791" lon="77.25122">
        <ele>3338.8</ele>
        <time>2015-09-01T07:10:41Z</time>
      </trkpt>
      <trkpt lat="33.98776" lon="77.25118">
        <ele>3338.4</ele>
        <time>2015-09-01T07:10:49Z</time>
      </trkpt>
      <trkpt lat="33.98777" lon="77.25112">
        <ele>3338.4</ele>
        <time>2015-09-01T07:10:52Z</time>
      </trkpt>
      <trkpt lat="33.98773" lon="77.25114">
        <ele>3338.4</ele>
        <time>2015-09-01T07:10:55Z</time>
      </trkpt>
      <trkpt lat="33.98765" lon="77.25122">
        <ele>3339</ele>
        <time>2015-09-01T07:11:27Z</time>
      </trkpt>
      <trkpt lat="33.9877" lon="77.25113">
        <ele>3339</ele>
        <time>2015-09-01T07:11:34Z</time>
      </trkpt>
      <trkpt lat="33.98771" lon="77.25119">
        <ele>3339</ele>
        <time>2015-09-01T07:11:37Z</time>
      </trkpt>
      <trkpt lat="33.98771" lon="77.25127">
        <ele>3338.8</ele>
        <time>2015-09-01T07:11:39Z</time>
      </trkpt>
      <trkpt lat="33.98766" lon="77.25127">
        <ele>3337.6</ele>
        <time>2015-09-01T07:11:46Z</time>
      </trkpt>
      <trkpt lat="33.98766" lon="77.25127">
        <ele>3337.6</ele>
        <time>2015-09-01T07:11:47Z</time>
      </trkpt>
      <trkpt lat="33.98762" lon="77.25129">
        <ele>3337.4</ele>
        <time>2015-09-01T07:11:49Z</time>
      </trkpt>
      <trkpt lat="33.98761" lon="77.25133">
        <ele>3337.6</ele>
        <time>2015-09-01T07:11:53Z</time>
      </trkpt>
      <trkpt lat="33.98767" lon="77.25129">
        <ele>3337.4</ele>
        <time>2015-09-01T07:12:06Z</time>
      </trkpt>
      <trkpt lat="33.98766" lon="77.25131">
        <ele>3337</ele>
        <time>2015-09-01T07:12:09Z</time>
      </trkpt>
      <trkpt lat="33.98758" lon="77.2513">
        <ele>3337</ele>
        <time>2015-09-01T07:12:12Z</time>
      </trkpt>
      <trkpt lat="33.98765" lon="77.2513">
        <ele>3337.6</ele>
        <time>2015-09-01T07:12:19Z</time>
      </trkpt>
      <trkpt lat="33.98766" lon="77.2514">
        <ele>3337.4</ele>
        <time>2015-09-01T07:12:56Z</time>
      </trkpt>
      <trkpt lat="33.98779" lon="77.25126">
        <ele>3337.2</ele>
        <time>2015-09-01T07:12:59Z</time>
      </trkpt>
      <trkpt lat="33.98774" lon="77.25116">
        <ele>3336.8</ele>
        <time>2015-09-01T07:13:05Z</time>
      </trkpt>
      <trkpt lat="33.98773" lon="77.25115">
        <ele>3336.6</ele>
        <time>2015-09-01T07:13:07Z</time>
      </trkpt>
      <trkpt lat="33.98775" lon="77.25111">
        <ele>3336.6</ele>
        <time>2015-09-01T07:13:10Z</time>
      </trkpt>
      <trkpt lat="33.98779" lon="77.25109">
        <ele>3336.4</ele>
        <time>2015-09-01T07:13:13Z</time>
      </trkpt>
      <trkpt lat="33.98776" lon="77.25108">
        <ele>3336.4</ele>
        <time>2015-09-01T07:13:15Z</time>
      </trkpt>
      <trkpt lat="33.98782" lon="77.25107">
        <ele>3337</ele>
        <time>2015-09-01T07:13:46Z</time>
      </trkpt>
      <trkpt lat="33.98785" lon="77.25105">
        <ele>3337.4</ele>
        <time>2015-09-01T07:13:49Z</time>
      </trkpt>
      <trkpt lat="33.98762" lon="77.25109">
        <ele>3338.8</ele>
        <time>2015-09-01T07:16:43Z</time>
      </trkpt>
      <trkpt lat="33.98757" lon="77.25099">
        <ele>3338.8</ele>
        <time>2015-09-01T07:16:47Z</time>
      </trkpt>
      <trkpt lat="33.9877" lon="77.25082">
        <ele>3337.6</ele>
        <time>2015-09-01T07:17:04Z</time>
      </trkpt>
      <trkpt lat="33.98745" lon="77.25073">
        <ele>3336.4</ele>
        <time>2015-09-01T07:17:13Z</time>
      </trkpt>
      <trkpt lat="33.98795" lon="77.2512">
        <ele>3337.6</ele>
        <time>2015-09-01T07:17:45Z</time>
      </trkpt>
      <trkpt lat="33.98795" lon="77.25121">
        <ele>3337.6</ele>
        <time>2015-09-01T07:17:47Z</time>
      </trkpt>
      <trkpt lat="33.98793" lon="77.2512">
        <ele>3337.6</ele>
        <time>2015-09-01T07:17:51Z</time>
      </trkpt>
      <trkpt lat="33.98778" lon="77.25118">
        <ele>3337.8</ele>
        <time>2015-09-01T07:17:54Z</time>
      </trkpt>
      <trkpt lat="33.98775" lon="77.2511">
        <ele>3337.6</ele>
        <time>2015-09-01T07:17:58Z</time>
      </trkpt>
      <trkpt lat="33.98772" lon="77.25105">
        <ele>3337.4</ele>
        <time>2015-09-01T07:18:01Z</time>
      </trkpt>
      <trkpt lat="33.9877" lon="77.25097">
        <ele>3338</ele>
        <time>2015-09-01T07:18:06Z</time>
      </trkpt>
      <trkpt lat="33.98782" lon="77.25094">
        <ele>3337.2</ele>
        <time>2015-09-01T07:18:11Z</time>
      </trkpt>
      <trkpt lat="33.98778" lon="77.25099">
        <ele>3337</ele>
        <time>2015-09-01T07:18:15Z</time>
      </trkpt>
      <trkpt lat="33.98774" lon="77.25103">
        <ele>3337.2</ele>
        <time>2015-09-01T07:18:24Z</time>
      </trkpt>
      <trkpt lat="33.98763" lon="77.25096">
        <ele>3336.8</ele>
        <time>2015-09-01T07:18:43Z</time>
      </trkpt>
      <trkpt lat="33.98757" lon="77.25097">
        <ele>3336.8</ele>
        <time>2015-09-01T07:18:48Z</time>
      </trkpt>
      <trkpt lat="33.98758" lon="77.25107">
        <ele>3337</ele>
        <time>2015-09-01T07:19:04Z</time>
      </trkpt>
      <trkpt lat="33.98764" lon="77.25106">
        <ele>3336.6</ele>
        <time>2015-09-01T07:19:10Z</time>
      </trkpt>
      <trkpt lat="33.98771" lon="77.25101">
        <ele>3336.6</ele>
        <time>2015-09-01T07:19:14Z</time>
      </trkpt>
      <trkpt lat="33.98778" lon="77.25109">
        <ele>3336.4</ele>
        <time>2015-09-01T07:19:18Z</time>
      </trkpt>
      <trkpt lat="33.98783" lon="77.25101">
        <ele>3336.2</ele>
        <time>2015-09-01T07:19:26Z</time>
      </trkpt>
      <trkpt lat="33.98783" lon="77.25094">
        <ele>3336.4</ele>
        <time>2015-09-01T07:19:28Z</time>
      </trkpt>
      <trkpt lat="33.98788" lon="77.2509">
        <ele>3336.4</ele>
        <time>2015-09-01T07:19:31Z</time>
      </trkpt>
      <trkpt lat="33.98791" lon="77.25092">
        <ele>3336.2</ele>
        <time>2015-09-01T07:19:34Z</time>
      </trkpt>
      <trkpt lat="33.98795" lon="77.25093">
        <ele>3336</ele>
        <time>2015-09-01T07:19:38Z</time>
      </trkpt>
      <trkpt lat="33.98796" lon="77.25092">
        <ele>3335.8</ele>
        <time>2015-09-01T07:19:41Z</time>
      </trkpt>
      <trkpt lat="33.98788" lon="77.25103">
        <ele>3335.4</ele>
        <time>2015-09-01T07:20:01Z</time>
      </trkpt>
      <trkpt lat="33.98784" lon="77.25098">
        <ele>3336</ele>
        <time>2015-09-01T07:20:28Z</time>
      </trkpt>
      <trkpt lat="33.98785" lon="77.25094">
        <ele>3336.4</ele>
        <time>2015-09-01T07:20:31Z</time>
      </trkpt>
      <trkpt lat="33.98793" lon="77.25092">
        <ele>3336.2</ele>
        <time>2015-09-01T07:20:36Z</time>
      </trkpt>
      <trkpt lat="33.98795" lon="77.251">
        <ele>3335.8</ele>
        <time>2015-09-01T07:20:51Z</time>
      </trkpt>
      <trkpt lat="33.98792" lon="77.25104">
        <ele>3336</ele>
        <time>2015-09-01T07:20:55Z</time>
      </trkpt>
      <trkpt lat="33.98782" lon="77.25111">
        <ele>3336</ele>
        <time>2015-09-01T07:21:05Z</time>
      </trkpt>
      <trkpt lat="33.9878" lon="77.25115">
        <ele>3336</ele>
        <time>2015-09-01T07:21:08Z</time>
      </trkpt>
      <trkpt lat="33.9878" lon="77.25117">
        <ele>3336.2</ele>
        <time>2015-09-01T07:22:04Z</time>
      </trkpt>
      <trkpt lat="33.98791" lon="77.25114">
        <ele>3336.6</ele>
        <time>2015-09-01T07:22:21Z</time>
      </trkpt>
      <trkpt lat="33.9879" lon="77.25105">
        <ele>3337</ele>
        <time>2015-09-01T07:22:37Z</time>
      </trkpt>
      <trkpt lat="33.98792" lon="77.25092">
        <ele>3336.6</ele>
        <time>2015-09-01T07:23:05Z</time>
      </trkpt>
      <trkpt lat="33.98792" lon="77.25094">
        <ele>3336.4</ele>
        <time>2015-09-01T07:23:10Z</time>
      </trkpt>
      <trkpt lat="33.98792" lon="77.25095">
        <ele>3336.2</ele>
        <time>2015-09-01T07:23:14Z</time>
      </trkpt>
      <trkpt lat="33.98793" lon="77.25103">
        <ele>3336.4</ele>
        <time>2015-09-01T07:23:25Z</time>
      </trkpt>
      <trkpt lat="33.98793" lon="77.25106">
        <ele>3336.2</ele>
        <time>2015-09-01T07:23:27Z</time>
      </trkpt>
      <trkpt lat="33.98769" lon="77.25136">
        <ele>3336.4</ele>
        <time>2015-09-01T07:23:56Z</time>
      </trkpt>
      <trkpt lat="33.98765" lon="77.2514">
        <ele>3336.6</ele>
        <time>2015-09-01T07:24:15Z</time>
      </trkpt>
      <trkpt lat="33.98781" lon="77.25119">
        <ele>3336.8</ele>
        <time>2015-09-01T07:24:18Z</time>
      </trkpt>
      <trkpt lat="33.98786" lon="77.25118">
        <ele>3337.2</ele>
        <time>2015-09-01T07:24:23Z</time>
      </trkpt>
      <trkpt lat="33.9879" lon="77.25108">
        <ele>3336.6</ele>
        <time>2015-09-01T07:24:32Z</time>
      </trkpt>
      <trkpt lat="33.98794" lon="77.25101">
        <ele>3336.8</ele>
        <time>2015-09-01T07:24:36Z</time>
      </trkpt>
      <trkpt lat="33.98798" lon="77.25091">
        <ele>3336.8</ele>
        <time>2015-09-01T07:24:50Z</time>
      </trkpt>
      <trkpt lat="33.98794" lon="77.25098">
        <ele>3336.6</ele>
        <time>2015-09-01T07:24:54Z</time>
      </trkpt>
      <trkpt lat="33.98789" lon="77.25103">
        <ele>3336.6</ele>
        <time>2015-09-01T07:24:59Z</time>
      </trkpt>
      <trkpt lat="33.98789" lon="77.25103">
        <ele>3336.4</ele>
        <time>2015-09-01T07:25:03Z</time>
      </trkpt>
      <trkpt lat="33.9879" lon="77.25105">
        <ele>3336.6</ele>
        <time>2015-09-01T07:25:06Z</time>
      </trkpt>
      <trkpt lat="33.9879" lon="77.25104">
        <ele>3336.4</ele>
        <time>2015-09-01T07:25:08Z</time>
      </trkpt>
      <trkpt lat="33.98793" lon="77.25097">
        <ele>3336.2</ele>
        <time>2015-09-01T07:25:11Z</time>
      </trkpt>
      <trkpt lat="33.98794" lon="77.25095">
        <ele>3336.2</ele>
        <time>2015-09-01T07:25:13Z</time>
      </trkpt>
      <trkpt lat="33.98793" lon="77.25095">
        <ele>3335.8</ele>
        <time>2015-09-01T07:25:34Z</time>
      </trkpt>
      <trkpt lat="33.98791" lon="77.25092">
        <ele>3335.8</ele>
        <time>2015-09-01T07:25:38Z</time>
      </trkpt>
      <trkpt lat="33.98786" lon="77.25109">
        <ele>3335.6</ele>
        <time>2015-09-01T07:25:49Z</time>
      </trkpt>
      <trkpt lat="33.98776" lon="77.25118">
        <ele>3336.6</ele>
        <time>2015-09-01T07:26:16Z</time>
      </trkpt>
      <trkpt lat="33.98782" lon="77.25108">
        <ele>3336.4</ele>
        <time>2015-09-01T07:26:33Z</time>
      </trkpt>
      <trkpt lat="33.98781" lon="77.25108">
        <ele>3336.8</ele>
        <time>2015-09-01T07:26:58Z</time>
      </trkpt>
      <trkpt lat="33.98778" lon="77.25109">
        <ele>3336.8</ele>
        <time>2015-09-01T07:27:00Z</time>
      </trkpt>
      <trkpt lat="33.98781" lon="77.25105">
        <ele>3336.6</ele>
        <time>2015-09-01T07:27:06Z</time>
      </trkpt>
      <trkpt lat="33.98784" lon="77.251">
        <ele>3336.2</ele>
        <time>2015-09-01T07:27:31Z</time>
      </trkpt>
      <trkpt lat="33.98781" lon="77.25111">
        <ele>3336</ele>
        <time>2015-09-01T07:27:57Z</time>
      </trkpt>
      <trkpt lat="33.98783" lon="77.25109">
        <ele>3336.8</ele>
        <time>2015-09-01T07:28:27Z</time>
      </trkpt>
      <trkpt lat="33.98786" lon="77.25106">
        <ele>3336.4</ele>
        <time>2015-09-01T07:28:30Z</time>
      </trkpt>
      <trkpt lat="33.98791" lon="77.25099">
        <ele>3336</ele>
        <time>2015-09-01T07:29:03Z</time>
      </trkpt>
      <trkpt lat="33.98787" lon="77.25109">
        <ele>3336.6</ele>
        <time>2015-09-01T07:29:12Z</time>
      </trkpt>
      <trkpt lat="33.98778" lon="77.25107">
        <ele>3336.6</ele>
        <time>2015-09-01T07:29:54Z</time>
      </trkpt>
      <trkpt lat="33.9879" lon="77.2508">
        <ele>3336.6</ele>
        <time>2015-09-01T07:30:18Z</time>
      </trkpt>
      <trkpt lat="33.98789" lon="77.25082">
        <ele>3336.4</ele>
        <time>2015-09-01T07:30:22Z</time>
      </trkpt>
      <trkpt lat="33.98789" lon="77.2509">
        <ele>3336.4</ele>
        <time>2015-09-01T07:30:26Z</time>
      </trkpt>
      <trkpt lat="33.98785" lon="77.25104">
        <ele>3336.4</ele>
        <time>2015-09-01T07:30:34Z</time>
      </trkpt>
      <trkpt lat="33.98784" lon="77.25106">
        <ele>3336.4</ele>
        <time>2015-09-01T07:30:37Z</time>
      </trkpt>
      <trkpt lat="33.98777" lon="77.25107">
        <ele>3336.6</ele>
        <time>2015-09-01T07:30:45Z</time>
      </trkpt>
      <trkpt lat="33.98774" lon="77.25106">
        <ele>3336.6</ele>
        <time>2015-09-01T07:30:47Z</time>
      </trkpt>
      <trkpt lat="33.98776" lon="77.251">
        <ele>3336.6</ele>
        <time>2015-09-01T07:30:50Z</time>
      </trkpt>
      <trkpt lat="33.98772" lon="77.25094">
        <ele>3336.4</ele>
        <time>2015-09-01T07:30:56Z</time>
      </trkpt>
      <trkpt lat="33.98791" lon="77.25066">
        <ele>3335.4</ele>
        <time>2015-09-01T07:31:29Z</time>
      </trkpt>
      <trkpt lat="33.98791" lon="77.25077">
        <ele>3335</ele>
        <time>2015-09-01T07:31:38Z</time>
      </trkpt>
      <trkpt lat="33.9873" lon="77.25186">
        <ele>3336.2</ele>
        <time>2015-09-01T07:32:22Z</time>
      </trkpt>
      <trkpt lat="33.98727" lon="77.2519">
        <ele>3336.2</ele>
        <time>2015-09-01T07:32:24Z</time>
      </trkpt>
      <trkpt lat="33.98726" lon="77.25194">
        <ele>3336.6</ele>
        <time>2015-09-01T07:32:26Z</time>
      </trkpt>
      <trkpt lat="33.98725" lon="77.25203">
        <ele>3337.6</ele>
        <time>2015-09-01T07:32:36Z</time>
      </trkpt>
      <trkpt lat="33.98721" lon="77.25209">
        <ele>3338.8</ele>
        <time>2015-09-01T07:32:46Z</time>
      </trkpt>
      <trkpt lat="33.9872" lon="77.25226">
        <ele>3340.2</ele>
        <time>2015-09-01T07:33:09Z</time>
      </trkpt>
      <trkpt lat="33.98729" lon="77.25212">
        <ele>3340.6</ele>
        <time>2015-09-01T07:33:12Z</time>
      </trkpt>
      <trkpt lat="33.98732" lon="77.25209">
        <ele>3340.8</ele>
        <time>2015-09-01T07:33:14Z</time>
      </trkpt>
      <trkpt lat="33.98743" lon="77.25193">
        <ele>3342</ele>
        <time>2015-09-01T07:33:23Z</time>
      </trkpt>
      <trkpt lat="33.9875" lon="77.25173">
        <ele>3342.8</ele>
        <time>2015-09-01T07:33:32Z</time>
      </trkpt>
      <trkpt lat="33.98752" lon="77.25167">
        <ele>3343</ele>
        <time>2015-09-01T07:33:33Z</time>
      </trkpt>
      <trkpt lat="33.98757" lon="77.25155">
        <ele>3343.2</ele>
        <time>2015-09-01T07:33:36Z</time>
      </trkpt>
      <trkpt lat="33.9876" lon="77.25149">
        <ele>3343.6</ele>
        <time>2015-09-01T07:33:38Z</time>
      </trkpt>
      <trkpt lat="33.98759" lon="77.25147">
        <ele>3344</ele>
        <time>2015-09-01T07:33:40Z</time>
      </trkpt>
      <trkpt lat="33.98764" lon="77.25128">
        <ele>3344.6</ele>
        <time>2015-09-01T07:33:56Z</time>
      </trkpt>
      <trkpt lat="33.9879" lon="77.25085">
        <ele>3344.6</ele>
        <time>2015-09-01T07:34:18Z</time>
      </trkpt>
      <trkpt lat="33.98789" lon="77.25085">
        <ele>3344</ele>
        <time>2015-09-01T07:34:50Z</time>
      </trkpt>
      <trkpt lat="33.98798" lon="77.2507">
        <ele>3343.8</ele>
        <time>2015-09-01T07:34:58Z</time>
      </trkpt>
      <trkpt lat="33.98793" lon="77.25084">
        <ele>3343.8</ele>
        <time>2015-09-01T07:35:01Z</time>
      </trkpt>
      <trkpt lat="33.98787" lon="77.25095">
        <ele>3343.8</ele>
        <time>2015-09-01T07:35:04Z</time>
      </trkpt>
      <trkpt lat="33.98785" lon="77.25085">
        <ele>3343.8</ele>
        <time>2015-09-01T07:35:19Z</time>
      </trkpt>
      <trkpt lat="33.98777" lon="77.25107">
        <ele>3343.2</ele>
        <time>2015-09-01T07:35:45Z</time>
      </trkpt>
      <trkpt lat="33.98779" lon="77.25108">
        <ele>3343.8</ele>
        <time>2015-09-01T07:35:57Z</time>
      </trkpt>
      <trkpt lat="33.98779" lon="77.25113">
        <ele>3343.6</ele>
        <time>2015-09-01T07:36:00Z</time>
      </trkpt>
      <trkpt lat="33.98785" lon="77.25105">
        <ele>3343.2</ele>
        <time>2015-09-01T07:36:26Z</time>
      </trkpt>
      <trkpt lat="33.98792" lon="77.25089">
        <ele>3343.2</ele>
        <time>2015-09-01T07:36:34Z</time>
      </trkpt>
      <trkpt lat="33.98795" lon="77.25085">
        <ele>3343.4</ele>
        <time>2015-09-01T07:36:37Z</time>
      </trkpt>
      <trkpt lat="33.98791" lon="77.25086">
        <ele>3343.2</ele>
        <time>2015-09-01T07:36:40Z</time>
      </trkpt>
      <trkpt lat="33.98791" lon="77.25085">
        <ele>3342.8</ele>
        <time>2015-09-01T07:36:42Z</time>
      </trkpt>
      <trkpt lat="33.98792" lon="77.2507">
        <ele>3342.2</ele>
        <time>2015-09-01T07:37:09Z</time>
      </trkpt>
      <trkpt lat="33.98803" lon="77.25055">
        <ele>3341.8</ele>
        <time>2015-09-01T07:37:19Z</time>
      </trkpt>
      <trkpt lat="33.98803" lon="77.25055">
        <ele>3341.8</ele>
        <time>2015-09-01T07:37:20Z</time>
      </trkpt>
      <trkpt lat="33.988" lon="77.25071">
        <ele>3340.8</ele>
        <time>2015-09-01T07:37:43Z</time>
      </trkpt>
      <trkpt lat="33.98798" lon="77.25067">
        <ele>3339.8</ele>
        <time>2015-09-01T07:38:07Z</time>
      </trkpt>
      <trkpt lat="33.98794" lon="77.25083">
        <ele>3338.8</ele>
        <time>2015-09-01T07:38:33Z</time>
      </trkpt>
      <trkpt lat="33.98793" lon="77.2508">
        <ele>3337.8</ele>
        <time>2015-09-01T07:38:56Z</time>
      </trkpt>
      <trkpt lat="33.98792" lon="77.25084">
        <ele>3337.8</ele>
        <time>2015-09-01T07:38:58Z</time>
      </trkpt>
      <trkpt lat="33.98796" lon="77.25073">
        <ele>3337.2</ele>
        <time>2015-09-01T07:39:20Z</time>
      </trkpt>
      <trkpt lat="33.98795" lon="77.25078">
        <ele>3337</ele>
        <time>2015-09-01T07:39:34Z</time>
      </trkpt>
      <trkpt lat="33.98792" lon="77.25088">
        <ele>3336.8</ele>
        <time>2015-09-01T07:39:37Z</time>
      </trkpt>
      <trkpt lat="33.98778" lon="77.25111">
        <ele>3336.8</ele>
        <time>2015-09-01T07:39:52Z</time>
      </trkpt>
      <trkpt lat="33.98775" lon="77.25113">
        <ele>3336.8</ele>
        <time>2015-09-01T07:39:54Z</time>
      </trkpt>
      <trkpt lat="33.9878" lon="77.25101">
        <ele>3337.8</ele>
        <time>2015-09-01T07:40:43Z</time>
      </trkpt>
      <trkpt lat="33.98778" lon="77.25112">
        <ele>3338.2</ele>
        <time>2015-09-01T07:40:50Z</time>
      </trkpt>
      <trkpt lat="33.98777" lon="77.25121">
        <ele>3338</ele>
        <time>2015-09-01T07:40:53Z</time>
      </trkpt>
      <trkpt lat="33.98772" lon="77.25123">
        <ele>3337.8</ele>
        <time>2015-09-01T07:41:08Z</time>
      </trkpt>
      <trkpt lat="33.98784" lon="77.25106">
        <ele>3338</ele>
        <time>2015-09-01T07:41:29Z</time>
      </trkpt>
      <trkpt lat="33.98788" lon="77.25101">
        <ele>3338.4</ele>
        <time>2015-09-01T07:41:33Z</time>
      </trkpt>
      <trkpt lat="33.98785" lon="77.25095">
        <ele>3338.2</ele>
        <time>2015-09-01T07:42:13Z</time>
      </trkpt>
      <trkpt lat="33.98789" lon="77.25088">
        <ele>3338.2</ele>
        <time>2015-09-01T07:42:18Z</time>
      </trkpt>
      <trkpt lat="33.9879" lon="77.25084">
        <ele>3338.2</ele>
        <time>2015-09-01T07:42:38Z</time>
      </trkpt>
      <trkpt lat="33.9879" lon="77.25081">
        <ele>3338</ele>
        <time>2015-09-01T07:42:41Z</time>
      </trkpt>
      <trkpt lat="33.98782" lon="77.25106">
        <ele>3337.6</ele>
        <time>2015-09-01T07:43:17Z</time>
      </trkpt>
      <trkpt lat="33.98783" lon="77.25101">
        <ele>3337.6</ele>
        <time>2015-09-01T07:43:20Z</time>
      </trkpt>
      <trkpt lat="33.98779" lon="77.25112">
        <ele>3337.4</ele>
        <time>2015-09-01T07:43:55Z</time>
      </trkpt>
      <trkpt lat="33.98784" lon="77.25097">
        <ele>3337.6</ele>
        <time>2015-09-01T07:44:44Z</time>
      </trkpt>
      <trkpt lat="33.98788" lon="77.25094">
        <ele>3337.4</ele>
        <time>2015-09-01T07:45:12Z</time>
      </trkpt>
      <trkpt lat="33.98789" lon="77.2509">
        <ele>3336.6</ele>
        <time>2015-09-01T07:45:38Z</time>
      </trkpt>
      <trkpt lat="33.98785" lon="77.25097">
        <ele>3336.2</ele>
        <time>2015-09-01T07:45:43Z</time>
      </trkpt>
      <trkpt lat="33.98774" lon="77.25118">
        <ele>3336.4</ele>
        <time>2015-09-01T07:45:55Z</time>
      </trkpt>
      <trkpt lat="33.98779" lon="77.25116">
        <ele>3336.6</ele>
        <time>2015-09-01T07:46:13Z</time>
      </trkpt>
      <trkpt lat="33.98775" lon="77.25132">
        <ele>3337.6</ele>
        <time>2015-09-01T07:46:42Z</time>
      </trkpt>
      <trkpt lat="33.98773" lon="77.25132">
        <ele>3338.8</ele>
        <time>2015-09-01T07:47:09Z</time>
      </trkpt>
      <trkpt lat="33.98775" lon="77.25133">
        <ele>3339.4</ele>
        <time>2015-09-01T07:47:31Z</time>
      </trkpt>
      <trkpt lat="33.98776" lon="77.25124">
        <ele>3339.8</ele>
        <time>2015-09-01T07:47:55Z</time>
      </trkpt>
      <trkpt lat="33.98778" lon="77.25119">
        <ele>3339.8</ele>
        <time>2015-09-01T07:47:59Z</time>
      </trkpt>
      <trkpt lat="33.98778" lon="77.25117">
        <ele>3339.8</ele>
        <time>2015-09-01T07:48:01Z</time>
      </trkpt>
      <trkpt lat="33.98787" lon="77.25096">
        <ele>3340</ele>
        <time>2015-09-01T07:48:08Z</time>
      </trkpt>
      <trkpt lat="33.98785" lon="77.25101">
        <ele>3340</ele>
        <time>2015-09-01T07:48:25Z</time>
      </trkpt>
      <trkpt lat="33.98772" lon="77.25129">
        <ele>3340.2</ele>
        <time>2015-09-01T07:48:41Z</time>
      </trkpt>
      <trkpt lat="33.98773" lon="77.25132">
        <ele>3377.2</ele>
        <time>2015-09-01T07:48:49Z</time>
      </trkpt>
    </trkseg>
  </trk>
  <trk>
    <name><![CDATA[Kaya (3380m) - Skyu (3350m) - Markha (3700m)]]></name>
    <trkseg>
      <trkpt lat="33.98276" lon="77.24899">
        <ele>2702.8</ele>
        <time>2015-09-02T01:55:36Z</time>
      </trkpt>
      <trkpt lat="33.98279" lon="77.24903">
        <ele>2938.8</ele>
        <time>2015-09-02T01:55:37Z</time>
      </trkpt>
      <trkpt lat="33.98282" lon="77.24907">
        <ele>3091.4</ele>
        <time>2015-09-02T01:55:38Z</time>
      </trkpt>
      <trkpt lat="33.98464" lon="77.25167">
        <ele>3203</ele>
        <time>2015-09-02T01:55:41Z</time>
      </trkpt>
      <trkpt lat="33.98505" lon="77.25212">
        <ele>3222</ele>
        <time>2015-09-02T01:55:42Z</time>
      </trkpt>
      <trkpt lat="33.98528" lon="77.25238">
        <ele>3231.6</ele>
        <time>2015-09-02T01:55:43Z</time>
      </trkpt>
      <trkpt lat="33.98554" lon="77.25266">
        <ele>3236.4</ele>
        <time>2015-09-02T01:55:44Z</time>
      </trkpt>
      <trkpt lat="33.98557" lon="77.25274">
        <ele>3238.8</ele>
        <time>2015-09-02T01:55:45Z</time>
      </trkpt>
      <trkpt lat="33.98562" lon="77.25285">
        <ele>3240</ele>
        <time>2015-09-02T01:55:46Z</time>
      </trkpt>
      <trkpt lat="33.98573" lon="77.25305">
        <ele>3240.8</ele>
        <time>2015-09-02T01:55:48Z</time>
      </trkpt>
      <trkpt lat="33.98584" lon="77.25325">
        <ele>3241</ele>
        <time>2015-09-02T01:55:50Z</time>
      </trkpt>
      <trkpt lat="33.98585" lon="77.25333">
        <ele>3241</ele>
        <time>2015-09-02T01:55:51Z</time>
      </trkpt>
      <trkpt lat="33.98584" lon="77.25342">
        <ele>3241.2</ele>
        <time>2015-09-02T01:55:54Z</time>
      </trkpt>
      <trkpt lat="33.98584" lon="77.25349">
        <ele>3241.4</ele>
        <time>2015-09-02T01:55:56Z</time>
      </trkpt>
      <trkpt lat="33.98582" lon="77.25353">
        <ele>3241.4</ele>
        <time>2015-09-02T01:55:58Z</time>
      </trkpt>
      <trkpt lat="33.98581" lon="77.25359">
        <ele>3241.6</ele>
        <time>2015-09-02T01:56:00Z</time>
      </trkpt>
      <trkpt lat="33.98581" lon="77.25371">
        <ele>3242.2</ele>
        <time>2015-09-02T01:56:06Z</time>
      </trkpt>
      <trkpt lat="33.98582" lon="77.25391">
        <ele>3242.6</ele>
        <time>2015-09-02T01:56:18Z</time>
      </trkpt>
      <trkpt lat="33.98576" lon="77.25397">
        <ele>3243.2</ele>
        <time>2015-09-02T01:56:24Z</time>
      </trkpt>
      <trkpt lat="33.98573" lon="77.25399">
        <ele>3243.4</ele>
        <time>2015-09-02T01:56:27Z</time>
      </trkpt>
      <trkpt lat="33.98564" lon="77.25401">
        <ele>3244.2</ele>
        <time>2015-09-02T01:56:34Z</time>
      </trkpt>
      <trkpt lat="33.98553" lon="77.25405">
        <ele>3245</ele>
        <time>2015-09-02T01:56:44Z</time>
      </trkpt>
      <trkpt lat="33.98547" lon="77.25407">
        <ele>3245.2</ele>
        <time>2015-09-02T01:56:48Z</time>
      </trkpt>
      <trkpt lat="33.98536" lon="77.25408">
        <ele>3245.6</ele>
        <time>2015-09-02T01:56:55Z</time>
      </trkpt>
      <trkpt lat="33.98533" lon="77.25411">
        <ele>3246</ele>
        <time>2015-09-02T01:56:59Z</time>
      </trkpt>
      <trkpt lat="33.98531" lon="77.25412">
        <ele>3246.4</ele>
        <time>2015-09-02T01:57:02Z</time>
      </trkpt>
      <trkpt lat="33.98522" lon="77.25414">
        <ele>3247.4</ele>
        <time>2015-09-02T01:57:11Z</time>
      </trkpt>
      <trkpt lat="33.98502" lon="77.25408">
        <ele>3248.4</ele>
        <time>2015-09-02T01:57:24Z</time>
      </trkpt>
      <trkpt lat="33.98501" lon="77.25427">
        <ele>3249.4</ele>
        <time>2015-09-02T01:57:39Z</time>
      </trkpt>
      <trkpt lat="33.9849" lon="77.2544">
        <ele>3250.4</ele>
        <time>2015-09-02T01:57:52Z</time>
      </trkpt>
      <trkpt lat="33.98483" lon="77.25454">
        <ele>3251.4</ele>
        <time>2015-09-02T01:58:04Z</time>
      </trkpt>
      <trkpt lat="33.9847" lon="77.25462">
        <ele>3252.6</ele>
        <time>2015-09-02T01:58:20Z</time>
      </trkpt>
      <trkpt lat="33.98464" lon="77.25471">
        <ele>3253.6</ele>
        <time>2015-09-02T01:58:30Z</time>
      </trkpt>
      <trkpt lat="33.98453" lon="77.25488">
        <ele>3254.6</ele>
        <time>2015-09-02T01:58:44Z</time>
      </trkpt>
      <trkpt lat="33.98434" lon="77.25493">
        <ele>3255.8</ele>
        <time>2015-09-02T01:58:59Z</time>
      </trkpt>
      <trkpt lat="33.98424" lon="77.25502">
        <ele>3256.8</ele>
        <time>2015-09-02T01:59:12Z</time>
      </trkpt>
      <trkpt lat="33.98411" lon="77.25507">
        <ele>3258</ele>
        <time>2015-09-02T01:59:26Z</time>
      </trkpt>
      <trkpt lat="33.98393" lon="77.25507">
        <ele>3259</ele>
        <time>2015-09-02T01:59:44Z</time>
      </trkpt>
      <trkpt lat="33.98386" lon="77.2552">
        <ele>3259.6</ele>
        <time>2015-09-02T01:59:54Z</time>
      </trkpt>
      <trkpt lat="33.98385" lon="77.2553">
        <ele>3260</ele>
        <time>2015-09-02T01:59:59Z</time>
      </trkpt>
      <trkpt lat="33.9838" lon="77.25545">
        <ele>3260.2</ele>
        <time>2015-09-02T02:00:07Z</time>
      </trkpt>
      <trkpt lat="33.98375" lon="77.25551">
        <ele>3261</ele>
        <time>2015-09-02T02:00:14Z</time>
      </trkpt>
      <trkpt lat="33.98374" lon="77.25553">
        <ele>3261</ele>
        <time>2015-09-02T02:00:15Z</time>
      </trkpt>
      <trkpt lat="33.98359" lon="77.25556">
        <ele>3262</ele>
        <time>2015-09-02T02:00:31Z</time>
      </trkpt>
      <trkpt lat="33.98353" lon="77.25561">
        <ele>3262.2</ele>
        <time>2015-09-02T02:00:36Z</time>
      </trkpt>
      <trkpt lat="33.98341" lon="77.25574">
        <ele>3263</ele>
        <time>2015-09-02T02:00:49Z</time>
      </trkpt>
      <trkpt lat="33.98324" lon="77.25581">
        <ele>3264.2</ele>
        <time>2015-09-02T02:01:04Z</time>
      </trkpt>
      <trkpt lat="33.98319" lon="77.25581">
        <ele>3264.4</ele>
        <time>2015-09-02T02:01:07Z</time>
      </trkpt>
      <trkpt lat="33.98311" lon="77.25584">
        <ele>3265</ele>
        <time>2015-09-02T02:01:17Z</time>
      </trkpt>
      <trkpt lat="33.98307" lon="77.25589">
        <ele>3265.2</ele>
        <time>2015-09-02T02:01:21Z</time>
      </trkpt>
      <trkpt lat="33.983" lon="77.25606">
        <ele>3266</ele>
        <time>2015-09-02T02:01:34Z</time>
      </trkpt>
      <trkpt lat="33.98297" lon="77.25613">
        <ele>3266.2</ele>
        <time>2015-09-02T02:01:38Z</time>
      </trkpt>
      <trkpt lat="33.98291" lon="77.25624">
        <ele>3267.2</ele>
        <time>2015-09-02T02:01:47Z</time>
      </trkpt>
      <trkpt lat="33.98288" lon="77.25633">
        <ele>3267.8</ele>
        <time>2015-09-02T02:01:53Z</time>
      </trkpt>
      <trkpt lat="33.98282" lon="77.25641">
        <ele>3268.2</ele>
        <time>2015-09-02T02:02:00Z</time>
      </trkpt>
      <trkpt lat="33.98272" lon="77.25654">
        <ele>3269.2</ele>
        <time>2015-09-02T02:02:13Z</time>
      </trkpt>
      <trkpt lat="33.98261" lon="77.25666">
        <ele>3270.4</ele>
        <time>2015-09-02T02:02:25Z</time>
      </trkpt>
      <trkpt lat="33.98254" lon="77.25682">
        <ele>3271.4</ele>
        <time>2015-09-02T02:02:35Z</time>
      </trkpt>
      <trkpt lat="33.98242" lon="77.25688">
        <ele>3272.4</ele>
        <time>2015-09-02T02:02:47Z</time>
      </trkpt>
      <trkpt lat="33.9824" lon="77.2569">
        <ele>3272.4</ele>
        <time>2015-09-02T02:02:49Z</time>
      </trkpt>
      <trkpt lat="33.98231" lon="77.25696">
        <ele>3273</ele>
        <time>2015-09-02T02:02:58Z</time>
      </trkpt>
      <trkpt lat="33.98226" lon="77.25704">
        <ele>3273.4</ele>
        <time>2015-09-02T02:03:05Z</time>
      </trkpt>
      <trkpt lat="33.98219" lon="77.25712">
        <ele>3274.6</ele>
        <time>2015-09-02T02:03:16Z</time>
      </trkpt>
      <trkpt lat="33.98212" lon="77.25716">
        <ele>3275</ele>
        <time>2015-09-02T02:03:23Z</time>
      </trkpt>
      <trkpt lat="33.982" lon="77.25722">
        <ele>3275.6</ele>
        <time>2015-09-02T02:03:32Z</time>
      </trkpt>
      <trkpt lat="33.98196" lon="77.25731">
        <ele>3276</ele>
        <time>2015-09-02T02:03:39Z</time>
      </trkpt>
      <trkpt lat="33.98193" lon="77.25736">
        <ele>3276.6</ele>
        <time>2015-09-02T02:03:46Z</time>
      </trkpt>
      <trkpt lat="33.98183" lon="77.25744">
        <ele>3277.6</ele>
        <time>2015-09-02T02:03:57Z</time>
      </trkpt>
      <trkpt lat="33.98175" lon="77.25766">
        <ele>3278.4</ele>
        <time>2015-09-02T02:04:10Z</time>
      </trkpt>
      <trkpt lat="33.98172" lon="77.25772">
        <ele>3278.6</ele>
        <time>2015-09-02T02:04:14Z</time>
      </trkpt>
      <trkpt lat="33.98166" lon="77.25789">
        <ele>3279.2</ele>
        <time>2015-09-02T02:04:26Z</time>
      </trkpt>
      <trkpt lat="33.98156" lon="77.25794">
        <ele>3279.6</ele>
        <time>2015-09-02T02:04:34Z</time>
      </trkpt>
      <trkpt lat="33.98156" lon="77.25795">
        <ele>3279.6</ele>
        <time>2015-09-02T02:04:35Z</time>
      </trkpt>
      <trkpt lat="33.98152" lon="77.25801">
        <ele>3280.4</ele>
        <time>2015-09-02T02:04:41Z</time>
      </trkpt>
      <trkpt lat="33.98151" lon="77.25803">
        <ele>3280.6</ele>
        <time>2015-09-02T02:04:43Z</time>
      </trkpt>
      <trkpt lat="33.9815" lon="77.25805">
        <ele>3280.6</ele>
        <time>2015-09-02T02:04:45Z</time>
      </trkpt>
      <trkpt lat="33.98136" lon="77.25819">
        <ele>3281.4</ele>
        <time>2015-09-02T02:04:59Z</time>
      </trkpt>
      <trkpt lat="33.98131" lon="77.25822">
        <ele>3281.8</ele>
        <time>2015-09-02T02:05:02Z</time>
      </trkpt>
      <trkpt lat="33.98119" lon="77.25825">
        <ele>3282.8</ele>
        <time>2015-09-02T02:05:11Z</time>
      </trkpt>
      <trkpt lat="33.98112" lon="77.2583">
        <ele>3283.4</ele>
        <time>2015-09-02T02:05:19Z</time>
      </trkpt>
      <trkpt lat="33.98112" lon="77.2584">
        <ele>3283.8</ele>
        <time>2015-09-02T02:05:25Z</time>
      </trkpt>
      <trkpt lat="33.98114" lon="77.25845">
        <ele>3283.8</ele>
        <time>2015-09-02T02:05:28Z</time>
      </trkpt>
      <trkpt lat="33.9811" lon="77.25868">
        <ele>3284.6</ele>
        <time>2015-09-02T02:05:41Z</time>
      </trkpt>
      <trkpt lat="33.98108" lon="77.25872">
        <ele>3284.8</ele>
        <time>2015-09-02T02:05:44Z</time>
      </trkpt>
      <trkpt lat="33.98095" lon="77.25879">
        <ele>3285.4</ele>
        <time>2015-09-02T02:05:55Z</time>
      </trkpt>
      <trkpt lat="33.98094" lon="77.2589">
        <ele>3285.8</ele>
        <time>2015-09-02T02:06:04Z</time>
      </trkpt>
      <trkpt lat="33.98095" lon="77.25892">
        <ele>3285.8</ele>
        <time>2015-09-02T02:06:05Z</time>
      </trkpt>
      <trkpt lat="33.98084" lon="77.25884">
        <ele>3285.8</ele>
        <time>2015-09-02T02:06:06Z</time>
      </trkpt>
      <trkpt lat="33.98077" lon="77.25878">
        <ele>3286</ele>
        <time>2015-09-02T02:06:08Z</time>
      </trkpt>
      <trkpt lat="33.98075" lon="77.25881">
        <ele>3286.2</ele>
        <time>2015-09-02T02:06:12Z</time>
      </trkpt>
      <trkpt lat="33.98076" lon="77.2589">
        <ele>3286.8</ele>
        <time>2015-09-02T02:06:19Z</time>
      </trkpt>
      <trkpt lat="33.98075" lon="77.25892">
        <ele>3287</ele>
        <time>2015-09-02T02:06:22Z</time>
      </trkpt>
      <trkpt lat="33.98076" lon="77.25894">
        <ele>3286.8</ele>
        <time>2015-09-02T02:06:25Z</time>
      </trkpt>
      <trkpt lat="33.98077" lon="77.25897">
        <ele>3286.8</ele>
        <time>2015-09-02T02:06:27Z</time>
      </trkpt>
      <trkpt lat="33.9808" lon="77.25904">
        <ele>3286.8</ele>
        <time>2015-09-02T02:06:29Z</time>
      </trkpt>
      <trkpt lat="33.98075" lon="77.25908">
        <ele>3286.6</ele>
        <time>2015-09-02T02:06:33Z</time>
      </trkpt>
      <trkpt lat="33.98074" lon="77.25911">
        <ele>3286.6</ele>
        <time>2015-09-02T02:06:35Z</time>
      </trkpt>
      <trkpt lat="33.98003" lon="77.25933">
        <ele>3290</ele>
        <time>2015-09-02T02:07:49Z</time>
      </trkpt>
      <trkpt lat="33.98" lon="77.25931">
        <ele>3290</ele>
        <time>2015-09-02T02:07:50Z</time>
      </trkpt>
      <trkpt lat="33.97998" lon="77.25933">
        <ele>3290.2</ele>
        <time>2015-09-02T02:07:52Z</time>
      </trkpt>
      <trkpt lat="33.97999" lon="77.25936">
        <ele>3290.4</ele>
        <time>2015-09-02T02:07:54Z</time>
      </trkpt>
      <trkpt lat="33.97996" lon="77.25938">
        <ele>3290.4</ele>
        <time>2015-09-02T02:07:57Z</time>
      </trkpt>
      <trkpt lat="33.97994" lon="77.25951">
        <ele>3291</ele>
        <time>2015-09-02T02:08:04Z</time>
      </trkpt>
      <trkpt lat="33.97997" lon="77.25961">
        <ele>3291.4</ele>
        <time>2015-09-02T02:08:08Z</time>
      </trkpt>
      <trkpt lat="33.98" lon="77.2597">
        <ele>3291.8</ele>
        <time>2015-09-02T02:08:11Z</time>
      </trkpt>
      <trkpt lat="33.97998" lon="77.25979">
        <ele>3292.2</ele>
        <time>2015-09-02T02:08:15Z</time>
      </trkpt>
      <trkpt lat="33.97992" lon="77.25986">
        <ele>3293.2</ele>
        <time>2015-09-02T02:08:24Z</time>
      </trkpt>
      <trkpt lat="33.97987" lon="77.2599">
        <ele>3294.2</ele>
        <time>2015-09-02T02:08:31Z</time>
      </trkpt>
      <trkpt lat="33.97985" lon="77.25989">
        <ele>3294.4</ele>
        <time>2015-09-02T02:08:32Z</time>
      </trkpt>
      <trkpt lat="33.97982" lon="77.25987">
        <ele>3294.8</ele>
        <time>2015-09-02T02:08:34Z</time>
      </trkpt>
      <trkpt lat="33.97982" lon="77.25992">
        <ele>3295.4</ele>
        <time>2015-09-02T02:08:37Z</time>
      </trkpt>
      <trkpt lat="33.97981" lon="77.25994">
        <ele>3296.6</ele>
        <time>2015-09-02T02:08:41Z</time>
      </trkpt>
      <trkpt lat="33.97981" lon="77.25998">
        <ele>3297.6</ele>
        <time>2015-09-02T02:08:45Z</time>
      </trkpt>
      <trkpt lat="33.9798" lon="77.26003">
        <ele>3298.6</ele>
        <time>2015-09-02T02:08:48Z</time>
      </trkpt>
      <trkpt lat="33.97978" lon="77.26007">
        <ele>3299</ele>
        <time>2015-09-02T02:08:51Z</time>
      </trkpt>
      <trkpt lat="33.9798" lon="77.26013">
        <ele>3299.2</ele>
        <time>2015-09-02T02:08:53Z</time>
      </trkpt>
      <trkpt lat="33.97983" lon="77.26017">
        <ele>3299.8</ele>
        <time>2015-09-02T02:08:57Z</time>
      </trkpt>
      <trkpt lat="33.97982" lon="77.26017">
        <ele>3300.2</ele>
        <time>2015-09-02T02:08:59Z</time>
      </trkpt>
      <trkpt lat="33.97979" lon="77.26017">
        <ele>3300.2</ele>
        <time>2015-09-02T02:09:01Z</time>
      </trkpt>
      <trkpt lat="33.97978" lon="77.26018">
        <ele>3300.4</ele>
        <time>2015-09-02T02:09:03Z</time>
      </trkpt>
      <trkpt lat="33.97974" lon="77.26017">
        <ele>3300.8</ele>
        <time>2015-09-02T02:09:06Z</time>
      </trkpt>
      <trkpt lat="33.97971" lon="77.26018">
        <ele>3301.2</ele>
        <time>2015-09-02T02:09:08Z</time>
      </trkpt>
      <trkpt lat="33.9797" lon="77.26019">
        <ele>3301.6</ele>
        <time>2015-09-02T02:09:10Z</time>
      </trkpt>
      <trkpt lat="33.97967" lon="77.2602">
        <ele>3302</ele>
        <time>2015-09-02T02:09:13Z</time>
      </trkpt>
      <trkpt lat="33.97968" lon="77.26023">
        <ele>3302.2</ele>
        <time>2015-09-02T02:09:15Z</time>
      </trkpt>
      <trkpt lat="33.97966" lon="77.2603">
        <ele>3303</ele>
        <time>2015-09-02T02:09:20Z</time>
      </trkpt>
      <trkpt lat="33.9796" lon="77.26032">
        <ele>3303.8</ele>
        <time>2015-09-02T02:09:25Z</time>
      </trkpt>
      <trkpt lat="33.97959" lon="77.26032">
        <ele>3304</ele>
        <time>2015-09-02T02:09:27Z</time>
      </trkpt>
      <trkpt lat="33.97957" lon="77.2603">
        <ele>3304.2</ele>
        <time>2015-09-02T02:09:28Z</time>
      </trkpt>
      <trkpt lat="33.97946" lon="77.26023">
        <ele>3304.4</ele>
        <time>2015-09-02T02:09:31Z</time>
      </trkpt>
      <trkpt lat="33.97945" lon="77.26024">
        <ele>3305.2</ele>
        <time>2015-09-02T02:09:36Z</time>
      </trkpt>
      <trkpt lat="33.97944" lon="77.2603">
        <ele>3305.8</ele>
        <time>2015-09-02T02:09:40Z</time>
      </trkpt>
      <trkpt lat="33.97948" lon="77.26035">
        <ele>3306.2</ele>
        <time>2015-09-02T02:09:44Z</time>
      </trkpt>
      <trkpt lat="33.97948" lon="77.26037">
        <ele>3306.2</ele>
        <time>2015-09-02T02:09:45Z</time>
      </trkpt>
      <trkpt lat="33.97949" lon="77.26041">
        <ele>3306.2</ele>
        <time>2015-09-02T02:09:47Z</time>
      </trkpt>
      <trkpt lat="33.97947" lon="77.26049">
        <ele>3306</ele>
        <time>2015-09-02T02:09:53Z</time>
      </trkpt>
      <trkpt lat="33.97949" lon="77.26051">
        <ele>3306.2</ele>
        <time>2015-09-02T02:09:56Z</time>
      </trkpt>
      <trkpt lat="33.97951" lon="77.26053">
        <ele>3306.4</ele>
        <time>2015-09-02T02:09:58Z</time>
      </trkpt>
      <trkpt lat="33.9795" lon="77.26058">
        <ele>3307</ele>
        <time>2015-09-02T02:10:02Z</time>
      </trkpt>
      <trkpt lat="33.9795" lon="77.26061">
        <ele>3307.2</ele>
        <time>2015-09-02T02:10:04Z</time>
      </trkpt>
      <trkpt lat="33.9795" lon="77.26065">
        <ele>3307.6</ele>
        <time>2015-09-02T02:10:09Z</time>
      </trkpt>
      <trkpt lat="33.97951" lon="77.26067">
        <ele>3308</ele>
        <time>2015-09-02T02:10:12Z</time>
      </trkpt>
      <trkpt lat="33.97952" lon="77.26069">
        <ele>3308.4</ele>
        <time>2015-09-02T02:10:14Z</time>
      </trkpt>
      <trkpt lat="33.97953" lon="77.26078">
        <ele>3309.4</ele>
        <time>2015-09-02T02:10:22Z</time>
      </trkpt>
      <trkpt lat="33.97954" lon="77.26081">
        <ele>3309.4</ele>
        <time>2015-09-02T02:10:24Z</time>
      </trkpt>
      <trkpt lat="33.97954" lon="77.26084">
        <ele>3309.6</ele>
        <time>2015-09-02T02:10:26Z</time>
      </trkpt>
      <trkpt lat="33.97953" lon="77.26091">
        <ele>3310.6</ele>
        <time>2015-09-02T02:10:33Z</time>
      </trkpt>
      <trkpt lat="33.97953" lon="77.26096">
        <ele>3311.6</ele>
        <time>2015-09-02T02:10:43Z</time>
      </trkpt>
      <trkpt lat="33.97954" lon="77.26099">
        <ele>3312.8</ele>
        <time>2015-09-02T02:10:48Z</time>
      </trkpt>
      <trkpt lat="33.97952" lon="77.26104">
        <ele>3313.8</ele>
        <time>2015-09-02T02:10:56Z</time>
      </trkpt>
      <trkpt lat="33.97954" lon="77.2611">
        <ele>3314.8</ele>
        <time>2015-09-02T02:11:03Z</time>
      </trkpt>
      <trkpt lat="33.97956" lon="77.26113">
        <ele>3315.2</ele>
        <time>2015-09-02T02:11:06Z</time>
      </trkpt>
      <trkpt lat="33.97955" lon="77.26118">
        <ele>3315.8</ele>
        <time>2015-09-02T02:11:11Z</time>
      </trkpt>
      <trkpt lat="33.97953" lon="77.26122">
        <ele>3316.2</ele>
        <time>2015-09-02T02:11:16Z</time>
      </trkpt>
      <trkpt lat="33.97954" lon="77.26128">
        <ele>3316.8</ele>
        <time>2015-09-02T02:11:20Z</time>
      </trkpt>
      <trkpt lat="33.97954" lon="77.2613">
        <ele>3316.8</ele>
        <time>2015-09-02T02:11:22Z</time>
      </trkpt>
      <trkpt lat="33.97956" lon="77.26132">
        <ele>3316.8</ele>
        <time>2015-09-02T02:11:24Z</time>
      </trkpt>
      <trkpt lat="33.97956" lon="77.26137">
        <ele>3317.2</ele>
        <time>2015-09-02T02:11:28Z</time>
      </trkpt>
      <trkpt lat="33.97955" lon="77.26139">
        <ele>3318</ele>
        <time>2015-09-02T02:11:32Z</time>
      </trkpt>
      <trkpt lat="33.97956" lon="77.26136">
        <ele>3319</ele>
        <time>2015-09-02T02:11:56Z</time>
      </trkpt>
      <trkpt lat="33.97957" lon="77.26136">
        <ele>3319</ele>
        <time>2015-09-02T02:11:57Z</time>
      </trkpt>
      <trkpt lat="33.97955" lon="77.26129">
        <ele>3318.8</ele>
        <time>2015-09-02T02:12:00Z</time>
      </trkpt>
      <trkpt lat="33.97956" lon="77.26128">
        <ele>3318.8</ele>
        <time>2015-09-02T02:12:03Z</time>
      </trkpt>
      <trkpt lat="33.97957" lon="77.26115">
        <ele>3319</ele>
        <time>2015-09-02T02:12:07Z</time>
      </trkpt>
      <trkpt lat="33.97961" lon="77.26118">
        <ele>3319.4</ele>
        <time>2015-09-02T02:12:17Z</time>
      </trkpt>
      <trkpt lat="33.9796" lon="77.26121">
        <ele>3319.4</ele>
        <time>2015-09-02T02:12:19Z</time>
      </trkpt>
      <trkpt lat="33.9796" lon="77.26127">
        <ele>3319.4</ele>
        <time>2015-09-02T02:12:23Z</time>
      </trkpt>
      <trkpt lat="33.97957" lon="77.26131">
        <ele>3319.2</ele>
        <time>2015-09-02T02:12:26Z</time>
      </trkpt>
      <trkpt lat="33.97955" lon="77.2613">
        <ele>3319.4</ele>
        <time>2015-09-02T02:12:28Z</time>
      </trkpt>
      <trkpt lat="33.97954" lon="77.26135">
        <ele>3320</ele>
        <time>2015-09-02T02:12:32Z</time>
      </trkpt>
      <trkpt lat="33.97953" lon="77.26135">
        <ele>3320</ele>
        <time>2015-09-02T02:12:33Z</time>
      </trkpt>
      <trkpt lat="33.97948" lon="77.26141">
        <ele>3320.6</ele>
        <time>2015-09-02T02:12:41Z</time>
      </trkpt>
      <trkpt lat="33.97948" lon="77.26143">
        <ele>3320.4</ele>
        <time>2015-09-02T02:12:43Z</time>
      </trkpt>
      <trkpt lat="33.97948" lon="77.26147">
        <ele>3320.6</ele>
        <time>2015-09-02T02:12:46Z</time>
      </trkpt>
      <trkpt lat="33.97949" lon="77.26151">
        <ele>3321</ele>
        <time>2015-09-02T02:12:49Z</time>
      </trkpt>
      <trkpt lat="33.97949" lon="77.26151">
        <ele>3321.2</ele>
        <time>2015-09-02T02:12:50Z</time>
      </trkpt>
      <trkpt lat="33.97941" lon="77.26155">
        <ele>3320.4</ele>
        <time>2015-09-02T02:13:01Z</time>
      </trkpt>
      <trkpt lat="33.97939" lon="77.26159">
        <ele>3320.4</ele>
        <time>2015-09-02T02:13:07Z</time>
      </trkpt>
      <trkpt lat="33.97932" lon="77.26175">
        <ele>3322</ele>
        <time>2015-09-02T02:13:30Z</time>
      </trkpt>
      <trkpt lat="33.97932" lon="77.26186">
        <ele>3322.2</ele>
        <time>2015-09-02T02:13:43Z</time>
      </trkpt>
      <trkpt lat="33.97932" lon="77.26188">
        <ele>3322.4</ele>
        <time>2015-09-02T02:13:46Z</time>
      </trkpt>
      <trkpt lat="33.97942" lon="77.26198">
        <ele>3322</ele>
        <time>2015-09-02T02:13:59Z</time>
      </trkpt>
      <trkpt lat="33.97948" lon="77.26205">
        <ele>3321.6</ele>
        <time>2015-09-02T02:14:03Z</time>
      </trkpt>
      <trkpt lat="33.97951" lon="77.26209">
        <ele>3321.6</ele>
        <time>2015-09-02T02:14:05Z</time>
      </trkpt>
      <trkpt lat="33.97956" lon="77.26213">
        <ele>3321.6</ele>
        <time>2015-09-02T02:14:10Z</time>
      </trkpt>
      <trkpt lat="33.97966" lon="77.26224">
        <ele>3321.2</ele>
        <time>2015-09-02T02:14:24Z</time>
      </trkpt>
      <trkpt lat="33.97969" lon="77.26231">
        <ele>3321</ele>
        <time>2015-09-02T02:14:32Z</time>
      </trkpt>
      <trkpt lat="33.97978" lon="77.26251">
        <ele>3320.6</ele>
        <time>2015-09-02T02:14:44Z</time>
      </trkpt>
      <trkpt lat="33.97983" lon="77.26262">
        <ele>3320.6</ele>
        <time>2015-09-02T02:14:55Z</time>
      </trkpt>
      <trkpt lat="33.97985" lon="77.26267">
        <ele>3320.2</ele>
        <time>2015-09-02T02:15:02Z</time>
      </trkpt>
      <trkpt lat="33.97988" lon="77.26268">
        <ele>3319.8</ele>
        <time>2015-09-02T02:15:05Z</time>
      </trkpt>
      <trkpt lat="33.9799" lon="77.26268">
        <ele>3319.8</ele>
        <time>2015-09-02T02:15:07Z</time>
      </trkpt>
      <trkpt lat="33.97993" lon="77.26269">
        <ele>3319.8</ele>
        <time>2015-09-02T02:15:11Z</time>
      </trkpt>
      <trkpt lat="33.97994" lon="77.26278">
        <ele>3319.8</ele>
        <time>2015-09-02T02:15:16Z</time>
      </trkpt>
      <trkpt lat="33.97997" lon="77.26289">
        <ele>3320</ele>
        <time>2015-09-02T02:15:22Z</time>
      </trkpt>
      <trkpt lat="33.98002" lon="77.26303">
        <ele>3320.6</ele>
        <time>2015-09-02T02:15:33Z</time>
      </trkpt>
      <trkpt lat="33.98004" lon="77.26304">
        <ele>3320.8</ele>
        <time>2015-09-02T02:15:35Z</time>
      </trkpt>
      <trkpt lat="33.98006" lon="77.26305">
        <ele>3321.2</ele>
        <time>2015-09-02T02:15:39Z</time>
      </trkpt>
      <trkpt lat="33.98011" lon="77.2632">
        <ele>3322</ele>
        <time>2015-09-02T02:15:52Z</time>
      </trkpt>
      <trkpt lat="33.98012" lon="77.26323">
        <ele>3322.2</ele>
        <time>2015-09-02T02:15:56Z</time>
      </trkpt>
      <trkpt lat="33.98015" lon="77.26333">
        <ele>3322.4</ele>
        <time>2015-09-02T02:16:07Z</time>
      </trkpt>
      <trkpt lat="33.98015" lon="77.26334">
        <ele>3322.4</ele>
        <time>2015-09-02T02:16:10Z</time>
      </trkpt>
      <trkpt lat="33.9802" lon="77.26342">
        <ele>3322.6</ele>
        <time>2015-09-02T02:16:20Z</time>
      </trkpt>
      <trkpt lat="33.98021" lon="77.26347">
        <ele>3322.8</ele>
        <time>2015-09-02T02:16:28Z</time>
      </trkpt>
      <trkpt lat="33.98022" lon="77.26349">
        <ele>3322.8</ele>
        <time>2015-09-02T02:16:30Z</time>
      </trkpt>
      <trkpt lat="33.98024" lon="77.26355">
        <ele>3323.4</ele>
        <time>2015-09-02T02:16:35Z</time>
      </trkpt>
      <trkpt lat="33.98033" lon="77.26357">
        <ele>3324</ele>
        <time>2015-09-02T02:16:49Z</time>
      </trkpt>
      <trkpt lat="33.98038" lon="77.2636">
        <ele>3324.2</ele>
        <time>2015-09-02T02:16:54Z</time>
      </trkpt>
      <trkpt lat="33.9804" lon="77.26362">
        <ele>3324.4</ele>
        <time>2015-09-02T02:16:57Z</time>
      </trkpt>
      <trkpt lat="33.98043" lon="77.26372">
        <ele>3324.4</ele>
        <time>2015-09-02T02:17:01Z</time>
      </trkpt>
      <trkpt lat="33.98051" lon="77.26391">
        <ele>3324.8</ele>
        <time>2015-09-02T02:17:14Z</time>
      </trkpt>
      <trkpt lat="33.98055" lon="77.26398">
        <ele>3325.4</ele>
        <time>2015-09-02T02:17:23Z</time>
      </trkpt>
      <trkpt lat="33.98062" lon="77.26406">
        <ele>3326</ele>
        <time>2015-09-02T02:17:32Z</time>
      </trkpt>
      <trkpt lat="33.98068" lon="77.26408">
        <ele>3326.2</ele>
        <time>2015-09-02T02:17:38Z</time>
      </trkpt>
      <trkpt lat="33.98067" lon="77.2641">
        <ele>3326.4</ele>
        <time>2015-09-02T02:17:40Z</time>
      </trkpt>
      <trkpt lat="33.98071" lon="77.26414">
        <ele>3326.4</ele>
        <time>2015-09-02T02:17:45Z</time>
      </trkpt>
      <trkpt lat="33.98071" lon="77.2642">
        <ele>3326.2</ele>
        <time>2015-09-02T02:17:49Z</time>
      </trkpt>
      <trkpt lat="33.98073" lon="77.2642">
        <ele>3326.2</ele>
        <time>2015-09-02T02:17:51Z</time>
      </trkpt>
      <trkpt lat="33.98072" lon="77.2643">
        <ele>3327.4</ele>
        <time>2015-09-02T02:18:14Z</time>
      </trkpt>
      <trkpt lat="33.98074" lon="77.2644">
        <ele>3327.6</ele>
        <time>2015-09-02T02:18:20Z</time>
      </trkpt>
      <trkpt lat="33.98079" lon="77.26448">
        <ele>3327.6</ele>
        <time>2015-09-02T02:18:23Z</time>
      </trkpt>
      <trkpt lat="33.9808" lon="77.2645">
        <ele>3327.6</ele>
        <time>2015-09-02T02:18:25Z</time>
      </trkpt>
      <trkpt lat="33.9808" lon="77.26454">
        <ele>3327.6</ele>
        <time>2015-09-02T02:18:28Z</time>
      </trkpt>
      <trkpt lat="33.98079" lon="77.26459">
        <ele>3327.8</ele>
        <time>2015-09-02T02:18:35Z</time>
      </trkpt>
      <trkpt lat="33.98079" lon="77.26462">
        <ele>3327.8</ele>
        <time>2015-09-02T02:18:37Z</time>
      </trkpt>
      <trkpt lat="33.9808" lon="77.26464">
        <ele>3327.8</ele>
        <time>2015-09-02T02:18:39Z</time>
      </trkpt>
      <trkpt lat="33.98097" lon="77.26477">
        <ele>3328.2</ele>
        <time>2015-09-02T02:18:54Z</time>
      </trkpt>
      <trkpt lat="33.98097" lon="77.26481">
        <ele>3328.2</ele>
        <time>2015-09-02T02:19:00Z</time>
      </trkpt>
      <trkpt lat="33.98099" lon="77.26488">
        <ele>3328.4</ele>
        <time>2015-09-02T02:19:04Z</time>
      </trkpt>
      <trkpt lat="33.98105" lon="77.26509">
        <ele>3329</ele>
        <time>2015-09-02T02:19:18Z</time>
      </trkpt>
      <trkpt lat="33.98107" lon="77.26514">
        <ele>3329.4</ele>
        <time>2015-09-02T02:19:24Z</time>
      </trkpt>
      <trkpt lat="33.98106" lon="77.26524">
        <ele>3329.8</ele>
        <time>2015-09-02T02:19:40Z</time>
      </trkpt>
      <trkpt lat="33.9812" lon="77.26542">
        <ele>3329.8</ele>
        <time>2015-09-02T02:19:49Z</time>
      </trkpt>
      <trkpt lat="33.98114" lon="77.26542">
        <ele>3329.8</ele>
        <time>2015-09-02T02:19:51Z</time>
      </trkpt>
      <trkpt lat="33.9811" lon="77.26542">
        <ele>3329.8</ele>
        <time>2015-09-02T02:19:53Z</time>
      </trkpt>
      <trkpt lat="33.98109" lon="77.26546">
        <ele>3329.8</ele>
        <time>2015-09-02T02:19:56Z</time>
      </trkpt>
      <trkpt lat="33.98114" lon="77.26552">
        <ele>3330.2</ele>
        <time>2015-09-02T02:20:06Z</time>
      </trkpt>
      <trkpt lat="33.98109" lon="77.26551">
        <ele>3330.2</ele>
        <time>2015-09-02T02:20:08Z</time>
      </trkpt>
      <trkpt lat="33.98107" lon="77.26556">
        <ele>3330.4</ele>
        <time>2015-09-02T02:20:16Z</time>
      </trkpt>
      <trkpt lat="33.98112" lon="77.26566">
        <ele>3330.6</ele>
        <time>2015-09-02T02:20:24Z</time>
      </trkpt>
      <trkpt lat="33.98111" lon="77.26587">
        <ele>3331.2</ele>
        <time>2015-09-02T02:20:42Z</time>
      </trkpt>
      <trkpt lat="33.9811" lon="77.26592">
        <ele>3331.4</ele>
        <time>2015-09-02T02:20:46Z</time>
      </trkpt>
      <trkpt lat="33.9811" lon="77.26598">
        <ele>3331.6</ele>
        <time>2015-09-02T02:20:52Z</time>
      </trkpt>
      <trkpt lat="33.98113" lon="77.26607">
        <ele>3331.8</ele>
        <time>2015-09-02T02:20:57Z</time>
      </trkpt>
      <trkpt lat="33.98117" lon="77.26624">
        <ele>3332.4</ele>
        <time>2015-09-02T02:21:11Z</time>
      </trkpt>
      <trkpt lat="33.98118" lon="77.26624">
        <ele>3332.4</ele>
        <time>2015-09-02T02:21:12Z</time>
      </trkpt>
      <trkpt lat="33.98122" lon="77.26628">
        <ele>3333.6</ele>
        <time>2015-09-02T02:21:19Z</time>
      </trkpt>
      <trkpt lat="33.98126" lon="77.26632">
        <ele>3334.6</ele>
        <time>2015-09-02T02:21:24Z</time>
      </trkpt>
      <trkpt lat="33.98125" lon="77.26633">
        <ele>3335</ele>
        <time>2015-09-02T02:21:27Z</time>
      </trkpt>
      <trkpt lat="33.98123" lon="77.26635">
        <ele>3335.2</ele>
        <time>2015-09-02T02:21:29Z</time>
      </trkpt>
      <trkpt lat="33.98122" lon="77.26637">
        <ele>3335.4</ele>
        <time>2015-09-02T02:21:31Z</time>
      </trkpt>
      <trkpt lat="33.9813" lon="77.26658">
        <ele>3335</ele>
        <time>2015-09-02T02:21:44Z</time>
      </trkpt>
      <trkpt lat="33.98129" lon="77.26663">
        <ele>3335</ele>
        <time>2015-09-02T02:21:48Z</time>
      </trkpt>
      <trkpt lat="33.98125" lon="77.26677">
        <ele>3334.8</ele>
        <time>2015-09-02T02:22:00Z</time>
      </trkpt>
      <trkpt lat="33.98126" lon="77.26685">
        <ele>3335.6</ele>
        <time>2015-09-02T02:22:06Z</time>
      </trkpt>
      <trkpt lat="33.98125" lon="77.2669">
        <ele>3336.8</ele>
        <time>2015-09-02T02:22:13Z</time>
      </trkpt>
      <trkpt lat="33.98127" lon="77.26693">
        <ele>3337</ele>
        <time>2015-09-02T02:22:19Z</time>
      </trkpt>
      <trkpt lat="33.98128" lon="77.2671">
        <ele>3336</ele>
        <time>2015-09-02T02:22:33Z</time>
      </trkpt>
      <trkpt lat="33.98129" lon="77.26712">
        <ele>3336.2</ele>
        <time>2015-09-02T02:22:35Z</time>
      </trkpt>
      <trkpt lat="33.98127" lon="77.26714">
        <ele>3336.4</ele>
        <time>2015-09-02T02:22:37Z</time>
      </trkpt>
      <trkpt lat="33.98122" lon="77.26735">
        <ele>3337.6</ele>
        <time>2015-09-02T02:22:54Z</time>
      </trkpt>
      <trkpt lat="33.98117" lon="77.26753">
        <ele>3337.8</ele>
        <time>2015-09-02T02:23:08Z</time>
      </trkpt>
      <trkpt lat="33.98117" lon="77.26755">
        <ele>3338.2</ele>
        <time>2015-09-02T02:23:10Z</time>
      </trkpt>
      <trkpt lat="33.98118" lon="77.26757">
        <ele>3338.2</ele>
        <time>2015-09-02T02:23:13Z</time>
      </trkpt>
      <trkpt lat="33.98117" lon="77.26757">
        <ele>3338.2</ele>
        <time>2015-09-02T02:23:15Z</time>
      </trkpt>
      <trkpt lat="33.98115" lon="77.26756">
        <ele>3338.2</ele>
        <time>2015-09-02T02:23:18Z</time>
      </trkpt>
      <trkpt lat="33.98105" lon="77.26773">
        <ele>3338.6</ele>
        <time>2015-09-02T02:23:33Z</time>
      </trkpt>
      <trkpt lat="33.98104" lon="77.2678">
        <ele>3338.6</ele>
        <time>2015-09-02T02:23:39Z</time>
      </trkpt>
      <trkpt lat="33.98098" lon="77.26797">
        <ele>3339</ele>
        <time>2015-09-02T02:23:52Z</time>
      </trkpt>
      <trkpt lat="33.98094" lon="77.26806">
        <ele>3339.2</ele>
        <time>2015-09-02T02:24:01Z</time>
      </trkpt>
      <trkpt lat="33.98092" lon="77.26808">
        <ele>3339.2</ele>
        <time>2015-09-02T02:24:03Z</time>
      </trkpt>
      <trkpt lat="33.98088" lon="77.2681">
        <ele>3339.2</ele>
        <time>2015-09-02T02:24:07Z</time>
      </trkpt>
      <trkpt lat="33.98085" lon="77.26811">
        <ele>3339.2</ele>
        <time>2015-09-02T02:24:12Z</time>
      </trkpt>
      <trkpt lat="33.98084" lon="77.26813">
        <ele>3339.2</ele>
        <time>2015-09-02T02:24:14Z</time>
      </trkpt>
      <trkpt lat="33.98078" lon="77.26819">
        <ele>3339</ele>
        <time>2015-09-02T02:24:22Z</time>
      </trkpt>
      <trkpt lat="33.98077" lon="77.2682">
        <ele>3339</ele>
        <time>2015-09-02T02:24:24Z</time>
      </trkpt>
      <trkpt lat="33.98077" lon="77.26818">
        <ele>3339</ele>
        <time>2015-09-02T02:24:30Z</time>
      </trkpt>
      <trkpt lat="33.98079" lon="77.26821">
        <ele>3339</ele>
        <time>2015-09-02T02:24:34Z</time>
      </trkpt>
      <trkpt lat="33.9809" lon="77.26824">
        <ele>3339.2</ele>
        <time>2015-09-02T02:24:39Z</time>
      </trkpt>
      <trkpt lat="33.98086" lon="77.26826">
        <ele>3339.4</ele>
        <time>2015-09-02T02:24:43Z</time>
      </trkpt>
      <trkpt lat="33.98093" lon="77.26831">
        <ele>3339.6</ele>
        <time>2015-09-02T02:24:48Z</time>
      </trkpt>
      <trkpt lat="33.98093" lon="77.26831">
        <ele>3339.6</ele>
        <time>2015-09-02T02:24:50Z</time>
      </trkpt>
      <trkpt lat="33.9808" lon="77.26834">
        <ele>3339.4</ele>
        <time>2015-09-02T02:25:00Z</time>
      </trkpt>
      <trkpt lat="33.9808" lon="77.26835">
        <ele>3339.4</ele>
        <time>2015-09-02T02:25:01Z</time>
      </trkpt>
      <trkpt lat="33.98075" lon="77.2683">
        <ele>3339.6</ele>
        <time>2015-09-02T02:25:07Z</time>
      </trkpt>
      <trkpt lat="33.98075" lon="77.26826">
        <ele>3339.8</ele>
        <time>2015-09-02T02:25:40Z</time>
      </trkpt>
      <trkpt lat="33.98079" lon="77.26822">
        <ele>3339.8</ele>
        <time>2015-09-02T02:25:46Z</time>
      </trkpt>
      <trkpt lat="33.98077" lon="77.2682">
        <ele>3340</ele>
        <time>2015-09-02T02:25:48Z</time>
      </trkpt>
      <trkpt lat="33.98075" lon="77.26818">
        <ele>3340</ele>
        <time>2015-09-02T02:25:49Z</time>
      </trkpt>
      <trkpt lat="33.98073" lon="77.26817">
        <ele>3340</ele>
        <time>2015-09-02T02:25:50Z</time>
      </trkpt>
      <trkpt lat="33.9807" lon="77.26816">
        <ele>3340</ele>
        <time>2015-09-02T02:25:52Z</time>
      </trkpt>
      <trkpt lat="33.98072" lon="77.26816">
        <ele>3339.8</ele>
        <time>2015-09-02T02:25:55Z</time>
      </trkpt>
      <trkpt lat="33.98072" lon="77.26823">
        <ele>3340.2</ele>
        <time>2015-09-02T02:26:00Z</time>
      </trkpt>
      <trkpt lat="33.98072" lon="77.26827">
        <ele>3341.2</ele>
        <time>2015-09-02T02:26:04Z</time>
      </trkpt>
      <trkpt lat="33.9807" lon="77.26836">
        <ele>3342.2</ele>
        <time>2015-09-02T02:26:13Z</time>
      </trkpt>
      <trkpt lat="33.9807" lon="77.26838">
        <ele>3342</ele>
        <time>2015-09-02T02:26:15Z</time>
      </trkpt>
      <trkpt lat="33.9807" lon="77.26846">
        <ele>3341.8</ele>
        <time>2015-09-02T02:26:21Z</time>
      </trkpt>
      <trkpt lat="33.98071" lon="77.26858">
        <ele>3341.4</ele>
        <time>2015-09-02T02:26:31Z</time>
      </trkpt>
      <trkpt lat="33.98074" lon="77.26862">
        <ele>3341.2</ele>
        <time>2015-09-02T02:26:36Z</time>
      </trkpt>
      <trkpt lat="33.98084" lon="77.26873">
        <ele>3341.6</ele>
        <time>2015-09-02T02:26:45Z</time>
      </trkpt>
      <trkpt lat="33.98082" lon="77.26887">
        <ele>3342</ele>
        <time>2015-09-02T02:26:56Z</time>
      </trkpt>
      <trkpt lat="33.98079" lon="77.26888">
        <ele>3342.2</ele>
        <time>2015-09-02T02:27:00Z</time>
      </trkpt>
      <trkpt lat="33.98078" lon="77.26895">
        <ele>3342.6</ele>
        <time>2015-09-02T02:27:06Z</time>
      </trkpt>
      <trkpt lat="33.98076" lon="77.26903">
        <ele>3343.2</ele>
        <time>2015-09-02T02:27:11Z</time>
      </trkpt>
      <trkpt lat="33.98074" lon="77.26908">
        <ele>3344</ele>
        <time>2015-09-02T02:27:17Z</time>
      </trkpt>
      <trkpt lat="33.98072" lon="77.26917">
        <ele>3344</ele>
        <time>2015-09-02T02:27:23Z</time>
      </trkpt>
      <trkpt lat="33.98071" lon="77.26928">
        <ele>3343.8</ele>
        <time>2015-09-02T02:27:32Z</time>
      </trkpt>
      <trkpt lat="33.98072" lon="77.26932">
        <ele>3343.6</ele>
        <time>2015-09-02T02:27:35Z</time>
      </trkpt>
      <trkpt lat="33.98069" lon="77.26941">
        <ele>3344.4</ele>
        <time>2015-09-02T02:27:43Z</time>
      </trkpt>
      <trkpt lat="33.98068" lon="77.26945">
        <ele>3344.8</ele>
        <time>2015-09-02T02:27:46Z</time>
      </trkpt>
      <trkpt lat="33.98058" lon="77.2695">
        <ele>3345</ele>
        <time>2015-09-02T02:27:55Z</time>
      </trkpt>
      <trkpt lat="33.98052" lon="77.26956">
        <ele>3345.2</ele>
        <time>2015-09-02T02:28:03Z</time>
      </trkpt>
      <trkpt lat="33.9805" lon="77.26958">
        <ele>3345.4</ele>
        <time>2015-09-02T02:28:05Z</time>
      </trkpt>
      <trkpt lat="33.98049" lon="77.26958">
        <ele>3345.4</ele>
        <time>2015-09-02T02:28:06Z</time>
      </trkpt>
      <trkpt lat="33.98046" lon="77.26963">
        <ele>3345.6</ele>
        <time>2015-09-02T02:28:10Z</time>
      </trkpt>
      <trkpt lat="33.98044" lon="77.26968">
        <ele>3345.2</ele>
        <time>2015-09-02T02:28:15Z</time>
      </trkpt>
      <trkpt lat="33.98043" lon="77.26972">
        <ele>3345.4</ele>
        <time>2015-09-02T02:28:19Z</time>
      </trkpt>
      <trkpt lat="33.98041" lon="77.26976">
        <ele>3345.6</ele>
        <time>2015-09-02T02:28:24Z</time>
      </trkpt>
      <trkpt lat="33.98039" lon="77.26981">
        <ele>3345.6</ele>
        <time>2015-09-02T02:28:28Z</time>
      </trkpt>
      <trkpt lat="33.98038" lon="77.26991">
        <ele>3345.6</ele>
        <time>2015-09-02T02:28:33Z</time>
      </trkpt>
      <trkpt lat="33.98037" lon="77.26998">
        <ele>3346.4</ele>
        <time>2015-09-02T02:28:38Z</time>
      </trkpt>
      <trkpt lat="33.98037" lon="77.26999">
        <ele>3346.6</ele>
        <time>2015-09-02T02:28:39Z</time>
      </trkpt>
      <trkpt lat="33.98034" lon="77.27014">
        <ele>3346.6</ele>
        <time>2015-09-02T02:28:50Z</time>
      </trkpt>
      <trkpt lat="33.98035" lon="77.27023">
        <ele>3346.4</ele>
        <time>2015-09-02T02:28:56Z</time>
      </trkpt>
      <trkpt lat="33.98034" lon="77.27025">
        <ele>3346.2</ele>
        <time>2015-09-02T02:28:58Z</time>
      </trkpt>
      <trkpt lat="33.98034" lon="77.27028">
        <ele>3346.2</ele>
        <time>2015-09-02T02:29:00Z</time>
      </trkpt>
      <trkpt lat="33.98033" lon="77.2703">
        <ele>3346.4</ele>
        <time>2015-09-02T02:29:02Z</time>
      </trkpt>
      <trkpt lat="33.98033" lon="77.27031">
        <ele>3346.6</ele>
        <time>2015-09-02T02:29:03Z</time>
      </trkpt>
      <trkpt lat="33.98033" lon="77.27032">
        <ele>3346.6</ele>
        <time>2015-09-02T02:29:04Z</time>
      </trkpt>
      <trkpt lat="33.98028" lon="77.27041">
        <ele>3346.8</ele>
        <time>2015-09-02T02:29:11Z</time>
      </trkpt>
      <trkpt lat="33.98025" lon="77.27048">
        <ele>3346.4</ele>
        <time>2015-09-02T02:29:15Z</time>
      </trkpt>
      <trkpt lat="33.98023" lon="77.27052">
        <ele>3346.4</ele>
        <time>2015-09-02T02:29:19Z</time>
      </trkpt>
      <trkpt lat="33.98022" lon="77.27056">
        <ele>3346.2</ele>
        <time>2015-09-02T02:29:23Z</time>
      </trkpt>
      <trkpt lat="33.98018" lon="77.27063">
        <ele>3347.2</ele>
        <time>2015-09-02T02:29:30Z</time>
      </trkpt>
      <trkpt lat="33.98016" lon="77.27066">
        <ele>3347.6</ele>
        <time>2015-09-02T02:29:33Z</time>
      </trkpt>
      <trkpt lat="33.98012" lon="77.27088">
        <ele>3347.4</ele>
        <time>2015-09-02T02:29:46Z</time>
      </trkpt>
      <trkpt lat="33.98012" lon="77.27094">
        <ele>3347.6</ele>
        <time>2015-09-02T02:29:49Z</time>
      </trkpt>
      <trkpt lat="33.9801" lon="77.27113">
        <ele>3348</ele>
        <time>2015-09-02T02:30:05Z</time>
      </trkpt>
      <trkpt lat="33.98009" lon="77.27119">
        <ele>3348.4</ele>
        <time>2015-09-02T02:30:11Z</time>
      </trkpt>
      <trkpt lat="33.98007" lon="77.27126">
        <ele>3348.6</ele>
        <time>2015-09-02T02:30:17Z</time>
      </trkpt>
      <trkpt lat="33.98006" lon="77.27128">
        <ele>3348.8</ele>
        <time>2015-09-02T02:30:19Z</time>
      </trkpt>
      <trkpt lat="33.98005" lon="77.27131">
        <ele>3349</ele>
        <time>2015-09-02T02:30:22Z</time>
      </trkpt>
      <trkpt lat="33.98004" lon="77.27135">
        <ele>3349</ele>
        <time>2015-09-02T02:30:25Z</time>
      </trkpt>
      <trkpt lat="33.97997" lon="77.27144">
        <ele>3349.2</ele>
        <time>2015-09-02T02:30:34Z</time>
      </trkpt>
      <trkpt lat="33.97991" lon="77.27155">
        <ele>3349.2</ele>
        <time>2015-09-02T02:30:42Z</time>
      </trkpt>
      <trkpt lat="33.97991" lon="77.27159">
        <ele>3349.2</ele>
        <time>2015-09-02T02:30:44Z</time>
      </trkpt>
      <trkpt lat="33.97988" lon="77.27176">
        <ele>3349.6</ele>
        <time>2015-09-02T02:30:57Z</time>
      </trkpt>
      <trkpt lat="33.97985" lon="77.27181">
        <ele>3349.8</ele>
        <time>2015-09-02T02:31:02Z</time>
      </trkpt>
      <trkpt lat="33.97982" lon="77.27182">
        <ele>3350</ele>
        <time>2015-09-02T02:31:06Z</time>
      </trkpt>
      <trkpt lat="33.97977" lon="77.27182">
        <ele>3350.6</ele>
        <time>2015-09-02T02:31:11Z</time>
      </trkpt>
      <trkpt lat="33.97977" lon="77.27182">
        <ele>3350.6</ele>
        <time>2015-09-02T02:31:12Z</time>
      </trkpt>
      <trkpt lat="33.97975" lon="77.27186">
        <ele>3350.6</ele>
        <time>2015-09-02T02:31:15Z</time>
      </trkpt>
      <trkpt lat="33.97971" lon="77.27188">
        <ele>3350.6</ele>
        <time>2015-09-02T02:31:19Z</time>
      </trkpt>
      <trkpt lat="33.97968" lon="77.2719">
        <ele>3350.6</ele>
        <time>2015-09-02T02:31:22Z</time>
      </trkpt>
      <trkpt lat="33.97966" lon="77.27196">
        <ele>3350.6</ele>
        <time>2015-09-02T02:31:26Z</time>
      </trkpt>
      <trkpt lat="33.97954" lon="77.27201">
        <ele>3348.8</ele>
        <time>2015-09-02T02:31:40Z</time>
      </trkpt>
      <trkpt lat="33.97947" lon="77.27211">
        <ele>3348.6</ele>
        <time>2015-09-02T02:31:51Z</time>
      </trkpt>
      <trkpt lat="33.97946" lon="77.2722">
        <ele>3349.4</ele>
        <time>2015-09-02T02:31:57Z</time>
      </trkpt>
      <trkpt lat="33.97948" lon="77.27227">
        <ele>3349.6</ele>
        <time>2015-09-02T02:32:04Z</time>
      </trkpt>
      <trkpt lat="33.97949" lon="77.2723">
        <ele>3349.8</ele>
        <time>2015-09-02T02:32:07Z</time>
      </trkpt>
      <trkpt lat="33.97948" lon="77.27233">
        <ele>3350</ele>
        <time>2015-09-02T02:32:13Z</time>
      </trkpt>
      <trkpt lat="33.97944" lon="77.27225">
        <ele>3350.8</ele>
        <time>2015-09-02T02:32:21Z</time>
      </trkpt>
      <trkpt lat="33.97941" lon="77.27225">
        <ele>3350.8</ele>
        <time>2015-09-02T02:32:23Z</time>
      </trkpt>
      <trkpt lat="33.9794" lon="77.27228">
        <ele>3350.6</ele>
        <time>2015-09-02T02:32:25Z</time>
      </trkpt>
      <trkpt lat="33.97944" lon="77.27236">
        <ele>3351</ele>
        <time>2015-09-02T02:32:30Z</time>
      </trkpt>
      <trkpt lat="33.97944" lon="77.27237">
        <ele>3351</ele>
        <time>2015-09-02T02:32:31Z</time>
      </trkpt>
      <trkpt lat="33.97946" lon="77.2724">
        <ele>3351.2</ele>
        <time>2015-09-02T02:32:33Z</time>
      </trkpt>
      <trkpt lat="33.97953" lon="77.27245">
        <ele>3351.2</ele>
        <time>2015-09-02T02:32:39Z</time>
      </trkpt>
      <trkpt lat="33.97958" lon="77.27247">
        <ele>3351.4</ele>
        <time>2015-09-02T02:32:44Z</time>
      </trkpt>
      <trkpt lat="33.97964" lon="77.27252">
        <ele>3351.6</ele>
        <time>2015-09-02T02:32:49Z</time>
      </trkpt>
      <trkpt lat="33.9797" lon="77.27272">
        <ele>3352</ele>
        <time>2015-09-02T02:33:00Z</time>
      </trkpt>
      <trkpt lat="33.97967" lon="77.27284">
        <ele>3353</ele>
        <time>2015-09-02T02:33:11Z</time>
      </trkpt>
      <trkpt lat="33.97967" lon="77.27285">
        <ele>3353</ele>
        <time>2015-09-02T02:33:12Z</time>
      </trkpt>
      <trkpt lat="33.97968" lon="77.27298">
        <ele>3353.4</ele>
        <time>2015-09-02T02:33:22Z</time>
      </trkpt>
      <trkpt lat="33.97961" lon="77.27319">
        <ele>3353.8</ele>
        <time>2015-09-02T02:33:38Z</time>
      </trkpt>
      <trkpt lat="33.97958" lon="77.27324">
        <ele>3353.4</ele>
        <time>2015-09-02T02:33:42Z</time>
      </trkpt>
      <trkpt lat="33.97957" lon="77.27326">
        <ele>3353.4</ele>
        <time>2015-09-02T02:33:44Z</time>
      </trkpt>
      <trkpt lat="33.97952" lon="77.27336">
        <ele>3354.2</ele>
        <time>2015-09-02T02:33:53Z</time>
      </trkpt>
      <trkpt lat="33.97946" lon="77.27344">
        <ele>3354.2</ele>
        <time>2015-09-02T02:34:01Z</time>
      </trkpt>
      <trkpt lat="33.97941" lon="77.27346">
        <ele>3354.2</ele>
        <time>2015-09-02T02:34:06Z</time>
      </trkpt>
      <trkpt lat="33.97936" lon="77.27351">
        <ele>3354.4</ele>
        <time>2015-09-02T02:34:10Z</time>
      </trkpt>
      <trkpt lat="33.97934" lon="77.27352">
        <ele>3354.6</ele>
        <time>2015-09-02T02:34:12Z</time>
      </trkpt>
      <trkpt lat="33.97929" lon="77.27354">
        <ele>3355</ele>
        <time>2015-09-02T02:34:18Z</time>
      </trkpt>
      <trkpt lat="33.97925" lon="77.2736">
        <ele>3354.8</ele>
        <time>2015-09-02T02:34:24Z</time>
      </trkpt>
      <trkpt lat="33.97913" lon="77.27379">
        <ele>3354</ele>
        <time>2015-09-02T02:34:39Z</time>
      </trkpt>
      <trkpt lat="33.97904" lon="77.27398">
        <ele>3354</ele>
        <time>2015-09-02T02:34:51Z</time>
      </trkpt>
      <trkpt lat="33.97902" lon="77.27404">
        <ele>3353.8</ele>
        <time>2015-09-02T02:34:56Z</time>
      </trkpt>
      <trkpt lat="33.97895" lon="77.27414">
        <ele>3354.4</ele>
        <time>2015-09-02T02:35:08Z</time>
      </trkpt>
      <trkpt lat="33.97893" lon="77.27416">
        <ele>3354.4</ele>
        <time>2015-09-02T02:35:10Z</time>
      </trkpt>
      <trkpt lat="33.9789" lon="77.27418">
        <ele>3354.6</ele>
        <time>2015-09-02T02:35:13Z</time>
      </trkpt>
      <trkpt lat="33.97885" lon="77.27421">
        <ele>3354.8</ele>
        <time>2015-09-02T02:35:17Z</time>
      </trkpt>
      <trkpt lat="33.97871" lon="77.27435">
        <ele>3355</ele>
        <time>2015-09-02T02:35:34Z</time>
      </trkpt>
      <trkpt lat="33.97868" lon="77.2744">
        <ele>3355.2</ele>
        <time>2015-09-02T02:35:38Z</time>
      </trkpt>
      <trkpt lat="33.97858" lon="77.27457">
        <ele>3355.2</ele>
        <time>2015-09-02T02:35:51Z</time>
      </trkpt>
      <trkpt lat="33.97848" lon="77.27475">
        <ele>3355.2</ele>
        <time>2015-09-02T02:36:07Z</time>
      </trkpt>
      <trkpt lat="33.97836" lon="77.27491">
        <ele>3355.4</ele>
        <time>2015-09-02T02:36:24Z</time>
      </trkpt>
      <trkpt lat="33.97834" lon="77.27494">
        <ele>3355.6</ele>
        <time>2015-09-02T02:36:26Z</time>
      </trkpt>
      <trkpt lat="33.9783" lon="77.27501">
        <ele>3356.2</ele>
        <time>2015-09-02T02:36:35Z</time>
      </trkpt>
      <trkpt lat="33.97829" lon="77.27508">
        <ele>3356.4</ele>
        <time>2015-09-02T02:36:39Z</time>
      </trkpt>
      <trkpt lat="33.97826" lon="77.27517">
        <ele>3357.2</ele>
        <time>2015-09-02T02:36:46Z</time>
      </trkpt>
      <trkpt lat="33.97823" lon="77.27521">
        <ele>3358.2</ele>
        <time>2015-09-02T02:36:54Z</time>
      </trkpt>
      <trkpt lat="33.9782" lon="77.27523">
        <ele>3358.6</ele>
        <time>2015-09-02T02:36:58Z</time>
      </trkpt>
      <trkpt lat="33.97807" lon="77.27538">
        <ele>3357.6</ele>
        <time>2015-09-02T02:37:14Z</time>
      </trkpt>
      <trkpt lat="33.97803" lon="77.27546">
        <ele>3357.2</ele>
        <time>2015-09-02T02:37:20Z</time>
      </trkpt>
      <trkpt lat="33.97787" lon="77.2756">
        <ele>3356.8</ele>
        <time>2015-09-02T02:37:38Z</time>
      </trkpt>
      <trkpt lat="33.97785" lon="77.27566">
        <ele>3356.8</ele>
        <time>2015-09-02T02:37:43Z</time>
      </trkpt>
      <trkpt lat="33.97779" lon="77.27565">
        <ele>3357</ele>
        <time>2015-09-02T02:37:48Z</time>
      </trkpt>
      <trkpt lat="33.97766" lon="77.27567">
        <ele>3357.6</ele>
        <time>2015-09-02T02:37:55Z</time>
      </trkpt>
      <trkpt lat="33.97764" lon="77.27566">
        <ele>3357.8</ele>
        <time>2015-09-02T02:37:58Z</time>
      </trkpt>
      <trkpt lat="33.97761" lon="77.27572">
        <ele>3357.8</ele>
        <time>2015-09-02T02:38:06Z</time>
      </trkpt>
      <trkpt lat="33.97751" lon="77.27587">
        <ele>3357.8</ele>
        <time>2015-09-02T02:38:24Z</time>
      </trkpt>
      <trkpt lat="33.97747" lon="77.27587">
        <ele>3357.8</ele>
        <time>2015-09-02T02:38:29Z</time>
      </trkpt>
      <trkpt lat="33.97746" lon="77.27591">
        <ele>3358</ele>
        <time>2015-09-02T02:38:32Z</time>
      </trkpt>
      <trkpt lat="33.97745" lon="77.27592">
        <ele>3358.2</ele>
        <time>2015-09-02T02:38:34Z</time>
      </trkpt>
      <trkpt lat="33.97743" lon="77.27601">
        <ele>3359</ele>
        <time>2015-09-02T02:38:39Z</time>
      </trkpt>
      <trkpt lat="33.97743" lon="77.27603">
        <ele>3359.2</ele>
        <time>2015-09-02T02:38:41Z</time>
      </trkpt>
      <trkpt lat="33.97742" lon="77.27607">
        <ele>3359.8</ele>
        <time>2015-09-02T02:38:45Z</time>
      </trkpt>
      <trkpt lat="33.97738" lon="77.27612">
        <ele>3360.4</ele>
        <time>2015-09-02T02:38:50Z</time>
      </trkpt>
      <trkpt lat="33.97737" lon="77.27614">
        <ele>3360.6</ele>
        <time>2015-09-02T02:38:52Z</time>
      </trkpt>
      <trkpt lat="33.97738" lon="77.27622">
        <ele>3361.4</ele>
        <time>2015-09-02T02:38:59Z</time>
      </trkpt>
      <trkpt lat="33.97735" lon="77.27628">
        <ele>3362.4</ele>
        <time>2015-09-02T02:39:07Z</time>
      </trkpt>
      <trkpt lat="33.97733" lon="77.2763">
        <ele>3362.6</ele>
        <time>2015-09-02T02:39:09Z</time>
      </trkpt>
      <trkpt lat="33.97731" lon="77.2763">
        <ele>3363</ele>
        <time>2015-09-02T02:39:12Z</time>
      </trkpt>
      <trkpt lat="33.97728" lon="77.2763">
        <ele>3363.4</ele>
        <time>2015-09-02T02:39:15Z</time>
      </trkpt>
      <trkpt lat="33.97728" lon="77.2763">
        <ele>3363.6</ele>
        <time>2015-09-02T02:39:16Z</time>
      </trkpt>
      <trkpt lat="33.97728" lon="77.27641">
        <ele>3364.2</ele>
        <time>2015-09-02T02:39:34Z</time>
      </trkpt>
      <trkpt lat="33.97729" lon="77.27649">
        <ele>3363.8</ele>
        <time>2015-09-02T02:39:43Z</time>
      </trkpt>
      <trkpt lat="33.97727" lon="77.27653">
        <ele>3363.4</ele>
        <time>2015-09-02T02:39:46Z</time>
      </trkpt>
      <trkpt lat="33.97722" lon="77.27658">
        <ele>3362.6</ele>
        <time>2015-09-02T02:39:53Z</time>
      </trkpt>
      <trkpt lat="33.97718" lon="77.27658">
        <ele>3362.4</ele>
        <time>2015-09-02T02:39:56Z</time>
      </trkpt>
      <trkpt lat="33.97715" lon="77.27662">
        <ele>3362</ele>
        <time>2015-09-02T02:40:01Z</time>
      </trkpt>
      <trkpt lat="33.97714" lon="77.27665">
        <ele>3361.8</ele>
        <time>2015-09-02T02:40:04Z</time>
      </trkpt>
      <trkpt lat="33.97707" lon="77.27669">
        <ele>3361.4</ele>
        <time>2015-09-02T02:40:11Z</time>
      </trkpt>
      <trkpt lat="33.97694" lon="77.27686">
        <ele>3361.2</ele>
        <time>2015-09-02T02:40:26Z</time>
      </trkpt>
      <trkpt lat="33.97683" lon="77.277">
        <ele>3360.4</ele>
        <time>2015-09-02T02:40:40Z</time>
      </trkpt>
      <trkpt lat="33.97674" lon="77.27699">
        <ele>3360.6</ele>
        <time>2015-09-02T02:40:48Z</time>
      </trkpt>
      <trkpt lat="33.97671" lon="77.27698">
        <ele>3361</ele>
        <time>2015-09-02T02:40:51Z</time>
      </trkpt>
      <trkpt lat="33.97665" lon="77.27703">
        <ele>3361.2</ele>
        <time>2015-09-02T02:41:02Z</time>
      </trkpt>
      <trkpt lat="33.97664" lon="77.27708">
        <ele>3361.2</ele>
        <time>2015-09-02T02:41:04Z</time>
      </trkpt>
      <trkpt lat="33.97659" lon="77.27726">
        <ele>3360.4</ele>
        <time>2015-09-02T02:41:15Z</time>
      </trkpt>
      <trkpt lat="33.97657" lon="77.2773">
        <ele>3360.4</ele>
        <time>2015-09-02T02:41:18Z</time>
      </trkpt>
      <trkpt lat="33.97652" lon="77.27734">
        <ele>3360.4</ele>
        <time>2015-09-02T02:41:24Z</time>
      </trkpt>
      <trkpt lat="33.97637" lon="77.27744">
        <ele>3360.4</ele>
        <time>2015-09-02T02:41:40Z</time>
      </trkpt>
      <trkpt lat="33.97637" lon="77.27746">
        <ele>3360.4</ele>
        <time>2015-09-02T02:41:42Z</time>
      </trkpt>
      <trkpt lat="33.97634" lon="77.27752">
        <ele>3360.6</ele>
        <time>2015-09-02T02:41:49Z</time>
      </trkpt>
      <trkpt lat="33.9763" lon="77.27764">
        <ele>3361</ele>
        <time>2015-09-02T02:41:59Z</time>
      </trkpt>
      <trkpt lat="33.97629" lon="77.27769">
        <ele>3361.4</ele>
        <time>2015-09-02T02:42:02Z</time>
      </trkpt>
      <trkpt lat="33.97628" lon="77.27771">
        <ele>3361.8</ele>
        <time>2015-09-02T02:42:04Z</time>
      </trkpt>
      <trkpt lat="33.97626" lon="77.27772">
        <ele>3362.2</ele>
        <time>2015-09-02T02:42:07Z</time>
      </trkpt>
      <trkpt lat="33.97624" lon="77.27769">
        <ele>3362.2</ele>
        <time>2015-09-02T02:42:09Z</time>
      </trkpt>
      <trkpt lat="33.97617" lon="77.27768">
        <ele>3362.2</ele>
        <time>2015-09-02T02:42:16Z</time>
      </trkpt>
      <trkpt lat="33.97608" lon="77.27775">
        <ele>3362.2</ele>
        <time>2015-09-02T02:42:26Z</time>
      </trkpt>
      <trkpt lat="33.97606" lon="77.27776">
        <ele>3362.6</ele>
        <time>2015-09-02T02:42:28Z</time>
      </trkpt>
      <trkpt lat="33.97604" lon="77.27776">
        <ele>3362.6</ele>
        <time>2015-09-02T02:42:29Z</time>
      </trkpt>
      <trkpt lat="33.976" lon="77.27779">
        <ele>3362.8</ele>
        <time>2015-09-02T02:42:33Z</time>
      </trkpt>
      <trkpt lat="33.97588" lon="77.2779">
        <ele>3362.2</ele>
        <time>2015-09-02T02:42:47Z</time>
      </trkpt>
      <trkpt lat="33.97586" lon="77.27791">
        <ele>3362</ele>
        <time>2015-09-02T02:42:49Z</time>
      </trkpt>
      <trkpt lat="33.97586" lon="77.27795">
        <ele>3361.8</ele>
        <time>2015-09-02T02:42:53Z</time>
      </trkpt>
      <trkpt lat="33.97578" lon="77.27799">
        <ele>3361.8</ele>
        <time>2015-09-02T02:43:01Z</time>
      </trkpt>
      <trkpt lat="33.97579" lon="77.27803">
        <ele>3361.8</ele>
        <time>2015-09-02T02:43:03Z</time>
      </trkpt>
      <trkpt lat="33.97574" lon="77.27812">
        <ele>3363.6</ele>
        <time>2015-09-02T02:43:18Z</time>
      </trkpt>
      <trkpt lat="33.97571" lon="77.27823">
        <ele>3364.6</ele>
        <time>2015-09-02T02:43:26Z</time>
      </trkpt>
      <trkpt lat="33.97569" lon="77.27829">
        <ele>3364.8</ele>
        <time>2015-09-02T02:43:30Z</time>
      </trkpt>
      <trkpt lat="33.97562" lon="77.27849">
        <ele>3365.2</ele>
        <time>2015-09-02T02:43:48Z</time>
      </trkpt>
      <trkpt lat="33.97551" lon="77.27864">
        <ele>3365.8</ele>
        <time>2015-09-02T02:44:04Z</time>
      </trkpt>
      <trkpt lat="33.9755" lon="77.27866">
        <ele>3365.8</ele>
        <time>2015-09-02T02:44:06Z</time>
      </trkpt>
      <trkpt lat="33.97549" lon="77.27869">
        <ele>3366</ele>
        <time>2015-09-02T02:44:09Z</time>
      </trkpt>
      <trkpt lat="33.97542" lon="77.27881">
        <ele>3366.6</ele>
        <time>2015-09-02T02:44:20Z</time>
      </trkpt>
      <trkpt lat="33.97537" lon="77.27887">
        <ele>3366.8</ele>
        <time>2015-09-02T02:44:29Z</time>
      </trkpt>
      <trkpt lat="33.97535" lon="77.27891">
        <ele>3366.8</ele>
        <time>2015-09-02T02:44:33Z</time>
      </trkpt>
      <trkpt lat="33.97533" lon="77.27894">
        <ele>3367</ele>
        <time>2015-09-02T02:44:39Z</time>
      </trkpt>
      <trkpt lat="33.97522" lon="77.27914">
        <ele>3366.8</ele>
        <time>2015-09-02T02:44:55Z</time>
      </trkpt>
      <trkpt lat="33.97517" lon="77.27925">
        <ele>3366.2</ele>
        <time>2015-09-02T02:45:03Z</time>
      </trkpt>
      <trkpt lat="33.97514" lon="77.27928">
        <ele>3366.2</ele>
        <time>2015-09-02T02:45:07Z</time>
      </trkpt>
      <trkpt lat="33.97514" lon="77.2793">
        <ele>3366.4</ele>
        <time>2015-09-02T02:45:09Z</time>
      </trkpt>
      <trkpt lat="33.97513" lon="77.27934">
        <ele>3366.8</ele>
        <time>2015-09-02T02:45:12Z</time>
      </trkpt>
      <trkpt lat="33.97502" lon="77.27952">
        <ele>3366.6</ele>
        <time>2015-09-02T02:45:30Z</time>
      </trkpt>
      <trkpt lat="33.97496" lon="77.27955">
        <ele>3366.8</ele>
        <time>2015-09-02T02:45:36Z</time>
      </trkpt>
      <trkpt lat="33.97485" lon="77.27973">
        <ele>3367</ele>
        <time>2015-09-02T02:45:50Z</time>
      </trkpt>
      <trkpt lat="33.97483" lon="77.27979">
        <ele>3367.2</ele>
        <time>2015-09-02T02:45:55Z</time>
      </trkpt>
      <trkpt lat="33.97476" lon="77.27992">
        <ele>3366.8</ele>
        <time>2015-09-02T02:46:07Z</time>
      </trkpt>
      <trkpt lat="33.97469" lon="77.28001">
        <ele>3366.6</ele>
        <time>2015-09-02T02:46:18Z</time>
      </trkpt>
      <trkpt lat="33.97461" lon="77.2801">
        <ele>3366.4</ele>
        <time>2015-09-02T02:46:31Z</time>
      </trkpt>
      <trkpt lat="33.97453" lon="77.28023">
        <ele>3366.6</ele>
        <time>2015-09-02T02:46:45Z</time>
      </trkpt>
      <trkpt lat="33.97443" lon="77.28041">
        <ele>3366.2</ele>
        <time>2015-09-02T02:46:59Z</time>
      </trkpt>
      <trkpt lat="33.97439" lon="77.28043">
        <ele>3366.6</ele>
        <time>2015-09-02T02:47:04Z</time>
      </trkpt>
      <trkpt lat="33.97437" lon="77.28042">
        <ele>3366.8</ele>
        <time>2015-09-02T02:47:06Z</time>
      </trkpt>
      <trkpt lat="33.97435" lon="77.28044">
        <ele>3367</ele>
        <time>2015-09-02T02:47:09Z</time>
      </trkpt>
      <trkpt lat="33.97432" lon="77.28051">
        <ele>3367.4</ele>
        <time>2015-09-02T02:47:15Z</time>
      </trkpt>
      <trkpt lat="33.97431" lon="77.28055">
        <ele>3367.8</ele>
        <time>2015-09-02T02:47:18Z</time>
      </trkpt>
      <trkpt lat="33.9743" lon="77.28061">
        <ele>3368.2</ele>
        <time>2015-09-02T02:47:22Z</time>
      </trkpt>
      <trkpt lat="33.97425" lon="77.28074">
        <ele>3368.4</ele>
        <time>2015-09-02T02:47:30Z</time>
      </trkpt>
      <trkpt lat="33.97425" lon="77.28075">
        <ele>3368.4</ele>
        <time>2015-09-02T02:47:32Z</time>
      </trkpt>
      <trkpt lat="33.97421" lon="77.28081">
        <ele>3367.8</ele>
        <time>2015-09-02T02:47:41Z</time>
      </trkpt>
      <trkpt lat="33.97409" lon="77.28089">
        <ele>3366.8</ele>
        <time>2015-09-02T02:47:51Z</time>
      </trkpt>
      <trkpt lat="33.97407" lon="77.28093">
        <ele>3366.2</ele>
        <time>2015-09-02T02:47:55Z</time>
      </trkpt>
      <trkpt lat="33.97402" lon="77.28113">
        <ele>3366</ele>
        <time>2015-09-02T02:48:13Z</time>
      </trkpt>
      <trkpt lat="33.97395" lon="77.28119">
        <ele>3366.4</ele>
        <time>2015-09-02T02:48:25Z</time>
      </trkpt>
      <trkpt lat="33.97392" lon="77.28123">
        <ele>3366.4</ele>
        <time>2015-09-02T02:48:30Z</time>
      </trkpt>
      <trkpt lat="33.97388" lon="77.28129">
        <ele>3366.6</ele>
        <time>2015-09-02T02:48:36Z</time>
      </trkpt>
      <trkpt lat="33.97372" lon="77.28141">
        <ele>3367.2</ele>
        <time>2015-09-02T02:49:00Z</time>
      </trkpt>
      <trkpt lat="33.97355" lon="77.28142">
        <ele>3367.8</ele>
        <time>2015-09-02T02:49:16Z</time>
      </trkpt>
      <trkpt lat="33.97335" lon="77.28153">
        <ele>3367.4</ele>
        <time>2015-09-02T02:49:32Z</time>
      </trkpt>
      <trkpt lat="33.97319" lon="77.28174">
        <ele>3367.6</ele>
        <time>2015-09-02T02:49:51Z</time>
      </trkpt>
      <trkpt lat="33.97317" lon="77.28174">
        <ele>3367.6</ele>
        <time>2015-09-02T02:49:52Z</time>
      </trkpt>
      <trkpt lat="33.97315" lon="77.28173">
        <ele>3368.2</ele>
        <time>2015-09-02T02:49:54Z</time>
      </trkpt>
      <trkpt lat="33.97314" lon="77.28172">
        <ele>3368.8</ele>
        <time>2015-09-02T02:49:57Z</time>
      </trkpt>
      <trkpt lat="33.9731" lon="77.28176">
        <ele>3369.8</ele>
        <time>2015-09-02T02:50:03Z</time>
      </trkpt>
      <trkpt lat="33.97309" lon="77.28176">
        <ele>3370</ele>
        <time>2015-09-02T02:50:04Z</time>
      </trkpt>
      <trkpt lat="33.97304" lon="77.28179">
        <ele>3371</ele>
        <time>2015-09-02T02:50:12Z</time>
      </trkpt>
      <trkpt lat="33.97295" lon="77.2818">
        <ele>3372</ele>
        <time>2015-09-02T02:50:23Z</time>
      </trkpt>
      <trkpt lat="33.97292" lon="77.28182">
        <ele>3373</ele>
        <time>2015-09-02T02:50:31Z</time>
      </trkpt>
      <trkpt lat="33.97288" lon="77.28183">
        <ele>3374</ele>
        <time>2015-09-02T02:50:39Z</time>
      </trkpt>
      <trkpt lat="33.97282" lon="77.28185">
        <ele>3375.2</ele>
        <time>2015-09-02T02:50:46Z</time>
      </trkpt>
      <trkpt lat="33.97282" lon="77.28185">
        <ele>3375.2</ele>
        <time>2015-09-02T02:50:47Z</time>
      </trkpt>
      <trkpt lat="33.97276" lon="77.28186">
        <ele>3376.2</ele>
        <time>2015-09-02T02:50:56Z</time>
      </trkpt>
      <trkpt lat="33.97267" lon="77.2819">
        <ele>3376.4</ele>
        <time>2015-09-02T02:51:05Z</time>
      </trkpt>
      <trkpt lat="33.97265" lon="77.28193">
        <ele>3376.4</ele>
        <time>2015-09-02T02:51:08Z</time>
      </trkpt>
      <trkpt lat="33.97263" lon="77.28194">
        <ele>3376.4</ele>
        <time>2015-09-02T02:51:10Z</time>
      </trkpt>
      <trkpt lat="33.97251" lon="77.28206">
        <ele>3376.8</ele>
        <time>2015-09-02T02:51:22Z</time>
      </trkpt>
      <trkpt lat="33.97236" lon="77.2822">
        <ele>3376.8</ele>
        <time>2015-09-02T02:51:40Z</time>
      </trkpt>
      <trkpt lat="33.97233" lon="77.28225">
        <ele>3377.2</ele>
        <time>2015-09-02T02:51:44Z</time>
      </trkpt>
      <trkpt lat="33.9723" lon="77.28238">
        <ele>3377.2</ele>
        <time>2015-09-02T02:51:55Z</time>
      </trkpt>
      <trkpt lat="33.97229" lon="77.28238">
        <ele>3376.8</ele>
        <time>2015-09-02T02:51:57Z</time>
      </trkpt>
      <trkpt lat="33.97224" lon="77.28241">
        <ele>3377</ele>
        <time>2015-09-02T02:52:03Z</time>
      </trkpt>
      <trkpt lat="33.97222" lon="77.28244">
        <ele>3377.2</ele>
        <time>2015-09-02T02:52:06Z</time>
      </trkpt>
      <trkpt lat="33.97221" lon="77.2825">
        <ele>3377.8</ele>
        <time>2015-09-02T02:52:09Z</time>
      </trkpt>
      <trkpt lat="33.97221" lon="77.28253">
        <ele>3378.4</ele>
        <time>2015-09-02T02:52:15Z</time>
      </trkpt>
      <trkpt lat="33.97207" lon="77.28265">
        <ele>3377.4</ele>
        <time>2015-09-02T02:52:35Z</time>
      </trkpt>
      <trkpt lat="33.97205" lon="77.28269">
        <ele>3377</ele>
        <time>2015-09-02T02:52:37Z</time>
      </trkpt>
      <trkpt lat="33.97209" lon="77.28277">
        <ele>3376.8</ele>
        <time>2015-09-02T02:52:52Z</time>
      </trkpt>
      <trkpt lat="33.97204" lon="77.28281">
        <ele>3377</ele>
        <time>2015-09-02T02:53:02Z</time>
      </trkpt>
      <trkpt lat="33.97197" lon="77.28283">
        <ele>3377</ele>
        <time>2015-09-02T02:53:09Z</time>
      </trkpt>
      <trkpt lat="33.97195" lon="77.28285">
        <ele>3377</ele>
        <time>2015-09-02T02:53:12Z</time>
      </trkpt>
      <trkpt lat="33.97192" lon="77.28295">
        <ele>3376.8</ele>
        <time>2015-09-02T02:53:18Z</time>
      </trkpt>
      <trkpt lat="33.97185" lon="77.28313">
        <ele>3376.8</ele>
        <time>2015-09-02T02:53:33Z</time>
      </trkpt>
      <trkpt lat="33.97185" lon="77.28317">
        <ele>3376.8</ele>
        <time>2015-09-02T02:53:35Z</time>
      </trkpt>
      <trkpt lat="33.97185" lon="77.28323">
        <ele>3376.2</ele>
        <time>2015-09-02T02:53:39Z</time>
      </trkpt>
      <trkpt lat="33.97176" lon="77.28344">
        <ele>3376</ele>
        <time>2015-09-02T02:53:55Z</time>
      </trkpt>
      <trkpt lat="33.97163" lon="77.28358">
        <ele>3375.4</ele>
        <time>2015-09-02T02:54:10Z</time>
      </trkpt>
      <trkpt lat="33.97162" lon="77.28358">
        <ele>3375.4</ele>
        <time>2015-09-02T02:54:11Z</time>
      </trkpt>
      <trkpt lat="33.9716" lon="77.28358">
        <ele>3375</ele>
        <time>2015-09-02T02:54:13Z</time>
      </trkpt>
      <trkpt lat="33.97151" lon="77.28376">
        <ele>3375.4</ele>
        <time>2015-09-02T02:54:32Z</time>
      </trkpt>
      <trkpt lat="33.97139" lon="77.28393">
        <ele>3375</ele>
        <time>2015-09-02T02:54:49Z</time>
      </trkpt>
      <trkpt lat="33.97135" lon="77.28396">
        <ele>3374</ele>
        <time>2015-09-02T02:54:56Z</time>
      </trkpt>
      <trkpt lat="33.97132" lon="77.28398">
        <ele>3373</ele>
        <time>2015-09-02T02:55:03Z</time>
      </trkpt>
      <trkpt lat="33.97127" lon="77.28406">
        <ele>3372.4</ele>
        <time>2015-09-02T02:55:11Z</time>
      </trkpt>
      <trkpt lat="33.97133" lon="77.28419">
        <ele>3372.4</ele>
        <time>2015-09-02T02:55:17Z</time>
      </trkpt>
      <trkpt lat="33.97125" lon="77.28421">
        <ele>3372</ele>
        <time>2015-09-02T02:55:27Z</time>
      </trkpt>
      <trkpt lat="33.9711" lon="77.2843">
        <ele>3371</ele>
        <time>2015-09-02T02:55:43Z</time>
      </trkpt>
      <trkpt lat="33.971" lon="77.28441">
        <ele>3371.2</ele>
        <time>2015-09-02T02:55:59Z</time>
      </trkpt>
      <trkpt lat="33.97089" lon="77.28442">
        <ele>3372</ele>
        <time>2015-09-02T02:56:11Z</time>
      </trkpt>
      <trkpt lat="33.97083" lon="77.28447">
        <ele>3371.8</ele>
        <time>2015-09-02T02:56:18Z</time>
      </trkpt>
      <trkpt lat="33.97081" lon="77.28449">
        <ele>3372</ele>
        <time>2015-09-02T02:56:21Z</time>
      </trkpt>
      <trkpt lat="33.97088" lon="77.28475">
        <ele>3372.6</ele>
        <time>2015-09-02T02:56:47Z</time>
      </trkpt>
      <trkpt lat="33.97087" lon="77.28486">
        <ele>3373</ele>
        <time>2015-09-02T02:56:56Z</time>
      </trkpt>
      <trkpt lat="33.97081" lon="77.28494">
        <ele>3373.4</ele>
        <time>2015-09-02T02:57:09Z</time>
      </trkpt>
      <trkpt lat="33.97079" lon="77.28495">
        <ele>3373.2</ele>
        <time>2015-09-02T02:57:12Z</time>
      </trkpt>
      <trkpt lat="33.97071" lon="77.28494">
        <ele>3373</ele>
        <time>2015-09-02T02:57:18Z</time>
      </trkpt>
      <trkpt lat="33.9707" lon="77.28494">
        <ele>3373</ele>
        <time>2015-09-02T02:57:19Z</time>
      </trkpt>
      <trkpt lat="33.97069" lon="77.28495">
        <ele>3372.8</ele>
        <time>2015-09-02T02:57:21Z</time>
      </trkpt>
      <trkpt lat="33.97056" lon="77.28511">
        <ele>3373.2</ele>
        <time>2015-09-02T02:57:44Z</time>
      </trkpt>
      <trkpt lat="33.97055" lon="77.28516">
        <ele>3373.2</ele>
        <time>2015-09-02T02:57:47Z</time>
      </trkpt>
      <trkpt lat="33.97064" lon="77.28537">
        <ele>3373.6</ele>
        <time>2015-09-02T02:58:02Z</time>
      </trkpt>
      <trkpt lat="33.97063" lon="77.28541">
        <ele>3373.6</ele>
        <time>2015-09-02T02:58:06Z</time>
      </trkpt>
      <trkpt lat="33.97069" lon="77.28549">
        <ele>3373.6</ele>
        <time>2015-09-02T02:58:17Z</time>
      </trkpt>
      <trkpt lat="33.97078" lon="77.28557">
        <ele>3374</ele>
        <time>2015-09-02T02:58:42Z</time>
      </trkpt>
      <trkpt lat="33.97078" lon="77.28558">
        <ele>3375.2</ele>
        <time>2015-09-02T02:58:49Z</time>
      </trkpt>
      <trkpt lat="33.97077" lon="77.28563">
        <ele>3376.4</ele>
        <time>2015-09-02T02:58:56Z</time>
      </trkpt>
      <trkpt lat="33.97075" lon="77.2858">
        <ele>3377.2</ele>
        <time>2015-09-02T02:59:13Z</time>
      </trkpt>
      <trkpt lat="33.97075" lon="77.28584">
        <ele>3377.4</ele>
        <time>2015-09-02T02:59:17Z</time>
      </trkpt>
      <trkpt lat="33.97076" lon="77.28585">
        <ele>3377.4</ele>
        <time>2015-09-02T02:59:18Z</time>
      </trkpt>
      <trkpt lat="33.97079" lon="77.28593">
        <ele>3378.2</ele>
        <time>2015-09-02T02:59:27Z</time>
      </trkpt>
      <trkpt lat="33.97079" lon="77.28595">
        <ele>3378.4</ele>
        <time>2015-09-02T02:59:29Z</time>
      </trkpt>
      <trkpt lat="33.97072" lon="77.28601">
        <ele>3379.6</ele>
        <time>2015-09-02T02:59:40Z</time>
      </trkpt>
      <trkpt lat="33.9707" lon="77.28604">
        <ele>3380.6</ele>
        <time>2015-09-02T02:59:49Z</time>
      </trkpt>
      <trkpt lat="33.97065" lon="77.28609">
        <ele>3379.4</ele>
        <time>2015-09-02T03:00:03Z</time>
      </trkpt>
      <trkpt lat="33.97059" lon="77.28618">
        <ele>3378.4</ele>
        <time>2015-09-02T03:00:10Z</time>
      </trkpt>
      <trkpt lat="33.97058" lon="77.2862">
        <ele>3378.4</ele>
        <time>2015-09-02T03:00:11Z</time>
      </trkpt>
      <trkpt lat="33.97056" lon="77.28622">
        <ele>3378.4</ele>
        <time>2015-09-02T03:00:14Z</time>
      </trkpt>
      <trkpt lat="33.97054" lon="77.28624">
        <ele>3378.6</ele>
        <time>2015-09-02T03:00:16Z</time>
      </trkpt>
      <trkpt lat="33.97048" lon="77.28648">
        <ele>3379</ele>
        <time>2015-09-02T03:00:33Z</time>
      </trkpt>
      <trkpt lat="33.97047" lon="77.28651">
        <ele>3379.6</ele>
        <time>2015-09-02T03:00:38Z</time>
      </trkpt>
      <trkpt lat="33.97042" lon="77.28651">
        <ele>3380.6</ele>
        <time>2015-09-02T03:00:46Z</time>
      </trkpt>
      <trkpt lat="33.97041" lon="77.28655">
        <ele>3381.8</ele>
        <time>2015-09-02T03:00:54Z</time>
      </trkpt>
      <trkpt lat="33.97035" lon="77.28657">
        <ele>3382.8</ele>
        <time>2015-09-02T03:01:03Z</time>
      </trkpt>
      <trkpt lat="33.97028" lon="77.28657">
        <ele>3383.4</ele>
        <time>2015-09-02T03:01:10Z</time>
      </trkpt>
      <trkpt lat="33.97027" lon="77.28659">
        <ele>3383.6</ele>
        <time>2015-09-02T03:01:13Z</time>
      </trkpt>
      <trkpt lat="33.97021" lon="77.28666">
        <ele>3382.6</ele>
        <time>2015-09-02T03:01:22Z</time>
      </trkpt>
      <trkpt lat="33.97019" lon="77.28668">
        <ele>3381.8</ele>
        <time>2015-09-02T03:01:26Z</time>
      </trkpt>
      <trkpt lat="33.97012" lon="77.28669">
        <ele>3380.8</ele>
        <time>2015-09-02T03:01:33Z</time>
      </trkpt>
      <trkpt lat="33.97009" lon="77.28674">
        <ele>3380.6</ele>
        <time>2015-09-02T03:01:39Z</time>
      </trkpt>
      <trkpt lat="33.96998" lon="77.28672">
        <ele>3379.8</ele>
        <time>2015-09-02T03:01:49Z</time>
      </trkpt>
      <trkpt lat="33.96996" lon="77.2868">
        <ele>3379.8</ele>
        <time>2015-09-02T03:01:51Z</time>
      </trkpt>
      <trkpt lat="33.96996" lon="77.28681">
        <ele>3380</ele>
        <time>2015-09-02T03:01:53Z</time>
      </trkpt>
      <trkpt lat="33.96996" lon="77.2868">
        <ele>3380.8</ele>
        <time>2015-09-02T03:02:48Z</time>
      </trkpt>
      <trkpt lat="33.96995" lon="77.28678">
        <ele>3381</ele>
        <time>2015-09-02T03:04:04Z</time>
      </trkpt>
      <trkpt lat="33.96996" lon="77.28675">
        <ele>3381.8</ele>
        <time>2015-09-02T03:04:39Z</time>
      </trkpt>
      <trkpt lat="33.96999" lon="77.28681">
        <ele>3381.4</ele>
        <time>2015-09-02T03:04:46Z</time>
      </trkpt>
      <trkpt lat="33.96994" lon="77.28678">
        <ele>3381.8</ele>
        <time>2015-09-02T03:05:08Z</time>
      </trkpt>
      <trkpt lat="33.96991" lon="77.28674">
        <ele>3382</ele>
        <time>2015-09-02T03:05:12Z</time>
      </trkpt>
      <trkpt lat="33.96979" lon="77.28685">
        <ele>3381.6</ele>
        <time>2015-09-02T03:05:28Z</time>
      </trkpt>
      <trkpt lat="33.96974" lon="77.28689">
        <ele>3381</ele>
        <time>2015-09-02T03:05:33Z</time>
      </trkpt>
      <trkpt lat="33.96969" lon="77.28699">
        <ele>3380.6</ele>
        <time>2015-09-02T03:05:40Z</time>
      </trkpt>
      <trkpt lat="33.96968" lon="77.287">
        <ele>3380.4</ele>
        <time>2015-09-02T03:05:41Z</time>
      </trkpt>
      <trkpt lat="33.96965" lon="77.28701">
        <ele>3380</ele>
        <time>2015-09-02T03:05:44Z</time>
      </trkpt>
      <trkpt lat="33.96961" lon="77.28709">
        <ele>3379.8</ele>
        <time>2015-09-02T03:05:53Z</time>
      </trkpt>
      <trkpt lat="33.96961" lon="77.28721">
        <ele>3381.6</ele>
        <time>2015-09-02T03:06:02Z</time>
      </trkpt>
      <trkpt lat="33.96961" lon="77.28722">
        <ele>3381.6</ele>
        <time>2015-09-02T03:06:03Z</time>
      </trkpt>
      <trkpt lat="33.96959" lon="77.28725">
        <ele>3381.6</ele>
        <time>2015-09-02T03:06:07Z</time>
      </trkpt>
      <trkpt lat="33.96957" lon="77.28727">
        <ele>3381.4</ele>
        <time>2015-09-02T03:06:09Z</time>
      </trkpt>
      <trkpt lat="33.96942" lon="77.28743">
        <ele>3381</ele>
        <time>2015-09-02T03:06:23Z</time>
      </trkpt>
      <trkpt lat="33.96931" lon="77.28747">
        <ele>3381.2</ele>
        <time>2015-09-02T03:06:33Z</time>
      </trkpt>
      <trkpt lat="33.9693" lon="77.2875">
        <ele>3381.4</ele>
        <time>2015-09-02T03:06:35Z</time>
      </trkpt>
      <trkpt lat="33.96929" lon="77.28752">
        <ele>3381.2</ele>
        <time>2015-09-02T03:06:37Z</time>
      </trkpt>
      <trkpt lat="33.96929" lon="77.2876">
        <ele>3381.2</ele>
        <time>2015-09-02T03:06:40Z</time>
      </trkpt>
      <trkpt lat="33.96927" lon="77.28763">
        <ele>3380.8</ele>
        <time>2015-09-02T03:06:43Z</time>
      </trkpt>
      <trkpt lat="33.96908" lon="77.28764">
        <ele>3381.2</ele>
        <time>2015-09-02T03:06:55Z</time>
      </trkpt>
      <trkpt lat="33.96909" lon="77.28774">
        <ele>3381.2</ele>
        <time>2015-09-02T03:06:58Z</time>
      </trkpt>
      <trkpt lat="33.96907" lon="77.28777">
        <ele>3381.2</ele>
        <time>2015-09-02T03:07:01Z</time>
      </trkpt>
      <trkpt lat="33.96902" lon="77.28786">
        <ele>3381.2</ele>
        <time>2015-09-02T03:07:08Z</time>
      </trkpt>
      <trkpt lat="33.96898" lon="77.28795">
        <ele>3380.8</ele>
        <time>2015-09-02T03:07:17Z</time>
      </trkpt>
      <trkpt lat="33.96892" lon="77.28812">
        <ele>3381.6</ele>
        <time>2015-09-02T03:07:32Z</time>
      </trkpt>
      <trkpt lat="33.96879" lon="77.28828">
        <ele>3382.2</ele>
        <time>2015-09-02T03:07:46Z</time>
      </trkpt>
      <trkpt lat="33.96868" lon="77.28841">
        <ele>3382.2</ele>
        <time>2015-09-02T03:07:59Z</time>
      </trkpt>
      <trkpt lat="33.9686" lon="77.28853">
        <ele>3382.2</ele>
        <time>2015-09-02T03:08:11Z</time>
      </trkpt>
      <trkpt lat="33.96857" lon="77.28853">
        <ele>3382</ele>
        <time>2015-09-02T03:08:14Z</time>
      </trkpt>
      <trkpt lat="33.96855" lon="77.28855">
        <ele>3382.2</ele>
        <time>2015-09-02T03:08:16Z</time>
      </trkpt>
      <trkpt lat="33.96848" lon="77.28864">
        <ele>3382.6</ele>
        <time>2015-09-02T03:08:26Z</time>
      </trkpt>
      <trkpt lat="33.96846" lon="77.28867">
        <ele>3382.6</ele>
        <time>2015-09-02T03:08:28Z</time>
      </trkpt>
      <trkpt lat="33.96837" lon="77.28875">
        <ele>3382.6</ele>
        <time>2015-09-02T03:08:41Z</time>
      </trkpt>
      <trkpt lat="33.96835" lon="77.28883">
        <ele>3382.6</ele>
        <time>2015-09-02T03:08:48Z</time>
      </trkpt>
      <trkpt lat="33.96835" lon="77.28887">
        <ele>3382.6</ele>
        <time>2015-09-02T03:08:50Z</time>
      </trkpt>
      <trkpt lat="33.9683" lon="77.28903">
        <ele>3383.4</ele>
        <time>2015-09-02T03:09:03Z</time>
      </trkpt>
      <trkpt lat="33.96822" lon="77.28917">
        <ele>3383.6</ele>
        <time>2015-09-02T03:09:16Z</time>
      </trkpt>
      <trkpt lat="33.96816" lon="77.28937">
        <ele>3384.2</ele>
        <time>2015-09-02T03:09:33Z</time>
      </trkpt>
      <trkpt lat="33.96813" lon="77.28959">
        <ele>3384.2</ele>
        <time>2015-09-02T03:09:49Z</time>
      </trkpt>
      <trkpt lat="33.96813" lon="77.28963">
        <ele>3384</ele>
        <time>2015-09-02T03:09:52Z</time>
      </trkpt>
      <trkpt lat="33.96812" lon="77.28976">
        <ele>3384.2</ele>
        <time>2015-09-02T03:10:01Z</time>
      </trkpt>
      <trkpt lat="33.96815" lon="77.28987">
        <ele>3384.6</ele>
        <time>2015-09-02T03:10:09Z</time>
      </trkpt>
      <trkpt lat="33.96815" lon="77.28988">
        <ele>3384.8</ele>
        <time>2015-09-02T03:10:10Z</time>
      </trkpt>
      <trkpt lat="33.96817" lon="77.28994">
        <ele>3385.8</ele>
        <time>2015-09-02T03:10:15Z</time>
      </trkpt>
      <trkpt lat="33.96819" lon="77.29004">
        <ele>3386.8</ele>
        <time>2015-09-02T03:10:24Z</time>
      </trkpt>
      <trkpt lat="33.96819" lon="77.29007">
        <ele>3387.2</ele>
        <time>2015-09-02T03:10:27Z</time>
      </trkpt>
      <trkpt lat="33.96813" lon="77.29017">
        <ele>3387.4</ele>
        <time>2015-09-02T03:10:36Z</time>
      </trkpt>
      <trkpt lat="33.9681" lon="77.29033">
        <ele>3387.2</ele>
        <time>2015-09-02T03:10:45Z</time>
      </trkpt>
      <trkpt lat="33.96807" lon="77.29044">
        <ele>3387.8</ele>
        <time>2015-09-02T03:10:55Z</time>
      </trkpt>
      <trkpt lat="33.96805" lon="77.29046">
        <ele>3387.8</ele>
        <time>2015-09-02T03:10:57Z</time>
      </trkpt>
      <trkpt lat="33.968" lon="77.29057">
        <ele>3389</ele>
        <time>2015-09-02T03:11:08Z</time>
      </trkpt>
      <trkpt lat="33.96795" lon="77.29063">
        <ele>3390.2</ele>
        <time>2015-09-02T03:11:17Z</time>
      </trkpt>
      <trkpt lat="33.96791" lon="77.29075">
        <ele>3389</ele>
        <time>2015-09-02T03:11:28Z</time>
      </trkpt>
      <trkpt lat="33.96785" lon="77.29089">
        <ele>3388</ele>
        <time>2015-09-02T03:11:38Z</time>
      </trkpt>
      <trkpt lat="33.96778" lon="77.29101">
        <ele>3388</ele>
        <time>2015-09-02T03:11:48Z</time>
      </trkpt>
      <trkpt lat="33.96775" lon="77.29111">
        <ele>3388.2</ele>
        <time>2015-09-02T03:11:56Z</time>
      </trkpt>
      <trkpt lat="33.9677" lon="77.29115">
        <ele>3388.2</ele>
        <time>2015-09-02T03:12:02Z</time>
      </trkpt>
      <trkpt lat="33.96768" lon="77.2912">
        <ele>3388.2</ele>
        <time>2015-09-02T03:12:05Z</time>
      </trkpt>
      <trkpt lat="33.96754" lon="77.29136">
        <ele>3389</ele>
        <time>2015-09-02T03:12:23Z</time>
      </trkpt>
      <trkpt lat="33.96742" lon="77.29145">
        <ele>3388.8</ele>
        <time>2015-09-02T03:12:37Z</time>
      </trkpt>
      <trkpt lat="33.9674" lon="77.29149">
        <ele>3388.2</ele>
        <time>2015-09-02T03:12:42Z</time>
      </trkpt>
      <trkpt lat="33.96738" lon="77.29156">
        <ele>3388.2</ele>
        <time>2015-09-02T03:12:46Z</time>
      </trkpt>
      <trkpt lat="33.96722" lon="77.2917">
        <ele>3389.8</ele>
        <time>2015-09-02T03:13:04Z</time>
      </trkpt>
      <trkpt lat="33.96719" lon="77.29176">
        <ele>3390</ele>
        <time>2015-09-02T03:13:10Z</time>
      </trkpt>
      <trkpt lat="33.96719" lon="77.29177">
        <ele>3390.2</ele>
        <time>2015-09-02T03:13:11Z</time>
      </trkpt>
      <trkpt lat="33.96714" lon="77.29172">
        <ele>3390.4</ele>
        <time>2015-09-02T03:13:20Z</time>
      </trkpt>
      <trkpt lat="33.96713" lon="77.29173">
        <ele>3390.2</ele>
        <time>2015-09-02T03:13:26Z</time>
      </trkpt>
      <trkpt lat="33.96716" lon="77.29175">
        <ele>3390.4</ele>
        <time>2015-09-02T03:14:09Z</time>
      </trkpt>
      <trkpt lat="33.96718" lon="77.29182">
        <ele>3390.4</ele>
        <time>2015-09-02T03:14:31Z</time>
      </trkpt>
      <trkpt lat="33.96714" lon="77.29187">
        <ele>3390.6</ele>
        <time>2015-09-02T03:14:40Z</time>
      </trkpt>
      <trkpt lat="33.96701" lon="77.29195">
        <ele>3390.4</ele>
        <time>2015-09-02T03:14:57Z</time>
      </trkpt>
      <trkpt lat="33.96687" lon="77.29206">
        <ele>3390.4</ele>
        <time>2015-09-02T03:15:13Z</time>
      </trkpt>
      <trkpt lat="33.96683" lon="77.29213">
        <ele>3390.4</ele>
        <time>2015-09-02T03:15:18Z</time>
      </trkpt>
      <trkpt lat="33.96679" lon="77.29219">
        <ele>3391.2</ele>
        <time>2015-09-02T03:15:28Z</time>
      </trkpt>
      <trkpt lat="33.96676" lon="77.29224">
        <ele>3391.6</ele>
        <time>2015-09-02T03:15:33Z</time>
      </trkpt>
      <trkpt lat="33.96671" lon="77.29232">
        <ele>3391.4</ele>
        <time>2015-09-02T03:15:42Z</time>
      </trkpt>
      <trkpt lat="33.96665" lon="77.29238">
        <ele>3392.4</ele>
        <time>2015-09-02T03:15:48Z</time>
      </trkpt>
      <trkpt lat="33.9666" lon="77.29247">
        <ele>3392.4</ele>
        <time>2015-09-02T03:15:56Z</time>
      </trkpt>
      <trkpt lat="33.96659" lon="77.29249">
        <ele>3392.6</ele>
        <time>2015-09-02T03:15:58Z</time>
      </trkpt>
      <trkpt lat="33.96662" lon="77.29262">
        <ele>3393</ele>
        <time>2015-09-02T03:16:05Z</time>
      </trkpt>
      <trkpt lat="33.96663" lon="77.29266">
        <ele>3393.4</ele>
        <time>2015-09-02T03:16:07Z</time>
      </trkpt>
      <trkpt lat="33.96652" lon="77.29266">
        <ele>3394.4</ele>
        <time>2015-09-02T03:16:14Z</time>
      </trkpt>
      <trkpt lat="33.9665" lon="77.29266">
        <ele>3394.8</ele>
        <time>2015-09-02T03:16:17Z</time>
      </trkpt>
      <trkpt lat="33.96649" lon="77.29268">
        <ele>3395.2</ele>
        <time>2015-09-02T03:16:19Z</time>
      </trkpt>
      <trkpt lat="33.96646" lon="77.2927">
        <ele>3395.4</ele>
        <time>2015-09-02T03:16:21Z</time>
      </trkpt>
      <trkpt lat="33.96645" lon="77.29275">
        <ele>3395.8</ele>
        <time>2015-09-02T03:16:23Z</time>
      </trkpt>
      <trkpt lat="33.96643" lon="77.29281">
        <ele>3396.6</ele>
        <time>2015-09-02T03:16:28Z</time>
      </trkpt>
      <trkpt lat="33.96641" lon="77.29289">
        <ele>3397.2</ele>
        <time>2015-09-02T03:16:35Z</time>
      </trkpt>
      <trkpt lat="33.9664" lon="77.29291">
        <ele>3397.4</ele>
        <time>2015-09-02T03:16:37Z</time>
      </trkpt>
      <trkpt lat="33.9664" lon="77.29292">
        <ele>3397.6</ele>
        <time>2015-09-02T03:16:38Z</time>
      </trkpt>
      <trkpt lat="33.96634" lon="77.293">
        <ele>3398.4</ele>
        <time>2015-09-02T03:16:53Z</time>
      </trkpt>
      <trkpt lat="33.96624" lon="77.29313">
        <ele>3396.6</ele>
        <time>2015-09-02T03:17:06Z</time>
      </trkpt>
      <trkpt lat="33.96624" lon="77.29322">
        <ele>3395.6</ele>
        <time>2015-09-02T03:17:15Z</time>
      </trkpt>
      <trkpt lat="33.96618" lon="77.29325">
        <ele>3396</ele>
        <time>2015-09-02T03:17:21Z</time>
      </trkpt>
      <trkpt lat="33.96606" lon="77.2934">
        <ele>3396</ele>
        <time>2015-09-02T03:17:36Z</time>
      </trkpt>
      <trkpt lat="33.96606" lon="77.29342">
        <ele>3396</ele>
        <time>2015-09-02T03:17:37Z</time>
      </trkpt>
      <trkpt lat="33.96602" lon="77.29345">
        <ele>3395.8</ele>
        <time>2015-09-02T03:17:43Z</time>
      </trkpt>
      <trkpt lat="33.96601" lon="77.29346">
        <ele>3395.6</ele>
        <time>2015-09-02T03:17:44Z</time>
      </trkpt>
      <trkpt lat="33.96583" lon="77.29348">
        <ele>3396.2</ele>
        <time>2015-09-02T03:17:53Z</time>
      </trkpt>
      <trkpt lat="33.96578" lon="77.2935">
        <ele>3396.6</ele>
        <time>2015-09-02T03:17:57Z</time>
      </trkpt>
      <trkpt lat="33.9656" lon="77.2936">
        <ele>3397.4</ele>
        <time>2015-09-02T03:18:08Z</time>
      </trkpt>
      <trkpt lat="33.96554" lon="77.2936">
        <ele>3397.8</ele>
        <time>2015-09-02T03:18:11Z</time>
      </trkpt>
      <trkpt lat="33.96535" lon="77.29353">
        <ele>3398.4</ele>
        <time>2015-09-02T03:18:16Z</time>
      </trkpt>
      <trkpt lat="33.96516" lon="77.29351">
        <ele>3398.8</ele>
        <time>2015-09-02T03:18:22Z</time>
      </trkpt>
      <trkpt lat="33.96513" lon="77.2935">
        <ele>3398.8</ele>
        <time>2015-09-02T03:18:23Z</time>
      </trkpt>
      <trkpt lat="33.96546" lon="77.2937">
        <ele>3399.4</ele>
        <time>2015-09-02T03:18:29Z</time>
      </trkpt>
      <trkpt lat="33.96562" lon="77.2938">
        <ele>3399.8</ele>
        <time>2015-09-02T03:18:32Z</time>
      </trkpt>
      <trkpt lat="33.96566" lon="77.29385">
        <ele>3400.2</ele>
        <time>2015-09-02T03:18:37Z</time>
      </trkpt>
      <trkpt lat="33.96546" lon="77.29394">
        <ele>3399.8</ele>
        <time>2015-09-02T03:18:52Z</time>
      </trkpt>
      <trkpt lat="33.96534" lon="77.2939">
        <ele>3399.2</ele>
        <time>2015-09-02T03:19:00Z</time>
      </trkpt>
      <trkpt lat="33.96532" lon="77.2939">
        <ele>3399</ele>
        <time>2015-09-02T03:19:01Z</time>
      </trkpt>
      <trkpt lat="33.9653" lon="77.2939">
        <ele>3398.8</ele>
        <time>2015-09-02T03:19:03Z</time>
      </trkpt>
      <trkpt lat="33.96531" lon="77.29398">
        <ele>3398.6</ele>
        <time>2015-09-02T03:19:12Z</time>
      </trkpt>
      <trkpt lat="33.96533" lon="77.29402">
        <ele>3398.8</ele>
        <time>2015-09-02T03:19:14Z</time>
      </trkpt>
      <trkpt lat="33.96518" lon="77.2941">
        <ele>3399.2</ele>
        <time>2015-09-02T03:19:28Z</time>
      </trkpt>
      <trkpt lat="33.96514" lon="77.2941">
        <ele>3399.8</ele>
        <time>2015-09-02T03:19:31Z</time>
      </trkpt>
      <trkpt lat="33.96513" lon="77.29411">
        <ele>3400</ele>
        <time>2015-09-02T03:19:32Z</time>
      </trkpt>
      <trkpt lat="33.96511" lon="77.29412">
        <ele>3400.6</ele>
        <time>2015-09-02T03:19:35Z</time>
      </trkpt>
      <trkpt lat="33.96509" lon="77.29413">
        <ele>3401</ele>
        <time>2015-09-02T03:19:38Z</time>
      </trkpt>
      <trkpt lat="33.96505" lon="77.2943">
        <ele>3401.6</ele>
        <time>2015-09-02T03:19:45Z</time>
      </trkpt>
      <trkpt lat="33.96496" lon="77.29429">
        <ele>3402</ele>
        <time>2015-09-02T03:20:09Z</time>
      </trkpt>
      <trkpt lat="33.96487" lon="77.29436">
        <ele>3402.4</ele>
        <time>2015-09-02T03:20:22Z</time>
      </trkpt>
      <trkpt lat="33.96479" lon="77.29447">
        <ele>3402.4</ele>
        <time>2015-09-02T03:20:35Z</time>
      </trkpt>
      <trkpt lat="33.96477" lon="77.29458">
        <ele>3402.8</ele>
        <time>2015-09-02T03:20:41Z</time>
      </trkpt>
      <trkpt lat="33.96475" lon="77.29461">
        <ele>3403</ele>
        <time>2015-09-02T03:20:44Z</time>
      </trkpt>
      <trkpt lat="33.9646" lon="77.2947">
        <ele>3403</ele>
        <time>2015-09-02T03:20:58Z</time>
      </trkpt>
      <trkpt lat="33.96441" lon="77.2947">
        <ele>3402.8</ele>
        <time>2015-09-02T03:21:14Z</time>
      </trkpt>
      <trkpt lat="33.96429" lon="77.2948">
        <ele>3403.4</ele>
        <time>2015-09-02T03:21:30Z</time>
      </trkpt>
      <trkpt lat="33.96413" lon="77.29492">
        <ele>3403.8</ele>
        <time>2015-09-02T03:21:46Z</time>
      </trkpt>
      <trkpt lat="33.96407" lon="77.29496">
        <ele>3404.2</ele>
        <time>2015-09-02T03:21:52Z</time>
      </trkpt>
      <trkpt lat="33.96393" lon="77.29511">
        <ele>3404.4</ele>
        <time>2015-09-02T03:22:11Z</time>
      </trkpt>
      <trkpt lat="33.96378" lon="77.29513">
        <ele>3403.4</ele>
        <time>2015-09-02T03:22:24Z</time>
      </trkpt>
      <trkpt lat="33.9638" lon="77.29516">
        <ele>3403.4</ele>
        <time>2015-09-02T03:22:26Z</time>
      </trkpt>
      <trkpt lat="33.96378" lon="77.29518">
        <ele>3403.4</ele>
        <time>2015-09-02T03:22:28Z</time>
      </trkpt>
      <trkpt lat="33.96371" lon="77.29526">
        <ele>3404</ele>
        <time>2015-09-02T03:22:38Z</time>
      </trkpt>
      <trkpt lat="33.96356" lon="77.29536">
        <ele>3404.4</ele>
        <time>2015-09-02T03:22:54Z</time>
      </trkpt>
      <trkpt lat="33.96352" lon="77.29538">
        <ele>3404.8</ele>
        <time>2015-09-02T03:22:58Z</time>
      </trkpt>
      <trkpt lat="33.96336" lon="77.29551">
        <ele>3404.4</ele>
        <time>2015-09-02T03:23:15Z</time>
      </trkpt>
      <trkpt lat="33.96332" lon="77.29559">
        <ele>3404.8</ele>
        <time>2015-09-02T03:23:22Z</time>
      </trkpt>
      <trkpt lat="33.96327" lon="77.29558">
        <ele>3404.6</ele>
        <time>2015-09-02T03:23:29Z</time>
      </trkpt>
      <trkpt lat="33.96326" lon="77.29557">
        <ele>3404.6</ele>
        <time>2015-09-02T03:23:31Z</time>
      </trkpt>
      <trkpt lat="33.96324" lon="77.29555">
        <ele>3404.8</ele>
        <time>2015-09-02T03:23:34Z</time>
      </trkpt>
      <trkpt lat="33.96322" lon="77.29554">
        <ele>3404.8</ele>
        <time>2015-09-02T03:23:36Z</time>
      </trkpt>
      <trkpt lat="33.9632" lon="77.29555">
        <ele>3405</ele>
        <time>2015-09-02T03:23:38Z</time>
      </trkpt>
      <trkpt lat="33.96319" lon="77.29557">
        <ele>3405</ele>
        <time>2015-09-02T03:23:40Z</time>
      </trkpt>
      <trkpt lat="33.96317" lon="77.29557">
        <ele>3405.2</ele>
        <time>2015-09-02T03:23:47Z</time>
      </trkpt>
      <trkpt lat="33.96309" lon="77.29554">
        <ele>3405.2</ele>
        <time>2015-09-02T03:23:59Z</time>
      </trkpt>
      <trkpt lat="33.96301" lon="77.29556">
        <ele>3405</ele>
        <time>2015-09-02T03:24:07Z</time>
      </trkpt>
      <trkpt lat="33.96305" lon="77.2955">
        <ele>3405.6</ele>
        <time>2015-09-02T03:24:17Z</time>
      </trkpt>
      <trkpt lat="33.96303" lon="77.29555">
        <ele>3405.6</ele>
        <time>2015-09-02T03:24:24Z</time>
      </trkpt>
      <trkpt lat="33.96293" lon="77.29555">
        <ele>3405.4</ele>
        <time>2015-09-02T03:24:35Z</time>
      </trkpt>
      <trkpt lat="33.96293" lon="77.29546">
        <ele>3405.8</ele>
        <time>2015-09-02T03:25:00Z</time>
      </trkpt>
      <trkpt lat="33.96297" lon="77.29556">
        <ele>3406.2</ele>
        <time>2015-09-02T03:25:13Z</time>
      </trkpt>
      <trkpt lat="33.96294" lon="77.29556">
        <ele>3406.4</ele>
        <time>2015-09-02T03:25:15Z</time>
      </trkpt>
      <trkpt lat="33.96287" lon="77.29564">
        <ele>3406.4</ele>
        <time>2015-09-02T03:25:23Z</time>
      </trkpt>
      <trkpt lat="33.96285" lon="77.29566">
        <ele>3406.4</ele>
        <time>2015-09-02T03:25:27Z</time>
      </trkpt>
      <trkpt lat="33.96267" lon="77.29562">
        <ele>3406.4</ele>
        <time>2015-09-02T03:25:39Z</time>
      </trkpt>
      <trkpt lat="33.96252" lon="77.29568">
        <ele>3406.8</ele>
        <time>2015-09-02T03:25:54Z</time>
      </trkpt>
      <trkpt lat="33.9625" lon="77.29569">
        <ele>3407.4</ele>
        <time>2015-09-02T03:26:00Z</time>
      </trkpt>
      <trkpt lat="33.96246" lon="77.2957">
        <ele>3407.8</ele>
        <time>2015-09-02T03:26:03Z</time>
      </trkpt>
      <trkpt lat="33.96242" lon="77.29572">
        <ele>3408.4</ele>
        <time>2015-09-02T03:26:06Z</time>
      </trkpt>
      <trkpt lat="33.96231" lon="77.29573">
        <ele>3408.4</ele>
        <time>2015-09-02T03:26:20Z</time>
      </trkpt>
      <trkpt lat="33.96215" lon="77.29574">
        <ele>3408</ele>
        <time>2015-09-02T03:26:36Z</time>
      </trkpt>
      <trkpt lat="33.96209" lon="77.2958">
        <ele>3408.4</ele>
        <time>2015-09-02T03:26:42Z</time>
      </trkpt>
      <trkpt lat="33.96191" lon="77.29575">
        <ele>3409</ele>
        <time>2015-09-02T03:26:57Z</time>
      </trkpt>
      <trkpt lat="33.96188" lon="77.29574">
        <ele>3409</ele>
        <time>2015-09-02T03:27:00Z</time>
      </trkpt>
      <trkpt lat="33.96173" lon="77.29575">
        <ele>3409.4</ele>
        <time>2015-09-02T03:27:12Z</time>
      </trkpt>
      <trkpt lat="33.96173" lon="77.29579">
        <ele>3409.6</ele>
        <time>2015-09-02T03:27:14Z</time>
      </trkpt>
      <trkpt lat="33.96172" lon="77.29591">
        <ele>3409.6</ele>
        <time>2015-09-02T03:27:19Z</time>
      </trkpt>
      <trkpt lat="33.9617" lon="77.29588">
        <ele>3410.4</ele>
        <time>2015-09-02T03:27:52Z</time>
      </trkpt>
      <trkpt lat="33.96168" lon="77.29586">
        <ele>3410</ele>
        <time>2015-09-02T03:28:25Z</time>
      </trkpt>
      <trkpt lat="33.96163" lon="77.29585">
        <ele>3409.8</ele>
        <time>2015-09-02T03:28:30Z</time>
      </trkpt>
      <trkpt lat="33.96162" lon="77.29585">
        <ele>3409.4</ele>
        <time>2015-09-02T03:28:31Z</time>
      </trkpt>
      <trkpt lat="33.96149" lon="77.29588">
        <ele>3409</ele>
        <time>2015-09-02T03:28:43Z</time>
      </trkpt>
      <trkpt lat="33.96149" lon="77.296">
        <ele>3409</ele>
        <time>2015-09-02T03:28:45Z</time>
      </trkpt>
      <trkpt lat="33.96138" lon="77.29611">
        <ele>3409.4</ele>
        <time>2015-09-02T03:29:26Z</time>
      </trkpt>
      <trkpt lat="33.96137" lon="77.29614">
        <ele>3409.8</ele>
        <time>2015-09-02T03:29:38Z</time>
      </trkpt>
      <trkpt lat="33.96134" lon="77.29618">
        <ele>3410</ele>
        <time>2015-09-02T03:29:42Z</time>
      </trkpt>
      <trkpt lat="33.9612" lon="77.29627">
        <ele>3409.8</ele>
        <time>2015-09-02T03:30:01Z</time>
      </trkpt>
      <trkpt lat="33.96115" lon="77.2963">
        <ele>3409.4</ele>
        <time>2015-09-02T03:30:07Z</time>
      </trkpt>
      <trkpt lat="33.96109" lon="77.29642">
        <ele>3410.2</ele>
        <time>2015-09-02T03:30:26Z</time>
      </trkpt>
      <trkpt lat="33.96108" lon="77.29643">
        <ele>3410.2</ele>
        <time>2015-09-02T03:30:28Z</time>
      </trkpt>
      <trkpt lat="33.96106" lon="77.29643">
        <ele>3410.4</ele>
        <time>2015-09-02T03:30:30Z</time>
      </trkpt>
      <trkpt lat="33.96103" lon="77.29646">
        <ele>3410.4</ele>
        <time>2015-09-02T03:30:35Z</time>
      </trkpt>
      <trkpt lat="33.96099" lon="77.29647">
        <ele>3410.6</ele>
        <time>2015-09-02T03:30:40Z</time>
      </trkpt>
      <trkpt lat="33.96095" lon="77.29647">
        <ele>3410.6</ele>
        <time>2015-09-02T03:30:45Z</time>
      </trkpt>
      <trkpt lat="33.96088" lon="77.29652">
        <ele>3411</ele>
        <time>2015-09-02T03:30:58Z</time>
      </trkpt>
      <trkpt lat="33.96085" lon="77.29652">
        <ele>3411.2</ele>
        <time>2015-09-02T03:31:00Z</time>
      </trkpt>
      <trkpt lat="33.96075" lon="77.29656">
        <ele>3411.4</ele>
        <time>2015-09-02T03:31:10Z</time>
      </trkpt>
      <trkpt lat="33.96058" lon="77.29663">
        <ele>3412.4</ele>
        <time>2015-09-02T03:31:33Z</time>
      </trkpt>
      <trkpt lat="33.96054" lon="77.29674">
        <ele>3412.4</ele>
        <time>2015-09-02T03:31:39Z</time>
      </trkpt>
      <trkpt lat="33.96053" lon="77.29674">
        <ele>3412.4</ele>
        <time>2015-09-02T03:31:40Z</time>
      </trkpt>
      <trkpt lat="33.96046" lon="77.29686">
        <ele>3412.4</ele>
        <time>2015-09-02T03:31:51Z</time>
      </trkpt>
      <trkpt lat="33.96028" lon="77.29681">
        <ele>3413</ele>
        <time>2015-09-02T03:32:08Z</time>
      </trkpt>
      <trkpt lat="33.96023" lon="77.29682">
        <ele>3412.8</ele>
        <time>2015-09-02T03:32:13Z</time>
      </trkpt>
      <trkpt lat="33.96023" lon="77.29688">
        <ele>3413</ele>
        <time>2015-09-02T03:32:19Z</time>
      </trkpt>
      <trkpt lat="33.96022" lon="77.29689">
        <ele>3413.2</ele>
        <time>2015-09-02T03:32:21Z</time>
      </trkpt>
      <trkpt lat="33.96021" lon="77.29689">
        <ele>3413.6</ele>
        <time>2015-09-02T03:32:24Z</time>
      </trkpt>
      <trkpt lat="33.96017" lon="77.2969">
        <ele>3414</ele>
        <time>2015-09-02T03:32:29Z</time>
      </trkpt>
      <trkpt lat="33.96015" lon="77.29691">
        <ele>3414.2</ele>
        <time>2015-09-02T03:32:31Z</time>
      </trkpt>
      <trkpt lat="33.96013" lon="77.29692">
        <ele>3414.4</ele>
        <time>2015-09-02T03:32:33Z</time>
      </trkpt>
      <trkpt lat="33.96007" lon="77.29696">
        <ele>3414.4</ele>
        <time>2015-09-02T03:32:38Z</time>
      </trkpt>
      <trkpt lat="33.96004" lon="77.29699">
        <ele>3414.6</ele>
        <time>2015-09-02T03:32:43Z</time>
      </trkpt>
      <trkpt lat="33.95999" lon="77.29698">
        <ele>3415.2</ele>
        <time>2015-09-02T03:32:48Z</time>
      </trkpt>
      <trkpt lat="33.95979" lon="77.29695">
        <ele>3415.6</ele>
        <time>2015-09-02T03:33:08Z</time>
      </trkpt>
      <trkpt lat="33.95951" lon="77.29702">
        <ele>3417.2</ele>
        <time>2015-09-02T03:33:45Z</time>
      </trkpt>
      <trkpt lat="33.95942" lon="77.297">
        <ele>3417.8</ele>
        <time>2015-09-02T03:33:52Z</time>
      </trkpt>
      <trkpt lat="33.95934" lon="77.29703">
        <ele>3418.2</ele>
        <time>2015-09-02T03:34:00Z</time>
      </trkpt>
      <trkpt lat="33.95927" lon="77.2971">
        <ele>3418.2</ele>
        <time>2015-09-02T03:34:07Z</time>
      </trkpt>
      <trkpt lat="33.95917" lon="77.29714">
        <ele>3417.4</ele>
        <time>2015-09-02T03:34:19Z</time>
      </trkpt>
      <trkpt lat="33.95916" lon="77.29712">
        <ele>3417.2</ele>
        <time>2015-09-02T03:34:21Z</time>
      </trkpt>
      <trkpt lat="33.9591" lon="77.29712">
        <ele>3418.4</ele>
        <time>2015-09-02T03:34:32Z</time>
      </trkpt>
      <trkpt lat="33.95907" lon="77.29716">
        <ele>3418.6</ele>
        <time>2015-09-02T03:34:35Z</time>
      </trkpt>
      <trkpt lat="33.95906" lon="77.29717">
        <ele>3418.8</ele>
        <time>2015-09-02T03:34:36Z</time>
      </trkpt>
      <trkpt lat="33.95905" lon="77.2972">
        <ele>3419</ele>
        <time>2015-09-02T03:34:38Z</time>
      </trkpt>
      <trkpt lat="33.95893" lon="77.29734">
        <ele>3419.6</ele>
        <time>2015-09-02T03:34:51Z</time>
      </trkpt>
      <trkpt lat="33.95888" lon="77.29739">
        <ele>3419.6</ele>
        <time>2015-09-02T03:34:58Z</time>
      </trkpt>
      <trkpt lat="33.95881" lon="77.29745">
        <ele>3419.8</ele>
        <time>2015-09-02T03:35:05Z</time>
      </trkpt>
      <trkpt lat="33.9587" lon="77.29763">
        <ele>3420.8</ele>
        <time>2015-09-02T03:35:21Z</time>
      </trkpt>
      <trkpt lat="33.95866" lon="77.29769">
        <ele>3421</ele>
        <time>2015-09-02T03:35:28Z</time>
      </trkpt>
      <trkpt lat="33.95865" lon="77.2977">
        <ele>3421</ele>
        <time>2015-09-02T03:35:29Z</time>
      </trkpt>
      <trkpt lat="33.95856" lon="77.29778">
        <ele>3421.4</ele>
        <time>2015-09-02T03:35:40Z</time>
      </trkpt>
      <trkpt lat="33.95854" lon="77.29785">
        <ele>3421.6</ele>
        <time>2015-09-02T03:35:43Z</time>
      </trkpt>
      <trkpt lat="33.95851" lon="77.29788">
        <ele>3421.6</ele>
        <time>2015-09-02T03:35:48Z</time>
      </trkpt>
      <trkpt lat="33.95849" lon="77.29791">
        <ele>3421.4</ele>
        <time>2015-09-02T03:35:51Z</time>
      </trkpt>
      <trkpt lat="33.95849" lon="77.29792">
        <ele>3421.2</ele>
        <time>2015-09-02T03:35:52Z</time>
      </trkpt>
      <trkpt lat="33.95818" lon="77.29812">
        <ele>3424.4</ele>
        <time>2015-09-02T03:36:44Z</time>
      </trkpt>
      <trkpt lat="33.95815" lon="77.29817">
        <ele>3424.6</ele>
        <time>2015-09-02T03:36:46Z</time>
      </trkpt>
      <trkpt lat="33.95813" lon="77.2982">
        <ele>3424.6</ele>
        <time>2015-09-02T03:36:48Z</time>
      </trkpt>
      <trkpt lat="33.95809" lon="77.29823">
        <ele>3424.6</ele>
        <time>2015-09-02T03:36:51Z</time>
      </trkpt>
      <trkpt lat="33.95806" lon="77.29826">
        <ele>3424.8</ele>
        <time>2015-09-02T03:36:53Z</time>
      </trkpt>
      <trkpt lat="33.95804" lon="77.29828">
        <ele>3425</ele>
        <time>2015-09-02T03:36:55Z</time>
      </trkpt>
      <trkpt lat="33.95802" lon="77.29829">
        <ele>3425</ele>
        <time>2015-09-02T03:36:57Z</time>
      </trkpt>
      <trkpt lat="33.95799" lon="77.29833">
        <ele>3425.2</ele>
        <time>2015-09-02T03:37:00Z</time>
      </trkpt>
      <trkpt lat="33.95793" lon="77.29854">
        <ele>3425.6</ele>
        <time>2015-09-02T03:37:12Z</time>
      </trkpt>
      <trkpt lat="33.95789" lon="77.29859">
        <ele>3426.2</ele>
        <time>2015-09-02T03:37:19Z</time>
      </trkpt>
      <trkpt lat="33.95782" lon="77.29866">
        <ele>3427.4</ele>
        <time>2015-09-02T03:37:29Z</time>
      </trkpt>
      <trkpt lat="33.95778" lon="77.29865">
        <ele>3427.6</ele>
        <time>2015-09-02T03:37:34Z</time>
      </trkpt>
      <trkpt lat="33.95776" lon="77.29862">
        <ele>3428</ele>
        <time>2015-09-02T03:37:36Z</time>
      </trkpt>
      <trkpt lat="33.95773" lon="77.2986">
        <ele>3428.2</ele>
        <time>2015-09-02T03:37:39Z</time>
      </trkpt>
      <trkpt lat="33.95771" lon="77.29866">
        <ele>3428.4</ele>
        <time>2015-09-02T03:37:41Z</time>
      </trkpt>
      <trkpt lat="33.95759" lon="77.29877">
        <ele>3429</ele>
        <time>2015-09-02T03:37:55Z</time>
      </trkpt>
      <trkpt lat="33.95757" lon="77.29878">
        <ele>3429.2</ele>
        <time>2015-09-02T03:37:57Z</time>
      </trkpt>
      <trkpt lat="33.95756" lon="77.29878">
        <ele>3429.4</ele>
        <time>2015-09-02T03:37:58Z</time>
      </trkpt>
      <trkpt lat="33.95746" lon="77.29883">
        <ele>3430.2</ele>
        <time>2015-09-02T03:38:10Z</time>
      </trkpt>
      <trkpt lat="33.95745" lon="77.29883">
        <ele>3430.4</ele>
        <time>2015-09-02T03:38:12Z</time>
      </trkpt>
      <trkpt lat="33.95738" lon="77.29897">
        <ele>3431.4</ele>
        <time>2015-09-02T03:38:26Z</time>
      </trkpt>
      <trkpt lat="33.95738" lon="77.29905">
        <ele>3431.6</ele>
        <time>2015-09-02T03:38:29Z</time>
      </trkpt>
      <trkpt lat="33.95736" lon="77.2992">
        <ele>3432.2</ele>
        <time>2015-09-02T03:38:36Z</time>
      </trkpt>
      <trkpt lat="33.95735" lon="77.29923">
        <ele>3432.6</ele>
        <time>2015-09-02T03:38:38Z</time>
      </trkpt>
      <trkpt lat="33.95735" lon="77.29918">
        <ele>3432.8</ele>
        <time>2015-09-02T03:38:41Z</time>
      </trkpt>
      <trkpt lat="33.95736" lon="77.29909">
        <ele>3432.6</ele>
        <time>2015-09-02T03:38:44Z</time>
      </trkpt>
      <trkpt lat="33.95735" lon="77.29911">
        <ele>3433.6</ele>
        <time>2015-09-02T03:38:58Z</time>
      </trkpt>
      <trkpt lat="33.95739" lon="77.29922">
        <ele>3434.6</ele>
        <time>2015-09-02T03:39:15Z</time>
      </trkpt>
      <trkpt lat="33.95736" lon="77.29929">
        <ele>3434.8</ele>
        <time>2015-09-02T03:39:21Z</time>
      </trkpt>
      <trkpt lat="33.95734" lon="77.29935">
        <ele>3435.2</ele>
        <time>2015-09-02T03:39:26Z</time>
      </trkpt>
      <trkpt lat="33.95736" lon="77.29954">
        <ele>3435.6</ele>
        <time>2015-09-02T03:39:32Z</time>
      </trkpt>
      <trkpt lat="33.95738" lon="77.29958">
        <ele>3435.8</ele>
        <time>2015-09-02T03:39:36Z</time>
      </trkpt>
      <trkpt lat="33.95741" lon="77.29963">
        <ele>3436</ele>
        <time>2015-09-02T03:39:40Z</time>
      </trkpt>
      <trkpt lat="33.95742" lon="77.29974">
        <ele>3436.8</ele>
        <time>2015-09-02T03:39:49Z</time>
      </trkpt>
      <trkpt lat="33.95743" lon="77.29977">
        <ele>3437</ele>
        <time>2015-09-02T03:39:52Z</time>
      </trkpt>
      <trkpt lat="33.95747" lon="77.29983">
        <ele>3437.4</ele>
        <time>2015-09-02T03:40:01Z</time>
      </trkpt>
      <trkpt lat="33.95752" lon="77.29984">
        <ele>3437.6</ele>
        <time>2015-09-02T03:40:04Z</time>
      </trkpt>
      <trkpt lat="33.95753" lon="77.29986">
        <ele>3437.8</ele>
        <time>2015-09-02T03:40:06Z</time>
      </trkpt>
      <trkpt lat="33.95754" lon="77.29988">
        <ele>3437.8</ele>
        <time>2015-09-02T03:40:08Z</time>
      </trkpt>
      <trkpt lat="33.95755" lon="77.3">
        <ele>3438.6</ele>
        <time>2015-09-02T03:40:20Z</time>
      </trkpt>
      <trkpt lat="33.95758" lon="77.30002">
        <ele>3438.6</ele>
        <time>2015-09-02T03:40:25Z</time>
      </trkpt>
      <trkpt lat="33.95762" lon="77.30011">
        <ele>3438.4</ele>
        <time>2015-09-02T03:40:38Z</time>
      </trkpt>
      <trkpt lat="33.9576" lon="77.30013">
        <ele>3438.4</ele>
        <time>2015-09-02T03:40:41Z</time>
      </trkpt>
      <trkpt lat="33.95754" lon="77.30013">
        <ele>3438.4</ele>
        <time>2015-09-02T03:40:47Z</time>
      </trkpt>
      <trkpt lat="33.9575" lon="77.30016">
        <ele>3438.6</ele>
        <time>2015-09-02T03:40:52Z</time>
      </trkpt>
      <trkpt lat="33.95749" lon="77.30019">
        <ele>3438.8</ele>
        <time>2015-09-02T03:40:55Z</time>
      </trkpt>
      <trkpt lat="33.95749" lon="77.3002">
        <ele>3438.8</ele>
        <time>2015-09-02T03:40:56Z</time>
      </trkpt>
      <trkpt lat="33.95743" lon="77.30033">
        <ele>3438.8</ele>
        <time>2015-09-02T03:41:06Z</time>
      </trkpt>
      <trkpt lat="33.95738" lon="77.30042">
        <ele>3438.8</ele>
        <time>2015-09-02T03:41:23Z</time>
      </trkpt>
      <trkpt lat="33.95745" lon="77.30046">
        <ele>3438.8</ele>
        <time>2015-09-02T03:41:36Z</time>
      </trkpt>
      <trkpt lat="33.9574" lon="77.30043">
        <ele>3438.8</ele>
        <time>2015-09-02T03:41:38Z</time>
      </trkpt>
      <trkpt lat="33.95737" lon="77.30043">
        <ele>3438.8</ele>
        <time>2015-09-02T03:41:41Z</time>
      </trkpt>
      <trkpt lat="33.95737" lon="77.30042">
        <ele>3438.8</ele>
        <time>2015-09-02T03:41:43Z</time>
      </trkpt>
      <trkpt lat="33.95738" lon="77.30046">
        <ele>3439.2</ele>
        <time>2015-09-02T03:42:37Z</time>
      </trkpt>
      <trkpt lat="33.95736" lon="77.30044">
        <ele>3439</ele>
        <time>2015-09-02T03:42:42Z</time>
      </trkpt>
      <trkpt lat="33.95734" lon="77.30047">
        <ele>3439</ele>
        <time>2015-09-02T03:42:45Z</time>
      </trkpt>
      <trkpt lat="33.95729" lon="77.30051">
        <ele>3439.2</ele>
        <time>2015-09-02T03:42:48Z</time>
      </trkpt>
      <trkpt lat="33.95726" lon="77.30054">
        <ele>3439.2</ele>
        <time>2015-09-02T03:42:50Z</time>
      </trkpt>
      <trkpt lat="33.95729" lon="77.30056">
        <ele>3439</ele>
        <time>2015-09-02T03:42:53Z</time>
      </trkpt>
      <trkpt lat="33.95733" lon="77.30056">
        <ele>3438.8</ele>
        <time>2015-09-02T03:42:55Z</time>
      </trkpt>
      <trkpt lat="33.95739" lon="77.30064">
        <ele>3438.2</ele>
        <time>2015-09-02T03:43:04Z</time>
      </trkpt>
      <trkpt lat="33.95744" lon="77.3007">
        <ele>3437.8</ele>
        <time>2015-09-02T03:43:10Z</time>
      </trkpt>
      <trkpt lat="33.95746" lon="77.30072">
        <ele>3437.2</ele>
        <time>2015-09-02T03:43:13Z</time>
      </trkpt>
      <trkpt lat="33.95746" lon="77.30077">
        <ele>3436.6</ele>
        <time>2015-09-02T03:43:18Z</time>
      </trkpt>
      <trkpt lat="33.95749" lon="77.30078">
        <ele>3436.4</ele>
        <time>2015-09-02T03:43:21Z</time>
      </trkpt>
      <trkpt lat="33.95749" lon="77.30079">
        <ele>3436.4</ele>
        <time>2015-09-02T03:43:22Z</time>
      </trkpt>
      <trkpt lat="33.9575" lon="77.30081">
        <ele>3436.2</ele>
        <time>2015-09-02T03:43:25Z</time>
      </trkpt>
      <trkpt lat="33.95755" lon="77.30086">
        <ele>3435.6</ele>
        <time>2015-09-02T03:43:30Z</time>
      </trkpt>
      <trkpt lat="33.9576" lon="77.30093">
        <ele>3435</ele>
        <time>2015-09-02T03:43:39Z</time>
      </trkpt>
      <trkpt lat="33.95769" lon="77.30112">
        <ele>3435.2</ele>
        <time>2015-09-02T03:43:58Z</time>
      </trkpt>
      <trkpt lat="33.95769" lon="77.30118">
        <ele>3435.4</ele>
        <time>2015-09-02T03:44:03Z</time>
      </trkpt>
      <trkpt lat="33.95768" lon="77.30141">
        <ele>3436</ele>
        <time>2015-09-02T03:44:19Z</time>
      </trkpt>
      <trkpt lat="33.95769" lon="77.30145">
        <ele>3435.8</ele>
        <time>2015-09-02T03:44:22Z</time>
      </trkpt>
      <trkpt lat="33.95774" lon="77.30156">
        <ele>3436</ele>
        <time>2015-09-02T03:44:32Z</time>
      </trkpt>
      <trkpt lat="33.95773" lon="77.30166">
        <ele>3435.6</ele>
        <time>2015-09-02T03:44:42Z</time>
      </trkpt>
      <trkpt lat="33.95774" lon="77.30174">
        <ele>3435.2</ele>
        <time>2015-09-02T03:44:49Z</time>
      </trkpt>
      <trkpt lat="33.95777" lon="77.30186">
        <ele>3435</ele>
        <time>2015-09-02T03:45:00Z</time>
      </trkpt>
      <trkpt lat="33.95781" lon="77.30209">
        <ele>3435.6</ele>
        <time>2015-09-02T03:45:17Z</time>
      </trkpt>
      <trkpt lat="33.95781" lon="77.30211">
        <ele>3435.6</ele>
        <time>2015-09-02T03:45:18Z</time>
      </trkpt>
      <trkpt lat="33.9578" lon="77.30232">
        <ele>3436</ele>
        <time>2015-09-02T03:45:37Z</time>
      </trkpt>
      <trkpt lat="33.95781" lon="77.30241">
        <ele>3436.4</ele>
        <time>2015-09-02T03:45:44Z</time>
      </trkpt>
      <trkpt lat="33.95779" lon="77.30247">
        <ele>3436.6</ele>
        <time>2015-09-02T03:45:48Z</time>
      </trkpt>
      <trkpt lat="33.95779" lon="77.3025">
        <ele>3437</ele>
        <time>2015-09-02T03:45:50Z</time>
      </trkpt>
      <trkpt lat="33.95779" lon="77.30254">
        <ele>3437.2</ele>
        <time>2015-09-02T03:45:56Z</time>
      </trkpt>
      <trkpt lat="33.95779" lon="77.30261">
        <ele>3437.8</ele>
        <time>2015-09-02T03:46:03Z</time>
      </trkpt>
      <trkpt lat="33.95779" lon="77.30267">
        <ele>3437.6</ele>
        <time>2015-09-02T03:46:09Z</time>
      </trkpt>
      <trkpt lat="33.95783" lon="77.30281">
        <ele>3437.6</ele>
        <time>2015-09-02T03:46:22Z</time>
      </trkpt>
      <trkpt lat="33.95785" lon="77.30287">
        <ele>3437.6</ele>
        <time>2015-09-02T03:46:26Z</time>
      </trkpt>
      <trkpt lat="33.95791" lon="77.30293">
        <ele>3437.8</ele>
        <time>2015-09-02T03:46:34Z</time>
      </trkpt>
      <trkpt lat="33.95792" lon="77.30298">
        <ele>3437.6</ele>
        <time>2015-09-02T03:46:39Z</time>
      </trkpt>
      <trkpt lat="33.95796" lon="77.30316">
        <ele>3437.8</ele>
        <time>2015-09-02T03:46:52Z</time>
      </trkpt>
      <trkpt lat="33.95796" lon="77.30321">
        <ele>3438</ele>
        <time>2015-09-02T03:46:56Z</time>
      </trkpt>
      <trkpt lat="33.95797" lon="77.30324">
        <ele>3438</ele>
        <time>2015-09-02T03:47:00Z</time>
      </trkpt>
      <trkpt lat="33.95798" lon="77.30326">
        <ele>3438</ele>
        <time>2015-09-02T03:47:02Z</time>
      </trkpt>
      <trkpt lat="33.95797" lon="77.30327">
        <ele>3438</ele>
        <time>2015-09-02T03:47:04Z</time>
      </trkpt>
      <trkpt lat="33.958" lon="77.30333">
        <ele>3438.8</ele>
        <time>2015-09-02T03:47:14Z</time>
      </trkpt>
      <trkpt lat="33.95801" lon="77.3034">
        <ele>3439</ele>
        <time>2015-09-02T03:47:19Z</time>
      </trkpt>
      <trkpt lat="33.95807" lon="77.30347">
        <ele>3438.8</ele>
        <time>2015-09-02T03:47:28Z</time>
      </trkpt>
      <trkpt lat="33.95807" lon="77.30365">
        <ele>3439.6</ele>
        <time>2015-09-02T03:47:42Z</time>
      </trkpt>
      <trkpt lat="33.95809" lon="77.30376">
        <ele>3439.6</ele>
        <time>2015-09-02T03:47:49Z</time>
      </trkpt>
      <trkpt lat="33.95806" lon="77.30383">
        <ele>3439.6</ele>
        <time>2015-09-02T03:47:54Z</time>
      </trkpt>
      <trkpt lat="33.95807" lon="77.30384">
        <ele>3439.6</ele>
        <time>2015-09-02T03:47:56Z</time>
      </trkpt>
      <trkpt lat="33.95807" lon="77.30387">
        <ele>3439.4</ele>
        <time>2015-09-02T03:47:59Z</time>
      </trkpt>
      <trkpt lat="33.95809" lon="77.30393">
        <ele>3439.8</ele>
        <time>2015-09-02T03:48:05Z</time>
      </trkpt>
      <trkpt lat="33.95809" lon="77.30395">
        <ele>3439.8</ele>
        <time>2015-09-02T03:48:06Z</time>
      </trkpt>
      <trkpt lat="33.95812" lon="77.30398">
        <ele>3439.8</ele>
        <time>2015-09-02T03:48:11Z</time>
      </trkpt>
      <trkpt lat="33.95814" lon="77.304">
        <ele>3439.8</ele>
        <time>2015-09-02T03:48:14Z</time>
      </trkpt>
      <trkpt lat="33.95811" lon="77.30408">
        <ele>3440.4</ele>
        <time>2015-09-02T03:48:20Z</time>
      </trkpt>
      <trkpt lat="33.95814" lon="77.30417">
        <ele>3439.8</ele>
        <time>2015-09-02T03:48:29Z</time>
      </trkpt>
      <trkpt lat="33.95814" lon="77.30419">
        <ele>3439.6</ele>
        <time>2015-09-02T03:48:31Z</time>
      </trkpt>
      <trkpt lat="33.95811" lon="77.30441">
        <ele>3439.8</ele>
        <time>2015-09-02T03:48:46Z</time>
      </trkpt>
      <trkpt lat="33.95809" lon="77.30444">
        <ele>3440</ele>
        <time>2015-09-02T03:48:49Z</time>
      </trkpt>
      <trkpt lat="33.95813" lon="77.30449">
        <ele>3440.2</ele>
        <time>2015-09-02T03:48:54Z</time>
      </trkpt>
      <trkpt lat="33.95816" lon="77.30451">
        <ele>3440.4</ele>
        <time>2015-09-02T03:48:58Z</time>
      </trkpt>
      <trkpt lat="33.95818" lon="77.30451">
        <ele>3440.4</ele>
        <time>2015-09-02T03:49:00Z</time>
      </trkpt>
      <trkpt lat="33.9582" lon="77.30453">
        <ele>3440.8</ele>
        <time>2015-09-02T03:49:03Z</time>
      </trkpt>
      <trkpt lat="33.95823" lon="77.30465">
        <ele>3441.6</ele>
        <time>2015-09-02T03:49:15Z</time>
      </trkpt>
      <trkpt lat="33.95824" lon="77.30472">
        <ele>3441.8</ele>
        <time>2015-09-02T03:49:25Z</time>
      </trkpt>
      <trkpt lat="33.95823" lon="77.30477">
        <ele>3442.2</ele>
        <time>2015-09-02T03:49:28Z</time>
      </trkpt>
      <trkpt lat="33.95826" lon="77.30479">
        <ele>3442.2</ele>
        <time>2015-09-02T03:49:30Z</time>
      </trkpt>
      <trkpt lat="33.95827" lon="77.30479">
        <ele>3442.2</ele>
        <time>2015-09-02T03:49:32Z</time>
      </trkpt>
      <trkpt lat="33.95828" lon="77.30485">
        <ele>3442</ele>
        <time>2015-09-02T03:49:38Z</time>
      </trkpt>
      <trkpt lat="33.95822" lon="77.30495">
        <ele>3440.8</ele>
        <time>2015-09-02T03:49:52Z</time>
      </trkpt>
      <trkpt lat="33.95821" lon="77.30497">
        <ele>3440.8</ele>
        <time>2015-09-02T03:49:54Z</time>
      </trkpt>
      <trkpt lat="33.95821" lon="77.30511">
        <ele>3441</ele>
        <time>2015-09-02T03:49:59Z</time>
      </trkpt>
      <trkpt lat="33.95819" lon="77.30517">
        <ele>3441</ele>
        <time>2015-09-02T03:50:02Z</time>
      </trkpt>
      <trkpt lat="33.95818" lon="77.3052">
        <ele>3441</ele>
        <time>2015-09-02T03:50:04Z</time>
      </trkpt>
      <trkpt lat="33.95818" lon="77.30529">
        <ele>3441</ele>
        <time>2015-09-02T03:50:11Z</time>
      </trkpt>
      <trkpt lat="33.95819" lon="77.30532">
        <ele>3441.2</ele>
        <time>2015-09-02T03:50:14Z</time>
      </trkpt>
      <trkpt lat="33.95819" lon="77.30537">
        <ele>3441.2</ele>
        <time>2015-09-02T03:50:18Z</time>
      </trkpt>
      <trkpt lat="33.95815" lon="77.3055">
        <ele>3441.8</ele>
        <time>2015-09-02T03:50:37Z</time>
      </trkpt>
      <trkpt lat="33.95811" lon="77.30565">
        <ele>3442.2</ele>
        <time>2015-09-02T03:50:48Z</time>
      </trkpt>
      <trkpt lat="33.95809" lon="77.30574">
        <ele>3443</ele>
        <time>2015-09-02T03:50:57Z</time>
      </trkpt>
      <trkpt lat="33.95807" lon="77.30577">
        <ele>3443</ele>
        <time>2015-09-02T03:51:00Z</time>
      </trkpt>
      <trkpt lat="33.95806" lon="77.30581">
        <ele>3443</ele>
        <time>2015-09-02T03:51:03Z</time>
      </trkpt>
      <trkpt lat="33.95803" lon="77.30589">
        <ele>3443.4</ele>
        <time>2015-09-02T03:51:11Z</time>
      </trkpt>
      <trkpt lat="33.95802" lon="77.30591">
        <ele>3444</ele>
        <time>2015-09-02T03:51:14Z</time>
      </trkpt>
      <trkpt lat="33.95798" lon="77.30612">
        <ele>3444.8</ele>
        <time>2015-09-02T03:51:32Z</time>
      </trkpt>
      <trkpt lat="33.95798" lon="77.30615">
        <ele>3445.2</ele>
        <time>2015-09-02T03:51:35Z</time>
      </trkpt>
      <trkpt lat="33.95795" lon="77.30619">
        <ele>3445.4</ele>
        <time>2015-09-02T03:51:40Z</time>
      </trkpt>
      <trkpt lat="33.95794" lon="77.30621">
        <ele>3445.4</ele>
        <time>2015-09-02T03:51:42Z</time>
      </trkpt>
      <trkpt lat="33.95791" lon="77.30626">
        <ele>3445</ele>
        <time>2015-09-02T03:51:47Z</time>
      </trkpt>
      <trkpt lat="33.95788" lon="77.3063">
        <ele>3444.2</ele>
        <time>2015-09-02T03:51:52Z</time>
      </trkpt>
      <trkpt lat="33.95788" lon="77.30634">
        <ele>3444</ele>
        <time>2015-09-02T03:51:54Z</time>
      </trkpt>
      <trkpt lat="33.95787" lon="77.30636">
        <ele>3444</ele>
        <time>2015-09-02T03:51:55Z</time>
      </trkpt>
      <trkpt lat="33.95779" lon="77.30646">
        <ele>3444.8</ele>
        <time>2015-09-02T03:52:11Z</time>
      </trkpt>
      <trkpt lat="33.95778" lon="77.30649">
        <ele>3445</ele>
        <time>2015-09-02T03:52:14Z</time>
      </trkpt>
      <trkpt lat="33.95775" lon="77.30661">
        <ele>3444.6</ele>
        <time>2015-09-02T03:52:27Z</time>
      </trkpt>
      <trkpt lat="33.95775" lon="77.30663">
        <ele>3444.6</ele>
        <time>2015-09-02T03:52:29Z</time>
      </trkpt>
      <trkpt lat="33.95775" lon="77.30675">
        <ele>3444.4</ele>
        <time>2015-09-02T03:52:35Z</time>
      </trkpt>
      <trkpt lat="33.95775" lon="77.30678">
        <ele>3444.4</ele>
        <time>2015-09-02T03:52:37Z</time>
      </trkpt>
      <trkpt lat="33.95777" lon="77.30681">
        <ele>3444.8</ele>
        <time>2015-09-02T03:52:40Z</time>
      </trkpt>
      <trkpt lat="33.9578" lon="77.30692">
        <ele>3444.8</ele>
        <time>2015-09-02T03:52:45Z</time>
      </trkpt>
      <trkpt lat="33.95784" lon="77.30703">
        <ele>3444.6</ele>
        <time>2015-09-02T03:52:54Z</time>
      </trkpt>
      <trkpt lat="33.95785" lon="77.30712">
        <ele>3445</ele>
        <time>2015-09-02T03:52:59Z</time>
      </trkpt>
      <trkpt lat="33.95786" lon="77.30713">
        <ele>3445</ele>
        <time>2015-09-02T03:53:01Z</time>
      </trkpt>
      <trkpt lat="33.95787" lon="77.30714">
        <ele>3445.2</ele>
        <time>2015-09-02T03:53:02Z</time>
      </trkpt>
      <trkpt lat="33.95786" lon="77.30721">
        <ele>3445.4</ele>
        <time>2015-09-02T03:53:07Z</time>
      </trkpt>
      <trkpt lat="33.95787" lon="77.30727">
        <ele>3445.2</ele>
        <time>2015-09-02T03:53:12Z</time>
      </trkpt>
      <trkpt lat="33.95788" lon="77.30733">
        <ele>3445.4</ele>
        <time>2015-09-02T03:53:18Z</time>
      </trkpt>
      <trkpt lat="33.95791" lon="77.30738">
        <ele>3445.6</ele>
        <time>2015-09-02T03:53:22Z</time>
      </trkpt>
      <trkpt lat="33.95793" lon="77.3074">
        <ele>3445.8</ele>
        <time>2015-09-02T03:53:24Z</time>
      </trkpt>
      <trkpt lat="33.95794" lon="77.30743">
        <ele>3446</ele>
        <time>2015-09-02T03:53:27Z</time>
      </trkpt>
      <trkpt lat="33.95794" lon="77.30743">
        <ele>3446.2</ele>
        <time>2015-09-02T03:53:28Z</time>
      </trkpt>
      <trkpt lat="33.95795" lon="77.30751">
        <ele>3446.4</ele>
        <time>2015-09-02T03:53:32Z</time>
      </trkpt>
      <trkpt lat="33.95795" lon="77.30754">
        <ele>3446.4</ele>
        <time>2015-09-02T03:53:34Z</time>
      </trkpt>
      <trkpt lat="33.95795" lon="77.30758">
        <ele>3446.4</ele>
        <time>2015-09-02T03:53:37Z</time>
      </trkpt>
      <trkpt lat="33.95794" lon="77.30761">
        <ele>3446.6</ele>
        <time>2015-09-02T03:53:40Z</time>
      </trkpt>
      <trkpt lat="33.95796" lon="77.30765">
        <ele>3446.8</ele>
        <time>2015-09-02T03:53:44Z</time>
      </trkpt>
      <trkpt lat="33.95798" lon="77.3077">
        <ele>3446.8</ele>
        <time>2015-09-02T03:53:49Z</time>
      </trkpt>
      <trkpt lat="33.95799" lon="77.30773">
        <ele>3447.2</ele>
        <time>2015-09-02T03:53:53Z</time>
      </trkpt>
      <trkpt lat="33.95799" lon="77.30779">
        <ele>3448.4</ele>
        <time>2015-09-02T03:54:04Z</time>
      </trkpt>
      <trkpt lat="33.95803" lon="77.30783">
        <ele>3449.4</ele>
        <time>2015-09-02T03:54:12Z</time>
      </trkpt>
      <trkpt lat="33.95803" lon="77.30783">
        <ele>3449.4</ele>
        <time>2015-09-02T03:54:13Z</time>
      </trkpt>
      <trkpt lat="33.95806" lon="77.30788">
        <ele>3450.4</ele>
        <time>2015-09-02T03:54:19Z</time>
      </trkpt>
      <trkpt lat="33.95808" lon="77.30792">
        <ele>3450.8</ele>
        <time>2015-09-02T03:54:23Z</time>
      </trkpt>
      <trkpt lat="33.95808" lon="77.30793">
        <ele>3451</ele>
        <time>2015-09-02T03:54:25Z</time>
      </trkpt>
      <trkpt lat="33.95807" lon="77.30801">
        <ele>3449.4</ele>
        <time>2015-09-02T03:54:33Z</time>
      </trkpt>
      <trkpt lat="33.95806" lon="77.30802">
        <ele>3449.4</ele>
        <time>2015-09-02T03:54:34Z</time>
      </trkpt>
      <trkpt lat="33.95803" lon="77.30805">
        <ele>3448.2</ele>
        <time>2015-09-02T03:54:38Z</time>
      </trkpt>
      <trkpt lat="33.95803" lon="77.30808">
        <ele>3447.8</ele>
        <time>2015-09-02T03:54:40Z</time>
      </trkpt>
      <trkpt lat="33.95802" lon="77.30811">
        <ele>3447.2</ele>
        <time>2015-09-02T03:54:43Z</time>
      </trkpt>
      <trkpt lat="33.958" lon="77.30822">
        <ele>3446.6</ele>
        <time>2015-09-02T03:54:49Z</time>
      </trkpt>
      <trkpt lat="33.95797" lon="77.30827">
        <ele>3446.6</ele>
        <time>2015-09-02T03:54:52Z</time>
      </trkpt>
      <trkpt lat="33.95795" lon="77.30841">
        <ele>3447.2</ele>
        <time>2015-09-02T03:55:16Z</time>
      </trkpt>
      <trkpt lat="33.95793" lon="77.30843">
        <ele>3447.2</ele>
        <time>2015-09-02T03:55:18Z</time>
      </trkpt>
      <trkpt lat="33.95787" lon="77.30856">
        <ele>3447</ele>
        <time>2015-09-02T03:55:36Z</time>
      </trkpt>
      <trkpt lat="33.95786" lon="77.30859">
        <ele>3447</ele>
        <time>2015-09-02T03:55:38Z</time>
      </trkpt>
      <trkpt lat="33.95783" lon="77.30865">
        <ele>3448.4</ele>
        <time>2015-09-02T03:55:52Z</time>
      </trkpt>
      <trkpt lat="33.95782" lon="77.30866">
        <ele>3448.8</ele>
        <time>2015-09-02T03:55:54Z</time>
      </trkpt>
      <trkpt lat="33.95779" lon="77.3087">
        <ele>3449.4</ele>
        <time>2015-09-02T03:56:02Z</time>
      </trkpt>
      <trkpt lat="33.95777" lon="77.30879">
        <ele>3450.4</ele>
        <time>2015-09-02T03:56:10Z</time>
      </trkpt>
      <trkpt lat="33.95776" lon="77.3088">
        <ele>3450.6</ele>
        <time>2015-09-02T03:56:11Z</time>
      </trkpt>
      <trkpt lat="33.95773" lon="77.30884">
        <ele>3450.6</ele>
        <time>2015-09-02T03:56:16Z</time>
      </trkpt>
      <trkpt lat="33.95771" lon="77.30888">
        <ele>3449.4</ele>
        <time>2015-09-02T03:56:24Z</time>
      </trkpt>
      <trkpt lat="33.95769" lon="77.30893">
        <ele>3448.6</ele>
        <time>2015-09-02T03:56:27Z</time>
      </trkpt>
      <trkpt lat="33.95768" lon="77.30897">
        <ele>3448.4</ele>
        <time>2015-09-02T03:56:29Z</time>
      </trkpt>
      <trkpt lat="33.95767" lon="77.30901">
        <ele>3448.2</ele>
        <time>2015-09-02T03:56:31Z</time>
      </trkpt>
      <trkpt lat="33.95766" lon="77.30904">
        <ele>3448</ele>
        <time>2015-09-02T03:56:33Z</time>
      </trkpt>
      <trkpt lat="33.95761" lon="77.30914">
        <ele>3448.4</ele>
        <time>2015-09-02T03:56:45Z</time>
      </trkpt>
      <trkpt lat="33.95761" lon="77.30915">
        <ele>3448.4</ele>
        <time>2015-09-02T03:56:47Z</time>
      </trkpt>
      <trkpt lat="33.95762" lon="77.30919">
        <ele>3448.4</ele>
        <time>2015-09-02T03:56:49Z</time>
      </trkpt>
      <trkpt lat="33.95758" lon="77.30928">
        <ele>3448.8</ele>
        <time>2015-09-02T03:57:01Z</time>
      </trkpt>
      <trkpt lat="33.95756" lon="77.30932">
        <ele>3449</ele>
        <time>2015-09-02T03:57:05Z</time>
      </trkpt>
      <trkpt lat="33.95755" lon="77.30934">
        <ele>3449</ele>
        <time>2015-09-02T03:57:07Z</time>
      </trkpt>
      <trkpt lat="33.95753" lon="77.30936">
        <ele>3449</ele>
        <time>2015-09-02T03:57:09Z</time>
      </trkpt>
      <trkpt lat="33.95752" lon="77.3094">
        <ele>3449</ele>
        <time>2015-09-02T03:57:12Z</time>
      </trkpt>
      <trkpt lat="33.95751" lon="77.30945">
        <ele>3449.2</ele>
        <time>2015-09-02T03:57:16Z</time>
      </trkpt>
      <trkpt lat="33.95749" lon="77.3096">
        <ele>3449.2</ele>
        <time>2015-09-02T03:57:27Z</time>
      </trkpt>
      <trkpt lat="33.95745" lon="77.30965">
        <ele>3449.4</ele>
        <time>2015-09-02T03:57:31Z</time>
      </trkpt>
      <trkpt lat="33.95744" lon="77.30966">
        <ele>3449.4</ele>
        <time>2015-09-02T03:57:32Z</time>
      </trkpt>
      <trkpt lat="33.95741" lon="77.30968">
        <ele>3449.4</ele>
        <time>2015-09-02T03:57:35Z</time>
      </trkpt>
      <trkpt lat="33.95738" lon="77.30974">
        <ele>3449.6</ele>
        <time>2015-09-02T03:57:41Z</time>
      </trkpt>
      <trkpt lat="33.95732" lon="77.30984">
        <ele>3449.8</ele>
        <time>2015-09-02T03:57:50Z</time>
      </trkpt>
      <trkpt lat="33.95728" lon="77.3099">
        <ele>3449.6</ele>
        <time>2015-09-02T03:57:55Z</time>
      </trkpt>
      <trkpt lat="33.95729" lon="77.30997">
        <ele>3450</ele>
        <time>2015-09-02T03:58:02Z</time>
      </trkpt>
      <trkpt lat="33.9573" lon="77.30998">
        <ele>3450</ele>
        <time>2015-09-02T03:58:04Z</time>
      </trkpt>
      <trkpt lat="33.95732" lon="77.31002">
        <ele>3450</ele>
        <time>2015-09-02T03:58:09Z</time>
      </trkpt>
      <trkpt lat="33.95737" lon="77.31007">
        <ele>3450.4</ele>
        <time>2015-09-02T03:58:16Z</time>
      </trkpt>
      <trkpt lat="33.95738" lon="77.31006">
        <ele>3450.4</ele>
        <time>2015-09-02T03:58:17Z</time>
      </trkpt>
      <trkpt lat="33.9574" lon="77.31007">
        <ele>3450.4</ele>
        <time>2015-09-02T03:58:19Z</time>
      </trkpt>
      <trkpt lat="33.95742" lon="77.31008">
        <ele>3451.4</ele>
        <time>2015-09-02T03:58:25Z</time>
      </trkpt>
      <trkpt lat="33.95742" lon="77.31006">
        <ele>3452.4</ele>
        <time>2015-09-02T03:58:30Z</time>
      </trkpt>
      <trkpt lat="33.95744" lon="77.31006">
        <ele>3453.4</ele>
        <time>2015-09-02T03:58:35Z</time>
      </trkpt>
      <trkpt lat="33.95746" lon="77.31002">
        <ele>3454.6</ele>
        <time>2015-09-02T03:58:40Z</time>
      </trkpt>
      <trkpt lat="33.95749" lon="77.31001">
        <ele>3455.6</ele>
        <time>2015-09-02T03:58:46Z</time>
      </trkpt>
      <trkpt lat="33.95752" lon="77.31004">
        <ele>3456.6</ele>
        <time>2015-09-02T03:58:52Z</time>
      </trkpt>
      <trkpt lat="33.95757" lon="77.31007">
        <ele>3456.2</ele>
        <time>2015-09-02T03:58:59Z</time>
      </trkpt>
      <trkpt lat="33.95758" lon="77.31011">
        <ele>3455.6</ele>
        <time>2015-09-02T03:59:03Z</time>
      </trkpt>
      <trkpt lat="33.95759" lon="77.31014">
        <ele>3455.2</ele>
        <time>2015-09-02T03:59:07Z</time>
      </trkpt>
      <trkpt lat="33.95763" lon="77.31031">
        <ele>3456.2</ele>
        <time>2015-09-02T03:59:27Z</time>
      </trkpt>
      <trkpt lat="33.95762" lon="77.31037">
        <ele>3456.6</ele>
        <time>2015-09-02T03:59:32Z</time>
      </trkpt>
      <trkpt lat="33.95765" lon="77.31042">
        <ele>3456.6</ele>
        <time>2015-09-02T03:59:37Z</time>
      </trkpt>
      <trkpt lat="33.95771" lon="77.31049">
        <ele>3457.4</ele>
        <time>2015-09-02T03:59:44Z</time>
      </trkpt>
      <trkpt lat="33.95773" lon="77.3105">
        <ele>3457.8</ele>
        <time>2015-09-02T03:59:47Z</time>
      </trkpt>
      <trkpt lat="33.95774" lon="77.31053">
        <ele>3457.8</ele>
        <time>2015-09-02T03:59:50Z</time>
      </trkpt>
      <trkpt lat="33.95774" lon="77.31057">
        <ele>3458.2</ele>
        <time>2015-09-02T04:00:05Z</time>
      </trkpt>
      <trkpt lat="33.95774" lon="77.31058">
        <ele>3458.2</ele>
        <time>2015-09-02T04:00:06Z</time>
      </trkpt>
      <trkpt lat="33.95778" lon="77.31062">
        <ele>3458.8</ele>
        <time>2015-09-02T04:00:16Z</time>
      </trkpt>
      <trkpt lat="33.95778" lon="77.31064">
        <ele>3459.8</ele>
        <time>2015-09-02T04:00:22Z</time>
      </trkpt>
      <trkpt lat="33.95779" lon="77.31066">
        <ele>3461</ele>
        <time>2015-09-02T04:00:29Z</time>
      </trkpt>
      <trkpt lat="33.95784" lon="77.31069">
        <ele>3462</ele>
        <time>2015-09-02T04:00:35Z</time>
      </trkpt>
      <trkpt lat="33.95786" lon="77.3107">
        <ele>3462.2</ele>
        <time>2015-09-02T04:00:38Z</time>
      </trkpt>
      <trkpt lat="33.95794" lon="77.31074">
        <ele>3461.6</ele>
        <time>2015-09-02T04:00:48Z</time>
      </trkpt>
      <trkpt lat="33.95792" lon="77.31073">
        <ele>3460.8</ele>
        <time>2015-09-02T04:00:52Z</time>
      </trkpt>
      <trkpt lat="33.95788" lon="77.31073">
        <ele>3459.8</ele>
        <time>2015-09-02T04:01:01Z</time>
      </trkpt>
      <trkpt lat="33.95786" lon="77.31079">
        <ele>3459.2</ele>
        <time>2015-09-02T04:01:04Z</time>
      </trkpt>
      <trkpt lat="33.95774" lon="77.31084">
        <ele>3458.6</ele>
        <time>2015-09-02T04:01:08Z</time>
      </trkpt>
      <trkpt lat="33.95773" lon="77.31091">
        <ele>3458.2</ele>
        <time>2015-09-02T04:01:12Z</time>
      </trkpt>
      <trkpt lat="33.95775" lon="77.31092">
        <ele>3457.6</ele>
        <time>2015-09-02T04:01:15Z</time>
      </trkpt>
      <trkpt lat="33.95776" lon="77.311">
        <ele>3457</ele>
        <time>2015-09-02T04:01:19Z</time>
      </trkpt>
      <trkpt lat="33.95777" lon="77.31107">
        <ele>3456.4</ele>
        <time>2015-09-02T04:01:22Z</time>
      </trkpt>
      <trkpt lat="33.95783" lon="77.31109">
        <ele>3455.2</ele>
        <time>2015-09-02T04:01:30Z</time>
      </trkpt>
      <trkpt lat="33.95787" lon="77.31109">
        <ele>3454</ele>
        <time>2015-09-02T04:01:34Z</time>
      </trkpt>
      <trkpt lat="33.95796" lon="77.31106">
        <ele>3453.8</ele>
        <time>2015-09-02T04:01:35Z</time>
      </trkpt>
      <trkpt lat="33.95796" lon="77.31108">
        <ele>3453</ele>
        <time>2015-09-02T04:01:44Z</time>
      </trkpt>
      <trkpt lat="33.95803" lon="77.31124">
        <ele>3453.8</ele>
        <time>2015-09-02T04:02:03Z</time>
      </trkpt>
      <trkpt lat="33.95803" lon="77.31133">
        <ele>3454</ele>
        <time>2015-09-02T04:02:11Z</time>
      </trkpt>
      <trkpt lat="33.95798" lon="77.31156">
        <ele>3454.4</ele>
        <time>2015-09-02T04:02:25Z</time>
      </trkpt>
      <trkpt lat="33.95792" lon="77.31177">
        <ele>3455</ele>
        <time>2015-09-02T04:02:40Z</time>
      </trkpt>
      <trkpt lat="33.95792" lon="77.31179">
        <ele>3455</ele>
        <time>2015-09-02T04:02:42Z</time>
      </trkpt>
      <trkpt lat="33.95791" lon="77.31181">
        <ele>3455</ele>
        <time>2015-09-02T04:02:43Z</time>
      </trkpt>
      <trkpt lat="33.95788" lon="77.31187">
        <ele>3455</ele>
        <time>2015-09-02T04:02:51Z</time>
      </trkpt>
      <trkpt lat="33.95789" lon="77.31193">
        <ele>3454.8</ele>
        <time>2015-09-02T04:02:54Z</time>
      </trkpt>
      <trkpt lat="33.95787" lon="77.31199">
        <ele>3454.8</ele>
        <time>2015-09-02T04:02:58Z</time>
      </trkpt>
      <trkpt lat="33.95785" lon="77.31201">
        <ele>3455</ele>
        <time>2015-09-02T04:03:01Z</time>
      </trkpt>
      <trkpt lat="33.95785" lon="77.31207">
        <ele>3455.4</ele>
        <time>2015-09-02T04:03:08Z</time>
      </trkpt>
      <trkpt lat="33.95793" lon="77.31213">
        <ele>3456.2</ele>
        <time>2015-09-02T04:03:33Z</time>
      </trkpt>
      <trkpt lat="33.95788" lon="77.3122">
        <ele>3456</ele>
        <time>2015-09-02T04:03:40Z</time>
      </trkpt>
      <trkpt lat="33.95789" lon="77.31225">
        <ele>3456.2</ele>
        <time>2015-09-02T04:03:45Z</time>
      </trkpt>
      <trkpt lat="33.95791" lon="77.31227">
        <ele>3456.2</ele>
        <time>2015-09-02T04:03:47Z</time>
      </trkpt>
      <trkpt lat="33.95789" lon="77.3123">
        <ele>3456.4</ele>
        <time>2015-09-02T04:03:49Z</time>
      </trkpt>
      <trkpt lat="33.95786" lon="77.31234">
        <ele>3456.4</ele>
        <time>2015-09-02T04:03:51Z</time>
      </trkpt>
      <trkpt lat="33.95786" lon="77.3124">
        <ele>3456.6</ele>
        <time>2015-09-02T04:03:57Z</time>
      </trkpt>
      <trkpt lat="33.9578" lon="77.31249">
        <ele>3456.8</ele>
        <time>2015-09-02T04:04:01Z</time>
      </trkpt>
      <trkpt lat="33.95781" lon="77.31254">
        <ele>3456.8</ele>
        <time>2015-09-02T04:04:05Z</time>
      </trkpt>
      <trkpt lat="33.95783" lon="77.31259">
        <ele>3457</ele>
        <time>2015-09-02T04:04:09Z</time>
      </trkpt>
      <trkpt lat="33.95783" lon="77.31271">
        <ele>3457.2</ele>
        <time>2015-09-02T04:04:18Z</time>
      </trkpt>
      <trkpt lat="33.95784" lon="77.3127">
        <ele>3457.2</ele>
        <time>2015-09-02T04:04:19Z</time>
      </trkpt>
      <trkpt lat="33.95796" lon="77.31277">
        <ele>3457.4</ele>
        <time>2015-09-02T04:04:36Z</time>
      </trkpt>
      <trkpt lat="33.95807" lon="77.31278">
        <ele>3457.6</ele>
        <time>2015-09-02T04:04:43Z</time>
      </trkpt>
      <trkpt lat="33.95811" lon="77.31292">
        <ele>3458</ele>
        <time>2015-09-02T04:04:54Z</time>
      </trkpt>
      <trkpt lat="33.95808" lon="77.31298">
        <ele>3458</ele>
        <time>2015-09-02T04:04:57Z</time>
      </trkpt>
      <trkpt lat="33.95796" lon="77.31316">
        <ele>3458</ele>
        <time>2015-09-02T04:05:06Z</time>
      </trkpt>
      <trkpt lat="33.95793" lon="77.31319">
        <ele>3458.2</ele>
        <time>2015-09-02T04:05:09Z</time>
      </trkpt>
      <trkpt lat="33.95789" lon="77.3132">
        <ele>3458.4</ele>
        <time>2015-09-02T04:05:12Z</time>
      </trkpt>
      <trkpt lat="33.95784" lon="77.31322">
        <ele>3458.6</ele>
        <time>2015-09-02T04:05:16Z</time>
      </trkpt>
      <trkpt lat="33.95779" lon="77.31328">
        <ele>3459.2</ele>
        <time>2015-09-02T04:05:29Z</time>
      </trkpt>
      <trkpt lat="33.95779" lon="77.31332">
        <ele>3459.4</ele>
        <time>2015-09-02T04:05:34Z</time>
      </trkpt>
      <trkpt lat="33.95775" lon="77.31342">
        <ele>3459.6</ele>
        <time>2015-09-02T04:05:39Z</time>
      </trkpt>
      <trkpt lat="33.95774" lon="77.31343">
        <ele>3459.6</ele>
        <time>2015-09-02T04:05:41Z</time>
      </trkpt>
      <trkpt lat="33.95772" lon="77.31346">
        <ele>3459.8</ele>
        <time>2015-09-02T04:05:45Z</time>
      </trkpt>
      <trkpt lat="33.95767" lon="77.31354">
        <ele>3460</ele>
        <time>2015-09-02T04:05:53Z</time>
      </trkpt>
      <trkpt lat="33.95765" lon="77.31359">
        <ele>3460.2</ele>
        <time>2015-09-02T04:05:56Z</time>
      </trkpt>
      <trkpt lat="33.95757" lon="77.3137">
        <ele>3461.2</ele>
        <time>2015-09-02T04:06:10Z</time>
      </trkpt>
      <trkpt lat="33.95757" lon="77.31369">
        <ele>3461.2</ele>
        <time>2015-09-02T04:06:11Z</time>
      </trkpt>
      <trkpt lat="33.95754" lon="77.31376">
        <ele>3461.4</ele>
        <time>2015-09-02T04:06:19Z</time>
      </trkpt>
      <trkpt lat="33.95756" lon="77.31382">
        <ele>3461.4</ele>
        <time>2015-09-02T04:06:21Z</time>
      </trkpt>
      <trkpt lat="33.95759" lon="77.31392">
        <ele>3462.2</ele>
        <time>2015-09-02T04:06:38Z</time>
      </trkpt>
      <trkpt lat="33.95752" lon="77.31401">
        <ele>3462.8</ele>
        <time>2015-09-02T04:06:58Z</time>
      </trkpt>
      <trkpt lat="33.9575" lon="77.31405">
        <ele>3463</ele>
        <time>2015-09-02T04:07:01Z</time>
      </trkpt>
      <trkpt lat="33.9575" lon="77.31415">
        <ele>3463.2</ele>
        <time>2015-09-02T04:07:07Z</time>
      </trkpt>
      <trkpt lat="33.95748" lon="77.31417">
        <ele>3463.4</ele>
        <time>2015-09-02T04:07:10Z</time>
      </trkpt>
      <trkpt lat="33.9575" lon="77.31425">
        <ele>3463</ele>
        <time>2015-09-02T04:07:19Z</time>
      </trkpt>
      <trkpt lat="33.95745" lon="77.31439">
        <ele>3463.8</ele>
        <time>2015-09-02T04:07:32Z</time>
      </trkpt>
      <trkpt lat="33.95742" lon="77.31445">
        <ele>3463.8</ele>
        <time>2015-09-02T04:07:35Z</time>
      </trkpt>
      <trkpt lat="33.95727" lon="77.31457">
        <ele>3463.8</ele>
        <time>2015-09-02T04:07:47Z</time>
      </trkpt>
      <trkpt lat="33.9572" lon="77.31469">
        <ele>3464.4</ele>
        <time>2015-09-02T04:07:55Z</time>
      </trkpt>
      <trkpt lat="33.95721" lon="77.31478">
        <ele>3464.8</ele>
        <time>2015-09-02T04:08:09Z</time>
      </trkpt>
      <trkpt lat="33.9572" lon="77.31479">
        <ele>3464.8</ele>
        <time>2015-09-02T04:08:10Z</time>
      </trkpt>
      <trkpt lat="33.95716" lon="77.31494">
        <ele>3465.4</ele>
        <time>2015-09-02T04:08:25Z</time>
      </trkpt>
      <trkpt lat="33.95714" lon="77.315">
        <ele>3465.6</ele>
        <time>2015-09-02T04:08:30Z</time>
      </trkpt>
      <trkpt lat="33.9571" lon="77.31523">
        <ele>3466</ele>
        <time>2015-09-02T04:08:41Z</time>
      </trkpt>
      <trkpt lat="33.95703" lon="77.31544">
        <ele>3466</ele>
        <time>2015-09-02T04:08:51Z</time>
      </trkpt>
      <trkpt lat="33.95624" lon="77.3159">
        <ele>3469.2</ele>
        <time>2015-09-02T04:10:29Z</time>
      </trkpt>
      <trkpt lat="33.95609" lon="77.31633">
        <ele>3473.4</ele>
        <time>2015-09-02T04:11:24Z</time>
      </trkpt>
      <trkpt lat="33.95601" lon="77.31651">
        <ele>3473.2</ele>
        <time>2015-09-02T04:11:41Z</time>
      </trkpt>
      <trkpt lat="33.95619" lon="77.3169">
        <ele>3472.8</ele>
        <time>2015-09-02T04:12:07Z</time>
      </trkpt>
      <trkpt lat="33.95611" lon="77.31703">
        <ele>3472.8</ele>
        <time>2015-09-02T04:12:16Z</time>
      </trkpt>
      <trkpt lat="33.95593" lon="77.31724">
        <ele>3472.6</ele>
        <time>2015-09-02T04:12:32Z</time>
      </trkpt>
      <trkpt lat="33.95555" lon="77.31778">
        <ele>3474.2</ele>
        <time>2015-09-02T04:13:35Z</time>
      </trkpt>
      <trkpt lat="33.95541" lon="77.31827">
        <ele>3476</ele>
        <time>2015-09-02T04:14:16Z</time>
      </trkpt>
      <trkpt lat="33.9554" lon="77.31839">
        <ele>3476.4</ele>
        <time>2015-09-02T04:14:34Z</time>
      </trkpt>
      <trkpt lat="33.95534" lon="77.31862">
        <ele>3477.4</ele>
        <time>2015-09-02T04:14:50Z</time>
      </trkpt>
      <trkpt lat="33.95531" lon="77.31868">
        <ele>3478</ele>
        <time>2015-09-02T04:14:57Z</time>
      </trkpt>
      <trkpt lat="33.95518" lon="77.31888">
        <ele>3479.4</ele>
        <time>2015-09-02T04:15:27Z</time>
      </trkpt>
      <trkpt lat="33.95497" lon="77.31926">
        <ele>3478.6</ele>
        <time>2015-09-02T04:16:09Z</time>
      </trkpt>
      <trkpt lat="33.95472" lon="77.3195">
        <ele>3480</ele>
        <time>2015-09-02T04:16:36Z</time>
      </trkpt>
      <trkpt lat="33.95451" lon="77.31974">
        <ele>3481.2</ele>
        <time>2015-09-02T04:17:00Z</time>
      </trkpt>
      <trkpt lat="33.95422" lon="77.32007">
        <ele>3481.8</ele>
        <time>2015-09-02T04:17:34Z</time>
      </trkpt>
      <trkpt lat="33.95391" lon="77.32008">
        <ele>3484</ele>
        <time>2015-09-02T04:18:16Z</time>
      </trkpt>
      <trkpt lat="33.95322" lon="77.31999">
        <ele>3487.4</ele>
        <time>2015-09-02T04:21:27Z</time>
      </trkpt>
      <trkpt lat="33.95324" lon="77.32007">
        <ele>3487.6</ele>
        <time>2015-09-02T04:21:38Z</time>
      </trkpt>
      <trkpt lat="33.95327" lon="77.32006">
        <ele>3487.8</ele>
        <time>2015-09-02T04:21:40Z</time>
      </trkpt>
      <trkpt lat="33.95328" lon="77.32006">
        <ele>3487.6</ele>
        <time>2015-09-02T04:21:42Z</time>
      </trkpt>
      <trkpt lat="33.9533" lon="77.32007">
        <ele>3487.4</ele>
        <time>2015-09-02T04:21:44Z</time>
      </trkpt>
      <trkpt lat="33.95278" lon="77.31985">
        <ele>3488.6</ele>
        <time>2015-09-02T04:23:30Z</time>
      </trkpt>
      <trkpt lat="33.95278" lon="77.31986">
        <ele>3488.6</ele>
        <time>2015-09-02T04:23:32Z</time>
      </trkpt>
      <trkpt lat="33.95273" lon="77.31983">
        <ele>3488.8</ele>
        <time>2015-09-02T04:23:36Z</time>
      </trkpt>
      <trkpt lat="33.95261" lon="77.31973">
        <ele>3489.6</ele>
        <time>2015-09-02T04:23:48Z</time>
      </trkpt>
      <trkpt lat="33.95258" lon="77.31974">
        <ele>3489.8</ele>
        <time>2015-09-02T04:23:50Z</time>
      </trkpt>
      <trkpt lat="33.95256" lon="77.31977">
        <ele>3490</ele>
        <time>2015-09-02T04:23:53Z</time>
      </trkpt>
      <trkpt lat="33.95253" lon="77.31978">
        <ele>3490.2</ele>
        <time>2015-09-02T04:23:56Z</time>
      </trkpt>
      <trkpt lat="33.95249" lon="77.31978">
        <ele>3490.2</ele>
        <time>2015-09-02T04:23:59Z</time>
      </trkpt>
      <trkpt lat="33.95247" lon="77.31979">
        <ele>3490.6</ele>
        <time>2015-09-02T04:24:02Z</time>
      </trkpt>
      <trkpt lat="33.95244" lon="77.31981">
        <ele>3490.8</ele>
        <time>2015-09-02T04:24:04Z</time>
      </trkpt>
      <trkpt lat="33.95243" lon="77.31982">
        <ele>3490.8</ele>
        <time>2015-09-02T04:24:06Z</time>
      </trkpt>
      <trkpt lat="33.95239" lon="77.31986">
        <ele>3490.8</ele>
        <time>2015-09-02T04:24:10Z</time>
      </trkpt>
      <trkpt lat="33.95238" lon="77.31986">
        <ele>3491</ele>
        <time>2015-09-02T04:24:11Z</time>
      </trkpt>
      <trkpt lat="33.95232" lon="77.31991">
        <ele>3491.6</ele>
        <time>2015-09-02T04:24:18Z</time>
      </trkpt>
      <trkpt lat="33.9523" lon="77.32004">
        <ele>3491.8</ele>
        <time>2015-09-02T04:24:26Z</time>
      </trkpt>
      <trkpt lat="33.95219" lon="77.32011">
        <ele>3491.8</ele>
        <time>2015-09-02T04:24:38Z</time>
      </trkpt>
      <trkpt lat="33.95215" lon="77.32011">
        <ele>3491.6</ele>
        <time>2015-09-02T04:24:41Z</time>
      </trkpt>
      <trkpt lat="33.95209" lon="77.32015">
        <ele>3491.6</ele>
        <time>2015-09-02T04:24:48Z</time>
      </trkpt>
      <trkpt lat="33.95204" lon="77.32018">
        <ele>3491.8</ele>
        <time>2015-09-02T04:24:53Z</time>
      </trkpt>
      <trkpt lat="33.95202" lon="77.3202">
        <ele>3491.8</ele>
        <time>2015-09-02T04:24:55Z</time>
      </trkpt>
      <trkpt lat="33.95201" lon="77.3202">
        <ele>3492</ele>
        <time>2015-09-02T04:24:56Z</time>
      </trkpt>
      <trkpt lat="33.95188" lon="77.32036">
        <ele>3492.4</ele>
        <time>2015-09-02T04:25:13Z</time>
      </trkpt>
      <trkpt lat="33.95181" lon="77.32041">
        <ele>3492.8</ele>
        <time>2015-09-02T04:25:22Z</time>
      </trkpt>
      <trkpt lat="33.95174" lon="77.32045">
        <ele>3493</ele>
        <time>2015-09-02T04:25:31Z</time>
      </trkpt>
      <trkpt lat="33.95166" lon="77.32051">
        <ele>3494</ele>
        <time>2015-09-02T04:25:44Z</time>
      </trkpt>
      <trkpt lat="33.95164" lon="77.32056">
        <ele>3494.2</ele>
        <time>2015-09-02T04:25:48Z</time>
      </trkpt>
      <trkpt lat="33.95162" lon="77.32058">
        <ele>3494.2</ele>
        <time>2015-09-02T04:25:51Z</time>
      </trkpt>
      <trkpt lat="33.95162" lon="77.3206">
        <ele>3494.2</ele>
        <time>2015-09-02T04:25:53Z</time>
      </trkpt>
      <trkpt lat="33.95148" lon="77.32063">
        <ele>3494.8</ele>
        <time>2015-09-02T04:26:11Z</time>
      </trkpt>
      <trkpt lat="33.95145" lon="77.32065">
        <ele>3494.8</ele>
        <time>2015-09-02T04:26:14Z</time>
      </trkpt>
      <trkpt lat="33.95143" lon="77.32067">
        <ele>3495</ele>
        <time>2015-09-02T04:26:17Z</time>
      </trkpt>
      <trkpt lat="33.95141" lon="77.32068">
        <ele>3495.2</ele>
        <time>2015-09-02T04:26:19Z</time>
      </trkpt>
      <trkpt lat="33.95139" lon="77.3207">
        <ele>3495.2</ele>
        <time>2015-09-02T04:26:21Z</time>
      </trkpt>
      <trkpt lat="33.95125" lon="77.32079">
        <ele>3495.2</ele>
        <time>2015-09-02T04:26:36Z</time>
      </trkpt>
      <trkpt lat="33.95122" lon="77.32077">
        <ele>3495.4</ele>
        <time>2015-09-02T04:26:39Z</time>
      </trkpt>
      <trkpt lat="33.95118" lon="77.32076">
        <ele>3495.4</ele>
        <time>2015-09-02T04:26:43Z</time>
      </trkpt>
      <trkpt lat="33.95103" lon="77.32063">
        <ele>3496.2</ele>
        <time>2015-09-02T04:26:55Z</time>
      </trkpt>
      <trkpt lat="33.95102" lon="77.32068">
        <ele>3496.2</ele>
        <time>2015-09-02T04:26:59Z</time>
      </trkpt>
      <trkpt lat="33.95066" lon="77.32127">
        <ele>3496.6</ele>
        <time>2015-09-02T04:27:59Z</time>
      </trkpt>
      <trkpt lat="33.95056" lon="77.32109">
        <ele>3496.6</ele>
        <time>2015-09-02T04:28:01Z</time>
      </trkpt>
      <trkpt lat="33.95051" lon="77.32102">
        <ele>3496.6</ele>
        <time>2015-09-02T04:28:03Z</time>
      </trkpt>
      <trkpt lat="33.9504" lon="77.32104">
        <ele>3496.8</ele>
        <time>2015-09-02T04:28:12Z</time>
      </trkpt>
      <trkpt lat="33.95037" lon="77.32106">
        <ele>3497</ele>
        <time>2015-09-02T04:28:16Z</time>
      </trkpt>
      <trkpt lat="33.95036" lon="77.32111">
        <ele>3497</ele>
        <time>2015-09-02T04:28:19Z</time>
      </trkpt>
      <trkpt lat="33.95036" lon="77.32118">
        <ele>3497</ele>
        <time>2015-09-02T04:28:23Z</time>
      </trkpt>
      <trkpt lat="33.95037" lon="77.32125">
        <ele>3496.8</ele>
        <time>2015-09-02T04:28:26Z</time>
      </trkpt>
      <trkpt lat="33.94845" lon="77.32264">
        <ele>3501.6</ele>
        <time>2015-09-02T04:32:10Z</time>
      </trkpt>
      <trkpt lat="33.94841" lon="77.32275">
        <ele>3501.6</ele>
        <time>2015-09-02T04:32:15Z</time>
      </trkpt>
      <trkpt lat="33.94837" lon="77.32277">
        <ele>3501.6</ele>
        <time>2015-09-02T04:32:18Z</time>
      </trkpt>
      <trkpt lat="33.94832" lon="77.32281">
        <ele>3501.8</ele>
        <time>2015-09-02T04:32:24Z</time>
      </trkpt>
      <trkpt lat="33.94827" lon="77.32281">
        <ele>3501.6</ele>
        <time>2015-09-02T04:32:27Z</time>
      </trkpt>
      <trkpt lat="33.94824" lon="77.32281">
        <ele>3501.6</ele>
        <time>2015-09-02T04:32:30Z</time>
      </trkpt>
      <trkpt lat="33.9482" lon="77.32285">
        <ele>3502</ele>
        <time>2015-09-02T04:32:35Z</time>
      </trkpt>
      <trkpt lat="33.9482" lon="77.32288">
        <ele>3502</ele>
        <time>2015-09-02T04:32:37Z</time>
      </trkpt>
      <trkpt lat="33.94818" lon="77.3229">
        <ele>3502</ele>
        <time>2015-09-02T04:32:39Z</time>
      </trkpt>
      <trkpt lat="33.94816" lon="77.32291">
        <ele>3502</ele>
        <time>2015-09-02T04:32:41Z</time>
      </trkpt>
      <trkpt lat="33.9481" lon="77.32293">
        <ele>3501.8</ele>
        <time>2015-09-02T04:32:47Z</time>
      </trkpt>
      <trkpt lat="33.94807" lon="77.32294">
        <ele>3502</ele>
        <time>2015-09-02T04:32:50Z</time>
      </trkpt>
      <trkpt lat="33.94805" lon="77.32295">
        <ele>3502.6</ele>
        <time>2015-09-02T04:32:53Z</time>
      </trkpt>
      <trkpt lat="33.94801" lon="77.32298">
        <ele>3503.6</ele>
        <time>2015-09-02T04:32:57Z</time>
      </trkpt>
      <trkpt lat="33.94793" lon="77.32294">
        <ele>3503.8</ele>
        <time>2015-09-02T04:33:05Z</time>
      </trkpt>
      <trkpt lat="33.94781" lon="77.32285">
        <ele>3503.2</ele>
        <time>2015-09-02T04:33:13Z</time>
      </trkpt>
      <trkpt lat="33.94776" lon="77.3229">
        <ele>3503.8</ele>
        <time>2015-09-02T04:33:19Z</time>
      </trkpt>
      <trkpt lat="33.94771" lon="77.32292">
        <ele>3504.4</ele>
        <time>2015-09-02T04:33:25Z</time>
      </trkpt>
      <trkpt lat="33.94768" lon="77.32291">
        <ele>3504.4</ele>
        <time>2015-09-02T04:33:28Z</time>
      </trkpt>
      <trkpt lat="33.94765" lon="77.32291">
        <ele>3504.6</ele>
        <time>2015-09-02T04:33:30Z</time>
      </trkpt>
      <trkpt lat="33.94763" lon="77.32292">
        <ele>3504.8</ele>
        <time>2015-09-02T04:33:32Z</time>
      </trkpt>
      <trkpt lat="33.94762" lon="77.32292">
        <ele>3504.8</ele>
        <time>2015-09-02T04:33:33Z</time>
      </trkpt>
      <trkpt lat="33.94757" lon="77.32291">
        <ele>3505.4</ele>
        <time>2015-09-02T04:33:38Z</time>
      </trkpt>
      <trkpt lat="33.94754" lon="77.32294">
        <ele>3505.8</ele>
        <time>2015-09-02T04:33:42Z</time>
      </trkpt>
      <trkpt lat="33.94744" lon="77.323">
        <ele>3506.2</ele>
        <time>2015-09-02T04:33:47Z</time>
      </trkpt>
      <trkpt lat="33.94734" lon="77.32303">
        <ele>3506.4</ele>
        <time>2015-09-02T04:33:49Z</time>
      </trkpt>
      <trkpt lat="33.94733" lon="77.32303">
        <ele>3506.6</ele>
        <time>2015-09-02T04:33:51Z</time>
      </trkpt>
      <trkpt lat="33.94728" lon="77.32301">
        <ele>3506.8</ele>
        <time>2015-09-02T04:33:55Z</time>
      </trkpt>
      <trkpt lat="33.94727" lon="77.323">
        <ele>3506.8</ele>
        <time>2015-09-02T04:33:56Z</time>
      </trkpt>
      <trkpt lat="33.94724" lon="77.32297">
        <ele>3507.2</ele>
        <time>2015-09-02T04:34:00Z</time>
      </trkpt>
      <trkpt lat="33.94722" lon="77.32293">
        <ele>3507.2</ele>
        <time>2015-09-02T04:34:04Z</time>
      </trkpt>
      <trkpt lat="33.94716" lon="77.32288">
        <ele>3507.4</ele>
        <time>2015-09-02T04:34:11Z</time>
      </trkpt>
      <trkpt lat="33.94714" lon="77.32286">
        <ele>3507.6</ele>
        <time>2015-09-02T04:34:14Z</time>
      </trkpt>
      <trkpt lat="33.94712" lon="77.32286">
        <ele>3507.6</ele>
        <time>2015-09-02T04:34:16Z</time>
      </trkpt>
      <trkpt lat="33.9471" lon="77.32286">
        <ele>3507.6</ele>
        <time>2015-09-02T04:34:18Z</time>
      </trkpt>
      <trkpt lat="33.94705" lon="77.32288">
        <ele>3507.6</ele>
        <time>2015-09-02T04:34:22Z</time>
      </trkpt>
      <trkpt lat="33.94703" lon="77.32288">
        <ele>3507.6</ele>
        <time>2015-09-02T04:34:25Z</time>
      </trkpt>
      <trkpt lat="33.94697" lon="77.32292">
        <ele>3507.8</ele>
        <time>2015-09-02T04:34:29Z</time>
      </trkpt>
      <trkpt lat="33.94692" lon="77.32293">
        <ele>3508.4</ele>
        <time>2015-09-02T04:34:34Z</time>
      </trkpt>
      <trkpt lat="33.9469" lon="77.32294">
        <ele>3508.4</ele>
        <time>2015-09-02T04:34:36Z</time>
      </trkpt>
      <trkpt lat="33.94684" lon="77.32296">
        <ele>3508.8</ele>
        <time>2015-09-02T04:34:43Z</time>
      </trkpt>
      <trkpt lat="33.94679" lon="77.32296">
        <ele>3509.6</ele>
        <time>2015-09-02T04:34:48Z</time>
      </trkpt>
      <trkpt lat="33.94678" lon="77.32295">
        <ele>3509.8</ele>
        <time>2015-09-02T04:34:50Z</time>
      </trkpt>
      <trkpt lat="33.94676" lon="77.32295">
        <ele>3510.2</ele>
        <time>2015-09-02T04:34:52Z</time>
      </trkpt>
      <trkpt lat="33.9467" lon="77.32294">
        <ele>3511</ele>
        <time>2015-09-02T04:35:01Z</time>
      </trkpt>
      <trkpt lat="33.94669" lon="77.32295">
        <ele>3511</ele>
        <time>2015-09-02T04:35:02Z</time>
      </trkpt>
      <trkpt lat="33.94665" lon="77.32293">
        <ele>3511.4</ele>
        <time>2015-09-02T04:35:07Z</time>
      </trkpt>
      <trkpt lat="33.94658" lon="77.32298">
        <ele>3512</ele>
        <time>2015-09-02T04:35:17Z</time>
      </trkpt>
      <trkpt lat="33.94652" lon="77.32301">
        <ele>3512.6</ele>
        <time>2015-09-02T04:35:23Z</time>
      </trkpt>
      <trkpt lat="33.94643" lon="77.32303">
        <ele>3513</ele>
        <time>2015-09-02T04:35:33Z</time>
      </trkpt>
      <trkpt lat="33.9464" lon="77.32306">
        <ele>3513</ele>
        <time>2015-09-02T04:35:37Z</time>
      </trkpt>
      <trkpt lat="33.94639" lon="77.32307">
        <ele>3513</ele>
        <time>2015-09-02T04:35:39Z</time>
      </trkpt>
      <trkpt lat="33.94637" lon="77.32308">
        <ele>3513</ele>
        <time>2015-09-02T04:35:41Z</time>
      </trkpt>
      <trkpt lat="33.94636" lon="77.32309">
        <ele>3513.2</ele>
        <time>2015-09-02T04:35:42Z</time>
      </trkpt>
      <trkpt lat="33.94636" lon="77.32311">
        <ele>3513.2</ele>
        <time>2015-09-02T04:35:45Z</time>
      </trkpt>
      <trkpt lat="33.94635" lon="77.32314">
        <ele>3512.6</ele>
        <time>2015-09-02T04:35:47Z</time>
      </trkpt>
      <trkpt lat="33.94636" lon="77.32317">
        <ele>3512.8</ele>
        <time>2015-09-02T04:35:51Z</time>
      </trkpt>
      <trkpt lat="33.94636" lon="77.32327">
        <ele>3513</ele>
        <time>2015-09-02T04:35:57Z</time>
      </trkpt>
      <trkpt lat="33.94631" lon="77.32335">
        <ele>3512.2</ele>
        <time>2015-09-02T04:36:06Z</time>
      </trkpt>
      <trkpt lat="33.94628" lon="77.32339">
        <ele>3512</ele>
        <time>2015-09-02T04:36:09Z</time>
      </trkpt>
      <trkpt lat="33.94619" lon="77.32354">
        <ele>3511.2</ele>
        <time>2015-09-02T04:36:22Z</time>
      </trkpt>
      <trkpt lat="33.94618" lon="77.32354">
        <ele>3511</ele>
        <time>2015-09-02T04:36:24Z</time>
      </trkpt>
      <trkpt lat="33.94616" lon="77.32355">
        <ele>3510.8</ele>
        <time>2015-09-02T04:36:26Z</time>
      </trkpt>
      <trkpt lat="33.94605" lon="77.32366">
        <ele>3510.2</ele>
        <time>2015-09-02T04:36:39Z</time>
      </trkpt>
      <trkpt lat="33.94605" lon="77.32369">
        <ele>3510</ele>
        <time>2015-09-02T04:36:41Z</time>
      </trkpt>
      <trkpt lat="33.94598" lon="77.3238">
        <ele>3509.8</ele>
        <time>2015-09-02T04:36:51Z</time>
      </trkpt>
      <trkpt lat="33.94596" lon="77.32382">
        <ele>3509.8</ele>
        <time>2015-09-02T04:36:54Z</time>
      </trkpt>
      <trkpt lat="33.94593" lon="77.32395">
        <ele>3510</ele>
        <time>2015-09-02T04:37:06Z</time>
      </trkpt>
      <trkpt lat="33.94596" lon="77.32402">
        <ele>3510.2</ele>
        <time>2015-09-02T04:37:13Z</time>
      </trkpt>
      <trkpt lat="33.94592" lon="77.32403">
        <ele>3510.4</ele>
        <time>2015-09-02T04:37:17Z</time>
      </trkpt>
      <trkpt lat="33.94591" lon="77.3241">
        <ele>3511</ele>
        <time>2015-09-02T04:37:22Z</time>
      </trkpt>
      <trkpt lat="33.94595" lon="77.32418">
        <ele>3511</ele>
        <time>2015-09-02T04:37:27Z</time>
      </trkpt>
      <trkpt lat="33.94593" lon="77.32419">
        <ele>3511</ele>
        <time>2015-09-02T04:37:28Z</time>
      </trkpt>
      <trkpt lat="33.94593" lon="77.3242">
        <ele>3511.2</ele>
        <time>2015-09-02T04:37:31Z</time>
      </trkpt>
      <trkpt lat="33.94592" lon="77.32424">
        <ele>3511.4</ele>
        <time>2015-09-02T04:37:35Z</time>
      </trkpt>
      <trkpt lat="33.9459" lon="77.32426">
        <ele>3511.4</ele>
        <time>2015-09-02T04:37:37Z</time>
      </trkpt>
      <trkpt lat="33.94589" lon="77.32429">
        <ele>3511.4</ele>
        <time>2015-09-02T04:37:40Z</time>
      </trkpt>
      <trkpt lat="33.94587" lon="77.32439">
        <ele>3511.6</ele>
        <time>2015-09-02T04:37:49Z</time>
      </trkpt>
      <trkpt lat="33.94584" lon="77.32439">
        <ele>3511.6</ele>
        <time>2015-09-02T04:37:51Z</time>
      </trkpt>
      <trkpt lat="33.94581" lon="77.32441">
        <ele>3512</ele>
        <time>2015-09-02T04:37:56Z</time>
      </trkpt>
      <trkpt lat="33.94582" lon="77.32452">
        <ele>3512</ele>
        <time>2015-09-02T04:38:02Z</time>
      </trkpt>
      <trkpt lat="33.94578" lon="77.32464">
        <ele>3512.2</ele>
        <time>2015-09-02T04:38:09Z</time>
      </trkpt>
      <trkpt lat="33.94575" lon="77.32469">
        <ele>3512.4</ele>
        <time>2015-09-02T04:38:14Z</time>
      </trkpt>
      <trkpt lat="33.94569" lon="77.32472">
        <ele>3511.6</ele>
        <time>2015-09-02T04:38:20Z</time>
      </trkpt>
      <trkpt lat="33.94576" lon="77.32479">
        <ele>3512.4</ele>
        <time>2015-09-02T04:38:30Z</time>
      </trkpt>
      <trkpt lat="33.94577" lon="77.32484">
        <ele>3512.6</ele>
        <time>2015-09-02T04:38:35Z</time>
      </trkpt>
      <trkpt lat="33.94578" lon="77.3249">
        <ele>3513.2</ele>
        <time>2015-09-02T04:38:40Z</time>
      </trkpt>
      <trkpt lat="33.94578" lon="77.3249">
        <ele>3513.4</ele>
        <time>2015-09-02T04:38:41Z</time>
      </trkpt>
      <trkpt lat="33.94576" lon="77.32494">
        <ele>3514</ele>
        <time>2015-09-02T04:38:45Z</time>
      </trkpt>
      <trkpt lat="33.94577" lon="77.32495">
        <ele>3514.2</ele>
        <time>2015-09-02T04:38:49Z</time>
      </trkpt>
      <trkpt lat="33.94578" lon="77.32498">
        <ele>3514.6</ele>
        <time>2015-09-02T04:38:53Z</time>
      </trkpt>
      <trkpt lat="33.9458" lon="77.32501">
        <ele>3514.8</ele>
        <time>2015-09-02T04:38:55Z</time>
      </trkpt>
      <trkpt lat="33.94579" lon="77.32526">
        <ele>3514.6</ele>
        <time>2015-09-02T04:39:11Z</time>
      </trkpt>
      <trkpt lat="33.94583" lon="77.32565">
        <ele>3513.6</ele>
        <time>2015-09-02T04:39:43Z</time>
      </trkpt>
      <trkpt lat="33.94582" lon="77.32572">
        <ele>3514.4</ele>
        <time>2015-09-02T04:39:51Z</time>
      </trkpt>
      <trkpt lat="33.94578" lon="77.32576">
        <ele>3514.4</ele>
        <time>2015-09-02T04:39:55Z</time>
      </trkpt>
      <trkpt lat="33.94564" lon="77.32578">
        <ele>3514.8</ele>
        <time>2015-09-02T04:40:07Z</time>
      </trkpt>
      <trkpt lat="33.94553" lon="77.32582">
        <ele>3516.4</ele>
        <time>2015-09-02T04:40:18Z</time>
      </trkpt>
      <trkpt lat="33.94156" lon="77.3324">
        <ele>3544.8</ele>
        <time>2015-09-02T04:56:16Z</time>
      </trkpt>
      <trkpt lat="33.94156" lon="77.3325">
        <ele>3544.8</ele>
        <time>2015-09-02T04:56:22Z</time>
      </trkpt>
      <trkpt lat="33.94148" lon="77.33251">
        <ele>3545</ele>
        <time>2015-09-02T04:56:26Z</time>
      </trkpt>
      <trkpt lat="33.9415" lon="77.33254">
        <ele>3545</ele>
        <time>2015-09-02T04:56:28Z</time>
      </trkpt>
      <trkpt lat="33.94143" lon="77.33258">
        <ele>3545.6</ele>
        <time>2015-09-02T04:56:36Z</time>
      </trkpt>
      <trkpt lat="33.94141" lon="77.3326">
        <ele>3546</ele>
        <time>2015-09-02T04:56:40Z</time>
      </trkpt>
      <trkpt lat="33.94135" lon="77.33262">
        <ele>3546.2</ele>
        <time>2015-09-02T04:56:44Z</time>
      </trkpt>
      <trkpt lat="33.94126" lon="77.33261">
        <ele>3546.8</ele>
        <time>2015-09-02T04:56:47Z</time>
      </trkpt>
      <trkpt lat="33.94123" lon="77.33261">
        <ele>3547</ele>
        <time>2015-09-02T04:56:49Z</time>
      </trkpt>
      <trkpt lat="33.9412" lon="77.33262">
        <ele>3547</ele>
        <time>2015-09-02T04:56:51Z</time>
      </trkpt>
      <trkpt lat="33.94117" lon="77.33266">
        <ele>3547.4</ele>
        <time>2015-09-02T04:56:55Z</time>
      </trkpt>
      <trkpt lat="33.94119" lon="77.33269">
        <ele>3547.6</ele>
        <time>2015-09-02T04:56:57Z</time>
      </trkpt>
      <trkpt lat="33.94123" lon="77.33275">
        <ele>3547.6</ele>
        <time>2015-09-02T04:57:00Z</time>
      </trkpt>
      <trkpt lat="33.94121" lon="77.33276">
        <ele>3547.6</ele>
        <time>2015-09-02T04:57:02Z</time>
      </trkpt>
      <trkpt lat="33.94118" lon="77.33277">
        <ele>3547.8</ele>
        <time>2015-09-02T04:57:04Z</time>
      </trkpt>
      <trkpt lat="33.94118" lon="77.3328">
        <ele>3547.8</ele>
        <time>2015-09-02T04:57:06Z</time>
      </trkpt>
      <trkpt lat="33.94117" lon="77.33285">
        <ele>3548</ele>
        <time>2015-09-02T04:57:12Z</time>
      </trkpt>
      <trkpt lat="33.94115" lon="77.33287">
        <ele>3548.4</ele>
        <time>2015-09-02T04:57:15Z</time>
      </trkpt>
      <trkpt lat="33.94112" lon="77.33287">
        <ele>3548.8</ele>
        <time>2015-09-02T04:57:17Z</time>
      </trkpt>
      <trkpt lat="33.94111" lon="77.33288">
        <ele>3549</ele>
        <time>2015-09-02T04:57:18Z</time>
      </trkpt>
      <trkpt lat="33.94111" lon="77.33294">
        <ele>3550</ele>
        <time>2015-09-02T04:57:23Z</time>
      </trkpt>
      <trkpt lat="33.94111" lon="77.33296">
        <ele>3550.2</ele>
        <time>2015-09-02T04:57:24Z</time>
      </trkpt>
      <trkpt lat="33.9411" lon="77.33299">
        <ele>3550.4</ele>
        <time>2015-09-02T04:57:27Z</time>
      </trkpt>
      <trkpt lat="33.94107" lon="77.33302">
        <ele>3550.6</ele>
        <time>2015-09-02T04:57:30Z</time>
      </trkpt>
      <trkpt lat="33.9411" lon="77.33306">
        <ele>3550.6</ele>
        <time>2015-09-02T04:57:32Z</time>
      </trkpt>
      <trkpt lat="33.94114" lon="77.33311">
        <ele>3550.8</ele>
        <time>2015-09-02T04:57:34Z</time>
      </trkpt>
      <trkpt lat="33.94115" lon="77.33315">
        <ele>3551</ele>
        <time>2015-09-02T04:57:37Z</time>
      </trkpt>
      <trkpt lat="33.94115" lon="77.33318">
        <ele>3551.2</ele>
        <time>2015-09-02T04:57:39Z</time>
      </trkpt>
      <trkpt lat="33.94118" lon="77.33323">
        <ele>3551.6</ele>
        <time>2015-09-02T04:57:42Z</time>
      </trkpt>
      <trkpt lat="33.94117" lon="77.33325">
        <ele>3551.8</ele>
        <time>2015-09-02T04:57:45Z</time>
      </trkpt>
      <trkpt lat="33.94111" lon="77.33324">
        <ele>3552</ele>
        <time>2015-09-02T04:57:47Z</time>
      </trkpt>
      <trkpt lat="33.94108" lon="77.33324">
        <ele>3552</ele>
        <time>2015-09-02T04:57:49Z</time>
      </trkpt>
      <trkpt lat="33.94105" lon="77.33325">
        <ele>3552.2</ele>
        <time>2015-09-02T04:57:52Z</time>
      </trkpt>
      <trkpt lat="33.94103" lon="77.33327">
        <ele>3552.2</ele>
        <time>2015-09-02T04:57:55Z</time>
      </trkpt>
      <trkpt lat="33.941" lon="77.33329">
        <ele>3552.6</ele>
        <time>2015-09-02T04:57:58Z</time>
      </trkpt>
      <trkpt lat="33.94101" lon="77.33332">
        <ele>3552.8</ele>
        <time>2015-09-02T04:58:00Z</time>
      </trkpt>
      <trkpt lat="33.94102" lon="77.33338">
        <ele>3553.4</ele>
        <time>2015-09-02T04:58:04Z</time>
      </trkpt>
      <trkpt lat="33.941" lon="77.33338">
        <ele>3553.4</ele>
        <time>2015-09-02T04:58:05Z</time>
      </trkpt>
      <trkpt lat="33.94095" lon="77.33342">
        <ele>3554</ele>
        <time>2015-09-02T04:58:11Z</time>
      </trkpt>
      <trkpt lat="33.94097" lon="77.33347">
        <ele>3554.2</ele>
        <time>2015-09-02T04:58:15Z</time>
      </trkpt>
      <trkpt lat="33.94098" lon="77.3335">
        <ele>3554.4</ele>
        <time>2015-09-02T04:58:18Z</time>
      </trkpt>
      <trkpt lat="33.94096" lon="77.33351">
        <ele>3554.6</ele>
        <time>2015-09-02T04:58:20Z</time>
      </trkpt>
      <trkpt lat="33.94097" lon="77.33354">
        <ele>3554.6</ele>
        <time>2015-09-02T04:58:22Z</time>
      </trkpt>
      <trkpt lat="33.94098" lon="77.3336">
        <ele>3554.6</ele>
        <time>2015-09-02T04:58:25Z</time>
      </trkpt>
      <trkpt lat="33.94096" lon="77.33364">
        <ele>3554.2</ele>
        <time>2015-09-02T04:58:29Z</time>
      </trkpt>
      <trkpt lat="33.94092" lon="77.33365">
        <ele>3554.2</ele>
        <time>2015-09-02T04:58:33Z</time>
      </trkpt>
      <trkpt lat="33.94087" lon="77.33367">
        <ele>3554.4</ele>
        <time>2015-09-02T04:58:37Z</time>
      </trkpt>
      <trkpt lat="33.94088" lon="77.3337">
        <ele>3554.2</ele>
        <time>2015-09-02T04:58:39Z</time>
      </trkpt>
      <trkpt lat="33.94072" lon="77.33382">
        <ele>3556.4</ele>
        <time>2015-09-02T04:59:03Z</time>
      </trkpt>
      <trkpt lat="33.94072" lon="77.33382">
        <ele>3556.4</ele>
        <time>2015-09-02T04:59:04Z</time>
      </trkpt>
      <trkpt lat="33.94069" lon="77.33386">
        <ele>3557.4</ele>
        <time>2015-09-02T04:59:11Z</time>
      </trkpt>
      <trkpt lat="33.94068" lon="77.33386">
        <ele>3557.6</ele>
        <time>2015-09-02T04:59:12Z</time>
      </trkpt>
      <trkpt lat="33.94065" lon="77.33387">
        <ele>3557.8</ele>
        <time>2015-09-02T04:59:14Z</time>
      </trkpt>
      <trkpt lat="33.94063" lon="77.3339">
        <ele>3558.2</ele>
        <time>2015-09-02T04:59:17Z</time>
      </trkpt>
      <trkpt lat="33.94059" lon="77.33392">
        <ele>3558.4</ele>
        <time>2015-09-02T04:59:21Z</time>
      </trkpt>
      <trkpt lat="33.94056" lon="77.33396">
        <ele>3558.6</ele>
        <time>2015-09-02T04:59:26Z</time>
      </trkpt>
      <trkpt lat="33.9405" lon="77.33403">
        <ele>3559.6</ele>
        <time>2015-09-02T04:59:37Z</time>
      </trkpt>
      <trkpt lat="33.94042" lon="77.33412">
        <ele>3560</ele>
        <time>2015-09-02T04:59:51Z</time>
      </trkpt>
      <trkpt lat="33.94037" lon="77.33414">
        <ele>3560</ele>
        <time>2015-09-02T04:59:55Z</time>
      </trkpt>
      <trkpt lat="33.94032" lon="77.33418">
        <ele>3560.2</ele>
        <time>2015-09-02T04:59:59Z</time>
      </trkpt>
      <trkpt lat="33.9403" lon="77.33422">
        <ele>3560.6</ele>
        <time>2015-09-02T05:00:03Z</time>
      </trkpt>
      <trkpt lat="33.9403" lon="77.33422">
        <ele>3560.6</ele>
        <time>2015-09-02T05:00:04Z</time>
      </trkpt>
      <trkpt lat="33.94026" lon="77.33425">
        <ele>3560.8</ele>
        <time>2015-09-02T05:00:08Z</time>
      </trkpt>
      <trkpt lat="33.94015" lon="77.33431">
        <ele>3561.6</ele>
        <time>2015-09-02T05:00:19Z</time>
      </trkpt>
      <trkpt lat="33.94014" lon="77.33433">
        <ele>3561.6</ele>
        <time>2015-09-02T05:00:21Z</time>
      </trkpt>
      <trkpt lat="33.94012" lon="77.33434">
        <ele>3561.6</ele>
        <time>2015-09-02T05:00:23Z</time>
      </trkpt>
      <trkpt lat="33.94009" lon="77.3344">
        <ele>3561.6</ele>
        <time>2015-09-02T05:00:33Z</time>
      </trkpt>
      <trkpt lat="33.94007" lon="77.33442">
        <ele>3561.6</ele>
        <time>2015-09-02T05:00:36Z</time>
      </trkpt>
      <trkpt lat="33.94004" lon="77.33447">
        <ele>3561.8</ele>
        <time>2015-09-02T05:00:41Z</time>
      </trkpt>
      <trkpt lat="33.94004" lon="77.33451">
        <ele>3561.8</ele>
        <time>2015-09-02T05:00:44Z</time>
      </trkpt>
      <trkpt lat="33.93996" lon="77.33459">
        <ele>3561.8</ele>
        <time>2015-09-02T05:00:52Z</time>
      </trkpt>
      <trkpt lat="33.93989" lon="77.33465">
        <ele>3561.8</ele>
        <time>2015-09-02T05:00:59Z</time>
      </trkpt>
      <trkpt lat="33.93987" lon="77.33468">
        <ele>3561.6</ele>
        <time>2015-09-02T05:01:01Z</time>
      </trkpt>
      <trkpt lat="33.93983" lon="77.33473">
        <ele>3561.6</ele>
        <time>2015-09-02T05:01:06Z</time>
      </trkpt>
      <trkpt lat="33.93966" lon="77.3348">
        <ele>3561.2</ele>
        <time>2015-09-02T05:01:18Z</time>
      </trkpt>
      <trkpt lat="33.93961" lon="77.33481">
        <ele>3561</ele>
        <time>2015-09-02T05:01:21Z</time>
      </trkpt>
      <trkpt lat="33.93955" lon="77.33484">
        <ele>3560.6</ele>
        <time>2015-09-02T05:01:25Z</time>
      </trkpt>
      <trkpt lat="33.93953" lon="77.33487">
        <ele>3560.6</ele>
        <time>2015-09-02T05:01:28Z</time>
      </trkpt>
      <trkpt lat="33.93957" lon="77.33491">
        <ele>3560.8</ele>
        <time>2015-09-02T05:01:33Z</time>
      </trkpt>
      <trkpt lat="33.9395" lon="77.3349">
        <ele>3560.8</ele>
        <time>2015-09-02T05:01:37Z</time>
      </trkpt>
      <trkpt lat="33.93947" lon="77.33492">
        <ele>3560.8</ele>
        <time>2015-09-02T05:01:40Z</time>
      </trkpt>
      <trkpt lat="33.93947" lon="77.33494">
        <ele>3560.6</ele>
        <time>2015-09-02T05:01:42Z</time>
      </trkpt>
      <trkpt lat="33.93946" lon="77.33503">
        <ele>3560.8</ele>
        <time>2015-09-02T05:01:48Z</time>
      </trkpt>
      <trkpt lat="33.93944" lon="77.33506">
        <ele>3560.8</ele>
        <time>2015-09-02T05:01:50Z</time>
      </trkpt>
      <trkpt lat="33.93943" lon="77.3351">
        <ele>3560.8</ele>
        <time>2015-09-02T05:01:52Z</time>
      </trkpt>
      <trkpt lat="33.93947" lon="77.33515">
        <ele>3560</ele>
        <time>2015-09-02T05:01:58Z</time>
      </trkpt>
      <trkpt lat="33.93953" lon="77.3352">
        <ele>3559.6</ele>
        <time>2015-09-02T05:02:01Z</time>
      </trkpt>
      <trkpt lat="33.93953" lon="77.33522">
        <ele>3559.4</ele>
        <time>2015-09-02T05:02:02Z</time>
      </trkpt>
      <trkpt lat="33.93953" lon="77.33529">
        <ele>3558.4</ele>
        <time>2015-09-02T05:02:07Z</time>
      </trkpt>
      <trkpt lat="33.93952" lon="77.3353">
        <ele>3558.4</ele>
        <time>2015-09-02T05:02:08Z</time>
      </trkpt>
      <trkpt lat="33.93951" lon="77.33537">
        <ele>3558.2</ele>
        <time>2015-09-02T05:02:12Z</time>
      </trkpt>
      <trkpt lat="33.93948" lon="77.33539">
        <ele>3558.2</ele>
        <time>2015-09-02T05:02:15Z</time>
      </trkpt>
      <trkpt lat="33.93936" lon="77.33542">
        <ele>3558.2</ele>
        <time>2015-09-02T05:02:22Z</time>
      </trkpt>
      <trkpt lat="33.93918" lon="77.33537">
        <ele>3558.6</ele>
        <time>2015-09-02T05:02:36Z</time>
      </trkpt>
      <trkpt lat="33.93922" lon="77.33536">
        <ele>3558.6</ele>
        <time>2015-09-02T05:02:38Z</time>
      </trkpt>
      <trkpt lat="33.93776" lon="77.33503">
        <ele>3555.8</ele>
        <time>2015-09-02T05:04:34Z</time>
      </trkpt>
      <trkpt lat="33.93742" lon="77.33512">
        <ele>3555.6</ele>
        <time>2015-09-02T05:04:48Z</time>
      </trkpt>
      <trkpt lat="33.93727" lon="77.33512">
        <ele>3555.4</ele>
        <time>2015-09-02T05:04:56Z</time>
      </trkpt>
      <trkpt lat="33.93727" lon="77.3352">
        <ele>3555.6</ele>
        <time>2015-09-02T05:05:01Z</time>
      </trkpt>
      <trkpt lat="33.9373" lon="77.3353">
        <ele>3555.8</ele>
        <time>2015-09-02T05:05:08Z</time>
      </trkpt>
      <trkpt lat="33.93724" lon="77.33539">
        <ele>3556.2</ele>
        <time>2015-09-02T05:05:17Z</time>
      </trkpt>
      <trkpt lat="33.93723" lon="77.33541">
        <ele>3556.2</ele>
        <time>2015-09-02T05:05:19Z</time>
      </trkpt>
      <trkpt lat="33.93723" lon="77.33542">
        <ele>3556.4</ele>
        <time>2015-09-02T05:05:21Z</time>
      </trkpt>
      <trkpt lat="33.93722" lon="77.33543">
        <ele>3556.4</ele>
        <time>2015-09-02T05:05:22Z</time>
      </trkpt>
      <trkpt lat="33.93718" lon="77.33554">
        <ele>3555.8</ele>
        <time>2015-09-02T05:05:33Z</time>
      </trkpt>
      <trkpt lat="33.93719" lon="77.33557">
        <ele>3555.4</ele>
        <time>2015-09-02T05:05:35Z</time>
      </trkpt>
      <trkpt lat="33.93721" lon="77.3356">
        <ele>3555.2</ele>
        <time>2015-09-02T05:05:37Z</time>
      </trkpt>
      <trkpt lat="33.93721" lon="77.33561">
        <ele>3555.2</ele>
        <time>2015-09-02T05:05:40Z</time>
      </trkpt>
      <trkpt lat="33.93703" lon="77.33552">
        <ele>3555.8</ele>
        <time>2015-09-02T05:05:53Z</time>
      </trkpt>
      <trkpt lat="33.93709" lon="77.33554">
        <ele>3555.6</ele>
        <time>2015-09-02T05:06:00Z</time>
      </trkpt>
      <trkpt lat="33.93713" lon="77.33556">
        <ele>3555.8</ele>
        <time>2015-09-02T05:06:03Z</time>
      </trkpt>
      <trkpt lat="33.93716" lon="77.33556">
        <ele>3556</ele>
        <time>2015-09-02T05:06:06Z</time>
      </trkpt>
      <trkpt lat="33.93712" lon="77.33555">
        <ele>3555.6</ele>
        <time>2015-09-02T05:06:10Z</time>
      </trkpt>
      <trkpt lat="33.93714" lon="77.33556">
        <ele>3555.4</ele>
        <time>2015-09-02T05:06:12Z</time>
      </trkpt>
      <trkpt lat="33.93715" lon="77.33557">
        <ele>3555.6</ele>
        <time>2015-09-02T05:06:15Z</time>
      </trkpt>
      <trkpt lat="33.93731" lon="77.33568">
        <ele>3555.8</ele>
        <time>2015-09-02T05:06:37Z</time>
      </trkpt>
      <trkpt lat="33.9373" lon="77.33568">
        <ele>3555.8</ele>
        <time>2015-09-02T05:06:41Z</time>
      </trkpt>
      <trkpt lat="33.93726" lon="77.33576">
        <ele>3556.2</ele>
        <time>2015-09-02T05:07:06Z</time>
      </trkpt>
      <trkpt lat="33.93731" lon="77.33578">
        <ele>3556.2</ele>
        <time>2015-09-02T05:07:08Z</time>
      </trkpt>
      <trkpt lat="33.93733" lon="77.33581">
        <ele>3556.2</ele>
        <time>2015-09-02T05:07:12Z</time>
      </trkpt>
      <trkpt lat="33.93735" lon="77.33582">
        <ele>3556</ele>
        <time>2015-09-02T05:07:14Z</time>
      </trkpt>
      <trkpt lat="33.93741" lon="77.33587">
        <ele>3556.4</ele>
        <time>2015-09-02T05:07:34Z</time>
      </trkpt>
      <trkpt lat="33.93741" lon="77.33593">
        <ele>3556.6</ele>
        <time>2015-09-02T05:08:12Z</time>
      </trkpt>
      <trkpt lat="33.93735" lon="77.33595">
        <ele>3556.8</ele>
        <time>2015-09-02T05:08:26Z</time>
      </trkpt>
      <trkpt lat="33.93736" lon="77.33598">
        <ele>3556.8</ele>
        <time>2015-09-02T05:08:30Z</time>
      </trkpt>
      <trkpt lat="33.93736" lon="77.33597">
        <ele>3556.8</ele>
        <time>2015-09-02T05:08:32Z</time>
      </trkpt>
      <trkpt lat="33.93735" lon="77.33598">
        <ele>3556.8</ele>
        <time>2015-09-02T05:08:34Z</time>
      </trkpt>
      <trkpt lat="33.93733" lon="77.33597">
        <ele>3556.8</ele>
        <time>2015-09-02T05:08:36Z</time>
      </trkpt>
      <trkpt lat="33.93746" lon="77.33602">
        <ele>3556.4</ele>
        <time>2015-09-02T05:08:50Z</time>
      </trkpt>
      <trkpt lat="33.93753" lon="77.33606">
        <ele>3556.6</ele>
        <time>2015-09-02T05:08:53Z</time>
      </trkpt>
      <trkpt lat="33.9375" lon="77.33606">
        <ele>3557.2</ele>
        <time>2015-09-02T05:09:03Z</time>
      </trkpt>
      <trkpt lat="33.93747" lon="77.33605">
        <ele>3557.4</ele>
        <time>2015-09-02T05:09:22Z</time>
      </trkpt>
      <trkpt lat="33.93744" lon="77.33602">
        <ele>3557.8</ele>
        <time>2015-09-02T05:09:38Z</time>
      </trkpt>
      <trkpt lat="33.93744" lon="77.33603">
        <ele>3557.8</ele>
        <time>2015-09-02T05:09:39Z</time>
      </trkpt>
      <trkpt lat="33.93747" lon="77.33604">
        <ele>3557.6</ele>
        <time>2015-09-02T05:09:50Z</time>
      </trkpt>
      <trkpt lat="33.93752" lon="77.33608">
        <ele>3557.8</ele>
        <time>2015-09-02T05:09:53Z</time>
      </trkpt>
      <trkpt lat="33.9376" lon="77.33613">
        <ele>3558</ele>
        <time>2015-09-02T05:10:00Z</time>
      </trkpt>
      <trkpt lat="33.93756" lon="77.33611">
        <ele>3557.8</ele>
        <time>2015-09-02T05:10:03Z</time>
      </trkpt>
      <trkpt lat="33.93748" lon="77.33613">
        <ele>3557.4</ele>
        <time>2015-09-02T05:10:12Z</time>
      </trkpt>
      <trkpt lat="33.93758" lon="77.33612">
        <ele>3557.8</ele>
        <time>2015-09-02T05:10:35Z</time>
      </trkpt>
      <trkpt lat="33.93778" lon="77.33617">
        <ele>3558.2</ele>
        <time>2015-09-02T05:10:46Z</time>
      </trkpt>
      <trkpt lat="33.9376" lon="77.33609">
        <ele>3558.2</ele>
        <time>2015-09-02T05:10:51Z</time>
      </trkpt>
      <trkpt lat="33.93747" lon="77.33605">
        <ele>3558.4</ele>
        <time>2015-09-02T05:10:58Z</time>
      </trkpt>
      <trkpt lat="33.9375" lon="77.33608">
        <ele>3559.4</ele>
        <time>2015-09-02T05:11:46Z</time>
      </trkpt>
      <trkpt lat="33.93741" lon="77.33603">
        <ele>3560.2</ele>
        <time>2015-09-02T05:12:30Z</time>
      </trkpt>
      <trkpt lat="33.93739" lon="77.33601">
        <ele>3560.2</ele>
        <time>2015-09-02T05:12:33Z</time>
      </trkpt>
      <trkpt lat="33.93739" lon="77.33599">
        <ele>3560.4</ele>
        <time>2015-09-02T05:12:39Z</time>
      </trkpt>
      <trkpt lat="33.93741" lon="77.33602">
        <ele>3560.6</ele>
        <time>2015-09-02T05:12:47Z</time>
      </trkpt>
      <trkpt lat="33.93727" lon="77.33585">
        <ele>3560.8</ele>
        <time>2015-09-02T05:13:03Z</time>
      </trkpt>
      <trkpt lat="33.93726" lon="77.33583">
        <ele>3560.8</ele>
        <time>2015-09-02T05:13:04Z</time>
      </trkpt>
      <trkpt lat="33.93728" lon="77.33585">
        <ele>3561</ele>
        <time>2015-09-02T05:13:06Z</time>
      </trkpt>
      <trkpt lat="33.93742" lon="77.33602">
        <ele>3561</ele>
        <time>2015-09-02T05:13:16Z</time>
      </trkpt>
      <trkpt lat="33.9374" lon="77.33602">
        <ele>3561</ele>
        <time>2015-09-02T05:13:21Z</time>
      </trkpt>
      <trkpt lat="33.93744" lon="77.33603">
        <ele>3561.6</ele>
        <time>2015-09-02T05:14:01Z</time>
      </trkpt>
      <trkpt lat="33.93744" lon="77.33603">
        <ele>3562.2</ele>
        <time>2015-09-02T05:14:34Z</time>
      </trkpt>
      <trkpt lat="33.93736" lon="77.336">
        <ele>3562.6</ele>
        <time>2015-09-02T05:14:44Z</time>
      </trkpt>
      <trkpt lat="33.93738" lon="77.33602">
        <ele>3562.6</ele>
        <time>2015-09-02T05:14:50Z</time>
      </trkpt>
      <trkpt lat="33.93738" lon="77.33601">
        <ele>3563.2</ele>
        <time>2015-09-02T05:14:54Z</time>
      </trkpt>
      <trkpt lat="33.93739" lon="77.33602">
        <ele>3563.2</ele>
        <time>2015-09-02T05:14:59Z</time>
      </trkpt>
      <trkpt lat="33.93738" lon="77.33602">
        <ele>3563.6</ele>
        <time>2015-09-02T05:15:05Z</time>
      </trkpt>
      <trkpt lat="33.93752" lon="77.33612">
        <ele>3564</ele>
        <time>2015-09-02T05:15:31Z</time>
      </trkpt>
      <trkpt lat="33.93743" lon="77.33589">
        <ele>3564</ele>
        <time>2015-09-02T05:15:36Z</time>
      </trkpt>
      <trkpt lat="33.93727" lon="77.33583">
        <ele>3564.2</ele>
        <time>2015-09-02T05:15:43Z</time>
      </trkpt>
      <trkpt lat="33.93718" lon="77.33572">
        <ele>3563.6</ele>
        <time>2015-09-02T05:15:52Z</time>
      </trkpt>
      <trkpt lat="33.93721" lon="77.33577">
        <ele>3563.4</ele>
        <time>2015-09-02T05:16:06Z</time>
      </trkpt>
      <trkpt lat="33.93707" lon="77.33572">
        <ele>3564</ele>
        <time>2015-09-02T05:16:12Z</time>
      </trkpt>
      <trkpt lat="33.93718" lon="77.3358">
        <ele>3563.8</ele>
        <time>2015-09-02T05:16:30Z</time>
      </trkpt>
      <trkpt lat="33.93727" lon="77.3358">
        <ele>3563.8</ele>
        <time>2015-09-02T05:16:50Z</time>
      </trkpt>
      <trkpt lat="33.93727" lon="77.3358">
        <ele>3563.8</ele>
        <time>2015-09-02T05:16:52Z</time>
      </trkpt>
      <trkpt lat="33.93733" lon="77.33581">
        <ele>3563.2</ele>
        <time>2015-09-02T05:17:02Z</time>
      </trkpt>
      <trkpt lat="33.93727" lon="77.33576">
        <ele>3564</ele>
        <time>2015-09-02T05:17:27Z</time>
      </trkpt>
      <trkpt lat="33.93726" lon="77.33575">
        <ele>3563.8</ele>
        <time>2015-09-02T05:17:30Z</time>
      </trkpt>
      <trkpt lat="33.93726" lon="77.33575">
        <ele>3564</ele>
        <time>2015-09-02T05:18:07Z</time>
      </trkpt>
      <trkpt lat="33.93723" lon="77.33574">
        <ele>3564</ele>
        <time>2015-09-02T05:18:09Z</time>
      </trkpt>
      <trkpt lat="33.93721" lon="77.33576">
        <ele>3564</ele>
        <time>2015-09-02T05:18:13Z</time>
      </trkpt>
      <trkpt lat="33.93724" lon="77.33579">
        <ele>3564</ele>
        <time>2015-09-02T05:18:18Z</time>
      </trkpt>
      <trkpt lat="33.93728" lon="77.33582">
        <ele>3564</ele>
        <time>2015-09-02T05:18:20Z</time>
      </trkpt>
      <trkpt lat="33.93733" lon="77.33584">
        <ele>3563.8</ele>
        <time>2015-09-02T05:18:24Z</time>
      </trkpt>
      <trkpt lat="33.93735" lon="77.33586">
        <ele>3563.8</ele>
        <time>2015-09-02T05:18:40Z</time>
      </trkpt>
      <trkpt lat="33.93732" lon="77.33585">
        <ele>3564.2</ele>
        <time>2015-09-02T05:18:43Z</time>
      </trkpt>
      <trkpt lat="33.9373" lon="77.33583">
        <ele>3564.2</ele>
        <time>2015-09-02T05:18:45Z</time>
      </trkpt>
      <trkpt lat="33.93728" lon="77.33579">
        <ele>3564.2</ele>
        <time>2015-09-02T05:18:48Z</time>
      </trkpt>
      <trkpt lat="33.93733" lon="77.33577">
        <ele>3564.4</ele>
        <time>2015-09-02T05:19:19Z</time>
      </trkpt>
      <trkpt lat="33.93729" lon="77.33577">
        <ele>3564</ele>
        <time>2015-09-02T05:19:33Z</time>
      </trkpt>
      <trkpt lat="33.93725" lon="77.33582">
        <ele>3564.2</ele>
        <time>2015-09-02T05:19:39Z</time>
      </trkpt>
      <trkpt lat="33.9372" lon="77.3358">
        <ele>3564.2</ele>
        <time>2015-09-02T05:20:06Z</time>
      </trkpt>
      <trkpt lat="33.9373" lon="77.33579">
        <ele>3564</ele>
        <time>2015-09-02T05:21:08Z</time>
      </trkpt>
      <trkpt lat="33.93726" lon="77.33576">
        <ele>3564.2</ele>
        <time>2015-09-02T05:21:11Z</time>
      </trkpt>
      <trkpt lat="33.93724" lon="77.33573">
        <ele>3564.4</ele>
        <time>2015-09-02T05:21:13Z</time>
      </trkpt>
      <trkpt lat="33.93724" lon="77.33566">
        <ele>3564.6</ele>
        <time>2015-09-02T05:21:18Z</time>
      </trkpt>
      <trkpt lat="33.93722" lon="77.33562">
        <ele>3565</ele>
        <time>2015-09-02T05:21:21Z</time>
      </trkpt>
      <trkpt lat="33.93722" lon="77.33559">
        <ele>3565.2</ele>
        <time>2015-09-02T05:21:23Z</time>
      </trkpt>
      <trkpt lat="33.93721" lon="77.33557">
        <ele>3565</ele>
        <time>2015-09-02T05:21:28Z</time>
      </trkpt>
      <trkpt lat="33.93729" lon="77.33564">
        <ele>3564.4</ele>
        <time>2015-09-02T05:21:43Z</time>
      </trkpt>
      <trkpt lat="33.93727" lon="77.33565">
        <ele>3564.4</ele>
        <time>2015-09-02T05:21:45Z</time>
      </trkpt>
      <trkpt lat="33.9373" lon="77.33567">
        <ele>3564</ele>
        <time>2015-09-02T05:21:48Z</time>
      </trkpt>
      <trkpt lat="33.93725" lon="77.33564">
        <ele>3564.6</ele>
        <time>2015-09-02T05:22:18Z</time>
      </trkpt>
      <trkpt lat="33.93728" lon="77.33564">
        <ele>3564.6</ele>
        <time>2015-09-02T05:22:20Z</time>
      </trkpt>
      <trkpt lat="33.93742" lon="77.33572">
        <ele>3564.8</ele>
        <time>2015-09-02T05:22:26Z</time>
      </trkpt>
      <trkpt lat="33.93742" lon="77.33572">
        <ele>3565</ele>
        <time>2015-09-02T05:22:28Z</time>
      </trkpt>
      <trkpt lat="33.93751" lon="77.33572">
        <ele>3565.4</ele>
        <time>2015-09-02T05:22:33Z</time>
      </trkpt>
      <trkpt lat="33.93745" lon="77.33572">
        <ele>3565.4</ele>
        <time>2015-09-02T05:22:38Z</time>
      </trkpt>
      <trkpt lat="33.93747" lon="77.33582">
        <ele>3565.2</ele>
        <time>2015-09-02T05:22:46Z</time>
      </trkpt>
      <trkpt lat="33.93743" lon="77.33582">
        <ele>3565</ele>
        <time>2015-09-02T05:22:48Z</time>
      </trkpt>
      <trkpt lat="33.93741" lon="77.33582">
        <ele>3564.8</ele>
        <time>2015-09-02T05:22:50Z</time>
      </trkpt>
      <trkpt lat="33.93732" lon="77.33581">
        <ele>3564.6</ele>
        <time>2015-09-02T05:23:00Z</time>
      </trkpt>
      <trkpt lat="33.93729" lon="77.33579">
        <ele>3564</ele>
        <time>2015-09-02T05:23:55Z</time>
      </trkpt>
      <trkpt lat="33.93734" lon="77.33583">
        <ele>3564</ele>
        <time>2015-09-02T05:24:07Z</time>
      </trkpt>
      <trkpt lat="33.93724" lon="77.33577">
        <ele>3564.2</ele>
        <time>2015-09-02T05:24:48Z</time>
      </trkpt>
      <trkpt lat="33.93725" lon="77.33581">
        <ele>3564.4</ele>
        <time>2015-09-02T05:25:41Z</time>
      </trkpt>
      <trkpt lat="33.93724" lon="77.33579">
        <ele>3564.4</ele>
        <time>2015-09-02T05:25:43Z</time>
      </trkpt>
      <trkpt lat="33.93729" lon="77.33583">
        <ele>3565</ele>
        <time>2015-09-02T05:26:20Z</time>
      </trkpt>
      <trkpt lat="33.9373" lon="77.33584">
        <ele>3565</ele>
        <time>2015-09-02T05:26:21Z</time>
      </trkpt>
      <trkpt lat="33.93732" lon="77.33586">
        <ele>3565</ele>
        <time>2015-09-02T05:26:23Z</time>
      </trkpt>
      <trkpt lat="33.93733" lon="77.33588">
        <ele>3565</ele>
        <time>2015-09-02T05:26:25Z</time>
      </trkpt>
      <trkpt lat="33.93734" lon="77.33589">
        <ele>3564.8</ele>
        <time>2015-09-02T05:26:27Z</time>
      </trkpt>
      <trkpt lat="33.93734" lon="77.33578">
        <ele>3565</ele>
        <time>2015-09-02T05:26:43Z</time>
      </trkpt>
      <trkpt lat="33.93741" lon="77.33581">
        <ele>3565</ele>
        <time>2015-09-02T05:26:46Z</time>
      </trkpt>
      <trkpt lat="33.93739" lon="77.33577">
        <ele>3564.6</ele>
        <time>2015-09-02T05:26:52Z</time>
      </trkpt>
      <trkpt lat="33.93737" lon="77.33577">
        <ele>3564.8</ele>
        <time>2015-09-02T05:26:54Z</time>
      </trkpt>
      <trkpt lat="33.93735" lon="77.33579">
        <ele>3565</ele>
        <time>2015-09-02T05:27:02Z</time>
      </trkpt>
      <trkpt lat="33.93731" lon="77.33579">
        <ele>3565</ele>
        <time>2015-09-02T05:27:19Z</time>
      </trkpt>
      <trkpt lat="33.93724" lon="77.33577">
        <ele>3565.2</ele>
        <time>2015-09-02T05:27:23Z</time>
      </trkpt>
      <trkpt lat="33.93726" lon="77.33575">
        <ele>3565.2</ele>
        <time>2015-09-02T05:27:29Z</time>
      </trkpt>
      <trkpt lat="33.9373" lon="77.33576">
        <ele>3565</ele>
        <time>2015-09-02T05:27:33Z</time>
      </trkpt>
      <trkpt lat="33.9373" lon="77.33577">
        <ele>3565</ele>
        <time>2015-09-02T05:27:35Z</time>
      </trkpt>
      <trkpt lat="33.93733" lon="77.33586">
        <ele>3564.2</ele>
        <time>2015-09-02T05:28:24Z</time>
      </trkpt>
      <trkpt lat="33.93732" lon="77.33581">
        <ele>3564.4</ele>
        <time>2015-09-02T05:28:39Z</time>
      </trkpt>
      <trkpt lat="33.93717" lon="77.33572">
        <ele>3564.8</ele>
        <time>2015-09-02T05:28:53Z</time>
      </trkpt>
      <trkpt lat="33.93692" lon="77.33559">
        <ele>3564.8</ele>
        <time>2015-09-02T05:28:58Z</time>
      </trkpt>
      <trkpt lat="33.93702" lon="77.33563">
        <ele>3564.8</ele>
        <time>2015-09-02T05:28:59Z</time>
      </trkpt>
      <trkpt lat="33.93727" lon="77.33573">
        <ele>3564.8</ele>
        <time>2015-09-02T05:29:01Z</time>
      </trkpt>
      <trkpt lat="33.93732" lon="77.33577">
        <ele>3564.4</ele>
        <time>2015-09-02T05:29:05Z</time>
      </trkpt>
      <trkpt lat="33.93726" lon="77.33583">
        <ele>3564.2</ele>
        <time>2015-09-02T05:29:21Z</time>
      </trkpt>
      <trkpt lat="33.93724" lon="77.33583">
        <ele>3564.6</ele>
        <time>2015-09-02T05:29:24Z</time>
      </trkpt>
      <trkpt lat="33.93724" lon="77.33579">
        <ele>3565.2</ele>
        <time>2015-09-02T05:29:28Z</time>
      </trkpt>
      <trkpt lat="33.9372" lon="77.33581">
        <ele>3564.4</ele>
        <time>2015-09-02T05:29:54Z</time>
      </trkpt>
      <trkpt lat="33.93717" lon="77.33573">
        <ele>3564.2</ele>
        <time>2015-09-02T05:30:03Z</time>
      </trkpt>
      <trkpt lat="33.93719" lon="77.33575">
        <ele>3564.4</ele>
        <time>2015-09-02T05:30:23Z</time>
      </trkpt>
      <trkpt lat="33.93713" lon="77.33571">
        <ele>3564.6</ele>
        <time>2015-09-02T05:30:36Z</time>
      </trkpt>
      <trkpt lat="33.93705" lon="77.33567">
        <ele>3564.6</ele>
        <time>2015-09-02T05:30:37Z</time>
      </trkpt>
      <trkpt lat="33.93698" lon="77.3357">
        <ele>3564.8</ele>
        <time>2015-09-02T05:30:46Z</time>
      </trkpt>
      <trkpt lat="33.93715" lon="77.33576">
        <ele>3564.6</ele>
        <time>2015-09-02T05:30:55Z</time>
      </trkpt>
      <trkpt lat="33.93718" lon="77.33578">
        <ele>3564.8</ele>
        <time>2015-09-02T05:30:58Z</time>
      </trkpt>
      <trkpt lat="33.93724" lon="77.33578">
        <ele>3564.6</ele>
        <time>2015-09-02T05:31:11Z</time>
      </trkpt>
      <trkpt lat="33.93731" lon="77.33584">
        <ele>3564.4</ele>
        <time>2015-09-02T05:31:24Z</time>
      </trkpt>
      <trkpt lat="33.93726" lon="77.33582">
        <ele>3564.6</ele>
        <time>2015-09-02T05:31:47Z</time>
      </trkpt>
      <trkpt lat="33.93711" lon="77.33576">
        <ele>3564.6</ele>
        <time>2015-09-02T05:32:02Z</time>
      </trkpt>
      <trkpt lat="33.93714" lon="77.33576">
        <ele>3564</ele>
        <time>2015-09-02T05:32:14Z</time>
      </trkpt>
      <trkpt lat="33.93722" lon="77.33581">
        <ele>3563.8</ele>
        <time>2015-09-02T05:32:19Z</time>
      </trkpt>
      <trkpt lat="33.93724" lon="77.3358">
        <ele>3563.8</ele>
        <time>2015-09-02T05:32:21Z</time>
      </trkpt>
      <trkpt lat="33.93726" lon="77.33581">
        <ele>3563.8</ele>
        <time>2015-09-02T05:32:24Z</time>
      </trkpt>
      <trkpt lat="33.93726" lon="77.33582">
        <ele>3563.6</ele>
        <time>2015-09-02T05:32:27Z</time>
      </trkpt>
      <trkpt lat="33.93729" lon="77.3358">
        <ele>3563.4</ele>
        <time>2015-09-02T05:32:42Z</time>
      </trkpt>
      <trkpt lat="33.93728" lon="77.33581">
        <ele>3563.2</ele>
        <time>2015-09-02T05:32:46Z</time>
      </trkpt>
      <trkpt lat="33.93738" lon="77.33583">
        <ele>3563</ele>
        <time>2015-09-02T05:32:51Z</time>
      </trkpt>
      <trkpt lat="33.93746" lon="77.33586">
        <ele>3562.8</ele>
        <time>2015-09-02T05:32:57Z</time>
      </trkpt>
      <trkpt lat="33.9374" lon="77.33587">
        <ele>3562.6</ele>
        <time>2015-09-02T05:33:16Z</time>
      </trkpt>
      <trkpt lat="33.93732" lon="77.33584">
        <ele>3562.4</ele>
        <time>2015-09-02T05:33:42Z</time>
      </trkpt>
      <trkpt lat="33.93731" lon="77.33584">
        <ele>3562.4</ele>
        <time>2015-09-02T05:33:43Z</time>
      </trkpt>
      <trkpt lat="33.9373" lon="77.33586">
        <ele>3562.2</ele>
        <time>2015-09-02T05:33:45Z</time>
      </trkpt>
      <trkpt lat="33.93728" lon="77.33587">
        <ele>3562.2</ele>
        <time>2015-09-02T05:33:47Z</time>
      </trkpt>
      <trkpt lat="33.93723" lon="77.33584">
        <ele>3562.4</ele>
        <time>2015-09-02T05:33:54Z</time>
      </trkpt>
      <trkpt lat="33.93724" lon="77.33579">
        <ele>3562.2</ele>
        <time>2015-09-02T05:34:10Z</time>
      </trkpt>
      <trkpt lat="33.93724" lon="77.33576">
        <ele>3562.4</ele>
        <time>2015-09-02T05:34:23Z</time>
      </trkpt>
      <trkpt lat="33.93727" lon="77.3358">
        <ele>3562.2</ele>
        <time>2015-09-02T05:34:26Z</time>
      </trkpt>
      <trkpt lat="33.93724" lon="77.33581">
        <ele>3562.2</ele>
        <time>2015-09-02T05:34:34Z</time>
      </trkpt>
      <trkpt lat="33.93719" lon="77.3358">
        <ele>3562.2</ele>
        <time>2015-09-02T05:34:39Z</time>
      </trkpt>
      <trkpt lat="33.93717" lon="77.33582">
        <ele>3562.4</ele>
        <time>2015-09-02T05:34:44Z</time>
      </trkpt>
      <trkpt lat="33.93722" lon="77.33585">
        <ele>3562.4</ele>
        <time>2015-09-02T05:34:46Z</time>
      </trkpt>
      <trkpt lat="33.93726" lon="77.33589">
        <ele>3562.2</ele>
        <time>2015-09-02T05:35:12Z</time>
      </trkpt>
      <trkpt lat="33.93724" lon="77.33593">
        <ele>3562.2</ele>
        <time>2015-09-02T05:35:15Z</time>
      </trkpt>
      <trkpt lat="33.93722" lon="77.33604">
        <ele>3562.2</ele>
        <time>2015-09-02T05:35:21Z</time>
      </trkpt>
      <trkpt lat="33.93732" lon="77.33606">
        <ele>3562</ele>
        <time>2015-09-02T05:35:35Z</time>
      </trkpt>
      <trkpt lat="33.93737" lon="77.33607">
        <ele>3562</ele>
        <time>2015-09-02T05:35:37Z</time>
      </trkpt>
      <trkpt lat="33.93723" lon="77.33608">
        <ele>3562.2</ele>
        <time>2015-09-02T05:35:52Z</time>
      </trkpt>
      <trkpt lat="33.93714" lon="77.33606">
        <ele>3562</ele>
        <time>2015-09-02T05:36:01Z</time>
      </trkpt>
      <trkpt lat="33.93727" lon="77.33613">
        <ele>3562.2</ele>
        <time>2015-09-02T05:36:04Z</time>
      </trkpt>
      <trkpt lat="33.93723" lon="77.33617">
        <ele>3562.8</ele>
        <time>2015-09-02T05:36:10Z</time>
      </trkpt>
      <trkpt lat="33.93719" lon="77.33618">
        <ele>3563.4</ele>
        <time>2015-09-02T05:36:14Z</time>
      </trkpt>
      <trkpt lat="33.9372" lon="77.3362">
        <ele>3563.6</ele>
        <time>2015-09-02T05:36:15Z</time>
      </trkpt>
      <trkpt lat="33.9372" lon="77.33621">
        <ele>3563.8</ele>
        <time>2015-09-02T05:36:16Z</time>
      </trkpt>
      <trkpt lat="33.93719" lon="77.33622">
        <ele>3564</ele>
        <time>2015-09-02T05:36:18Z</time>
      </trkpt>
      <trkpt lat="33.93716" lon="77.33624">
        <ele>3564</ele>
        <time>2015-09-02T05:36:21Z</time>
      </trkpt>
      <trkpt lat="33.93715" lon="77.33626">
        <ele>3564</ele>
        <time>2015-09-02T05:36:23Z</time>
      </trkpt>
      <trkpt lat="33.93703" lon="77.33637">
        <ele>3563.2</ele>
        <time>2015-09-02T05:36:41Z</time>
      </trkpt>
      <trkpt lat="33.93702" lon="77.33643">
        <ele>3563.2</ele>
        <time>2015-09-02T05:36:44Z</time>
      </trkpt>
      <trkpt lat="33.93701" lon="77.33645">
        <ele>3563.4</ele>
        <time>2015-09-02T05:36:46Z</time>
      </trkpt>
      <trkpt lat="33.93695" lon="77.33652">
        <ele>3563</ele>
        <time>2015-09-02T05:36:53Z</time>
      </trkpt>
      <trkpt lat="33.93691" lon="77.33659">
        <ele>3563.2</ele>
        <time>2015-09-02T05:36:58Z</time>
      </trkpt>
      <trkpt lat="33.93687" lon="77.3366">
        <ele>3563.2</ele>
        <time>2015-09-02T05:37:02Z</time>
      </trkpt>
      <trkpt lat="33.93685" lon="77.33662">
        <ele>3563.2</ele>
        <time>2015-09-02T05:37:05Z</time>
      </trkpt>
      <trkpt lat="33.93676" lon="77.33673">
        <ele>3563</ele>
        <time>2015-09-02T05:37:18Z</time>
      </trkpt>
      <trkpt lat="33.9367" lon="77.33677">
        <ele>3562.6</ele>
        <time>2015-09-02T05:37:22Z</time>
      </trkpt>
      <trkpt lat="33.93664" lon="77.33692">
        <ele>3562.4</ele>
        <time>2015-09-02T05:37:30Z</time>
      </trkpt>
      <trkpt lat="33.93665" lon="77.33695">
        <ele>3562.8</ele>
        <time>2015-09-02T05:37:32Z</time>
      </trkpt>
      <trkpt lat="33.93664" lon="77.33702">
        <ele>3563.2</ele>
        <time>2015-09-02T05:37:36Z</time>
      </trkpt>
      <trkpt lat="33.93661" lon="77.33705">
        <ele>3563.4</ele>
        <time>2015-09-02T05:37:40Z</time>
      </trkpt>
      <trkpt lat="33.9366" lon="77.33708">
        <ele>3563.6</ele>
        <time>2015-09-02T05:37:43Z</time>
      </trkpt>
      <trkpt lat="33.93658" lon="77.33709">
        <ele>3563.6</ele>
        <time>2015-09-02T05:37:45Z</time>
      </trkpt>
      <trkpt lat="33.93655" lon="77.33712">
        <ele>3563.6</ele>
        <time>2015-09-02T05:37:50Z</time>
      </trkpt>
      <trkpt lat="33.93649" lon="77.33723">
        <ele>3563.6</ele>
        <time>2015-09-02T05:37:58Z</time>
      </trkpt>
      <trkpt lat="33.93645" lon="77.33728">
        <ele>3563.8</ele>
        <time>2015-09-02T05:38:03Z</time>
      </trkpt>
      <trkpt lat="33.93641" lon="77.33734">
        <ele>3564.2</ele>
        <time>2015-09-02T05:38:11Z</time>
      </trkpt>
      <trkpt lat="33.93633" lon="77.33751">
        <ele>3564.6</ele>
        <time>2015-09-02T05:38:27Z</time>
      </trkpt>
      <trkpt lat="33.93631" lon="77.33754">
        <ele>3564.8</ele>
        <time>2015-09-02T05:38:31Z</time>
      </trkpt>
      <trkpt lat="33.93629" lon="77.33758">
        <ele>3564.6</ele>
        <time>2015-09-02T05:38:34Z</time>
      </trkpt>
      <trkpt lat="33.93619" lon="77.33766">
        <ele>3565.8</ele>
        <time>2015-09-02T05:38:43Z</time>
      </trkpt>
      <trkpt lat="33.93611" lon="77.33771">
        <ele>3566</ele>
        <time>2015-09-02T05:38:54Z</time>
      </trkpt>
      <trkpt lat="33.93609" lon="77.33774">
        <ele>3566</ele>
        <time>2015-09-02T05:38:57Z</time>
      </trkpt>
      <trkpt lat="33.93607" lon="77.33777">
        <ele>3566.2</ele>
        <time>2015-09-02T05:39:00Z</time>
      </trkpt>
      <trkpt lat="33.93607" lon="77.33778">
        <ele>3566.2</ele>
        <time>2015-09-02T05:39:01Z</time>
      </trkpt>
      <trkpt lat="33.93599" lon="77.33799">
        <ele>3565.2</ele>
        <time>2015-09-02T05:39:18Z</time>
      </trkpt>
      <trkpt lat="33.93597" lon="77.338">
        <ele>3565.2</ele>
        <time>2015-09-02T05:39:20Z</time>
      </trkpt>
      <trkpt lat="33.93594" lon="77.33804">
        <ele>3565.2</ele>
        <time>2015-09-02T05:39:26Z</time>
      </trkpt>
      <trkpt lat="33.93594" lon="77.3381">
        <ele>3565</ele>
        <time>2015-09-02T05:39:32Z</time>
      </trkpt>
      <trkpt lat="33.93591" lon="77.33819">
        <ele>3565</ele>
        <time>2015-09-02T05:39:41Z</time>
      </trkpt>
      <trkpt lat="33.93589" lon="77.33822">
        <ele>3565.2</ele>
        <time>2015-09-02T05:39:44Z</time>
      </trkpt>
      <trkpt lat="33.93585" lon="77.33828">
        <ele>3565.2</ele>
        <time>2015-09-02T05:39:50Z</time>
      </trkpt>
      <trkpt lat="33.93586" lon="77.3383">
        <ele>3565.2</ele>
        <time>2015-09-02T05:39:52Z</time>
      </trkpt>
      <trkpt lat="33.93586" lon="77.33832">
        <ele>3565.2</ele>
        <time>2015-09-02T05:39:54Z</time>
      </trkpt>
      <trkpt lat="33.93588" lon="77.33837">
        <ele>3565.4</ele>
        <time>2015-09-02T05:39:57Z</time>
      </trkpt>
      <trkpt lat="33.93588" lon="77.33839">
        <ele>3565.4</ele>
        <time>2015-09-02T05:39:59Z</time>
      </trkpt>
      <trkpt lat="33.93573" lon="77.33852">
        <ele>3565.2</ele>
        <time>2015-09-02T05:40:14Z</time>
      </trkpt>
      <trkpt lat="33.93569" lon="77.33854">
        <ele>3565.2</ele>
        <time>2015-09-02T05:40:17Z</time>
      </trkpt>
      <trkpt lat="33.93563" lon="77.33861">
        <ele>3565.4</ele>
        <time>2015-09-02T05:40:25Z</time>
      </trkpt>
      <trkpt lat="33.93561" lon="77.33864">
        <ele>3565.4</ele>
        <time>2015-09-02T05:40:28Z</time>
      </trkpt>
      <trkpt lat="33.93559" lon="77.33867">
        <ele>3565.6</ele>
        <time>2015-09-02T05:40:32Z</time>
      </trkpt>
      <trkpt lat="33.93554" lon="77.33872">
        <ele>3565.6</ele>
        <time>2015-09-02T05:40:39Z</time>
      </trkpt>
      <trkpt lat="33.93545" lon="77.33882">
        <ele>3565.4</ele>
        <time>2015-09-02T05:40:48Z</time>
      </trkpt>
      <trkpt lat="33.93545" lon="77.3389">
        <ele>3565.4</ele>
        <time>2015-09-02T05:40:51Z</time>
      </trkpt>
      <trkpt lat="33.93547" lon="77.33903">
        <ele>3565.4</ele>
        <time>2015-09-02T05:40:58Z</time>
      </trkpt>
      <trkpt lat="33.93546" lon="77.33906">
        <ele>3565.6</ele>
        <time>2015-09-02T05:41:01Z</time>
      </trkpt>
      <trkpt lat="33.93548" lon="77.33916">
        <ele>3565.6</ele>
        <time>2015-09-02T05:41:08Z</time>
      </trkpt>
      <trkpt lat="33.93547" lon="77.3392">
        <ele>3565.6</ele>
        <time>2015-09-02T05:41:12Z</time>
      </trkpt>
      <trkpt lat="33.93543" lon="77.33928">
        <ele>3565.4</ele>
        <time>2015-09-02T05:41:20Z</time>
      </trkpt>
      <trkpt lat="33.93542" lon="77.33931">
        <ele>3565.6</ele>
        <time>2015-09-02T05:41:22Z</time>
      </trkpt>
      <trkpt lat="33.93534" lon="77.33949">
        <ele>3565.8</ele>
        <time>2015-09-02T05:41:41Z</time>
      </trkpt>
      <trkpt lat="33.93534" lon="77.33953">
        <ele>3565.8</ele>
        <time>2015-09-02T05:41:44Z</time>
      </trkpt>
      <trkpt lat="33.93533" lon="77.33963">
        <ele>3566</ele>
        <time>2015-09-02T05:41:52Z</time>
      </trkpt>
      <trkpt lat="33.9353" lon="77.33977">
        <ele>3566.2</ele>
        <time>2015-09-02T05:42:05Z</time>
      </trkpt>
      <trkpt lat="33.9353" lon="77.33983">
        <ele>3566.4</ele>
        <time>2015-09-02T05:42:09Z</time>
      </trkpt>
      <trkpt lat="33.93528" lon="77.33985">
        <ele>3566.4</ele>
        <time>2015-09-02T05:42:11Z</time>
      </trkpt>
      <trkpt lat="33.93527" lon="77.33986">
        <ele>3566.4</ele>
        <time>2015-09-02T05:42:13Z</time>
      </trkpt>
      <trkpt lat="33.93525" lon="77.33992">
        <ele>3566.8</ele>
        <time>2015-09-02T05:42:21Z</time>
      </trkpt>
      <trkpt lat="33.93524" lon="77.33994">
        <ele>3566.6</ele>
        <time>2015-09-02T05:42:23Z</time>
      </trkpt>
      <trkpt lat="33.9352" lon="77.34">
        <ele>3566.4</ele>
        <time>2015-09-02T05:42:31Z</time>
      </trkpt>
      <trkpt lat="33.93525" lon="77.34013">
        <ele>3566.4</ele>
        <time>2015-09-02T05:42:36Z</time>
      </trkpt>
      <trkpt lat="33.93529" lon="77.34016">
        <ele>3566.6</ele>
        <time>2015-09-02T05:42:38Z</time>
      </trkpt>
      <trkpt lat="33.93531" lon="77.34019">
        <ele>3566.8</ele>
        <time>2015-09-02T05:42:41Z</time>
      </trkpt>
      <trkpt lat="33.93526" lon="77.34023">
        <ele>3566.2</ele>
        <time>2015-09-02T05:42:47Z</time>
      </trkpt>
      <trkpt lat="33.93525" lon="77.34024">
        <ele>3566.2</ele>
        <time>2015-09-02T05:42:49Z</time>
      </trkpt>
      <trkpt lat="33.93515" lon="77.34029">
        <ele>3566.4</ele>
        <time>2015-09-02T05:42:59Z</time>
      </trkpt>
      <trkpt lat="33.93514" lon="77.3403">
        <ele>3566.4</ele>
        <time>2015-09-02T05:43:01Z</time>
      </trkpt>
      <trkpt lat="33.93512" lon="77.3403">
        <ele>3566.4</ele>
        <time>2015-09-02T05:43:04Z</time>
      </trkpt>
      <trkpt lat="33.93502" lon="77.3404">
        <ele>3566</ele>
        <time>2015-09-02T05:43:15Z</time>
      </trkpt>
      <trkpt lat="33.935" lon="77.34041">
        <ele>3566</ele>
        <time>2015-09-02T05:43:17Z</time>
      </trkpt>
      <trkpt lat="33.93498" lon="77.34043">
        <ele>3566</ele>
        <time>2015-09-02T05:43:20Z</time>
      </trkpt>
      <trkpt lat="33.93496" lon="77.34046">
        <ele>3566.2</ele>
        <time>2015-09-02T05:43:22Z</time>
      </trkpt>
      <trkpt lat="33.93495" lon="77.34046">
        <ele>3566.2</ele>
        <time>2015-09-02T05:43:24Z</time>
      </trkpt>
      <trkpt lat="33.93492" lon="77.34051">
        <ele>3566.4</ele>
        <time>2015-09-02T05:43:31Z</time>
      </trkpt>
      <trkpt lat="33.9349" lon="77.34054">
        <ele>3566.4</ele>
        <time>2015-09-02T05:43:34Z</time>
      </trkpt>
      <trkpt lat="33.9349" lon="77.34056">
        <ele>3566.2</ele>
        <time>2015-09-02T05:43:36Z</time>
      </trkpt>
      <trkpt lat="33.93487" lon="77.34062">
        <ele>3566.4</ele>
        <time>2015-09-02T05:43:42Z</time>
      </trkpt>
      <trkpt lat="33.93487" lon="77.34067">
        <ele>3566.6</ele>
        <time>2015-09-02T05:43:46Z</time>
      </trkpt>
      <trkpt lat="33.93483" lon="77.34075">
        <ele>3567</ele>
        <time>2015-09-02T05:43:52Z</time>
      </trkpt>
      <trkpt lat="33.93481" lon="77.34077">
        <ele>3567</ele>
        <time>2015-09-02T05:43:55Z</time>
      </trkpt>
      <trkpt lat="33.9348" lon="77.34081">
        <ele>3567</ele>
        <time>2015-09-02T05:43:59Z</time>
      </trkpt>
      <trkpt lat="33.93479" lon="77.34082">
        <ele>3567.2</ele>
        <time>2015-09-02T05:44:01Z</time>
      </trkpt>
      <trkpt lat="33.93477" lon="77.34087">
        <ele>3567.6</ele>
        <time>2015-09-02T05:44:05Z</time>
      </trkpt>
      <trkpt lat="33.93475" lon="77.3409">
        <ele>3567.8</ele>
        <time>2015-09-02T05:44:08Z</time>
      </trkpt>
      <trkpt lat="33.93473" lon="77.34094">
        <ele>3567.8</ele>
        <time>2015-09-02T05:44:12Z</time>
      </trkpt>
      <trkpt lat="33.93472" lon="77.34095">
        <ele>3567.8</ele>
        <time>2015-09-02T05:44:13Z</time>
      </trkpt>
      <trkpt lat="33.93471" lon="77.34099">
        <ele>3567.8</ele>
        <time>2015-09-02T05:44:16Z</time>
      </trkpt>
      <trkpt lat="33.93472" lon="77.34111">
        <ele>3568.8</ele>
        <time>2015-09-02T05:44:24Z</time>
      </trkpt>
      <trkpt lat="33.93472" lon="77.34114">
        <ele>3569</ele>
        <time>2015-09-02T05:44:27Z</time>
      </trkpt>
      <trkpt lat="33.93469" lon="77.34116">
        <ele>3569.2</ele>
        <time>2015-09-02T05:44:30Z</time>
      </trkpt>
      <trkpt lat="33.93468" lon="77.34119">
        <ele>3569.4</ele>
        <time>2015-09-02T05:44:33Z</time>
      </trkpt>
      <trkpt lat="33.93466" lon="77.34123">
        <ele>3569.8</ele>
        <time>2015-09-02T05:44:36Z</time>
      </trkpt>
      <trkpt lat="33.93465" lon="77.34125">
        <ele>3570</ele>
        <time>2015-09-02T05:44:38Z</time>
      </trkpt>
      <trkpt lat="33.93462" lon="77.34129">
        <ele>3570.6</ele>
        <time>2015-09-02T05:44:42Z</time>
      </trkpt>
      <trkpt lat="33.93461" lon="77.3413">
        <ele>3570.6</ele>
        <time>2015-09-02T05:44:44Z</time>
      </trkpt>
      <trkpt lat="33.9346" lon="77.34134">
        <ele>3570.8</ele>
        <time>2015-09-02T05:44:48Z</time>
      </trkpt>
      <trkpt lat="33.9346" lon="77.34135">
        <ele>3571</ele>
        <time>2015-09-02T05:44:49Z</time>
      </trkpt>
      <trkpt lat="33.93458" lon="77.34146">
        <ele>3571.4</ele>
        <time>2015-09-02T05:45:00Z</time>
      </trkpt>
      <trkpt lat="33.93454" lon="77.34162">
        <ele>3569.8</ele>
        <time>2015-09-02T05:45:14Z</time>
      </trkpt>
      <trkpt lat="33.93453" lon="77.34166">
        <ele>3569.6</ele>
        <time>2015-09-02T05:45:17Z</time>
      </trkpt>
      <trkpt lat="33.93454" lon="77.34169">
        <ele>3569.6</ele>
        <time>2015-09-02T05:45:19Z</time>
      </trkpt>
      <trkpt lat="33.93456" lon="77.34173">
        <ele>3569.6</ele>
        <time>2015-09-02T05:45:22Z</time>
      </trkpt>
      <trkpt lat="33.93457" lon="77.34177">
        <ele>3569.8</ele>
        <time>2015-09-02T05:45:26Z</time>
      </trkpt>
      <trkpt lat="33.93457" lon="77.34182">
        <ele>3569.8</ele>
        <time>2015-09-02T05:45:30Z</time>
      </trkpt>
      <trkpt lat="33.9346" lon="77.34188">
        <ele>3569.2</ele>
        <time>2015-09-02T05:45:35Z</time>
      </trkpt>
      <trkpt lat="33.93463" lon="77.34189">
        <ele>3569.4</ele>
        <time>2015-09-02T05:45:38Z</time>
      </trkpt>
      <trkpt lat="33.93465" lon="77.34188">
        <ele>3569.4</ele>
        <time>2015-09-02T05:45:41Z</time>
      </trkpt>
      <trkpt lat="33.93467" lon="77.34188">
        <ele>3569.4</ele>
        <time>2015-09-02T05:45:43Z</time>
      </trkpt>
      <trkpt lat="33.93462" lon="77.3419">
        <ele>3569</ele>
        <time>2015-09-02T05:46:00Z</time>
      </trkpt>
      <trkpt lat="33.9346" lon="77.3419">
        <ele>3569.2</ele>
        <time>2015-09-02T05:46:01Z</time>
      </trkpt>
      <trkpt lat="33.9346" lon="77.34189">
        <ele>3569.2</ele>
        <time>2015-09-02T05:46:03Z</time>
      </trkpt>
      <trkpt lat="33.93464" lon="77.34194">
        <ele>3569.8</ele>
        <time>2015-09-02T05:46:18Z</time>
      </trkpt>
      <trkpt lat="33.93467" lon="77.34197">
        <ele>3569.8</ele>
        <time>2015-09-02T05:46:21Z</time>
      </trkpt>
      <trkpt lat="33.93473" lon="77.34198">
        <ele>3570</ele>
        <time>2015-09-02T05:47:11Z</time>
      </trkpt>
      <trkpt lat="33.93471" lon="77.34201">
        <ele>3570</ele>
        <time>2015-09-02T05:47:32Z</time>
      </trkpt>
      <trkpt lat="33.93463" lon="77.34197">
        <ele>3569.4</ele>
        <time>2015-09-02T05:47:51Z</time>
      </trkpt>
      <trkpt lat="33.93461" lon="77.34196">
        <ele>3569.4</ele>
        <time>2015-09-02T05:47:54Z</time>
      </trkpt>
      <trkpt lat="33.9347" lon="77.34195">
        <ele>3569.8</ele>
        <time>2015-09-02T05:48:08Z</time>
      </trkpt>
      <trkpt lat="33.93473" lon="77.34193">
        <ele>3569.8</ele>
        <time>2015-09-02T05:48:45Z</time>
      </trkpt>
      <trkpt lat="33.9347" lon="77.34189">
        <ele>3570.2</ele>
        <time>2015-09-02T05:48:54Z</time>
      </trkpt>
      <trkpt lat="33.93471" lon="77.34187">
        <ele>3569.6</ele>
        <time>2015-09-02T05:50:01Z</time>
      </trkpt>
      <trkpt lat="33.93472" lon="77.34192">
        <ele>3569.8</ele>
        <time>2015-09-02T05:50:25Z</time>
      </trkpt>
      <trkpt lat="33.93473" lon="77.34193">
        <ele>3569.8</ele>
        <time>2015-09-02T05:50:27Z</time>
      </trkpt>
      <trkpt lat="33.93475" lon="77.34207">
        <ele>3569.2</ele>
        <time>2015-09-02T05:51:08Z</time>
      </trkpt>
      <trkpt lat="33.93475" lon="77.34209">
        <ele>3569.2</ele>
        <time>2015-09-02T05:51:10Z</time>
      </trkpt>
      <trkpt lat="33.93469" lon="77.34222">
        <ele>3569</ele>
        <time>2015-09-02T05:51:44Z</time>
      </trkpt>
      <trkpt lat="33.93466" lon="77.34224">
        <ele>3569</ele>
        <time>2015-09-02T05:51:49Z</time>
      </trkpt>
      <trkpt lat="33.93463" lon="77.34226">
        <ele>3569.2</ele>
        <time>2015-09-02T05:51:54Z</time>
      </trkpt>
      <trkpt lat="33.93462" lon="77.34226">
        <ele>3569</ele>
        <time>2015-09-02T05:51:56Z</time>
      </trkpt>
      <trkpt lat="33.9346" lon="77.34225">
        <ele>3569</ele>
        <time>2015-09-02T05:51:58Z</time>
      </trkpt>
      <trkpt lat="33.93462" lon="77.34234">
        <ele>3568.8</ele>
        <time>2015-09-02T05:52:27Z</time>
      </trkpt>
      <trkpt lat="33.93459" lon="77.34242">
        <ele>3569.2</ele>
        <time>2015-09-02T05:52:38Z</time>
      </trkpt>
      <trkpt lat="33.93455" lon="77.34256">
        <ele>3569.8</ele>
        <time>2015-09-02T05:53:04Z</time>
      </trkpt>
      <trkpt lat="33.93455" lon="77.34258">
        <ele>3570</ele>
        <time>2015-09-02T05:53:07Z</time>
      </trkpt>
      <trkpt lat="33.93451" lon="77.34267">
        <ele>3570</ele>
        <time>2015-09-02T05:53:19Z</time>
      </trkpt>
      <trkpt lat="33.93452" lon="77.34275">
        <ele>3570.4</ele>
        <time>2015-09-02T05:53:26Z</time>
      </trkpt>
      <trkpt lat="33.9345" lon="77.3428">
        <ele>3570.6</ele>
        <time>2015-09-02T05:53:31Z</time>
      </trkpt>
      <trkpt lat="33.93452" lon="77.34286">
        <ele>3570.6</ele>
        <time>2015-09-02T05:53:36Z</time>
      </trkpt>
      <trkpt lat="33.93451" lon="77.3429">
        <ele>3570</ele>
        <time>2015-09-02T05:53:45Z</time>
      </trkpt>
      <trkpt lat="33.93452" lon="77.34294">
        <ele>3570</ele>
        <time>2015-09-02T05:53:48Z</time>
      </trkpt>
      <trkpt lat="33.93454" lon="77.34297">
        <ele>3570.4</ele>
        <time>2015-09-02T05:53:50Z</time>
      </trkpt>
      <trkpt lat="33.93456" lon="77.34306">
        <ele>3570.6</ele>
        <time>2015-09-02T05:53:58Z</time>
      </trkpt>
      <trkpt lat="33.93453" lon="77.34311">
        <ele>3570.6</ele>
        <time>2015-09-02T05:54:03Z</time>
      </trkpt>
      <trkpt lat="33.93452" lon="77.34315">
        <ele>3570.6</ele>
        <time>2015-09-02T05:54:07Z</time>
      </trkpt>
      <trkpt lat="33.93456" lon="77.34323">
        <ele>3570.2</ele>
        <time>2015-09-02T05:54:26Z</time>
      </trkpt>
      <trkpt lat="33.93468" lon="77.34329">
        <ele>3568.8</ele>
        <time>2015-09-02T05:55:14Z</time>
      </trkpt>
      <trkpt lat="33.93469" lon="77.3433">
        <ele>3569</ele>
        <time>2015-09-02T05:55:18Z</time>
      </trkpt>
      <trkpt lat="33.93466" lon="77.34342">
        <ele>3569</ele>
        <time>2015-09-02T05:56:02Z</time>
      </trkpt>
      <trkpt lat="33.93465" lon="77.34343">
        <ele>3569</ele>
        <time>2015-09-02T05:56:03Z</time>
      </trkpt>
      <trkpt lat="33.93465" lon="77.34344">
        <ele>3569</ele>
        <time>2015-09-02T05:56:05Z</time>
      </trkpt>
      <trkpt lat="33.93463" lon="77.34353">
        <ele>3570</ele>
        <time>2015-09-02T05:56:38Z</time>
      </trkpt>
      <trkpt lat="33.93463" lon="77.34357">
        <ele>3570</ele>
        <time>2015-09-02T05:56:40Z</time>
      </trkpt>
      <trkpt lat="33.93463" lon="77.34359">
        <ele>3570.2</ele>
        <time>2015-09-02T05:56:42Z</time>
      </trkpt>
      <trkpt lat="33.93456" lon="77.34362">
        <ele>3570.2</ele>
        <time>2015-09-02T05:56:52Z</time>
      </trkpt>
      <trkpt lat="33.93454" lon="77.34363">
        <ele>3570.2</ele>
        <time>2015-09-02T05:56:55Z</time>
      </trkpt>
      <trkpt lat="33.9345" lon="77.34374">
        <ele>3570.4</ele>
        <time>2015-09-02T05:57:06Z</time>
      </trkpt>
      <trkpt lat="33.93449" lon="77.34378">
        <ele>3570.4</ele>
        <time>2015-09-02T05:57:10Z</time>
      </trkpt>
      <trkpt lat="33.93445" lon="77.34381">
        <ele>3570.6</ele>
        <time>2015-09-02T05:57:15Z</time>
      </trkpt>
      <trkpt lat="33.93443" lon="77.34383">
        <ele>3570.6</ele>
        <time>2015-09-02T05:57:18Z</time>
      </trkpt>
      <trkpt lat="33.9344" lon="77.34385">
        <ele>3570.4</ele>
        <time>2015-09-02T05:57:22Z</time>
      </trkpt>
      <trkpt lat="33.93439" lon="77.34389">
        <ele>3570.4</ele>
        <time>2015-09-02T05:57:26Z</time>
      </trkpt>
      <trkpt lat="33.93437" lon="77.3439">
        <ele>3570.4</ele>
        <time>2015-09-02T05:57:29Z</time>
      </trkpt>
      <trkpt lat="33.93435" lon="77.3439">
        <ele>3570.6</ele>
        <time>2015-09-02T05:57:31Z</time>
      </trkpt>
      <trkpt lat="33.93434" lon="77.34391">
        <ele>3570.4</ele>
        <time>2015-09-02T05:57:34Z</time>
      </trkpt>
      <trkpt lat="33.93433" lon="77.34396">
        <ele>3570.2</ele>
        <time>2015-09-02T05:57:38Z</time>
      </trkpt>
      <trkpt lat="33.93433" lon="77.34398">
        <ele>3570.2</ele>
        <time>2015-09-02T05:57:40Z</time>
      </trkpt>
      <trkpt lat="33.93432" lon="77.344">
        <ele>3570.2</ele>
        <time>2015-09-02T05:57:42Z</time>
      </trkpt>
      <trkpt lat="33.93431" lon="77.34402">
        <ele>3570.2</ele>
        <time>2015-09-02T05:57:44Z</time>
      </trkpt>
      <trkpt lat="33.93431" lon="77.34404">
        <ele>3570.2</ele>
        <time>2015-09-02T05:57:46Z</time>
      </trkpt>
      <trkpt lat="33.9343" lon="77.34406">
        <ele>3570.2</ele>
        <time>2015-09-02T05:57:48Z</time>
      </trkpt>
      <trkpt lat="33.93425" lon="77.34426">
        <ele>3570.4</ele>
        <time>2015-09-02T05:58:05Z</time>
      </trkpt>
      <trkpt lat="33.93424" lon="77.34428">
        <ele>3570.4</ele>
        <time>2015-09-02T05:58:07Z</time>
      </trkpt>
      <trkpt lat="33.93423" lon="77.34431">
        <ele>3570.6</ele>
        <time>2015-09-02T05:58:11Z</time>
      </trkpt>
      <trkpt lat="33.9342" lon="77.34435">
        <ele>3570.8</ele>
        <time>2015-09-02T05:58:16Z</time>
      </trkpt>
      <trkpt lat="33.9342" lon="77.34449">
        <ele>3571</ele>
        <time>2015-09-02T05:58:28Z</time>
      </trkpt>
      <trkpt lat="33.9342" lon="77.34471">
        <ele>3571.2</ele>
        <time>2015-09-02T05:58:53Z</time>
      </trkpt>
      <trkpt lat="33.93421" lon="77.34481">
        <ele>3571.2</ele>
        <time>2015-09-02T05:59:03Z</time>
      </trkpt>
      <trkpt lat="33.93421" lon="77.34486">
        <ele>3571</ele>
        <time>2015-09-02T05:59:07Z</time>
      </trkpt>
      <trkpt lat="33.9342" lon="77.3449">
        <ele>3571.2</ele>
        <time>2015-09-02T05:59:11Z</time>
      </trkpt>
      <trkpt lat="33.93419" lon="77.34492">
        <ele>3571.4</ele>
        <time>2015-09-02T05:59:13Z</time>
      </trkpt>
      <trkpt lat="33.93419" lon="77.34496">
        <ele>3571.4</ele>
        <time>2015-09-02T05:59:16Z</time>
      </trkpt>
      <trkpt lat="33.93418" lon="77.34499">
        <ele>3571</ele>
        <time>2015-09-02T05:59:19Z</time>
      </trkpt>
      <trkpt lat="33.93418" lon="77.34501">
        <ele>3571</ele>
        <time>2015-09-02T05:59:22Z</time>
      </trkpt>
      <trkpt lat="33.93418" lon="77.34507">
        <ele>3571.6</ele>
        <time>2015-09-02T05:59:29Z</time>
      </trkpt>
      <trkpt lat="33.93419" lon="77.34511">
        <ele>3571.8</ele>
        <time>2015-09-02T05:59:32Z</time>
      </trkpt>
      <trkpt lat="33.93418" lon="77.34518">
        <ele>3571.8</ele>
        <time>2015-09-02T05:59:37Z</time>
      </trkpt>
      <trkpt lat="33.93416" lon="77.34522">
        <ele>3572</ele>
        <time>2015-09-02T05:59:42Z</time>
      </trkpt>
      <trkpt lat="33.93415" lon="77.34523">
        <ele>3572</ele>
        <time>2015-09-02T05:59:44Z</time>
      </trkpt>
      <trkpt lat="33.93415" lon="77.3453">
        <ele>3572</ele>
        <time>2015-09-02T05:59:52Z</time>
      </trkpt>
      <trkpt lat="33.93413" lon="77.3454">
        <ele>3572.4</ele>
        <time>2015-09-02T06:00:06Z</time>
      </trkpt>
      <trkpt lat="33.93413" lon="77.34542">
        <ele>3572.4</ele>
        <time>2015-09-02T06:00:08Z</time>
      </trkpt>
      <trkpt lat="33.93413" lon="77.34547">
        <ele>3572.4</ele>
        <time>2015-09-02T06:00:12Z</time>
      </trkpt>
      <trkpt lat="33.93412" lon="77.34552">
        <ele>3572.6</ele>
        <time>2015-09-02T06:00:17Z</time>
      </trkpt>
      <trkpt lat="33.93415" lon="77.34555">
        <ele>3572.6</ele>
        <time>2015-09-02T06:00:21Z</time>
      </trkpt>
      <trkpt lat="33.93422" lon="77.34559">
        <ele>3572.8</ele>
        <time>2015-09-02T06:00:28Z</time>
      </trkpt>
      <trkpt lat="33.93422" lon="77.34561">
        <ele>3572.8</ele>
        <time>2015-09-02T06:00:30Z</time>
      </trkpt>
      <trkpt lat="33.93423" lon="77.34565">
        <ele>3573</ele>
        <time>2015-09-02T06:00:32Z</time>
      </trkpt>
      <trkpt lat="33.93416" lon="77.34573">
        <ele>3573</ele>
        <time>2015-09-02T06:00:39Z</time>
      </trkpt>
      <trkpt lat="33.93413" lon="77.34577">
        <ele>3573</ele>
        <time>2015-09-02T06:00:42Z</time>
      </trkpt>
      <trkpt lat="33.93409" lon="77.34599">
        <ele>3573</ele>
        <time>2015-09-02T06:00:59Z</time>
      </trkpt>
      <trkpt lat="33.93407" lon="77.34606">
        <ele>3573</ele>
        <time>2015-09-02T06:01:04Z</time>
      </trkpt>
      <trkpt lat="33.93404" lon="77.34606">
        <ele>3573</ele>
        <time>2015-09-02T06:01:06Z</time>
      </trkpt>
      <trkpt lat="33.93399" lon="77.34607">
        <ele>3573.2</ele>
        <time>2015-09-02T06:01:11Z</time>
      </trkpt>
      <trkpt lat="33.93397" lon="77.34615">
        <ele>3573.2</ele>
        <time>2015-09-02T06:01:18Z</time>
      </trkpt>
      <trkpt lat="33.93395" lon="77.34617">
        <ele>3573.2</ele>
        <time>2015-09-02T06:01:21Z</time>
      </trkpt>
      <trkpt lat="33.93392" lon="77.34619">
        <ele>3573.2</ele>
        <time>2015-09-02T06:01:25Z</time>
      </trkpt>
      <trkpt lat="33.93391" lon="77.34621">
        <ele>3573.2</ele>
        <time>2015-09-02T06:01:27Z</time>
      </trkpt>
      <trkpt lat="33.93389" lon="77.34622">
        <ele>3573.2</ele>
        <time>2015-09-02T06:01:29Z</time>
      </trkpt>
      <trkpt lat="33.93387" lon="77.34625">
        <ele>3573</ele>
        <time>2015-09-02T06:01:33Z</time>
      </trkpt>
      <trkpt lat="33.93385" lon="77.34626">
        <ele>3573</ele>
        <time>2015-09-02T06:01:35Z</time>
      </trkpt>
      <trkpt lat="33.9338" lon="77.3463">
        <ele>3573</ele>
        <time>2015-09-02T06:01:41Z</time>
      </trkpt>
      <trkpt lat="33.9337" lon="77.34638">
        <ele>3573.2</ele>
        <time>2015-09-02T06:01:53Z</time>
      </trkpt>
      <trkpt lat="33.93369" lon="77.34642">
        <ele>3573.2</ele>
        <time>2015-09-02T06:01:56Z</time>
      </trkpt>
      <trkpt lat="33.93361" lon="77.3466">
        <ele>3573.2</ele>
        <time>2015-09-02T06:02:15Z</time>
      </trkpt>
      <trkpt lat="33.93361" lon="77.34663">
        <ele>3573.2</ele>
        <time>2015-09-02T06:02:17Z</time>
      </trkpt>
      <trkpt lat="33.93361" lon="77.34666">
        <ele>3573.2</ele>
        <time>2015-09-02T06:02:20Z</time>
      </trkpt>
      <trkpt lat="33.93364" lon="77.34675">
        <ele>3573.2</ele>
        <time>2015-09-02T06:02:29Z</time>
      </trkpt>
      <trkpt lat="33.93365" lon="77.34676">
        <ele>3573.2</ele>
        <time>2015-09-02T06:02:31Z</time>
      </trkpt>
      <trkpt lat="33.93364" lon="77.34684">
        <ele>3573</ele>
        <time>2015-09-02T06:02:38Z</time>
      </trkpt>
      <trkpt lat="33.93363" lon="77.34686">
        <ele>3572.8</ele>
        <time>2015-09-02T06:02:41Z</time>
      </trkpt>
      <trkpt lat="33.93359" lon="77.34697">
        <ele>3573.4</ele>
        <time>2015-09-02T06:02:53Z</time>
      </trkpt>
      <trkpt lat="33.93358" lon="77.34699">
        <ele>3573.4</ele>
        <time>2015-09-02T06:02:55Z</time>
      </trkpt>
      <trkpt lat="33.93366" lon="77.34706">
        <ele>3572.8</ele>
        <time>2015-09-02T06:03:13Z</time>
      </trkpt>
      <trkpt lat="33.93366" lon="77.34707">
        <ele>3572.8</ele>
        <time>2015-09-02T06:03:15Z</time>
      </trkpt>
      <trkpt lat="33.93367" lon="77.34712">
        <ele>3572.6</ele>
        <time>2015-09-02T06:03:30Z</time>
      </trkpt>
      <trkpt lat="33.93363" lon="77.34714">
        <ele>3572.8</ele>
        <time>2015-09-02T06:03:34Z</time>
      </trkpt>
      <trkpt lat="33.93353" lon="77.34719">
        <ele>3572.4</ele>
        <time>2015-09-02T06:04:11Z</time>
      </trkpt>
      <trkpt lat="33.93356" lon="77.34719">
        <ele>3572.6</ele>
        <time>2015-09-02T06:04:18Z</time>
      </trkpt>
      <trkpt lat="33.93354" lon="77.34719">
        <ele>3572.4</ele>
        <time>2015-09-02T06:04:21Z</time>
      </trkpt>
      <trkpt lat="33.93353" lon="77.34718">
        <ele>3571.8</ele>
        <time>2015-09-02T06:04:26Z</time>
      </trkpt>
      <trkpt lat="33.9335" lon="77.34717">
        <ele>3572.2</ele>
        <time>2015-09-02T06:04:49Z</time>
      </trkpt>
      <trkpt lat="33.93352" lon="77.34719">
        <ele>3572.2</ele>
        <time>2015-09-02T06:04:52Z</time>
      </trkpt>
      <trkpt lat="33.93352" lon="77.34719">
        <ele>3571</ele>
        <time>2015-09-02T06:05:25Z</time>
      </trkpt>
      <trkpt lat="33.93348" lon="77.34719">
        <ele>3570.8</ele>
        <time>2015-09-02T06:05:27Z</time>
      </trkpt>
      <trkpt lat="33.93346" lon="77.34719">
        <ele>3571</ele>
        <time>2015-09-02T06:05:29Z</time>
      </trkpt>
      <trkpt lat="33.93337" lon="77.34721">
        <ele>3571</ele>
        <time>2015-09-02T06:05:39Z</time>
      </trkpt>
      <trkpt lat="33.93334" lon="77.34722">
        <ele>3571.4</ele>
        <time>2015-09-02T06:05:43Z</time>
      </trkpt>
      <trkpt lat="33.93339" lon="77.34731">
        <ele>3572</ele>
        <time>2015-09-02T06:06:01Z</time>
      </trkpt>
      <trkpt lat="33.93339" lon="77.34732">
        <ele>3572</ele>
        <time>2015-09-02T06:06:02Z</time>
      </trkpt>
      <trkpt lat="33.93337" lon="77.34731">
        <ele>3572</ele>
        <time>2015-09-02T06:06:04Z</time>
      </trkpt>
      <trkpt lat="33.93336" lon="77.34731">
        <ele>3572</ele>
        <time>2015-09-02T06:06:06Z</time>
      </trkpt>
      <trkpt lat="33.93333" lon="77.34728">
        <ele>3571.4</ele>
        <time>2015-09-02T06:06:11Z</time>
      </trkpt>
      <trkpt lat="33.93332" lon="77.34728">
        <ele>3571.4</ele>
        <time>2015-09-02T06:06:13Z</time>
      </trkpt>
      <trkpt lat="33.93323" lon="77.34733">
        <ele>3572</ele>
        <time>2015-09-02T06:06:26Z</time>
      </trkpt>
      <trkpt lat="33.93319" lon="77.34734">
        <ele>3571.6</ele>
        <time>2015-09-02T06:06:31Z</time>
      </trkpt>
      <trkpt lat="33.93317" lon="77.34737">
        <ele>3571.6</ele>
        <time>2015-09-02T06:06:36Z</time>
      </trkpt>
      <trkpt lat="33.93316" lon="77.34738">
        <ele>3571.6</ele>
        <time>2015-09-02T06:06:38Z</time>
      </trkpt>
      <trkpt lat="33.93306" lon="77.34748">
        <ele>3571.6</ele>
        <time>2015-09-02T06:07:14Z</time>
      </trkpt>
      <trkpt lat="33.93296" lon="77.34758">
        <ele>3571.8</ele>
        <time>2015-09-02T06:07:33Z</time>
      </trkpt>
      <trkpt lat="33.93294" lon="77.34758">
        <ele>3571.8</ele>
        <time>2015-09-02T06:07:36Z</time>
      </trkpt>
      <trkpt lat="33.93288" lon="77.34772">
        <ele>3572.2</ele>
        <time>2015-09-02T06:07:51Z</time>
      </trkpt>
      <trkpt lat="33.93287" lon="77.34774">
        <ele>3572.2</ele>
        <time>2015-09-02T06:07:53Z</time>
      </trkpt>
      <trkpt lat="33.93284" lon="77.34775">
        <ele>3572</ele>
        <time>2015-09-02T06:07:56Z</time>
      </trkpt>
      <trkpt lat="33.93275" lon="77.34785">
        <ele>3572.2</ele>
        <time>2015-09-02T06:08:09Z</time>
      </trkpt>
      <trkpt lat="33.93274" lon="77.34787">
        <ele>3572.2</ele>
        <time>2015-09-02T06:08:12Z</time>
      </trkpt>
      <trkpt lat="33.93259" lon="77.348">
        <ele>3572.8</ele>
        <time>2015-09-02T06:08:29Z</time>
      </trkpt>
      <trkpt lat="33.93258" lon="77.34802">
        <ele>3572.8</ele>
        <time>2015-09-02T06:08:31Z</time>
      </trkpt>
      <trkpt lat="33.93259" lon="77.34804">
        <ele>3572.8</ele>
        <time>2015-09-02T06:08:33Z</time>
      </trkpt>
      <trkpt lat="33.93258" lon="77.34805">
        <ele>3573</ele>
        <time>2015-09-02T06:08:34Z</time>
      </trkpt>
      <trkpt lat="33.93255" lon="77.34813">
        <ele>3573.4</ele>
        <time>2015-09-02T06:08:40Z</time>
      </trkpt>
      <trkpt lat="33.93251" lon="77.34826">
        <ele>3573.2</ele>
        <time>2015-09-02T06:08:52Z</time>
      </trkpt>
      <trkpt lat="33.9325" lon="77.34827">
        <ele>3573.2</ele>
        <time>2015-09-02T06:08:54Z</time>
      </trkpt>
      <trkpt lat="33.93248" lon="77.34828">
        <ele>3573.2</ele>
        <time>2015-09-02T06:08:56Z</time>
      </trkpt>
      <trkpt lat="33.93245" lon="77.34834">
        <ele>3573.8</ele>
        <time>2015-09-02T06:09:04Z</time>
      </trkpt>
      <trkpt lat="33.93243" lon="77.34835">
        <ele>3573.8</ele>
        <time>2015-09-02T06:09:07Z</time>
      </trkpt>
      <trkpt lat="33.93241" lon="77.34838">
        <ele>3574</ele>
        <time>2015-09-02T06:09:12Z</time>
      </trkpt>
      <trkpt lat="33.93239" lon="77.34842">
        <ele>3574</ele>
        <time>2015-09-02T06:09:18Z</time>
      </trkpt>
      <trkpt lat="33.9323" lon="77.3485">
        <ele>3574.4</ele>
        <time>2015-09-02T06:09:29Z</time>
      </trkpt>
      <trkpt lat="33.93222" lon="77.34853">
        <ele>3574</ele>
        <time>2015-09-02T06:09:38Z</time>
      </trkpt>
      <trkpt lat="33.93218" lon="77.34856">
        <ele>3574.2</ele>
        <time>2015-09-02T06:09:42Z</time>
      </trkpt>
      <trkpt lat="33.93205" lon="77.34868">
        <ele>3574.8</ele>
        <time>2015-09-02T06:10:02Z</time>
      </trkpt>
      <trkpt lat="33.93192" lon="77.34882">
        <ele>3574.8</ele>
        <time>2015-09-02T06:10:20Z</time>
      </trkpt>
      <trkpt lat="33.93189" lon="77.34886">
        <ele>3575</ele>
        <time>2015-09-02T06:10:25Z</time>
      </trkpt>
      <trkpt lat="33.93187" lon="77.34888">
        <ele>3575.2</ele>
        <time>2015-09-02T06:10:28Z</time>
      </trkpt>
      <trkpt lat="33.93184" lon="77.34892">
        <ele>3575.2</ele>
        <time>2015-09-02T06:10:33Z</time>
      </trkpt>
      <trkpt lat="33.9318" lon="77.34897">
        <ele>3575.4</ele>
        <time>2015-09-02T06:10:39Z</time>
      </trkpt>
      <trkpt lat="33.93163" lon="77.34902">
        <ele>3575.4</ele>
        <time>2015-09-02T06:11:01Z</time>
      </trkpt>
      <trkpt lat="33.93149" lon="77.34915">
        <ele>3575.6</ele>
        <time>2015-09-02T06:11:20Z</time>
      </trkpt>
      <trkpt lat="33.93142" lon="77.34924">
        <ele>3576</ele>
        <time>2015-09-02T06:11:35Z</time>
      </trkpt>
      <trkpt lat="33.93143" lon="77.34934">
        <ele>3576.4</ele>
        <time>2015-09-02T06:12:06Z</time>
      </trkpt>
      <trkpt lat="33.93143" lon="77.34932">
        <ele>3576.4</ele>
        <time>2015-09-02T06:12:08Z</time>
      </trkpt>
      <trkpt lat="33.93144" lon="77.3493">
        <ele>3576.4</ele>
        <time>2015-09-02T06:12:10Z</time>
      </trkpt>
      <trkpt lat="33.93142" lon="77.34927">
        <ele>3576.2</ele>
        <time>2015-09-02T06:12:16Z</time>
      </trkpt>
      <trkpt lat="33.93129" lon="77.34937">
        <ele>3576.6</ele>
        <time>2015-09-02T06:13:29Z</time>
      </trkpt>
      <trkpt lat="33.93118" lon="77.34944">
        <ele>3576.8</ele>
        <time>2015-09-02T06:14:15Z</time>
      </trkpt>
      <trkpt lat="33.93117" lon="77.34944">
        <ele>3576.8</ele>
        <time>2015-09-02T06:14:16Z</time>
      </trkpt>
      <trkpt lat="33.93114" lon="77.34946">
        <ele>3577</ele>
        <time>2015-09-02T06:14:20Z</time>
      </trkpt>
      <trkpt lat="33.93115" lon="77.34946">
        <ele>3577.4</ele>
        <time>2015-09-02T06:15:11Z</time>
      </trkpt>
      <trkpt lat="33.93113" lon="77.34948">
        <ele>3577.6</ele>
        <time>2015-09-02T06:16:20Z</time>
      </trkpt>
      <trkpt lat="33.93117" lon="77.34946">
        <ele>3577.6</ele>
        <time>2015-09-02T06:16:40Z</time>
      </trkpt>
      <trkpt lat="33.93119" lon="77.34948">
        <ele>3577.4</ele>
        <time>2015-09-02T06:17:15Z</time>
      </trkpt>
      <trkpt lat="33.93117" lon="77.34948">
        <ele>3577.2</ele>
        <time>2015-09-02T06:17:39Z</time>
      </trkpt>
      <trkpt lat="33.93115" lon="77.34949">
        <ele>3576.8</ele>
        <time>2015-09-02T06:17:53Z</time>
      </trkpt>
      <trkpt lat="33.93111" lon="77.34951">
        <ele>3577.2</ele>
        <time>2015-09-02T06:18:03Z</time>
      </trkpt>
      <trkpt lat="33.93112" lon="77.34947">
        <ele>3576.8</ele>
        <time>2015-09-02T06:18:24Z</time>
      </trkpt>
      <trkpt lat="33.93119" lon="77.34947">
        <ele>3577.2</ele>
        <time>2015-09-02T06:18:47Z</time>
      </trkpt>
      <trkpt lat="33.93121" lon="77.34947">
        <ele>3577.2</ele>
        <time>2015-09-02T06:18:50Z</time>
      </trkpt>
      <trkpt lat="33.93121" lon="77.34946">
        <ele>3577.2</ele>
        <time>2015-09-02T06:18:52Z</time>
      </trkpt>
      <trkpt lat="33.93122" lon="77.34947">
        <ele>3577.6</ele>
        <time>2015-09-02T06:18:56Z</time>
      </trkpt>
      <trkpt lat="33.9311" lon="77.34948">
        <ele>3577.6</ele>
        <time>2015-09-02T06:19:49Z</time>
      </trkpt>
      <trkpt lat="33.93113" lon="77.3495">
        <ele>3577.8</ele>
        <time>2015-09-02T06:19:59Z</time>
      </trkpt>
      <trkpt lat="33.93114" lon="77.34947">
        <ele>3578.2</ele>
        <time>2015-09-02T06:20:06Z</time>
      </trkpt>
      <trkpt lat="33.93116" lon="77.34947">
        <ele>3578</ele>
        <time>2015-09-02T06:21:02Z</time>
      </trkpt>
      <trkpt lat="33.93117" lon="77.34943">
        <ele>3578</ele>
        <time>2015-09-02T06:21:28Z</time>
      </trkpt>
      <trkpt lat="33.93117" lon="77.34949">
        <ele>3578.4</ele>
        <time>2015-09-02T06:22:11Z</time>
      </trkpt>
      <trkpt lat="33.93113" lon="77.34939">
        <ele>3578.6</ele>
        <time>2015-09-02T06:23:04Z</time>
      </trkpt>
      <trkpt lat="33.93098" lon="77.34945">
        <ele>3578.2</ele>
        <time>2015-09-02T06:23:30Z</time>
      </trkpt>
      <trkpt lat="33.93089" lon="77.34956">
        <ele>3579.2</ele>
        <time>2015-09-02T06:24:02Z</time>
      </trkpt>
      <trkpt lat="33.93082" lon="77.34968">
        <ele>3579.4</ele>
        <time>2015-09-02T06:24:18Z</time>
      </trkpt>
      <trkpt lat="33.9308" lon="77.34974">
        <ele>3579.4</ele>
        <time>2015-09-02T06:24:22Z</time>
      </trkpt>
      <trkpt lat="33.93079" lon="77.34977">
        <ele>3579.4</ele>
        <time>2015-09-02T06:24:24Z</time>
      </trkpt>
      <trkpt lat="33.93074" lon="77.34984">
        <ele>3579.4</ele>
        <time>2015-09-02T06:24:32Z</time>
      </trkpt>
      <trkpt lat="33.93065" lon="77.34987">
        <ele>3578.8</ele>
        <time>2015-09-02T06:24:40Z</time>
      </trkpt>
      <trkpt lat="33.93062" lon="77.3499">
        <ele>3578.6</ele>
        <time>2015-09-02T06:24:44Z</time>
      </trkpt>
      <trkpt lat="33.93058" lon="77.3499">
        <ele>3579.2</ele>
        <time>2015-09-02T06:24:50Z</time>
      </trkpt>
      <trkpt lat="33.93054" lon="77.34998">
        <ele>3579.4</ele>
        <time>2015-09-02T06:24:56Z</time>
      </trkpt>
      <trkpt lat="33.93052" lon="77.3501">
        <ele>3579.2</ele>
        <time>2015-09-02T06:25:06Z</time>
      </trkpt>
      <trkpt lat="33.9305" lon="77.35013">
        <ele>3579.2</ele>
        <time>2015-09-02T06:25:09Z</time>
      </trkpt>
      <trkpt lat="33.93045" lon="77.35033">
        <ele>3579.6</ele>
        <time>2015-09-02T06:25:25Z</time>
      </trkpt>
      <trkpt lat="33.93031" lon="77.35048">
        <ele>3579.8</ele>
        <time>2015-09-02T06:25:43Z</time>
      </trkpt>
      <trkpt lat="33.9303" lon="77.35051">
        <ele>3579.8</ele>
        <time>2015-09-02T06:25:44Z</time>
      </trkpt>
      <trkpt lat="33.93024" lon="77.35066">
        <ele>3579.8</ele>
        <time>2015-09-02T06:25:53Z</time>
      </trkpt>
      <trkpt lat="33.93021" lon="77.35073">
        <ele>3579.6</ele>
        <time>2015-09-02T06:26:00Z</time>
      </trkpt>
      <trkpt lat="33.93019" lon="77.35078">
        <ele>3580</ele>
        <time>2015-09-02T06:26:05Z</time>
      </trkpt>
      <trkpt lat="33.93018" lon="77.35082">
        <ele>3580</ele>
        <time>2015-09-02T06:26:09Z</time>
      </trkpt>
      <trkpt lat="33.93017" lon="77.35083">
        <ele>3580</ele>
        <time>2015-09-02T06:26:11Z</time>
      </trkpt>
      <trkpt lat="33.93009" lon="77.35099">
        <ele>3580.2</ele>
        <time>2015-09-02T06:26:30Z</time>
      </trkpt>
      <trkpt lat="33.9301" lon="77.35103">
        <ele>3581.4</ele>
        <time>2015-09-02T06:26:38Z</time>
      </trkpt>
      <trkpt lat="33.93005" lon="77.35106">
        <ele>3582.4</ele>
        <time>2015-09-02T06:26:44Z</time>
      </trkpt>
      <trkpt lat="33.93017" lon="77.35119">
        <ele>3583.4</ele>
        <time>2015-09-02T06:27:17Z</time>
      </trkpt>
      <trkpt lat="33.93019" lon="77.35122">
        <ele>3583.8</ele>
        <time>2015-09-02T06:27:20Z</time>
      </trkpt>
      <trkpt lat="33.93019" lon="77.35128">
        <ele>3584.4</ele>
        <time>2015-09-02T06:27:25Z</time>
      </trkpt>
      <trkpt lat="33.93018" lon="77.3513">
        <ele>3585</ele>
        <time>2015-09-02T06:27:28Z</time>
      </trkpt>
      <trkpt lat="33.93017" lon="77.35136">
        <ele>3585.4</ele>
        <time>2015-09-02T06:27:35Z</time>
      </trkpt>
      <trkpt lat="33.93015" lon="77.35137">
        <ele>3585.6</ele>
        <time>2015-09-02T06:27:37Z</time>
      </trkpt>
      <trkpt lat="33.93015" lon="77.35138">
        <ele>3585.6</ele>
        <time>2015-09-02T06:27:38Z</time>
      </trkpt>
      <trkpt lat="33.93014" lon="77.35144">
        <ele>3586.2</ele>
        <time>2015-09-02T06:27:44Z</time>
      </trkpt>
      <trkpt lat="33.93011" lon="77.35147">
        <ele>3586.6</ele>
        <time>2015-09-02T06:27:48Z</time>
      </trkpt>
      <trkpt lat="33.93008" lon="77.3516">
        <ele>3587.4</ele>
        <time>2015-09-02T06:27:59Z</time>
      </trkpt>
      <trkpt lat="33.93008" lon="77.35163">
        <ele>3587.6</ele>
        <time>2015-09-02T06:28:02Z</time>
      </trkpt>
      <trkpt lat="33.93005" lon="77.35173">
        <ele>3588.2</ele>
        <time>2015-09-02T06:28:11Z</time>
      </trkpt>
      <trkpt lat="33.93004" lon="77.35173">
        <ele>3588.2</ele>
        <time>2015-09-02T06:28:13Z</time>
      </trkpt>
      <trkpt lat="33.93001" lon="77.35184">
        <ele>3588.4</ele>
        <time>2015-09-02T06:28:21Z</time>
      </trkpt>
      <trkpt lat="33.93002" lon="77.35177">
        <ele>3588.8</ele>
        <time>2015-09-02T06:28:53Z</time>
      </trkpt>
      <trkpt lat="33.93001" lon="77.35185">
        <ele>3589</ele>
        <time>2015-09-02T06:29:01Z</time>
      </trkpt>
      <trkpt lat="33.92997" lon="77.35196">
        <ele>3589.4</ele>
        <time>2015-09-02T06:29:15Z</time>
      </trkpt>
      <trkpt lat="33.92995" lon="77.35199">
        <ele>3589.4</ele>
        <time>2015-09-02T06:29:18Z</time>
      </trkpt>
      <trkpt lat="33.92994" lon="77.35201">
        <ele>3589.4</ele>
        <time>2015-09-02T06:29:20Z</time>
      </trkpt>
      <trkpt lat="33.92994" lon="77.35203">
        <ele>3589.4</ele>
        <time>2015-09-02T06:29:22Z</time>
      </trkpt>
      <trkpt lat="33.92986" lon="77.35214">
        <ele>3589.6</ele>
        <time>2015-09-02T06:29:38Z</time>
      </trkpt>
      <trkpt lat="33.92984" lon="77.35219">
        <ele>3589.8</ele>
        <time>2015-09-02T06:29:42Z</time>
      </trkpt>
      <trkpt lat="33.92981" lon="77.35225">
        <ele>3589.8</ele>
        <time>2015-09-02T06:29:46Z</time>
      </trkpt>
      <trkpt lat="33.92969" lon="77.3524">
        <ele>3590.2</ele>
        <time>2015-09-02T06:30:01Z</time>
      </trkpt>
      <trkpt lat="33.92965" lon="77.35242">
        <ele>3590.4</ele>
        <time>2015-09-02T06:30:08Z</time>
      </trkpt>
      <trkpt lat="33.92949" lon="77.35255">
        <ele>3590.2</ele>
        <time>2015-09-02T06:30:25Z</time>
      </trkpt>
      <trkpt lat="33.92943" lon="77.35266">
        <ele>3590.2</ele>
        <time>2015-09-02T06:30:35Z</time>
      </trkpt>
      <trkpt lat="33.92928" lon="77.35279">
        <ele>3590.4</ele>
        <time>2015-09-02T06:30:53Z</time>
      </trkpt>
      <trkpt lat="33.92913" lon="77.35292">
        <ele>3590.2</ele>
        <time>2015-09-02T06:31:07Z</time>
      </trkpt>
      <trkpt lat="33.92898" lon="77.35302">
        <ele>3589.8</ele>
        <time>2015-09-02T06:31:23Z</time>
      </trkpt>
      <trkpt lat="33.92887" lon="77.35306">
        <ele>3589.6</ele>
        <time>2015-09-02T06:31:33Z</time>
      </trkpt>
      <trkpt lat="33.92877" lon="77.35315">
        <ele>3589</ele>
        <time>2015-09-02T06:31:48Z</time>
      </trkpt>
      <trkpt lat="33.92875" lon="77.35316">
        <ele>3588.8</ele>
        <time>2015-09-02T06:31:51Z</time>
      </trkpt>
      <trkpt lat="33.92865" lon="77.35333">
        <ele>3588.8</ele>
        <time>2015-09-02T06:31:57Z</time>
      </trkpt>
      <trkpt lat="33.92864" lon="77.35335">
        <ele>3588.8</ele>
        <time>2015-09-02T06:31:58Z</time>
      </trkpt>
      <trkpt lat="33.92852" lon="77.35346">
        <ele>3589.8</ele>
        <time>2015-09-02T06:32:13Z</time>
      </trkpt>
      <trkpt lat="33.92841" lon="77.35355">
        <ele>3590</ele>
        <time>2015-09-02T06:32:28Z</time>
      </trkpt>
      <trkpt lat="33.9284" lon="77.35355">
        <ele>3590</ele>
        <time>2015-09-02T06:32:30Z</time>
      </trkpt>
      <trkpt lat="33.92836" lon="77.35362">
        <ele>3590.4</ele>
        <time>2015-09-02T06:32:45Z</time>
      </trkpt>
      <trkpt lat="33.92832" lon="77.35367">
        <ele>3590.4</ele>
        <time>2015-09-02T06:32:51Z</time>
      </trkpt>
      <trkpt lat="33.92828" lon="77.35371">
        <ele>3590</ele>
        <time>2015-09-02T06:32:55Z</time>
      </trkpt>
      <trkpt lat="33.92821" lon="77.35378">
        <ele>3590</ele>
        <time>2015-09-02T06:33:02Z</time>
      </trkpt>
      <trkpt lat="33.9282" lon="77.3538">
        <ele>3590</ele>
        <time>2015-09-02T06:33:04Z</time>
      </trkpt>
      <trkpt lat="33.92814" lon="77.35387">
        <ele>3590.6</ele>
        <time>2015-09-02T06:33:13Z</time>
      </trkpt>
      <trkpt lat="33.92813" lon="77.35389">
        <ele>3590.8</ele>
        <time>2015-09-02T06:33:15Z</time>
      </trkpt>
      <trkpt lat="33.92801" lon="77.35395">
        <ele>3591.8</ele>
        <time>2015-09-02T06:33:29Z</time>
      </trkpt>
      <trkpt lat="33.9279" lon="77.35414">
        <ele>3591</ele>
        <time>2015-09-02T06:33:44Z</time>
      </trkpt>
      <trkpt lat="33.9279" lon="77.35415">
        <ele>3590.8</ele>
        <time>2015-09-02T06:33:55Z</time>
      </trkpt>
      <trkpt lat="33.92787" lon="77.35419">
        <ele>3590.8</ele>
        <time>2015-09-02T06:34:07Z</time>
      </trkpt>
      <trkpt lat="33.92794" lon="77.35418">
        <ele>3590.2</ele>
        <time>2015-09-02T06:34:42Z</time>
      </trkpt>
      <trkpt lat="33.9279" lon="77.35425">
        <ele>3589.6</ele>
        <time>2015-09-02T06:35:01Z</time>
      </trkpt>
      <trkpt lat="33.928" lon="77.35426">
        <ele>3589.2</ele>
        <time>2015-09-02T06:35:21Z</time>
      </trkpt>
      <trkpt lat="33.928" lon="77.35427">
        <ele>3589.2</ele>
        <time>2015-09-02T06:35:23Z</time>
      </trkpt>
      <trkpt lat="33.92802" lon="77.35429">
        <ele>3588.6</ele>
        <time>2015-09-02T06:35:28Z</time>
      </trkpt>
      <trkpt lat="33.92799" lon="77.35426">
        <ele>3588.4</ele>
        <time>2015-09-02T06:36:14Z</time>
      </trkpt>
      <trkpt lat="33.92799" lon="77.35426">
        <ele>3588</ele>
        <time>2015-09-02T06:37:04Z</time>
      </trkpt>
      <trkpt lat="33.92799" lon="77.35425">
        <ele>3588</ele>
        <time>2015-09-02T06:37:05Z</time>
      </trkpt>
      <trkpt lat="33.92798" lon="77.35426">
        <ele>3587.8</ele>
        <time>2015-09-02T06:37:07Z</time>
      </trkpt>
      <trkpt lat="33.92799" lon="77.35428">
        <ele>3588</ele>
        <time>2015-09-02T06:37:22Z</time>
      </trkpt>
      <trkpt lat="33.928" lon="77.35429">
        <ele>3587.6</ele>
        <time>2015-09-02T06:37:35Z</time>
      </trkpt>
      <trkpt lat="33.92807" lon="77.35427">
        <ele>3588.2</ele>
        <time>2015-09-02T06:38:09Z</time>
      </trkpt>
      <trkpt lat="33.92801" lon="77.35427">
        <ele>3587.4</ele>
        <time>2015-09-02T06:39:08Z</time>
      </trkpt>
      <trkpt lat="33.92798" lon="77.35426">
        <ele>3587</ele>
        <time>2015-09-02T06:39:12Z</time>
      </trkpt>
      <trkpt lat="33.92799" lon="77.35426">
        <ele>3587</ele>
        <time>2015-09-02T06:39:14Z</time>
      </trkpt>
      <trkpt lat="33.92804" lon="77.3543">
        <ele>3587</ele>
        <time>2015-09-02T06:40:39Z</time>
      </trkpt>
      <trkpt lat="33.92804" lon="77.3543">
        <ele>3587</ele>
        <time>2015-09-02T06:40:47Z</time>
      </trkpt>
      <trkpt lat="33.92808" lon="77.35427">
        <ele>3586.8</ele>
        <time>2015-09-02T06:41:16Z</time>
      </trkpt>
      <trkpt lat="33.9281" lon="77.35429">
        <ele>3586.4</ele>
        <time>2015-09-02T06:41:52Z</time>
      </trkpt>
      <trkpt lat="33.92803" lon="77.35429">
        <ele>3586.8</ele>
        <time>2015-09-02T06:42:35Z</time>
      </trkpt>
      <trkpt lat="33.92799" lon="77.35431">
        <ele>3586</ele>
        <time>2015-09-02T06:43:40Z</time>
      </trkpt>
      <trkpt lat="33.92807" lon="77.3543">
        <ele>3586.2</ele>
        <time>2015-09-02T06:45:09Z</time>
      </trkpt>
      <trkpt lat="33.92809" lon="77.35425">
        <ele>3585.6</ele>
        <time>2015-09-02T06:46:14Z</time>
      </trkpt>
      <trkpt lat="33.92799" lon="77.35433">
        <ele>3585.4</ele>
        <time>2015-09-02T06:46:49Z</time>
      </trkpt>
      <trkpt lat="33.92806" lon="77.35445">
        <ele>3585.4</ele>
        <time>2015-09-02T06:46:55Z</time>
      </trkpt>
      <trkpt lat="33.928" lon="77.35429">
        <ele>3585.4</ele>
        <time>2015-09-02T06:47:15Z</time>
      </trkpt>
      <trkpt lat="33.92804" lon="77.35429">
        <ele>3585.2</ele>
        <time>2015-09-02T06:47:37Z</time>
      </trkpt>
      <trkpt lat="33.92803" lon="77.35427">
        <ele>3585.2</ele>
        <time>2015-09-02T06:48:38Z</time>
      </trkpt>
      <trkpt lat="33.92809" lon="77.35425">
        <ele>3585.4</ele>
        <time>2015-09-02T06:49:37Z</time>
      </trkpt>
      <trkpt lat="33.92809" lon="77.35425">
        <ele>3585.8</ele>
        <time>2015-09-02T06:50:28Z</time>
      </trkpt>
      <trkpt lat="33.92805" lon="77.35431">
        <ele>3585.2</ele>
        <time>2015-09-02T06:51:14Z</time>
      </trkpt>
      <trkpt lat="33.92805" lon="77.35425">
        <ele>3585.4</ele>
        <time>2015-09-02T06:52:33Z</time>
      </trkpt>
      <trkpt lat="33.92808" lon="77.35428">
        <ele>3585.4</ele>
        <time>2015-09-02T06:54:04Z</time>
      </trkpt>
      <trkpt lat="33.92808" lon="77.35427">
        <ele>3585.8</ele>
        <time>2015-09-02T06:54:11Z</time>
      </trkpt>
      <trkpt lat="33.92808" lon="77.35423">
        <ele>3585.8</ele>
        <time>2015-09-02T06:54:52Z</time>
      </trkpt>
      <trkpt lat="33.928" lon="77.35425">
        <ele>3586.2</ele>
        <time>2015-09-02T06:54:59Z</time>
      </trkpt>
      <trkpt lat="33.92794" lon="77.35426">
        <ele>3586.2</ele>
        <time>2015-09-02T06:55:02Z</time>
      </trkpt>
      <trkpt lat="33.92791" lon="77.35424">
        <ele>3586</ele>
        <time>2015-09-02T06:55:30Z</time>
      </trkpt>
      <trkpt lat="33.92796" lon="77.35425">
        <ele>3586</ele>
        <time>2015-09-02T06:55:46Z</time>
      </trkpt>
      <trkpt lat="33.92798" lon="77.35425">
        <ele>3586</ele>
        <time>2015-09-02T06:55:48Z</time>
      </trkpt>
      <trkpt lat="33.92802" lon="77.35425">
        <ele>3585.8</ele>
        <time>2015-09-02T06:56:38Z</time>
      </trkpt>
      <trkpt lat="33.9279" lon="77.35418">
        <ele>3585.8</ele>
        <time>2015-09-02T06:57:25Z</time>
      </trkpt>
      <trkpt lat="33.92793" lon="77.35421">
        <ele>3585.6</ele>
        <time>2015-09-02T06:57:49Z</time>
      </trkpt>
      <trkpt lat="33.9279" lon="77.3542">
        <ele>3585.6</ele>
        <time>2015-09-02T06:57:51Z</time>
      </trkpt>
      <trkpt lat="33.92788" lon="77.3542">
        <ele>3585.6</ele>
        <time>2015-09-02T06:57:53Z</time>
      </trkpt>
      <trkpt lat="33.92786" lon="77.35419">
        <ele>3585.6</ele>
        <time>2015-09-02T06:57:55Z</time>
      </trkpt>
      <trkpt lat="33.92782" lon="77.35416">
        <ele>3585.4</ele>
        <time>2015-09-02T06:57:58Z</time>
      </trkpt>
      <trkpt lat="33.92791" lon="77.3542">
        <ele>3584.4</ele>
        <time>2015-09-02T06:58:23Z</time>
      </trkpt>
      <trkpt lat="33.92797" lon="77.35422">
        <ele>3584.4</ele>
        <time>2015-09-02T06:59:09Z</time>
      </trkpt>
      <trkpt lat="33.92787" lon="77.35424">
        <ele>3583.6</ele>
        <time>2015-09-02T06:59:38Z</time>
      </trkpt>
      <trkpt lat="33.92785" lon="77.35425">
        <ele>3583.4</ele>
        <time>2015-09-02T06:59:41Z</time>
      </trkpt>
      <trkpt lat="33.92783" lon="77.35421">
        <ele>3584.4</ele>
        <time>2015-09-02T07:00:02Z</time>
      </trkpt>
      <trkpt lat="33.9279" lon="77.35422">
        <ele>3584.6</ele>
        <time>2015-09-02T07:00:06Z</time>
      </trkpt>
      <trkpt lat="33.92791" lon="77.35421">
        <ele>3584.4</ele>
        <time>2015-09-02T07:00:08Z</time>
      </trkpt>
      <trkpt lat="33.92798" lon="77.35417">
        <ele>3583.8</ele>
        <time>2015-09-02T07:00:30Z</time>
      </trkpt>
      <trkpt lat="33.92799" lon="77.35416">
        <ele>3583.8</ele>
        <time>2015-09-02T07:00:33Z</time>
      </trkpt>
      <trkpt lat="33.9279" lon="77.35422">
        <ele>3583.4</ele>
        <time>2015-09-02T07:00:48Z</time>
      </trkpt>
      <trkpt lat="33.92787" lon="77.35417">
        <ele>3583.6</ele>
        <time>2015-09-02T07:01:01Z</time>
      </trkpt>
      <trkpt lat="33.92784" lon="77.3542">
        <ele>3583.4</ele>
        <time>2015-09-02T07:01:25Z</time>
      </trkpt>
      <trkpt lat="33.92782" lon="77.3542">
        <ele>3583.8</ele>
        <time>2015-09-02T07:01:33Z</time>
      </trkpt>
      <trkpt lat="33.9278" lon="77.35418">
        <ele>3583.8</ele>
        <time>2015-09-02T07:01:36Z</time>
      </trkpt>
      <trkpt lat="33.92779" lon="77.35415">
        <ele>3584.4</ele>
        <time>2015-09-02T07:01:40Z</time>
      </trkpt>
      <trkpt lat="33.92779" lon="77.35409">
        <ele>3585.4</ele>
        <time>2015-09-02T07:01:54Z</time>
      </trkpt>
      <trkpt lat="33.92776" lon="77.35407">
        <ele>3585.6</ele>
        <time>2015-09-02T07:02:35Z</time>
      </trkpt>
      <trkpt lat="33.9278" lon="77.35404">
        <ele>3585.6</ele>
        <time>2015-09-02T07:02:43Z</time>
      </trkpt>
      <trkpt lat="33.92777" lon="77.35404">
        <ele>3585.8</ele>
        <time>2015-09-02T07:02:47Z</time>
      </trkpt>
      <trkpt lat="33.92781" lon="77.35401">
        <ele>3586</ele>
        <time>2015-09-02T07:02:58Z</time>
      </trkpt>
      <trkpt lat="33.92783" lon="77.35404">
        <ele>3585.8</ele>
        <time>2015-09-02T07:03:00Z</time>
      </trkpt>
      <trkpt lat="33.92779" lon="77.35405">
        <ele>3585.8</ele>
        <time>2015-09-02T07:03:13Z</time>
      </trkpt>
      <trkpt lat="33.92773" lon="77.35399">
        <ele>3586.2</ele>
        <time>2015-09-02T07:03:18Z</time>
      </trkpt>
      <trkpt lat="33.92766" lon="77.35399">
        <ele>3586.6</ele>
        <time>2015-09-02T07:03:27Z</time>
      </trkpt>
      <trkpt lat="33.92763" lon="77.35401">
        <ele>3587.6</ele>
        <time>2015-09-02T07:03:34Z</time>
      </trkpt>
      <trkpt lat="33.92755" lon="77.35412">
        <ele>3586.6</ele>
        <time>2015-09-02T07:03:49Z</time>
      </trkpt>
      <trkpt lat="33.92753" lon="77.35415">
        <ele>3585.6</ele>
        <time>2015-09-02T07:03:56Z</time>
      </trkpt>
      <trkpt lat="33.92749" lon="77.35419">
        <ele>3585.4</ele>
        <time>2015-09-02T07:04:00Z</time>
      </trkpt>
      <trkpt lat="33.92733" lon="77.35423">
        <ele>3584.6</ele>
        <time>2015-09-02T07:04:10Z</time>
      </trkpt>
      <trkpt lat="33.92727" lon="77.35425">
        <ele>3584.6</ele>
        <time>2015-09-02T07:04:14Z</time>
      </trkpt>
      <trkpt lat="33.92716" lon="77.35434">
        <ele>3585</ele>
        <time>2015-09-02T07:04:29Z</time>
      </trkpt>
      <trkpt lat="33.92708" lon="77.35445">
        <ele>3585</ele>
        <time>2015-09-02T07:04:43Z</time>
      </trkpt>
      <trkpt lat="33.92694" lon="77.35455">
        <ele>3585.6</ele>
        <time>2015-09-02T07:04:56Z</time>
      </trkpt>
      <trkpt lat="33.92689" lon="77.35461">
        <ele>3585.8</ele>
        <time>2015-09-02T07:05:03Z</time>
      </trkpt>
      <trkpt lat="33.92683" lon="77.35464">
        <ele>3586</ele>
        <time>2015-09-02T07:05:08Z</time>
      </trkpt>
      <trkpt lat="33.92673" lon="77.35483">
        <ele>3586.4</ele>
        <time>2015-09-02T07:05:20Z</time>
      </trkpt>
      <trkpt lat="33.92659" lon="77.35496">
        <ele>3584.4</ele>
        <time>2015-09-02T07:05:35Z</time>
      </trkpt>
      <trkpt lat="33.92646" lon="77.35511">
        <ele>3584.8</ele>
        <time>2015-09-02T07:05:51Z</time>
      </trkpt>
      <trkpt lat="33.92644" lon="77.35517">
        <ele>3584.6</ele>
        <time>2015-09-02T07:05:56Z</time>
      </trkpt>
      <trkpt lat="33.92645" lon="77.35519">
        <ele>3584.6</ele>
        <time>2015-09-02T07:05:58Z</time>
      </trkpt>
      <trkpt lat="33.92642" lon="77.35524">
        <ele>3584.6</ele>
        <time>2015-09-02T07:06:05Z</time>
      </trkpt>
      <trkpt lat="33.92633" lon="77.35531">
        <ele>3583.6</ele>
        <time>2015-09-02T07:06:15Z</time>
      </trkpt>
      <trkpt lat="33.92631" lon="77.35534">
        <ele>3583.6</ele>
        <time>2015-09-02T07:06:19Z</time>
      </trkpt>
      <trkpt lat="33.92629" lon="77.35536">
        <ele>3583.8</ele>
        <time>2015-09-02T07:06:21Z</time>
      </trkpt>
      <trkpt lat="33.92627" lon="77.35539">
        <ele>3584</ele>
        <time>2015-09-02T07:06:23Z</time>
      </trkpt>
      <trkpt lat="33.92624" lon="77.35546">
        <ele>3584.4</ele>
        <time>2015-09-02T07:06:32Z</time>
      </trkpt>
      <trkpt lat="33.92615" lon="77.35554">
        <ele>3584</ele>
        <time>2015-09-02T07:06:40Z</time>
      </trkpt>
      <trkpt lat="33.92612" lon="77.35558">
        <ele>3584</ele>
        <time>2015-09-02T07:06:45Z</time>
      </trkpt>
      <trkpt lat="33.92608" lon="77.35566">
        <ele>3583.8</ele>
        <time>2015-09-02T07:06:52Z</time>
      </trkpt>
      <trkpt lat="33.92604" lon="77.35572">
        <ele>3584</ele>
        <time>2015-09-02T07:06:59Z</time>
      </trkpt>
      <trkpt lat="33.92604" lon="77.35581">
        <ele>3583.4</ele>
        <time>2015-09-02T07:07:04Z</time>
      </trkpt>
      <trkpt lat="33.92596" lon="77.35592">
        <ele>3584.2</ele>
        <time>2015-09-02T07:07:15Z</time>
      </trkpt>
      <trkpt lat="33.92591" lon="77.35595">
        <ele>3584.4</ele>
        <time>2015-09-02T07:07:19Z</time>
      </trkpt>
      <trkpt lat="33.92585" lon="77.35608">
        <ele>3585.4</ele>
        <time>2015-09-02T07:07:31Z</time>
      </trkpt>
      <trkpt lat="33.92579" lon="77.35608">
        <ele>3586.2</ele>
        <time>2015-09-02T07:07:42Z</time>
      </trkpt>
      <trkpt lat="33.92574" lon="77.35609">
        <ele>3586</ele>
        <time>2015-09-02T07:07:46Z</time>
      </trkpt>
      <trkpt lat="33.92573" lon="77.3561">
        <ele>3585.8</ele>
        <time>2015-09-02T07:07:48Z</time>
      </trkpt>
      <trkpt lat="33.92573" lon="77.35612">
        <ele>3585.8</ele>
        <time>2015-09-02T07:07:51Z</time>
      </trkpt>
      <trkpt lat="33.92572" lon="77.35614">
        <ele>3585.8</ele>
        <time>2015-09-02T07:07:53Z</time>
      </trkpt>
      <trkpt lat="33.92573" lon="77.35618">
        <ele>3585.8</ele>
        <time>2015-09-02T07:07:57Z</time>
      </trkpt>
      <trkpt lat="33.92575" lon="77.35626">
        <ele>3586</ele>
        <time>2015-09-02T07:08:04Z</time>
      </trkpt>
      <trkpt lat="33.92576" lon="77.35628">
        <ele>3586.6</ele>
        <time>2015-09-02T07:08:08Z</time>
      </trkpt>
      <trkpt lat="33.9257" lon="77.3563">
        <ele>3587.4</ele>
        <time>2015-09-02T07:08:19Z</time>
      </trkpt>
      <trkpt lat="33.92568" lon="77.35631">
        <ele>3587.6</ele>
        <time>2015-09-02T07:08:22Z</time>
      </trkpt>
      <trkpt lat="33.92552" lon="77.35635">
        <ele>3587.8</ele>
        <time>2015-09-02T07:08:44Z</time>
      </trkpt>
      <trkpt lat="33.92549" lon="77.35637">
        <ele>3587.6</ele>
        <time>2015-09-02T07:08:49Z</time>
      </trkpt>
      <trkpt lat="33.92541" lon="77.35643">
        <ele>3587.6</ele>
        <time>2015-09-02T07:08:59Z</time>
      </trkpt>
      <trkpt lat="33.92539" lon="77.35645">
        <ele>3587.8</ele>
        <time>2015-09-02T07:09:02Z</time>
      </trkpt>
      <trkpt lat="33.92535" lon="77.35651">
        <ele>3587.8</ele>
        <time>2015-09-02T07:09:09Z</time>
      </trkpt>
      <trkpt lat="33.92534" lon="77.35655">
        <ele>3587.8</ele>
        <time>2015-09-02T07:09:13Z</time>
      </trkpt>
      <trkpt lat="33.92535" lon="77.3566">
        <ele>3588.8</ele>
        <time>2015-09-02T07:09:21Z</time>
      </trkpt>
      <trkpt lat="33.92532" lon="77.35663">
        <ele>3589.2</ele>
        <time>2015-09-02T07:09:25Z</time>
      </trkpt>
      <trkpt lat="33.92531" lon="77.35666">
        <ele>3589.2</ele>
        <time>2015-09-02T07:09:27Z</time>
      </trkpt>
      <trkpt lat="33.92531" lon="77.35668">
        <ele>3589.4</ele>
        <time>2015-09-02T07:09:29Z</time>
      </trkpt>
      <trkpt lat="33.92528" lon="77.35671">
        <ele>3589.8</ele>
        <time>2015-09-02T07:09:33Z</time>
      </trkpt>
      <trkpt lat="33.92523" lon="77.35676">
        <ele>3590.2</ele>
        <time>2015-09-02T07:09:38Z</time>
      </trkpt>
      <trkpt lat="33.92522" lon="77.35679">
        <ele>3590.8</ele>
        <time>2015-09-02T07:09:42Z</time>
      </trkpt>
      <trkpt lat="33.9252" lon="77.35681">
        <ele>3591</ele>
        <time>2015-09-02T07:09:44Z</time>
      </trkpt>
      <trkpt lat="33.92517" lon="77.35689">
        <ele>3592</ele>
        <time>2015-09-02T07:09:51Z</time>
      </trkpt>
      <trkpt lat="33.92517" lon="77.3569">
        <ele>3592</ele>
        <time>2015-09-02T07:09:52Z</time>
      </trkpt>
      <trkpt lat="33.92519" lon="77.35701">
        <ele>3593</ele>
        <time>2015-09-02T07:10:03Z</time>
      </trkpt>
      <trkpt lat="33.92504" lon="77.35718">
        <ele>3593.8</ele>
        <time>2015-09-02T07:10:22Z</time>
      </trkpt>
      <trkpt lat="33.92503" lon="77.3572">
        <ele>3594</ele>
        <time>2015-09-02T07:10:24Z</time>
      </trkpt>
      <trkpt lat="33.92497" lon="77.35724">
        <ele>3594.2</ele>
        <time>2015-09-02T07:10:29Z</time>
      </trkpt>
      <trkpt lat="33.92491" lon="77.35728">
        <ele>3594.6</ele>
        <time>2015-09-02T07:10:35Z</time>
      </trkpt>
      <trkpt lat="33.92488" lon="77.3573">
        <ele>3594.6</ele>
        <time>2015-09-02T07:10:38Z</time>
      </trkpt>
      <trkpt lat="33.92486" lon="77.35731">
        <ele>3594.8</ele>
        <time>2015-09-02T07:10:40Z</time>
      </trkpt>
      <trkpt lat="33.92478" lon="77.35738">
        <ele>3595</ele>
        <time>2015-09-02T07:10:47Z</time>
      </trkpt>
      <trkpt lat="33.9248" lon="77.35738">
        <ele>3595</ele>
        <time>2015-09-02T07:10:49Z</time>
      </trkpt>
      <trkpt lat="33.92479" lon="77.35738">
        <ele>3595</ele>
        <time>2015-09-02T07:10:50Z</time>
      </trkpt>
      <trkpt lat="33.92478" lon="77.35739">
        <ele>3595.2</ele>
        <time>2015-09-02T07:10:51Z</time>
      </trkpt>
      <trkpt lat="33.92476" lon="77.35741">
        <ele>3595.8</ele>
        <time>2015-09-02T07:10:54Z</time>
      </trkpt>
      <trkpt lat="33.92474" lon="77.35743">
        <ele>3596</ele>
        <time>2015-09-02T07:10:56Z</time>
      </trkpt>
      <trkpt lat="33.92473" lon="77.35745">
        <ele>3596</ele>
        <time>2015-09-02T07:10:57Z</time>
      </trkpt>
      <trkpt lat="33.92471" lon="77.35747">
        <ele>3596.4</ele>
        <time>2015-09-02T07:10:59Z</time>
      </trkpt>
      <trkpt lat="33.92468" lon="77.35752">
        <ele>3596.6</ele>
        <time>2015-09-02T07:11:03Z</time>
      </trkpt>
      <trkpt lat="33.92466" lon="77.35753">
        <ele>3596.4</ele>
        <time>2015-09-02T07:11:05Z</time>
      </trkpt>
      <trkpt lat="33.92458" lon="77.35756">
        <ele>3596.6</ele>
        <time>2015-09-02T07:11:12Z</time>
      </trkpt>
      <trkpt lat="33.92451" lon="77.3576">
        <ele>3597</ele>
        <time>2015-09-02T07:11:18Z</time>
      </trkpt>
      <trkpt lat="33.92444" lon="77.35774">
        <ele>3598.2</ele>
        <time>2015-09-02T07:11:33Z</time>
      </trkpt>
      <trkpt lat="33.92449" lon="77.35776">
        <ele>3598.2</ele>
        <time>2015-09-02T07:11:34Z</time>
      </trkpt>
      <trkpt lat="33.92451" lon="77.35784">
        <ele>3598.8</ele>
        <time>2015-09-02T07:11:43Z</time>
      </trkpt>
      <trkpt lat="33.92452" lon="77.35787">
        <ele>3599.2</ele>
        <time>2015-09-02T07:11:47Z</time>
      </trkpt>
      <trkpt lat="33.92451" lon="77.35789">
        <ele>3599.6</ele>
        <time>2015-09-02T07:11:50Z</time>
      </trkpt>
      <trkpt lat="33.9244" lon="77.35796">
        <ele>3600.2</ele>
        <time>2015-09-02T07:11:59Z</time>
      </trkpt>
      <trkpt lat="33.9244" lon="77.35796">
        <ele>3600.4</ele>
        <time>2015-09-02T07:12:00Z</time>
      </trkpt>
      <trkpt lat="33.92438" lon="77.35799">
        <ele>3601.4</ele>
        <time>2015-09-02T07:12:06Z</time>
      </trkpt>
      <trkpt lat="33.9243" lon="77.35798">
        <ele>3601.6</ele>
        <time>2015-09-02T07:12:07Z</time>
      </trkpt>
      <trkpt lat="33.92427" lon="77.358">
        <ele>3601.6</ele>
        <time>2015-09-02T07:12:09Z</time>
      </trkpt>
      <trkpt lat="33.92413" lon="77.35813">
        <ele>3602</ele>
        <time>2015-09-02T07:12:19Z</time>
      </trkpt>
      <trkpt lat="33.9241" lon="77.35817">
        <ele>3602.6</ele>
        <time>2015-09-02T07:12:25Z</time>
      </trkpt>
      <trkpt lat="33.92395" lon="77.35829">
        <ele>3603.6</ele>
        <time>2015-09-02T07:12:42Z</time>
      </trkpt>
      <trkpt lat="33.92387" lon="77.35833">
        <ele>3603.8</ele>
        <time>2015-09-02T07:12:48Z</time>
      </trkpt>
      <trkpt lat="33.92381" lon="77.35838">
        <ele>3604.2</ele>
        <time>2015-09-02T07:12:55Z</time>
      </trkpt>
      <trkpt lat="33.9238" lon="77.3584">
        <ele>3604.4</ele>
        <time>2015-09-02T07:12:57Z</time>
      </trkpt>
      <trkpt lat="33.92381" lon="77.35842">
        <ele>3604.8</ele>
        <time>2015-09-02T07:12:58Z</time>
      </trkpt>
      <trkpt lat="33.92382" lon="77.3584">
        <ele>3605.2</ele>
        <time>2015-09-02T07:13:01Z</time>
      </trkpt>
      <trkpt lat="33.92379" lon="77.35838">
        <ele>3605.2</ele>
        <time>2015-09-02T07:13:05Z</time>
      </trkpt>
      <trkpt lat="33.92378" lon="77.35833">
        <ele>3605.2</ele>
        <time>2015-09-02T07:13:08Z</time>
      </trkpt>
      <trkpt lat="33.92376" lon="77.35832">
        <ele>3604.8</ele>
        <time>2015-09-02T07:13:12Z</time>
      </trkpt>
      <trkpt lat="33.92374" lon="77.35834">
        <ele>3604.4</ele>
        <time>2015-09-02T07:13:14Z</time>
      </trkpt>
      <trkpt lat="33.92376" lon="77.35835">
        <ele>3604.4</ele>
        <time>2015-09-02T07:13:17Z</time>
      </trkpt>
      <trkpt lat="33.92378" lon="77.35837">
        <ele>3604.2</ele>
        <time>2015-09-02T07:13:20Z</time>
      </trkpt>
      <trkpt lat="33.92378" lon="77.35839">
        <ele>3603.6</ele>
        <time>2015-09-02T07:13:23Z</time>
      </trkpt>
      <trkpt lat="33.92375" lon="77.35841">
        <ele>3603.2</ele>
        <time>2015-09-02T07:13:26Z</time>
      </trkpt>
      <trkpt lat="33.92373" lon="77.35842">
        <ele>3603.2</ele>
        <time>2015-09-02T07:13:28Z</time>
      </trkpt>
      <trkpt lat="33.92372" lon="77.35847">
        <ele>3603.6</ele>
        <time>2015-09-02T07:13:33Z</time>
      </trkpt>
      <trkpt lat="33.92371" lon="77.35848">
        <ele>3604</ele>
        <time>2015-09-02T07:13:35Z</time>
      </trkpt>
      <trkpt lat="33.92369" lon="77.3585">
        <ele>3604.6</ele>
        <time>2015-09-02T07:13:39Z</time>
      </trkpt>
      <trkpt lat="33.92366" lon="77.35853">
        <ele>3605.4</ele>
        <time>2015-09-02T07:13:43Z</time>
      </trkpt>
      <trkpt lat="33.92363" lon="77.35855">
        <ele>3605.8</ele>
        <time>2015-09-02T07:13:45Z</time>
      </trkpt>
      <trkpt lat="33.9236" lon="77.35856">
        <ele>3606</ele>
        <time>2015-09-02T07:13:47Z</time>
      </trkpt>
      <trkpt lat="33.92351" lon="77.35869">
        <ele>3605.8</ele>
        <time>2015-09-02T07:14:02Z</time>
      </trkpt>
      <trkpt lat="33.92349" lon="77.3587">
        <ele>3605.8</ele>
        <time>2015-09-02T07:14:04Z</time>
      </trkpt>
      <trkpt lat="33.92338" lon="77.35873">
        <ele>3606</ele>
        <time>2015-09-02T07:14:20Z</time>
      </trkpt>
      <trkpt lat="33.92325" lon="77.35875">
        <ele>3605.4</ele>
        <time>2015-09-02T07:14:28Z</time>
      </trkpt>
      <trkpt lat="33.9231" lon="77.35881">
        <ele>3606.2</ele>
        <time>2015-09-02T07:15:00Z</time>
      </trkpt>
      <trkpt lat="33.92292" lon="77.35889">
        <ele>3606</ele>
        <time>2015-09-02T07:15:15Z</time>
      </trkpt>
      <trkpt lat="33.92274" lon="77.35895">
        <ele>3605.8</ele>
        <time>2015-09-02T07:15:29Z</time>
      </trkpt>
      <trkpt lat="33.9227" lon="77.35896">
        <ele>3606.2</ele>
        <time>2015-09-02T07:15:33Z</time>
      </trkpt>
      <trkpt lat="33.92251" lon="77.35903">
        <ele>3606.8</ele>
        <time>2015-09-02T07:15:44Z</time>
      </trkpt>
      <trkpt lat="33.9225" lon="77.35904">
        <ele>3606.8</ele>
        <time>2015-09-02T07:15:45Z</time>
      </trkpt>
      <trkpt lat="33.92234" lon="77.35916">
        <ele>3607.4</ele>
        <time>2015-09-02T07:15:56Z</time>
      </trkpt>
      <trkpt lat="33.92214" lon="77.35919">
        <ele>3607</ele>
        <time>2015-09-02T07:16:04Z</time>
      </trkpt>
      <trkpt lat="33.92202" lon="77.35933">
        <ele>3607.6</ele>
        <time>2015-09-02T07:16:27Z</time>
      </trkpt>
      <trkpt lat="33.92199" lon="77.35935">
        <ele>3607.8</ele>
        <time>2015-09-02T07:16:30Z</time>
      </trkpt>
      <trkpt lat="33.92197" lon="77.35939">
        <ele>3608.2</ele>
        <time>2015-09-02T07:16:33Z</time>
      </trkpt>
      <trkpt lat="33.92189" lon="77.35943">
        <ele>3608.8</ele>
        <time>2015-09-02T07:16:42Z</time>
      </trkpt>
      <trkpt lat="33.92182" lon="77.35949">
        <ele>3609.2</ele>
        <time>2015-09-02T07:16:51Z</time>
      </trkpt>
      <trkpt lat="33.92185" lon="77.35951">
        <ele>3610</ele>
        <time>2015-09-02T07:16:59Z</time>
      </trkpt>
      <trkpt lat="33.92169" lon="77.35954">
        <ele>3611</ele>
        <time>2015-09-02T07:17:10Z</time>
      </trkpt>
      <trkpt lat="33.92169" lon="77.35952">
        <ele>3612</ele>
        <time>2015-09-02T07:17:31Z</time>
      </trkpt>
      <trkpt lat="33.92165" lon="77.35955">
        <ele>3612.4</ele>
        <time>2015-09-02T07:17:34Z</time>
      </trkpt>
      <trkpt lat="33.92154" lon="77.35956">
        <ele>3612.8</ele>
        <time>2015-09-02T07:17:38Z</time>
      </trkpt>
      <trkpt lat="33.92151" lon="77.35958">
        <ele>3613</ele>
        <time>2015-09-02T07:17:40Z</time>
      </trkpt>
      <trkpt lat="33.92146" lon="77.3596">
        <ele>3613.4</ele>
        <time>2015-09-02T07:17:43Z</time>
      </trkpt>
      <trkpt lat="33.9214" lon="77.35962">
        <ele>3614</ele>
        <time>2015-09-02T07:17:48Z</time>
      </trkpt>
      <trkpt lat="33.92139" lon="77.35962">
        <ele>3613.8</ele>
        <time>2015-09-02T07:17:50Z</time>
      </trkpt>
      <trkpt lat="33.92136" lon="77.35964">
        <ele>3613.4</ele>
        <time>2015-09-02T07:17:52Z</time>
      </trkpt>
      <trkpt lat="33.92122" lon="77.3597">
        <ele>3611.8</ele>
        <time>2015-09-02T07:18:00Z</time>
      </trkpt>
      <trkpt lat="33.92113" lon="77.35966">
        <ele>3610.6</ele>
        <time>2015-09-02T07:18:10Z</time>
      </trkpt>
      <trkpt lat="33.921" lon="77.35964">
        <ele>3609.8</ele>
        <time>2015-09-02T07:18:23Z</time>
      </trkpt>
      <trkpt lat="33.92099" lon="77.35963">
        <ele>3609.6</ele>
        <time>2015-09-02T07:18:24Z</time>
      </trkpt>
      <trkpt lat="33.92096" lon="77.3596">
        <ele>3609.8</ele>
        <time>2015-09-02T07:18:27Z</time>
      </trkpt>
      <trkpt lat="33.92098" lon="77.35955">
        <ele>3609.8</ele>
        <time>2015-09-02T07:18:35Z</time>
      </trkpt>
      <trkpt lat="33.92091" lon="77.3595">
        <ele>3609.8</ele>
        <time>2015-09-02T07:18:41Z</time>
      </trkpt>
      <trkpt lat="33.92089" lon="77.35948">
        <ele>3610</ele>
        <time>2015-09-02T07:18:43Z</time>
      </trkpt>
      <trkpt lat="33.92085" lon="77.35946">
        <ele>3610</ele>
        <time>2015-09-02T07:18:53Z</time>
      </trkpt>
      <trkpt lat="33.92079" lon="77.3595">
        <ele>3609.6</ele>
        <time>2015-09-02T07:19:00Z</time>
      </trkpt>
      <trkpt lat="33.92061" lon="77.35957">
        <ele>3609.2</ele>
        <time>2015-09-02T07:19:12Z</time>
      </trkpt>
      <trkpt lat="33.92051" lon="77.35966">
        <ele>3609.4</ele>
        <time>2015-09-02T07:19:22Z</time>
      </trkpt>
      <trkpt lat="33.92048" lon="77.35969">
        <ele>3609</ele>
        <time>2015-09-02T07:19:27Z</time>
      </trkpt>
      <trkpt lat="33.92033" lon="77.35975">
        <ele>3608.6</ele>
        <time>2015-09-02T07:19:43Z</time>
      </trkpt>
      <trkpt lat="33.92026" lon="77.35978">
        <ele>3607.6</ele>
        <time>2015-09-02T07:19:49Z</time>
      </trkpt>
      <trkpt lat="33.92024" lon="77.35984">
        <ele>3606.4</ele>
        <time>2015-09-02T07:19:54Z</time>
      </trkpt>
      <trkpt lat="33.92016" lon="77.35989">
        <ele>3605.4</ele>
        <time>2015-09-02T07:19:59Z</time>
      </trkpt>
      <trkpt lat="33.92011" lon="77.35991">
        <ele>3604.2</ele>
        <time>2015-09-02T07:20:04Z</time>
      </trkpt>
      <trkpt lat="33.92005" lon="77.35991">
        <ele>3603.2</ele>
        <time>2015-09-02T07:20:11Z</time>
      </trkpt>
      <trkpt lat="33.92" lon="77.35993">
        <ele>3602</ele>
        <time>2015-09-02T07:20:15Z</time>
      </trkpt>
      <trkpt lat="33.92" lon="77.35993">
        <ele>3601.8</ele>
        <time>2015-09-02T07:20:16Z</time>
      </trkpt>
      <trkpt lat="33.9198" lon="77.3599">
        <ele>3601.6</ele>
        <time>2015-09-02T07:20:30Z</time>
      </trkpt>
      <trkpt lat="33.91968" lon="77.35989">
        <ele>3600.8</ele>
        <time>2015-09-02T07:20:42Z</time>
      </trkpt>
      <trkpt lat="33.91995" lon="77.35993">
        <ele>3600.6</ele>
        <time>2015-09-02T07:20:47Z</time>
      </trkpt>
      <trkpt lat="33.92006" lon="77.35994">
        <ele>3600.8</ele>
        <time>2015-09-02T07:20:50Z</time>
      </trkpt>
      <trkpt lat="33.92015" lon="77.36005">
        <ele>3601.4</ele>
        <time>2015-09-02T07:21:10Z</time>
      </trkpt>
      <trkpt lat="33.92009" lon="77.35997">
        <ele>3601.4</ele>
        <time>2015-09-02T07:21:20Z</time>
      </trkpt>
      <trkpt lat="33.92015" lon="77.35991">
        <ele>3601.4</ele>
        <time>2015-09-02T07:21:24Z</time>
      </trkpt>
      <trkpt lat="33.92008" lon="77.35983">
        <ele>3601.6</ele>
        <time>2015-09-02T07:21:29Z</time>
      </trkpt>
      <trkpt lat="33.91996" lon="77.35992">
        <ele>3601.4</ele>
        <time>2015-09-02T07:21:33Z</time>
      </trkpt>
      <trkpt lat="33.91993" lon="77.35987">
        <ele>3601.4</ele>
        <time>2015-09-02T07:21:37Z</time>
      </trkpt>
      <trkpt lat="33.91989" lon="77.35991">
        <ele>3601.4</ele>
        <time>2015-09-02T07:21:39Z</time>
      </trkpt>
      <trkpt lat="33.91987" lon="77.35993">
        <ele>3601.4</ele>
        <time>2015-09-02T07:21:41Z</time>
      </trkpt>
      <trkpt lat="33.91981" lon="77.35997">
        <ele>3601.2</ele>
        <time>2015-09-02T07:21:50Z</time>
      </trkpt>
      <trkpt lat="33.91978" lon="77.35998">
        <ele>3601.2</ele>
        <time>2015-09-02T07:21:53Z</time>
      </trkpt>
      <trkpt lat="33.91975" lon="77.36">
        <ele>3601.2</ele>
        <time>2015-09-02T07:21:56Z</time>
      </trkpt>
      <trkpt lat="33.91974" lon="77.36006">
        <ele>3602</ele>
        <time>2015-09-02T07:22:03Z</time>
      </trkpt>
      <trkpt lat="33.9197" lon="77.36009">
        <ele>3602.2</ele>
        <time>2015-09-02T07:22:06Z</time>
      </trkpt>
      <trkpt lat="33.9196" lon="77.36018">
        <ele>3602.6</ele>
        <time>2015-09-02T07:22:30Z</time>
      </trkpt>
      <trkpt lat="33.91956" lon="77.36019">
        <ele>3603</ele>
        <time>2015-09-02T07:22:33Z</time>
      </trkpt>
      <trkpt lat="33.91943" lon="77.36033">
        <ele>3603.6</ele>
        <time>2015-09-02T07:22:49Z</time>
      </trkpt>
      <trkpt lat="33.91939" lon="77.36049">
        <ele>3604</ele>
        <time>2015-09-02T07:23:02Z</time>
      </trkpt>
      <trkpt lat="33.91938" lon="77.36052">
        <ele>3604</ele>
        <time>2015-09-02T07:23:05Z</time>
      </trkpt>
      <trkpt lat="33.91929" lon="77.36056">
        <ele>3604.2</ele>
        <time>2015-09-02T07:23:14Z</time>
      </trkpt>
      <trkpt lat="33.91914" lon="77.36065">
        <ele>3604.8</ele>
        <time>2015-09-02T07:23:27Z</time>
      </trkpt>
      <trkpt lat="33.91915" lon="77.36068">
        <ele>3604.8</ele>
        <time>2015-09-02T07:23:29Z</time>
      </trkpt>
      <trkpt lat="33.91913" lon="77.36072">
        <ele>3605</ele>
        <time>2015-09-02T07:23:35Z</time>
      </trkpt>
      <trkpt lat="33.91911" lon="77.36073">
        <ele>3605</ele>
        <time>2015-09-02T07:23:37Z</time>
      </trkpt>
      <trkpt lat="33.91911" lon="77.36074">
        <ele>3605.2</ele>
        <time>2015-09-02T07:23:38Z</time>
      </trkpt>
      <trkpt lat="33.9191" lon="77.36078">
        <ele>3605.2</ele>
        <time>2015-09-02T07:23:42Z</time>
      </trkpt>
      <trkpt lat="33.91907" lon="77.36084">
        <ele>3605.6</ele>
        <time>2015-09-02T07:23:51Z</time>
      </trkpt>
      <trkpt lat="33.91902" lon="77.36088">
        <ele>3605.8</ele>
        <time>2015-09-02T07:23:58Z</time>
      </trkpt>
      <trkpt lat="33.919" lon="77.36093">
        <ele>3605.8</ele>
        <time>2015-09-02T07:24:04Z</time>
      </trkpt>
      <trkpt lat="33.91898" lon="77.36098">
        <ele>3605.6</ele>
        <time>2015-09-02T07:24:07Z</time>
      </trkpt>
      <trkpt lat="33.91892" lon="77.36095">
        <ele>3605.2</ele>
        <time>2015-09-02T07:24:48Z</time>
      </trkpt>
      <trkpt lat="33.91885" lon="77.36094">
        <ele>3605.2</ele>
        <time>2015-09-02T07:24:59Z</time>
      </trkpt>
      <trkpt lat="33.91882" lon="77.36093">
        <ele>3605</ele>
        <time>2015-09-02T07:25:02Z</time>
      </trkpt>
      <trkpt lat="33.9188" lon="77.36093">
        <ele>3605.2</ele>
        <time>2015-09-02T07:25:05Z</time>
      </trkpt>
      <trkpt lat="33.91882" lon="77.36096">
        <ele>3605.6</ele>
        <time>2015-09-02T07:25:56Z</time>
      </trkpt>
      <trkpt lat="33.9188" lon="77.36095">
        <ele>3605.6</ele>
        <time>2015-09-02T07:25:57Z</time>
      </trkpt>
      <trkpt lat="33.91876" lon="77.36093">
        <ele>3605.6</ele>
        <time>2015-09-02T07:25:59Z</time>
      </trkpt>
      <trkpt lat="33.91875" lon="77.36094">
        <ele>3605.8</ele>
        <time>2015-09-02T07:26:01Z</time>
      </trkpt>
      <trkpt lat="33.91883" lon="77.36098">
        <ele>3605.6</ele>
        <time>2015-09-02T07:26:21Z</time>
      </trkpt>
      <trkpt lat="33.91884" lon="77.36093">
        <ele>3605.4</ele>
        <time>2015-09-02T07:26:35Z</time>
      </trkpt>
      <trkpt lat="33.91889" lon="77.36099">
        <ele>3605.2</ele>
        <time>2015-09-02T07:26:47Z</time>
      </trkpt>
      <trkpt lat="33.91884" lon="77.36095">
        <ele>3605.4</ele>
        <time>2015-09-02T07:26:52Z</time>
      </trkpt>
      <trkpt lat="33.9188" lon="77.36094">
        <ele>3605.4</ele>
        <time>2015-09-02T07:26:54Z</time>
      </trkpt>
      <trkpt lat="33.9187" lon="77.36097">
        <ele>3605.4</ele>
        <time>2015-09-02T07:26:58Z</time>
      </trkpt>
      <trkpt lat="33.91873" lon="77.36103">
        <ele>3605.6</ele>
        <time>2015-09-02T07:27:02Z</time>
      </trkpt>
      <trkpt lat="33.91876" lon="77.36103">
        <ele>3605.6</ele>
        <time>2015-09-02T07:27:03Z</time>
      </trkpt>
      <trkpt lat="33.91887" lon="77.36102">
        <ele>3605.8</ele>
        <time>2015-09-02T07:27:08Z</time>
      </trkpt>
      <trkpt lat="33.91878" lon="77.36097">
        <ele>3605.4</ele>
        <time>2015-09-02T07:27:15Z</time>
      </trkpt>
      <trkpt lat="33.9188" lon="77.36098">
        <ele>3605.2</ele>
        <time>2015-09-02T07:27:19Z</time>
      </trkpt>
      <trkpt lat="33.9188" lon="77.36098">
        <ele>3605.4</ele>
        <time>2015-09-02T07:27:22Z</time>
      </trkpt>
      <trkpt lat="33.91882" lon="77.36094">
        <ele>3605.8</ele>
        <time>2015-09-02T07:27:34Z</time>
      </trkpt>
      <trkpt lat="33.91883" lon="77.36095">
        <ele>3605.8</ele>
        <time>2015-09-02T07:27:37Z</time>
      </trkpt>
      <trkpt lat="33.91887" lon="77.36095">
        <ele>3605.4</ele>
        <time>2015-09-02T07:27:43Z</time>
      </trkpt>
      <trkpt lat="33.91891" lon="77.361">
        <ele>3605.4</ele>
        <time>2015-09-02T07:27:45Z</time>
      </trkpt>
      <trkpt lat="33.91891" lon="77.36104">
        <ele>3605.6</ele>
        <time>2015-09-02T07:27:48Z</time>
      </trkpt>
      <trkpt lat="33.91888" lon="77.36104">
        <ele>3605.6</ele>
        <time>2015-09-02T07:28:12Z</time>
      </trkpt>
      <trkpt lat="33.91891" lon="77.36104">
        <ele>3605.6</ele>
        <time>2015-09-02T07:28:15Z</time>
      </trkpt>
      <trkpt lat="33.91894" lon="77.36101">
        <ele>3605.6</ele>
        <time>2015-09-02T07:28:28Z</time>
      </trkpt>
      <trkpt lat="33.91865" lon="77.36091">
        <ele>3605.8</ele>
        <time>2015-09-02T07:28:32Z</time>
      </trkpt>
      <trkpt lat="33.91857" lon="77.36092">
        <ele>3606.2</ele>
        <time>2015-09-02T07:28:42Z</time>
      </trkpt>
      <trkpt lat="33.91857" lon="77.36095">
        <ele>3606.2</ele>
        <time>2015-09-02T07:28:46Z</time>
      </trkpt>
      <trkpt lat="33.91864" lon="77.36098">
        <ele>3606</ele>
        <time>2015-09-02T07:28:50Z</time>
      </trkpt>
      <trkpt lat="33.91865" lon="77.36096">
        <ele>3606</ele>
        <time>2015-09-02T07:28:53Z</time>
      </trkpt>
      <trkpt lat="33.91874" lon="77.36098">
        <ele>3605.8</ele>
        <time>2015-09-02T07:29:05Z</time>
      </trkpt>
      <trkpt lat="33.9186" lon="77.36091">
        <ele>3606.4</ele>
        <time>2015-09-02T07:29:23Z</time>
      </trkpt>
      <trkpt lat="33.91851" lon="77.36094">
        <ele>3606.4</ele>
        <time>2015-09-02T07:29:28Z</time>
      </trkpt>
      <trkpt lat="33.91852" lon="77.36093">
        <ele>3606.2</ele>
        <time>2015-09-02T07:29:32Z</time>
      </trkpt>
      <trkpt lat="33.91856" lon="77.36092">
        <ele>3606</ele>
        <time>2015-09-02T07:29:36Z</time>
      </trkpt>
      <trkpt lat="33.91874" lon="77.36094">
        <ele>3606.4</ele>
        <time>2015-09-02T07:29:51Z</time>
      </trkpt>
      <trkpt lat="33.91876" lon="77.36093">
        <ele>3606.4</ele>
        <time>2015-09-02T07:29:54Z</time>
      </trkpt>
      <trkpt lat="33.91875" lon="77.36099">
        <ele>3606.2</ele>
        <time>2015-09-02T07:29:58Z</time>
      </trkpt>
      <trkpt lat="33.91877" lon="77.361">
        <ele>3606.2</ele>
        <time>2015-09-02T07:30:00Z</time>
      </trkpt>
      <trkpt lat="33.91878" lon="77.361">
        <ele>3606.2</ele>
        <time>2015-09-02T07:30:03Z</time>
      </trkpt>
      <trkpt lat="33.91882" lon="77.36102">
        <ele>3606.2</ele>
        <time>2015-09-02T07:30:08Z</time>
      </trkpt>
      <trkpt lat="33.91888" lon="77.36101">
        <ele>3606.4</ele>
        <time>2015-09-02T07:30:14Z</time>
      </trkpt>
      <trkpt lat="33.91889" lon="77.36101">
        <ele>3606.4</ele>
        <time>2015-09-02T07:30:16Z</time>
      </trkpt>
      <trkpt lat="33.91879" lon="77.36104">
        <ele>3606</ele>
        <time>2015-09-02T07:30:31Z</time>
      </trkpt>
      <trkpt lat="33.91876" lon="77.36106">
        <ele>3606.2</ele>
        <time>2015-09-02T07:30:34Z</time>
      </trkpt>
      <trkpt lat="33.91881" lon="77.36111">
        <ele>3606.6</ele>
        <time>2015-09-02T07:30:46Z</time>
      </trkpt>
      <trkpt lat="33.91877" lon="77.36112">
        <ele>3606.6</ele>
        <time>2015-09-02T07:31:40Z</time>
      </trkpt>
      <trkpt lat="33.91871" lon="77.36108">
        <ele>3606.6</ele>
        <time>2015-09-02T07:31:45Z</time>
      </trkpt>
      <trkpt lat="33.91873" lon="77.36115">
        <ele>3606.6</ele>
        <time>2015-09-02T07:31:49Z</time>
      </trkpt>
      <trkpt lat="33.91881" lon="77.36125">
        <ele>3606.8</ele>
        <time>2015-09-02T07:32:05Z</time>
      </trkpt>
      <trkpt lat="33.91882" lon="77.36126">
        <ele>3607</ele>
        <time>2015-09-02T07:32:07Z</time>
      </trkpt>
      <trkpt lat="33.91882" lon="77.36126">
        <ele>3607.2</ele>
        <time>2015-09-02T07:32:12Z</time>
      </trkpt>
      <trkpt lat="33.91875" lon="77.36129">
        <ele>3607.8</ele>
        <time>2015-09-02T07:32:33Z</time>
      </trkpt>
      <trkpt lat="33.91886" lon="77.36133">
        <ele>3608.2</ele>
        <time>2015-09-02T07:33:13Z</time>
      </trkpt>
      <trkpt lat="33.91889" lon="77.36125">
        <ele>3608.4</ele>
        <time>2015-09-02T07:33:20Z</time>
      </trkpt>
      <trkpt lat="33.91889" lon="77.36123">
        <ele>3608.6</ele>
        <time>2015-09-02T07:33:22Z</time>
      </trkpt>
      <trkpt lat="33.91893" lon="77.36119">
        <ele>3608.8</ele>
        <time>2015-09-02T07:33:25Z</time>
      </trkpt>
      <trkpt lat="33.91892" lon="77.36121">
        <ele>3608.8</ele>
        <time>2015-09-02T07:34:15Z</time>
      </trkpt>
      <trkpt lat="33.91891" lon="77.36124">
        <ele>3608.8</ele>
        <time>2015-09-02T07:34:17Z</time>
      </trkpt>
      <trkpt lat="33.9189" lon="77.36127">
        <ele>3609</ele>
        <time>2015-09-02T07:34:20Z</time>
      </trkpt>
      <trkpt lat="33.91891" lon="77.36116">
        <ele>3609.2</ele>
        <time>2015-09-02T07:34:32Z</time>
      </trkpt>
      <trkpt lat="33.91894" lon="77.36116">
        <ele>3609.2</ele>
        <time>2015-09-02T07:34:34Z</time>
      </trkpt>
      <trkpt lat="33.91896" lon="77.36115">
        <ele>3609.4</ele>
        <time>2015-09-02T07:34:37Z</time>
      </trkpt>
      <trkpt lat="33.91891" lon="77.36111">
        <ele>3609.8</ele>
        <time>2015-09-02T07:35:22Z</time>
      </trkpt>
      <trkpt lat="33.91892" lon="77.36106">
        <ele>3609.6</ele>
        <time>2015-09-02T07:36:01Z</time>
      </trkpt>
      <trkpt lat="33.91891" lon="77.36105">
        <ele>3609.8</ele>
        <time>2015-09-02T07:36:15Z</time>
      </trkpt>
      <trkpt lat="33.91893" lon="77.36113">
        <ele>3609.8</ele>
        <time>2015-09-02T07:36:23Z</time>
      </trkpt>
      <trkpt lat="33.91894" lon="77.36113">
        <ele>3610.2</ele>
        <time>2015-09-02T07:36:31Z</time>
      </trkpt>
      <trkpt lat="33.91896" lon="77.36106">
        <ele>3609.8</ele>
        <time>2015-09-02T07:36:38Z</time>
      </trkpt>
      <trkpt lat="33.91894" lon="77.361">
        <ele>3610.2</ele>
        <time>2015-09-02T07:36:44Z</time>
      </trkpt>
      <trkpt lat="33.91891" lon="77.36105">
        <ele>3610.4</ele>
        <time>2015-09-02T07:36:49Z</time>
      </trkpt>
      <trkpt lat="33.91892" lon="77.36113">
        <ele>3610</ele>
        <time>2015-09-02T07:36:53Z</time>
      </trkpt>
      <trkpt lat="33.91902" lon="77.36119">
        <ele>3611.4</ele>
        <time>2015-09-02T07:37:29Z</time>
      </trkpt>
      <trkpt lat="33.91897" lon="77.36125">
        <ele>3612.4</ele>
        <time>2015-09-02T07:37:41Z</time>
      </trkpt>
      <trkpt lat="33.91894" lon="77.36125">
        <ele>3612.8</ele>
        <time>2015-09-02T07:37:44Z</time>
      </trkpt>
      <trkpt lat="33.91895" lon="77.36123">
        <ele>3611.8</ele>
        <time>2015-09-02T07:38:05Z</time>
      </trkpt>
      <trkpt lat="33.91881" lon="77.36131">
        <ele>3613.6</ele>
        <time>2015-09-02T07:38:27Z</time>
      </trkpt>
      <trkpt lat="33.91877" lon="77.36132">
        <ele>3613.6</ele>
        <time>2015-09-02T07:38:31Z</time>
      </trkpt>
      <trkpt lat="33.91869" lon="77.36143">
        <ele>3613.4</ele>
        <time>2015-09-02T07:38:48Z</time>
      </trkpt>
      <trkpt lat="33.91867" lon="77.36155">
        <ele>3614.4</ele>
        <time>2015-09-02T07:38:59Z</time>
      </trkpt>
      <trkpt lat="33.91866" lon="77.36158">
        <ele>3614.4</ele>
        <time>2015-09-02T07:39:02Z</time>
      </trkpt>
      <trkpt lat="33.91866" lon="77.36158">
        <ele>3614.6</ele>
        <time>2015-09-02T07:39:03Z</time>
      </trkpt>
      <trkpt lat="33.91868" lon="77.36162">
        <ele>3615</ele>
        <time>2015-09-02T07:39:07Z</time>
      </trkpt>
      <trkpt lat="33.91868" lon="77.36165">
        <ele>3615.2</ele>
        <time>2015-09-02T07:39:09Z</time>
      </trkpt>
      <trkpt lat="33.91868" lon="77.36168">
        <ele>3615.2</ele>
        <time>2015-09-02T07:39:11Z</time>
      </trkpt>
      <trkpt lat="33.91867" lon="77.3617">
        <ele>3615.6</ele>
        <time>2015-09-02T07:39:14Z</time>
      </trkpt>
      <trkpt lat="33.91868" lon="77.36182">
        <ele>3616.8</ele>
        <time>2015-09-02T07:39:28Z</time>
      </trkpt>
      <trkpt lat="33.91871" lon="77.3619">
        <ele>3617.6</ele>
        <time>2015-09-02T07:39:37Z</time>
      </trkpt>
      <trkpt lat="33.91871" lon="77.36195">
        <ele>3617.8</ele>
        <time>2015-09-02T07:39:42Z</time>
      </trkpt>
      <trkpt lat="33.91872" lon="77.36196">
        <ele>3617.8</ele>
        <time>2015-09-02T07:39:44Z</time>
      </trkpt>
      <trkpt lat="33.91869" lon="77.36199">
        <ele>3618.2</ele>
        <time>2015-09-02T07:39:52Z</time>
      </trkpt>
      <trkpt lat="33.91868" lon="77.36203">
        <ele>3619</ele>
        <time>2015-09-02T07:40:03Z</time>
      </trkpt>
      <trkpt lat="33.9187" lon="77.36206">
        <ele>3620</ele>
        <time>2015-09-02T07:40:09Z</time>
      </trkpt>
      <trkpt lat="33.91869" lon="77.36211">
        <ele>3620.2</ele>
        <time>2015-09-02T07:40:14Z</time>
      </trkpt>
      <trkpt lat="33.91868" lon="77.36222">
        <ele>3620.8</ele>
        <time>2015-09-02T07:40:24Z</time>
      </trkpt>
      <trkpt lat="33.91864" lon="77.36231">
        <ele>3621</ele>
        <time>2015-09-02T07:40:32Z</time>
      </trkpt>
      <trkpt lat="33.91867" lon="77.36233">
        <ele>3622</ele>
        <time>2015-09-02T07:40:43Z</time>
      </trkpt>
      <trkpt lat="33.91871" lon="77.36242">
        <ele>3622.8</ele>
        <time>2015-09-02T07:40:52Z</time>
      </trkpt>
      <trkpt lat="33.91872" lon="77.36243">
        <ele>3623</ele>
        <time>2015-09-02T07:40:54Z</time>
      </trkpt>
      <trkpt lat="33.91872" lon="77.36245">
        <ele>3623</ele>
        <time>2015-09-02T07:40:55Z</time>
      </trkpt>
      <trkpt lat="33.91872" lon="77.36255">
        <ele>3624.2</ele>
        <time>2015-09-02T07:41:06Z</time>
      </trkpt>
      <trkpt lat="33.91871" lon="77.3626">
        <ele>3624.8</ele>
        <time>2015-09-02T07:41:11Z</time>
      </trkpt>
      <trkpt lat="33.9187" lon="77.36261">
        <ele>3625</ele>
        <time>2015-09-02T07:41:13Z</time>
      </trkpt>
      <trkpt lat="33.91869" lon="77.36264">
        <ele>3625.2</ele>
        <time>2015-09-02T07:41:16Z</time>
      </trkpt>
      <trkpt lat="33.91869" lon="77.36266">
        <ele>3625.4</ele>
        <time>2015-09-02T07:41:19Z</time>
      </trkpt>
      <trkpt lat="33.91871" lon="77.36269">
        <ele>3625.6</ele>
        <time>2015-09-02T07:41:22Z</time>
      </trkpt>
      <trkpt lat="33.91871" lon="77.36275">
        <ele>3626.2</ele>
        <time>2015-09-02T07:41:29Z</time>
      </trkpt>
      <trkpt lat="33.91875" lon="77.36281">
        <ele>3627.2</ele>
        <time>2015-09-02T07:41:39Z</time>
      </trkpt>
      <trkpt lat="33.91879" lon="77.36285">
        <ele>3627.2</ele>
        <time>2015-09-02T07:41:43Z</time>
      </trkpt>
      <trkpt lat="33.91888" lon="77.36285">
        <ele>3627.6</ele>
        <time>2015-09-02T07:41:56Z</time>
      </trkpt>
      <trkpt lat="33.91889" lon="77.36289">
        <ele>3627.6</ele>
        <time>2015-09-02T07:41:58Z</time>
      </trkpt>
      <trkpt lat="33.91888" lon="77.36293">
        <ele>3627.6</ele>
        <time>2015-09-02T07:42:02Z</time>
      </trkpt>
      <trkpt lat="33.91887" lon="77.363">
        <ele>3627.4</ele>
        <time>2015-09-02T07:42:07Z</time>
      </trkpt>
      <trkpt lat="33.91882" lon="77.36309">
        <ele>3628.4</ele>
        <time>2015-09-02T07:42:18Z</time>
      </trkpt>
      <trkpt lat="33.91879" lon="77.36332">
        <ele>3628.4</ele>
        <time>2015-09-02T07:42:36Z</time>
      </trkpt>
      <trkpt lat="33.91879" lon="77.36344">
        <ele>3627.2</ele>
        <time>2015-09-02T07:42:47Z</time>
      </trkpt>
      <trkpt lat="33.91885" lon="77.3636">
        <ele>3626.2</ele>
        <time>2015-09-02T07:42:59Z</time>
      </trkpt>
      <trkpt lat="33.91888" lon="77.36369">
        <ele>3626.4</ele>
        <time>2015-09-02T07:43:07Z</time>
      </trkpt>
      <trkpt lat="33.91887" lon="77.36376">
        <ele>3626.2</ele>
        <time>2015-09-02T07:43:13Z</time>
      </trkpt>
      <trkpt lat="33.91885" lon="77.36384">
        <ele>3626.2</ele>
        <time>2015-09-02T07:43:18Z</time>
      </trkpt>
      <trkpt lat="33.91876" lon="77.36403">
        <ele>3625.2</ele>
        <time>2015-09-02T07:43:34Z</time>
      </trkpt>
      <trkpt lat="33.91872" lon="77.36412">
        <ele>3625.2</ele>
        <time>2015-09-02T07:43:38Z</time>
      </trkpt>
      <trkpt lat="33.91868" lon="77.36424">
        <ele>3625</ele>
        <time>2015-09-02T07:43:48Z</time>
      </trkpt>
      <trkpt lat="33.91866" lon="77.36427">
        <ele>3625.4</ele>
        <time>2015-09-02T07:43:51Z</time>
      </trkpt>
      <trkpt lat="33.91863" lon="77.3643">
        <ele>3625.8</ele>
        <time>2015-09-02T07:43:55Z</time>
      </trkpt>
      <trkpt lat="33.91862" lon="77.36431">
        <ele>3626.2</ele>
        <time>2015-09-02T07:44:01Z</time>
      </trkpt>
      <trkpt lat="33.91858" lon="77.3644">
        <ele>3626.8</ele>
        <time>2015-09-02T07:44:11Z</time>
      </trkpt>
      <trkpt lat="33.9186" lon="77.36441">
        <ele>3627.2</ele>
        <time>2015-09-02T07:44:15Z</time>
      </trkpt>
      <trkpt lat="33.91859" lon="77.36449">
        <ele>3627.8</ele>
        <time>2015-09-02T07:44:22Z</time>
      </trkpt>
      <trkpt lat="33.91857" lon="77.36444">
        <ele>3628.2</ele>
        <time>2015-09-02T07:44:30Z</time>
      </trkpt>
      <trkpt lat="33.91855" lon="77.36451">
        <ele>3629.2</ele>
        <time>2015-09-02T07:44:35Z</time>
      </trkpt>
      <trkpt lat="33.91855" lon="77.36453">
        <ele>3629.2</ele>
        <time>2015-09-02T07:44:36Z</time>
      </trkpt>
      <trkpt lat="33.91855" lon="77.36454">
        <ele>3629.4</ele>
        <time>2015-09-02T07:44:37Z</time>
      </trkpt>
      <trkpt lat="33.91853" lon="77.36458">
        <ele>3629.2</ele>
        <time>2015-09-02T07:44:41Z</time>
      </trkpt>
      <trkpt lat="33.91848" lon="77.36465">
        <ele>3628.6</ele>
        <time>2015-09-02T07:44:47Z</time>
      </trkpt>
      <trkpt lat="33.91848" lon="77.36469">
        <ele>3628.6</ele>
        <time>2015-09-02T07:44:49Z</time>
      </trkpt>
      <trkpt lat="33.91852" lon="77.36478">
        <ele>3628.8</ele>
        <time>2015-09-02T07:44:57Z</time>
      </trkpt>
      <trkpt lat="33.91853" lon="77.3648">
        <ele>3629</ele>
        <time>2015-09-02T07:44:59Z</time>
      </trkpt>
      <trkpt lat="33.91858" lon="77.36487">
        <ele>3629.6</ele>
        <time>2015-09-02T07:45:12Z</time>
      </trkpt>
      <trkpt lat="33.91859" lon="77.36488">
        <ele>3629.4</ele>
        <time>2015-09-02T07:45:14Z</time>
      </trkpt>
      <trkpt lat="33.91857" lon="77.36506">
        <ele>3628.6</ele>
        <time>2015-09-02T07:45:29Z</time>
      </trkpt>
      <trkpt lat="33.91859" lon="77.36509">
        <ele>3628.8</ele>
        <time>2015-09-02T07:45:31Z</time>
      </trkpt>
      <trkpt lat="33.9186" lon="77.36512">
        <ele>3629</ele>
        <time>2015-09-02T07:45:33Z</time>
      </trkpt>
      <trkpt lat="33.9186" lon="77.36521">
        <ele>3628.6</ele>
        <time>2015-09-02T07:45:43Z</time>
      </trkpt>
      <trkpt lat="33.91859" lon="77.36522">
        <ele>3628.2</ele>
        <time>2015-09-02T07:45:45Z</time>
      </trkpt>
      <trkpt lat="33.91859" lon="77.36528">
        <ele>3628.6</ele>
        <time>2015-09-02T07:45:51Z</time>
      </trkpt>
      <trkpt lat="33.91855" lon="77.36537">
        <ele>3629.2</ele>
        <time>2015-09-02T07:45:57Z</time>
      </trkpt>
      <trkpt lat="33.91852" lon="77.36538">
        <ele>3629.4</ele>
        <time>2015-09-02T07:46:00Z</time>
      </trkpt>
      <trkpt lat="33.9185" lon="77.36539">
        <ele>3629.4</ele>
        <time>2015-09-02T07:46:02Z</time>
      </trkpt>
      <trkpt lat="33.91849" lon="77.3654">
        <ele>3629.6</ele>
        <time>2015-09-02T07:46:04Z</time>
      </trkpt>
      <trkpt lat="33.91843" lon="77.36549">
        <ele>3629.4</ele>
        <time>2015-09-02T07:46:10Z</time>
      </trkpt>
      <trkpt lat="33.91841" lon="77.36549">
        <ele>3629.4</ele>
        <time>2015-09-02T07:46:13Z</time>
      </trkpt>
      <trkpt lat="33.91833" lon="77.36564">
        <ele>3629.6</ele>
        <time>2015-09-02T07:46:35Z</time>
      </trkpt>
      <trkpt lat="33.91825" lon="77.36571">
        <ele>3629.8</ele>
        <time>2015-09-02T07:46:48Z</time>
      </trkpt>
      <trkpt lat="33.91821" lon="77.36571">
        <ele>3630</ele>
        <time>2015-09-02T07:46:52Z</time>
      </trkpt>
      <trkpt lat="33.91815" lon="77.36575">
        <ele>3630.2</ele>
        <time>2015-09-02T07:46:57Z</time>
      </trkpt>
      <trkpt lat="33.91815" lon="77.36578">
        <ele>3630.4</ele>
        <time>2015-09-02T07:46:58Z</time>
      </trkpt>
      <trkpt lat="33.91813" lon="77.36589">
        <ele>3630.6</ele>
        <time>2015-09-02T07:47:05Z</time>
      </trkpt>
      <trkpt lat="33.91806" lon="77.36608">
        <ele>3630.6</ele>
        <time>2015-09-02T07:47:17Z</time>
      </trkpt>
      <trkpt lat="33.91804" lon="77.3661">
        <ele>3630.8</ele>
        <time>2015-09-02T07:47:20Z</time>
      </trkpt>
      <trkpt lat="33.91799" lon="77.36604">
        <ele>3631.4</ele>
        <time>2015-09-02T07:47:25Z</time>
      </trkpt>
      <trkpt lat="33.91795" lon="77.36599">
        <ele>3631.8</ele>
        <time>2015-09-02T07:47:29Z</time>
      </trkpt>
      <trkpt lat="33.91794" lon="77.36599">
        <ele>3631.8</ele>
        <time>2015-09-02T07:47:32Z</time>
      </trkpt>
      <trkpt lat="33.91796" lon="77.36608">
        <ele>3632.2</ele>
        <time>2015-09-02T07:47:35Z</time>
      </trkpt>
      <trkpt lat="33.91797" lon="77.36611">
        <ele>3632.4</ele>
        <time>2015-09-02T07:47:36Z</time>
      </trkpt>
      <trkpt lat="33.91799" lon="77.36617">
        <ele>3632.8</ele>
        <time>2015-09-02T07:47:40Z</time>
      </trkpt>
      <trkpt lat="33.918" lon="77.36626">
        <ele>3633.4</ele>
        <time>2015-09-02T07:47:43Z</time>
      </trkpt>
      <trkpt lat="33.91801" lon="77.36635">
        <ele>3634.2</ele>
        <time>2015-09-02T07:47:48Z</time>
      </trkpt>
      <trkpt lat="33.91801" lon="77.36637">
        <ele>3634.4</ele>
        <time>2015-09-02T07:47:50Z</time>
      </trkpt>
      <trkpt lat="33.91799" lon="77.36639">
        <ele>3634.8</ele>
        <time>2015-09-02T07:47:52Z</time>
      </trkpt>
      <trkpt lat="33.91796" lon="77.36641">
        <ele>3635.6</ele>
        <time>2015-09-02T07:47:57Z</time>
      </trkpt>
      <trkpt lat="33.91793" lon="77.36643">
        <ele>3636</ele>
        <time>2015-09-02T07:48:00Z</time>
      </trkpt>
      <trkpt lat="33.91789" lon="77.36645">
        <ele>3636.6</ele>
        <time>2015-09-02T07:48:05Z</time>
      </trkpt>
      <trkpt lat="33.91786" lon="77.36646">
        <ele>3637</ele>
        <time>2015-09-02T07:48:08Z</time>
      </trkpt>
      <trkpt lat="33.91785" lon="77.36647">
        <ele>3637.4</ele>
        <time>2015-09-02T07:48:10Z</time>
      </trkpt>
      <trkpt lat="33.91784" lon="77.36649">
        <ele>3637.6</ele>
        <time>2015-09-02T07:48:13Z</time>
      </trkpt>
      <trkpt lat="33.91777" lon="77.36658">
        <ele>3638.6</ele>
        <time>2015-09-02T07:48:29Z</time>
      </trkpt>
      <trkpt lat="33.91774" lon="77.36673">
        <ele>3639.8</ele>
        <time>2015-09-02T07:48:44Z</time>
      </trkpt>
      <trkpt lat="33.91773" lon="77.36679">
        <ele>3640.8</ele>
        <time>2015-09-02T07:48:52Z</time>
      </trkpt>
      <trkpt lat="33.91773" lon="77.36692">
        <ele>3642</ele>
        <time>2015-09-02T07:49:05Z</time>
      </trkpt>
      <trkpt lat="33.91771" lon="77.36697">
        <ele>3642.6</ele>
        <time>2015-09-02T07:49:10Z</time>
      </trkpt>
      <trkpt lat="33.9177" lon="77.36699">
        <ele>3642.8</ele>
        <time>2015-09-02T07:49:12Z</time>
      </trkpt>
      <trkpt lat="33.91766" lon="77.36711">
        <ele>3643</ele>
        <time>2015-09-02T07:49:27Z</time>
      </trkpt>
      <trkpt lat="33.91765" lon="77.36717">
        <ele>3643</ele>
        <time>2015-09-02T07:49:32Z</time>
      </trkpt>
      <trkpt lat="33.91765" lon="77.36721">
        <ele>3643</ele>
        <time>2015-09-02T07:49:36Z</time>
      </trkpt>
      <trkpt lat="33.91762" lon="77.36733">
        <ele>3643.6</ele>
        <time>2015-09-02T07:49:48Z</time>
      </trkpt>
      <trkpt lat="33.9176" lon="77.36738">
        <ele>3644</ele>
        <time>2015-09-02T07:49:52Z</time>
      </trkpt>
      <trkpt lat="33.91756" lon="77.36747">
        <ele>3644.2</ele>
        <time>2015-09-02T07:50:05Z</time>
      </trkpt>
      <trkpt lat="33.91752" lon="77.36751">
        <ele>3645.2</ele>
        <time>2015-09-02T07:50:24Z</time>
      </trkpt>
      <trkpt lat="33.91756" lon="77.36756">
        <ele>3645.2</ele>
        <time>2015-09-02T07:50:27Z</time>
      </trkpt>
      <trkpt lat="33.91751" lon="77.36753">
        <ele>3645.2</ele>
        <time>2015-09-02T07:51:04Z</time>
      </trkpt>
      <trkpt lat="33.91748" lon="77.36749">
        <ele>3645</ele>
        <time>2015-09-02T07:51:08Z</time>
      </trkpt>
      <trkpt lat="33.91748" lon="77.36747">
        <ele>3645.2</ele>
        <time>2015-09-02T07:51:10Z</time>
      </trkpt>
      <trkpt lat="33.91753" lon="77.36754">
        <ele>3645.4</ele>
        <time>2015-09-02T07:51:25Z</time>
      </trkpt>
      <trkpt lat="33.91748" lon="77.3675">
        <ele>3645.8</ele>
        <time>2015-09-02T07:51:38Z</time>
      </trkpt>
      <trkpt lat="33.9175" lon="77.36753">
        <ele>3645.2</ele>
        <time>2015-09-02T07:51:41Z</time>
      </trkpt>
      <trkpt lat="33.91751" lon="77.36754">
        <ele>3645</ele>
        <time>2015-09-02T07:51:43Z</time>
      </trkpt>
      <trkpt lat="33.91747" lon="77.36762">
        <ele>3645.8</ele>
        <time>2015-09-02T07:51:56Z</time>
      </trkpt>
      <trkpt lat="33.91747" lon="77.36763">
        <ele>3646.2</ele>
        <time>2015-09-02T07:51:57Z</time>
      </trkpt>
      <trkpt lat="33.91745" lon="77.36769">
        <ele>3646.6</ele>
        <time>2015-09-02T07:52:03Z</time>
      </trkpt>
      <trkpt lat="33.91745" lon="77.36773">
        <ele>3646.8</ele>
        <time>2015-09-02T07:52:06Z</time>
      </trkpt>
      <trkpt lat="33.91745" lon="77.36778">
        <ele>3646.6</ele>
        <time>2015-09-02T07:52:09Z</time>
      </trkpt>
      <trkpt lat="33.9174" lon="77.36786">
        <ele>3646.4</ele>
        <time>2015-09-02T07:52:19Z</time>
      </trkpt>
      <trkpt lat="33.91736" lon="77.3679">
        <ele>3646.6</ele>
        <time>2015-09-02T07:52:25Z</time>
      </trkpt>
      <trkpt lat="33.91727" lon="77.36809">
        <ele>3646.4</ele>
        <time>2015-09-02T07:52:41Z</time>
      </trkpt>
      <trkpt lat="33.91726" lon="77.3681">
        <ele>3646.6</ele>
        <time>2015-09-02T07:52:43Z</time>
      </trkpt>
      <trkpt lat="33.91724" lon="77.36812">
        <ele>3646.8</ele>
        <time>2015-09-02T07:52:46Z</time>
      </trkpt>
      <trkpt lat="33.91718" lon="77.3682">
        <ele>3647.2</ele>
        <time>2015-09-02T07:52:55Z</time>
      </trkpt>
      <trkpt lat="33.91715" lon="77.36826">
        <ele>3647.6</ele>
        <time>2015-09-02T07:53:01Z</time>
      </trkpt>
      <trkpt lat="33.91713" lon="77.36831">
        <ele>3648.4</ele>
        <time>2015-09-02T07:53:05Z</time>
      </trkpt>
      <trkpt lat="33.91714" lon="77.36833">
        <ele>3648.6</ele>
        <time>2015-09-02T07:53:07Z</time>
      </trkpt>
      <trkpt lat="33.91716" lon="77.36835">
        <ele>3649</ele>
        <time>2015-09-02T07:53:09Z</time>
      </trkpt>
      <trkpt lat="33.91717" lon="77.36838">
        <ele>3649.4</ele>
        <time>2015-09-02T07:53:12Z</time>
      </trkpt>
      <trkpt lat="33.91716" lon="77.36842">
        <ele>3649.8</ele>
        <time>2015-09-02T07:53:17Z</time>
      </trkpt>
      <trkpt lat="33.91715" lon="77.36846">
        <ele>3649.8</ele>
        <time>2015-09-02T07:53:20Z</time>
      </trkpt>
      <trkpt lat="33.91713" lon="77.36843">
        <ele>3650.4</ele>
        <time>2015-09-02T07:53:35Z</time>
      </trkpt>
      <trkpt lat="33.91713" lon="77.36845">
        <ele>3650.4</ele>
        <time>2015-09-02T07:53:36Z</time>
      </trkpt>
      <trkpt lat="33.91709" lon="77.36847">
        <ele>3650.4</ele>
        <time>2015-09-02T07:53:42Z</time>
      </trkpt>
      <trkpt lat="33.91704" lon="77.36849">
        <ele>3650.8</ele>
        <time>2015-09-02T07:53:46Z</time>
      </trkpt>
      <trkpt lat="33.91698" lon="77.36858">
        <ele>3650.8</ele>
        <time>2015-09-02T07:53:53Z</time>
      </trkpt>
      <trkpt lat="33.91688" lon="77.36873">
        <ele>3650</ele>
        <time>2015-09-02T07:54:07Z</time>
      </trkpt>
      <trkpt lat="33.91682" lon="77.36879">
        <ele>3649.4</ele>
        <time>2015-09-02T07:54:15Z</time>
      </trkpt>
      <trkpt lat="33.91678" lon="77.36883">
        <ele>3648.8</ele>
        <time>2015-09-02T07:54:21Z</time>
      </trkpt>
      <trkpt lat="33.91674" lon="77.36889">
        <ele>3648.6</ele>
        <time>2015-09-02T07:54:28Z</time>
      </trkpt>
      <trkpt lat="33.91674" lon="77.36893">
        <ele>3648.6</ele>
        <time>2015-09-02T07:54:30Z</time>
      </trkpt>
      <trkpt lat="33.91669" lon="77.36917">
        <ele>3648.2</ele>
        <time>2015-09-02T07:54:45Z</time>
      </trkpt>
      <trkpt lat="33.9166" lon="77.36937">
        <ele>3647.8</ele>
        <time>2015-09-02T07:55:01Z</time>
      </trkpt>
      <trkpt lat="33.91657" lon="77.36942">
        <ele>3648.8</ele>
        <time>2015-09-02T07:55:08Z</time>
      </trkpt>
      <trkpt lat="33.91642" lon="77.36955">
        <ele>3649.2</ele>
        <time>2015-09-02T07:55:21Z</time>
      </trkpt>
      <trkpt lat="33.91639" lon="77.36961">
        <ele>3649.2</ele>
        <time>2015-09-02T07:55:24Z</time>
      </trkpt>
      <trkpt lat="33.91632" lon="77.36965">
        <ele>3649</ele>
        <time>2015-09-02T07:55:33Z</time>
      </trkpt>
      <trkpt lat="33.91628" lon="77.36967">
        <ele>3649.2</ele>
        <time>2015-09-02T07:55:38Z</time>
      </trkpt>
      <trkpt lat="33.91627" lon="77.36968">
        <ele>3649.4</ele>
        <time>2015-09-02T07:55:39Z</time>
      </trkpt>
      <trkpt lat="33.91628" lon="77.36978">
        <ele>3650.6</ele>
        <time>2015-09-02T07:55:44Z</time>
      </trkpt>
      <trkpt lat="33.91618" lon="77.3698">
        <ele>3651.4</ele>
        <time>2015-09-02T07:55:55Z</time>
      </trkpt>
      <trkpt lat="33.91617" lon="77.36976">
        <ele>3651.4</ele>
        <time>2015-09-02T07:55:56Z</time>
      </trkpt>
      <trkpt lat="33.91616" lon="77.36974">
        <ele>3651.6</ele>
        <time>2015-09-02T07:55:57Z</time>
      </trkpt>
      <trkpt lat="33.91616" lon="77.36968">
        <ele>3651.6</ele>
        <time>2015-09-02T07:56:01Z</time>
      </trkpt>
      <trkpt lat="33.91616" lon="77.36962">
        <ele>3651.4</ele>
        <time>2015-09-02T07:56:15Z</time>
      </trkpt>
      <trkpt lat="33.91616" lon="77.36963">
        <ele>3651.4</ele>
        <time>2015-09-02T07:56:17Z</time>
      </trkpt>
      <trkpt lat="33.91629" lon="77.36982">
        <ele>3651.8</ele>
        <time>2015-09-02T07:56:32Z</time>
      </trkpt>
      <trkpt lat="33.91618" lon="77.36963">
        <ele>3652.6</ele>
        <time>2015-09-02T07:57:10Z</time>
      </trkpt>
      <trkpt lat="33.91619" lon="77.36977">
        <ele>3651.8</ele>
        <time>2015-09-02T07:57:44Z</time>
      </trkpt>
      <trkpt lat="33.91619" lon="77.3698">
        <ele>3651.6</ele>
        <time>2015-09-02T07:57:50Z</time>
      </trkpt>
      <trkpt lat="33.91618" lon="77.36986">
        <ele>3651.4</ele>
        <time>2015-09-02T07:57:56Z</time>
      </trkpt>
      <trkpt lat="33.91613" lon="77.37">
        <ele>3650.6</ele>
        <time>2015-09-02T07:58:06Z</time>
      </trkpt>
      <trkpt lat="33.91611" lon="77.37">
        <ele>3650.6</ele>
        <time>2015-09-02T07:58:08Z</time>
      </trkpt>
      <trkpt lat="33.91609" lon="77.37002">
        <ele>3650.4</ele>
        <time>2015-09-02T07:58:11Z</time>
      </trkpt>
      <trkpt lat="33.91604" lon="77.36998">
        <ele>3650.6</ele>
        <time>2015-09-02T07:58:15Z</time>
      </trkpt>
      <trkpt lat="33.91601" lon="77.36998">
        <ele>3651</ele>
        <time>2015-09-02T07:58:19Z</time>
      </trkpt>
      <trkpt lat="33.91596" lon="77.36998">
        <ele>3651.4</ele>
        <time>2015-09-02T07:58:24Z</time>
      </trkpt>
      <trkpt lat="33.91596" lon="77.36997">
        <ele>3651.4</ele>
        <time>2015-09-02T07:58:26Z</time>
      </trkpt>
      <trkpt lat="33.91593" lon="77.37013">
        <ele>3650.6</ele>
        <time>2015-09-02T07:58:35Z</time>
      </trkpt>
      <trkpt lat="33.91592" lon="77.37021">
        <ele>3650.4</ele>
        <time>2015-09-02T07:58:37Z</time>
      </trkpt>
      <trkpt lat="33.91589" lon="77.37042">
        <ele>3651</ele>
        <time>2015-09-02T07:58:47Z</time>
      </trkpt>
      <trkpt lat="33.91578" lon="77.37047">
        <ele>3651.4</ele>
        <time>2015-09-02T07:58:58Z</time>
      </trkpt>
      <trkpt lat="33.91575" lon="77.37042">
        <ele>3651.4</ele>
        <time>2015-09-02T07:59:01Z</time>
      </trkpt>
      <trkpt lat="33.9157" lon="77.37046">
        <ele>3651.2</ele>
        <time>2015-09-02T07:59:07Z</time>
      </trkpt>
      <trkpt lat="33.91567" lon="77.37047">
        <ele>3651</ele>
        <time>2015-09-02T07:59:11Z</time>
      </trkpt>
      <trkpt lat="33.91552" lon="77.37065">
        <ele>3651.6</ele>
        <time>2015-09-02T07:59:31Z</time>
      </trkpt>
      <trkpt lat="33.9155" lon="77.37069">
        <ele>3651.6</ele>
        <time>2015-09-02T07:59:33Z</time>
      </trkpt>
      <trkpt lat="33.9154" lon="77.37086">
        <ele>3652.6</ele>
        <time>2015-09-02T07:59:44Z</time>
      </trkpt>
      <trkpt lat="33.91537" lon="77.3709">
        <ele>3652.8</ele>
        <time>2015-09-02T07:59:48Z</time>
      </trkpt>
      <trkpt lat="33.9153" lon="77.37099">
        <ele>3653.6</ele>
        <time>2015-09-02T07:59:59Z</time>
      </trkpt>
      <trkpt lat="33.91529" lon="77.371">
        <ele>3653.8</ele>
        <time>2015-09-02T08:00:00Z</time>
      </trkpt>
      <trkpt lat="33.91526" lon="77.37109">
        <ele>3654.4</ele>
        <time>2015-09-02T08:00:07Z</time>
      </trkpt>
      <trkpt lat="33.91526" lon="77.37113">
        <ele>3654.6</ele>
        <time>2015-09-02T08:00:09Z</time>
      </trkpt>
      <trkpt lat="33.91526" lon="77.37115">
        <ele>3654.6</ele>
        <time>2015-09-02T08:00:10Z</time>
      </trkpt>
      <trkpt lat="33.91525" lon="77.37117">
        <ele>3655</ele>
        <time>2015-09-02T08:00:12Z</time>
      </trkpt>
      <trkpt lat="33.91519" lon="77.37104">
        <ele>3655</ele>
        <time>2015-09-02T08:00:14Z</time>
      </trkpt>
      <trkpt lat="33.91512" lon="77.37093">
        <ele>3655.6</ele>
        <time>2015-09-02T08:00:18Z</time>
      </trkpt>
      <trkpt lat="33.91511" lon="77.37091">
        <ele>3655.6</ele>
        <time>2015-09-02T08:00:20Z</time>
      </trkpt>
      <trkpt lat="33.91508" lon="77.37088">
        <ele>3656</ele>
        <time>2015-09-02T08:00:23Z</time>
      </trkpt>
      <trkpt lat="33.91505" lon="77.3709">
        <ele>3656.2</ele>
        <time>2015-09-02T08:00:26Z</time>
      </trkpt>
      <trkpt lat="33.91497" lon="77.37085">
        <ele>3656</ele>
        <time>2015-09-02T08:00:32Z</time>
      </trkpt>
      <trkpt lat="33.91498" lon="77.37095">
        <ele>3656</ele>
        <time>2015-09-02T08:00:35Z</time>
      </trkpt>
      <trkpt lat="33.91501" lon="77.37115">
        <ele>3656</ele>
        <time>2015-09-02T08:00:39Z</time>
      </trkpt>
      <trkpt lat="33.91501" lon="77.37137">
        <ele>3656.2</ele>
        <time>2015-09-02T08:00:48Z</time>
      </trkpt>
      <trkpt lat="33.915" lon="77.37141">
        <ele>3656.8</ele>
        <time>2015-09-02T08:00:52Z</time>
      </trkpt>
      <trkpt lat="33.91496" lon="77.37143">
        <ele>3657</ele>
        <time>2015-09-02T08:00:57Z</time>
      </trkpt>
      <trkpt lat="33.91495" lon="77.37143">
        <ele>3657.2</ele>
        <time>2015-09-02T08:00:58Z</time>
      </trkpt>
      <trkpt lat="33.91493" lon="77.37143">
        <ele>3657.2</ele>
        <time>2015-09-02T08:01:00Z</time>
      </trkpt>
      <trkpt lat="33.91491" lon="77.37143">
        <ele>3657.4</ele>
        <time>2015-09-02T08:01:02Z</time>
      </trkpt>
      <trkpt lat="33.91489" lon="77.37144">
        <ele>3657.4</ele>
        <time>2015-09-02T08:01:05Z</time>
      </trkpt>
      <trkpt lat="33.91488" lon="77.37146">
        <ele>3657.8</ele>
        <time>2015-09-02T08:01:08Z</time>
      </trkpt>
      <trkpt lat="33.91483" lon="77.37148">
        <ele>3658.8</ele>
        <time>2015-09-02T08:01:18Z</time>
      </trkpt>
      <trkpt lat="33.91476" lon="77.37152">
        <ele>3659.6</ele>
        <time>2015-09-02T08:01:25Z</time>
      </trkpt>
      <trkpt lat="33.91469" lon="77.3715">
        <ele>3659.6</ele>
        <time>2015-09-02T08:01:36Z</time>
      </trkpt>
      <trkpt lat="33.91464" lon="77.37155">
        <ele>3659.8</ele>
        <time>2015-09-02T08:01:45Z</time>
      </trkpt>
      <trkpt lat="33.91455" lon="77.37152">
        <ele>3659.6</ele>
        <time>2015-09-02T08:01:55Z</time>
      </trkpt>
      <trkpt lat="33.91439" lon="77.37142">
        <ele>3660.8</ele>
        <time>2015-09-02T08:02:09Z</time>
      </trkpt>
      <trkpt lat="33.91438" lon="77.37143">
        <ele>3661</ele>
        <time>2015-09-02T08:02:10Z</time>
      </trkpt>
      <trkpt lat="33.91438" lon="77.37152">
        <ele>3661.4</ele>
        <time>2015-09-02T08:02:15Z</time>
      </trkpt>
      <trkpt lat="33.91438" lon="77.3716">
        <ele>3662</ele>
        <time>2015-09-02T08:02:18Z</time>
      </trkpt>
      <trkpt lat="33.9144" lon="77.37175">
        <ele>3663</ele>
        <time>2015-09-02T08:02:27Z</time>
      </trkpt>
      <trkpt lat="33.91441" lon="77.37183">
        <ele>3664.2</ele>
        <time>2015-09-02T08:02:34Z</time>
      </trkpt>
      <trkpt lat="33.91433" lon="77.37188">
        <ele>3664.8</ele>
        <time>2015-09-02T08:02:46Z</time>
      </trkpt>
      <trkpt lat="33.9143" lon="77.37192">
        <ele>3664.4</ele>
        <time>2015-09-02T08:02:50Z</time>
      </trkpt>
      <trkpt lat="33.91426" lon="77.37189">
        <ele>3663.8</ele>
        <time>2015-09-02T08:02:57Z</time>
      </trkpt>
      <trkpt lat="33.91423" lon="77.37189">
        <ele>3663.6</ele>
        <time>2015-09-02T08:03:01Z</time>
      </trkpt>
      <trkpt lat="33.9141" lon="77.3719">
        <ele>3664.2</ele>
        <time>2015-09-02T08:03:12Z</time>
      </trkpt>
      <trkpt lat="33.91406" lon="77.37191">
        <ele>3664.6</ele>
        <time>2015-09-02T08:03:15Z</time>
      </trkpt>
      <trkpt lat="33.91404" lon="77.37193">
        <ele>3664.8</ele>
        <time>2015-09-02T08:03:17Z</time>
      </trkpt>
      <trkpt lat="33.91399" lon="77.37197">
        <ele>3665.2</ele>
        <time>2015-09-02T08:03:21Z</time>
      </trkpt>
      <trkpt lat="33.91399" lon="77.37202">
        <ele>3665.4</ele>
        <time>2015-09-02T08:03:22Z</time>
      </trkpt>
      <trkpt lat="33.91399" lon="77.3721">
        <ele>3665.6</ele>
        <time>2015-09-02T08:03:24Z</time>
      </trkpt>
      <trkpt lat="33.91383" lon="77.37215">
        <ele>3665.8</ele>
        <time>2015-09-02T08:03:49Z</time>
      </trkpt>
      <trkpt lat="33.91379" lon="77.37212">
        <ele>3666</ele>
        <time>2015-09-02T08:03:52Z</time>
      </trkpt>
      <trkpt lat="33.91377" lon="77.37215">
        <ele>3666.4</ele>
        <time>2015-09-02T08:03:55Z</time>
      </trkpt>
      <trkpt lat="33.91369" lon="77.37222">
        <ele>3667</ele>
        <time>2015-09-02T08:04:08Z</time>
      </trkpt>
      <trkpt lat="33.91363" lon="77.37221">
        <ele>3667.4</ele>
        <time>2015-09-02T08:04:16Z</time>
      </trkpt>
      <trkpt lat="33.9136" lon="77.37218">
        <ele>3667.8</ele>
        <time>2015-09-02T08:04:18Z</time>
      </trkpt>
      <trkpt lat="33.91356" lon="77.3722">
        <ele>3668.2</ele>
        <time>2015-09-02T08:04:22Z</time>
      </trkpt>
      <trkpt lat="33.91354" lon="77.37224">
        <ele>3668.6</ele>
        <time>2015-09-02T08:04:25Z</time>
      </trkpt>
      <trkpt lat="33.91351" lon="77.37227">
        <ele>3669.2</ele>
        <time>2015-09-02T08:04:31Z</time>
      </trkpt>
      <trkpt lat="33.91349" lon="77.37226">
        <ele>3669.6</ele>
        <time>2015-09-02T08:04:34Z</time>
      </trkpt>
      <trkpt lat="33.91344" lon="77.37232">
        <ele>3670.8</ele>
        <time>2015-09-02T08:04:43Z</time>
      </trkpt>
      <trkpt lat="33.91343" lon="77.37233">
        <ele>3671</ele>
        <time>2015-09-02T08:04:44Z</time>
      </trkpt>
      <trkpt lat="33.91342" lon="77.37239">
        <ele>3671.8</ele>
        <time>2015-09-02T08:04:52Z</time>
      </trkpt>
      <trkpt lat="33.9134" lon="77.37242">
        <ele>3672.8</ele>
        <time>2015-09-02T08:04:58Z</time>
      </trkpt>
      <trkpt lat="33.91338" lon="77.37243">
        <ele>3673</ele>
        <time>2015-09-02T08:05:00Z</time>
      </trkpt>
      <trkpt lat="33.91337" lon="77.37245">
        <ele>3673.2</ele>
        <time>2015-09-02T08:05:02Z</time>
      </trkpt>
      <trkpt lat="33.91335" lon="77.37245">
        <ele>3673.4</ele>
        <time>2015-09-02T08:05:04Z</time>
      </trkpt>
      <trkpt lat="33.91333" lon="77.37245">
        <ele>3673.4</ele>
        <time>2015-09-02T08:05:06Z</time>
      </trkpt>
      <trkpt lat="33.91329" lon="77.37243">
        <ele>3673</ele>
        <time>2015-09-02T08:05:09Z</time>
      </trkpt>
      <trkpt lat="33.91324" lon="77.37242">
        <ele>3672.8</ele>
        <time>2015-09-02T08:05:13Z</time>
      </trkpt>
      <trkpt lat="33.9132" lon="77.37242">
        <ele>3672.8</ele>
        <time>2015-09-02T08:05:17Z</time>
      </trkpt>
      <trkpt lat="33.91317" lon="77.37241">
        <ele>3672.8</ele>
        <time>2015-09-02T08:05:21Z</time>
      </trkpt>
      <trkpt lat="33.91308" lon="77.37248">
        <ele>3673.8</ele>
        <time>2015-09-02T08:05:31Z</time>
      </trkpt>
      <trkpt lat="33.91307" lon="77.37249">
        <ele>3674</ele>
        <time>2015-09-02T08:05:33Z</time>
      </trkpt>
      <trkpt lat="33.9129" lon="77.37246">
        <ele>3673.2</ele>
        <time>2015-09-02T08:05:51Z</time>
      </trkpt>
      <trkpt lat="33.91286" lon="77.37244">
        <ele>3673</ele>
        <time>2015-09-02T08:05:55Z</time>
      </trkpt>
      <trkpt lat="33.91284" lon="77.37245">
        <ele>3673.2</ele>
        <time>2015-09-02T08:05:57Z</time>
      </trkpt>
      <trkpt lat="33.91281" lon="77.37248">
        <ele>3673</ele>
        <time>2015-09-02T08:06:05Z</time>
      </trkpt>
      <trkpt lat="33.91289" lon="77.37251">
        <ele>3673.4</ele>
        <time>2015-09-02T08:06:22Z</time>
      </trkpt>
      <trkpt lat="33.91284" lon="77.37248">
        <ele>3673.6</ele>
        <time>2015-09-02T08:06:26Z</time>
      </trkpt>
      <trkpt lat="33.91274" lon="77.37248">
        <ele>3674</ele>
        <time>2015-09-02T08:06:34Z</time>
      </trkpt>
      <trkpt lat="33.91266" lon="77.37249">
        <ele>3675</ele>
        <time>2015-09-02T08:06:42Z</time>
      </trkpt>
      <trkpt lat="33.91262" lon="77.37254">
        <ele>3675.4</ele>
        <time>2015-09-02T08:06:48Z</time>
      </trkpt>
      <trkpt lat="33.91259" lon="77.37257">
        <ele>3675.6</ele>
        <time>2015-09-02T08:06:50Z</time>
      </trkpt>
      <trkpt lat="33.91256" lon="77.37259">
        <ele>3676</ele>
        <time>2015-09-02T08:06:54Z</time>
      </trkpt>
      <trkpt lat="33.9125" lon="77.37259">
        <ele>3676.6</ele>
        <time>2015-09-02T08:07:01Z</time>
      </trkpt>
      <trkpt lat="33.91249" lon="77.3726">
        <ele>3677.2</ele>
        <time>2015-09-02T08:07:04Z</time>
      </trkpt>
      <trkpt lat="33.91244" lon="77.3727">
        <ele>3678.2</ele>
        <time>2015-09-02T08:07:14Z</time>
      </trkpt>
      <trkpt lat="33.91235" lon="77.37281">
        <ele>3679.2</ele>
        <time>2015-09-02T08:07:23Z</time>
      </trkpt>
      <trkpt lat="33.91234" lon="77.37282">
        <ele>3679.4</ele>
        <time>2015-09-02T08:07:24Z</time>
      </trkpt>
      <trkpt lat="33.91233" lon="77.37287">
        <ele>3680</ele>
        <time>2015-09-02T08:07:29Z</time>
      </trkpt>
      <trkpt lat="33.91231" lon="77.37298">
        <ele>3680.2</ele>
        <time>2015-09-02T08:07:37Z</time>
      </trkpt>
      <trkpt lat="33.91227" lon="77.37296">
        <ele>3680.2</ele>
        <time>2015-09-02T08:07:40Z</time>
      </trkpt>
      <trkpt lat="33.91225" lon="77.37296">
        <ele>3680.2</ele>
        <time>2015-09-02T08:07:42Z</time>
      </trkpt>
      <trkpt lat="33.91223" lon="77.37297">
        <ele>3680.2</ele>
        <time>2015-09-02T08:07:44Z</time>
      </trkpt>
      <trkpt lat="33.9122" lon="77.37296">
        <ele>3680.4</ele>
        <time>2015-09-02T08:07:46Z</time>
      </trkpt>
      <trkpt lat="33.91212" lon="77.37286">
        <ele>3681.2</ele>
        <time>2015-09-02T08:07:50Z</time>
      </trkpt>
      <trkpt lat="33.9121" lon="77.37283">
        <ele>3681.2</ele>
        <time>2015-09-02T08:07:52Z</time>
      </trkpt>
      <trkpt lat="33.91209" lon="77.37284">
        <ele>3681</ele>
        <time>2015-09-02T08:07:54Z</time>
      </trkpt>
      <trkpt lat="33.91207" lon="77.37284">
        <ele>3681.4</ele>
        <time>2015-09-02T08:07:59Z</time>
      </trkpt>
      <trkpt lat="33.91206" lon="77.37283">
        <ele>3681.6</ele>
        <time>2015-09-02T08:08:00Z</time>
      </trkpt>
      <trkpt lat="33.91197" lon="77.37279">
        <ele>3682.6</ele>
        <time>2015-09-02T08:08:13Z</time>
      </trkpt>
      <trkpt lat="33.91191" lon="77.37282">
        <ele>3683</ele>
        <time>2015-09-02T08:08:19Z</time>
      </trkpt>
      <trkpt lat="33.9119" lon="77.37282">
        <ele>3683.2</ele>
        <time>2015-09-02T08:08:21Z</time>
      </trkpt>
      <trkpt lat="33.9118" lon="77.37283">
        <ele>3683.4</ele>
        <time>2015-09-02T08:08:30Z</time>
      </trkpt>
      <trkpt lat="33.91177" lon="77.37282">
        <ele>3683.6</ele>
        <time>2015-09-02T08:08:33Z</time>
      </trkpt>
      <trkpt lat="33.91173" lon="77.37284">
        <ele>3683.8</ele>
        <time>2015-09-02T08:08:37Z</time>
      </trkpt>
      <trkpt lat="33.91164" lon="77.37285">
        <ele>3683.8</ele>
        <time>2015-09-02T08:08:46Z</time>
      </trkpt>
      <trkpt lat="33.91172" lon="77.37285">
        <ele>3684</ele>
        <time>2015-09-02T08:09:10Z</time>
      </trkpt>
      <trkpt lat="33.91169" lon="77.37286">
        <ele>3684</ele>
        <time>2015-09-02T08:09:13Z</time>
      </trkpt>
      <trkpt lat="33.91167" lon="77.37287">
        <ele>3684</ele>
        <time>2015-09-02T08:09:16Z</time>
      </trkpt>
      <trkpt lat="33.91163" lon="77.37287">
        <ele>3684.4</ele>
        <time>2015-09-02T08:09:20Z</time>
      </trkpt>
      <trkpt lat="33.91158" lon="77.37288">
        <ele>3684.8</ele>
        <time>2015-09-02T08:09:25Z</time>
      </trkpt>
      <trkpt lat="33.91155" lon="77.3729">
        <ele>3684.8</ele>
        <time>2015-09-02T08:09:27Z</time>
      </trkpt>
      <trkpt lat="33.91153" lon="77.37291">
        <ele>3685</ele>
        <time>2015-09-02T08:09:30Z</time>
      </trkpt>
      <trkpt lat="33.91145" lon="77.37292">
        <ele>3685.6</ele>
        <time>2015-09-02T08:09:39Z</time>
      </trkpt>
      <trkpt lat="33.91142" lon="77.37291">
        <ele>3685.6</ele>
        <time>2015-09-02T08:09:42Z</time>
      </trkpt>
      <trkpt lat="33.91141" lon="77.37294">
        <ele>3685.8</ele>
        <time>2015-09-02T08:09:43Z</time>
      </trkpt>
      <trkpt lat="33.91135" lon="77.37299">
        <ele>3686.8</ele>
        <time>2015-09-02T08:09:54Z</time>
      </trkpt>
      <trkpt lat="33.91129" lon="77.37302">
        <ele>3686.4</ele>
        <time>2015-09-02T08:09:58Z</time>
      </trkpt>
      <trkpt lat="33.91122" lon="77.37304">
        <ele>3686.2</ele>
        <time>2015-09-02T08:10:03Z</time>
      </trkpt>
      <trkpt lat="33.91118" lon="77.37304">
        <ele>3686.2</ele>
        <time>2015-09-02T08:10:07Z</time>
      </trkpt>
      <trkpt lat="33.9112" lon="77.37302">
        <ele>3686.8</ele>
        <time>2015-09-02T08:10:30Z</time>
      </trkpt>
      <trkpt lat="33.91113" lon="77.37305">
        <ele>3686.8</ele>
        <time>2015-09-02T08:10:38Z</time>
      </trkpt>
      <trkpt lat="33.91105" lon="77.3731">
        <ele>3686.4</ele>
        <time>2015-09-02T08:10:49Z</time>
      </trkpt>
      <trkpt lat="33.91103" lon="77.37319">
        <ele>3685.8</ele>
        <time>2015-09-02T08:10:55Z</time>
      </trkpt>
      <trkpt lat="33.91103" lon="77.37322">
        <ele>3685.8</ele>
        <time>2015-09-02T08:10:57Z</time>
      </trkpt>
      <trkpt lat="33.9109" lon="77.37328">
        <ele>3685</ele>
        <time>2015-09-02T08:11:13Z</time>
      </trkpt>
      <trkpt lat="33.9109" lon="77.3733">
        <ele>3684.8</ele>
        <time>2015-09-02T08:11:14Z</time>
      </trkpt>
      <trkpt lat="33.91088" lon="77.37336">
        <ele>3684.2</ele>
        <time>2015-09-02T08:11:20Z</time>
      </trkpt>
      <trkpt lat="33.91086" lon="77.37337">
        <ele>3683.8</ele>
        <time>2015-09-02T08:11:28Z</time>
      </trkpt>
      <trkpt lat="33.91091" lon="77.37345">
        <ele>3682.6</ele>
        <time>2015-09-02T08:11:44Z</time>
      </trkpt>
      <trkpt lat="33.91091" lon="77.37351">
        <ele>3681.6</ele>
        <time>2015-09-02T08:12:00Z</time>
      </trkpt>
      <trkpt lat="33.91105" lon="77.37356">
        <ele>3681</ele>
        <time>2015-09-02T08:12:23Z</time>
      </trkpt>
      <trkpt lat="33.91109" lon="77.37358">
        <ele>3681.2</ele>
        <time>2015-09-02T08:12:27Z</time>
      </trkpt>
      <trkpt lat="33.91089" lon="77.37366">
        <ele>3681.2</ele>
        <time>2015-09-02T08:12:42Z</time>
      </trkpt>
      <trkpt lat="33.91083" lon="77.37362">
        <ele>3681.8</ele>
        <time>2015-09-02T08:13:29Z</time>
      </trkpt>
      <trkpt lat="33.91084" lon="77.37362">
        <ele>3681.8</ele>
        <time>2015-09-02T08:13:30Z</time>
      </trkpt>
      <trkpt lat="33.91089" lon="77.37362">
        <ele>3680.4</ele>
        <time>2015-09-02T08:13:46Z</time>
      </trkpt>
      <trkpt lat="33.91091" lon="77.37364">
        <ele>3679.8</ele>
        <time>2015-09-02T08:13:49Z</time>
      </trkpt>
      <trkpt lat="33.91094" lon="77.37365">
        <ele>3679.4</ele>
        <time>2015-09-02T08:13:52Z</time>
      </trkpt>
      <trkpt lat="33.91103" lon="77.3737">
        <ele>3678.6</ele>
        <time>2015-09-02T08:14:06Z</time>
      </trkpt>
      <trkpt lat="33.91104" lon="77.37371">
        <ele>3678.2</ele>
        <time>2015-09-02T08:14:08Z</time>
      </trkpt>
      <trkpt lat="33.91105" lon="77.37371">
        <ele>3678.2</ele>
        <time>2015-09-02T08:14:09Z</time>
      </trkpt>
      <trkpt lat="33.91109" lon="77.37381">
        <ele>3677.2</ele>
        <time>2015-09-02T08:14:15Z</time>
      </trkpt>
      <trkpt lat="33.91111" lon="77.37385">
        <ele>3676.4</ele>
        <time>2015-09-02T08:14:19Z</time>
      </trkpt>
      <trkpt lat="33.91111" lon="77.37389">
        <ele>3676.2</ele>
        <time>2015-09-02T08:14:22Z</time>
      </trkpt>
      <trkpt lat="33.91112" lon="77.3739">
        <ele>3676</ele>
        <time>2015-09-02T08:14:23Z</time>
      </trkpt>
      <trkpt lat="33.91113" lon="77.37394">
        <ele>3675.6</ele>
        <time>2015-09-02T08:14:27Z</time>
      </trkpt>
      <trkpt lat="33.91114" lon="77.37396">
        <ele>3675</ele>
        <time>2015-09-02T08:14:29Z</time>
      </trkpt>
      <trkpt lat="33.91115" lon="77.37399">
        <ele>3674</ele>
        <time>2015-09-02T08:14:33Z</time>
      </trkpt>
      <trkpt lat="33.91113" lon="77.374">
        <ele>3673.6</ele>
        <time>2015-09-02T08:14:35Z</time>
      </trkpt>
      <trkpt lat="33.91109" lon="77.374">
        <ele>3672.8</ele>
        <time>2015-09-02T08:14:42Z</time>
      </trkpt>
      <trkpt lat="33.91103" lon="77.37404">
        <ele>3671.8</ele>
        <time>2015-09-02T08:14:53Z</time>
      </trkpt>
      <trkpt lat="33.91096" lon="77.37417">
        <ele>3671.4</ele>
        <time>2015-09-02T08:15:01Z</time>
      </trkpt>
      <trkpt lat="33.91095" lon="77.37416">
        <ele>3671.6</ele>
        <time>2015-09-02T08:15:08Z</time>
      </trkpt>
      <trkpt lat="33.91099" lon="77.37414">
        <ele>3671.6</ele>
        <time>2015-09-02T08:15:47Z</time>
      </trkpt>
      <trkpt lat="33.91104" lon="77.37424">
        <ele>3671.6</ele>
        <time>2015-09-02T08:15:58Z</time>
      </trkpt>
      <trkpt lat="33.91091" lon="77.37409">
        <ele>3671.2</ele>
        <time>2015-09-02T08:16:15Z</time>
      </trkpt>
      <trkpt lat="33.91079" lon="77.37392">
        <ele>3671.2</ele>
        <time>2015-09-02T08:16:35Z</time>
      </trkpt>
      <trkpt lat="33.91086" lon="77.37411">
        <ele>3671.8</ele>
        <time>2015-09-02T08:16:53Z</time>
      </trkpt>
      <trkpt lat="33.91087" lon="77.37416">
        <ele>3671.6</ele>
        <time>2015-09-02T08:16:55Z</time>
      </trkpt>
      <trkpt lat="33.91087" lon="77.37419">
        <ele>3671</ele>
        <time>2015-09-02T08:16:59Z</time>
      </trkpt>
      <trkpt lat="33.91086" lon="77.37428">
        <ele>3671.6</ele>
        <time>2015-09-02T08:17:17Z</time>
      </trkpt>
      <trkpt lat="33.91087" lon="77.37429">
        <ele>3671.6</ele>
        <time>2015-09-02T08:17:19Z</time>
      </trkpt>
      <trkpt lat="33.91086" lon="77.37424">
        <ele>3671.4</ele>
        <time>2015-09-02T08:17:25Z</time>
      </trkpt>
      <trkpt lat="33.91088" lon="77.37425">
        <ele>3671.6</ele>
        <time>2015-09-02T08:17:50Z</time>
      </trkpt>
      <trkpt lat="33.91086" lon="77.37431">
        <ele>3671.4</ele>
        <time>2015-09-02T08:17:54Z</time>
      </trkpt>
      <trkpt lat="33.91081" lon="77.37432">
        <ele>3672.8</ele>
        <time>2015-09-02T08:18:21Z</time>
      </trkpt>
      <trkpt lat="33.91074" lon="77.37431">
        <ele>3672.6</ele>
        <time>2015-09-02T08:18:42Z</time>
      </trkpt>
      <trkpt lat="33.91072" lon="77.37428">
        <ele>3672.2</ele>
        <time>2015-09-02T08:18:49Z</time>
      </trkpt>
      <trkpt lat="33.91082" lon="77.37437">
        <ele>3671.8</ele>
        <time>2015-09-02T08:18:56Z</time>
      </trkpt>
      <trkpt lat="33.91072" lon="77.37421">
        <ele>3671.8</ele>
        <time>2015-09-02T08:19:20Z</time>
      </trkpt>
      <trkpt lat="33.91073" lon="77.37423">
        <ele>3672</ele>
        <time>2015-09-02T08:19:22Z</time>
      </trkpt>
      <trkpt lat="33.91071" lon="77.37427">
        <ele>3671.8</ele>
        <time>2015-09-02T08:19:26Z</time>
      </trkpt>
      <trkpt lat="33.91066" lon="77.3743">
        <ele>3671.6</ele>
        <time>2015-09-02T08:19:33Z</time>
      </trkpt>
      <trkpt lat="33.91069" lon="77.37448">
        <ele>3671.6</ele>
        <time>2015-09-02T08:19:44Z</time>
      </trkpt>
      <trkpt lat="33.91066" lon="77.37454">
        <ele>3671.4</ele>
        <time>2015-09-02T08:20:19Z</time>
      </trkpt>
      <trkpt lat="33.91066" lon="77.37456">
        <ele>3671.6</ele>
        <time>2015-09-02T08:20:22Z</time>
      </trkpt>
      <trkpt lat="33.91066" lon="77.37463">
        <ele>3672</ele>
        <time>2015-09-02T08:20:28Z</time>
      </trkpt>
      <trkpt lat="33.91066" lon="77.37466">
        <ele>3672</ele>
        <time>2015-09-02T08:20:30Z</time>
      </trkpt>
      <trkpt lat="33.91066" lon="77.37468">
        <ele>3672</ele>
        <time>2015-09-02T08:20:32Z</time>
      </trkpt>
      <trkpt lat="33.91062" lon="77.37478">
        <ele>3672.2</ele>
        <time>2015-09-02T08:20:45Z</time>
      </trkpt>
      <trkpt lat="33.9106" lon="77.37481">
        <ele>3672.6</ele>
        <time>2015-09-02T08:20:48Z</time>
      </trkpt>
      <trkpt lat="33.91061" lon="77.37486">
        <ele>3673</ele>
        <time>2015-09-02T08:20:51Z</time>
      </trkpt>
      <trkpt lat="33.91062" lon="77.37501">
        <ele>3673.6</ele>
        <time>2015-09-02T08:21:01Z</time>
      </trkpt>
      <trkpt lat="33.91064" lon="77.37509">
        <ele>3674</ele>
        <time>2015-09-02T08:21:07Z</time>
      </trkpt>
      <trkpt lat="33.91061" lon="77.37509">
        <ele>3674.4</ele>
        <time>2015-09-02T08:21:10Z</time>
      </trkpt>
      <trkpt lat="33.9106" lon="77.37516">
        <ele>3675</ele>
        <time>2015-09-02T08:21:15Z</time>
      </trkpt>
      <trkpt lat="33.91057" lon="77.37514">
        <ele>3675.2</ele>
        <time>2015-09-02T08:21:16Z</time>
      </trkpt>
      <trkpt lat="33.91056" lon="77.37514">
        <ele>3675.2</ele>
        <time>2015-09-02T08:21:18Z</time>
      </trkpt>
      <trkpt lat="33.9106" lon="77.37524">
        <ele>3675.2</ele>
        <time>2015-09-02T08:21:23Z</time>
      </trkpt>
      <trkpt lat="33.91055" lon="77.37527">
        <ele>3675.2</ele>
        <time>2015-09-02T08:21:29Z</time>
      </trkpt>
      <trkpt lat="33.91051" lon="77.37532">
        <ele>3674</ele>
        <time>2015-09-02T08:21:41Z</time>
      </trkpt>
      <trkpt lat="33.91049" lon="77.3754">
        <ele>3673.4</ele>
        <time>2015-09-02T08:21:45Z</time>
      </trkpt>
      <trkpt lat="33.91049" lon="77.37542">
        <ele>3673</ele>
        <time>2015-09-02T08:21:46Z</time>
      </trkpt>
      <trkpt lat="33.91048" lon="77.3755">
        <ele>3671.8</ele>
        <time>2015-09-02T08:21:50Z</time>
      </trkpt>
      <trkpt lat="33.91048" lon="77.37558">
        <ele>3670.8</ele>
        <time>2015-09-02T08:21:54Z</time>
      </trkpt>
      <trkpt lat="33.91044" lon="77.3756">
        <ele>3670</ele>
        <time>2015-09-02T08:21:57Z</time>
      </trkpt>
      <trkpt lat="33.91042" lon="77.3756">
        <ele>3669.8</ele>
        <time>2015-09-02T08:21:58Z</time>
      </trkpt>
      <trkpt lat="33.91034" lon="77.37563">
        <ele>3668.6</ele>
        <time>2015-09-02T08:22:05Z</time>
      </trkpt>
      <trkpt lat="33.91029" lon="77.37568">
        <ele>3668</ele>
        <time>2015-09-02T08:22:09Z</time>
      </trkpt>
      <trkpt lat="33.91021" lon="77.37575">
        <ele>3668.2</ele>
        <time>2015-09-02T08:22:18Z</time>
      </trkpt>
      <trkpt lat="33.91021" lon="77.37577">
        <ele>3668.2</ele>
        <time>2015-09-02T08:22:20Z</time>
      </trkpt>
      <trkpt lat="33.91017" lon="77.37579">
        <ele>3668</ele>
        <time>2015-09-02T08:22:26Z</time>
      </trkpt>
      <trkpt lat="33.91015" lon="77.37579">
        <ele>3667.8</ele>
        <time>2015-09-02T08:22:29Z</time>
      </trkpt>
      <trkpt lat="33.91012" lon="77.37586">
        <ele>3667.8</ele>
        <time>2015-09-02T08:22:33Z</time>
      </trkpt>
      <trkpt lat="33.91011" lon="77.37589">
        <ele>3668.6</ele>
        <time>2015-09-02T08:22:36Z</time>
      </trkpt>
      <trkpt lat="33.9101" lon="77.37592">
        <ele>3669</ele>
        <time>2015-09-02T08:22:38Z</time>
      </trkpt>
      <trkpt lat="33.91009" lon="77.37595">
        <ele>3669.6</ele>
        <time>2015-09-02T08:22:42Z</time>
      </trkpt>
      <trkpt lat="33.91009" lon="77.37597">
        <ele>3669.6</ele>
        <time>2015-09-02T08:22:43Z</time>
      </trkpt>
      <trkpt lat="33.91007" lon="77.37607">
        <ele>3669.2</ele>
        <time>2015-09-02T08:22:48Z</time>
      </trkpt>
      <trkpt lat="33.91006" lon="77.37615">
        <ele>3668.4</ele>
        <time>2015-09-02T08:22:52Z</time>
      </trkpt>
      <trkpt lat="33.91003" lon="77.37614">
        <ele>3667.6</ele>
        <time>2015-09-02T08:22:57Z</time>
      </trkpt>
      <trkpt lat="33.91004" lon="77.37626">
        <ele>3668.6</ele>
        <time>2015-09-02T08:23:08Z</time>
      </trkpt>
      <trkpt lat="33.91005" lon="77.3763">
        <ele>3668.8</ele>
        <time>2015-09-02T08:23:10Z</time>
      </trkpt>
      <trkpt lat="33.91006" lon="77.37634">
        <ele>3669.2</ele>
        <time>2015-09-02T08:23:13Z</time>
      </trkpt>
      <trkpt lat="33.91003" lon="77.37633">
        <ele>3669.6</ele>
        <time>2015-09-02T08:23:15Z</time>
      </trkpt>
      <trkpt lat="33.90999" lon="77.37634">
        <ele>3670</ele>
        <time>2015-09-02T08:23:18Z</time>
      </trkpt>
      <trkpt lat="33.90998" lon="77.37639">
        <ele>3670.6</ele>
        <time>2015-09-02T08:23:23Z</time>
      </trkpt>
      <trkpt lat="33.90997" lon="77.37643">
        <ele>3671</ele>
        <time>2015-09-02T08:23:26Z</time>
      </trkpt>
      <trkpt lat="33.90995" lon="77.37645">
        <ele>3671.8</ele>
        <time>2015-09-02T08:23:30Z</time>
      </trkpt>
      <trkpt lat="33.90992" lon="77.37647">
        <ele>3672.8</ele>
        <time>2015-09-02T08:23:38Z</time>
      </trkpt>
      <trkpt lat="33.90991" lon="77.37653">
        <ele>3674</ele>
        <time>2015-09-02T08:23:48Z</time>
      </trkpt>
      <trkpt lat="33.91" lon="77.37654">
        <ele>3674.4</ele>
        <time>2015-09-02T08:23:54Z</time>
      </trkpt>
      <trkpt lat="33.91001" lon="77.3766">
        <ele>3675</ele>
        <time>2015-09-02T08:24:07Z</time>
      </trkpt>
      <trkpt lat="33.91" lon="77.37661">
        <ele>3675.2</ele>
        <time>2015-09-02T08:24:08Z</time>
      </trkpt>
      <trkpt lat="33.90997" lon="77.37665">
        <ele>3676</ele>
        <time>2015-09-02T08:24:15Z</time>
      </trkpt>
      <trkpt lat="33.90998" lon="77.3767">
        <ele>3677</ele>
        <time>2015-09-02T08:24:24Z</time>
      </trkpt>
      <trkpt lat="33.90998" lon="77.37677">
        <ele>3678.2</ele>
        <time>2015-09-02T08:24:32Z</time>
      </trkpt>
      <trkpt lat="33.90998" lon="77.37683">
        <ele>3679.2</ele>
        <time>2015-09-02T08:24:40Z</time>
      </trkpt>
      <trkpt lat="33.91001" lon="77.37689">
        <ele>3680.4</ele>
        <time>2015-09-02T08:24:50Z</time>
      </trkpt>
      <trkpt lat="33.91002" lon="77.37694">
        <ele>3681.4</ele>
        <time>2015-09-02T08:24:59Z</time>
      </trkpt>
      <trkpt lat="33.91002" lon="77.377">
        <ele>3682.4</ele>
        <time>2015-09-02T08:25:07Z</time>
      </trkpt>
      <trkpt lat="33.91003" lon="77.37701">
        <ele>3682.6</ele>
        <time>2015-09-02T08:25:08Z</time>
      </trkpt>
      <trkpt lat="33.91003" lon="77.37705">
        <ele>3682.8</ele>
        <time>2015-09-02T08:25:11Z</time>
      </trkpt>
      <trkpt lat="33.91004" lon="77.37716">
        <ele>3683.2</ele>
        <time>2015-09-02T08:25:20Z</time>
      </trkpt>
      <trkpt lat="33.91002" lon="77.37738">
        <ele>3681.6</ele>
        <time>2015-09-02T08:25:39Z</time>
      </trkpt>
      <trkpt lat="33.91002" lon="77.3774">
        <ele>3681.4</ele>
        <time>2015-09-02T08:25:40Z</time>
      </trkpt>
      <trkpt lat="33.91007" lon="77.37761">
        <ele>3681</ele>
        <time>2015-09-02T08:25:58Z</time>
      </trkpt>
      <trkpt lat="33.91009" lon="77.37785">
        <ele>3680.8</ele>
        <time>2015-09-02T08:26:14Z</time>
      </trkpt>
      <trkpt lat="33.91006" lon="77.3779">
        <ele>3680.4</ele>
        <time>2015-09-02T08:26:17Z</time>
      </trkpt>
      <trkpt lat="33.91006" lon="77.37795">
        <ele>3679.2</ele>
        <time>2015-09-02T08:26:21Z</time>
      </trkpt>
      <trkpt lat="33.91004" lon="77.378">
        <ele>3678.2</ele>
        <time>2015-09-02T08:26:25Z</time>
      </trkpt>
      <trkpt lat="33.91003" lon="77.37802">
        <ele>3677.8</ele>
        <time>2015-09-02T08:26:26Z</time>
      </trkpt>
      <trkpt lat="33.91001" lon="77.37804">
        <ele>3677</ele>
        <time>2015-09-02T08:26:28Z</time>
      </trkpt>
      <trkpt lat="33.91" lon="77.37807">
        <ele>3676.4</ele>
        <time>2015-09-02T08:26:30Z</time>
      </trkpt>
      <trkpt lat="33.91" lon="77.37806">
        <ele>3676</ele>
        <time>2015-09-02T08:26:31Z</time>
      </trkpt>
      <trkpt lat="33.90999" lon="77.37803">
        <ele>3675</ele>
        <time>2015-09-02T08:26:33Z</time>
      </trkpt>
      <trkpt lat="33.90999" lon="77.378">
        <ele>3674.2</ele>
        <time>2015-09-02T08:26:34Z</time>
      </trkpt>
      <trkpt lat="33.90998" lon="77.37798">
        <ele>3673.2</ele>
        <time>2015-09-02T08:26:36Z</time>
      </trkpt>
      <trkpt lat="33.90997" lon="77.37797">
        <ele>3672.4</ele>
        <time>2015-09-02T08:26:38Z</time>
      </trkpt>
      <trkpt lat="33.90997" lon="77.37798">
        <ele>3672</ele>
        <time>2015-09-02T08:26:40Z</time>
      </trkpt>
      <trkpt lat="33.90996" lon="77.37798">
        <ele>3671.8</ele>
        <time>2015-09-02T08:26:41Z</time>
      </trkpt>
      <trkpt lat="33.90995" lon="77.378">
        <ele>3671.2</ele>
        <time>2015-09-02T08:26:43Z</time>
      </trkpt>
      <trkpt lat="33.90994" lon="77.378">
        <ele>3670.8</ele>
        <time>2015-09-02T08:26:44Z</time>
      </trkpt>
      <trkpt lat="33.90989" lon="77.37803">
        <ele>3670.4</ele>
        <time>2015-09-02T08:26:51Z</time>
      </trkpt>
      <trkpt lat="33.90987" lon="77.37804">
        <ele>3670.6</ele>
        <time>2015-09-02T08:26:53Z</time>
      </trkpt>
      <trkpt lat="33.90984" lon="77.37807">
        <ele>3670.8</ele>
        <time>2015-09-02T08:27:10Z</time>
      </trkpt>
      <trkpt lat="33.90986" lon="77.37809">
        <ele>3670.8</ele>
        <time>2015-09-02T08:27:12Z</time>
      </trkpt>
      <trkpt lat="33.90987" lon="77.37811">
        <ele>3671</ele>
        <time>2015-09-02T08:27:14Z</time>
      </trkpt>
      <trkpt lat="33.90987" lon="77.37816">
        <ele>3672</ele>
        <time>2015-09-02T08:27:22Z</time>
      </trkpt>
      <trkpt lat="33.90985" lon="77.37817">
        <ele>3672.2</ele>
        <time>2015-09-02T08:27:24Z</time>
      </trkpt>
      <trkpt lat="33.90979" lon="77.37829">
        <ele>3672.2</ele>
        <time>2015-09-02T08:27:46Z</time>
      </trkpt>
      <trkpt lat="33.90978" lon="77.37833">
        <ele>3673</ele>
        <time>2015-09-02T08:27:50Z</time>
      </trkpt>
      <trkpt lat="33.90976" lon="77.37834">
        <ele>3673</ele>
        <time>2015-09-02T08:27:52Z</time>
      </trkpt>
      <trkpt lat="33.90974" lon="77.37841">
        <ele>3673</ele>
        <time>2015-09-02T08:27:56Z</time>
      </trkpt>
      <trkpt lat="33.90973" lon="77.37845">
        <ele>3672.8</ele>
        <time>2015-09-02T08:27:59Z</time>
      </trkpt>
      <trkpt lat="33.90973" lon="77.37845">
        <ele>3672.8</ele>
        <time>2015-09-02T08:28:03Z</time>
      </trkpt>
      <trkpt lat="33.90973" lon="77.37845">
        <ele>3672.8</ele>
        <time>2015-09-02T08:28:04Z</time>
      </trkpt>
      <trkpt lat="33.90972" lon="77.37849">
        <ele>3672.8</ele>
        <time>2015-09-02T08:28:08Z</time>
      </trkpt>
      <trkpt lat="33.9097" lon="77.37851">
        <ele>3672.8</ele>
        <time>2015-09-02T08:28:10Z</time>
      </trkpt>
      <trkpt lat="33.90969" lon="77.37851">
        <ele>3672.8</ele>
        <time>2015-09-02T08:28:11Z</time>
      </trkpt>
      <trkpt lat="33.90967" lon="77.3785">
        <ele>3672.8</ele>
        <time>2015-09-02T08:28:13Z</time>
      </trkpt>
      <trkpt lat="33.90966" lon="77.3785">
        <ele>3672.6</ele>
        <time>2015-09-02T08:28:15Z</time>
      </trkpt>
      <trkpt lat="33.9096" lon="77.37849">
        <ele>3672.6</ele>
        <time>2015-09-02T08:28:22Z</time>
      </trkpt>
      <trkpt lat="33.90956" lon="77.37849">
        <ele>3672.8</ele>
        <time>2015-09-02T08:28:25Z</time>
      </trkpt>
      <trkpt lat="33.90943" lon="77.37853">
        <ele>3673.2</ele>
        <time>2015-09-02T08:28:40Z</time>
      </trkpt>
      <trkpt lat="33.90941" lon="77.37855">
        <ele>3673.4</ele>
        <time>2015-09-02T08:28:43Z</time>
      </trkpt>
      <trkpt lat="33.90937" lon="77.37856">
        <ele>3673.6</ele>
        <time>2015-09-02T08:28:46Z</time>
      </trkpt>
      <trkpt lat="33.90928" lon="77.37859">
        <ele>3674</ele>
        <time>2015-09-02T08:28:56Z</time>
      </trkpt>
      <trkpt lat="33.90925" lon="77.37867">
        <ele>3674</ele>
        <time>2015-09-02T08:29:01Z</time>
      </trkpt>
      <trkpt lat="33.90924" lon="77.37873">
        <ele>3674</ele>
        <time>2015-09-02T08:29:03Z</time>
      </trkpt>
      <trkpt lat="33.90921" lon="77.37878">
        <ele>3674</ele>
        <time>2015-09-02T08:29:07Z</time>
      </trkpt>
      <trkpt lat="33.9092" lon="77.37879">
        <ele>3673.8</ele>
        <time>2015-09-02T08:29:09Z</time>
      </trkpt>
      <trkpt lat="33.90918" lon="77.37883">
        <ele>3674.2</ele>
        <time>2015-09-02T08:29:15Z</time>
      </trkpt>
      <trkpt lat="33.90916" lon="77.37885">
        <ele>3674.2</ele>
        <time>2015-09-02T08:29:18Z</time>
      </trkpt>
      <trkpt lat="33.9091" lon="77.3789">
        <ele>3674.4</ele>
        <time>2015-09-02T08:29:25Z</time>
      </trkpt>
      <trkpt lat="33.90906" lon="77.37904">
        <ele>3674.4</ele>
        <time>2015-09-02T08:29:42Z</time>
      </trkpt>
      <trkpt lat="33.90905" lon="77.37912">
        <ele>3674.4</ele>
        <time>2015-09-02T08:29:46Z</time>
      </trkpt>
      <trkpt lat="33.90905" lon="77.37913">
        <ele>3674.4</ele>
        <time>2015-09-02T08:29:48Z</time>
      </trkpt>
      <trkpt lat="33.90905" lon="77.37916">
        <ele>3674.2</ele>
        <time>2015-09-02T08:29:50Z</time>
      </trkpt>
      <trkpt lat="33.90904" lon="77.37919">
        <ele>3674.2</ele>
        <time>2015-09-02T08:29:53Z</time>
      </trkpt>
      <trkpt lat="33.909" lon="77.37924">
        <ele>3674</ele>
        <time>2015-09-02T08:29:58Z</time>
      </trkpt>
      <trkpt lat="33.90893" lon="77.37944">
        <ele>3674.4</ele>
        <time>2015-09-02T08:30:19Z</time>
      </trkpt>
      <trkpt lat="33.90892" lon="77.37945">
        <ele>3674.4</ele>
        <time>2015-09-02T08:30:21Z</time>
      </trkpt>
      <trkpt lat="33.90887" lon="77.37952">
        <ele>3674.8</ele>
        <time>2015-09-02T08:30:29Z</time>
      </trkpt>
      <trkpt lat="33.90885" lon="77.37956">
        <ele>3674.6</ele>
        <time>2015-09-02T08:30:32Z</time>
      </trkpt>
      <trkpt lat="33.90879" lon="77.37967">
        <ele>3675</ele>
        <time>2015-09-02T08:30:43Z</time>
      </trkpt>
      <trkpt lat="33.90878" lon="77.37971">
        <ele>3675</ele>
        <time>2015-09-02T08:30:46Z</time>
      </trkpt>
      <trkpt lat="33.90877" lon="77.37972">
        <ele>3675.2</ele>
        <time>2015-09-02T08:30:47Z</time>
      </trkpt>
      <trkpt lat="33.90881" lon="77.37975">
        <ele>3675.2</ele>
        <time>2015-09-02T08:30:50Z</time>
      </trkpt>
      <trkpt lat="33.9088" lon="77.37979">
        <ele>3675.2</ele>
        <time>2015-09-02T08:30:54Z</time>
      </trkpt>
      <trkpt lat="33.90879" lon="77.37982">
        <ele>3675</ele>
        <time>2015-09-02T08:30:57Z</time>
      </trkpt>
      <trkpt lat="33.90876" lon="77.37993">
        <ele>3674.8</ele>
        <time>2015-09-02T08:31:07Z</time>
      </trkpt>
      <trkpt lat="33.90874" lon="77.37997">
        <ele>3674.8</ele>
        <time>2015-09-02T08:31:10Z</time>
      </trkpt>
      <trkpt lat="33.90873" lon="77.38003">
        <ele>3675</ele>
        <time>2015-09-02T08:31:15Z</time>
      </trkpt>
      <trkpt lat="33.90872" lon="77.38008">
        <ele>3674.2</ele>
        <time>2015-09-02T08:31:21Z</time>
      </trkpt>
      <trkpt lat="33.9087" lon="77.38012">
        <ele>3674.6</ele>
        <time>2015-09-02T08:31:24Z</time>
      </trkpt>
      <trkpt lat="33.90868" lon="77.38015">
        <ele>3674.6</ele>
        <time>2015-09-02T08:31:26Z</time>
      </trkpt>
      <trkpt lat="33.90864" lon="77.38019">
        <ele>3674.8</ele>
        <time>2015-09-02T08:31:33Z</time>
      </trkpt>
      <trkpt lat="33.90853" lon="77.38028">
        <ele>3675.2</ele>
        <time>2015-09-02T08:31:48Z</time>
      </trkpt>
      <trkpt lat="33.9085" lon="77.38035">
        <ele>3675.2</ele>
        <time>2015-09-02T08:31:51Z</time>
      </trkpt>
      <trkpt lat="33.90844" lon="77.38042">
        <ele>3676.2</ele>
        <time>2015-09-02T08:31:59Z</time>
      </trkpt>
      <trkpt lat="33.90842" lon="77.38043">
        <ele>3676.4</ele>
        <time>2015-09-02T08:32:01Z</time>
      </trkpt>
      <trkpt lat="33.90839" lon="77.38045">
        <ele>3677.2</ele>
        <time>2015-09-02T08:32:07Z</time>
      </trkpt>
      <trkpt lat="33.90836" lon="77.38047">
        <ele>3677.6</ele>
        <time>2015-09-02T08:32:10Z</time>
      </trkpt>
      <trkpt lat="33.9083" lon="77.38048">
        <ele>3677.8</ele>
        <time>2015-09-02T08:32:17Z</time>
      </trkpt>
      <trkpt lat="33.90831" lon="77.38051">
        <ele>3678.2</ele>
        <time>2015-09-02T08:32:22Z</time>
      </trkpt>
      <trkpt lat="33.90825" lon="77.38057">
        <ele>3679.4</ele>
        <time>2015-09-02T08:32:44Z</time>
      </trkpt>
      <trkpt lat="33.90821" lon="77.38058">
        <ele>3680.6</ele>
        <time>2015-09-02T08:32:51Z</time>
      </trkpt>
      <trkpt lat="33.90828" lon="77.38064">
        <ele>3681.8</ele>
        <time>2015-09-02T08:33:22Z</time>
      </trkpt>
      <trkpt lat="33.90829" lon="77.38068">
        <ele>3682.8</ele>
        <time>2015-09-02T08:33:29Z</time>
      </trkpt>
      <trkpt lat="33.90827" lon="77.38077">
        <ele>3682</ele>
        <time>2015-09-02T08:33:53Z</time>
      </trkpt>
      <trkpt lat="33.90835" lon="77.38077">
        <ele>3682</ele>
        <time>2015-09-02T08:34:01Z</time>
      </trkpt>
      <trkpt lat="33.90839" lon="77.38077">
        <ele>3681.6</ele>
        <time>2015-09-02T08:34:07Z</time>
      </trkpt>
      <trkpt lat="33.9084" lon="77.38077">
        <ele>3681.6</ele>
        <time>2015-09-02T08:34:11Z</time>
      </trkpt>
      <trkpt lat="33.90841" lon="77.38085">
        <ele>3682</ele>
        <time>2015-09-02T08:34:33Z</time>
      </trkpt>
      <trkpt lat="33.90832" lon="77.3808">
        <ele>3682.2</ele>
        <time>2015-09-02T08:34:41Z</time>
      </trkpt>
      <trkpt lat="33.90842" lon="77.3808">
        <ele>3682</ele>
        <time>2015-09-02T08:35:13Z</time>
      </trkpt>
      <trkpt lat="33.90843" lon="77.38083">
        <ele>3681.4</ele>
        <time>2015-09-02T08:35:24Z</time>
      </trkpt>
      <trkpt lat="33.90844" lon="77.38086">
        <ele>3680.6</ele>
        <time>2015-09-02T08:35:52Z</time>
      </trkpt>
      <trkpt lat="33.90845" lon="77.38092">
        <ele>3679.6</ele>
        <time>2015-09-02T08:36:00Z</time>
      </trkpt>
      <trkpt lat="33.90845" lon="77.38094">
        <ele>3679.2</ele>
        <time>2015-09-02T08:36:02Z</time>
      </trkpt>
      <trkpt lat="33.90846" lon="77.38097">
        <ele>3678.8</ele>
        <time>2015-09-02T08:36:04Z</time>
      </trkpt>
      <trkpt lat="33.90846" lon="77.381">
        <ele>3678.4</ele>
        <time>2015-09-02T08:36:07Z</time>
      </trkpt>
      <trkpt lat="33.90849" lon="77.38111">
        <ele>3678.6</ele>
        <time>2015-09-02T08:36:23Z</time>
      </trkpt>
      <trkpt lat="33.9085" lon="77.38113">
        <ele>3678.6</ele>
        <time>2015-09-02T08:36:25Z</time>
      </trkpt>
      <trkpt lat="33.90852" lon="77.38121">
        <ele>3678.2</ele>
        <time>2015-09-02T08:36:34Z</time>
      </trkpt>
      <trkpt lat="33.90852" lon="77.38124">
        <ele>3678.2</ele>
        <time>2015-09-02T08:36:36Z</time>
      </trkpt>
      <trkpt lat="33.90855" lon="77.38129">
        <ele>3678.6</ele>
        <time>2015-09-02T08:36:40Z</time>
      </trkpt>
      <trkpt lat="33.90859" lon="77.38138">
        <ele>3678</ele>
        <time>2015-09-02T08:36:47Z</time>
      </trkpt>
      <trkpt lat="33.90861" lon="77.3814">
        <ele>3678</ele>
        <time>2015-09-02T08:36:49Z</time>
      </trkpt>
      <trkpt lat="33.90859" lon="77.38161">
        <ele>3677.6</ele>
        <time>2015-09-02T08:37:07Z</time>
      </trkpt>
      <trkpt lat="33.90859" lon="77.38165">
        <ele>3677.8</ele>
        <time>2015-09-02T08:37:10Z</time>
      </trkpt>
      <trkpt lat="33.90856" lon="77.3818">
        <ele>3678</ele>
        <time>2015-09-02T08:37:22Z</time>
      </trkpt>
      <trkpt lat="33.90855" lon="77.38184">
        <ele>3678.2</ele>
        <time>2015-09-02T08:37:25Z</time>
      </trkpt>
      <trkpt lat="33.90856" lon="77.38186">
        <ele>3678.4</ele>
        <time>2015-09-02T08:37:27Z</time>
      </trkpt>
      <trkpt lat="33.90857" lon="77.38189">
        <ele>3678.6</ele>
        <time>2015-09-02T08:37:29Z</time>
      </trkpt>
      <trkpt lat="33.90857" lon="77.38191">
        <ele>3678.8</ele>
        <time>2015-09-02T08:37:31Z</time>
      </trkpt>
      <trkpt lat="33.90855" lon="77.38199">
        <ele>3678.8</ele>
        <time>2015-09-02T08:37:38Z</time>
      </trkpt>
      <trkpt lat="33.90854" lon="77.38208">
        <ele>3678.8</ele>
        <time>2015-09-02T08:37:45Z</time>
      </trkpt>
      <trkpt lat="33.90853" lon="77.38213">
        <ele>3678.8</ele>
        <time>2015-09-02T08:37:50Z</time>
      </trkpt>
      <trkpt lat="33.90853" lon="77.38216">
        <ele>3679</ele>
        <time>2015-09-02T08:37:53Z</time>
      </trkpt>
      <trkpt lat="33.90855" lon="77.38225">
        <ele>3679.2</ele>
        <time>2015-09-02T08:37:59Z</time>
      </trkpt>
      <trkpt lat="33.90854" lon="77.38228">
        <ele>3679.4</ele>
        <time>2015-09-02T08:38:01Z</time>
      </trkpt>
      <trkpt lat="33.90851" lon="77.3824">
        <ele>3679</ele>
        <time>2015-09-02T08:38:10Z</time>
      </trkpt>
      <trkpt lat="33.90845" lon="77.38249">
        <ele>3679.4</ele>
        <time>2015-09-02T08:38:21Z</time>
      </trkpt>
      <trkpt lat="33.90843" lon="77.38251">
        <ele>3679.6</ele>
        <time>2015-09-02T08:38:23Z</time>
      </trkpt>
      <trkpt lat="33.90841" lon="77.38252">
        <ele>3679.8</ele>
        <time>2015-09-02T08:38:25Z</time>
      </trkpt>
      <trkpt lat="33.90838" lon="77.38255">
        <ele>3679.8</ele>
        <time>2015-09-02T08:38:29Z</time>
      </trkpt>
      <trkpt lat="33.90835" lon="77.38263">
        <ele>3680</ele>
        <time>2015-09-02T08:38:37Z</time>
      </trkpt>
      <trkpt lat="33.90831" lon="77.38268">
        <ele>3680.2</ele>
        <time>2015-09-02T08:38:42Z</time>
      </trkpt>
      <trkpt lat="33.9083" lon="77.38272">
        <ele>3680</ele>
        <time>2015-09-02T08:38:45Z</time>
      </trkpt>
      <trkpt lat="33.90824" lon="77.38275">
        <ele>3680</ele>
        <time>2015-09-02T08:38:50Z</time>
      </trkpt>
      <trkpt lat="33.90822" lon="77.38277">
        <ele>3680.2</ele>
        <time>2015-09-02T08:38:52Z</time>
      </trkpt>
      <trkpt lat="33.90821" lon="77.38278">
        <ele>3680.2</ele>
        <time>2015-09-02T08:38:54Z</time>
      </trkpt>
      <trkpt lat="33.90819" lon="77.38288">
        <ele>3680</ele>
        <time>2015-09-02T08:39:04Z</time>
      </trkpt>
      <trkpt lat="33.90816" lon="77.3829">
        <ele>3680.2</ele>
        <time>2015-09-02T08:39:06Z</time>
      </trkpt>
      <trkpt lat="33.90813" lon="77.38294">
        <ele>3680.2</ele>
        <time>2015-09-02T08:39:09Z</time>
      </trkpt>
      <trkpt lat="33.9081" lon="77.38295">
        <ele>3680.2</ele>
        <time>2015-09-02T08:39:13Z</time>
      </trkpt>
      <trkpt lat="33.90806" lon="77.38298">
        <ele>3680.4</ele>
        <time>2015-09-02T08:39:20Z</time>
      </trkpt>
      <trkpt lat="33.90804" lon="77.38301">
        <ele>3680.4</ele>
        <time>2015-09-02T08:39:22Z</time>
      </trkpt>
      <trkpt lat="33.90804" lon="77.38303">
        <ele>3680.4</ele>
        <time>2015-09-02T08:39:23Z</time>
      </trkpt>
      <trkpt lat="33.90801" lon="77.3831">
        <ele>3680.8</ele>
        <time>2015-09-02T08:39:28Z</time>
      </trkpt>
      <trkpt lat="33.90799" lon="77.38315">
        <ele>3681</ele>
        <time>2015-09-02T08:39:32Z</time>
      </trkpt>
      <trkpt lat="33.90798" lon="77.38317">
        <ele>3681</ele>
        <time>2015-09-02T08:39:34Z</time>
      </trkpt>
      <trkpt lat="33.90796" lon="77.38322">
        <ele>3681</ele>
        <time>2015-09-02T08:39:39Z</time>
      </trkpt>
      <trkpt lat="33.90794" lon="77.38327">
        <ele>3681</ele>
        <time>2015-09-02T08:39:42Z</time>
      </trkpt>
      <trkpt lat="33.90795" lon="77.38331">
        <ele>3681.2</ele>
        <time>2015-09-02T08:39:45Z</time>
      </trkpt>
      <trkpt lat="33.90795" lon="77.38337">
        <ele>3681.2</ele>
        <time>2015-09-02T08:39:49Z</time>
      </trkpt>
      <trkpt lat="33.90794" lon="77.38339">
        <ele>3681.2</ele>
        <time>2015-09-02T08:39:51Z</time>
      </trkpt>
      <trkpt lat="33.90794" lon="77.38339">
        <ele>3681.6</ele>
        <time>2015-09-02T08:39:54Z</time>
      </trkpt>
      <trkpt lat="33.90785" lon="77.38356">
        <ele>3681.6</ele>
        <time>2015-09-02T08:40:16Z</time>
      </trkpt>
      <trkpt lat="33.90784" lon="77.38359">
        <ele>3681.6</ele>
        <time>2015-09-02T08:40:19Z</time>
      </trkpt>
      <trkpt lat="33.9078" lon="77.38367">
        <ele>3681.4</ele>
        <time>2015-09-02T08:40:27Z</time>
      </trkpt>
      <trkpt lat="33.90779" lon="77.38369">
        <ele>3681.4</ele>
        <time>2015-09-02T08:40:29Z</time>
      </trkpt>
      <trkpt lat="33.90767" lon="77.38386">
        <ele>3681.8</ele>
        <time>2015-09-02T08:40:42Z</time>
      </trkpt>
      <trkpt lat="33.90764" lon="77.38389">
        <ele>3682</ele>
        <time>2015-09-02T08:40:46Z</time>
      </trkpt>
      <trkpt lat="33.90762" lon="77.38391">
        <ele>3682</ele>
        <time>2015-09-02T08:40:49Z</time>
      </trkpt>
      <trkpt lat="33.90761" lon="77.38393">
        <ele>3682</ele>
        <time>2015-09-02T08:40:52Z</time>
      </trkpt>
      <trkpt lat="33.90758" lon="77.38396">
        <ele>3682.2</ele>
        <time>2015-09-02T08:40:58Z</time>
      </trkpt>
      <trkpt lat="33.90753" lon="77.38398">
        <ele>3682.4</ele>
        <time>2015-09-02T08:41:04Z</time>
      </trkpt>
      <trkpt lat="33.9075" lon="77.38401">
        <ele>3682.2</ele>
        <time>2015-09-02T08:41:08Z</time>
      </trkpt>
      <trkpt lat="33.9075" lon="77.384">
        <ele>3682.2</ele>
        <time>2015-09-02T08:41:10Z</time>
      </trkpt>
      <trkpt lat="33.90747" lon="77.38411">
        <ele>3682</ele>
        <time>2015-09-02T08:41:23Z</time>
      </trkpt>
      <trkpt lat="33.90746" lon="77.38412">
        <ele>3682</ele>
        <time>2015-09-02T08:41:25Z</time>
      </trkpt>
      <trkpt lat="33.90743" lon="77.38412">
        <ele>3682</ele>
        <time>2015-09-02T08:41:29Z</time>
      </trkpt>
      <trkpt lat="33.9074" lon="77.38414">
        <ele>3682.4</ele>
        <time>2015-09-02T08:41:33Z</time>
      </trkpt>
      <trkpt lat="33.90739" lon="77.38418">
        <ele>3682.6</ele>
        <time>2015-09-02T08:41:37Z</time>
      </trkpt>
      <trkpt lat="33.9073" lon="77.38438">
        <ele>3682.8</ele>
        <time>2015-09-02T08:41:56Z</time>
      </trkpt>
      <trkpt lat="33.90722" lon="77.38444">
        <ele>3683</ele>
        <time>2015-09-02T08:42:03Z</time>
      </trkpt>
      <trkpt lat="33.90714" lon="77.38455">
        <ele>3682.8</ele>
        <time>2015-09-02T08:42:14Z</time>
      </trkpt>
      <trkpt lat="33.90713" lon="77.38456">
        <ele>3683</ele>
        <time>2015-09-02T08:42:16Z</time>
      </trkpt>
      <trkpt lat="33.90708" lon="77.3846">
        <ele>3683.6</ele>
        <time>2015-09-02T08:42:21Z</time>
      </trkpt>
      <trkpt lat="33.90703" lon="77.38466">
        <ele>3684</ele>
        <time>2015-09-02T08:42:29Z</time>
      </trkpt>
      <trkpt lat="33.90701" lon="77.38467">
        <ele>3684</ele>
        <time>2015-09-02T08:42:31Z</time>
      </trkpt>
      <trkpt lat="33.90695" lon="77.38473">
        <ele>3684</ele>
        <time>2015-09-02T08:42:38Z</time>
      </trkpt>
      <trkpt lat="33.90686" lon="77.38481">
        <ele>3684.4</ele>
        <time>2015-09-02T08:42:48Z</time>
      </trkpt>
      <trkpt lat="33.90684" lon="77.38484">
        <ele>3684.6</ele>
        <time>2015-09-02T08:42:52Z</time>
      </trkpt>
      <trkpt lat="33.90673" lon="77.38504">
        <ele>3685.2</ele>
        <time>2015-09-02T08:43:12Z</time>
      </trkpt>
      <trkpt lat="33.90671" lon="77.38505">
        <ele>3685.2</ele>
        <time>2015-09-02T08:43:14Z</time>
      </trkpt>
      <trkpt lat="33.90667" lon="77.3851">
        <ele>3685</ele>
        <time>2015-09-02T08:43:19Z</time>
      </trkpt>
      <trkpt lat="33.90665" lon="77.3851">
        <ele>3685.2</ele>
        <time>2015-09-02T08:43:21Z</time>
      </trkpt>
      <trkpt lat="33.90664" lon="77.3851">
        <ele>3685.2</ele>
        <time>2015-09-02T08:43:23Z</time>
      </trkpt>
      <trkpt lat="33.90653" lon="77.38517">
        <ele>3685.2</ele>
        <time>2015-09-02T08:43:37Z</time>
      </trkpt>
      <trkpt lat="33.9064" lon="77.38532">
        <ele>3685.4</ele>
        <time>2015-09-02T08:43:52Z</time>
      </trkpt>
      <trkpt lat="33.90636" lon="77.38531">
        <ele>3685.8</ele>
        <time>2015-09-02T08:43:57Z</time>
      </trkpt>
      <trkpt lat="33.90622" lon="77.38542">
        <ele>3686.6</ele>
        <time>2015-09-02T08:44:12Z</time>
      </trkpt>
      <trkpt lat="33.90615" lon="77.38552">
        <ele>3686.6</ele>
        <time>2015-09-02T08:44:21Z</time>
      </trkpt>
      <trkpt lat="33.90613" lon="77.38553">
        <ele>3686.6</ele>
        <time>2015-09-02T08:44:23Z</time>
      </trkpt>
      <trkpt lat="33.9061" lon="77.38556">
        <ele>3686.4</ele>
        <time>2015-09-02T08:44:28Z</time>
      </trkpt>
      <trkpt lat="33.90602" lon="77.38559">
        <ele>3686.6</ele>
        <time>2015-09-02T08:44:36Z</time>
      </trkpt>
      <trkpt lat="33.90597" lon="77.3856">
        <ele>3686.8</ele>
        <time>2015-09-02T08:44:40Z</time>
      </trkpt>
      <trkpt lat="33.90595" lon="77.38563">
        <ele>3687</ele>
        <time>2015-09-02T08:44:44Z</time>
      </trkpt>
      <trkpt lat="33.90588" lon="77.38584">
        <ele>3687.2</ele>
        <time>2015-09-02T08:45:07Z</time>
      </trkpt>
      <trkpt lat="33.90585" lon="77.38588">
        <ele>3687.2</ele>
        <time>2015-09-02T08:45:11Z</time>
      </trkpt>
      <trkpt lat="33.90582" lon="77.38592">
        <ele>3687.2</ele>
        <time>2015-09-02T08:45:15Z</time>
      </trkpt>
      <trkpt lat="33.90572" lon="77.3861">
        <ele>3687.2</ele>
        <time>2015-09-02T08:45:27Z</time>
      </trkpt>
      <trkpt lat="33.90571" lon="77.38611">
        <ele>3687.2</ele>
        <time>2015-09-02T08:45:28Z</time>
      </trkpt>
      <trkpt lat="33.90563" lon="77.38621">
        <ele>3687.2</ele>
        <time>2015-09-02T08:45:37Z</time>
      </trkpt>
      <trkpt lat="33.90561" lon="77.38628">
        <ele>3687.2</ele>
        <time>2015-09-02T08:45:41Z</time>
      </trkpt>
      <trkpt lat="33.9056" lon="77.38631">
        <ele>3687.2</ele>
        <time>2015-09-02T08:45:43Z</time>
      </trkpt>
      <trkpt lat="33.90544" lon="77.38637">
        <ele>3686.8</ele>
        <time>2015-09-02T08:46:00Z</time>
      </trkpt>
      <trkpt lat="33.90541" lon="77.38631">
        <ele>3686.8</ele>
        <time>2015-09-02T08:46:05Z</time>
      </trkpt>
      <trkpt lat="33.9054" lon="77.38629">
        <ele>3687</ele>
        <time>2015-09-02T08:46:07Z</time>
      </trkpt>
      <trkpt lat="33.90538" lon="77.38628">
        <ele>3687</ele>
        <time>2015-09-02T08:46:09Z</time>
      </trkpt>
      <trkpt lat="33.90528" lon="77.3862">
        <ele>3686.8</ele>
        <time>2015-09-02T08:46:23Z</time>
      </trkpt>
      <trkpt lat="33.90527" lon="77.3862">
        <ele>3687</ele>
        <time>2015-09-02T08:46:25Z</time>
      </trkpt>
      <trkpt lat="33.90513" lon="77.38623">
        <ele>3687.6</ele>
        <time>2015-09-02T08:46:42Z</time>
      </trkpt>
      <trkpt lat="33.90506" lon="77.38631">
        <ele>3687.8</ele>
        <time>2015-09-02T08:46:48Z</time>
      </trkpt>
      <trkpt lat="33.90505" lon="77.38631">
        <ele>3687.8</ele>
        <time>2015-09-02T08:46:50Z</time>
      </trkpt>
      <trkpt lat="33.90501" lon="77.38632">
        <ele>3688</ele>
        <time>2015-09-02T08:46:55Z</time>
      </trkpt>
      <trkpt lat="33.90497" lon="77.38635">
        <ele>3688</ele>
        <time>2015-09-02T08:46:58Z</time>
      </trkpt>
      <trkpt lat="33.90483" lon="77.3865">
        <ele>3688</ele>
        <time>2015-09-02T08:47:12Z</time>
      </trkpt>
      <trkpt lat="33.90482" lon="77.38652">
        <ele>3688</ele>
        <time>2015-09-02T08:47:14Z</time>
      </trkpt>
      <trkpt lat="33.90481" lon="77.38654">
        <ele>3687.8</ele>
        <time>2015-09-02T08:47:16Z</time>
      </trkpt>
      <trkpt lat="33.90479" lon="77.38654">
        <ele>3687.8</ele>
        <time>2015-09-02T08:47:18Z</time>
      </trkpt>
      <trkpt lat="33.90476" lon="77.38656">
        <ele>3688</ele>
        <time>2015-09-02T08:47:21Z</time>
      </trkpt>
      <trkpt lat="33.90472" lon="77.38658">
        <ele>3688.4</ele>
        <time>2015-09-02T08:47:26Z</time>
      </trkpt>
      <trkpt lat="33.90468" lon="77.38659">
        <ele>3688.4</ele>
        <time>2015-09-02T08:47:30Z</time>
      </trkpt>
      <trkpt lat="33.90464" lon="77.38659">
        <ele>3688.4</ele>
        <time>2015-09-02T08:47:33Z</time>
      </trkpt>
      <trkpt lat="33.90458" lon="77.38659">
        <ele>3688.8</ele>
        <time>2015-09-02T08:47:39Z</time>
      </trkpt>
      <trkpt lat="33.90446" lon="77.38658">
        <ele>3688.8</ele>
        <time>2015-09-02T08:47:50Z</time>
      </trkpt>
      <trkpt lat="33.90444" lon="77.38656">
        <ele>3689</ele>
        <time>2015-09-02T08:47:52Z</time>
      </trkpt>
      <trkpt lat="33.9044" lon="77.38659">
        <ele>3689</ele>
        <time>2015-09-02T08:47:56Z</time>
      </trkpt>
      <trkpt lat="33.90436" lon="77.38661">
        <ele>3688.8</ele>
        <time>2015-09-02T08:47:59Z</time>
      </trkpt>
      <trkpt lat="33.9043" lon="77.38665">
        <ele>3688.6</ele>
        <time>2015-09-02T08:48:07Z</time>
      </trkpt>
      <trkpt lat="33.90429" lon="77.38664">
        <ele>3688.4</ele>
        <time>2015-09-02T08:48:10Z</time>
      </trkpt>
      <trkpt lat="33.90426" lon="77.38667">
        <ele>3688.6</ele>
        <time>2015-09-02T08:48:13Z</time>
      </trkpt>
      <trkpt lat="33.90423" lon="77.38666">
        <ele>3688.6</ele>
        <time>2015-09-02T08:48:18Z</time>
      </trkpt>
      <trkpt lat="33.90419" lon="77.38665">
        <ele>3689.2</ele>
        <time>2015-09-02T08:48:22Z</time>
      </trkpt>
      <trkpt lat="33.90413" lon="77.38667">
        <ele>3689.6</ele>
        <time>2015-09-02T08:48:28Z</time>
      </trkpt>
      <trkpt lat="33.90409" lon="77.38672">
        <ele>3689.8</ele>
        <time>2015-09-02T08:48:33Z</time>
      </trkpt>
      <trkpt lat="33.90407" lon="77.38672">
        <ele>3690</ele>
        <time>2015-09-02T08:48:36Z</time>
      </trkpt>
      <trkpt lat="33.90393" lon="77.38673">
        <ele>3690</ele>
        <time>2015-09-02T08:48:48Z</time>
      </trkpt>
      <trkpt lat="33.90389" lon="77.38679">
        <ele>3690</ele>
        <time>2015-09-02T08:48:52Z</time>
      </trkpt>
      <trkpt lat="33.90384" lon="77.38684">
        <ele>3690</ele>
        <time>2015-09-02T08:48:57Z</time>
      </trkpt>
      <trkpt lat="33.90369" lon="77.38692">
        <ele>3690.2</ele>
        <time>2015-09-02T08:49:08Z</time>
      </trkpt>
      <trkpt lat="33.90358" lon="77.38695">
        <ele>3689.6</ele>
        <time>2015-09-02T08:49:21Z</time>
      </trkpt>
      <trkpt lat="33.90341" lon="77.38705">
        <ele>3689.4</ele>
        <time>2015-09-02T08:49:35Z</time>
      </trkpt>
      <trkpt lat="33.9034" lon="77.38704">
        <ele>3689.4</ele>
        <time>2015-09-02T08:49:36Z</time>
      </trkpt>
      <trkpt lat="33.90322" lon="77.38704">
        <ele>3689.8</ele>
        <time>2015-09-02T08:50:01Z</time>
      </trkpt>
      <trkpt lat="33.90317" lon="77.38705">
        <ele>3690</ele>
        <time>2015-09-02T08:50:07Z</time>
      </trkpt>
      <trkpt lat="33.90311" lon="77.38706">
        <ele>3690</ele>
        <time>2015-09-02T08:50:11Z</time>
      </trkpt>
      <trkpt lat="33.90309" lon="77.38705">
        <ele>3690.2</ele>
        <time>2015-09-02T08:50:13Z</time>
      </trkpt>
      <trkpt lat="33.90305" lon="77.3871">
        <ele>3690.6</ele>
        <time>2015-09-02T08:50:19Z</time>
      </trkpt>
      <trkpt lat="33.903" lon="77.38709">
        <ele>3690.8</ele>
        <time>2015-09-02T08:50:23Z</time>
      </trkpt>
      <trkpt lat="33.90296" lon="77.3871">
        <ele>3690.8</ele>
        <time>2015-09-02T08:50:28Z</time>
      </trkpt>
      <trkpt lat="33.90293" lon="77.38711">
        <ele>3690.8</ele>
        <time>2015-09-02T08:50:30Z</time>
      </trkpt>
      <trkpt lat="33.90291" lon="77.38708">
        <ele>3690.6</ele>
        <time>2015-09-02T08:50:35Z</time>
      </trkpt>
      <trkpt lat="33.90289" lon="77.38706">
        <ele>3690.6</ele>
        <time>2015-09-02T08:50:37Z</time>
      </trkpt>
      <trkpt lat="33.90287" lon="77.38701">
        <ele>3690.8</ele>
        <time>2015-09-02T08:50:43Z</time>
      </trkpt>
      <trkpt lat="33.90284" lon="77.38701">
        <ele>3690.8</ele>
        <time>2015-09-02T08:50:45Z</time>
      </trkpt>
      <trkpt lat="33.90283" lon="77.38701">
        <ele>3691</ele>
        <time>2015-09-02T08:50:46Z</time>
      </trkpt>
      <trkpt lat="33.90278" lon="77.38701">
        <ele>3691.2</ele>
        <time>2015-09-02T08:50:52Z</time>
      </trkpt>
      <trkpt lat="33.90274" lon="77.38703">
        <ele>3691.4</ele>
        <time>2015-09-02T08:50:56Z</time>
      </trkpt>
      <trkpt lat="33.90273" lon="77.38705">
        <ele>3691.4</ele>
        <time>2015-09-02T08:50:58Z</time>
      </trkpt>
      <trkpt lat="33.90268" lon="77.38711">
        <ele>3691.4</ele>
        <time>2015-09-02T08:51:04Z</time>
      </trkpt>
      <trkpt lat="33.90266" lon="77.38714">
        <ele>3691.4</ele>
        <time>2015-09-02T08:51:06Z</time>
      </trkpt>
      <trkpt lat="33.9026" lon="77.38722">
        <ele>3692</ele>
        <time>2015-09-02T08:51:14Z</time>
      </trkpt>
      <trkpt lat="33.90246" lon="77.3874">
        <ele>3692.4</ele>
        <time>2015-09-02T08:51:22Z</time>
      </trkpt>
      <trkpt lat="33.90233" lon="77.38754">
        <ele>3692.6</ele>
        <time>2015-09-02T08:51:29Z</time>
      </trkpt>
      <trkpt lat="33.90221" lon="77.38751">
        <ele>3692.2</ele>
        <time>2015-09-02T08:51:40Z</time>
      </trkpt>
      <trkpt lat="33.90213" lon="77.38749">
        <ele>3692.4</ele>
        <time>2015-09-02T08:51:48Z</time>
      </trkpt>
      <trkpt lat="33.90208" lon="77.38741">
        <ele>3692.6</ele>
        <time>2015-09-02T08:52:00Z</time>
      </trkpt>
      <trkpt lat="33.90198" lon="77.38744">
        <ele>3693</ele>
        <time>2015-09-02T08:52:12Z</time>
      </trkpt>
      <trkpt lat="33.90187" lon="77.38747">
        <ele>3693.6</ele>
        <time>2015-09-02T08:52:23Z</time>
      </trkpt>
      <trkpt lat="33.90182" lon="77.38749">
        <ele>3693.6</ele>
        <time>2015-09-02T08:52:26Z</time>
      </trkpt>
      <trkpt lat="33.90173" lon="77.38755">
        <ele>3694</ele>
        <time>2015-09-02T08:52:33Z</time>
      </trkpt>
      <trkpt lat="33.9017" lon="77.38757">
        <ele>3693.8</ele>
        <time>2015-09-02T08:52:35Z</time>
      </trkpt>
      <trkpt lat="33.90166" lon="77.38759">
        <ele>3694</ele>
        <time>2015-09-02T08:52:39Z</time>
      </trkpt>
      <trkpt lat="33.90164" lon="77.38763">
        <ele>3694.6</ele>
        <time>2015-09-02T08:52:43Z</time>
      </trkpt>
      <trkpt lat="33.9016" lon="77.38765">
        <ele>3695.2</ele>
        <time>2015-09-02T08:52:47Z</time>
      </trkpt>
      <trkpt lat="33.90153" lon="77.38767">
        <ele>3695.4</ele>
        <time>2015-09-02T08:52:52Z</time>
      </trkpt>
      <trkpt lat="33.90144" lon="77.3876">
        <ele>3695</ele>
        <time>2015-09-02T08:53:01Z</time>
      </trkpt>
      <trkpt lat="33.90137" lon="77.38756">
        <ele>3695.4</ele>
        <time>2015-09-02T08:53:10Z</time>
      </trkpt>
      <trkpt lat="33.90134" lon="77.38756">
        <ele>3695.4</ele>
        <time>2015-09-02T08:53:12Z</time>
      </trkpt>
      <trkpt lat="33.90122" lon="77.38761">
        <ele>3695.4</ele>
        <time>2015-09-02T08:53:23Z</time>
      </trkpt>
      <trkpt lat="33.90119" lon="77.38761">
        <ele>3695.6</ele>
        <time>2015-09-02T08:53:26Z</time>
      </trkpt>
      <trkpt lat="33.90112" lon="77.38766">
        <ele>3695.8</ele>
        <time>2015-09-02T08:53:31Z</time>
      </trkpt>
      <trkpt lat="33.90107" lon="77.38768">
        <ele>3696.2</ele>
        <time>2015-09-02T08:53:36Z</time>
      </trkpt>
      <trkpt lat="33.90097" lon="77.38763">
        <ele>3696.2</ele>
        <time>2015-09-02T08:53:48Z</time>
      </trkpt>
      <trkpt lat="33.9009" lon="77.3876">
        <ele>3696.8</ele>
        <time>2015-09-02T08:53:56Z</time>
      </trkpt>
      <trkpt lat="33.90086" lon="77.38758">
        <ele>3697.2</ele>
        <time>2015-09-02T08:54:02Z</time>
      </trkpt>
      <trkpt lat="33.90071" lon="77.38753">
        <ele>3696.4</ele>
        <time>2015-09-02T08:54:29Z</time>
      </trkpt>
      <trkpt lat="33.90065" lon="77.38748">
        <ele>3696.4</ele>
        <time>2015-09-02T08:54:35Z</time>
      </trkpt>
      <trkpt lat="33.90062" lon="77.38747">
        <ele>3696.4</ele>
        <time>2015-09-02T08:54:37Z</time>
      </trkpt>
      <trkpt lat="33.90058" lon="77.38745">
        <ele>3696.6</ele>
        <time>2015-09-02T08:54:41Z</time>
      </trkpt>
      <trkpt lat="33.90051" lon="77.38748">
        <ele>3697</ele>
        <time>2015-09-02T08:54:47Z</time>
      </trkpt>
      <trkpt lat="33.9005" lon="77.38749">
        <ele>3697.2</ele>
        <time>2015-09-02T08:54:49Z</time>
      </trkpt>
      <trkpt lat="33.90049" lon="77.38749">
        <ele>3697.2</ele>
        <time>2015-09-02T08:54:50Z</time>
      </trkpt>
      <trkpt lat="33.90044" lon="77.3875">
        <ele>3698.4</ele>
        <time>2015-09-02T08:54:58Z</time>
      </trkpt>
      <trkpt lat="33.90038" lon="77.38746">
        <ele>3699.4</ele>
        <time>2015-09-02T08:55:09Z</time>
      </trkpt>
      <trkpt lat="33.90031" lon="77.38738">
        <ele>3700.2</ele>
        <time>2015-09-02T08:55:20Z</time>
      </trkpt>
      <trkpt lat="33.90024" lon="77.38739">
        <ele>3700.2</ele>
        <time>2015-09-02T08:55:28Z</time>
      </trkpt>
      <trkpt lat="33.90023" lon="77.38738">
        <ele>3700.6</ele>
        <time>2015-09-02T08:55:32Z</time>
      </trkpt>
      <trkpt lat="33.90016" lon="77.38743">
        <ele>3700.8</ele>
        <time>2015-09-02T08:55:37Z</time>
      </trkpt>
      <trkpt lat="33.90013" lon="77.38746">
        <ele>3700.8</ele>
        <time>2015-09-02T08:55:40Z</time>
      </trkpt>
      <trkpt lat="33.90012" lon="77.38748">
        <ele>3700.8</ele>
        <time>2015-09-02T08:55:44Z</time>
      </trkpt>
      <trkpt lat="33.90013" lon="77.38746">
        <ele>3701.4</ele>
        <time>2015-09-02T08:56:11Z</time>
      </trkpt>
      <trkpt lat="33.90013" lon="77.38752">
        <ele>3701.4</ele>
        <time>2015-09-02T08:56:14Z</time>
      </trkpt>
      <trkpt lat="33.90012" lon="77.3875">
        <ele>3701.2</ele>
        <time>2015-09-02T08:56:16Z</time>
      </trkpt>
      <trkpt lat="33.90014" lon="77.38744">
        <ele>3701.2</ele>
        <time>2015-09-02T08:56:42Z</time>
      </trkpt>
      <trkpt lat="33.9001" lon="77.38741">
        <ele>3701</ele>
        <time>2015-09-02T08:56:51Z</time>
      </trkpt>
      <trkpt lat="33.90008" lon="77.38744">
        <ele>3701</ele>
        <time>2015-09-02T08:56:54Z</time>
      </trkpt>
      <trkpt lat="33.89999" lon="77.38749">
        <ele>3701.6</ele>
        <time>2015-09-02T08:57:07Z</time>
      </trkpt>
      <trkpt lat="33.89981" lon="77.38757">
        <ele>3702.4</ele>
        <time>2015-09-02T08:57:34Z</time>
      </trkpt>
      <trkpt lat="33.89974" lon="77.38761">
        <ele>3700.4</ele>
        <time>2015-09-02T08:57:47Z</time>
      </trkpt>
      <trkpt lat="33.89967" lon="77.38771">
        <ele>3700</ele>
        <time>2015-09-02T08:57:59Z</time>
      </trkpt>
      <trkpt lat="33.8995" lon="77.38767">
        <ele>3700.4</ele>
        <time>2015-09-02T08:58:13Z</time>
      </trkpt>
      <trkpt lat="33.89945" lon="77.38767">
        <ele>3700.4</ele>
        <time>2015-09-02T08:58:15Z</time>
      </trkpt>
      <trkpt lat="33.89932" lon="77.38765">
        <ele>3701.4</ele>
        <time>2015-09-02T08:58:32Z</time>
      </trkpt>
      <trkpt lat="33.89924" lon="77.3876">
        <ele>3702.4</ele>
        <time>2015-09-02T08:58:41Z</time>
      </trkpt>
      <trkpt lat="33.89923" lon="77.38759">
        <ele>3702.6</ele>
        <time>2015-09-02T08:58:42Z</time>
      </trkpt>
      <trkpt lat="33.8992" lon="77.38759">
        <ele>3702.8</ele>
        <time>2015-09-02T08:58:44Z</time>
      </trkpt>
      <trkpt lat="33.89914" lon="77.38758">
        <ele>3703.4</ele>
        <time>2015-09-02T08:58:53Z</time>
      </trkpt>
      <trkpt lat="33.89912" lon="77.38757">
        <ele>3704</ele>
        <time>2015-09-02T08:58:57Z</time>
      </trkpt>
      <trkpt lat="33.89909" lon="77.38757">
        <ele>3704.6</ele>
        <time>2015-09-02T08:59:02Z</time>
      </trkpt>
      <trkpt lat="33.89903" lon="77.38757">
        <ele>3705.6</ele>
        <time>2015-09-02T08:59:12Z</time>
      </trkpt>
      <trkpt lat="33.89898" lon="77.38754">
        <ele>3706.8</ele>
        <time>2015-09-02T08:59:20Z</time>
      </trkpt>
      <trkpt lat="33.89892" lon="77.38747">
        <ele>3707.8</ele>
        <time>2015-09-02T08:59:33Z</time>
      </trkpt>
      <trkpt lat="33.89878" lon="77.38756">
        <ele>3708.8</ele>
        <time>2015-09-02T08:59:45Z</time>
      </trkpt>
      <trkpt lat="33.89872" lon="77.38758">
        <ele>3709.8</ele>
        <time>2015-09-02T08:59:54Z</time>
      </trkpt>
      <trkpt lat="33.8987" lon="77.38759">
        <ele>3710</ele>
        <time>2015-09-02T08:59:56Z</time>
      </trkpt>
      <trkpt lat="33.89867" lon="77.38757">
        <ele>3711</ele>
        <time>2015-09-02T09:00:02Z</time>
      </trkpt>
      <trkpt lat="33.89863" lon="77.38756">
        <ele>3712</ele>
        <time>2015-09-02T09:00:09Z</time>
      </trkpt>
      <trkpt lat="33.89858" lon="77.38756">
        <ele>3713</ele>
        <time>2015-09-02T09:00:18Z</time>
      </trkpt>
      <trkpt lat="33.89857" lon="77.38756">
        <ele>3713</ele>
        <time>2015-09-02T09:00:19Z</time>
      </trkpt>
      <trkpt lat="33.89853" lon="77.38756">
        <ele>3713.4</ele>
        <time>2015-09-02T09:00:25Z</time>
      </trkpt>
      <trkpt lat="33.89847" lon="77.38762">
        <ele>3714</ele>
        <time>2015-09-02T09:00:38Z</time>
      </trkpt>
      <trkpt lat="33.89846" lon="77.38762">
        <ele>3714</ele>
        <time>2015-09-02T09:00:41Z</time>
      </trkpt>
      <trkpt lat="33.89838" lon="77.38765">
        <ele>3715.2</ele>
        <time>2015-09-02T09:00:52Z</time>
      </trkpt>
      <trkpt lat="33.89837" lon="77.38766">
        <ele>3715.4</ele>
        <time>2015-09-02T09:00:53Z</time>
      </trkpt>
      <trkpt lat="33.89833" lon="77.38768">
        <ele>3716.2</ele>
        <time>2015-09-02T09:01:02Z</time>
      </trkpt>
      <trkpt lat="33.89825" lon="77.38786">
        <ele>3717</ele>
        <time>2015-09-02T09:01:23Z</time>
      </trkpt>
      <trkpt lat="33.8982" lon="77.38803">
        <ele>3717.4</ele>
        <time>2015-09-02T09:01:40Z</time>
      </trkpt>
      <trkpt lat="33.89818" lon="77.38806">
        <ele>3718.6</ele>
        <time>2015-09-02T09:01:46Z</time>
      </trkpt>
      <trkpt lat="33.89822" lon="77.38809">
        <ele>3717.6</ele>
        <time>2015-09-02T09:01:57Z</time>
      </trkpt>
      <trkpt lat="33.89826" lon="77.38807">
        <ele>3717.4</ele>
        <time>2015-09-02T09:02:04Z</time>
      </trkpt>
      <trkpt lat="33.89823" lon="77.38813">
        <ele>3717.6</ele>
        <time>2015-09-02T09:02:18Z</time>
      </trkpt>
      <trkpt lat="33.89824" lon="77.38815">
        <ele>3717.6</ele>
        <time>2015-09-02T09:02:20Z</time>
      </trkpt>
      <trkpt lat="33.89813" lon="77.38823">
        <ele>3718.2</ele>
        <time>2015-09-02T09:02:43Z</time>
      </trkpt>
      <trkpt lat="33.89812" lon="77.38823">
        <ele>3718.6</ele>
        <time>2015-09-02T09:02:44Z</time>
      </trkpt>
      <trkpt lat="33.89811" lon="77.38824">
        <ele>3718.8</ele>
        <time>2015-09-02T09:02:46Z</time>
      </trkpt>
      <trkpt lat="33.89809" lon="77.38835">
        <ele>3719.6</ele>
        <time>2015-09-02T09:03:26Z</time>
      </trkpt>
      <trkpt lat="33.89804" lon="77.38838">
        <ele>3719.6</ele>
        <time>2015-09-02T09:03:29Z</time>
      </trkpt>
      <trkpt lat="33.89802" lon="77.38837">
        <ele>3719</ele>
        <time>2015-09-02T09:03:38Z</time>
      </trkpt>
      <trkpt lat="33.89807" lon="77.38837">
        <ele>3718.4</ele>
        <time>2015-09-02T09:03:51Z</time>
      </trkpt>
      <trkpt lat="33.89808" lon="77.38839">
        <ele>3719.6</ele>
        <time>2015-09-02T09:03:58Z</time>
      </trkpt>
      <trkpt lat="33.89808" lon="77.38835">
        <ele>3718.6</ele>
        <time>2015-09-02T09:04:20Z</time>
      </trkpt>
      <trkpt lat="33.89808" lon="77.38838">
        <ele>3719.8</ele>
        <time>2015-09-02T09:04:40Z</time>
      </trkpt>
      <trkpt lat="33.89805" lon="77.38841">
        <ele>3720.2</ele>
        <time>2015-09-02T09:05:33Z</time>
      </trkpt>
      <trkpt lat="33.89808" lon="77.38837">
        <ele>3720.2</ele>
        <time>2015-09-02T09:05:38Z</time>
      </trkpt>
      <trkpt lat="33.89803" lon="77.38843">
        <ele>3720.4</ele>
        <time>2015-09-02T09:06:09Z</time>
      </trkpt>
      <trkpt lat="33.89805" lon="77.38846">
        <ele>3720</ele>
        <time>2015-09-02T09:06:12Z</time>
      </trkpt>
      <trkpt lat="33.89809" lon="77.38842">
        <ele>3720.6</ele>
        <time>2015-09-02T09:06:51Z</time>
      </trkpt>
      <trkpt lat="33.8981" lon="77.38839">
        <ele>3719.6</ele>
        <time>2015-09-02T09:07:02Z</time>
      </trkpt>
      <trkpt lat="33.89813" lon="77.38838">
        <ele>3719.2</ele>
        <time>2015-09-02T09:07:05Z</time>
      </trkpt>
      <trkpt lat="33.89814" lon="77.38838">
        <ele>3719</ele>
        <time>2015-09-02T09:07:07Z</time>
      </trkpt>
      <trkpt lat="33.89811" lon="77.38838">
        <ele>3720.8</ele>
        <time>2015-09-02T09:07:14Z</time>
      </trkpt>
      <trkpt lat="33.89806" lon="77.38843">
        <ele>3719.8</ele>
        <time>2015-09-02T09:07:32Z</time>
      </trkpt>
      <trkpt lat="33.89808" lon="77.3886">
        <ele>3718.6</ele>
        <time>2015-09-02T09:08:09Z</time>
      </trkpt>
      <trkpt lat="33.89807" lon="77.38853">
        <ele>3718.4</ele>
        <time>2015-09-02T09:08:15Z</time>
      </trkpt>
      <trkpt lat="33.89804" lon="77.38842">
        <ele>3719.6</ele>
        <time>2015-09-02T09:08:27Z</time>
      </trkpt>
      <trkpt lat="33.89809" lon="77.3884">
        <ele>3719.8</ele>
        <time>2015-09-02T09:08:44Z</time>
      </trkpt>
      <trkpt lat="33.89809" lon="77.38837">
        <ele>3720.2</ele>
        <time>2015-09-02T09:09:02Z</time>
      </trkpt>
      <trkpt lat="33.89808" lon="77.38838">
        <ele>3720.2</ele>
        <time>2015-09-02T09:09:04Z</time>
      </trkpt>
      <trkpt lat="33.89808" lon="77.38838">
        <ele>3646.6</ele>
        <time>2015-09-02T09:09:09Z</time>
      </trkpt>
      <trkpt lat="33.89784" lon="77.3912">
        <ele>3713.2</ele>
        <time>2015-09-02T09:14:11Z</time>
      </trkpt>
      <trkpt lat="33.89785" lon="77.39129">
        <ele>3713.2</ele>
        <time>2015-09-02T09:14:18Z</time>
      </trkpt>
      <trkpt lat="33.89783" lon="77.39134">
        <ele>3713.4</ele>
        <time>2015-09-02T09:14:22Z</time>
      </trkpt>
      <trkpt lat="33.89782" lon="77.39139">
        <ele>3713.4</ele>
        <time>2015-09-02T09:14:26Z</time>
      </trkpt>
      <trkpt lat="33.89782" lon="77.39143">
        <ele>3713.4</ele>
        <time>2015-09-02T09:14:29Z</time>
      </trkpt>
      <trkpt lat="33.89778" lon="77.39151">
        <ele>3713.4</ele>
        <time>2015-09-02T09:14:36Z</time>
      </trkpt>
      <trkpt lat="33.89776" lon="77.39154">
        <ele>3713.2</ele>
        <time>2015-09-02T09:14:40Z</time>
      </trkpt>
      <trkpt lat="33.89775" lon="77.3916">
        <ele>3713.2</ele>
        <time>2015-09-02T09:14:43Z</time>
      </trkpt>
      <trkpt lat="33.89772" lon="77.39181">
        <ele>3714</ele>
        <time>2015-09-02T09:14:57Z</time>
      </trkpt>
      <trkpt lat="33.89776" lon="77.39197">
        <ele>3713.8</ele>
        <time>2015-09-02T09:15:10Z</time>
      </trkpt>
      <trkpt lat="33.89776" lon="77.39199">
        <ele>3713.6</ele>
        <time>2015-09-02T09:15:13Z</time>
      </trkpt>
      <trkpt lat="33.89775" lon="77.39202">
        <ele>3713.6</ele>
        <time>2015-09-02T09:15:15Z</time>
      </trkpt>
      <trkpt lat="33.89776" lon="77.39206">
        <ele>3713.8</ele>
        <time>2015-09-02T09:15:19Z</time>
      </trkpt>
      <trkpt lat="33.89774" lon="77.39213">
        <ele>3714.2</ele>
        <time>2015-09-02T09:15:24Z</time>
      </trkpt>
      <trkpt lat="33.89771" lon="77.39219">
        <ele>3714.4</ele>
        <time>2015-09-02T09:15:28Z</time>
      </trkpt>
      <trkpt lat="33.89772" lon="77.39242">
        <ele>3715</ele>
        <time>2015-09-02T09:15:45Z</time>
      </trkpt>
      <trkpt lat="33.89768" lon="77.39259">
        <ele>3715.2</ele>
        <time>2015-09-02T09:15:58Z</time>
      </trkpt>
      <trkpt lat="33.89767" lon="77.39264">
        <ele>3715.4</ele>
        <time>2015-09-02T09:16:02Z</time>
      </trkpt>
      <trkpt lat="33.8976" lon="77.39275">
        <ele>3715.6</ele>
        <time>2015-09-02T09:16:17Z</time>
      </trkpt>
      <trkpt lat="33.8976" lon="77.39282">
        <ele>3715.6</ele>
        <time>2015-09-02T09:16:21Z</time>
      </trkpt>
      <trkpt lat="33.89759" lon="77.39293">
        <ele>3715.6</ele>
        <time>2015-09-02T09:16:26Z</time>
      </trkpt>
      <trkpt lat="33.89759" lon="77.393">
        <ele>3716</ele>
        <time>2015-09-02T09:16:31Z</time>
      </trkpt>
      <trkpt lat="33.89759" lon="77.39304">
        <ele>3716</ele>
        <time>2015-09-02T09:16:35Z</time>
      </trkpt>
      <trkpt lat="33.8975" lon="77.39324">
        <ele>3715.8</ele>
        <time>2015-09-02T09:16:50Z</time>
      </trkpt>
      <trkpt lat="33.8975" lon="77.39325">
        <ele>3715.8</ele>
        <time>2015-09-02T09:16:51Z</time>
      </trkpt>
      <trkpt lat="33.89752" lon="77.39326">
        <ele>3716</ele>
        <time>2015-09-02T09:16:54Z</time>
      </trkpt>
      <trkpt lat="33.89746" lon="77.39336">
        <ele>3716.4</ele>
        <time>2015-09-02T09:17:02Z</time>
      </trkpt>
      <trkpt lat="33.89744" lon="77.39344">
        <ele>3716.6</ele>
        <time>2015-09-02T09:17:08Z</time>
      </trkpt>
      <trkpt lat="33.89735" lon="77.39362">
        <ele>3717.2</ele>
        <time>2015-09-02T09:17:25Z</time>
      </trkpt>
      <trkpt lat="33.89731" lon="77.39367">
        <ele>3717</ele>
        <time>2015-09-02T09:17:30Z</time>
      </trkpt>
      <trkpt lat="33.89719" lon="77.39384">
        <ele>3717.2</ele>
        <time>2015-09-02T09:17:45Z</time>
      </trkpt>
      <trkpt lat="33.89718" lon="77.39387">
        <ele>3717.4</ele>
        <time>2015-09-02T09:17:47Z</time>
      </trkpt>
      <trkpt lat="33.8971" lon="77.39408">
        <ele>3717.4</ele>
        <time>2015-09-02T09:18:01Z</time>
      </trkpt>
      <trkpt lat="33.89703" lon="77.39416">
        <ele>3717.8</ele>
        <time>2015-09-02T09:18:09Z</time>
      </trkpt>
      <trkpt lat="33.89701" lon="77.3942">
        <ele>3717.8</ele>
        <time>2015-09-02T09:18:12Z</time>
      </trkpt>
      <trkpt lat="33.89693" lon="77.39435">
        <ele>3718.2</ele>
        <time>2015-09-02T09:18:25Z</time>
      </trkpt>
      <trkpt lat="33.89683" lon="77.39445">
        <ele>3718.4</ele>
        <time>2015-09-02T09:18:54Z</time>
      </trkpt>
      <trkpt lat="33.89679" lon="77.39457">
        <ele>3718.8</ele>
        <time>2015-09-02T09:19:05Z</time>
      </trkpt>
      <trkpt lat="33.89676" lon="77.39458">
        <ele>3718.8</ele>
        <time>2015-09-02T09:19:07Z</time>
      </trkpt>
      <trkpt lat="33.89666" lon="77.39466">
        <ele>3718</ele>
        <time>2015-09-02T09:19:17Z</time>
      </trkpt>
      <trkpt lat="33.89659" lon="77.39475">
        <ele>3718.2</ele>
        <time>2015-09-02T09:19:24Z</time>
      </trkpt>
      <trkpt lat="33.89658" lon="77.39482">
        <ele>3718.2</ele>
        <time>2015-09-02T09:19:27Z</time>
      </trkpt>
      <trkpt lat="33.89651" lon="77.39505">
        <ele>3718.4</ele>
        <time>2015-09-02T09:19:44Z</time>
      </trkpt>
      <trkpt lat="33.8965" lon="77.39514">
        <ele>3718.6</ele>
        <time>2015-09-02T09:19:50Z</time>
      </trkpt>
      <trkpt lat="33.89645" lon="77.39531">
        <ele>3719</ele>
        <time>2015-09-02T09:20:03Z</time>
      </trkpt>
      <trkpt lat="33.89641" lon="77.39534">
        <ele>3719</ele>
        <time>2015-09-02T09:20:07Z</time>
      </trkpt>
      <trkpt lat="33.89636" lon="77.39548">
        <ele>3719.4</ele>
        <time>2015-09-02T09:20:18Z</time>
      </trkpt>
      <trkpt lat="33.89633" lon="77.39552">
        <ele>3719.2</ele>
        <time>2015-09-02T09:20:22Z</time>
      </trkpt>
      <trkpt lat="33.89627" lon="77.3956">
        <ele>3719.2</ele>
        <time>2015-09-02T09:20:28Z</time>
      </trkpt>
      <trkpt lat="33.89626" lon="77.39569">
        <ele>3719.4</ele>
        <time>2015-09-02T09:20:35Z</time>
      </trkpt>
      <trkpt lat="33.89625" lon="77.39571">
        <ele>3719.4</ele>
        <time>2015-09-02T09:20:37Z</time>
      </trkpt>
      <trkpt lat="33.89623" lon="77.39576">
        <ele>3719.8</ele>
        <time>2015-09-02T09:20:41Z</time>
      </trkpt>
      <trkpt lat="33.89611" lon="77.39592">
        <ele>3720.4</ele>
        <time>2015-09-02T09:20:57Z</time>
      </trkpt>
      <trkpt lat="33.89611" lon="77.39593">
        <ele>3720.4</ele>
        <time>2015-09-02T09:20:58Z</time>
      </trkpt>
      <trkpt lat="33.8961" lon="77.39595">
        <ele>3720.4</ele>
        <time>2015-09-02T09:21:00Z</time>
      </trkpt>
      <trkpt lat="33.89608" lon="77.39597">
        <ele>3720.4</ele>
        <time>2015-09-02T09:21:03Z</time>
      </trkpt>
      <trkpt lat="33.89608" lon="77.39598">
        <ele>3720.6</ele>
        <time>2015-09-02T09:21:04Z</time>
      </trkpt>
      <trkpt lat="33.89604" lon="77.39605">
        <ele>3720.8</ele>
        <time>2015-09-02T09:21:09Z</time>
      </trkpt>
      <trkpt lat="33.896" lon="77.39628">
        <ele>3720.6</ele>
        <time>2015-09-02T09:21:24Z</time>
      </trkpt>
      <trkpt lat="33.89597" lon="77.39649">
        <ele>3721</ele>
        <time>2015-09-02T09:21:41Z</time>
      </trkpt>
      <trkpt lat="33.89591" lon="77.39652">
        <ele>3721.2</ele>
        <time>2015-09-02T09:21:47Z</time>
      </trkpt>
      <trkpt lat="33.89588" lon="77.39653">
        <ele>3721.2</ele>
        <time>2015-09-02T09:21:50Z</time>
      </trkpt>
      <trkpt lat="33.89587" lon="77.39655">
        <ele>3721.2</ele>
        <time>2015-09-02T09:21:52Z</time>
      </trkpt>
      <trkpt lat="33.89582" lon="77.39662">
        <ele>3721.6</ele>
        <time>2015-09-02T09:22:00Z</time>
      </trkpt>
      <trkpt lat="33.89577" lon="77.39678">
        <ele>3721.8</ele>
        <time>2015-09-02T09:22:14Z</time>
      </trkpt>
      <trkpt lat="33.89569" lon="77.39693">
        <ele>3722</ele>
        <time>2015-09-02T09:22:25Z</time>
      </trkpt>
      <trkpt lat="33.89566" lon="77.39698">
        <ele>3722.2</ele>
        <time>2015-09-02T09:22:30Z</time>
      </trkpt>
      <trkpt lat="33.89564" lon="77.39721">
        <ele>3722.4</ele>
        <time>2015-09-02T09:22:46Z</time>
      </trkpt>
      <trkpt lat="33.89555" lon="77.3974">
        <ele>3722.4</ele>
        <time>2015-09-02T09:23:01Z</time>
      </trkpt>
      <trkpt lat="33.89554" lon="77.39741">
        <ele>3722.4</ele>
        <time>2015-09-02T09:23:02Z</time>
      </trkpt>
      <trkpt lat="33.89551" lon="77.39745">
        <ele>3722.6</ele>
        <time>2015-09-02T09:23:06Z</time>
      </trkpt>
      <trkpt lat="33.8955" lon="77.39745">
        <ele>3722.6</ele>
        <time>2015-09-02T09:23:07Z</time>
      </trkpt>
      <trkpt lat="33.89547" lon="77.39747">
        <ele>3722.8</ele>
        <time>2015-09-02T09:23:11Z</time>
      </trkpt>
      <trkpt lat="33.89543" lon="77.39754">
        <ele>3722.8</ele>
        <time>2015-09-02T09:23:17Z</time>
      </trkpt>
      <trkpt lat="33.89534" lon="77.39772">
        <ele>3723.6</ele>
        <time>2015-09-02T09:23:31Z</time>
      </trkpt>
      <trkpt lat="33.89534" lon="77.39774">
        <ele>3723.8</ele>
        <time>2015-09-02T09:23:34Z</time>
      </trkpt>
      <trkpt lat="33.8953" lon="77.39782">
        <ele>3723.8</ele>
        <time>2015-09-02T09:23:41Z</time>
      </trkpt>
      <trkpt lat="33.8953" lon="77.39796">
        <ele>3723.4</ele>
        <time>2015-09-02T09:23:51Z</time>
      </trkpt>
      <trkpt lat="33.89526" lon="77.39799">
        <ele>3723.6</ele>
        <time>2015-09-02T09:23:58Z</time>
      </trkpt>
      <trkpt lat="33.89524" lon="77.398">
        <ele>3723.6</ele>
        <time>2015-09-02T09:24:00Z</time>
      </trkpt>
      <trkpt lat="33.89522" lon="77.39811">
        <ele>3724</ele>
        <time>2015-09-02T09:24:09Z</time>
      </trkpt>
      <trkpt lat="33.8952" lon="77.39828">
        <ele>3724.4</ele>
        <time>2015-09-02T09:24:20Z</time>
      </trkpt>
      <trkpt lat="33.89521" lon="77.39834">
        <ele>3724.2</ele>
        <time>2015-09-02T09:24:25Z</time>
      </trkpt>
      <trkpt lat="33.89513" lon="77.39848">
        <ele>3724.6</ele>
        <time>2015-09-02T09:24:36Z</time>
      </trkpt>
      <trkpt lat="33.89512" lon="77.3985">
        <ele>3724.8</ele>
        <time>2015-09-02T09:24:39Z</time>
      </trkpt>
      <trkpt lat="33.89507" lon="77.39872">
        <ele>3725</ele>
        <time>2015-09-02T09:24:54Z</time>
      </trkpt>
      <trkpt lat="33.895" lon="77.39885">
        <ele>3725.4</ele>
        <time>2015-09-02T09:25:08Z</time>
      </trkpt>
      <trkpt lat="33.89495" lon="77.39893">
        <ele>3725.6</ele>
        <time>2015-09-02T09:25:17Z</time>
      </trkpt>
      <trkpt lat="33.89494" lon="77.39901">
        <ele>3725.4</ele>
        <time>2015-09-02T09:25:20Z</time>
      </trkpt>
      <trkpt lat="33.89493" lon="77.39904">
        <ele>3725.4</ele>
        <time>2015-09-02T09:25:22Z</time>
      </trkpt>
      <trkpt lat="33.89492" lon="77.3991">
        <ele>3725.6</ele>
        <time>2015-09-02T09:25:27Z</time>
      </trkpt>
      <trkpt lat="33.89491" lon="77.39917">
        <ele>3726</ele>
        <time>2015-09-02T09:25:33Z</time>
      </trkpt>
      <trkpt lat="33.89488" lon="77.39918">
        <ele>3726</ele>
        <time>2015-09-02T09:25:36Z</time>
      </trkpt>
      <trkpt lat="33.89487" lon="77.3992">
        <ele>3726</ele>
        <time>2015-09-02T09:25:38Z</time>
      </trkpt>
      <trkpt lat="33.89485" lon="77.39922">
        <ele>3726.2</ele>
        <time>2015-09-02T09:25:40Z</time>
      </trkpt>
      <trkpt lat="33.89476" lon="77.39932">
        <ele>3726.6</ele>
        <time>2015-09-02T09:25:51Z</time>
      </trkpt>
      <trkpt lat="33.8947" lon="77.39943">
        <ele>3727</ele>
        <time>2015-09-02T09:26:01Z</time>
      </trkpt>
      <trkpt lat="33.89467" lon="77.39947">
        <ele>3727</ele>
        <time>2015-09-02T09:26:04Z</time>
      </trkpt>
      <trkpt lat="33.89465" lon="77.3995">
        <ele>3727</ele>
        <time>2015-09-02T09:26:07Z</time>
      </trkpt>
      <trkpt lat="33.89461" lon="77.39957">
        <ele>3726.8</ele>
        <time>2015-09-02T09:26:14Z</time>
      </trkpt>
      <trkpt lat="33.8945" lon="77.39975">
        <ele>3726.6</ele>
        <time>2015-09-02T09:26:30Z</time>
      </trkpt>
      <trkpt lat="33.89448" lon="77.39977">
        <ele>3726.6</ele>
        <time>2015-09-02T09:26:33Z</time>
      </trkpt>
      <trkpt lat="33.89436" lon="77.3998">
        <ele>3727.4</ele>
        <time>2015-09-02T09:26:53Z</time>
      </trkpt>
      <trkpt lat="33.89425" lon="77.39989">
        <ele>3727.2</ele>
        <time>2015-09-02T09:26:59Z</time>
      </trkpt>
      <trkpt lat="33.89423" lon="77.39989">
        <ele>3727.2</ele>
        <time>2015-09-02T09:27:02Z</time>
      </trkpt>
      <trkpt lat="33.89416" lon="77.39993">
        <ele>3727.4</ele>
        <time>2015-09-02T09:27:06Z</time>
      </trkpt>
      <trkpt lat="33.89408" lon="77.39984">
        <ele>3727.2</ele>
        <time>2015-09-02T09:27:49Z</time>
      </trkpt>
      <trkpt lat="33.89411" lon="77.39989">
        <ele>3727.2</ele>
        <time>2015-09-02T09:27:54Z</time>
      </trkpt>
      <trkpt lat="33.89414" lon="77.39997">
        <ele>3727.2</ele>
        <time>2015-09-02T09:28:00Z</time>
      </trkpt>
      <trkpt lat="33.89412" lon="77.4">
        <ele>3726.8</ele>
        <time>2015-09-02T09:28:37Z</time>
      </trkpt>
      <trkpt lat="33.8941" lon="77.39994">
        <ele>3726.6</ele>
        <time>2015-09-02T09:29:36Z</time>
      </trkpt>
      <trkpt lat="33.89409" lon="77.39998">
        <ele>3726.4</ele>
        <time>2015-09-02T09:30:49Z</time>
      </trkpt>
      <trkpt lat="33.89404" lon="77.40012">
        <ele>3726.8</ele>
        <time>2015-09-02T09:31:23Z</time>
      </trkpt>
      <trkpt lat="33.89409" lon="77.4003">
        <ele>3727</ele>
        <time>2015-09-02T09:31:39Z</time>
      </trkpt>
      <trkpt lat="33.8941" lon="77.4004">
        <ele>3727</ele>
        <time>2015-09-02T09:31:49Z</time>
      </trkpt>
      <trkpt lat="33.89401" lon="77.40057">
        <ele>3727.6</ele>
        <time>2015-09-02T09:32:07Z</time>
      </trkpt>
      <trkpt lat="33.89401" lon="77.4006">
        <ele>3727.6</ele>
        <time>2015-09-02T09:32:10Z</time>
      </trkpt>
      <trkpt lat="33.89401" lon="77.40061">
        <ele>3727.8</ele>
        <time>2015-09-02T09:32:11Z</time>
      </trkpt>
      <trkpt lat="33.89401" lon="77.40066">
        <ele>3728</ele>
        <time>2015-09-02T09:32:14Z</time>
      </trkpt>
      <trkpt lat="33.89402" lon="77.40077">
        <ele>3728</ele>
        <time>2015-09-02T09:32:23Z</time>
      </trkpt>
      <trkpt lat="33.89402" lon="77.40084">
        <ele>3728.2</ele>
        <time>2015-09-02T09:32:28Z</time>
      </trkpt>
      <trkpt lat="33.89402" lon="77.40089">
        <ele>3728.4</ele>
        <time>2015-09-02T09:32:32Z</time>
      </trkpt>
      <trkpt lat="33.89403" lon="77.40098">
        <ele>3728.2</ele>
        <time>2015-09-02T09:32:41Z</time>
      </trkpt>
      <trkpt lat="33.89404" lon="77.40106">
        <ele>3728.4</ele>
        <time>2015-09-02T09:32:48Z</time>
      </trkpt>
      <trkpt lat="33.89405" lon="77.40109">
        <ele>3728.2</ele>
        <time>2015-09-02T09:32:50Z</time>
      </trkpt>
      <trkpt lat="33.89402" lon="77.40115">
        <ele>3728.4</ele>
        <time>2015-09-02T09:32:57Z</time>
      </trkpt>
      <trkpt lat="33.89402" lon="77.40119">
        <ele>3728.6</ele>
        <time>2015-09-02T09:33:01Z</time>
      </trkpt>
      <trkpt lat="33.89401" lon="77.40122">
        <ele>3728.8</ele>
        <time>2015-09-02T09:33:04Z</time>
      </trkpt>
      <trkpt lat="33.89401" lon="77.40131">
        <ele>3728.4</ele>
        <time>2015-09-02T09:33:11Z</time>
      </trkpt>
      <trkpt lat="33.894" lon="77.40134">
        <ele>3728.6</ele>
        <time>2015-09-02T09:33:14Z</time>
      </trkpt>
      <trkpt lat="33.89394" lon="77.40154">
        <ele>3729</ele>
        <time>2015-09-02T09:33:31Z</time>
      </trkpt>
      <trkpt lat="33.894" lon="77.40163">
        <ele>3729.2</ele>
        <time>2015-09-02T09:33:40Z</time>
      </trkpt>
      <trkpt lat="33.89406" lon="77.40184">
        <ele>3729.4</ele>
        <time>2015-09-02T09:33:57Z</time>
      </trkpt>
      <trkpt lat="33.89407" lon="77.40187">
        <ele>3729.8</ele>
        <time>2015-09-02T09:33:59Z</time>
      </trkpt>
      <trkpt lat="33.89406" lon="77.40194">
        <ele>3730.2</ele>
        <time>2015-09-02T09:34:05Z</time>
      </trkpt>
      <trkpt lat="33.89406" lon="77.40201">
        <ele>3730.2</ele>
        <time>2015-09-02T09:34:14Z</time>
      </trkpt>
      <trkpt lat="33.89405" lon="77.40203">
        <ele>3730.2</ele>
        <time>2015-09-02T09:34:16Z</time>
      </trkpt>
      <trkpt lat="33.89403" lon="77.40206">
        <ele>3730</ele>
        <time>2015-09-02T09:34:21Z</time>
      </trkpt>
      <trkpt lat="33.89406" lon="77.4021">
        <ele>3730.2</ele>
        <time>2015-09-02T09:34:25Z</time>
      </trkpt>
      <trkpt lat="33.89408" lon="77.40213">
        <ele>3730.4</ele>
        <time>2015-09-02T09:34:27Z</time>
      </trkpt>
      <trkpt lat="33.8941" lon="77.40217">
        <ele>3730.4</ele>
        <time>2015-09-02T09:34:31Z</time>
      </trkpt>
      <trkpt lat="33.89413" lon="77.40221">
        <ele>3730.2</ele>
        <time>2015-09-02T09:34:36Z</time>
      </trkpt>
      <trkpt lat="33.89411" lon="77.40223">
        <ele>3730.2</ele>
        <time>2015-09-02T09:34:38Z</time>
      </trkpt>
      <trkpt lat="33.89409" lon="77.40224">
        <ele>3730.6</ele>
        <time>2015-09-02T09:34:41Z</time>
      </trkpt>
      <trkpt lat="33.89409" lon="77.40225">
        <ele>3731</ele>
        <time>2015-09-02T09:34:42Z</time>
      </trkpt>
      <trkpt lat="33.89408" lon="77.40227">
        <ele>3731.4</ele>
        <time>2015-09-02T09:34:44Z</time>
      </trkpt>
      <trkpt lat="33.89407" lon="77.4024">
        <ele>3732</ele>
        <time>2015-09-02T09:34:54Z</time>
      </trkpt>
      <trkpt lat="33.8941" lon="77.40247">
        <ele>3732.2</ele>
        <time>2015-09-02T09:35:01Z</time>
      </trkpt>
      <trkpt lat="33.89404" lon="77.40251">
        <ele>3732.2</ele>
        <time>2015-09-02T09:35:05Z</time>
      </trkpt>
      <trkpt lat="33.89402" lon="77.40269">
        <ele>3732</ele>
        <time>2015-09-02T09:35:18Z</time>
      </trkpt>
      <trkpt lat="33.89403" lon="77.40289">
        <ele>3732.6</ele>
        <time>2015-09-02T09:35:34Z</time>
      </trkpt>
      <trkpt lat="33.89407" lon="77.40303">
        <ele>3732.2</ele>
        <time>2015-09-02T09:35:51Z</time>
      </trkpt>
      <trkpt lat="33.89407" lon="77.40308">
        <ele>3732.2</ele>
        <time>2015-09-02T09:35:56Z</time>
      </trkpt>
      <trkpt lat="33.89408" lon="77.40311">
        <ele>3732.6</ele>
        <time>2015-09-02T09:35:59Z</time>
      </trkpt>
      <trkpt lat="33.89409" lon="77.40318">
        <ele>3732.6</ele>
        <time>2015-09-02T09:36:04Z</time>
      </trkpt>
      <trkpt lat="33.89408" lon="77.40321">
        <ele>3732.6</ele>
        <time>2015-09-02T09:36:07Z</time>
      </trkpt>
      <trkpt lat="33.89406" lon="77.40328">
        <ele>3732.8</ele>
        <time>2015-09-02T09:36:12Z</time>
      </trkpt>
      <trkpt lat="33.89407" lon="77.4034">
        <ele>3733</ele>
        <time>2015-09-02T09:36:20Z</time>
      </trkpt>
      <trkpt lat="33.89407" lon="77.40342">
        <ele>3733</ele>
        <time>2015-09-02T09:36:22Z</time>
      </trkpt>
      <trkpt lat="33.89405" lon="77.40354">
        <ele>3732.6</ele>
        <time>2015-09-02T09:36:31Z</time>
      </trkpt>
      <trkpt lat="33.89405" lon="77.40357">
        <ele>3732.6</ele>
        <time>2015-09-02T09:36:33Z</time>
      </trkpt>
      <trkpt lat="33.89405" lon="77.40371">
        <ele>3732.6</ele>
        <time>2015-09-02T09:36:44Z</time>
      </trkpt>
      <trkpt lat="33.89403" lon="77.40375">
        <ele>3733.4</ele>
        <time>2015-09-02T09:36:49Z</time>
      </trkpt>
      <trkpt lat="33.89399" lon="77.40377">
        <ele>3734</ele>
        <time>2015-09-02T09:36:55Z</time>
      </trkpt>
      <trkpt lat="33.89392" lon="77.40389">
        <ele>3734.4</ele>
        <time>2015-09-02T09:37:07Z</time>
      </trkpt>
      <trkpt lat="33.89392" lon="77.4039">
        <ele>3734.4</ele>
        <time>2015-09-02T09:37:08Z</time>
      </trkpt>
      <trkpt lat="33.89385" lon="77.40408">
        <ele>3735</ele>
        <time>2015-09-02T09:37:22Z</time>
      </trkpt>
      <trkpt lat="33.89376" lon="77.40427">
        <ele>3735.8</ele>
        <time>2015-09-02T09:37:37Z</time>
      </trkpt>
      <trkpt lat="33.89374" lon="77.40429">
        <ele>3736</ele>
        <time>2015-09-02T09:37:41Z</time>
      </trkpt>
      <trkpt lat="33.89373" lon="77.40451">
        <ele>3737.2</ele>
        <time>2015-09-02T09:37:59Z</time>
      </trkpt>
      <trkpt lat="33.89374" lon="77.40457">
        <ele>3737.6</ele>
        <time>2015-09-02T09:38:05Z</time>
      </trkpt>
      <trkpt lat="33.89374" lon="77.40459">
        <ele>3737.6</ele>
        <time>2015-09-02T09:38:07Z</time>
      </trkpt>
      <trkpt lat="33.8937" lon="77.40465">
        <ele>3738</ele>
        <time>2015-09-02T09:38:12Z</time>
      </trkpt>
      <trkpt lat="33.89367" lon="77.40467">
        <ele>3738.2</ele>
        <time>2015-09-02T09:38:14Z</time>
      </trkpt>
      <trkpt lat="33.89362" lon="77.40482">
        <ele>3739.2</ele>
        <time>2015-09-02T09:38:29Z</time>
      </trkpt>
      <trkpt lat="33.89361" lon="77.40483">
        <ele>3739.2</ele>
        <time>2015-09-02T09:38:31Z</time>
      </trkpt>
      <trkpt lat="33.89361" lon="77.40487">
        <ele>3738.8</ele>
        <time>2015-09-02T09:38:35Z</time>
      </trkpt>
      <trkpt lat="33.8936" lon="77.40493">
        <ele>3738.6</ele>
        <time>2015-09-02T09:38:39Z</time>
      </trkpt>
      <trkpt lat="33.89356" lon="77.40501">
        <ele>3739</ele>
        <time>2015-09-02T09:38:43Z</time>
      </trkpt>
      <trkpt lat="33.89347" lon="77.4052">
        <ele>3738.8</ele>
        <time>2015-09-02T09:39:00Z</time>
      </trkpt>
      <trkpt lat="33.89342" lon="77.40532">
        <ele>3738.2</ele>
        <time>2015-09-02T09:39:09Z</time>
      </trkpt>
      <trkpt lat="33.89334" lon="77.4055">
        <ele>3738</ele>
        <time>2015-09-02T09:39:25Z</time>
      </trkpt>
      <trkpt lat="33.89328" lon="77.40558">
        <ele>3737.8</ele>
        <time>2015-09-02T09:39:32Z</time>
      </trkpt>
      <trkpt lat="33.89327" lon="77.40564">
        <ele>3738</ele>
        <time>2015-09-02T09:39:37Z</time>
      </trkpt>
      <trkpt lat="33.89324" lon="77.40569">
        <ele>3738.2</ele>
        <time>2015-09-02T09:39:41Z</time>
      </trkpt>
      <trkpt lat="33.89309" lon="77.40581">
        <ele>3738.8</ele>
        <time>2015-09-02T09:39:55Z</time>
      </trkpt>
      <trkpt lat="33.89308" lon="77.40582">
        <ele>3738.8</ele>
        <time>2015-09-02T09:39:56Z</time>
      </trkpt>
      <trkpt lat="33.89298" lon="77.406">
        <ele>3739.2</ele>
        <time>2015-09-02T09:40:12Z</time>
      </trkpt>
      <trkpt lat="33.89292" lon="77.40611">
        <ele>3740.4</ele>
        <time>2015-09-02T09:40:27Z</time>
      </trkpt>
      <trkpt lat="33.8929" lon="77.40621">
        <ele>3740.6</ele>
        <time>2015-09-02T09:40:35Z</time>
      </trkpt>
      <trkpt lat="33.89289" lon="77.40623">
        <ele>3740.8</ele>
        <time>2015-09-02T09:40:37Z</time>
      </trkpt>
      <trkpt lat="33.89287" lon="77.40625">
        <ele>3740.8</ele>
        <time>2015-09-02T09:40:39Z</time>
      </trkpt>
      <trkpt lat="33.89285" lon="77.40628">
        <ele>3741.2</ele>
        <time>2015-09-02T09:40:43Z</time>
      </trkpt>
      <trkpt lat="33.89282" lon="77.40632">
        <ele>3741.2</ele>
        <time>2015-09-02T09:40:46Z</time>
      </trkpt>
      <trkpt lat="33.89279" lon="77.40638">
        <ele>3741.4</ele>
        <time>2015-09-02T09:40:50Z</time>
      </trkpt>
      <trkpt lat="33.8927" lon="77.40655">
        <ele>3742</ele>
        <time>2015-09-02T09:41:05Z</time>
      </trkpt>
      <trkpt lat="33.8927" lon="77.4066">
        <ele>3742.4</ele>
        <time>2015-09-02T09:41:09Z</time>
      </trkpt>
      <trkpt lat="33.89269" lon="77.40661">
        <ele>3742.6</ele>
        <time>2015-09-02T09:41:10Z</time>
      </trkpt>
      <trkpt lat="33.89268" lon="77.40665">
        <ele>3743</ele>
        <time>2015-09-02T09:41:14Z</time>
      </trkpt>
      <trkpt lat="33.89267" lon="77.40673">
        <ele>3743.4</ele>
        <time>2015-09-02T09:41:21Z</time>
      </trkpt>
      <trkpt lat="33.89266" lon="77.40679">
        <ele>3743.6</ele>
        <time>2015-09-02T09:41:26Z</time>
      </trkpt>
      <trkpt lat="33.89267" lon="77.40693">
        <ele>3743.4</ele>
        <time>2015-09-02T09:41:37Z</time>
      </trkpt>
      <trkpt lat="33.89271" lon="77.40712">
        <ele>3743.4</ele>
        <time>2015-09-02T09:41:50Z</time>
      </trkpt>
      <trkpt lat="33.89268" lon="77.40729">
        <ele>3743</ele>
        <time>2015-09-02T09:42:02Z</time>
      </trkpt>
      <trkpt lat="33.8927" lon="77.40734">
        <ele>3743.4</ele>
        <time>2015-09-02T09:42:06Z</time>
      </trkpt>
      <trkpt lat="33.8927" lon="77.40739">
        <ele>3744</ele>
        <time>2015-09-02T09:42:10Z</time>
      </trkpt>
      <trkpt lat="33.89262" lon="77.40758">
        <ele>3743.2</ele>
        <time>2015-09-02T09:42:24Z</time>
      </trkpt>
      <trkpt lat="33.89262" lon="77.4076">
        <ele>3743</ele>
        <time>2015-09-02T09:42:26Z</time>
      </trkpt>
      <trkpt lat="33.89259" lon="77.40762">
        <ele>3743.2</ele>
        <time>2015-09-02T09:42:29Z</time>
      </trkpt>
      <trkpt lat="33.89249" lon="77.4078">
        <ele>3743</ele>
        <time>2015-09-02T09:42:43Z</time>
      </trkpt>
      <trkpt lat="33.8925" lon="77.40783">
        <ele>3743</ele>
        <time>2015-09-02T09:42:45Z</time>
      </trkpt>
      <trkpt lat="33.89259" lon="77.40806">
        <ele>3742.8</ele>
        <time>2015-09-02T09:43:01Z</time>
      </trkpt>
      <trkpt lat="33.8926" lon="77.4081">
        <ele>3743</ele>
        <time>2015-09-02T09:43:06Z</time>
      </trkpt>
      <trkpt lat="33.89265" lon="77.40836">
        <ele>3744.2</ele>
        <time>2015-09-02T09:43:25Z</time>
      </trkpt>
      <trkpt lat="33.89267" lon="77.40858">
        <ele>3743.8</ele>
        <time>2015-09-02T09:43:41Z</time>
      </trkpt>
      <trkpt lat="33.8927" lon="77.40879">
        <ele>3744.4</ele>
        <time>2015-09-02T09:43:57Z</time>
      </trkpt>
      <trkpt lat="33.89272" lon="77.40885">
        <ele>3744.4</ele>
        <time>2015-09-02T09:44:03Z</time>
      </trkpt>
      <trkpt lat="33.89274" lon="77.40899">
        <ele>3744.2</ele>
        <time>2015-09-02T09:44:16Z</time>
      </trkpt>
      <trkpt lat="33.89273" lon="77.40902">
        <ele>3744.2</ele>
        <time>2015-09-02T09:44:19Z</time>
      </trkpt>
      <trkpt lat="33.89272" lon="77.40905">
        <ele>3744.2</ele>
        <time>2015-09-02T09:44:22Z</time>
      </trkpt>
      <trkpt lat="33.89269" lon="77.40913">
        <ele>3744.4</ele>
        <time>2015-09-02T09:44:29Z</time>
      </trkpt>
      <trkpt lat="33.89269" lon="77.40915">
        <ele>3744.4</ele>
        <time>2015-09-02T09:44:31Z</time>
      </trkpt>
      <trkpt lat="33.89267" lon="77.40921">
        <ele>3744.6</ele>
        <time>2015-09-02T09:44:36Z</time>
      </trkpt>
      <trkpt lat="33.89267" lon="77.40922">
        <ele>3744.6</ele>
        <time>2015-09-02T09:44:37Z</time>
      </trkpt>
      <trkpt lat="33.89268" lon="77.40927">
        <ele>3744.6</ele>
        <time>2015-09-02T09:44:40Z</time>
      </trkpt>
      <trkpt lat="33.89271" lon="77.40934">
        <ele>3744.4</ele>
        <time>2015-09-02T09:44:47Z</time>
      </trkpt>
      <trkpt lat="33.8927" lon="77.40938">
        <ele>3744.6</ele>
        <time>2015-09-02T09:44:50Z</time>
      </trkpt>
      <trkpt lat="33.89271" lon="77.40949">
        <ele>3744.6</ele>
        <time>2015-09-02T09:45:00Z</time>
      </trkpt>
      <trkpt lat="33.89266" lon="77.4097">
        <ele>3745.2</ele>
        <time>2015-09-02T09:45:16Z</time>
      </trkpt>
      <trkpt lat="33.89265" lon="77.40974">
        <ele>3745</ele>
        <time>2015-09-02T09:45:19Z</time>
      </trkpt>
      <trkpt lat="33.8926" lon="77.40995">
        <ele>3745.4</ele>
        <time>2015-09-02T09:45:41Z</time>
      </trkpt>
      <trkpt lat="33.89257" lon="77.41002">
        <ele>3745.2</ele>
        <time>2015-09-02T09:45:48Z</time>
      </trkpt>
      <trkpt lat="33.89254" lon="77.41012">
        <ele>3745.4</ele>
        <time>2015-09-02T09:45:57Z</time>
      </trkpt>
      <trkpt lat="33.89252" lon="77.4102">
        <ele>3745.2</ele>
        <time>2015-09-02T09:46:03Z</time>
      </trkpt>
      <trkpt lat="33.89248" lon="77.41032">
        <ele>3745.2</ele>
        <time>2015-09-02T09:46:14Z</time>
      </trkpt>
      <trkpt lat="33.89246" lon="77.41035">
        <ele>3745.4</ele>
        <time>2015-09-02T09:46:16Z</time>
      </trkpt>
      <trkpt lat="33.89246" lon="77.41038">
        <ele>3745.6</ele>
        <time>2015-09-02T09:46:18Z</time>
      </trkpt>
      <trkpt lat="33.89246" lon="77.41038">
        <ele>3745.6</ele>
        <time>2015-09-02T09:46:19Z</time>
      </trkpt>
      <trkpt lat="33.89245" lon="77.4104">
        <ele>3745.8</ele>
        <time>2015-09-02T09:46:20Z</time>
      </trkpt>
      <trkpt lat="33.89239" lon="77.4106">
        <ele>3746.2</ele>
        <time>2015-09-02T09:46:41Z</time>
      </trkpt>
      <trkpt lat="33.89238" lon="77.41062">
        <ele>3746.2</ele>
        <time>2015-09-02T09:46:42Z</time>
      </trkpt>
      <trkpt lat="33.89233" lon="77.41075">
        <ele>3746.4</ele>
        <time>2015-09-02T09:46:53Z</time>
      </trkpt>
      <trkpt lat="33.8923" lon="77.41083">
        <ele>3746.2</ele>
        <time>2015-09-02T09:46:59Z</time>
      </trkpt>
      <trkpt lat="33.89227" lon="77.4109">
        <ele>3746.4</ele>
        <time>2015-09-02T09:47:05Z</time>
      </trkpt>
      <trkpt lat="33.89224" lon="77.41097">
        <ele>3746.6</ele>
        <time>2015-09-02T09:47:10Z</time>
      </trkpt>
      <trkpt lat="33.89223" lon="77.41098">
        <ele>3746.6</ele>
        <time>2015-09-02T09:47:11Z</time>
      </trkpt>
      <trkpt lat="33.8922" lon="77.41122">
        <ele>3746.8</ele>
        <time>2015-09-02T09:47:29Z</time>
      </trkpt>
      <trkpt lat="33.8922" lon="77.41124">
        <ele>3746.8</ele>
        <time>2015-09-02T09:47:31Z</time>
      </trkpt>
      <trkpt lat="33.89215" lon="77.4114">
        <ele>3747.2</ele>
        <time>2015-09-02T09:47:46Z</time>
      </trkpt>
      <trkpt lat="33.89213" lon="77.41156">
        <ele>3747</ele>
        <time>2015-09-02T09:47:59Z</time>
      </trkpt>
      <trkpt lat="33.89208" lon="77.41168">
        <ele>3747.2</ele>
        <time>2015-09-02T09:48:10Z</time>
      </trkpt>
      <trkpt lat="33.89204" lon="77.41184">
        <ele>3747.8</ele>
        <time>2015-09-02T09:48:20Z</time>
      </trkpt>
      <trkpt lat="33.89202" lon="77.41195">
        <ele>3748.2</ele>
        <time>2015-09-02T09:48:28Z</time>
      </trkpt>
      <trkpt lat="33.89202" lon="77.41201">
        <ele>3748.2</ele>
        <time>2015-09-02T09:48:33Z</time>
      </trkpt>
      <trkpt lat="33.892" lon="77.41223">
        <ele>3748.8</ele>
        <time>2015-09-02T09:48:52Z</time>
      </trkpt>
      <trkpt lat="33.892" lon="77.41229">
        <ele>3749</ele>
        <time>2015-09-02T09:48:56Z</time>
      </trkpt>
      <trkpt lat="33.89192" lon="77.41249">
        <ele>3749.4</ele>
        <time>2015-09-02T09:49:10Z</time>
      </trkpt>
      <trkpt lat="33.89189" lon="77.41263">
        <ele>3749.2</ele>
        <time>2015-09-02T09:49:22Z</time>
      </trkpt>
      <trkpt lat="33.89193" lon="77.41271">
        <ele>3749</ele>
        <time>2015-09-02T09:49:30Z</time>
      </trkpt>
      <trkpt lat="33.89195" lon="77.41273">
        <ele>3749.2</ele>
        <time>2015-09-02T09:49:33Z</time>
      </trkpt>
      <trkpt lat="33.89186" lon="77.4129">
        <ele>3749.4</ele>
        <time>2015-09-02T09:49:46Z</time>
      </trkpt>
      <trkpt lat="33.89183" lon="77.41294">
        <ele>3749.8</ele>
        <time>2015-09-02T09:49:50Z</time>
      </trkpt>
      <trkpt lat="33.89173" lon="77.4131">
        <ele>3750</ele>
        <time>2015-09-02T09:50:09Z</time>
      </trkpt>
      <trkpt lat="33.89176" lon="77.41314">
        <ele>3750</ele>
        <time>2015-09-02T09:50:46Z</time>
      </trkpt>
      <trkpt lat="33.89174" lon="77.41318">
        <ele>3750.2</ele>
        <time>2015-09-02T09:51:11Z</time>
      </trkpt>
      <trkpt lat="33.8917" lon="77.41322">
        <ele>3750.2</ele>
        <time>2015-09-02T09:52:17Z</time>
      </trkpt>
      <trkpt lat="33.89163" lon="77.41333">
        <ele>3750</ele>
        <time>2015-09-02T09:53:23Z</time>
      </trkpt>
      <trkpt lat="33.89152" lon="77.41332">
        <ele>3750.4</ele>
        <time>2015-09-02T09:54:14Z</time>
      </trkpt>
      <trkpt lat="33.89153" lon="77.41333">
        <ele>3750.8</ele>
        <time>2015-09-02T09:54:34Z</time>
      </trkpt>
      <trkpt lat="33.89149" lon="77.41334">
        <ele>3750.6</ele>
        <time>2015-09-02T09:54:39Z</time>
      </trkpt>
      <trkpt lat="33.89148" lon="77.41332">
        <ele>3750.8</ele>
        <time>2015-09-02T09:55:26Z</time>
      </trkpt>
      <trkpt lat="33.89154" lon="77.41327">
        <ele>3750.8</ele>
        <time>2015-09-02T09:55:36Z</time>
      </trkpt>
      <trkpt lat="33.8915" lon="77.41329">
        <ele>3749.8</ele>
        <time>2015-09-02T09:56:33Z</time>
      </trkpt>
      <trkpt lat="33.89148" lon="77.41331">
        <ele>3749.6</ele>
        <time>2015-09-02T09:56:43Z</time>
      </trkpt>
      <trkpt lat="33.89148" lon="77.41344">
        <ele>3750</ele>
        <time>2015-09-02T09:57:26Z</time>
      </trkpt>
      <trkpt lat="33.89146" lon="77.41352">
        <ele>3750</ele>
        <time>2015-09-02T09:57:33Z</time>
      </trkpt>
      <trkpt lat="33.89144" lon="77.41356">
        <ele>3750.2</ele>
        <time>2015-09-02T09:57:36Z</time>
      </trkpt>
      <trkpt lat="33.8914" lon="77.41365">
        <ele>3750.4</ele>
        <time>2015-09-02T09:57:46Z</time>
      </trkpt>
      <trkpt lat="33.89139" lon="77.41369">
        <ele>3750.4</ele>
        <time>2015-09-02T09:57:48Z</time>
      </trkpt>
      <trkpt lat="33.8913" lon="77.41387">
        <ele>3750.6</ele>
        <time>2015-09-02T09:57:57Z</time>
      </trkpt>
      <trkpt lat="33.89129" lon="77.41388">
        <ele>3750.8</ele>
        <time>2015-09-02T09:57:59Z</time>
      </trkpt>
      <trkpt lat="33.89129" lon="77.41389">
        <ele>3750.8</ele>
        <time>2015-09-02T09:58:00Z</time>
      </trkpt>
      <trkpt lat="33.89129" lon="77.4139">
        <ele>3750.8</ele>
        <time>2015-09-02T09:58:01Z</time>
      </trkpt>
      <trkpt lat="33.89127" lon="77.41396">
        <ele>3751</ele>
        <time>2015-09-02T09:58:05Z</time>
      </trkpt>
      <trkpt lat="33.89124" lon="77.41397">
        <ele>3751</ele>
        <time>2015-09-02T09:58:07Z</time>
      </trkpt>
      <trkpt lat="33.89123" lon="77.41401">
        <ele>3751</ele>
        <time>2015-09-02T09:58:11Z</time>
      </trkpt>
      <trkpt lat="33.89124" lon="77.41406">
        <ele>3751.2</ele>
        <time>2015-09-02T09:58:16Z</time>
      </trkpt>
      <trkpt lat="33.89123" lon="77.41414">
        <ele>3751</ele>
        <time>2015-09-02T09:58:24Z</time>
      </trkpt>
      <trkpt lat="33.89123" lon="77.41436">
        <ele>3751.2</ele>
        <time>2015-09-02T09:58:39Z</time>
      </trkpt>
      <trkpt lat="33.89121" lon="77.41441">
        <ele>3751.4</ele>
        <time>2015-09-02T09:58:46Z</time>
      </trkpt>
      <trkpt lat="33.89116" lon="77.41451">
        <ele>3751.8</ele>
        <time>2015-09-02T09:59:01Z</time>
      </trkpt>
      <trkpt lat="33.89116" lon="77.41452">
        <ele>3751.8</ele>
        <time>2015-09-02T09:59:02Z</time>
      </trkpt>
      <trkpt lat="33.89107" lon="77.41474">
        <ele>3752.6</ele>
        <time>2015-09-02T09:59:31Z</time>
      </trkpt>
      <trkpt lat="33.89106" lon="77.41474">
        <ele>3752.6</ele>
        <time>2015-09-02T09:59:32Z</time>
      </trkpt>
      <trkpt lat="33.89102" lon="77.41474">
        <ele>3752.6</ele>
        <time>2015-09-02T09:59:36Z</time>
      </trkpt>
      <trkpt lat="33.89096" lon="77.41473">
        <ele>3752.6</ele>
        <time>2015-09-02T09:59:41Z</time>
      </trkpt>
      <trkpt lat="33.8909" lon="77.41473">
        <ele>3752.8</ele>
        <time>2015-09-02T09:59:46Z</time>
      </trkpt>
      <trkpt lat="33.89088" lon="77.41475">
        <ele>3753</ele>
        <time>2015-09-02T09:59:48Z</time>
      </trkpt>
      <trkpt lat="33.89085" lon="77.41479">
        <ele>3753.2</ele>
        <time>2015-09-02T09:59:51Z</time>
      </trkpt>
      <trkpt lat="33.89082" lon="77.4148">
        <ele>3753.6</ele>
        <time>2015-09-02T09:59:55Z</time>
      </trkpt>
      <trkpt lat="33.89082" lon="77.41481">
        <ele>3753.8</ele>
        <time>2015-09-02T09:59:56Z</time>
      </trkpt>
      <trkpt lat="33.89079" lon="77.41485">
        <ele>3755</ele>
        <time>2015-09-02T10:00:05Z</time>
      </trkpt>
      <trkpt lat="33.89074" lon="77.41488">
        <ele>3755.8</ele>
        <time>2015-09-02T10:00:12Z</time>
      </trkpt>
      <trkpt lat="33.89073" lon="77.4149">
        <ele>3756</ele>
        <time>2015-09-02T10:00:14Z</time>
      </trkpt>
      <trkpt lat="33.8907" lon="77.41493">
        <ele>3756.4</ele>
        <time>2015-09-02T10:00:18Z</time>
      </trkpt>
      <trkpt lat="33.89064" lon="77.41496">
        <ele>3757</ele>
        <time>2015-09-02T10:00:29Z</time>
      </trkpt>
      <trkpt lat="33.89052" lon="77.41504">
        <ele>3757.4</ele>
        <time>2015-09-02T10:01:19Z</time>
      </trkpt>
      <trkpt lat="33.8905" lon="77.41504">
        <ele>3758.2</ele>
        <time>2015-09-02T10:01:25Z</time>
      </trkpt>
      <trkpt lat="33.89043" lon="77.41512">
        <ele>3759.2</ele>
        <time>2015-09-02T10:01:37Z</time>
      </trkpt>
      <trkpt lat="33.89036" lon="77.4152">
        <ele>3760.2</ele>
        <time>2015-09-02T10:02:03Z</time>
      </trkpt>
      <trkpt lat="33.89029" lon="77.41529">
        <ele>3761.2</ele>
        <time>2015-09-02T10:02:14Z</time>
      </trkpt>
      <trkpt lat="33.89028" lon="77.41532">
        <ele>3761.2</ele>
        <time>2015-09-02T10:02:16Z</time>
      </trkpt>
      <trkpt lat="33.89022" lon="77.4154">
        <ele>3761.8</ele>
        <time>2015-09-02T10:02:26Z</time>
      </trkpt>
      <trkpt lat="33.8902" lon="77.41544">
        <ele>3762</ele>
        <time>2015-09-02T10:02:31Z</time>
      </trkpt>
      <trkpt lat="33.89016" lon="77.41548">
        <ele>3762.4</ele>
        <time>2015-09-02T10:02:37Z</time>
      </trkpt>
      <trkpt lat="33.89013" lon="77.41553">
        <ele>3762.6</ele>
        <time>2015-09-02T10:02:43Z</time>
      </trkpt>
      <trkpt lat="33.89011" lon="77.41559">
        <ele>3763.4</ele>
        <time>2015-09-02T10:02:51Z</time>
      </trkpt>
      <trkpt lat="33.89008" lon="77.41572">
        <ele>3764.4</ele>
        <time>2015-09-02T10:03:01Z</time>
      </trkpt>
      <trkpt lat="33.89009" lon="77.41574">
        <ele>3764.8</ele>
        <time>2015-09-02T10:03:03Z</time>
      </trkpt>
      <trkpt lat="33.89006" lon="77.41586">
        <ele>3765.6</ele>
        <time>2015-09-02T10:03:17Z</time>
      </trkpt>
      <trkpt lat="33.89003" lon="77.41593">
        <ele>3766</ele>
        <time>2015-09-02T10:03:25Z</time>
      </trkpt>
      <trkpt lat="33.88999" lon="77.416">
        <ele>3766.6</ele>
        <time>2015-09-02T10:03:34Z</time>
      </trkpt>
      <trkpt lat="33.88999" lon="77.41601">
        <ele>3766.6</ele>
        <time>2015-09-02T10:03:35Z</time>
      </trkpt>
      <trkpt lat="33.88985" lon="77.41615">
        <ele>3766</ele>
        <time>2015-09-02T10:03:53Z</time>
      </trkpt>
      <trkpt lat="33.88981" lon="77.41618">
        <ele>3766.8</ele>
        <time>2015-09-02T10:03:58Z</time>
      </trkpt>
      <trkpt lat="33.88971" lon="77.41637">
        <ele>3766.8</ele>
        <time>2015-09-02T10:04:16Z</time>
      </trkpt>
      <trkpt lat="33.88964" lon="77.41648">
        <ele>3765.4</ele>
        <time>2015-09-02T10:04:29Z</time>
      </trkpt>
      <trkpt lat="33.88963" lon="77.41649">
        <ele>3765.2</ele>
        <time>2015-09-02T10:04:30Z</time>
      </trkpt>
      <trkpt lat="33.88951" lon="77.41665">
        <ele>3765.4</ele>
        <time>2015-09-02T10:04:49Z</time>
      </trkpt>
      <trkpt lat="33.88945" lon="77.41671">
        <ele>3765.4</ele>
        <time>2015-09-02T10:04:58Z</time>
      </trkpt>
      <trkpt lat="33.88931" lon="77.41685">
        <ele>3764.8</ele>
        <time>2015-09-02T10:05:17Z</time>
      </trkpt>
      <trkpt lat="33.88931" lon="77.41686">
        <ele>3764.8</ele>
        <time>2015-09-02T10:05:18Z</time>
      </trkpt>
      <trkpt lat="33.88918" lon="77.41699">
        <ele>3764.4</ele>
        <time>2015-09-02T10:05:36Z</time>
      </trkpt>
      <trkpt lat="33.88913" lon="77.41703">
        <ele>3763.8</ele>
        <time>2015-09-02T10:05:45Z</time>
      </trkpt>
      <trkpt lat="33.88908" lon="77.41715">
        <ele>3763.2</ele>
        <time>2015-09-02T10:05:58Z</time>
      </trkpt>
      <trkpt lat="33.88903" lon="77.4173">
        <ele>3762.2</ele>
        <time>2015-09-02T10:06:10Z</time>
      </trkpt>
      <trkpt lat="33.88896" lon="77.41743">
        <ele>3761.4</ele>
        <time>2015-09-02T10:06:23Z</time>
      </trkpt>
      <trkpt lat="33.88894" lon="77.41744">
        <ele>3761.2</ele>
        <time>2015-09-02T10:06:25Z</time>
      </trkpt>
      <trkpt lat="33.88892" lon="77.41745">
        <ele>3761</ele>
        <time>2015-09-02T10:06:28Z</time>
      </trkpt>
      <trkpt lat="33.88888" lon="77.41749">
        <ele>3760</ele>
        <time>2015-09-02T10:06:33Z</time>
      </trkpt>
      <trkpt lat="33.88885" lon="77.41756">
        <ele>3759.2</ele>
        <time>2015-09-02T10:06:40Z</time>
      </trkpt>
      <trkpt lat="33.88883" lon="77.41757">
        <ele>3759</ele>
        <time>2015-09-02T10:06:42Z</time>
      </trkpt>
      <trkpt lat="33.88882" lon="77.41758">
        <ele>3758.8</ele>
        <time>2015-09-02T10:06:44Z</time>
      </trkpt>
      <trkpt lat="33.88883" lon="77.41766">
        <ele>3758.4</ele>
        <time>2015-09-02T10:06:52Z</time>
      </trkpt>
      <trkpt lat="33.88883" lon="77.41772">
        <ele>3758.6</ele>
        <time>2015-09-02T10:06:59Z</time>
      </trkpt>
      <trkpt lat="33.88875" lon="77.41791">
        <ele>3758</ele>
        <time>2015-09-02T10:07:16Z</time>
      </trkpt>
      <trkpt lat="33.88866" lon="77.418">
        <ele>3758.2</ele>
        <time>2015-09-02T10:07:28Z</time>
      </trkpt>
      <trkpt lat="33.8886" lon="77.41819">
        <ele>3759</ele>
        <time>2015-09-02T10:07:47Z</time>
      </trkpt>
      <trkpt lat="33.88852" lon="77.41831">
        <ele>3759.4</ele>
        <time>2015-09-02T10:08:01Z</time>
      </trkpt>
      <trkpt lat="33.88849" lon="77.41851">
        <ele>3759.8</ele>
        <time>2015-09-02T10:08:34Z</time>
      </trkpt>
      <trkpt lat="33.88853" lon="77.41872">
        <ele>3759</ele>
        <time>2015-09-02T10:08:59Z</time>
      </trkpt>
      <trkpt lat="33.88855" lon="77.41884">
        <ele>3759.2</ele>
        <time>2015-09-02T10:09:13Z</time>
      </trkpt>
      <trkpt lat="33.88853" lon="77.41885">
        <ele>3759.4</ele>
        <time>2015-09-02T10:09:15Z</time>
      </trkpt>
      <trkpt lat="33.8885" lon="77.41897">
        <ele>3760</ele>
        <time>2015-09-02T10:09:27Z</time>
      </trkpt>
      <trkpt lat="33.88846" lon="77.41906">
        <ele>3760.4</ele>
        <time>2015-09-02T10:09:34Z</time>
      </trkpt>
      <trkpt lat="33.88845" lon="77.41929">
        <ele>3760.6</ele>
        <time>2015-09-02T10:09:53Z</time>
      </trkpt>
      <trkpt lat="33.88845" lon="77.41937">
        <ele>3760.8</ele>
        <time>2015-09-02T10:09:59Z</time>
      </trkpt>
      <trkpt lat="33.88844" lon="77.41938">
        <ele>3760.4</ele>
        <time>2015-09-02T10:10:01Z</time>
      </trkpt>
      <trkpt lat="33.8884" lon="77.41946">
        <ele>3760.4</ele>
        <time>2015-09-02T10:10:09Z</time>
      </trkpt>
      <trkpt lat="33.88837" lon="77.41951">
        <ele>3760.4</ele>
        <time>2015-09-02T10:10:13Z</time>
      </trkpt>
      <trkpt lat="33.88833" lon="77.41973">
        <ele>3760.4</ele>
        <time>2015-09-02T10:10:34Z</time>
      </trkpt>
      <trkpt lat="33.88832" lon="77.41975">
        <ele>3760.4</ele>
        <time>2015-09-02T10:10:35Z</time>
      </trkpt>
      <trkpt lat="33.88831" lon="77.41978">
        <ele>3760.6</ele>
        <time>2015-09-02T10:10:38Z</time>
      </trkpt>
      <trkpt lat="33.88835" lon="77.41985">
        <ele>3760.6</ele>
        <time>2015-09-02T10:10:45Z</time>
      </trkpt>
      <trkpt lat="33.88832" lon="77.42002">
        <ele>3761</ele>
        <time>2015-09-02T10:10:59Z</time>
      </trkpt>
      <trkpt lat="33.88831" lon="77.42004">
        <ele>3761</ele>
        <time>2015-09-02T10:11:02Z</time>
      </trkpt>
      <trkpt lat="33.88822" lon="77.42023">
        <ele>3761.8</ele>
        <time>2015-09-02T10:11:21Z</time>
      </trkpt>
      <trkpt lat="33.88819" lon="77.42027">
        <ele>3762</ele>
        <time>2015-09-02T10:11:28Z</time>
      </trkpt>
      <trkpt lat="33.88809" lon="77.42027">
        <ele>3762.6</ele>
        <time>2015-09-02T10:12:05Z</time>
      </trkpt>
      <trkpt lat="33.88813" lon="77.42028">
        <ele>3762.6</ele>
        <time>2015-09-02T10:12:09Z</time>
      </trkpt>
      <trkpt lat="33.88814" lon="77.42031">
        <ele>3762.2</ele>
        <time>2015-09-02T10:12:13Z</time>
      </trkpt>
      <trkpt lat="33.88815" lon="77.42032">
        <ele>3762.2</ele>
        <time>2015-09-02T10:12:15Z</time>
      </trkpt>
      <trkpt lat="33.88814" lon="77.42038">
        <ele>3763</ele>
        <time>2015-09-02T10:12:49Z</time>
      </trkpt>
      <trkpt lat="33.88813" lon="77.42038">
        <ele>3763.2</ele>
        <time>2015-09-02T10:12:50Z</time>
      </trkpt>
      <trkpt lat="33.88807" lon="77.4204">
        <ele>3763.4</ele>
        <time>2015-09-02T10:12:57Z</time>
      </trkpt>
      <trkpt lat="33.88804" lon="77.42051">
        <ele>3764</ele>
        <time>2015-09-02T10:13:12Z</time>
      </trkpt>
      <trkpt lat="33.88803" lon="77.42055">
        <ele>3763.8</ele>
        <time>2015-09-02T10:13:16Z</time>
      </trkpt>
      <trkpt lat="33.88801" lon="77.42058">
        <ele>3763.8</ele>
        <time>2015-09-02T10:13:19Z</time>
      </trkpt>
      <trkpt lat="33.88799" lon="77.42058">
        <ele>3764</ele>
        <time>2015-09-02T10:13:22Z</time>
      </trkpt>
      <trkpt lat="33.88798" lon="77.42058">
        <ele>3764.2</ele>
        <time>2015-09-02T10:13:25Z</time>
      </trkpt>
      <trkpt lat="33.88798" lon="77.42066">
        <ele>3765.2</ele>
        <time>2015-09-02T10:13:40Z</time>
      </trkpt>
      <trkpt lat="33.88795" lon="77.42081">
        <ele>3765.4</ele>
        <time>2015-09-02T10:13:53Z</time>
      </trkpt>
      <trkpt lat="33.88792" lon="77.42085">
        <ele>3765.6</ele>
        <time>2015-09-02T10:13:58Z</time>
      </trkpt>
      <trkpt lat="33.8879" lon="77.4209">
        <ele>3765.8</ele>
        <time>2015-09-02T10:14:03Z</time>
      </trkpt>
      <trkpt lat="33.88791" lon="77.42091">
        <ele>3766.2</ele>
        <time>2015-09-02T10:14:22Z</time>
      </trkpt>
      <trkpt lat="33.88788" lon="77.42094">
        <ele>3765.2</ele>
        <time>2015-09-02T10:14:45Z</time>
      </trkpt>
      <trkpt lat="33.88778" lon="77.421">
        <ele>3765.4</ele>
        <time>2015-09-02T10:15:06Z</time>
      </trkpt>
      <trkpt lat="33.88775" lon="77.42101">
        <ele>3765.2</ele>
        <time>2015-09-02T10:15:09Z</time>
      </trkpt>
      <trkpt lat="33.88771" lon="77.42101">
        <ele>3765.2</ele>
        <time>2015-09-02T10:15:13Z</time>
      </trkpt>
      <trkpt lat="33.88766" lon="77.42109">
        <ele>3765.8</ele>
        <time>2015-09-02T10:15:26Z</time>
      </trkpt>
      <trkpt lat="33.88762" lon="77.42114">
        <ele>3766.2</ele>
        <time>2015-09-02T10:15:37Z</time>
      </trkpt>
      <trkpt lat="33.88757" lon="77.42118">
        <ele>3766.4</ele>
        <time>2015-09-02T10:15:41Z</time>
      </trkpt>
      <trkpt lat="33.88757" lon="77.42126">
        <ele>3767</ele>
        <time>2015-09-02T10:15:58Z</time>
      </trkpt>
      <trkpt lat="33.88755" lon="77.42127">
        <ele>3767.2</ele>
        <time>2015-09-02T10:16:00Z</time>
      </trkpt>
      <trkpt lat="33.88756" lon="77.42127">
        <ele>3767.2</ele>
        <time>2015-09-02T10:16:01Z</time>
      </trkpt>
      <trkpt lat="33.88761" lon="77.42128">
        <ele>3767</ele>
        <time>2015-09-02T10:16:07Z</time>
      </trkpt>
      <trkpt lat="33.88756" lon="77.42134">
        <ele>3767</ele>
        <time>2015-09-02T10:16:19Z</time>
      </trkpt>
      <trkpt lat="33.88754" lon="77.42136">
        <ele>3767.2</ele>
        <time>2015-09-02T10:16:21Z</time>
      </trkpt>
      <trkpt lat="33.88753" lon="77.42137">
        <ele>3767.4</ele>
        <time>2015-09-02T10:16:23Z</time>
      </trkpt>
      <trkpt lat="33.88752" lon="77.42139">
        <ele>3767.6</ele>
        <time>2015-09-02T10:16:25Z</time>
      </trkpt>
      <trkpt lat="33.88751" lon="77.42144">
        <ele>3768</ele>
        <time>2015-09-02T10:16:29Z</time>
      </trkpt>
      <trkpt lat="33.88747" lon="77.42152">
        <ele>3768</ele>
        <time>2015-09-02T10:16:36Z</time>
      </trkpt>
      <trkpt lat="33.88742" lon="77.42153">
        <ele>3768</ele>
        <time>2015-09-02T10:16:39Z</time>
      </trkpt>
      <trkpt lat="33.8874" lon="77.42155">
        <ele>3768.4</ele>
        <time>2015-09-02T10:16:43Z</time>
      </trkpt>
      <trkpt lat="33.88739" lon="77.42159">
        <ele>3769</ele>
        <time>2015-09-02T10:16:48Z</time>
      </trkpt>
      <trkpt lat="33.88739" lon="77.42161">
        <ele>3769.4</ele>
        <time>2015-09-02T10:16:53Z</time>
      </trkpt>
      <trkpt lat="33.88736" lon="77.42173">
        <ele>3769.8</ele>
        <time>2015-09-02T10:17:06Z</time>
      </trkpt>
      <trkpt lat="33.88728" lon="77.42179">
        <ele>3769.8</ele>
        <time>2015-09-02T10:17:17Z</time>
      </trkpt>
      <trkpt lat="33.88724" lon="77.42186">
        <ele>3770</ele>
        <time>2015-09-02T10:17:25Z</time>
      </trkpt>
      <trkpt lat="33.88717" lon="77.42192">
        <ele>3770</ele>
        <time>2015-09-02T10:17:45Z</time>
      </trkpt>
      <trkpt lat="33.88709" lon="77.42196">
        <ele>3770.4</ele>
        <time>2015-09-02T10:17:52Z</time>
      </trkpt>
      <trkpt lat="33.88709" lon="77.42199">
        <ele>3770.6</ele>
        <time>2015-09-02T10:17:55Z</time>
      </trkpt>
      <trkpt lat="33.88707" lon="77.422">
        <ele>3770.6</ele>
        <time>2015-09-02T10:17:58Z</time>
      </trkpt>
      <trkpt lat="33.8869" lon="77.42209">
        <ele>3770.4</ele>
        <time>2015-09-02T10:18:17Z</time>
      </trkpt>
      <trkpt lat="33.88681" lon="77.42206">
        <ele>3770.2</ele>
        <time>2015-09-02T10:18:48Z</time>
      </trkpt>
      <trkpt lat="33.88677" lon="77.42206">
        <ele>3770</ele>
        <time>2015-09-02T10:18:52Z</time>
      </trkpt>
      <trkpt lat="33.88673" lon="77.42202">
        <ele>3701</ele>
        <time>2015-09-02T10:18:59Z</time>
      </trkpt>
    </trkseg>
  </trk>
  <trk>
    <name><![CDATA[Markha (3700m) - Monastère de Humlung - Hankar - Camp de Tachungste (4250m)]]></name>
    <trkseg>
      <trkpt lat="33.88627" lon="77.42316">
        <ele>3771</ele>
        <time>2015-09-03T02:37:36Z</time>
      </trkpt>
      <trkpt lat="33.88619" lon="77.42313">
        <ele>3771.8</ele>
        <time>2015-09-03T02:37:45Z</time>
      </trkpt>
      <trkpt lat="33.88617" lon="77.42311">
        <ele>3772</ele>
        <time>2015-09-03T02:37:49Z</time>
      </trkpt>
      <trkpt lat="33.88618" lon="77.42316">
        <ele>3773</ele>
        <time>2015-09-03T02:38:02Z</time>
      </trkpt>
      <trkpt lat="33.88621" lon="77.42319">
        <ele>3774.2</ele>
        <time>2015-09-03T02:38:12Z</time>
      </trkpt>
      <trkpt lat="33.8862" lon="77.42317">
        <ele>3775.2</ele>
        <time>2015-09-03T02:38:23Z</time>
      </trkpt>
      <trkpt lat="33.88621" lon="77.42316">
        <ele>3776.4</ele>
        <time>2015-09-03T02:38:32Z</time>
      </trkpt>
      <trkpt lat="33.88619" lon="77.42323">
        <ele>3777.4</ele>
        <time>2015-09-03T02:38:42Z</time>
      </trkpt>
      <trkpt lat="33.88617" lon="77.42327">
        <ele>3777.8</ele>
        <time>2015-09-03T02:38:45Z</time>
      </trkpt>
      <trkpt lat="33.88618" lon="77.42332">
        <ele>3778.4</ele>
        <time>2015-09-03T02:38:52Z</time>
      </trkpt>
      <trkpt lat="33.88617" lon="77.42337">
        <ele>3779.4</ele>
        <time>2015-09-03T02:39:00Z</time>
      </trkpt>
      <trkpt lat="33.88619" lon="77.42339">
        <ele>3780.6</ele>
        <time>2015-09-03T02:39:09Z</time>
      </trkpt>
      <trkpt lat="33.88624" lon="77.4234">
        <ele>3781.8</ele>
        <time>2015-09-03T02:39:21Z</time>
      </trkpt>
      <trkpt lat="33.88618" lon="77.4234">
        <ele>3781.8</ele>
        <time>2015-09-03T02:39:27Z</time>
      </trkpt>
      <trkpt lat="33.88617" lon="77.42347">
        <ele>3780.6</ele>
        <time>2015-09-03T02:39:34Z</time>
      </trkpt>
      <trkpt lat="33.88618" lon="77.4235">
        <ele>3780.2</ele>
        <time>2015-09-03T02:39:36Z</time>
      </trkpt>
      <trkpt lat="33.88617" lon="77.42354">
        <ele>3779.6</ele>
        <time>2015-09-03T02:39:39Z</time>
      </trkpt>
      <trkpt lat="33.88615" lon="77.42358">
        <ele>3778.4</ele>
        <time>2015-09-03T02:39:44Z</time>
      </trkpt>
      <trkpt lat="33.88609" lon="77.42362">
        <ele>3777.4</ele>
        <time>2015-09-03T02:39:49Z</time>
      </trkpt>
      <trkpt lat="33.88613" lon="77.42365">
        <ele>3776.2</ele>
        <time>2015-09-03T02:39:54Z</time>
      </trkpt>
      <trkpt lat="33.88611" lon="77.42383">
        <ele>3776.2</ele>
        <time>2015-09-03T02:40:12Z</time>
      </trkpt>
      <trkpt lat="33.88617" lon="77.42403">
        <ele>3776.8</ele>
        <time>2015-09-03T02:40:30Z</time>
      </trkpt>
      <trkpt lat="33.88626" lon="77.42413">
        <ele>3777.4</ele>
        <time>2015-09-03T02:40:39Z</time>
      </trkpt>
      <trkpt lat="33.88639" lon="77.4242">
        <ele>3778.4</ele>
        <time>2015-09-03T02:40:56Z</time>
      </trkpt>
      <trkpt lat="33.88645" lon="77.4242">
        <ele>3778.6</ele>
        <time>2015-09-03T02:41:04Z</time>
      </trkpt>
      <trkpt lat="33.8865" lon="77.4242">
        <ele>3778.4</ele>
        <time>2015-09-03T02:41:07Z</time>
      </trkpt>
      <trkpt lat="33.88656" lon="77.42435">
        <ele>3777.2</ele>
        <time>2015-09-03T02:41:27Z</time>
      </trkpt>
      <trkpt lat="33.88656" lon="77.42437">
        <ele>3776.8</ele>
        <time>2015-09-03T02:41:28Z</time>
      </trkpt>
      <trkpt lat="33.88656" lon="77.42439">
        <ele>3776.4</ele>
        <time>2015-09-03T02:41:30Z</time>
      </trkpt>
      <trkpt lat="33.88654" lon="77.42441">
        <ele>3776.2</ele>
        <time>2015-09-03T02:41:32Z</time>
      </trkpt>
      <trkpt lat="33.88652" lon="77.42447">
        <ele>3776.4</ele>
        <time>2015-09-03T02:41:39Z</time>
      </trkpt>
      <trkpt lat="33.88645" lon="77.42462">
        <ele>3777</ele>
        <time>2015-09-03T02:42:05Z</time>
      </trkpt>
      <trkpt lat="33.88644" lon="77.42462">
        <ele>3777.2</ele>
        <time>2015-09-03T02:42:06Z</time>
      </trkpt>
      <trkpt lat="33.8864" lon="77.42462">
        <ele>3777.4</ele>
        <time>2015-09-03T02:42:10Z</time>
      </trkpt>
      <trkpt lat="33.88637" lon="77.42465">
        <ele>3778.2</ele>
        <time>2015-09-03T02:42:19Z</time>
      </trkpt>
      <trkpt lat="33.88629" lon="77.42469">
        <ele>3778.8</ele>
        <time>2015-09-03T02:42:47Z</time>
      </trkpt>
      <trkpt lat="33.88626" lon="77.42471">
        <ele>3779.2</ele>
        <time>2015-09-03T02:42:56Z</time>
      </trkpt>
      <trkpt lat="33.8861" lon="77.42479">
        <ele>3778.4</ele>
        <time>2015-09-03T02:43:20Z</time>
      </trkpt>
      <trkpt lat="33.88606" lon="77.42478">
        <ele>3778.2</ele>
        <time>2015-09-03T02:43:22Z</time>
      </trkpt>
      <trkpt lat="33.88598" lon="77.42481">
        <ele>3777.2</ele>
        <time>2015-09-03T02:43:29Z</time>
      </trkpt>
      <trkpt lat="33.88596" lon="77.42484">
        <ele>3776.8</ele>
        <time>2015-09-03T02:43:31Z</time>
      </trkpt>
      <trkpt lat="33.88593" lon="77.42488">
        <ele>3776</ele>
        <time>2015-09-03T02:43:35Z</time>
      </trkpt>
      <trkpt lat="33.88593" lon="77.42497">
        <ele>3775.6</ele>
        <time>2015-09-03T02:43:41Z</time>
      </trkpt>
      <trkpt lat="33.8858" lon="77.42502">
        <ele>3775</ele>
        <time>2015-09-03T02:43:57Z</time>
      </trkpt>
      <trkpt lat="33.88573" lon="77.42514">
        <ele>3774.6</ele>
        <time>2015-09-03T02:44:06Z</time>
      </trkpt>
      <trkpt lat="33.88564" lon="77.42533">
        <ele>3775.4</ele>
        <time>2015-09-03T02:44:25Z</time>
      </trkpt>
      <trkpt lat="33.88553" lon="77.4255">
        <ele>3775.8</ele>
        <time>2015-09-03T02:44:40Z</time>
      </trkpt>
      <trkpt lat="33.88548" lon="77.42554">
        <ele>3776</ele>
        <time>2015-09-03T02:44:46Z</time>
      </trkpt>
      <trkpt lat="33.8853" lon="77.42562">
        <ele>3775.4</ele>
        <time>2015-09-03T02:45:04Z</time>
      </trkpt>
      <trkpt lat="33.88514" lon="77.42571">
        <ele>3774.6</ele>
        <time>2015-09-03T02:45:18Z</time>
      </trkpt>
      <trkpt lat="33.88509" lon="77.42577">
        <ele>3773.8</ele>
        <time>2015-09-03T02:45:25Z</time>
      </trkpt>
      <trkpt lat="33.88503" lon="77.42581">
        <ele>3772.8</ele>
        <time>2015-09-03T02:45:31Z</time>
      </trkpt>
      <trkpt lat="33.88497" lon="77.42589">
        <ele>3772.2</ele>
        <time>2015-09-03T02:45:40Z</time>
      </trkpt>
      <trkpt lat="33.88498" lon="77.42592">
        <ele>3771.6</ele>
        <time>2015-09-03T02:45:42Z</time>
      </trkpt>
      <trkpt lat="33.88496" lon="77.426">
        <ele>3770.6</ele>
        <time>2015-09-03T02:45:49Z</time>
      </trkpt>
      <trkpt lat="33.88496" lon="77.42601">
        <ele>3770.6</ele>
        <time>2015-09-03T02:45:50Z</time>
      </trkpt>
      <trkpt lat="33.88492" lon="77.42609">
        <ele>3769.6</ele>
        <time>2015-09-03T02:45:56Z</time>
      </trkpt>
      <trkpt lat="33.8849" lon="77.42617">
        <ele>3768.6</ele>
        <time>2015-09-03T02:46:00Z</time>
      </trkpt>
      <trkpt lat="33.88487" lon="77.42624">
        <ele>3767.4</ele>
        <time>2015-09-03T02:46:06Z</time>
      </trkpt>
      <trkpt lat="33.88485" lon="77.4263">
        <ele>3767.2</ele>
        <time>2015-09-03T02:46:13Z</time>
      </trkpt>
      <trkpt lat="33.88484" lon="77.42631">
        <ele>3766.4</ele>
        <time>2015-09-03T02:46:17Z</time>
      </trkpt>
      <trkpt lat="33.88481" lon="77.42639">
        <ele>3766.6</ele>
        <time>2015-09-03T02:46:27Z</time>
      </trkpt>
      <trkpt lat="33.88476" lon="77.42651">
        <ele>3765.2</ele>
        <time>2015-09-03T02:46:34Z</time>
      </trkpt>
      <trkpt lat="33.88466" lon="77.4267">
        <ele>3764.4</ele>
        <time>2015-09-03T02:46:48Z</time>
      </trkpt>
      <trkpt lat="33.88464" lon="77.42675">
        <ele>3764.4</ele>
        <time>2015-09-03T02:46:53Z</time>
      </trkpt>
      <trkpt lat="33.88465" lon="77.42683">
        <ele>3764.4</ele>
        <time>2015-09-03T02:46:58Z</time>
      </trkpt>
      <trkpt lat="33.88465" lon="77.42688">
        <ele>3764.4</ele>
        <time>2015-09-03T02:47:01Z</time>
      </trkpt>
      <trkpt lat="33.88467" lon="77.42698">
        <ele>3764.6</ele>
        <time>2015-09-03T02:47:08Z</time>
      </trkpt>
      <trkpt lat="33.88462" lon="77.42715">
        <ele>3764.8</ele>
        <time>2015-09-03T02:47:22Z</time>
      </trkpt>
      <trkpt lat="33.88461" lon="77.42717">
        <ele>3764.8</ele>
        <time>2015-09-03T02:47:24Z</time>
      </trkpt>
      <trkpt lat="33.88461" lon="77.42721">
        <ele>3765</ele>
        <time>2015-09-03T02:47:27Z</time>
      </trkpt>
      <trkpt lat="33.88459" lon="77.42743">
        <ele>3766</ele>
        <time>2015-09-03T02:47:49Z</time>
      </trkpt>
      <trkpt lat="33.88455" lon="77.42764">
        <ele>3765.4</ele>
        <time>2015-09-03T02:48:05Z</time>
      </trkpt>
      <trkpt lat="33.8845" lon="77.42775">
        <ele>3765.2</ele>
        <time>2015-09-03T02:48:15Z</time>
      </trkpt>
      <trkpt lat="33.88438" lon="77.42792">
        <ele>3765.6</ele>
        <time>2015-09-03T02:48:32Z</time>
      </trkpt>
      <trkpt lat="33.88424" lon="77.42805">
        <ele>3765.6</ele>
        <time>2015-09-03T02:48:53Z</time>
      </trkpt>
      <trkpt lat="33.88419" lon="77.42825">
        <ele>3766.2</ele>
        <time>2015-09-03T02:49:08Z</time>
      </trkpt>
      <trkpt lat="33.88413" lon="77.42846">
        <ele>3766.2</ele>
        <time>2015-09-03T02:49:28Z</time>
      </trkpt>
      <trkpt lat="33.88409" lon="77.42862">
        <ele>3766.2</ele>
        <time>2015-09-03T02:49:40Z</time>
      </trkpt>
      <trkpt lat="33.88407" lon="77.42867">
        <ele>3766.2</ele>
        <time>2015-09-03T02:49:45Z</time>
      </trkpt>
      <trkpt lat="33.88402" lon="77.42887">
        <ele>3767</ele>
        <time>2015-09-03T02:50:00Z</time>
      </trkpt>
      <trkpt lat="33.88388" lon="77.42901">
        <ele>3767.2</ele>
        <time>2015-09-03T02:50:18Z</time>
      </trkpt>
      <trkpt lat="33.88381" lon="77.42906">
        <ele>3767.2</ele>
        <time>2015-09-03T02:50:27Z</time>
      </trkpt>
      <trkpt lat="33.8838" lon="77.42907">
        <ele>3767.2</ele>
        <time>2015-09-03T02:50:29Z</time>
      </trkpt>
      <trkpt lat="33.88366" lon="77.42922">
        <ele>3767.2</ele>
        <time>2015-09-03T02:50:46Z</time>
      </trkpt>
      <trkpt lat="33.88351" lon="77.42936">
        <ele>3767.6</ele>
        <time>2015-09-03T02:51:06Z</time>
      </trkpt>
      <trkpt lat="33.88349" lon="77.42937">
        <ele>3767.6</ele>
        <time>2015-09-03T02:51:08Z</time>
      </trkpt>
      <trkpt lat="33.88345" lon="77.42941">
        <ele>3767.6</ele>
        <time>2015-09-03T02:51:14Z</time>
      </trkpt>
      <trkpt lat="33.88342" lon="77.42942">
        <ele>3767.6</ele>
        <time>2015-09-03T02:51:17Z</time>
      </trkpt>
      <trkpt lat="33.88333" lon="77.42962">
        <ele>3768</ele>
        <time>2015-09-03T02:51:32Z</time>
      </trkpt>
      <trkpt lat="33.88332" lon="77.42965">
        <ele>3768.2</ele>
        <time>2015-09-03T02:51:36Z</time>
      </trkpt>
      <trkpt lat="33.88323" lon="77.42982">
        <ele>3768.4</ele>
        <time>2015-09-03T02:51:56Z</time>
      </trkpt>
      <trkpt lat="33.88322" lon="77.42985">
        <ele>3768.2</ele>
        <time>2015-09-03T02:51:58Z</time>
      </trkpt>
      <trkpt lat="33.88316" lon="77.42999">
        <ele>3768.6</ele>
        <time>2015-09-03T02:52:09Z</time>
      </trkpt>
      <trkpt lat="33.88309" lon="77.43006">
        <ele>3769.4</ele>
        <time>2015-09-03T02:52:17Z</time>
      </trkpt>
      <trkpt lat="33.88304" lon="77.43027">
        <ele>3769.8</ele>
        <time>2015-09-03T02:52:34Z</time>
      </trkpt>
      <trkpt lat="33.88295" lon="77.43045">
        <ele>3770.2</ele>
        <time>2015-09-03T02:52:50Z</time>
      </trkpt>
      <trkpt lat="33.88292" lon="77.43054">
        <ele>3770.4</ele>
        <time>2015-09-03T02:52:58Z</time>
      </trkpt>
      <trkpt lat="33.88282" lon="77.43073">
        <ele>3770.8</ele>
        <time>2015-09-03T02:53:16Z</time>
      </trkpt>
      <trkpt lat="33.88277" lon="77.4308">
        <ele>3770.8</ele>
        <time>2015-09-03T02:53:25Z</time>
      </trkpt>
      <trkpt lat="33.8827" lon="77.43084">
        <ele>3771</ele>
        <time>2015-09-03T02:53:33Z</time>
      </trkpt>
      <trkpt lat="33.88262" lon="77.43099">
        <ele>3771.4</ele>
        <time>2015-09-03T02:53:50Z</time>
      </trkpt>
      <trkpt lat="33.88261" lon="77.43101">
        <ele>3771.4</ele>
        <time>2015-09-03T02:53:52Z</time>
      </trkpt>
      <trkpt lat="33.88251" lon="77.43119">
        <ele>3772.2</ele>
        <time>2015-09-03T02:54:13Z</time>
      </trkpt>
      <trkpt lat="33.88243" lon="77.43129">
        <ele>3772.2</ele>
        <time>2015-09-03T02:54:27Z</time>
      </trkpt>
      <trkpt lat="33.88241" lon="77.43136">
        <ele>3772.4</ele>
        <time>2015-09-03T02:54:33Z</time>
      </trkpt>
      <trkpt lat="33.88241" lon="77.43137">
        <ele>3772.4</ele>
        <time>2015-09-03T02:54:34Z</time>
      </trkpt>
      <trkpt lat="33.88238" lon="77.43147">
        <ele>3772.6</ele>
        <time>2015-09-03T02:54:42Z</time>
      </trkpt>
      <trkpt lat="33.88238" lon="77.4315">
        <ele>3772.6</ele>
        <time>2015-09-03T02:54:44Z</time>
      </trkpt>
      <trkpt lat="33.88236" lon="77.43154">
        <ele>3773</ele>
        <time>2015-09-03T02:54:48Z</time>
      </trkpt>
      <trkpt lat="33.88233" lon="77.43169">
        <ele>3773.4</ele>
        <time>2015-09-03T02:55:05Z</time>
      </trkpt>
      <trkpt lat="33.88228" lon="77.4319">
        <ele>3773.4</ele>
        <time>2015-09-03T02:55:24Z</time>
      </trkpt>
      <trkpt lat="33.88227" lon="77.43191">
        <ele>3773.4</ele>
        <time>2015-09-03T02:55:26Z</time>
      </trkpt>
      <trkpt lat="33.88227" lon="77.43193">
        <ele>3773.4</ele>
        <time>2015-09-03T02:55:28Z</time>
      </trkpt>
      <trkpt lat="33.88226" lon="77.43203">
        <ele>3772.8</ele>
        <time>2015-09-03T02:55:36Z</time>
      </trkpt>
      <trkpt lat="33.88221" lon="77.43211">
        <ele>3773</ele>
        <time>2015-09-03T02:55:45Z</time>
      </trkpt>
      <trkpt lat="33.88217" lon="77.43232">
        <ele>3773.8</ele>
        <time>2015-09-03T02:56:03Z</time>
      </trkpt>
      <trkpt lat="33.88216" lon="77.43233">
        <ele>3773.8</ele>
        <time>2015-09-03T02:56:06Z</time>
      </trkpt>
      <trkpt lat="33.88215" lon="77.43252">
        <ele>3774</ele>
        <time>2015-09-03T02:56:22Z</time>
      </trkpt>
      <trkpt lat="33.88214" lon="77.43255">
        <ele>3774.4</ele>
        <time>2015-09-03T02:56:25Z</time>
      </trkpt>
      <trkpt lat="33.88213" lon="77.43255">
        <ele>3774.6</ele>
        <time>2015-09-03T02:56:26Z</time>
      </trkpt>
      <trkpt lat="33.88212" lon="77.43258">
        <ele>3774.6</ele>
        <time>2015-09-03T02:56:29Z</time>
      </trkpt>
      <trkpt lat="33.8821" lon="77.4328">
        <ele>3774.6</ele>
        <time>2015-09-03T02:56:48Z</time>
      </trkpt>
      <trkpt lat="33.88209" lon="77.43302">
        <ele>3775.2</ele>
        <time>2015-09-03T02:57:05Z</time>
      </trkpt>
      <trkpt lat="33.88208" lon="77.43324">
        <ele>3775.2</ele>
        <time>2015-09-03T02:57:22Z</time>
      </trkpt>
      <trkpt lat="33.88209" lon="77.43327">
        <ele>3775.2</ele>
        <time>2015-09-03T02:57:24Z</time>
      </trkpt>
      <trkpt lat="33.88204" lon="77.43342">
        <ele>3775.4</ele>
        <time>2015-09-03T02:57:37Z</time>
      </trkpt>
      <trkpt lat="33.88199" lon="77.43349">
        <ele>3775.6</ele>
        <time>2015-09-03T02:57:47Z</time>
      </trkpt>
      <trkpt lat="33.88195" lon="77.43359">
        <ele>3775.8</ele>
        <time>2015-09-03T02:57:56Z</time>
      </trkpt>
      <trkpt lat="33.88191" lon="77.4338">
        <ele>3775.8</ele>
        <time>2015-09-03T02:58:16Z</time>
      </trkpt>
      <trkpt lat="33.8819" lon="77.43403">
        <ele>3776</ele>
        <time>2015-09-03T02:58:35Z</time>
      </trkpt>
      <trkpt lat="33.88191" lon="77.43414">
        <ele>3776</ele>
        <time>2015-09-03T02:58:44Z</time>
      </trkpt>
      <trkpt lat="33.88186" lon="77.43428">
        <ele>3776.2</ele>
        <time>2015-09-03T02:58:56Z</time>
      </trkpt>
      <trkpt lat="33.88186" lon="77.43435">
        <ele>3776.4</ele>
        <time>2015-09-03T02:59:01Z</time>
      </trkpt>
      <trkpt lat="33.88187" lon="77.43439">
        <ele>3776.4</ele>
        <time>2015-09-03T02:59:04Z</time>
      </trkpt>
      <trkpt lat="33.88188" lon="77.43446">
        <ele>3776.4</ele>
        <time>2015-09-03T02:59:11Z</time>
      </trkpt>
      <trkpt lat="33.88186" lon="77.43449">
        <ele>3776.8</ele>
        <time>2015-09-03T02:59:14Z</time>
      </trkpt>
      <trkpt lat="33.88178" lon="77.43453">
        <ele>3776.6</ele>
        <time>2015-09-03T02:59:21Z</time>
      </trkpt>
      <trkpt lat="33.88174" lon="77.43474">
        <ele>3777.4</ele>
        <time>2015-09-03T02:59:49Z</time>
      </trkpt>
      <trkpt lat="33.88173" lon="77.43476">
        <ele>3777.6</ele>
        <time>2015-09-03T02:59:50Z</time>
      </trkpt>
      <trkpt lat="33.88171" lon="77.43493">
        <ele>3777</ele>
        <time>2015-09-03T03:00:04Z</time>
      </trkpt>
      <trkpt lat="33.88165" lon="77.435">
        <ele>3776.8</ele>
        <time>2015-09-03T03:00:12Z</time>
      </trkpt>
      <trkpt lat="33.88157" lon="77.4352">
        <ele>3778</ele>
        <time>2015-09-03T03:00:29Z</time>
      </trkpt>
      <trkpt lat="33.8815" lon="77.4354">
        <ele>3778.4</ele>
        <time>2015-09-03T03:00:46Z</time>
      </trkpt>
      <trkpt lat="33.88149" lon="77.43546">
        <ele>3778.6</ele>
        <time>2015-09-03T03:00:51Z</time>
      </trkpt>
      <trkpt lat="33.88142" lon="77.43568">
        <ele>3778.6</ele>
        <time>2015-09-03T03:01:08Z</time>
      </trkpt>
      <trkpt lat="33.88141" lon="77.43571">
        <ele>3779</ele>
        <time>2015-09-03T03:01:12Z</time>
      </trkpt>
      <trkpt lat="33.88137" lon="77.43583">
        <ele>3778.8</ele>
        <time>2015-09-03T03:01:28Z</time>
      </trkpt>
      <trkpt lat="33.88126" lon="77.436">
        <ele>3779</ele>
        <time>2015-09-03T03:01:43Z</time>
      </trkpt>
      <trkpt lat="33.88123" lon="77.43622">
        <ele>3779.6</ele>
        <time>2015-09-03T03:01:58Z</time>
      </trkpt>
      <trkpt lat="33.88119" lon="77.43635">
        <ele>3779.8</ele>
        <time>2015-09-03T03:02:11Z</time>
      </trkpt>
      <trkpt lat="33.88117" lon="77.43643">
        <ele>3780</ele>
        <time>2015-09-03T03:02:18Z</time>
      </trkpt>
      <trkpt lat="33.88117" lon="77.43661">
        <ele>3780.4</ele>
        <time>2015-09-03T03:02:31Z</time>
      </trkpt>
      <trkpt lat="33.88112" lon="77.43671">
        <ele>3780.8</ele>
        <time>2015-09-03T03:02:41Z</time>
      </trkpt>
      <trkpt lat="33.88111" lon="77.43685">
        <ele>3780.6</ele>
        <time>2015-09-03T03:02:53Z</time>
      </trkpt>
      <trkpt lat="33.88112" lon="77.43699">
        <ele>3781.2</ele>
        <time>2015-09-03T03:03:04Z</time>
      </trkpt>
      <trkpt lat="33.88111" lon="77.43713">
        <ele>3781.4</ele>
        <time>2015-09-03T03:03:19Z</time>
      </trkpt>
      <trkpt lat="33.8811" lon="77.43718">
        <ele>3781</ele>
        <time>2015-09-03T03:03:23Z</time>
      </trkpt>
      <trkpt lat="33.88107" lon="77.43721">
        <ele>3781</ele>
        <time>2015-09-03T03:03:26Z</time>
      </trkpt>
      <trkpt lat="33.88103" lon="77.43741">
        <ele>3781.6</ele>
        <time>2015-09-03T03:03:44Z</time>
      </trkpt>
      <trkpt lat="33.881" lon="77.43762">
        <ele>3781.4</ele>
        <time>2015-09-03T03:04:01Z</time>
      </trkpt>
      <trkpt lat="33.88099" lon="77.43765">
        <ele>3781.6</ele>
        <time>2015-09-03T03:04:04Z</time>
      </trkpt>
      <trkpt lat="33.88099" lon="77.43769">
        <ele>3781.8</ele>
        <time>2015-09-03T03:04:07Z</time>
      </trkpt>
      <trkpt lat="33.88098" lon="77.43771">
        <ele>3782</ele>
        <time>2015-09-03T03:04:08Z</time>
      </trkpt>
      <trkpt lat="33.88094" lon="77.43792">
        <ele>3782.2</ele>
        <time>2015-09-03T03:04:24Z</time>
      </trkpt>
      <trkpt lat="33.88093" lon="77.43795">
        <ele>3782.4</ele>
        <time>2015-09-03T03:04:26Z</time>
      </trkpt>
      <trkpt lat="33.88092" lon="77.43797">
        <ele>3782.4</ele>
        <time>2015-09-03T03:04:28Z</time>
      </trkpt>
      <trkpt lat="33.88089" lon="77.43802">
        <ele>3782.4</ele>
        <time>2015-09-03T03:04:34Z</time>
      </trkpt>
      <trkpt lat="33.88086" lon="77.43804">
        <ele>3783</ele>
        <time>2015-09-03T03:04:39Z</time>
      </trkpt>
      <trkpt lat="33.88078" lon="77.43813">
        <ele>3782.8</ele>
        <time>2015-09-03T03:04:50Z</time>
      </trkpt>
      <trkpt lat="33.88074" lon="77.43834">
        <ele>3784</ele>
        <time>2015-09-03T03:05:04Z</time>
      </trkpt>
      <trkpt lat="33.88072" lon="77.43836">
        <ele>3784</ele>
        <time>2015-09-03T03:05:06Z</time>
      </trkpt>
      <trkpt lat="33.88069" lon="77.43842">
        <ele>3784.2</ele>
        <time>2015-09-03T03:05:12Z</time>
      </trkpt>
      <trkpt lat="33.88065" lon="77.43857">
        <ele>3785</ele>
        <time>2015-09-03T03:05:26Z</time>
      </trkpt>
      <trkpt lat="33.88065" lon="77.43858">
        <ele>3785</ele>
        <time>2015-09-03T03:05:27Z</time>
      </trkpt>
      <trkpt lat="33.88058" lon="77.43874">
        <ele>3786</ele>
        <time>2015-09-03T03:05:43Z</time>
      </trkpt>
      <trkpt lat="33.8805" lon="77.43893">
        <ele>3787</ele>
        <time>2015-09-03T03:06:00Z</time>
      </trkpt>
      <trkpt lat="33.88048" lon="77.43897">
        <ele>3787</ele>
        <time>2015-09-03T03:06:05Z</time>
      </trkpt>
      <trkpt lat="33.88041" lon="77.43904">
        <ele>3787.6</ele>
        <time>2015-09-03T03:06:21Z</time>
      </trkpt>
      <trkpt lat="33.88039" lon="77.43912">
        <ele>3788.2</ele>
        <time>2015-09-03T03:06:30Z</time>
      </trkpt>
      <trkpt lat="33.88035" lon="77.43931">
        <ele>3789.2</ele>
        <time>2015-09-03T03:06:50Z</time>
      </trkpt>
      <trkpt lat="33.88032" lon="77.43944">
        <ele>3790.2</ele>
        <time>2015-09-03T03:07:03Z</time>
      </trkpt>
      <trkpt lat="33.88033" lon="77.43945">
        <ele>3790.4</ele>
        <time>2015-09-03T03:07:05Z</time>
      </trkpt>
      <trkpt lat="33.88033" lon="77.43957">
        <ele>3791.4</ele>
        <time>2015-09-03T03:07:17Z</time>
      </trkpt>
      <trkpt lat="33.88034" lon="77.43966">
        <ele>3792</ele>
        <time>2015-09-03T03:07:27Z</time>
      </trkpt>
      <trkpt lat="33.88034" lon="77.43969">
        <ele>3792.6</ele>
        <time>2015-09-03T03:07:29Z</time>
      </trkpt>
      <trkpt lat="33.88035" lon="77.4397">
        <ele>3792.6</ele>
        <time>2015-09-03T03:07:30Z</time>
      </trkpt>
      <trkpt lat="33.88034" lon="77.43972">
        <ele>3793</ele>
        <time>2015-09-03T03:07:33Z</time>
      </trkpt>
      <trkpt lat="33.88033" lon="77.43984">
        <ele>3793.6</ele>
        <time>2015-09-03T03:07:46Z</time>
      </trkpt>
      <trkpt lat="33.8803" lon="77.43998">
        <ele>3794.6</ele>
        <time>2015-09-03T03:07:57Z</time>
      </trkpt>
      <trkpt lat="33.8803" lon="77.43999">
        <ele>3794.8</ele>
        <time>2015-09-03T03:07:59Z</time>
      </trkpt>
      <trkpt lat="33.88033" lon="77.44003">
        <ele>3794.8</ele>
        <time>2015-09-03T03:08:03Z</time>
      </trkpt>
      <trkpt lat="33.88034" lon="77.44008">
        <ele>3795.6</ele>
        <time>2015-09-03T03:08:13Z</time>
      </trkpt>
      <trkpt lat="33.88037" lon="77.44018">
        <ele>3796.8</ele>
        <time>2015-09-03T03:08:24Z</time>
      </trkpt>
      <trkpt lat="33.88043" lon="77.44026">
        <ele>3797.8</ele>
        <time>2015-09-03T03:08:36Z</time>
      </trkpt>
      <trkpt lat="33.88042" lon="77.44038">
        <ele>3799</ele>
        <time>2015-09-03T03:08:51Z</time>
      </trkpt>
      <trkpt lat="33.88044" lon="77.44047">
        <ele>3800.2</ele>
        <time>2015-09-03T03:09:01Z</time>
      </trkpt>
      <trkpt lat="33.88043" lon="77.44068">
        <ele>3801.2</ele>
        <time>2015-09-03T03:09:26Z</time>
      </trkpt>
      <trkpt lat="33.88042" lon="77.44073">
        <ele>3802.2</ele>
        <time>2015-09-03T03:09:34Z</time>
      </trkpt>
      <trkpt lat="33.88035" lon="77.44086">
        <ele>3803</ele>
        <time>2015-09-03T03:09:46Z</time>
      </trkpt>
      <trkpt lat="33.88035" lon="77.44091">
        <ele>3803.4</ele>
        <time>2015-09-03T03:09:55Z</time>
      </trkpt>
      <trkpt lat="33.88033" lon="77.44091">
        <ele>3803.6</ele>
        <time>2015-09-03T03:10:10Z</time>
      </trkpt>
      <trkpt lat="33.88036" lon="77.44089">
        <ele>3804.2</ele>
        <time>2015-09-03T03:10:36Z</time>
      </trkpt>
      <trkpt lat="33.88035" lon="77.4409">
        <ele>3804</ele>
        <time>2015-09-03T03:10:39Z</time>
      </trkpt>
      <trkpt lat="33.88035" lon="77.44089">
        <ele>3804</ele>
        <time>2015-09-03T03:10:55Z</time>
      </trkpt>
      <trkpt lat="33.88037" lon="77.44103">
        <ele>3802.6</ele>
        <time>2015-09-03T03:11:11Z</time>
      </trkpt>
      <trkpt lat="33.88037" lon="77.44108">
        <ele>3802.2</ele>
        <time>2015-09-03T03:11:16Z</time>
      </trkpt>
      <trkpt lat="33.88038" lon="77.44119">
        <ele>3801.2</ele>
        <time>2015-09-03T03:11:25Z</time>
      </trkpt>
      <trkpt lat="33.88039" lon="77.44128">
        <ele>3800.6</ele>
        <time>2015-09-03T03:11:32Z</time>
      </trkpt>
      <trkpt lat="33.88041" lon="77.44131">
        <ele>3800.4</ele>
        <time>2015-09-03T03:11:35Z</time>
      </trkpt>
      <trkpt lat="33.88042" lon="77.44133">
        <ele>3800.4</ele>
        <time>2015-09-03T03:11:37Z</time>
      </trkpt>
      <trkpt lat="33.88042" lon="77.44135">
        <ele>3800.2</ele>
        <time>2015-09-03T03:11:39Z</time>
      </trkpt>
      <trkpt lat="33.88043" lon="77.44157">
        <ele>3799.8</ele>
        <time>2015-09-03T03:11:55Z</time>
      </trkpt>
      <trkpt lat="33.88045" lon="77.44171">
        <ele>3799.2</ele>
        <time>2015-09-03T03:12:05Z</time>
      </trkpt>
      <trkpt lat="33.88051" lon="77.44177">
        <ele>3798.8</ele>
        <time>2015-09-03T03:12:10Z</time>
      </trkpt>
      <trkpt lat="33.8805" lon="77.44178">
        <ele>3798.6</ele>
        <time>2015-09-03T03:12:12Z</time>
      </trkpt>
      <trkpt lat="33.88049" lon="77.44188">
        <ele>3798.2</ele>
        <time>2015-09-03T03:12:19Z</time>
      </trkpt>
      <trkpt lat="33.88049" lon="77.44203">
        <ele>3797</ele>
        <time>2015-09-03T03:12:31Z</time>
      </trkpt>
      <trkpt lat="33.88046" lon="77.44216">
        <ele>3796</ele>
        <time>2015-09-03T03:12:39Z</time>
      </trkpt>
      <trkpt lat="33.88048" lon="77.44234">
        <ele>3794.8</ele>
        <time>2015-09-03T03:12:51Z</time>
      </trkpt>
      <trkpt lat="33.88044" lon="77.44245">
        <ele>3793.8</ele>
        <time>2015-09-03T03:13:02Z</time>
      </trkpt>
      <trkpt lat="33.88043" lon="77.44248">
        <ele>3793.6</ele>
        <time>2015-09-03T03:13:04Z</time>
      </trkpt>
      <trkpt lat="33.88046" lon="77.4427">
        <ele>3793.8</ele>
        <time>2015-09-03T03:13:23Z</time>
      </trkpt>
      <trkpt lat="33.88047" lon="77.44279">
        <ele>3794</ele>
        <time>2015-09-03T03:13:29Z</time>
      </trkpt>
      <trkpt lat="33.88049" lon="77.44286">
        <ele>3794</ele>
        <time>2015-09-03T03:13:35Z</time>
      </trkpt>
      <trkpt lat="33.88053" lon="77.44301">
        <ele>3794</ele>
        <time>2015-09-03T03:13:50Z</time>
      </trkpt>
      <trkpt lat="33.88052" lon="77.44304">
        <ele>3794.2</ele>
        <time>2015-09-03T03:13:53Z</time>
      </trkpt>
      <trkpt lat="33.88049" lon="77.44316">
        <ele>3794.6</ele>
        <time>2015-09-03T03:14:06Z</time>
      </trkpt>
      <trkpt lat="33.88048" lon="77.44325">
        <ele>3794.6</ele>
        <time>2015-09-03T03:14:13Z</time>
      </trkpt>
      <trkpt lat="33.88047" lon="77.44331">
        <ele>3794.6</ele>
        <time>2015-09-03T03:14:17Z</time>
      </trkpt>
      <trkpt lat="33.88047" lon="77.44334">
        <ele>3794.6</ele>
        <time>2015-09-03T03:14:20Z</time>
      </trkpt>
      <trkpt lat="33.88046" lon="77.44339">
        <ele>3794.8</ele>
        <time>2015-09-03T03:14:25Z</time>
      </trkpt>
      <trkpt lat="33.88046" lon="77.44341">
        <ele>3795</ele>
        <time>2015-09-03T03:14:27Z</time>
      </trkpt>
      <trkpt lat="33.88056" lon="77.44352">
        <ele>3794.4</ele>
        <time>2015-09-03T03:14:35Z</time>
      </trkpt>
      <trkpt lat="33.88058" lon="77.44373">
        <ele>3795.8</ele>
        <time>2015-09-03T03:14:53Z</time>
      </trkpt>
      <trkpt lat="33.88059" lon="77.44374">
        <ele>3795.8</ele>
        <time>2015-09-03T03:14:54Z</time>
      </trkpt>
      <trkpt lat="33.88059" lon="77.44379">
        <ele>3795.6</ele>
        <time>2015-09-03T03:14:58Z</time>
      </trkpt>
      <trkpt lat="33.88058" lon="77.44385">
        <ele>3795.8</ele>
        <time>2015-09-03T03:15:04Z</time>
      </trkpt>
      <trkpt lat="33.8806" lon="77.44399">
        <ele>3796.8</ele>
        <time>2015-09-03T03:15:16Z</time>
      </trkpt>
      <trkpt lat="33.88062" lon="77.44417">
        <ele>3797</ele>
        <time>2015-09-03T03:15:30Z</time>
      </trkpt>
      <trkpt lat="33.88061" lon="77.44429">
        <ele>3797.8</ele>
        <time>2015-09-03T03:15:41Z</time>
      </trkpt>
      <trkpt lat="33.88061" lon="77.44434">
        <ele>3798</ele>
        <time>2015-09-03T03:15:47Z</time>
      </trkpt>
      <trkpt lat="33.88058" lon="77.44452">
        <ele>3797.2</ele>
        <time>2015-09-03T03:16:00Z</time>
      </trkpt>
      <trkpt lat="33.88057" lon="77.44473">
        <ele>3797.6</ele>
        <time>2015-09-03T03:16:12Z</time>
      </trkpt>
      <trkpt lat="33.88057" lon="77.44475">
        <ele>3797.6</ele>
        <time>2015-09-03T03:16:14Z</time>
      </trkpt>
      <trkpt lat="33.88057" lon="77.44478">
        <ele>3797.4</ele>
        <time>2015-09-03T03:16:17Z</time>
      </trkpt>
      <trkpt lat="33.88059" lon="77.44484">
        <ele>3797.8</ele>
        <time>2015-09-03T03:16:24Z</time>
      </trkpt>
      <trkpt lat="33.88059" lon="77.44487">
        <ele>3798.2</ele>
        <time>2015-09-03T03:16:27Z</time>
      </trkpt>
      <trkpt lat="33.88059" lon="77.44489">
        <ele>3798.2</ele>
        <time>2015-09-03T03:16:29Z</time>
      </trkpt>
      <trkpt lat="33.88059" lon="77.44492">
        <ele>3797.6</ele>
        <time>2015-09-03T03:16:32Z</time>
      </trkpt>
      <trkpt lat="33.88062" lon="77.44499">
        <ele>3797.4</ele>
        <time>2015-09-03T03:16:38Z</time>
      </trkpt>
      <trkpt lat="33.88061" lon="77.44502">
        <ele>3797</ele>
        <time>2015-09-03T03:16:41Z</time>
      </trkpt>
      <trkpt lat="33.88071" lon="77.44521">
        <ele>3798</ele>
        <time>2015-09-03T03:16:58Z</time>
      </trkpt>
      <trkpt lat="33.88074" lon="77.44529">
        <ele>3798</ele>
        <time>2015-09-03T03:17:12Z</time>
      </trkpt>
      <trkpt lat="33.88071" lon="77.44531">
        <ele>3798.4</ele>
        <time>2015-09-03T03:17:17Z</time>
      </trkpt>
      <trkpt lat="33.88067" lon="77.44538">
        <ele>3799</ele>
        <time>2015-09-03T03:17:27Z</time>
      </trkpt>
      <trkpt lat="33.88065" lon="77.4454">
        <ele>3799</ele>
        <time>2015-09-03T03:17:29Z</time>
      </trkpt>
      <trkpt lat="33.88063" lon="77.4454">
        <ele>3798.8</ele>
        <time>2015-09-03T03:17:31Z</time>
      </trkpt>
      <trkpt lat="33.88062" lon="77.44539">
        <ele>3798.6</ele>
        <time>2015-09-03T03:17:34Z</time>
      </trkpt>
      <trkpt lat="33.88049" lon="77.44532">
        <ele>3798</ele>
        <time>2015-09-03T03:17:44Z</time>
      </trkpt>
      <trkpt lat="33.88069" lon="77.44524">
        <ele>3798.2</ele>
        <time>2015-09-03T03:18:15Z</time>
      </trkpt>
      <trkpt lat="33.88072" lon="77.4452">
        <ele>3798.8</ele>
        <time>2015-09-03T03:18:19Z</time>
      </trkpt>
      <trkpt lat="33.88081" lon="77.44512">
        <ele>3799</ele>
        <time>2015-09-03T03:18:26Z</time>
      </trkpt>
      <trkpt lat="33.88068" lon="77.4452">
        <ele>3799</ele>
        <time>2015-09-03T03:18:35Z</time>
      </trkpt>
      <trkpt lat="33.88063" lon="77.44522">
        <ele>3799</ele>
        <time>2015-09-03T03:18:38Z</time>
      </trkpt>
      <trkpt lat="33.88059" lon="77.44521">
        <ele>3799</ele>
        <time>2015-09-03T03:18:41Z</time>
      </trkpt>
      <trkpt lat="33.88056" lon="77.44521">
        <ele>3799</ele>
        <time>2015-09-03T03:18:43Z</time>
      </trkpt>
      <trkpt lat="33.88051" lon="77.44522">
        <ele>3799.2</ele>
        <time>2015-09-03T03:18:45Z</time>
      </trkpt>
      <trkpt lat="33.88051" lon="77.44528">
        <ele>3799.2</ele>
        <time>2015-09-03T03:18:49Z</time>
      </trkpt>
      <trkpt lat="33.88049" lon="77.44531">
        <ele>3800.2</ele>
        <time>2015-09-03T03:19:01Z</time>
      </trkpt>
      <trkpt lat="33.88048" lon="77.44537">
        <ele>3800.2</ele>
        <time>2015-09-03T03:19:06Z</time>
      </trkpt>
      <trkpt lat="33.88046" lon="77.44539">
        <ele>3800.2</ele>
        <time>2015-09-03T03:19:09Z</time>
      </trkpt>
      <trkpt lat="33.88044" lon="77.44544">
        <ele>3800.4</ele>
        <time>2015-09-03T03:19:13Z</time>
      </trkpt>
      <trkpt lat="33.88037" lon="77.44558">
        <ele>3800.8</ele>
        <time>2015-09-03T03:19:25Z</time>
      </trkpt>
      <trkpt lat="33.88034" lon="77.44562">
        <ele>3801.2</ele>
        <time>2015-09-03T03:19:31Z</time>
      </trkpt>
      <trkpt lat="33.88028" lon="77.44568">
        <ele>3801.6</ele>
        <time>2015-09-03T03:19:40Z</time>
      </trkpt>
      <trkpt lat="33.88027" lon="77.44574">
        <ele>3802.2</ele>
        <time>2015-09-03T03:19:45Z</time>
      </trkpt>
      <trkpt lat="33.88026" lon="77.44574">
        <ele>3802.4</ele>
        <time>2015-09-03T03:19:46Z</time>
      </trkpt>
      <trkpt lat="33.88017" lon="77.44586">
        <ele>3803.4</ele>
        <time>2015-09-03T03:20:00Z</time>
      </trkpt>
      <trkpt lat="33.88015" lon="77.44589">
        <ele>3803.8</ele>
        <time>2015-09-03T03:20:03Z</time>
      </trkpt>
      <trkpt lat="33.88006" lon="77.44606">
        <ele>3804.4</ele>
        <time>2015-09-03T03:20:26Z</time>
      </trkpt>
      <trkpt lat="33.88003" lon="77.4461">
        <ele>3805.4</ele>
        <time>2015-09-03T03:20:31Z</time>
      </trkpt>
      <trkpt lat="33.87997" lon="77.44612">
        <ele>3804.4</ele>
        <time>2015-09-03T03:20:38Z</time>
      </trkpt>
      <trkpt lat="33.87996" lon="77.44614">
        <ele>3804.6</ele>
        <time>2015-09-03T03:20:40Z</time>
      </trkpt>
      <trkpt lat="33.87995" lon="77.44632">
        <ele>3804.8</ele>
        <time>2015-09-03T03:20:51Z</time>
      </trkpt>
      <trkpt lat="33.87991" lon="77.4464">
        <ele>3805</ele>
        <time>2015-09-03T03:20:57Z</time>
      </trkpt>
      <trkpt lat="33.8799" lon="77.4464">
        <ele>3805</ele>
        <time>2015-09-03T03:20:59Z</time>
      </trkpt>
      <trkpt lat="33.87987" lon="77.44642">
        <ele>3804.8</ele>
        <time>2015-09-03T03:21:03Z</time>
      </trkpt>
      <trkpt lat="33.87985" lon="77.44643">
        <ele>3805.2</ele>
        <time>2015-09-03T03:21:06Z</time>
      </trkpt>
      <trkpt lat="33.87975" lon="77.44653">
        <ele>3805.4</ele>
        <time>2015-09-03T03:21:23Z</time>
      </trkpt>
      <trkpt lat="33.87969" lon="77.44661">
        <ele>3806</ele>
        <time>2015-09-03T03:21:32Z</time>
      </trkpt>
      <trkpt lat="33.87968" lon="77.44665">
        <ele>3805.8</ele>
        <time>2015-09-03T03:21:35Z</time>
      </trkpt>
      <trkpt lat="33.87962" lon="77.44679">
        <ele>3806.2</ele>
        <time>2015-09-03T03:21:47Z</time>
      </trkpt>
      <trkpt lat="33.87961" lon="77.44683">
        <ele>3806.6</ele>
        <time>2015-09-03T03:21:50Z</time>
      </trkpt>
      <trkpt lat="33.87962" lon="77.44685">
        <ele>3807</ele>
        <time>2015-09-03T03:21:52Z</time>
      </trkpt>
      <trkpt lat="33.87959" lon="77.4469">
        <ele>3806.8</ele>
        <time>2015-09-03T03:21:56Z</time>
      </trkpt>
      <trkpt lat="33.87949" lon="77.44709">
        <ele>3806.8</ele>
        <time>2015-09-03T03:22:13Z</time>
      </trkpt>
      <trkpt lat="33.87949" lon="77.44713">
        <ele>3806.8</ele>
        <time>2015-09-03T03:22:16Z</time>
      </trkpt>
      <trkpt lat="33.87947" lon="77.4472">
        <ele>3807</ele>
        <time>2015-09-03T03:22:24Z</time>
      </trkpt>
      <trkpt lat="33.87932" lon="77.44734">
        <ele>3807</ele>
        <time>2015-09-03T03:22:41Z</time>
      </trkpt>
      <trkpt lat="33.87921" lon="77.44742">
        <ele>3806.8</ele>
        <time>2015-09-03T03:22:51Z</time>
      </trkpt>
      <trkpt lat="33.87905" lon="77.44753">
        <ele>3806</ele>
        <time>2015-09-03T03:23:08Z</time>
      </trkpt>
      <trkpt lat="33.87899" lon="77.44758">
        <ele>3805.4</ele>
        <time>2015-09-03T03:23:14Z</time>
      </trkpt>
      <trkpt lat="33.87888" lon="77.44775">
        <ele>3806.4</ele>
        <time>2015-09-03T03:23:32Z</time>
      </trkpt>
      <trkpt lat="33.87879" lon="77.44793">
        <ele>3806.4</ele>
        <time>2015-09-03T03:23:50Z</time>
      </trkpt>
      <trkpt lat="33.87868" lon="77.44809">
        <ele>3807</ele>
        <time>2015-09-03T03:24:07Z</time>
      </trkpt>
      <trkpt lat="33.87864" lon="77.44813">
        <ele>3807.2</ele>
        <time>2015-09-03T03:24:13Z</time>
      </trkpt>
      <trkpt lat="33.87856" lon="77.44818">
        <ele>3807.6</ele>
        <time>2015-09-03T03:24:24Z</time>
      </trkpt>
      <trkpt lat="33.87855" lon="77.44819">
        <ele>3807.8</ele>
        <time>2015-09-03T03:24:25Z</time>
      </trkpt>
      <trkpt lat="33.87851" lon="77.44825">
        <ele>3807.8</ele>
        <time>2015-09-03T03:24:30Z</time>
      </trkpt>
      <trkpt lat="33.87841" lon="77.44842">
        <ele>3808</ele>
        <time>2015-09-03T03:24:42Z</time>
      </trkpt>
      <trkpt lat="33.87834" lon="77.44845">
        <ele>3807.8</ele>
        <time>2015-09-03T03:24:49Z</time>
      </trkpt>
      <trkpt lat="33.87829" lon="77.44846">
        <ele>3808</ele>
        <time>2015-09-03T03:24:54Z</time>
      </trkpt>
      <trkpt lat="33.87827" lon="77.44857">
        <ele>3808.8</ele>
        <time>2015-09-03T03:25:02Z</time>
      </trkpt>
      <trkpt lat="33.8782" lon="77.44876">
        <ele>3808.6</ele>
        <time>2015-09-03T03:25:19Z</time>
      </trkpt>
      <trkpt lat="33.87809" lon="77.44894">
        <ele>3808.6</ele>
        <time>2015-09-03T03:25:36Z</time>
      </trkpt>
      <trkpt lat="33.87809" lon="77.44897">
        <ele>3808.6</ele>
        <time>2015-09-03T03:25:39Z</time>
      </trkpt>
      <trkpt lat="33.87807" lon="77.44901">
        <ele>3808.8</ele>
        <time>2015-09-03T03:25:43Z</time>
      </trkpt>
      <trkpt lat="33.87799" lon="77.44911">
        <ele>3809.2</ele>
        <time>2015-09-03T03:25:52Z</time>
      </trkpt>
      <trkpt lat="33.87784" lon="77.44921">
        <ele>3809.8</ele>
        <time>2015-09-03T03:26:09Z</time>
      </trkpt>
      <trkpt lat="33.87772" lon="77.4493">
        <ele>3810.4</ele>
        <time>2015-09-03T03:26:21Z</time>
      </trkpt>
      <trkpt lat="33.87767" lon="77.44933">
        <ele>3810.8</ele>
        <time>2015-09-03T03:26:32Z</time>
      </trkpt>
      <trkpt lat="33.87761" lon="77.44939">
        <ele>3811.8</ele>
        <time>2015-09-03T03:26:41Z</time>
      </trkpt>
      <trkpt lat="33.87759" lon="77.44941">
        <ele>3811.8</ele>
        <time>2015-09-03T03:26:44Z</time>
      </trkpt>
      <trkpt lat="33.87754" lon="77.44947">
        <ele>3811.6</ele>
        <time>2015-09-03T03:26:51Z</time>
      </trkpt>
      <trkpt lat="33.87751" lon="77.44946">
        <ele>3811.6</ele>
        <time>2015-09-03T03:26:55Z</time>
      </trkpt>
      <trkpt lat="33.87748" lon="77.44948">
        <ele>3812</ele>
        <time>2015-09-03T03:26:59Z</time>
      </trkpt>
      <trkpt lat="33.87744" lon="77.44953">
        <ele>3811</ele>
        <time>2015-09-03T03:27:04Z</time>
      </trkpt>
      <trkpt lat="33.8774" lon="77.44955">
        <ele>3810.8</ele>
        <time>2015-09-03T03:27:07Z</time>
      </trkpt>
      <trkpt lat="33.87727" lon="77.44962">
        <ele>3810.8</ele>
        <time>2015-09-03T03:27:19Z</time>
      </trkpt>
      <trkpt lat="33.87726" lon="77.44965">
        <ele>3811.2</ele>
        <time>2015-09-03T03:27:21Z</time>
      </trkpt>
      <trkpt lat="33.87726" lon="77.44967">
        <ele>3811.4</ele>
        <time>2015-09-03T03:27:23Z</time>
      </trkpt>
      <trkpt lat="33.87725" lon="77.44969">
        <ele>3811.6</ele>
        <time>2015-09-03T03:27:26Z</time>
      </trkpt>
      <trkpt lat="33.87725" lon="77.4497">
        <ele>3811.8</ele>
        <time>2015-09-03T03:27:29Z</time>
      </trkpt>
      <trkpt lat="33.87709" lon="77.44972">
        <ele>3811.6</ele>
        <time>2015-09-03T03:27:45Z</time>
      </trkpt>
      <trkpt lat="33.87698" lon="77.44979">
        <ele>3811.6</ele>
        <time>2015-09-03T03:27:56Z</time>
      </trkpt>
      <trkpt lat="33.87685" lon="77.44972">
        <ele>3812.2</ele>
        <time>2015-09-03T03:28:10Z</time>
      </trkpt>
      <trkpt lat="33.87683" lon="77.44974">
        <ele>3812.2</ele>
        <time>2015-09-03T03:28:13Z</time>
      </trkpt>
      <trkpt lat="33.8768" lon="77.44976">
        <ele>3812.2</ele>
        <time>2015-09-03T03:28:15Z</time>
      </trkpt>
      <trkpt lat="33.87665" lon="77.44992">
        <ele>3812.6</ele>
        <time>2015-09-03T03:28:30Z</time>
      </trkpt>
      <trkpt lat="33.87663" lon="77.44994">
        <ele>3813</ele>
        <time>2015-09-03T03:28:32Z</time>
      </trkpt>
      <trkpt lat="33.8765" lon="77.45001">
        <ele>3812.6</ele>
        <time>2015-09-03T03:28:44Z</time>
      </trkpt>
      <trkpt lat="33.87642" lon="77.45002">
        <ele>3813</ele>
        <time>2015-09-03T03:28:50Z</time>
      </trkpt>
      <trkpt lat="33.87632" lon="77.45002">
        <ele>3813.8</ele>
        <time>2015-09-03T03:28:59Z</time>
      </trkpt>
      <trkpt lat="33.8762" lon="77.45004">
        <ele>3813.8</ele>
        <time>2015-09-03T03:29:10Z</time>
      </trkpt>
      <trkpt lat="33.8762" lon="77.45004">
        <ele>3814.2</ele>
        <time>2015-09-03T03:29:11Z</time>
      </trkpt>
      <trkpt lat="33.87616" lon="77.45001">
        <ele>3814.4</ele>
        <time>2015-09-03T03:29:18Z</time>
      </trkpt>
      <trkpt lat="33.87609" lon="77.45004">
        <ele>3815.2</ele>
        <time>2015-09-03T03:29:33Z</time>
      </trkpt>
      <trkpt lat="33.87606" lon="77.45006">
        <ele>3816.2</ele>
        <time>2015-09-03T03:29:38Z</time>
      </trkpt>
      <trkpt lat="33.87604" lon="77.45007">
        <ele>3817.2</ele>
        <time>2015-09-03T03:29:41Z</time>
      </trkpt>
      <trkpt lat="33.87602" lon="77.45006">
        <ele>3818.4</ele>
        <time>2015-09-03T03:29:45Z</time>
      </trkpt>
      <trkpt lat="33.87598" lon="77.4501">
        <ele>3819.4</ele>
        <time>2015-09-03T03:29:54Z</time>
      </trkpt>
      <trkpt lat="33.87597" lon="77.4501">
        <ele>3819.6</ele>
        <time>2015-09-03T03:29:55Z</time>
      </trkpt>
      <trkpt lat="33.87579" lon="77.45012">
        <ele>3818.4</ele>
        <time>2015-09-03T03:30:17Z</time>
      </trkpt>
      <trkpt lat="33.87578" lon="77.45011">
        <ele>3818.2</ele>
        <time>2015-09-03T03:30:18Z</time>
      </trkpt>
      <trkpt lat="33.87571" lon="77.45007">
        <ele>3817.6</ele>
        <time>2015-09-03T03:30:25Z</time>
      </trkpt>
      <trkpt lat="33.87569" lon="77.45006">
        <ele>3817</ele>
        <time>2015-09-03T03:30:27Z</time>
      </trkpt>
      <trkpt lat="33.87567" lon="77.45006">
        <ele>3816.8</ele>
        <time>2015-09-03T03:30:29Z</time>
      </trkpt>
      <trkpt lat="33.8758" lon="77.44999">
        <ele>3817</ele>
        <time>2015-09-03T03:31:00Z</time>
      </trkpt>
      <trkpt lat="33.87582" lon="77.44995">
        <ele>3817</ele>
        <time>2015-09-03T03:31:03Z</time>
      </trkpt>
      <trkpt lat="33.87583" lon="77.4499">
        <ele>3817</ele>
        <time>2015-09-03T03:31:06Z</time>
      </trkpt>
      <trkpt lat="33.87577" lon="77.4499">
        <ele>3817.2</ele>
        <time>2015-09-03T03:31:09Z</time>
      </trkpt>
      <trkpt lat="33.87575" lon="77.44992">
        <ele>3817.4</ele>
        <time>2015-09-03T03:31:11Z</time>
      </trkpt>
      <trkpt lat="33.8757" lon="77.44995">
        <ele>3816.6</ele>
        <time>2015-09-03T03:31:14Z</time>
      </trkpt>
      <trkpt lat="33.87552" lon="77.45004">
        <ele>3817.4</ele>
        <time>2015-09-03T03:31:28Z</time>
      </trkpt>
      <trkpt lat="33.87538" lon="77.4502">
        <ele>3816.6</ele>
        <time>2015-09-03T03:31:45Z</time>
      </trkpt>
      <trkpt lat="33.87531" lon="77.45018">
        <ele>3816</ele>
        <time>2015-09-03T03:31:52Z</time>
      </trkpt>
      <trkpt lat="33.87525" lon="77.45018">
        <ele>3816</ele>
        <time>2015-09-03T03:31:58Z</time>
      </trkpt>
      <trkpt lat="33.87514" lon="77.45023">
        <ele>3817</ele>
        <time>2015-09-03T03:32:16Z</time>
      </trkpt>
      <trkpt lat="33.87503" lon="77.45025">
        <ele>3817.4</ele>
        <time>2015-09-03T03:32:27Z</time>
      </trkpt>
      <trkpt lat="33.87487" lon="77.45025">
        <ele>3817.8</ele>
        <time>2015-09-03T03:32:44Z</time>
      </trkpt>
      <trkpt lat="33.87485" lon="77.45022">
        <ele>3818</ele>
        <time>2015-09-03T03:32:46Z</time>
      </trkpt>
      <trkpt lat="33.8748" lon="77.45018">
        <ele>3818.2</ele>
        <time>2015-09-03T03:32:50Z</time>
      </trkpt>
      <trkpt lat="33.87462" lon="77.45015">
        <ele>3819</ele>
        <time>2015-09-03T03:33:04Z</time>
      </trkpt>
      <trkpt lat="33.8746" lon="77.45015">
        <ele>3819.2</ele>
        <time>2015-09-03T03:33:05Z</time>
      </trkpt>
      <trkpt lat="33.8745" lon="77.45018">
        <ele>3819.4</ele>
        <time>2015-09-03T03:33:19Z</time>
      </trkpt>
      <trkpt lat="33.8744" lon="77.45029">
        <ele>3820.2</ele>
        <time>2015-09-03T03:33:26Z</time>
      </trkpt>
      <trkpt lat="33.87427" lon="77.4505">
        <ele>3820.6</ele>
        <time>2015-09-03T03:33:32Z</time>
      </trkpt>
      <trkpt lat="33.87422" lon="77.45063">
        <ele>3821.4</ele>
        <time>2015-09-03T03:33:36Z</time>
      </trkpt>
      <trkpt lat="33.87418" lon="77.45071">
        <ele>3822.4</ele>
        <time>2015-09-03T03:33:40Z</time>
      </trkpt>
      <trkpt lat="33.87415" lon="77.45077">
        <ele>3823.6</ele>
        <time>2015-09-03T03:33:44Z</time>
      </trkpt>
      <trkpt lat="33.87414" lon="77.45078">
        <ele>3823.8</ele>
        <time>2015-09-03T03:33:45Z</time>
      </trkpt>
      <trkpt lat="33.8741" lon="77.45078">
        <ele>3824.8</ele>
        <time>2015-09-03T03:33:48Z</time>
      </trkpt>
      <trkpt lat="33.8741" lon="77.45079">
        <ele>3825</ele>
        <time>2015-09-03T03:33:49Z</time>
      </trkpt>
      <trkpt lat="33.87406" lon="77.45083">
        <ele>3826</ele>
        <time>2015-09-03T03:33:54Z</time>
      </trkpt>
      <trkpt lat="33.87405" lon="77.45086">
        <ele>3827.2</ele>
        <time>2015-09-03T03:33:57Z</time>
      </trkpt>
      <trkpt lat="33.87407" lon="77.4509">
        <ele>3828.2</ele>
        <time>2015-09-03T03:34:02Z</time>
      </trkpt>
      <trkpt lat="33.87407" lon="77.45091">
        <ele>3828.4</ele>
        <time>2015-09-03T03:34:03Z</time>
      </trkpt>
      <trkpt lat="33.87406" lon="77.45092">
        <ele>3829.4</ele>
        <time>2015-09-03T03:34:06Z</time>
      </trkpt>
      <trkpt lat="33.87406" lon="77.45096">
        <ele>3830.6</ele>
        <time>2015-09-03T03:34:10Z</time>
      </trkpt>
      <trkpt lat="33.87411" lon="77.45121">
        <ele>3831.6</ele>
        <time>2015-09-03T03:34:16Z</time>
      </trkpt>
      <trkpt lat="33.87412" lon="77.45119">
        <ele>3832.2</ele>
        <time>2015-09-03T03:34:19Z</time>
      </trkpt>
      <trkpt lat="33.87409" lon="77.45113">
        <ele>3832.8</ele>
        <time>2015-09-03T03:34:22Z</time>
      </trkpt>
      <trkpt lat="33.87409" lon="77.45112">
        <ele>3833</ele>
        <time>2015-09-03T03:34:23Z</time>
      </trkpt>
      <trkpt lat="33.87407" lon="77.4511">
        <ele>3833.4</ele>
        <time>2015-09-03T03:34:27Z</time>
      </trkpt>
      <trkpt lat="33.87404" lon="77.4511">
        <ele>3833.8</ele>
        <time>2015-09-03T03:34:31Z</time>
      </trkpt>
      <trkpt lat="33.87402" lon="77.45113">
        <ele>3834.4</ele>
        <time>2015-09-03T03:34:36Z</time>
      </trkpt>
      <trkpt lat="33.874" lon="77.45104">
        <ele>3834.8</ele>
        <time>2015-09-03T03:34:41Z</time>
      </trkpt>
      <trkpt lat="33.874" lon="77.45102">
        <ele>3835</ele>
        <time>2015-09-03T03:34:42Z</time>
      </trkpt>
      <trkpt lat="33.87399" lon="77.45096">
        <ele>3835.2</ele>
        <time>2015-09-03T03:34:45Z</time>
      </trkpt>
      <trkpt lat="33.87397" lon="77.45089">
        <ele>3835.6</ele>
        <time>2015-09-03T03:34:48Z</time>
      </trkpt>
      <trkpt lat="33.87396" lon="77.45082">
        <ele>3835.8</ele>
        <time>2015-09-03T03:34:51Z</time>
      </trkpt>
      <trkpt lat="33.87394" lon="77.45076">
        <ele>3836.6</ele>
        <time>2015-09-03T03:34:58Z</time>
      </trkpt>
      <trkpt lat="33.87393" lon="77.45076">
        <ele>3837</ele>
        <time>2015-09-03T03:35:00Z</time>
      </trkpt>
      <trkpt lat="33.87392" lon="77.45082">
        <ele>3838</ele>
        <time>2015-09-03T03:35:08Z</time>
      </trkpt>
      <trkpt lat="33.87382" lon="77.45092">
        <ele>3838</ele>
        <time>2015-09-03T03:35:19Z</time>
      </trkpt>
      <trkpt lat="33.8738" lon="77.45091">
        <ele>3837.8</ele>
        <time>2015-09-03T03:35:22Z</time>
      </trkpt>
      <trkpt lat="33.87375" lon="77.45094">
        <ele>3837</ele>
        <time>2015-09-03T03:35:30Z</time>
      </trkpt>
      <trkpt lat="33.87375" lon="77.45096">
        <ele>3836.8</ele>
        <time>2015-09-03T03:35:32Z</time>
      </trkpt>
      <trkpt lat="33.87374" lon="77.45096">
        <ele>3836.6</ele>
        <time>2015-09-03T03:35:34Z</time>
      </trkpt>
      <trkpt lat="33.8737" lon="77.45099">
        <ele>3838</ele>
        <time>2015-09-03T03:35:56Z</time>
      </trkpt>
      <trkpt lat="33.87364" lon="77.45103">
        <ele>3837.6</ele>
        <time>2015-09-03T03:36:09Z</time>
      </trkpt>
      <trkpt lat="33.87362" lon="77.45109">
        <ele>3837</ele>
        <time>2015-09-03T03:36:14Z</time>
      </trkpt>
      <trkpt lat="33.87363" lon="77.45101">
        <ele>3837.4</ele>
        <time>2015-09-03T03:36:27Z</time>
      </trkpt>
      <trkpt lat="33.87362" lon="77.45109">
        <ele>3837.2</ele>
        <time>2015-09-03T03:36:42Z</time>
      </trkpt>
      <trkpt lat="33.87361" lon="77.45111">
        <ele>3837.2</ele>
        <time>2015-09-03T03:36:45Z</time>
      </trkpt>
      <trkpt lat="33.87359" lon="77.45113">
        <ele>3837.4</ele>
        <time>2015-09-03T03:36:47Z</time>
      </trkpt>
      <trkpt lat="33.87357" lon="77.45116">
        <ele>3837.8</ele>
        <time>2015-09-03T03:36:51Z</time>
      </trkpt>
      <trkpt lat="33.87356" lon="77.45116">
        <ele>3837.8</ele>
        <time>2015-09-03T03:36:52Z</time>
      </trkpt>
      <trkpt lat="33.87355" lon="77.45117">
        <ele>3838</ele>
        <time>2015-09-03T03:36:54Z</time>
      </trkpt>
      <trkpt lat="33.87357" lon="77.45119">
        <ele>3838</ele>
        <time>2015-09-03T03:36:57Z</time>
      </trkpt>
      <trkpt lat="33.87364" lon="77.45105">
        <ele>3838</ele>
        <time>2015-09-03T03:37:18Z</time>
      </trkpt>
      <trkpt lat="33.87364" lon="77.45104">
        <ele>3838</ele>
        <time>2015-09-03T03:37:19Z</time>
      </trkpt>
      <trkpt lat="33.87362" lon="77.45094">
        <ele>3837.8</ele>
        <time>2015-09-03T03:37:29Z</time>
      </trkpt>
      <trkpt lat="33.87374" lon="77.45096">
        <ele>3837.6</ele>
        <time>2015-09-03T03:37:38Z</time>
      </trkpt>
      <trkpt lat="33.87372" lon="77.45115">
        <ele>3837.8</ele>
        <time>2015-09-03T03:37:41Z</time>
      </trkpt>
      <trkpt lat="33.87369" lon="77.45122">
        <ele>3837.2</ele>
        <time>2015-09-03T03:37:48Z</time>
      </trkpt>
      <trkpt lat="33.87366" lon="77.45144">
        <ele>3836.8</ele>
        <time>2015-09-03T03:38:03Z</time>
      </trkpt>
      <trkpt lat="33.87367" lon="77.45145">
        <ele>3836.6</ele>
        <time>2015-09-03T03:38:05Z</time>
      </trkpt>
      <trkpt lat="33.87367" lon="77.45147">
        <ele>3836.6</ele>
        <time>2015-09-03T03:38:08Z</time>
      </trkpt>
      <trkpt lat="33.87373" lon="77.45155">
        <ele>3837</ele>
        <time>2015-09-03T03:38:18Z</time>
      </trkpt>
      <trkpt lat="33.87373" lon="77.45153">
        <ele>3837</ele>
        <time>2015-09-03T03:38:48Z</time>
      </trkpt>
      <trkpt lat="33.87369" lon="77.45148">
        <ele>3837</ele>
        <time>2015-09-03T03:38:50Z</time>
      </trkpt>
      <trkpt lat="33.87367" lon="77.45138">
        <ele>3837.4</ele>
        <time>2015-09-03T03:38:55Z</time>
      </trkpt>
      <trkpt lat="33.87367" lon="77.45135">
        <ele>3837</ele>
        <time>2015-09-03T03:39:00Z</time>
      </trkpt>
      <trkpt lat="33.87371" lon="77.4513">
        <ele>3837</ele>
        <time>2015-09-03T03:39:08Z</time>
      </trkpt>
      <trkpt lat="33.87365" lon="77.45145">
        <ele>3837.6</ele>
        <time>2015-09-03T03:39:16Z</time>
      </trkpt>
      <trkpt lat="33.87365" lon="77.45147">
        <ele>3837.6</ele>
        <time>2015-09-03T03:39:17Z</time>
      </trkpt>
      <trkpt lat="33.87364" lon="77.45147">
        <ele>3837.8</ele>
        <time>2015-09-03T03:39:36Z</time>
      </trkpt>
      <trkpt lat="33.87365" lon="77.45151">
        <ele>3837.8</ele>
        <time>2015-09-03T03:39:39Z</time>
      </trkpt>
      <trkpt lat="33.87363" lon="77.45148">
        <ele>3837.8</ele>
        <time>2015-09-03T03:39:41Z</time>
      </trkpt>
      <trkpt lat="33.87365" lon="77.4515">
        <ele>3837.6</ele>
        <time>2015-09-03T03:39:44Z</time>
      </trkpt>
      <trkpt lat="33.87368" lon="77.45153">
        <ele>3837.6</ele>
        <time>2015-09-03T03:39:46Z</time>
      </trkpt>
      <trkpt lat="33.87366" lon="77.45151">
        <ele>3837.4</ele>
        <time>2015-09-03T03:40:00Z</time>
      </trkpt>
      <trkpt lat="33.87363" lon="77.45152">
        <ele>3837.4</ele>
        <time>2015-09-03T03:40:06Z</time>
      </trkpt>
      <trkpt lat="33.87367" lon="77.45148">
        <ele>3837.8</ele>
        <time>2015-09-03T03:40:10Z</time>
      </trkpt>
      <trkpt lat="33.87367" lon="77.45147">
        <ele>3837.8</ele>
        <time>2015-09-03T03:40:12Z</time>
      </trkpt>
      <trkpt lat="33.87365" lon="77.45144">
        <ele>3838</ele>
        <time>2015-09-03T03:40:16Z</time>
      </trkpt>
      <trkpt lat="33.87365" lon="77.45142">
        <ele>3838.2</ele>
        <time>2015-09-03T03:40:18Z</time>
      </trkpt>
      <trkpt lat="33.87365" lon="77.45139">
        <ele>3838.2</ele>
        <time>2015-09-03T03:40:22Z</time>
      </trkpt>
      <trkpt lat="33.87364" lon="77.45133">
        <ele>3838</ele>
        <time>2015-09-03T03:40:24Z</time>
      </trkpt>
      <trkpt lat="33.87364" lon="77.45135">
        <ele>3837</ele>
        <time>2015-09-03T03:40:28Z</time>
      </trkpt>
      <trkpt lat="33.87365" lon="77.45139">
        <ele>3836.8</ele>
        <time>2015-09-03T03:40:30Z</time>
      </trkpt>
      <trkpt lat="33.87363" lon="77.45143">
        <ele>3837</ele>
        <time>2015-09-03T03:40:58Z</time>
      </trkpt>
      <trkpt lat="33.87358" lon="77.45144">
        <ele>3836.6</ele>
        <time>2015-09-03T03:41:24Z</time>
      </trkpt>
      <trkpt lat="33.8736" lon="77.45135">
        <ele>3837</ele>
        <time>2015-09-03T03:41:51Z</time>
      </trkpt>
      <trkpt lat="33.87361" lon="77.45133">
        <ele>3837</ele>
        <time>2015-09-03T03:41:53Z</time>
      </trkpt>
      <trkpt lat="33.87362" lon="77.45133">
        <ele>3836.8</ele>
        <time>2015-09-03T03:41:57Z</time>
      </trkpt>
      <trkpt lat="33.87357" lon="77.45134">
        <ele>3837</ele>
        <time>2015-09-03T03:42:03Z</time>
      </trkpt>
      <trkpt lat="33.8736" lon="77.45131">
        <ele>3837</ele>
        <time>2015-09-03T03:42:06Z</time>
      </trkpt>
      <trkpt lat="33.87362" lon="77.4514">
        <ele>3835.8</ele>
        <time>2015-09-03T03:42:29Z</time>
      </trkpt>
      <trkpt lat="33.87364" lon="77.45142">
        <ele>3836</ele>
        <time>2015-09-03T03:43:07Z</time>
      </trkpt>
      <trkpt lat="33.87377" lon="77.45142">
        <ele>3836.4</ele>
        <time>2015-09-03T03:43:16Z</time>
      </trkpt>
      <trkpt lat="33.87378" lon="77.45143">
        <ele>3836.6</ele>
        <time>2015-09-03T03:43:18Z</time>
      </trkpt>
      <trkpt lat="33.8738" lon="77.45143">
        <ele>3836.6</ele>
        <time>2015-09-03T03:43:20Z</time>
      </trkpt>
      <trkpt lat="33.87378" lon="77.45145">
        <ele>3836.6</ele>
        <time>2015-09-03T03:43:25Z</time>
      </trkpt>
      <trkpt lat="33.8737" lon="77.45139">
        <ele>3836.2</ele>
        <time>2015-09-03T03:43:28Z</time>
      </trkpt>
      <trkpt lat="33.87365" lon="77.45136">
        <ele>3835.6</ele>
        <time>2015-09-03T03:43:32Z</time>
      </trkpt>
      <trkpt lat="33.87364" lon="77.45138">
        <ele>3835.4</ele>
        <time>2015-09-03T03:43:34Z</time>
      </trkpt>
      <trkpt lat="33.87364" lon="77.4514">
        <ele>3835.6</ele>
        <time>2015-09-03T03:43:42Z</time>
      </trkpt>
      <trkpt lat="33.8737" lon="77.45153">
        <ele>3836</ele>
        <time>2015-09-03T03:44:08Z</time>
      </trkpt>
      <trkpt lat="33.87371" lon="77.45157">
        <ele>3836.4</ele>
        <time>2015-09-03T03:44:11Z</time>
      </trkpt>
      <trkpt lat="33.87366" lon="77.45154">
        <ele>3836.8</ele>
        <time>2015-09-03T03:44:28Z</time>
      </trkpt>
      <trkpt lat="33.87362" lon="77.45157">
        <ele>3837</ele>
        <time>2015-09-03T03:44:34Z</time>
      </trkpt>
      <trkpt lat="33.87359" lon="77.45159">
        <ele>3835.8</ele>
        <time>2015-09-03T03:45:20Z</time>
      </trkpt>
      <trkpt lat="33.87359" lon="77.4516">
        <ele>3835.8</ele>
        <time>2015-09-03T03:45:21Z</time>
      </trkpt>
      <trkpt lat="33.87358" lon="77.45155">
        <ele>3836.6</ele>
        <time>2015-09-03T03:45:41Z</time>
      </trkpt>
      <trkpt lat="33.87355" lon="77.45144">
        <ele>3836.6</ele>
        <time>2015-09-03T03:45:46Z</time>
      </trkpt>
      <trkpt lat="33.87356" lon="77.45133">
        <ele>3837</ele>
        <time>2015-09-03T03:46:00Z</time>
      </trkpt>
      <trkpt lat="33.87361" lon="77.45139">
        <ele>3838</ele>
        <time>2015-09-03T03:46:21Z</time>
      </trkpt>
      <trkpt lat="33.87364" lon="77.45138">
        <ele>3838.8</ele>
        <time>2015-09-03T03:46:24Z</time>
      </trkpt>
      <trkpt lat="33.87368" lon="77.45139">
        <ele>3839</ele>
        <time>2015-09-03T03:46:29Z</time>
      </trkpt>
      <trkpt lat="33.87371" lon="77.45141">
        <ele>3839.2</ele>
        <time>2015-09-03T03:46:40Z</time>
      </trkpt>
      <trkpt lat="33.87373" lon="77.45149">
        <ele>3840.2</ele>
        <time>2015-09-03T03:46:55Z</time>
      </trkpt>
      <trkpt lat="33.87373" lon="77.45153">
        <ele>3841</ele>
        <time>2015-09-03T03:46:59Z</time>
      </trkpt>
      <trkpt lat="33.87373" lon="77.45156">
        <ele>3841.4</ele>
        <time>2015-09-03T03:47:01Z</time>
      </trkpt>
      <trkpt lat="33.87373" lon="77.45158">
        <ele>3842.4</ele>
        <time>2015-09-03T03:47:08Z</time>
      </trkpt>
      <trkpt lat="33.87374" lon="77.45156">
        <ele>3843.6</ele>
        <time>2015-09-03T03:47:17Z</time>
      </trkpt>
      <trkpt lat="33.87375" lon="77.45158">
        <ele>3844.6</ele>
        <time>2015-09-03T03:47:25Z</time>
      </trkpt>
      <trkpt lat="33.87378" lon="77.45162">
        <ele>3845.8</ele>
        <time>2015-09-03T03:47:33Z</time>
      </trkpt>
      <trkpt lat="33.87379" lon="77.45162">
        <ele>3846.8</ele>
        <time>2015-09-03T03:47:42Z</time>
      </trkpt>
      <trkpt lat="33.87381" lon="77.45163">
        <ele>3847.8</ele>
        <time>2015-09-03T03:47:51Z</time>
      </trkpt>
      <trkpt lat="33.87379" lon="77.45166">
        <ele>3849</ele>
        <time>2015-09-03T03:47:59Z</time>
      </trkpt>
      <trkpt lat="33.87379" lon="77.4517">
        <ele>3850</ele>
        <time>2015-09-03T03:48:09Z</time>
      </trkpt>
      <trkpt lat="33.8738" lon="77.45171">
        <ele>3850</ele>
        <time>2015-09-03T03:48:10Z</time>
      </trkpt>
      <trkpt lat="33.87382" lon="77.4517">
        <ele>3851.2</ele>
        <time>2015-09-03T03:48:23Z</time>
      </trkpt>
      <trkpt lat="33.87384" lon="77.45169">
        <ele>3852.2</ele>
        <time>2015-09-03T03:48:33Z</time>
      </trkpt>
      <trkpt lat="33.87382" lon="77.45162">
        <ele>3853.2</ele>
        <time>2015-09-03T03:48:41Z</time>
      </trkpt>
      <trkpt lat="33.87383" lon="77.4516">
        <ele>3854.4</ele>
        <time>2015-09-03T03:48:49Z</time>
      </trkpt>
      <trkpt lat="33.87382" lon="77.45167">
        <ele>3855.4</ele>
        <time>2015-09-03T03:48:59Z</time>
      </trkpt>
      <trkpt lat="33.87384" lon="77.4517">
        <ele>3856.6</ele>
        <time>2015-09-03T03:49:08Z</time>
      </trkpt>
      <trkpt lat="33.87387" lon="77.45169">
        <ele>3857.6</ele>
        <time>2015-09-03T03:49:18Z</time>
      </trkpt>
      <trkpt lat="33.87388" lon="77.45172">
        <ele>3858.8</ele>
        <time>2015-09-03T03:49:25Z</time>
      </trkpt>
      <trkpt lat="33.87388" lon="77.45177">
        <ele>3859.8</ele>
        <time>2015-09-03T03:49:34Z</time>
      </trkpt>
      <trkpt lat="33.87383" lon="77.45178">
        <ele>3860.2</ele>
        <time>2015-09-03T03:49:39Z</time>
      </trkpt>
      <trkpt lat="33.87386" lon="77.45174">
        <ele>3860.8</ele>
        <time>2015-09-03T03:49:44Z</time>
      </trkpt>
      <trkpt lat="33.87387" lon="77.45172">
        <ele>3861.8</ele>
        <time>2015-09-03T03:49:52Z</time>
      </trkpt>
      <trkpt lat="33.8739" lon="77.45171">
        <ele>3862.8</ele>
        <time>2015-09-03T03:49:57Z</time>
      </trkpt>
      <trkpt lat="33.87401" lon="77.45171">
        <ele>3863.8</ele>
        <time>2015-09-03T03:50:16Z</time>
      </trkpt>
      <trkpt lat="33.87402" lon="77.45172">
        <ele>3864</ele>
        <time>2015-09-03T03:50:22Z</time>
      </trkpt>
      <trkpt lat="33.874" lon="77.45174">
        <ele>3865</ele>
        <time>2015-09-03T03:50:29Z</time>
      </trkpt>
      <trkpt lat="33.874" lon="77.45171">
        <ele>3866</ele>
        <time>2015-09-03T03:50:36Z</time>
      </trkpt>
      <trkpt lat="33.87398" lon="77.45168">
        <ele>3867.2</ele>
        <time>2015-09-03T03:50:42Z</time>
      </trkpt>
      <trkpt lat="33.87397" lon="77.45166">
        <ele>3868.4</ele>
        <time>2015-09-03T03:50:48Z</time>
      </trkpt>
      <trkpt lat="33.87397" lon="77.45166">
        <ele>3869.4</ele>
        <time>2015-09-03T03:50:54Z</time>
      </trkpt>
      <trkpt lat="33.874" lon="77.45167">
        <ele>3870.4</ele>
        <time>2015-09-03T03:51:02Z</time>
      </trkpt>
      <trkpt lat="33.87398" lon="77.4517">
        <ele>3871.6</ele>
        <time>2015-09-03T03:51:10Z</time>
      </trkpt>
      <trkpt lat="33.87399" lon="77.4517">
        <ele>3872.8</ele>
        <time>2015-09-03T03:51:17Z</time>
      </trkpt>
      <trkpt lat="33.874" lon="77.45174">
        <ele>3873.8</ele>
        <time>2015-09-03T03:51:27Z</time>
      </trkpt>
      <trkpt lat="33.87399" lon="77.45176">
        <ele>3874.8</ele>
        <time>2015-09-03T03:51:35Z</time>
      </trkpt>
      <trkpt lat="33.87398" lon="77.45181">
        <ele>3875.8</ele>
        <time>2015-09-03T03:51:46Z</time>
      </trkpt>
      <trkpt lat="33.87395" lon="77.45183">
        <ele>3876.8</ele>
        <time>2015-09-03T03:51:55Z</time>
      </trkpt>
      <trkpt lat="33.87399" lon="77.45184">
        <ele>3877</ele>
        <time>2015-09-03T03:52:08Z</time>
      </trkpt>
      <trkpt lat="33.87401" lon="77.45184">
        <ele>3877.4</ele>
        <time>2015-09-03T03:52:10Z</time>
      </trkpt>
      <trkpt lat="33.874" lon="77.45185">
        <ele>3878.2</ele>
        <time>2015-09-03T03:52:12Z</time>
      </trkpt>
      <trkpt lat="33.87402" lon="77.45188">
        <ele>3879.2</ele>
        <time>2015-09-03T03:52:16Z</time>
      </trkpt>
      <trkpt lat="33.87402" lon="77.45194">
        <ele>3880.4</ele>
        <time>2015-09-03T03:52:32Z</time>
      </trkpt>
      <trkpt lat="33.874" lon="77.45197">
        <ele>3881.4</ele>
        <time>2015-09-03T03:52:38Z</time>
      </trkpt>
      <trkpt lat="33.87398" lon="77.45205">
        <ele>3882.6</ele>
        <time>2015-09-03T03:52:48Z</time>
      </trkpt>
      <trkpt lat="33.87397" lon="77.45208">
        <ele>3883.6</ele>
        <time>2015-09-03T03:52:53Z</time>
      </trkpt>
      <trkpt lat="33.87397" lon="77.4521">
        <ele>3884.6</ele>
        <time>2015-09-03T03:53:00Z</time>
      </trkpt>
      <trkpt lat="33.874" lon="77.45201">
        <ele>3885.8</ele>
        <time>2015-09-03T03:53:12Z</time>
      </trkpt>
      <trkpt lat="33.87402" lon="77.45191">
        <ele>3886.8</ele>
        <time>2015-09-03T03:53:24Z</time>
      </trkpt>
      <trkpt lat="33.874" lon="77.45188">
        <ele>3887.8</ele>
        <time>2015-09-03T03:53:30Z</time>
      </trkpt>
      <trkpt lat="33.87404" lon="77.45183">
        <ele>3888.4</ele>
        <time>2015-09-03T03:53:36Z</time>
      </trkpt>
      <trkpt lat="33.87408" lon="77.45183">
        <ele>3888.6</ele>
        <time>2015-09-03T03:53:39Z</time>
      </trkpt>
      <trkpt lat="33.87409" lon="77.45185">
        <ele>3888.8</ele>
        <time>2015-09-03T03:53:41Z</time>
      </trkpt>
      <trkpt lat="33.87408" lon="77.45186">
        <ele>3889</ele>
        <time>2015-09-03T03:53:42Z</time>
      </trkpt>
      <trkpt lat="33.87408" lon="77.45187">
        <ele>3889.2</ele>
        <time>2015-09-03T03:53:43Z</time>
      </trkpt>
      <trkpt lat="33.87409" lon="77.45189">
        <ele>3890</ele>
        <time>2015-09-03T03:53:50Z</time>
      </trkpt>
      <trkpt lat="33.87406" lon="77.45194">
        <ele>3891</ele>
        <time>2015-09-03T03:53:57Z</time>
      </trkpt>
      <trkpt lat="33.87408" lon="77.45198">
        <ele>3892.2</ele>
        <time>2015-09-03T03:54:07Z</time>
      </trkpt>
      <trkpt lat="33.87405" lon="77.45209">
        <ele>3893.2</ele>
        <time>2015-09-03T03:54:29Z</time>
      </trkpt>
      <trkpt lat="33.87406" lon="77.45211">
        <ele>3894.4</ele>
        <time>2015-09-03T03:54:36Z</time>
      </trkpt>
      <trkpt lat="33.87408" lon="77.45212">
        <ele>3895.4</ele>
        <time>2015-09-03T03:54:43Z</time>
      </trkpt>
      <trkpt lat="33.87412" lon="77.45212">
        <ele>3896.4</ele>
        <time>2015-09-03T03:54:52Z</time>
      </trkpt>
      <trkpt lat="33.87424" lon="77.45223">
        <ele>3897.2</ele>
        <time>2015-09-03T03:55:19Z</time>
      </trkpt>
      <trkpt lat="33.87418" lon="77.45221">
        <ele>3897.4</ele>
        <time>2015-09-03T03:55:25Z</time>
      </trkpt>
      <trkpt lat="33.87417" lon="77.45221">
        <ele>3897.6</ele>
        <time>2015-09-03T03:55:26Z</time>
      </trkpt>
      <trkpt lat="33.87413" lon="77.45221">
        <ele>3898</ele>
        <time>2015-09-03T03:55:29Z</time>
      </trkpt>
      <trkpt lat="33.87411" lon="77.45224">
        <ele>3898.8</ele>
        <time>2015-09-03T03:55:33Z</time>
      </trkpt>
      <trkpt lat="33.87411" lon="77.45225">
        <ele>3899.8</ele>
        <time>2015-09-03T03:55:40Z</time>
      </trkpt>
      <trkpt lat="33.87409" lon="77.45228">
        <ele>3901</ele>
        <time>2015-09-03T03:55:50Z</time>
      </trkpt>
      <trkpt lat="33.87409" lon="77.45228">
        <ele>3902</ele>
        <time>2015-09-03T03:55:58Z</time>
      </trkpt>
      <trkpt lat="33.87408" lon="77.45235">
        <ele>3903</ele>
        <time>2015-09-03T03:56:06Z</time>
      </trkpt>
      <trkpt lat="33.87412" lon="77.45228">
        <ele>3905.2</ele>
        <time>2015-09-03T03:56:26Z</time>
      </trkpt>
      <trkpt lat="33.87411" lon="77.45223">
        <ele>3906.2</ele>
        <time>2015-09-03T03:56:33Z</time>
      </trkpt>
      <trkpt lat="33.87433" lon="77.4524">
        <ele>3907.4</ele>
        <time>2015-09-03T03:56:40Z</time>
      </trkpt>
      <trkpt lat="33.87422" lon="77.45225">
        <ele>3908.6</ele>
        <time>2015-09-03T03:56:49Z</time>
      </trkpt>
      <trkpt lat="33.8742" lon="77.45227">
        <ele>3909.6</ele>
        <time>2015-09-03T03:57:03Z</time>
      </trkpt>
      <trkpt lat="33.8742" lon="77.45233">
        <ele>3910.8</ele>
        <time>2015-09-03T03:57:10Z</time>
      </trkpt>
      <trkpt lat="33.87419" lon="77.45232">
        <ele>3911.8</ele>
        <time>2015-09-03T03:57:17Z</time>
      </trkpt>
      <trkpt lat="33.87415" lon="77.45232">
        <ele>3913</ele>
        <time>2015-09-03T03:57:23Z</time>
      </trkpt>
      <trkpt lat="33.87416" lon="77.45234">
        <ele>3914</ele>
        <time>2015-09-03T03:57:35Z</time>
      </trkpt>
      <trkpt lat="33.87416" lon="77.45237">
        <ele>3915</ele>
        <time>2015-09-03T03:57:42Z</time>
      </trkpt>
      <trkpt lat="33.87416" lon="77.45236">
        <ele>3916.2</ele>
        <time>2015-09-03T03:57:53Z</time>
      </trkpt>
      <trkpt lat="33.87419" lon="77.45231">
        <ele>3917.2</ele>
        <time>2015-09-03T03:58:02Z</time>
      </trkpt>
      <trkpt lat="33.87419" lon="77.45227">
        <ele>3918.2</ele>
        <time>2015-09-03T03:58:08Z</time>
      </trkpt>
      <trkpt lat="33.8742" lon="77.45221">
        <ele>3919.2</ele>
        <time>2015-09-03T03:58:27Z</time>
      </trkpt>
      <trkpt lat="33.87423" lon="77.45223">
        <ele>3919.6</ele>
        <time>2015-09-03T03:58:41Z</time>
      </trkpt>
      <trkpt lat="33.87425" lon="77.45221">
        <ele>3919.6</ele>
        <time>2015-09-03T03:58:52Z</time>
      </trkpt>
      <trkpt lat="33.87426" lon="77.4522">
        <ele>3920.2</ele>
        <time>2015-09-03T03:59:35Z</time>
      </trkpt>
      <trkpt lat="33.87426" lon="77.4522">
        <ele>3920.4</ele>
        <time>2015-09-03T03:59:36Z</time>
      </trkpt>
      <trkpt lat="33.87418" lon="77.45218">
        <ele>3919.8</ele>
        <time>2015-09-03T04:00:49Z</time>
      </trkpt>
      <trkpt lat="33.87415" lon="77.45219">
        <ele>3919.8</ele>
        <time>2015-09-03T04:00:52Z</time>
      </trkpt>
      <trkpt lat="33.87415" lon="77.45231">
        <ele>3919.2</ele>
        <time>2015-09-03T04:01:01Z</time>
      </trkpt>
      <trkpt lat="33.87415" lon="77.45234">
        <ele>3919</ele>
        <time>2015-09-03T04:01:04Z</time>
      </trkpt>
      <trkpt lat="33.87412" lon="77.45237">
        <ele>3920</ele>
        <time>2015-09-03T04:01:09Z</time>
      </trkpt>
      <trkpt lat="33.87408" lon="77.45242">
        <ele>3920</ele>
        <time>2015-09-03T04:01:14Z</time>
      </trkpt>
      <trkpt lat="33.87411" lon="77.45247">
        <ele>3920</ele>
        <time>2015-09-03T04:01:16Z</time>
      </trkpt>
      <trkpt lat="33.87412" lon="77.45249">
        <ele>3920.4</ele>
        <time>2015-09-03T04:01:18Z</time>
      </trkpt>
      <trkpt lat="33.87413" lon="77.4525">
        <ele>3920.8</ele>
        <time>2015-09-03T04:01:19Z</time>
      </trkpt>
      <trkpt lat="33.87417" lon="77.45252">
        <ele>3921.4</ele>
        <time>2015-09-03T04:01:25Z</time>
      </trkpt>
      <trkpt lat="33.87415" lon="77.45253">
        <ele>3922.8</ele>
        <time>2015-09-03T04:01:30Z</time>
      </trkpt>
      <trkpt lat="33.87414" lon="77.45256">
        <ele>3923.8</ele>
        <time>2015-09-03T04:01:36Z</time>
      </trkpt>
      <trkpt lat="33.87413" lon="77.45253">
        <ele>3924.8</ele>
        <time>2015-09-03T04:01:45Z</time>
      </trkpt>
      <trkpt lat="33.87412" lon="77.45254">
        <ele>3926</ele>
        <time>2015-09-03T04:01:51Z</time>
      </trkpt>
      <trkpt lat="33.87413" lon="77.45258">
        <ele>3927.2</ele>
        <time>2015-09-03T04:01:57Z</time>
      </trkpt>
      <trkpt lat="33.87414" lon="77.45262">
        <ele>3927.4</ele>
        <time>2015-09-03T04:02:01Z</time>
      </trkpt>
      <trkpt lat="33.87412" lon="77.45264">
        <ele>3928.2</ele>
        <time>2015-09-03T04:02:06Z</time>
      </trkpt>
      <trkpt lat="33.8742" lon="77.45274">
        <ele>3929</ele>
        <time>2015-09-03T04:03:25Z</time>
      </trkpt>
      <trkpt lat="33.87414" lon="77.45282">
        <ele>3929.4</ele>
        <time>2015-09-03T04:03:30Z</time>
      </trkpt>
      <trkpt lat="33.87413" lon="77.45283">
        <ele>3929.4</ele>
        <time>2015-09-03T04:03:32Z</time>
      </trkpt>
      <trkpt lat="33.87413" lon="77.4529">
        <ele>3929.2</ele>
        <time>2015-09-03T04:03:37Z</time>
      </trkpt>
      <trkpt lat="33.87415" lon="77.45288">
        <ele>3929.4</ele>
        <time>2015-09-03T04:03:40Z</time>
      </trkpt>
      <trkpt lat="33.87417" lon="77.45288">
        <ele>3930</ele>
        <time>2015-09-03T04:03:42Z</time>
      </trkpt>
      <trkpt lat="33.87417" lon="77.45286">
        <ele>3930.4</ele>
        <time>2015-09-03T04:03:44Z</time>
      </trkpt>
      <trkpt lat="33.87419" lon="77.45282">
        <ele>3931.4</ele>
        <time>2015-09-03T04:03:49Z</time>
      </trkpt>
      <trkpt lat="33.87422" lon="77.45279">
        <ele>3931.4</ele>
        <time>2015-09-03T04:03:54Z</time>
      </trkpt>
      <trkpt lat="33.87414" lon="77.45279">
        <ele>3932.4</ele>
        <time>2015-09-03T04:04:28Z</time>
      </trkpt>
      <trkpt lat="33.87413" lon="77.45277">
        <ele>3932.4</ele>
        <time>2015-09-03T04:04:31Z</time>
      </trkpt>
      <trkpt lat="33.87413" lon="77.45275">
        <ele>3932.6</ele>
        <time>2015-09-03T04:04:33Z</time>
      </trkpt>
      <trkpt lat="33.87412" lon="77.45276">
        <ele>3932.8</ele>
        <time>2015-09-03T04:04:35Z</time>
      </trkpt>
      <trkpt lat="33.8741" lon="77.45271">
        <ele>3932.8</ele>
        <time>2015-09-03T04:04:51Z</time>
      </trkpt>
      <trkpt lat="33.8743" lon="77.45245">
        <ele>3933.2</ele>
        <time>2015-09-03T04:05:58Z</time>
      </trkpt>
      <trkpt lat="33.87437" lon="77.45258">
        <ele>3931.4</ele>
        <time>2015-09-03T04:06:50Z</time>
      </trkpt>
      <trkpt lat="33.87434" lon="77.45281">
        <ele>3931.8</ele>
        <time>2015-09-03T04:09:07Z</time>
      </trkpt>
      <trkpt lat="33.87461" lon="77.45263">
        <ele>3931.2</ele>
        <time>2015-09-03T04:09:27Z</time>
      </trkpt>
      <trkpt lat="33.87453" lon="77.45265">
        <ele>3931.2</ele>
        <time>2015-09-03T04:09:31Z</time>
      </trkpt>
      <trkpt lat="33.87456" lon="77.45266">
        <ele>3931.2</ele>
        <time>2015-09-03T04:09:32Z</time>
      </trkpt>
      <trkpt lat="33.87457" lon="77.45266">
        <ele>3931</ele>
        <time>2015-09-03T04:09:34Z</time>
      </trkpt>
      <trkpt lat="33.87454" lon="77.45264">
        <ele>3930.4</ele>
        <time>2015-09-03T04:09:36Z</time>
      </trkpt>
      <trkpt lat="33.87453" lon="77.45265">
        <ele>3930.2</ele>
        <time>2015-09-03T04:09:37Z</time>
      </trkpt>
      <trkpt lat="33.8745" lon="77.45266">
        <ele>3930</ele>
        <time>2015-09-03T04:09:39Z</time>
      </trkpt>
      <trkpt lat="33.87446" lon="77.45268">
        <ele>3930</ele>
        <time>2015-09-03T04:09:42Z</time>
      </trkpt>
      <trkpt lat="33.87422" lon="77.45272">
        <ele>3930</ele>
        <time>2015-09-03T04:09:45Z</time>
      </trkpt>
      <trkpt lat="33.87424" lon="77.45272">
        <ele>3930.2</ele>
        <time>2015-09-03T04:09:57Z</time>
      </trkpt>
      <trkpt lat="33.87426" lon="77.45272">
        <ele>3930.2</ele>
        <time>2015-09-03T04:10:02Z</time>
      </trkpt>
      <trkpt lat="33.87421" lon="77.45274">
        <ele>3930</ele>
        <time>2015-09-03T04:10:06Z</time>
      </trkpt>
      <trkpt lat="33.87416" lon="77.45285">
        <ele>3930</ele>
        <time>2015-09-03T04:10:09Z</time>
      </trkpt>
      <trkpt lat="33.87414" lon="77.45289">
        <ele>3929.8</ele>
        <time>2015-09-03T04:10:12Z</time>
      </trkpt>
      <trkpt lat="33.87412" lon="77.45292">
        <ele>3929.4</ele>
        <time>2015-09-03T04:10:16Z</time>
      </trkpt>
      <trkpt lat="33.87416" lon="77.45283">
        <ele>3929.2</ele>
        <time>2015-09-03T04:10:23Z</time>
      </trkpt>
      <trkpt lat="33.87418" lon="77.45282">
        <ele>3929.2</ele>
        <time>2015-09-03T04:10:25Z</time>
      </trkpt>
      <trkpt lat="33.87418" lon="77.45279">
        <ele>3929.6</ele>
        <time>2015-09-03T04:10:32Z</time>
      </trkpt>
      <trkpt lat="33.87419" lon="77.45278">
        <ele>3929.8</ele>
        <time>2015-09-03T04:10:34Z</time>
      </trkpt>
      <trkpt lat="33.87418" lon="77.45271">
        <ele>3930.4</ele>
        <time>2015-09-03T04:10:48Z</time>
      </trkpt>
      <trkpt lat="33.87421" lon="77.45278">
        <ele>3930.2</ele>
        <time>2015-09-03T04:11:06Z</time>
      </trkpt>
      <trkpt lat="33.87418" lon="77.45289">
        <ele>3929.2</ele>
        <time>2015-09-03T04:11:28Z</time>
      </trkpt>
      <trkpt lat="33.87417" lon="77.45291">
        <ele>3928.2</ele>
        <time>2015-09-03T04:11:32Z</time>
      </trkpt>
      <trkpt lat="33.87412" lon="77.45293">
        <ele>3929.4</ele>
        <time>2015-09-03T04:11:43Z</time>
      </trkpt>
      <trkpt lat="33.87409" lon="77.45297">
        <ele>3930.4</ele>
        <time>2015-09-03T04:11:51Z</time>
      </trkpt>
      <trkpt lat="33.8741" lon="77.45296">
        <ele>3930.8</ele>
        <time>2015-09-03T04:11:56Z</time>
      </trkpt>
      <trkpt lat="33.87421" lon="77.45287">
        <ele>3929.6</ele>
        <time>2015-09-03T04:13:04Z</time>
      </trkpt>
      <trkpt lat="33.87421" lon="77.45286">
        <ele>3929.4</ele>
        <time>2015-09-03T04:13:06Z</time>
      </trkpt>
      <trkpt lat="33.87416" lon="77.4527">
        <ele>3929.4</ele>
        <time>2015-09-03T04:13:18Z</time>
      </trkpt>
      <trkpt lat="33.87416" lon="77.45267">
        <ele>3928.8</ele>
        <time>2015-09-03T04:13:21Z</time>
      </trkpt>
      <trkpt lat="33.87416" lon="77.45265">
        <ele>3928.6</ele>
        <time>2015-09-03T04:13:24Z</time>
      </trkpt>
      <trkpt lat="33.87417" lon="77.45263">
        <ele>3928.4</ele>
        <time>2015-09-03T04:13:31Z</time>
      </trkpt>
      <trkpt lat="33.87418" lon="77.45263">
        <ele>3928.4</ele>
        <time>2015-09-03T04:13:32Z</time>
      </trkpt>
      <trkpt lat="33.87417" lon="77.4526">
        <ele>3927.2</ele>
        <time>2015-09-03T04:13:37Z</time>
      </trkpt>
      <trkpt lat="33.87414" lon="77.45252">
        <ele>3926.2</ele>
        <time>2015-09-03T04:13:45Z</time>
      </trkpt>
      <trkpt lat="33.87415" lon="77.45249">
        <ele>3926.8</ele>
        <time>2015-09-03T04:14:11Z</time>
      </trkpt>
      <trkpt lat="33.87389" lon="77.45269">
        <ele>3926.8</ele>
        <time>2015-09-03T04:14:45Z</time>
      </trkpt>
      <trkpt lat="33.87326" lon="77.45316">
        <ele>3926.2</ele>
        <time>2015-09-03T04:25:09Z</time>
      </trkpt>
      <trkpt lat="33.87394" lon="77.45264">
        <ele>3926</ele>
        <time>2015-09-03T04:25:16Z</time>
      </trkpt>
      <trkpt lat="33.87409" lon="77.45258">
        <ele>3926</ele>
        <time>2015-09-03T04:25:19Z</time>
      </trkpt>
      <trkpt lat="33.87423" lon="77.45243">
        <ele>3926.6</ele>
        <time>2015-09-03T04:25:23Z</time>
      </trkpt>
      <trkpt lat="33.87427" lon="77.45246">
        <ele>3926.6</ele>
        <time>2015-09-03T04:25:25Z</time>
      </trkpt>
      <trkpt lat="33.87425" lon="77.45247">
        <ele>3927.2</ele>
        <time>2015-09-03T04:25:37Z</time>
      </trkpt>
      <trkpt lat="33.8743" lon="77.45243">
        <ele>3927.2</ele>
        <time>2015-09-03T04:25:43Z</time>
      </trkpt>
      <trkpt lat="33.87427" lon="77.45241">
        <ele>3927</ele>
        <time>2015-09-03T04:25:45Z</time>
      </trkpt>
      <trkpt lat="33.87431" lon="77.45253">
        <ele>3926.8</ele>
        <time>2015-09-03T04:25:53Z</time>
      </trkpt>
      <trkpt lat="33.87435" lon="77.4526">
        <ele>3926.4</ele>
        <time>2015-09-03T04:26:00Z</time>
      </trkpt>
      <trkpt lat="33.87436" lon="77.45258">
        <ele>3926.2</ele>
        <time>2015-09-03T04:26:03Z</time>
      </trkpt>
      <trkpt lat="33.87434" lon="77.45259">
        <ele>3926.2</ele>
        <time>2015-09-03T04:26:06Z</time>
      </trkpt>
      <trkpt lat="33.87413" lon="77.45265">
        <ele>3925.6</ele>
        <time>2015-09-03T04:26:25Z</time>
      </trkpt>
      <trkpt lat="33.87417" lon="77.45282">
        <ele>3925.6</ele>
        <time>2015-09-03T04:26:49Z</time>
      </trkpt>
      <trkpt lat="33.87419" lon="77.45259">
        <ele>3925.2</ele>
        <time>2015-09-03T04:26:57Z</time>
      </trkpt>
      <trkpt lat="33.87418" lon="77.45254">
        <ele>3924.8</ele>
        <time>2015-09-03T04:27:01Z</time>
      </trkpt>
      <trkpt lat="33.87415" lon="77.45256">
        <ele>3925</ele>
        <time>2015-09-03T04:27:07Z</time>
      </trkpt>
      <trkpt lat="33.8741" lon="77.4526">
        <ele>3925.6</ele>
        <time>2015-09-03T04:27:15Z</time>
      </trkpt>
      <trkpt lat="33.87409" lon="77.4526">
        <ele>3925.6</ele>
        <time>2015-09-03T04:27:17Z</time>
      </trkpt>
      <trkpt lat="33.87415" lon="77.45254">
        <ele>3924.2</ele>
        <time>2015-09-03T04:27:54Z</time>
      </trkpt>
      <trkpt lat="33.87414" lon="77.45251">
        <ele>3923.2</ele>
        <time>2015-09-03T04:28:02Z</time>
      </trkpt>
      <trkpt lat="33.87414" lon="77.45246">
        <ele>3922</ele>
        <time>2015-09-03T04:28:08Z</time>
      </trkpt>
      <trkpt lat="33.8742" lon="77.45243">
        <ele>3920.8</ele>
        <time>2015-09-03T04:28:31Z</time>
      </trkpt>
      <trkpt lat="33.87421" lon="77.45239">
        <ele>3920.2</ele>
        <time>2015-09-03T04:28:35Z</time>
      </trkpt>
      <trkpt lat="33.87422" lon="77.45236">
        <ele>3920.2</ele>
        <time>2015-09-03T04:28:40Z</time>
      </trkpt>
      <trkpt lat="33.87422" lon="77.45233">
        <ele>3919.8</ele>
        <time>2015-09-03T04:28:48Z</time>
      </trkpt>
      <trkpt lat="33.87416" lon="77.45232">
        <ele>3919.2</ele>
        <time>2015-09-03T04:29:14Z</time>
      </trkpt>
      <trkpt lat="33.87417" lon="77.45236">
        <ele>3918.4</ele>
        <time>2015-09-03T04:29:18Z</time>
      </trkpt>
      <trkpt lat="33.87417" lon="77.45236">
        <ele>3917.8</ele>
        <time>2015-09-03T04:29:20Z</time>
      </trkpt>
      <trkpt lat="33.87416" lon="77.45235">
        <ele>3917.2</ele>
        <time>2015-09-03T04:29:22Z</time>
      </trkpt>
      <trkpt lat="33.87418" lon="77.45236">
        <ele>3916.2</ele>
        <time>2015-09-03T04:29:33Z</time>
      </trkpt>
      <trkpt lat="33.87418" lon="77.45233">
        <ele>3915</ele>
        <time>2015-09-03T04:29:45Z</time>
      </trkpt>
      <trkpt lat="33.87416" lon="77.45234">
        <ele>3914</ele>
        <time>2015-09-03T04:30:01Z</time>
      </trkpt>
      <trkpt lat="33.87416" lon="77.45221">
        <ele>3912.8</ele>
        <time>2015-09-03T04:30:08Z</time>
      </trkpt>
      <trkpt lat="33.87416" lon="77.4522">
        <ele>3912</ele>
        <time>2015-09-03T04:30:10Z</time>
      </trkpt>
      <trkpt lat="33.87416" lon="77.45219">
        <ele>3911.6</ele>
        <time>2015-09-03T04:30:11Z</time>
      </trkpt>
      <trkpt lat="33.87416" lon="77.45224">
        <ele>3909.4</ele>
        <time>2015-09-03T04:30:20Z</time>
      </trkpt>
      <trkpt lat="33.87414" lon="77.45229">
        <ele>3908.4</ele>
        <time>2015-09-03T04:30:30Z</time>
      </trkpt>
      <trkpt lat="33.87412" lon="77.45234">
        <ele>3907.8</ele>
        <time>2015-09-03T04:30:32Z</time>
      </trkpt>
      <trkpt lat="33.8741" lon="77.45236">
        <ele>3907</ele>
        <time>2015-09-03T04:30:34Z</time>
      </trkpt>
      <trkpt lat="33.8741" lon="77.4523">
        <ele>3906.4</ele>
        <time>2015-09-03T04:30:36Z</time>
      </trkpt>
      <trkpt lat="33.87409" lon="77.45228">
        <ele>3906</ele>
        <time>2015-09-03T04:30:37Z</time>
      </trkpt>
      <trkpt lat="33.87409" lon="77.45224">
        <ele>3905</ele>
        <time>2015-09-03T04:30:40Z</time>
      </trkpt>
      <trkpt lat="33.8741" lon="77.45223">
        <ele>3904</ele>
        <time>2015-09-03T04:30:43Z</time>
      </trkpt>
      <trkpt lat="33.8741" lon="77.45224">
        <ele>3903.6</ele>
        <time>2015-09-03T04:30:44Z</time>
      </trkpt>
      <trkpt lat="33.87412" lon="77.45221">
        <ele>3902.4</ele>
        <time>2015-09-03T04:30:56Z</time>
      </trkpt>
      <trkpt lat="33.87413" lon="77.45216">
        <ele>3901.4</ele>
        <time>2015-09-03T04:31:00Z</time>
      </trkpt>
      <trkpt lat="33.87413" lon="77.45215">
        <ele>3901.2</ele>
        <time>2015-09-03T04:31:01Z</time>
      </trkpt>
      <trkpt lat="33.87414" lon="77.4521">
        <ele>3900.2</ele>
        <time>2015-09-03T04:31:05Z</time>
      </trkpt>
      <trkpt lat="33.87415" lon="77.45209">
        <ele>3899.6</ele>
        <time>2015-09-03T04:31:08Z</time>
      </trkpt>
      <trkpt lat="33.87415" lon="77.45206">
        <ele>3899.2</ele>
        <time>2015-09-03T04:31:10Z</time>
      </trkpt>
      <trkpt lat="33.87413" lon="77.4521">
        <ele>3898.8</ele>
        <time>2015-09-03T04:31:12Z</time>
      </trkpt>
      <trkpt lat="33.87408" lon="77.45205">
        <ele>3893.6</ele>
        <time>2015-09-03T04:31:41Z</time>
      </trkpt>
      <trkpt lat="33.87409" lon="77.45197">
        <ele>3892.4</ele>
        <time>2015-09-03T04:31:49Z</time>
      </trkpt>
      <trkpt lat="33.87409" lon="77.45191">
        <ele>3891.6</ele>
        <time>2015-09-03T04:31:53Z</time>
      </trkpt>
      <trkpt lat="33.87408" lon="77.45189">
        <ele>3891.4</ele>
        <time>2015-09-03T04:31:54Z</time>
      </trkpt>
      <trkpt lat="33.87405" lon="77.45187">
        <ele>3891</ele>
        <time>2015-09-03T04:31:57Z</time>
      </trkpt>
      <trkpt lat="33.87402" lon="77.45191">
        <ele>3890.2</ele>
        <time>2015-09-03T04:32:01Z</time>
      </trkpt>
      <trkpt lat="33.874" lon="77.45201">
        <ele>3889.2</ele>
        <time>2015-09-03T04:32:08Z</time>
      </trkpt>
      <trkpt lat="33.87399" lon="77.45211">
        <ele>3888.2</ele>
        <time>2015-09-03T04:32:15Z</time>
      </trkpt>
      <trkpt lat="33.87397" lon="77.45212">
        <ele>3888</ele>
        <time>2015-09-03T04:32:16Z</time>
      </trkpt>
      <trkpt lat="33.87396" lon="77.45211">
        <ele>3888</ele>
        <time>2015-09-03T04:32:17Z</time>
      </trkpt>
      <trkpt lat="33.87394" lon="77.4521">
        <ele>3887.2</ele>
        <time>2015-09-03T04:32:20Z</time>
      </trkpt>
      <trkpt lat="33.87393" lon="77.45209">
        <ele>3887</ele>
        <time>2015-09-03T04:32:22Z</time>
      </trkpt>
      <trkpt lat="33.87394" lon="77.45202">
        <ele>3885.8</ele>
        <time>2015-09-03T04:32:28Z</time>
      </trkpt>
      <trkpt lat="33.87395" lon="77.45198">
        <ele>3884.8</ele>
        <time>2015-09-03T04:32:34Z</time>
      </trkpt>
      <trkpt lat="33.87394" lon="77.45191">
        <ele>3883.8</ele>
        <time>2015-09-03T04:32:40Z</time>
      </trkpt>
      <trkpt lat="33.87395" lon="77.45186">
        <ele>3882.8</ele>
        <time>2015-09-03T04:32:45Z</time>
      </trkpt>
      <trkpt lat="33.87394" lon="77.45184">
        <ele>3882</ele>
        <time>2015-09-03T04:32:48Z</time>
      </trkpt>
      <trkpt lat="33.87392" lon="77.45185">
        <ele>3881.6</ele>
        <time>2015-09-03T04:32:50Z</time>
      </trkpt>
      <trkpt lat="33.8739" lon="77.45189">
        <ele>3880.6</ele>
        <time>2015-09-03T04:32:57Z</time>
      </trkpt>
      <trkpt lat="33.87388" lon="77.45187">
        <ele>3879.4</ele>
        <time>2015-09-03T04:33:10Z</time>
      </trkpt>
      <trkpt lat="33.8739" lon="77.45162">
        <ele>3874.6</ele>
        <time>2015-09-03T04:33:35Z</time>
      </trkpt>
      <trkpt lat="33.8739" lon="77.45164">
        <ele>3873.8</ele>
        <time>2015-09-03T04:33:39Z</time>
      </trkpt>
      <trkpt lat="33.87388" lon="77.45171">
        <ele>3873.4</ele>
        <time>2015-09-03T04:33:47Z</time>
      </trkpt>
      <trkpt lat="33.87387" lon="77.45171">
        <ele>3873.4</ele>
        <time>2015-09-03T04:33:48Z</time>
      </trkpt>
      <trkpt lat="33.87383" lon="77.45172">
        <ele>3872.4</ele>
        <time>2015-09-03T04:33:53Z</time>
      </trkpt>
      <trkpt lat="33.87384" lon="77.45172">
        <ele>3871.4</ele>
        <time>2015-09-03T04:33:59Z</time>
      </trkpt>
      <trkpt lat="33.87389" lon="77.45171">
        <ele>3870.4</ele>
        <time>2015-09-03T04:34:05Z</time>
      </trkpt>
      <trkpt lat="33.87385" lon="77.45177">
        <ele>3869.4</ele>
        <time>2015-09-03T04:34:11Z</time>
      </trkpt>
      <trkpt lat="33.87385" lon="77.45178">
        <ele>3869.2</ele>
        <time>2015-09-03T04:34:12Z</time>
      </trkpt>
      <trkpt lat="33.87385" lon="77.45181">
        <ele>3868</ele>
        <time>2015-09-03T04:34:16Z</time>
      </trkpt>
      <trkpt lat="33.87385" lon="77.45184">
        <ele>3867.4</ele>
        <time>2015-09-03T04:34:19Z</time>
      </trkpt>
      <trkpt lat="33.87384" lon="77.45185">
        <ele>3867</ele>
        <time>2015-09-03T04:34:21Z</time>
      </trkpt>
      <trkpt lat="33.87383" lon="77.45181">
        <ele>3865.8</ele>
        <time>2015-09-03T04:34:27Z</time>
      </trkpt>
      <trkpt lat="33.87383" lon="77.45174">
        <ele>3864.6</ele>
        <time>2015-09-03T04:34:33Z</time>
      </trkpt>
      <trkpt lat="33.87383" lon="77.45173">
        <ele>3864.4</ele>
        <time>2015-09-03T04:34:34Z</time>
      </trkpt>
      <trkpt lat="33.87383" lon="77.4517">
        <ele>3863.4</ele>
        <time>2015-09-03T04:34:39Z</time>
      </trkpt>
      <trkpt lat="33.87383" lon="77.45166">
        <ele>3862.4</ele>
        <time>2015-09-03T04:34:46Z</time>
      </trkpt>
      <trkpt lat="33.87378" lon="77.45161">
        <ele>3862.2</ele>
        <time>2015-09-03T04:35:09Z</time>
      </trkpt>
      <trkpt lat="33.87384" lon="77.45138">
        <ele>3862.2</ele>
        <time>2015-09-03T04:35:11Z</time>
      </trkpt>
      <trkpt lat="33.87383" lon="77.45161">
        <ele>3862.2</ele>
        <time>2015-09-03T04:35:18Z</time>
      </trkpt>
      <trkpt lat="33.87383" lon="77.45164">
        <ele>3862</ele>
        <time>2015-09-03T04:35:20Z</time>
      </trkpt>
      <trkpt lat="33.87382" lon="77.45165">
        <ele>3861.8</ele>
        <time>2015-09-03T04:35:22Z</time>
      </trkpt>
      <trkpt lat="33.8738" lon="77.45169">
        <ele>3861.2</ele>
        <time>2015-09-03T04:35:24Z</time>
      </trkpt>
      <trkpt lat="33.87378" lon="77.45173">
        <ele>3860.8</ele>
        <time>2015-09-03T04:35:26Z</time>
      </trkpt>
      <trkpt lat="33.87377" lon="77.45175">
        <ele>3860.4</ele>
        <time>2015-09-03T04:35:28Z</time>
      </trkpt>
      <trkpt lat="33.87376" lon="77.45176">
        <ele>3860.2</ele>
        <time>2015-09-03T04:35:29Z</time>
      </trkpt>
      <trkpt lat="33.87376" lon="77.45177">
        <ele>3859.8</ele>
        <time>2015-09-03T04:35:30Z</time>
      </trkpt>
      <trkpt lat="33.87374" lon="77.45178">
        <ele>3859.2</ele>
        <time>2015-09-03T04:35:32Z</time>
      </trkpt>
      <trkpt lat="33.87373" lon="77.45178">
        <ele>3858.8</ele>
        <time>2015-09-03T04:35:33Z</time>
      </trkpt>
      <trkpt lat="33.87372" lon="77.45177">
        <ele>3858.6</ele>
        <time>2015-09-03T04:35:34Z</time>
      </trkpt>
      <trkpt lat="33.87372" lon="77.45175">
        <ele>3857.8</ele>
        <time>2015-09-03T04:35:36Z</time>
      </trkpt>
      <trkpt lat="33.87373" lon="77.45173">
        <ele>3857.6</ele>
        <time>2015-09-03T04:35:37Z</time>
      </trkpt>
      <trkpt lat="33.87373" lon="77.45172">
        <ele>3857.4</ele>
        <time>2015-09-03T04:35:38Z</time>
      </trkpt>
      <trkpt lat="33.87373" lon="77.4517">
        <ele>3856.4</ele>
        <time>2015-09-03T04:35:41Z</time>
      </trkpt>
      <trkpt lat="33.87372" lon="77.45168">
        <ele>3856</ele>
        <time>2015-09-03T04:35:42Z</time>
      </trkpt>
      <trkpt lat="33.87371" lon="77.45165">
        <ele>3855.4</ele>
        <time>2015-09-03T04:35:44Z</time>
      </trkpt>
      <trkpt lat="33.87371" lon="77.45165">
        <ele>3855</ele>
        <time>2015-09-03T04:35:45Z</time>
      </trkpt>
      <trkpt lat="33.87371" lon="77.45161">
        <ele>3854</ele>
        <time>2015-09-03T04:35:49Z</time>
      </trkpt>
      <trkpt lat="33.87371" lon="77.45159">
        <ele>3852.8</ele>
        <time>2015-09-03T04:35:52Z</time>
      </trkpt>
      <trkpt lat="33.87371" lon="77.45154">
        <ele>3851.8</ele>
        <time>2015-09-03T04:35:56Z</time>
      </trkpt>
      <trkpt lat="33.87369" lon="77.45151">
        <ele>3850.6</ele>
        <time>2015-09-03T04:35:59Z</time>
      </trkpt>
      <trkpt lat="33.87367" lon="77.45149">
        <ele>3849.6</ele>
        <time>2015-09-03T04:36:02Z</time>
      </trkpt>
      <trkpt lat="33.87367" lon="77.45143">
        <ele>3848.6</ele>
        <time>2015-09-03T04:36:05Z</time>
      </trkpt>
      <trkpt lat="33.87366" lon="77.45142">
        <ele>3848.4</ele>
        <time>2015-09-03T04:36:06Z</time>
      </trkpt>
      <trkpt lat="33.87365" lon="77.45142">
        <ele>3847.8</ele>
        <time>2015-09-03T04:36:09Z</time>
      </trkpt>
      <trkpt lat="33.87366" lon="77.45143">
        <ele>3847.6</ele>
        <time>2015-09-03T04:36:13Z</time>
      </trkpt>
      <trkpt lat="33.8735" lon="77.4516">
        <ele>3847</ele>
        <time>2015-09-03T04:36:20Z</time>
      </trkpt>
      <trkpt lat="33.87346" lon="77.45159">
        <ele>3847</ele>
        <time>2015-09-03T04:36:23Z</time>
      </trkpt>
      <trkpt lat="33.87345" lon="77.45154">
        <ele>3847</ele>
        <time>2015-09-03T04:36:27Z</time>
      </trkpt>
      <trkpt lat="33.87354" lon="77.4514">
        <ele>3847</ele>
        <time>2015-09-03T04:36:30Z</time>
      </trkpt>
      <trkpt lat="33.87361" lon="77.45133">
        <ele>3847.2</ele>
        <time>2015-09-03T04:36:35Z</time>
      </trkpt>
      <trkpt lat="33.87357" lon="77.45136">
        <ele>3846.6</ele>
        <time>2015-09-03T04:36:41Z</time>
      </trkpt>
      <trkpt lat="33.87356" lon="77.45141">
        <ele>3846</ele>
        <time>2015-09-03T04:36:44Z</time>
      </trkpt>
      <trkpt lat="33.87355" lon="77.45146">
        <ele>3845.8</ele>
        <time>2015-09-03T04:36:48Z</time>
      </trkpt>
      <trkpt lat="33.87356" lon="77.45147">
        <ele>3845.6</ele>
        <time>2015-09-03T04:36:50Z</time>
      </trkpt>
      <trkpt lat="33.87361" lon="77.45144">
        <ele>3845.8</ele>
        <time>2015-09-03T04:37:00Z</time>
      </trkpt>
      <trkpt lat="33.87362" lon="77.45149">
        <ele>3846</ele>
        <time>2015-09-03T04:37:05Z</time>
      </trkpt>
      <trkpt lat="33.87366" lon="77.45154">
        <ele>3845.8</ele>
        <time>2015-09-03T04:37:10Z</time>
      </trkpt>
      <trkpt lat="33.87363" lon="77.45156">
        <ele>3845.6</ele>
        <time>2015-09-03T04:37:13Z</time>
      </trkpt>
      <trkpt lat="33.87362" lon="77.45157">
        <ele>3846.6</ele>
        <time>2015-09-03T04:37:32Z</time>
      </trkpt>
      <trkpt lat="33.87357" lon="77.45154">
        <ele>3847</ele>
        <time>2015-09-03T04:37:52Z</time>
      </trkpt>
      <trkpt lat="33.87359" lon="77.45152">
        <ele>3846.6</ele>
        <time>2015-09-03T04:37:55Z</time>
      </trkpt>
      <trkpt lat="33.87363" lon="77.45156">
        <ele>3846.8</ele>
        <time>2015-09-03T04:38:01Z</time>
      </trkpt>
      <trkpt lat="33.8736" lon="77.45158">
        <ele>3846.8</ele>
        <time>2015-09-03T04:38:04Z</time>
      </trkpt>
      <trkpt lat="33.87355" lon="77.45164">
        <ele>3846.6</ele>
        <time>2015-09-03T04:38:06Z</time>
      </trkpt>
      <trkpt lat="33.87342" lon="77.45179">
        <ele>3846.6</ele>
        <time>2015-09-03T04:38:09Z</time>
      </trkpt>
      <trkpt lat="33.87351" lon="77.45172">
        <ele>3846.8</ele>
        <time>2015-09-03T04:38:15Z</time>
      </trkpt>
      <trkpt lat="33.87358" lon="77.45163">
        <ele>3846.8</ele>
        <time>2015-09-03T04:38:18Z</time>
      </trkpt>
      <trkpt lat="33.87361" lon="77.45154">
        <ele>3846.6</ele>
        <time>2015-09-03T04:38:24Z</time>
      </trkpt>
      <trkpt lat="33.87354" lon="77.45158">
        <ele>3847.2</ele>
        <time>2015-09-03T04:38:39Z</time>
      </trkpt>
      <trkpt lat="33.8735" lon="77.45163">
        <ele>3847</ele>
        <time>2015-09-03T04:38:45Z</time>
      </trkpt>
      <trkpt lat="33.87347" lon="77.45171">
        <ele>3847</ele>
        <time>2015-09-03T04:38:52Z</time>
      </trkpt>
      <trkpt lat="33.8735" lon="77.45168">
        <ele>3847.2</ele>
        <time>2015-09-03T04:38:59Z</time>
      </trkpt>
      <trkpt lat="33.87338" lon="77.45177">
        <ele>3847.4</ele>
        <time>2015-09-03T04:39:08Z</time>
      </trkpt>
      <trkpt lat="33.87332" lon="77.45182">
        <ele>3847.4</ele>
        <time>2015-09-03T04:39:10Z</time>
      </trkpt>
      <trkpt lat="33.87329" lon="77.45178">
        <ele>3847.6</ele>
        <time>2015-09-03T04:39:13Z</time>
      </trkpt>
      <trkpt lat="33.87329" lon="77.45177">
        <ele>3847.8</ele>
        <time>2015-09-03T04:39:16Z</time>
      </trkpt>
      <trkpt lat="33.87353" lon="77.45154">
        <ele>3848</ele>
        <time>2015-09-03T04:39:20Z</time>
      </trkpt>
      <trkpt lat="33.87358" lon="77.45154">
        <ele>3847.6</ele>
        <time>2015-09-03T04:39:23Z</time>
      </trkpt>
      <trkpt lat="33.87363" lon="77.45158">
        <ele>3848</ele>
        <time>2015-09-03T04:39:41Z</time>
      </trkpt>
      <trkpt lat="33.87362" lon="77.45156">
        <ele>3847.8</ele>
        <time>2015-09-03T04:40:03Z</time>
      </trkpt>
      <trkpt lat="33.87365" lon="77.45155">
        <ele>3848</ele>
        <time>2015-09-03T04:40:27Z</time>
      </trkpt>
      <trkpt lat="33.8736" lon="77.45159">
        <ele>3848.2</ele>
        <time>2015-09-03T04:40:41Z</time>
      </trkpt>
      <trkpt lat="33.87356" lon="77.45155">
        <ele>3848.6</ele>
        <time>2015-09-03T04:41:07Z</time>
      </trkpt>
      <trkpt lat="33.87357" lon="77.45153">
        <ele>3848.6</ele>
        <time>2015-09-03T04:41:09Z</time>
      </trkpt>
      <trkpt lat="33.87361" lon="77.4516">
        <ele>3848.8</ele>
        <time>2015-09-03T04:41:26Z</time>
      </trkpt>
      <trkpt lat="33.87364" lon="77.4516">
        <ele>3848.6</ele>
        <time>2015-09-03T04:41:29Z</time>
      </trkpt>
      <trkpt lat="33.87368" lon="77.45147">
        <ele>3848.6</ele>
        <time>2015-09-03T04:42:22Z</time>
      </trkpt>
      <trkpt lat="33.87355" lon="77.45161">
        <ele>3848.4</ele>
        <time>2015-09-03T04:42:34Z</time>
      </trkpt>
      <trkpt lat="33.87349" lon="77.45168">
        <ele>3848.4</ele>
        <time>2015-09-03T04:42:35Z</time>
      </trkpt>
      <trkpt lat="33.87346" lon="77.45174">
        <ele>3848.6</ele>
        <time>2015-09-03T04:42:41Z</time>
      </trkpt>
      <trkpt lat="33.87348" lon="77.45171">
        <ele>3848.8</ele>
        <time>2015-09-03T04:42:44Z</time>
      </trkpt>
      <trkpt lat="33.87352" lon="77.4517">
        <ele>3849</ele>
        <time>2015-09-03T04:43:00Z</time>
      </trkpt>
      <trkpt lat="33.87341" lon="77.45189">
        <ele>3849.4</ele>
        <time>2015-09-03T04:43:21Z</time>
      </trkpt>
      <trkpt lat="33.8734" lon="77.4519">
        <ele>3849.4</ele>
        <time>2015-09-03T04:43:22Z</time>
      </trkpt>
      <trkpt lat="33.8735" lon="77.45183">
        <ele>3849.6</ele>
        <time>2015-09-03T04:43:27Z</time>
      </trkpt>
      <trkpt lat="33.87363" lon="77.4516">
        <ele>3850.2</ele>
        <time>2015-09-03T04:43:37Z</time>
      </trkpt>
      <trkpt lat="33.87366" lon="77.45155">
        <ele>3849.8</ele>
        <time>2015-09-03T04:43:41Z</time>
      </trkpt>
      <trkpt lat="33.87365" lon="77.45155">
        <ele>3850.6</ele>
        <time>2015-09-03T04:44:14Z</time>
      </trkpt>
      <trkpt lat="33.87359" lon="77.45159">
        <ele>3849.6</ele>
        <time>2015-09-03T04:44:30Z</time>
      </trkpt>
      <trkpt lat="33.87358" lon="77.45171">
        <ele>3849</ele>
        <time>2015-09-03T04:44:40Z</time>
      </trkpt>
      <trkpt lat="33.87359" lon="77.45177">
        <ele>3848.8</ele>
        <time>2015-09-03T04:44:54Z</time>
      </trkpt>
      <trkpt lat="33.87364" lon="77.45184">
        <ele>3848.8</ele>
        <time>2015-09-03T04:45:06Z</time>
      </trkpt>
      <trkpt lat="33.87364" lon="77.45185">
        <ele>3848.6</ele>
        <time>2015-09-03T04:45:07Z</time>
      </trkpt>
      <trkpt lat="33.87359" lon="77.45185">
        <ele>3848.8</ele>
        <time>2015-09-03T04:45:31Z</time>
      </trkpt>
      <trkpt lat="33.87343" lon="77.45197">
        <ele>3848.8</ele>
        <time>2015-09-03T04:45:40Z</time>
      </trkpt>
      <trkpt lat="33.87342" lon="77.45198">
        <ele>3848.8</ele>
        <time>2015-09-03T04:45:41Z</time>
      </trkpt>
      <trkpt lat="33.87336" lon="77.452">
        <ele>3849.4</ele>
        <time>2015-09-03T04:46:03Z</time>
      </trkpt>
      <trkpt lat="33.87316" lon="77.4522">
        <ele>3849.4</ele>
        <time>2015-09-03T04:46:09Z</time>
      </trkpt>
      <trkpt lat="33.87345" lon="77.45184">
        <ele>3849.4</ele>
        <time>2015-09-03T04:46:12Z</time>
      </trkpt>
      <trkpt lat="33.87361" lon="77.45162">
        <ele>3849.4</ele>
        <time>2015-09-03T04:46:28Z</time>
      </trkpt>
      <trkpt lat="33.87363" lon="77.45157">
        <ele>3849.4</ele>
        <time>2015-09-03T04:46:29Z</time>
      </trkpt>
      <trkpt lat="33.8736" lon="77.4517">
        <ele>3849.6</ele>
        <time>2015-09-03T04:46:37Z</time>
      </trkpt>
      <trkpt lat="33.87358" lon="77.45129">
        <ele>3849.4</ele>
        <time>2015-09-03T04:46:55Z</time>
      </trkpt>
      <trkpt lat="33.87369" lon="77.45114">
        <ele>3849</ele>
        <time>2015-09-03T04:47:04Z</time>
      </trkpt>
      <trkpt lat="33.87367" lon="77.45119">
        <ele>3849</ele>
        <time>2015-09-03T04:47:06Z</time>
      </trkpt>
      <trkpt lat="33.87373" lon="77.45125">
        <ele>3848.2</ele>
        <time>2015-09-03T04:47:18Z</time>
      </trkpt>
      <trkpt lat="33.87381" lon="77.45116">
        <ele>3847.8</ele>
        <time>2015-09-03T04:47:22Z</time>
      </trkpt>
      <trkpt lat="33.87381" lon="77.45118">
        <ele>3847.6</ele>
        <time>2015-09-03T04:47:24Z</time>
      </trkpt>
      <trkpt lat="33.87381" lon="77.4512">
        <ele>3847.2</ele>
        <time>2015-09-03T04:47:27Z</time>
      </trkpt>
      <trkpt lat="33.87378" lon="77.4512">
        <ele>3846.8</ele>
        <time>2015-09-03T04:47:32Z</time>
      </trkpt>
      <trkpt lat="33.87379" lon="77.45118">
        <ele>3846.6</ele>
        <time>2015-09-03T04:47:34Z</time>
      </trkpt>
      <trkpt lat="33.87378" lon="77.45116">
        <ele>3846.4</ele>
        <time>2015-09-03T04:47:36Z</time>
      </trkpt>
      <trkpt lat="33.87373" lon="77.45142">
        <ele>3845.4</ele>
        <time>2015-09-03T04:47:51Z</time>
      </trkpt>
      <trkpt lat="33.87379" lon="77.45152">
        <ele>3845.2</ele>
        <time>2015-09-03T04:47:55Z</time>
      </trkpt>
      <trkpt lat="33.87378" lon="77.45156">
        <ele>3845.2</ele>
        <time>2015-09-03T04:47:57Z</time>
      </trkpt>
      <trkpt lat="33.87377" lon="77.45152">
        <ele>3845.2</ele>
        <time>2015-09-03T04:48:00Z</time>
      </trkpt>
      <trkpt lat="33.87374" lon="77.45147">
        <ele>3845</ele>
        <time>2015-09-03T04:48:03Z</time>
      </trkpt>
      <trkpt lat="33.87368" lon="77.45163">
        <ele>3845</ele>
        <time>2015-09-03T04:48:07Z</time>
      </trkpt>
      <trkpt lat="33.87357" lon="77.45181">
        <ele>3845</ele>
        <time>2015-09-03T04:48:09Z</time>
      </trkpt>
      <trkpt lat="33.87357" lon="77.45176">
        <ele>3844.6</ele>
        <time>2015-09-03T04:48:17Z</time>
      </trkpt>
      <trkpt lat="33.8736" lon="77.45173">
        <ele>3844.6</ele>
        <time>2015-09-03T04:48:19Z</time>
      </trkpt>
      <trkpt lat="33.87357" lon="77.45177">
        <ele>3844.6</ele>
        <time>2015-09-03T04:48:27Z</time>
      </trkpt>
      <trkpt lat="33.87357" lon="77.45195">
        <ele>3844.4</ele>
        <time>2015-09-03T04:48:41Z</time>
      </trkpt>
      <trkpt lat="33.87359" lon="77.45215">
        <ele>3843.4</ele>
        <time>2015-09-03T04:48:59Z</time>
      </trkpt>
      <trkpt lat="33.87354" lon="77.45218">
        <ele>3843</ele>
        <time>2015-09-03T04:49:06Z</time>
      </trkpt>
      <trkpt lat="33.87352" lon="77.45219">
        <ele>3843</ele>
        <time>2015-09-03T04:49:08Z</time>
      </trkpt>
      <trkpt lat="33.87352" lon="77.45242">
        <ele>3843.8</ele>
        <time>2015-09-03T04:49:26Z</time>
      </trkpt>
      <trkpt lat="33.87353" lon="77.45247">
        <ele>3844</ele>
        <time>2015-09-03T04:49:29Z</time>
      </trkpt>
      <trkpt lat="33.87356" lon="77.45263">
        <ele>3844.2</ele>
        <time>2015-09-03T04:49:38Z</time>
      </trkpt>
      <trkpt lat="33.87356" lon="77.45268">
        <ele>3844.4</ele>
        <time>2015-09-03T04:49:42Z</time>
      </trkpt>
      <trkpt lat="33.87357" lon="77.4527">
        <ele>3844.6</ele>
        <time>2015-09-03T04:49:43Z</time>
      </trkpt>
      <trkpt lat="33.87356" lon="77.45277">
        <ele>3844.4</ele>
        <time>2015-09-03T04:49:48Z</time>
      </trkpt>
      <trkpt lat="33.87355" lon="77.45287">
        <ele>3845.4</ele>
        <time>2015-09-03T04:50:08Z</time>
      </trkpt>
      <trkpt lat="33.87354" lon="77.45296">
        <ele>3845.8</ele>
        <time>2015-09-03T04:50:22Z</time>
      </trkpt>
      <trkpt lat="33.87361" lon="77.45314">
        <ele>3846.2</ele>
        <time>2015-09-03T04:50:40Z</time>
      </trkpt>
      <trkpt lat="33.87364" lon="77.45316">
        <ele>3846.4</ele>
        <time>2015-09-03T04:50:43Z</time>
      </trkpt>
      <trkpt lat="33.87363" lon="77.45319">
        <ele>3846.6</ele>
        <time>2015-09-03T04:50:45Z</time>
      </trkpt>
      <trkpt lat="33.87365" lon="77.45332">
        <ele>3846</ele>
        <time>2015-09-03T04:50:53Z</time>
      </trkpt>
      <trkpt lat="33.87361" lon="77.45331">
        <ele>3846</ele>
        <time>2015-09-03T04:50:57Z</time>
      </trkpt>
      <trkpt lat="33.87357" lon="77.45338">
        <ele>3846.6</ele>
        <time>2015-09-03T04:51:10Z</time>
      </trkpt>
      <trkpt lat="33.87353" lon="77.45346">
        <ele>3847</ele>
        <time>2015-09-03T04:51:18Z</time>
      </trkpt>
      <trkpt lat="33.87353" lon="77.45357">
        <ele>3847.2</ele>
        <time>2015-09-03T04:51:26Z</time>
      </trkpt>
      <trkpt lat="33.87352" lon="77.45367">
        <ele>3847.4</ele>
        <time>2015-09-03T04:51:36Z</time>
      </trkpt>
      <trkpt lat="33.87352" lon="77.45369">
        <ele>3847.6</ele>
        <time>2015-09-03T04:51:37Z</time>
      </trkpt>
      <trkpt lat="33.87352" lon="77.4539">
        <ele>3848.6</ele>
        <time>2015-09-03T04:52:00Z</time>
      </trkpt>
      <trkpt lat="33.8735" lon="77.45396">
        <ele>3848.8</ele>
        <time>2015-09-03T04:52:05Z</time>
      </trkpt>
      <trkpt lat="33.87349" lon="77.45416">
        <ele>3849</ele>
        <time>2015-09-03T04:52:21Z</time>
      </trkpt>
      <trkpt lat="33.87349" lon="77.45433">
        <ele>3849.2</ele>
        <time>2015-09-03T04:52:35Z</time>
      </trkpt>
      <trkpt lat="33.87346" lon="77.45438">
        <ele>3849.4</ele>
        <time>2015-09-03T04:52:38Z</time>
      </trkpt>
      <trkpt lat="33.87349" lon="77.45457">
        <ele>3849.4</ele>
        <time>2015-09-03T04:52:56Z</time>
      </trkpt>
      <trkpt lat="33.87349" lon="77.45467">
        <ele>3849.6</ele>
        <time>2015-09-03T04:53:03Z</time>
      </trkpt>
      <trkpt lat="33.87349" lon="77.45468">
        <ele>3849.6</ele>
        <time>2015-09-03T04:53:04Z</time>
      </trkpt>
      <trkpt lat="33.87349" lon="77.45471">
        <ele>3849.8</ele>
        <time>2015-09-03T04:53:06Z</time>
      </trkpt>
      <trkpt lat="33.87346" lon="77.45494">
        <ele>3850.4</ele>
        <time>2015-09-03T04:53:19Z</time>
      </trkpt>
      <trkpt lat="33.87346" lon="77.455">
        <ele>3850.6</ele>
        <time>2015-09-03T04:53:24Z</time>
      </trkpt>
      <trkpt lat="33.87339" lon="77.4552">
        <ele>3851.4</ele>
        <time>2015-09-03T04:53:49Z</time>
      </trkpt>
      <trkpt lat="33.87342" lon="77.45526">
        <ele>3851.6</ele>
        <time>2015-09-03T04:53:55Z</time>
      </trkpt>
      <trkpt lat="33.87343" lon="77.45539">
        <ele>3851.6</ele>
        <time>2015-09-03T04:54:04Z</time>
      </trkpt>
      <trkpt lat="33.87343" lon="77.45544">
        <ele>3851.6</ele>
        <time>2015-09-03T04:54:07Z</time>
      </trkpt>
      <trkpt lat="33.87343" lon="77.45546">
        <ele>3851.6</ele>
        <time>2015-09-03T04:54:09Z</time>
      </trkpt>
      <trkpt lat="33.87343" lon="77.45548">
        <ele>3851.8</ele>
        <time>2015-09-03T04:54:12Z</time>
      </trkpt>
      <trkpt lat="33.87356" lon="77.45565">
        <ele>3851.8</ele>
        <time>2015-09-03T04:54:21Z</time>
      </trkpt>
      <trkpt lat="33.87346" lon="77.45584">
        <ele>3852.2</ele>
        <time>2015-09-03T04:54:35Z</time>
      </trkpt>
      <trkpt lat="33.87346" lon="77.45586">
        <ele>3852.2</ele>
        <time>2015-09-03T04:54:36Z</time>
      </trkpt>
      <trkpt lat="33.87347" lon="77.45591">
        <ele>3852.6</ele>
        <time>2015-09-03T04:54:48Z</time>
      </trkpt>
      <trkpt lat="33.87347" lon="77.45609">
        <ele>3853</ele>
        <time>2015-09-03T04:55:07Z</time>
      </trkpt>
      <trkpt lat="33.87344" lon="77.45617">
        <ele>3853.4</ele>
        <time>2015-09-03T04:55:14Z</time>
      </trkpt>
      <trkpt lat="33.87341" lon="77.45626">
        <ele>3853.4</ele>
        <time>2015-09-03T04:55:18Z</time>
      </trkpt>
      <trkpt lat="33.8734" lon="77.45627">
        <ele>3853.4</ele>
        <time>2015-09-03T04:55:19Z</time>
      </trkpt>
      <trkpt lat="33.87345" lon="77.45632">
        <ele>3853.6</ele>
        <time>2015-09-03T04:55:26Z</time>
      </trkpt>
      <trkpt lat="33.87347" lon="77.45639">
        <ele>3853.8</ele>
        <time>2015-09-03T04:55:31Z</time>
      </trkpt>
      <trkpt lat="33.87348" lon="77.4563">
        <ele>3853.8</ele>
        <time>2015-09-03T04:55:35Z</time>
      </trkpt>
      <trkpt lat="33.87337" lon="77.45646">
        <ele>3853.8</ele>
        <time>2015-09-03T04:55:46Z</time>
      </trkpt>
      <trkpt lat="33.87335" lon="77.45649">
        <ele>3854</ele>
        <time>2015-09-03T04:55:48Z</time>
      </trkpt>
      <trkpt lat="33.87332" lon="77.4566">
        <ele>3854.2</ele>
        <time>2015-09-03T04:55:55Z</time>
      </trkpt>
      <trkpt lat="33.87328" lon="77.45677">
        <ele>3854.4</ele>
        <time>2015-09-03T04:56:07Z</time>
      </trkpt>
      <trkpt lat="33.87327" lon="77.4569">
        <ele>3854.8</ele>
        <time>2015-09-03T04:56:15Z</time>
      </trkpt>
      <trkpt lat="33.87323" lon="77.45703">
        <ele>3854.8</ele>
        <time>2015-09-03T04:56:26Z</time>
      </trkpt>
      <trkpt lat="33.87324" lon="77.45712">
        <ele>3855.2</ele>
        <time>2015-09-03T04:56:35Z</time>
      </trkpt>
      <trkpt lat="33.87316" lon="77.45726">
        <ele>3855.6</ele>
        <time>2015-09-03T04:56:44Z</time>
      </trkpt>
      <trkpt lat="33.87315" lon="77.45734">
        <ele>3855.8</ele>
        <time>2015-09-03T04:56:49Z</time>
      </trkpt>
      <trkpt lat="33.87315" lon="77.45734">
        <ele>3855.8</ele>
        <time>2015-09-03T04:56:50Z</time>
      </trkpt>
      <trkpt lat="33.87311" lon="77.45744">
        <ele>3856.2</ele>
        <time>2015-09-03T04:57:01Z</time>
      </trkpt>
      <trkpt lat="33.87309" lon="77.4575">
        <ele>3856.2</ele>
        <time>2015-09-03T04:57:06Z</time>
      </trkpt>
      <trkpt lat="33.8731" lon="77.45759">
        <ele>3856.6</ele>
        <time>2015-09-03T04:57:13Z</time>
      </trkpt>
      <trkpt lat="33.87306" lon="77.45768">
        <ele>3856.6</ele>
        <time>2015-09-03T04:57:21Z</time>
      </trkpt>
      <trkpt lat="33.87302" lon="77.45774">
        <ele>3856.6</ele>
        <time>2015-09-03T04:57:25Z</time>
      </trkpt>
      <trkpt lat="33.87298" lon="77.45775">
        <ele>3856.8</ele>
        <time>2015-09-03T04:57:28Z</time>
      </trkpt>
      <trkpt lat="33.87297" lon="77.45774">
        <ele>3856.8</ele>
        <time>2015-09-03T04:57:29Z</time>
      </trkpt>
      <trkpt lat="33.87297" lon="77.45773">
        <ele>3857</ele>
        <time>2015-09-03T04:57:30Z</time>
      </trkpt>
      <trkpt lat="33.87299" lon="77.45767">
        <ele>3857</ele>
        <time>2015-09-03T04:57:46Z</time>
      </trkpt>
      <trkpt lat="33.87299" lon="77.45767">
        <ele>3857</ele>
        <time>2015-09-03T04:57:48Z</time>
      </trkpt>
      <trkpt lat="33.87296" lon="77.45776">
        <ele>3857.4</ele>
        <time>2015-09-03T04:57:53Z</time>
      </trkpt>
      <trkpt lat="33.87293" lon="77.45795">
        <ele>3857.4</ele>
        <time>2015-09-03T04:58:12Z</time>
      </trkpt>
      <trkpt lat="33.87288" lon="77.45815">
        <ele>3857.8</ele>
        <time>2015-09-03T04:58:26Z</time>
      </trkpt>
      <trkpt lat="33.87283" lon="77.4582">
        <ele>3858.2</ele>
        <time>2015-09-03T04:58:37Z</time>
      </trkpt>
      <trkpt lat="33.87276" lon="77.45838">
        <ele>3858.6</ele>
        <time>2015-09-03T04:58:51Z</time>
      </trkpt>
      <trkpt lat="33.87274" lon="77.45844">
        <ele>3859</ele>
        <time>2015-09-03T04:58:56Z</time>
      </trkpt>
      <trkpt lat="33.87272" lon="77.45846">
        <ele>3859</ele>
        <time>2015-09-03T04:58:59Z</time>
      </trkpt>
      <trkpt lat="33.87269" lon="77.45866">
        <ele>3858.8</ele>
        <time>2015-09-03T04:59:12Z</time>
      </trkpt>
      <trkpt lat="33.87267" lon="77.45877">
        <ele>3859</ele>
        <time>2015-09-03T04:59:24Z</time>
      </trkpt>
      <trkpt lat="33.87264" lon="77.4588">
        <ele>3859.4</ele>
        <time>2015-09-03T04:59:28Z</time>
      </trkpt>
      <trkpt lat="33.87263" lon="77.45881">
        <ele>3859.4</ele>
        <time>2015-09-03T04:59:30Z</time>
      </trkpt>
      <trkpt lat="33.87258" lon="77.45888">
        <ele>3859.6</ele>
        <time>2015-09-03T04:59:38Z</time>
      </trkpt>
      <trkpt lat="33.87257" lon="77.4589">
        <ele>3859.6</ele>
        <time>2015-09-03T04:59:40Z</time>
      </trkpt>
      <trkpt lat="33.87254" lon="77.45903">
        <ele>3859.8</ele>
        <time>2015-09-03T04:59:51Z</time>
      </trkpt>
      <trkpt lat="33.87254" lon="77.45904">
        <ele>3860</ele>
        <time>2015-09-03T04:59:52Z</time>
      </trkpt>
      <trkpt lat="33.87254" lon="77.45917">
        <ele>3860</ele>
        <time>2015-09-03T05:00:05Z</time>
      </trkpt>
      <trkpt lat="33.87255" lon="77.4592">
        <ele>3860.2</ele>
        <time>2015-09-03T05:00:07Z</time>
      </trkpt>
      <trkpt lat="33.87256" lon="77.45924">
        <ele>3860.6</ele>
        <time>2015-09-03T05:00:11Z</time>
      </trkpt>
      <trkpt lat="33.87255" lon="77.45926">
        <ele>3860.6</ele>
        <time>2015-09-03T05:00:13Z</time>
      </trkpt>
      <trkpt lat="33.87252" lon="77.45932">
        <ele>3860.6</ele>
        <time>2015-09-03T05:00:18Z</time>
      </trkpt>
      <trkpt lat="33.8725" lon="77.45943">
        <ele>3860.6</ele>
        <time>2015-09-03T05:00:28Z</time>
      </trkpt>
      <trkpt lat="33.87249" lon="77.45946">
        <ele>3860.6</ele>
        <time>2015-09-03T05:00:31Z</time>
      </trkpt>
      <trkpt lat="33.87247" lon="77.45951">
        <ele>3860.8</ele>
        <time>2015-09-03T05:00:35Z</time>
      </trkpt>
      <trkpt lat="33.87245" lon="77.45956">
        <ele>3861</ele>
        <time>2015-09-03T05:00:39Z</time>
      </trkpt>
      <trkpt lat="33.87245" lon="77.45958">
        <ele>3861</ele>
        <time>2015-09-03T05:00:40Z</time>
      </trkpt>
      <trkpt lat="33.87244" lon="77.4596">
        <ele>3861</ele>
        <time>2015-09-03T05:00:42Z</time>
      </trkpt>
      <trkpt lat="33.87242" lon="77.45964">
        <ele>3861</ele>
        <time>2015-09-03T05:00:46Z</time>
      </trkpt>
      <trkpt lat="33.87241" lon="77.45967">
        <ele>3860.8</ele>
        <time>2015-09-03T05:00:50Z</time>
      </trkpt>
      <trkpt lat="33.8723" lon="77.45985">
        <ele>3861.2</ele>
        <time>2015-09-03T05:01:04Z</time>
      </trkpt>
      <trkpt lat="33.87228" lon="77.45988">
        <ele>3861.4</ele>
        <time>2015-09-03T05:01:08Z</time>
      </trkpt>
      <trkpt lat="33.87217" lon="77.46006">
        <ele>3861.8</ele>
        <time>2015-09-03T05:01:24Z</time>
      </trkpt>
      <trkpt lat="33.87213" lon="77.46011">
        <ele>3862</ele>
        <time>2015-09-03T05:01:28Z</time>
      </trkpt>
      <trkpt lat="33.87201" lon="77.46026">
        <ele>3862.4</ele>
        <time>2015-09-03T05:01:45Z</time>
      </trkpt>
      <trkpt lat="33.87199" lon="77.4604">
        <ele>3862</ele>
        <time>2015-09-03T05:01:55Z</time>
      </trkpt>
      <trkpt lat="33.87195" lon="77.46052">
        <ele>3862.2</ele>
        <time>2015-09-03T05:02:05Z</time>
      </trkpt>
      <trkpt lat="33.87199" lon="77.46056">
        <ele>3861.8</ele>
        <time>2015-09-03T05:02:12Z</time>
      </trkpt>
      <trkpt lat="33.872" lon="77.46058">
        <ele>3861.8</ele>
        <time>2015-09-03T05:02:14Z</time>
      </trkpt>
      <trkpt lat="33.87195" lon="77.46071">
        <ele>3861.8</ele>
        <time>2015-09-03T05:02:32Z</time>
      </trkpt>
      <trkpt lat="33.87188" lon="77.46091">
        <ele>3862</ele>
        <time>2015-09-03T05:02:47Z</time>
      </trkpt>
      <trkpt lat="33.87184" lon="77.46099">
        <ele>3862.2</ele>
        <time>2015-09-03T05:02:56Z</time>
      </trkpt>
      <trkpt lat="33.87173" lon="77.46118">
        <ele>3862.4</ele>
        <time>2015-09-03T05:03:15Z</time>
      </trkpt>
      <trkpt lat="33.87167" lon="77.46125">
        <ele>3862.4</ele>
        <time>2015-09-03T05:03:22Z</time>
      </trkpt>
      <trkpt lat="33.87163" lon="77.46132">
        <ele>3862.4</ele>
        <time>2015-09-03T05:03:27Z</time>
      </trkpt>
      <trkpt lat="33.87161" lon="77.46135">
        <ele>3862.6</ele>
        <time>2015-09-03T05:03:29Z</time>
      </trkpt>
      <trkpt lat="33.87157" lon="77.4614">
        <ele>3862.8</ele>
        <time>2015-09-03T05:03:34Z</time>
      </trkpt>
      <trkpt lat="33.87157" lon="77.46142">
        <ele>3863</ele>
        <time>2015-09-03T05:03:36Z</time>
      </trkpt>
      <trkpt lat="33.8715" lon="77.46152">
        <ele>3863.4</ele>
        <time>2015-09-03T05:03:46Z</time>
      </trkpt>
      <trkpt lat="33.87135" lon="77.46165">
        <ele>3863.6</ele>
        <time>2015-09-03T05:04:01Z</time>
      </trkpt>
      <trkpt lat="33.8713" lon="77.4617">
        <ele>3863.6</ele>
        <time>2015-09-03T05:04:06Z</time>
      </trkpt>
      <trkpt lat="33.87124" lon="77.46181">
        <ele>3864</ele>
        <time>2015-09-03T05:04:15Z</time>
      </trkpt>
      <trkpt lat="33.87123" lon="77.46182">
        <ele>3864</ele>
        <time>2015-09-03T05:04:16Z</time>
      </trkpt>
      <trkpt lat="33.87122" lon="77.46187">
        <ele>3864.2</ele>
        <time>2015-09-03T05:04:21Z</time>
      </trkpt>
      <trkpt lat="33.87124" lon="77.46194">
        <ele>3865.2</ele>
        <time>2015-09-03T05:04:36Z</time>
      </trkpt>
      <trkpt lat="33.87117" lon="77.46213">
        <ele>3866.2</ele>
        <time>2015-09-03T05:04:57Z</time>
      </trkpt>
      <trkpt lat="33.87116" lon="77.46217">
        <ele>3866.2</ele>
        <time>2015-09-03T05:05:01Z</time>
      </trkpt>
      <trkpt lat="33.87115" lon="77.46219">
        <ele>3866.2</ele>
        <time>2015-09-03T05:05:03Z</time>
      </trkpt>
      <trkpt lat="33.87113" lon="77.4622">
        <ele>3866.6</ele>
        <time>2015-09-03T05:05:06Z</time>
      </trkpt>
      <trkpt lat="33.87111" lon="77.46223">
        <ele>3867.2</ele>
        <time>2015-09-03T05:05:09Z</time>
      </trkpt>
      <trkpt lat="33.87111" lon="77.46224">
        <ele>3867.2</ele>
        <time>2015-09-03T05:05:10Z</time>
      </trkpt>
      <trkpt lat="33.87109" lon="77.46226">
        <ele>3867.4</ele>
        <time>2015-09-03T05:05:13Z</time>
      </trkpt>
      <trkpt lat="33.87108" lon="77.46228">
        <ele>3867.4</ele>
        <time>2015-09-03T05:05:15Z</time>
      </trkpt>
      <trkpt lat="33.87106" lon="77.46233">
        <ele>3867</ele>
        <time>2015-09-03T05:05:20Z</time>
      </trkpt>
      <trkpt lat="33.87104" lon="77.46225">
        <ele>3866.2</ele>
        <time>2015-09-03T05:05:29Z</time>
      </trkpt>
      <trkpt lat="33.87102" lon="77.46226">
        <ele>3865</ele>
        <time>2015-09-03T05:05:34Z</time>
      </trkpt>
      <trkpt lat="33.87101" lon="77.46219">
        <ele>3864.4</ele>
        <time>2015-09-03T05:06:14Z</time>
      </trkpt>
      <trkpt lat="33.87105" lon="77.46224">
        <ele>3864</ele>
        <time>2015-09-03T05:06:26Z</time>
      </trkpt>
      <trkpt lat="33.87108" lon="77.46218">
        <ele>3865.2</ele>
        <time>2015-09-03T05:06:57Z</time>
      </trkpt>
      <trkpt lat="33.87105" lon="77.46211">
        <ele>3865.2</ele>
        <time>2015-09-03T05:07:10Z</time>
      </trkpt>
      <trkpt lat="33.87112" lon="77.46217">
        <ele>3865</ele>
        <time>2015-09-03T05:07:19Z</time>
      </trkpt>
      <trkpt lat="33.87102" lon="77.46228">
        <ele>3865.8</ele>
        <time>2015-09-03T05:08:25Z</time>
      </trkpt>
      <trkpt lat="33.87102" lon="77.46231">
        <ele>3866.2</ele>
        <time>2015-09-03T05:08:30Z</time>
      </trkpt>
      <trkpt lat="33.87101" lon="77.46235">
        <ele>3867.2</ele>
        <time>2015-09-03T05:08:37Z</time>
      </trkpt>
      <trkpt lat="33.871" lon="77.46243">
        <ele>3868.2</ele>
        <time>2015-09-03T05:08:47Z</time>
      </trkpt>
      <trkpt lat="33.87099" lon="77.46246">
        <ele>3868.8</ele>
        <time>2015-09-03T05:08:51Z</time>
      </trkpt>
      <trkpt lat="33.87097" lon="77.46249">
        <ele>3869.2</ele>
        <time>2015-09-03T05:08:55Z</time>
      </trkpt>
      <trkpt lat="33.87098" lon="77.46255">
        <ele>3870.4</ele>
        <time>2015-09-03T05:09:03Z</time>
      </trkpt>
      <trkpt lat="33.87094" lon="77.46264">
        <ele>3871.4</ele>
        <time>2015-09-03T05:09:16Z</time>
      </trkpt>
      <trkpt lat="33.87089" lon="77.46263">
        <ele>3871.4</ele>
        <time>2015-09-03T05:09:42Z</time>
      </trkpt>
      <trkpt lat="33.87083" lon="77.46284">
        <ele>3870.8</ele>
        <time>2015-09-03T05:10:01Z</time>
      </trkpt>
      <trkpt lat="33.87079" lon="77.46292">
        <ele>3870.4</ele>
        <time>2015-09-03T05:10:09Z</time>
      </trkpt>
      <trkpt lat="33.87078" lon="77.46294">
        <ele>3870</ele>
        <time>2015-09-03T05:10:12Z</time>
      </trkpt>
      <trkpt lat="33.87065" lon="77.4631">
        <ele>3869.6</ele>
        <time>2015-09-03T05:10:29Z</time>
      </trkpt>
      <trkpt lat="33.87063" lon="77.46312">
        <ele>3869.4</ele>
        <time>2015-09-03T05:10:32Z</time>
      </trkpt>
      <trkpt lat="33.87047" lon="77.4632">
        <ele>3870</ele>
        <time>2015-09-03T05:10:50Z</time>
      </trkpt>
      <trkpt lat="33.87042" lon="77.46329">
        <ele>3870</ele>
        <time>2015-09-03T05:10:56Z</time>
      </trkpt>
      <trkpt lat="33.8704" lon="77.46333">
        <ele>3870</ele>
        <time>2015-09-03T05:10:59Z</time>
      </trkpt>
      <trkpt lat="33.8704" lon="77.46334">
        <ele>3870.2</ele>
        <time>2015-09-03T05:11:00Z</time>
      </trkpt>
      <trkpt lat="33.8703" lon="77.46353">
        <ele>3869.6</ele>
        <time>2015-09-03T05:11:18Z</time>
      </trkpt>
      <trkpt lat="33.87028" lon="77.46355">
        <ele>3869.6</ele>
        <time>2015-09-03T05:11:20Z</time>
      </trkpt>
      <trkpt lat="33.8702" lon="77.46366">
        <ele>3870.4</ele>
        <time>2015-09-03T05:11:32Z</time>
      </trkpt>
      <trkpt lat="33.87015" lon="77.46376">
        <ele>3871</ele>
        <time>2015-09-03T05:11:39Z</time>
      </trkpt>
      <trkpt lat="33.87013" lon="77.46373">
        <ele>3871.2</ele>
        <time>2015-09-03T05:11:42Z</time>
      </trkpt>
      <trkpt lat="33.87013" lon="77.46371">
        <ele>3871.4</ele>
        <time>2015-09-03T05:11:43Z</time>
      </trkpt>
      <trkpt lat="33.87012" lon="77.46369">
        <ele>3871.6</ele>
        <time>2015-09-03T05:11:45Z</time>
      </trkpt>
      <trkpt lat="33.8701" lon="77.46368">
        <ele>3872</ele>
        <time>2015-09-03T05:11:48Z</time>
      </trkpt>
      <trkpt lat="33.87008" lon="77.46366">
        <ele>3872.4</ele>
        <time>2015-09-03T05:11:51Z</time>
      </trkpt>
      <trkpt lat="33.87004" lon="77.46368">
        <ele>3873</ele>
        <time>2015-09-03T05:11:55Z</time>
      </trkpt>
      <trkpt lat="33.87002" lon="77.46371">
        <ele>3873.6</ele>
        <time>2015-09-03T05:11:58Z</time>
      </trkpt>
      <trkpt lat="33.86984" lon="77.46377">
        <ele>3874.2</ele>
        <time>2015-09-03T05:12:13Z</time>
      </trkpt>
      <trkpt lat="33.86981" lon="77.46376">
        <ele>3874.6</ele>
        <time>2015-09-03T05:12:17Z</time>
      </trkpt>
      <trkpt lat="33.8698" lon="77.46376">
        <ele>3874.8</ele>
        <time>2015-09-03T05:12:18Z</time>
      </trkpt>
      <trkpt lat="33.86978" lon="77.46376">
        <ele>3875</ele>
        <time>2015-09-03T05:12:21Z</time>
      </trkpt>
      <trkpt lat="33.86964" lon="77.46374">
        <ele>3875.2</ele>
        <time>2015-09-03T05:12:35Z</time>
      </trkpt>
      <trkpt lat="33.86962" lon="77.46372">
        <ele>3875.2</ele>
        <time>2015-09-03T05:12:38Z</time>
      </trkpt>
      <trkpt lat="33.86944" lon="77.46366">
        <ele>3875.4</ele>
        <time>2015-09-03T05:12:54Z</time>
      </trkpt>
      <trkpt lat="33.86938" lon="77.46368">
        <ele>3875.4</ele>
        <time>2015-09-03T05:13:01Z</time>
      </trkpt>
      <trkpt lat="33.86934" lon="77.46366">
        <ele>3875.6</ele>
        <time>2015-09-03T05:13:05Z</time>
      </trkpt>
      <trkpt lat="33.86934" lon="77.46365">
        <ele>3875.6</ele>
        <time>2015-09-03T05:13:06Z</time>
      </trkpt>
      <trkpt lat="33.86916" lon="77.46364">
        <ele>3876.2</ele>
        <time>2015-09-03T05:13:22Z</time>
      </trkpt>
      <trkpt lat="33.86912" lon="77.46367">
        <ele>3876.6</ele>
        <time>2015-09-03T05:13:26Z</time>
      </trkpt>
      <trkpt lat="33.86911" lon="77.46368">
        <ele>3876.8</ele>
        <time>2015-09-03T05:13:27Z</time>
      </trkpt>
      <trkpt lat="33.86899" lon="77.46372">
        <ele>3877.4</ele>
        <time>2015-09-03T05:13:39Z</time>
      </trkpt>
      <trkpt lat="33.86897" lon="77.4637">
        <ele>3877.8</ele>
        <time>2015-09-03T05:13:41Z</time>
      </trkpt>
      <trkpt lat="33.86897" lon="77.46371">
        <ele>3877.8</ele>
        <time>2015-09-03T05:13:42Z</time>
      </trkpt>
      <trkpt lat="33.86894" lon="77.46369">
        <ele>3878.2</ele>
        <time>2015-09-03T05:13:45Z</time>
      </trkpt>
      <trkpt lat="33.86892" lon="77.4637">
        <ele>3878.4</ele>
        <time>2015-09-03T05:13:48Z</time>
      </trkpt>
      <trkpt lat="33.86888" lon="77.46372">
        <ele>3878.6</ele>
        <time>2015-09-03T05:13:54Z</time>
      </trkpt>
      <trkpt lat="33.86884" lon="77.46375">
        <ele>3878.6</ele>
        <time>2015-09-03T05:13:59Z</time>
      </trkpt>
      <trkpt lat="33.86883" lon="77.46376">
        <ele>3878.6</ele>
        <time>2015-09-03T05:14:01Z</time>
      </trkpt>
      <trkpt lat="33.86881" lon="77.46377">
        <ele>3878.6</ele>
        <time>2015-09-03T05:14:03Z</time>
      </trkpt>
      <trkpt lat="33.8688" lon="77.46379">
        <ele>3878.6</ele>
        <time>2015-09-03T05:14:05Z</time>
      </trkpt>
      <trkpt lat="33.86868" lon="77.4637">
        <ele>3878.4</ele>
        <time>2015-09-03T05:14:23Z</time>
      </trkpt>
      <trkpt lat="33.86859" lon="77.46369">
        <ele>3878.4</ele>
        <time>2015-09-03T05:14:29Z</time>
      </trkpt>
      <trkpt lat="33.86852" lon="77.46372">
        <ele>3878.6</ele>
        <time>2015-09-03T05:14:36Z</time>
      </trkpt>
      <trkpt lat="33.8685" lon="77.46372">
        <ele>3878.8</ele>
        <time>2015-09-03T05:14:38Z</time>
      </trkpt>
      <trkpt lat="33.86839" lon="77.46371">
        <ele>3879.6</ele>
        <time>2015-09-03T05:14:53Z</time>
      </trkpt>
      <trkpt lat="33.86838" lon="77.46371">
        <ele>3879.6</ele>
        <time>2015-09-03T05:14:55Z</time>
      </trkpt>
      <trkpt lat="33.86821" lon="77.4638">
        <ele>3878.2</ele>
        <time>2015-09-03T05:15:36Z</time>
      </trkpt>
      <trkpt lat="33.86803" lon="77.46379">
        <ele>3879.2</ele>
        <time>2015-09-03T05:15:56Z</time>
      </trkpt>
      <trkpt lat="33.86795" lon="77.46383">
        <ele>3879.6</ele>
        <time>2015-09-03T05:16:05Z</time>
      </trkpt>
      <trkpt lat="33.86791" lon="77.46381">
        <ele>3879.6</ele>
        <time>2015-09-03T05:16:11Z</time>
      </trkpt>
      <trkpt lat="33.86788" lon="77.46382">
        <ele>3879.8</ele>
        <time>2015-09-03T05:16:16Z</time>
      </trkpt>
      <trkpt lat="33.8678" lon="77.46379">
        <ele>3880.2</ele>
        <time>2015-09-03T05:16:23Z</time>
      </trkpt>
      <trkpt lat="33.86775" lon="77.4638">
        <ele>3880</ele>
        <time>2015-09-03T05:16:28Z</time>
      </trkpt>
      <trkpt lat="33.86771" lon="77.46382">
        <ele>3880</ele>
        <time>2015-09-03T05:16:33Z</time>
      </trkpt>
      <trkpt lat="33.86765" lon="77.46372">
        <ele>3879.4</ele>
        <time>2015-09-03T05:16:43Z</time>
      </trkpt>
      <trkpt lat="33.86761" lon="77.4636">
        <ele>3878.8</ele>
        <time>2015-09-03T05:16:52Z</time>
      </trkpt>
      <trkpt lat="33.86759" lon="77.46357">
        <ele>3878.8</ele>
        <time>2015-09-03T05:16:53Z</time>
      </trkpt>
      <trkpt lat="33.86753" lon="77.46335">
        <ele>3877.8</ele>
        <time>2015-09-03T05:17:04Z</time>
      </trkpt>
      <trkpt lat="33.86753" lon="77.46333">
        <ele>3877.6</ele>
        <time>2015-09-03T05:17:05Z</time>
      </trkpt>
      <trkpt lat="33.86758" lon="77.46313">
        <ele>3876.6</ele>
        <time>2015-09-03T05:17:15Z</time>
      </trkpt>
      <trkpt lat="33.86758" lon="77.46313">
        <ele>3876.4</ele>
        <time>2015-09-03T05:17:16Z</time>
      </trkpt>
      <trkpt lat="33.86756" lon="77.46319">
        <ele>3876.2</ele>
        <time>2015-09-03T05:17:18Z</time>
      </trkpt>
      <trkpt lat="33.86756" lon="77.4632">
        <ele>3875.8</ele>
        <time>2015-09-03T05:17:20Z</time>
      </trkpt>
      <trkpt lat="33.86756" lon="77.46322">
        <ele>3875.8</ele>
        <time>2015-09-03T05:17:22Z</time>
      </trkpt>
      <trkpt lat="33.86759" lon="77.46324">
        <ele>3875.6</ele>
        <time>2015-09-03T05:17:24Z</time>
      </trkpt>
      <trkpt lat="33.8676" lon="77.4633">
        <ele>3874.4</ele>
        <time>2015-09-03T05:17:29Z</time>
      </trkpt>
      <trkpt lat="33.86757" lon="77.4634">
        <ele>3873.2</ele>
        <time>2015-09-03T05:17:36Z</time>
      </trkpt>
      <trkpt lat="33.86755" lon="77.46343">
        <ele>3873</ele>
        <time>2015-09-03T05:17:39Z</time>
      </trkpt>
      <trkpt lat="33.86754" lon="77.46348">
        <ele>3873.2</ele>
        <time>2015-09-03T05:17:44Z</time>
      </trkpt>
      <trkpt lat="33.86752" lon="77.46356">
        <ele>3873.2</ele>
        <time>2015-09-03T05:17:50Z</time>
      </trkpt>
      <trkpt lat="33.86753" lon="77.46373">
        <ele>3873.6</ele>
        <time>2015-09-03T05:18:09Z</time>
      </trkpt>
      <trkpt lat="33.86754" lon="77.46377">
        <ele>3873.8</ele>
        <time>2015-09-03T05:18:12Z</time>
      </trkpt>
      <trkpt lat="33.86754" lon="77.46382">
        <ele>3873.8</ele>
        <time>2015-09-03T05:18:15Z</time>
      </trkpt>
      <trkpt lat="33.86752" lon="77.46387">
        <ele>3874</ele>
        <time>2015-09-03T05:18:19Z</time>
      </trkpt>
      <trkpt lat="33.86751" lon="77.46389">
        <ele>3874.2</ele>
        <time>2015-09-03T05:18:21Z</time>
      </trkpt>
      <trkpt lat="33.86749" lon="77.46392">
        <ele>3874.2</ele>
        <time>2015-09-03T05:18:23Z</time>
      </trkpt>
      <trkpt lat="33.86748" lon="77.46393">
        <ele>3874.2</ele>
        <time>2015-09-03T05:18:25Z</time>
      </trkpt>
      <trkpt lat="33.86748" lon="77.46393">
        <ele>3874.4</ele>
        <time>2015-09-03T05:18:26Z</time>
      </trkpt>
      <trkpt lat="33.86748" lon="77.464">
        <ele>3875</ele>
        <time>2015-09-03T05:18:32Z</time>
      </trkpt>
      <trkpt lat="33.86749" lon="77.46402">
        <ele>3875</ele>
        <time>2015-09-03T05:18:35Z</time>
      </trkpt>
      <trkpt lat="33.86747" lon="77.46407">
        <ele>3874.6</ele>
        <time>2015-09-03T05:18:40Z</time>
      </trkpt>
      <trkpt lat="33.86739" lon="77.46412">
        <ele>3874.4</ele>
        <time>2015-09-03T05:18:46Z</time>
      </trkpt>
      <trkpt lat="33.86737" lon="77.46416">
        <ele>3874.6</ele>
        <time>2015-09-03T05:18:49Z</time>
      </trkpt>
      <trkpt lat="33.86735" lon="77.46418">
        <ele>3874.6</ele>
        <time>2015-09-03T05:18:52Z</time>
      </trkpt>
      <trkpt lat="33.86737" lon="77.46427">
        <ele>3875</ele>
        <time>2015-09-03T05:19:04Z</time>
      </trkpt>
      <trkpt lat="33.86732" lon="77.46437">
        <ele>3875.4</ele>
        <time>2015-09-03T05:19:13Z</time>
      </trkpt>
      <trkpt lat="33.8673" lon="77.4644">
        <ele>3875.4</ele>
        <time>2015-09-03T05:19:16Z</time>
      </trkpt>
      <trkpt lat="33.86722" lon="77.46446">
        <ele>3875.4</ele>
        <time>2015-09-03T05:19:23Z</time>
      </trkpt>
      <trkpt lat="33.86716" lon="77.46455">
        <ele>3875.6</ele>
        <time>2015-09-03T05:19:32Z</time>
      </trkpt>
      <trkpt lat="33.86714" lon="77.46459">
        <ele>3875.6</ele>
        <time>2015-09-03T05:19:34Z</time>
      </trkpt>
      <trkpt lat="33.86712" lon="77.46464">
        <ele>3875.6</ele>
        <time>2015-09-03T05:19:40Z</time>
      </trkpt>
      <trkpt lat="33.86705" lon="77.46486">
        <ele>3876.2</ele>
        <time>2015-09-03T05:19:58Z</time>
      </trkpt>
      <trkpt lat="33.86702" lon="77.46491">
        <ele>3876.4</ele>
        <time>2015-09-03T05:20:03Z</time>
      </trkpt>
      <trkpt lat="33.86698" lon="77.465">
        <ele>3876.6</ele>
        <time>2015-09-03T05:20:12Z</time>
      </trkpt>
      <trkpt lat="33.86692" lon="77.4651">
        <ele>3876.8</ele>
        <time>2015-09-03T05:20:22Z</time>
      </trkpt>
      <trkpt lat="33.86689" lon="77.46515">
        <ele>3876.8</ele>
        <time>2015-09-03T05:20:27Z</time>
      </trkpt>
      <trkpt lat="33.86688" lon="77.46521">
        <ele>3877</ele>
        <time>2015-09-03T05:20:33Z</time>
      </trkpt>
      <trkpt lat="33.86685" lon="77.46524">
        <ele>3877</ele>
        <time>2015-09-03T05:20:37Z</time>
      </trkpt>
      <trkpt lat="33.86678" lon="77.46539">
        <ele>3876.6</ele>
        <time>2015-09-03T05:20:51Z</time>
      </trkpt>
      <trkpt lat="33.86676" lon="77.46541">
        <ele>3876.8</ele>
        <time>2015-09-03T05:20:53Z</time>
      </trkpt>
      <trkpt lat="33.86673" lon="77.46547">
        <ele>3877.2</ele>
        <time>2015-09-03T05:20:59Z</time>
      </trkpt>
      <trkpt lat="33.86675" lon="77.46549">
        <ele>3877.6</ele>
        <time>2015-09-03T05:21:05Z</time>
      </trkpt>
      <trkpt lat="33.86669" lon="77.46556">
        <ele>3878.2</ele>
        <time>2015-09-03T05:21:13Z</time>
      </trkpt>
      <trkpt lat="33.86665" lon="77.46571">
        <ele>3878</ele>
        <time>2015-09-03T05:21:25Z</time>
      </trkpt>
      <trkpt lat="33.86666" lon="77.46574">
        <ele>3878</ele>
        <time>2015-09-03T05:21:27Z</time>
      </trkpt>
      <trkpt lat="33.86667" lon="77.46576">
        <ele>3878</ele>
        <time>2015-09-03T05:21:29Z</time>
      </trkpt>
      <trkpt lat="33.86672" lon="77.46578">
        <ele>3878</ele>
        <time>2015-09-03T05:21:33Z</time>
      </trkpt>
      <trkpt lat="33.86676" lon="77.4658">
        <ele>3878</ele>
        <time>2015-09-03T05:21:35Z</time>
      </trkpt>
      <trkpt lat="33.86683" lon="77.46584">
        <ele>3878</ele>
        <time>2015-09-03T05:21:39Z</time>
      </trkpt>
      <trkpt lat="33.86681" lon="77.46588">
        <ele>3877.8</ele>
        <time>2015-09-03T05:21:44Z</time>
      </trkpt>
      <trkpt lat="33.86672" lon="77.46608">
        <ele>3877.8</ele>
        <time>2015-09-03T05:21:58Z</time>
      </trkpt>
      <trkpt lat="33.86679" lon="77.46627">
        <ele>3878</ele>
        <time>2015-09-03T05:22:11Z</time>
      </trkpt>
      <trkpt lat="33.86676" lon="77.46649">
        <ele>3878.4</ele>
        <time>2015-09-03T05:22:25Z</time>
      </trkpt>
      <trkpt lat="33.86671" lon="77.46664">
        <ele>3878.4</ele>
        <time>2015-09-03T05:22:34Z</time>
      </trkpt>
      <trkpt lat="33.86668" lon="77.46664">
        <ele>3878.4</ele>
        <time>2015-09-03T05:22:38Z</time>
      </trkpt>
      <trkpt lat="33.86667" lon="77.46661">
        <ele>3878.6</ele>
        <time>2015-09-03T05:22:42Z</time>
      </trkpt>
      <trkpt lat="33.86666" lon="77.46661">
        <ele>3878.6</ele>
        <time>2015-09-03T05:22:43Z</time>
      </trkpt>
      <trkpt lat="33.86664" lon="77.46666">
        <ele>3878.8</ele>
        <time>2015-09-03T05:22:48Z</time>
      </trkpt>
      <trkpt lat="33.86665" lon="77.46668">
        <ele>3878.8</ele>
        <time>2015-09-03T05:22:50Z</time>
      </trkpt>
      <trkpt lat="33.86666" lon="77.46671">
        <ele>3879</ele>
        <time>2015-09-03T05:22:53Z</time>
      </trkpt>
      <trkpt lat="33.86666" lon="77.46678">
        <ele>3879</ele>
        <time>2015-09-03T05:22:59Z</time>
      </trkpt>
      <trkpt lat="33.86664" lon="77.4668">
        <ele>3879.2</ele>
        <time>2015-09-03T05:23:01Z</time>
      </trkpt>
      <trkpt lat="33.86663" lon="77.46682">
        <ele>3879.4</ele>
        <time>2015-09-03T05:23:03Z</time>
      </trkpt>
      <trkpt lat="33.8666" lon="77.46684">
        <ele>3879.4</ele>
        <time>2015-09-03T05:23:06Z</time>
      </trkpt>
      <trkpt lat="33.86655" lon="77.46691">
        <ele>3879.6</ele>
        <time>2015-09-03T05:23:13Z</time>
      </trkpt>
      <trkpt lat="33.86652" lon="77.46694">
        <ele>3879.6</ele>
        <time>2015-09-03T05:23:17Z</time>
      </trkpt>
      <trkpt lat="33.86648" lon="77.46702">
        <ele>3879.6</ele>
        <time>2015-09-03T05:23:22Z</time>
      </trkpt>
      <trkpt lat="33.86648" lon="77.46704">
        <ele>3879.8</ele>
        <time>2015-09-03T05:23:24Z</time>
      </trkpt>
      <trkpt lat="33.86647" lon="77.46708">
        <ele>3879.8</ele>
        <time>2015-09-03T05:23:28Z</time>
      </trkpt>
      <trkpt lat="33.86647" lon="77.46711">
        <ele>3879.8</ele>
        <time>2015-09-03T05:23:31Z</time>
      </trkpt>
      <trkpt lat="33.86648" lon="77.46721">
        <ele>3880.2</ele>
        <time>2015-09-03T05:23:38Z</time>
      </trkpt>
      <trkpt lat="33.86644" lon="77.46729">
        <ele>3880.6</ele>
        <time>2015-09-03T05:23:47Z</time>
      </trkpt>
      <trkpt lat="33.86642" lon="77.4673">
        <ele>3880.6</ele>
        <time>2015-09-03T05:23:50Z</time>
      </trkpt>
      <trkpt lat="33.86641" lon="77.46733">
        <ele>3880.6</ele>
        <time>2015-09-03T05:23:53Z</time>
      </trkpt>
      <trkpt lat="33.86636" lon="77.46738">
        <ele>3880.6</ele>
        <time>2015-09-03T05:23:59Z</time>
      </trkpt>
      <trkpt lat="33.86635" lon="77.46739">
        <ele>3880.6</ele>
        <time>2015-09-03T05:24:01Z</time>
      </trkpt>
      <trkpt lat="33.86631" lon="77.46752">
        <ele>3880.8</ele>
        <time>2015-09-03T05:24:15Z</time>
      </trkpt>
      <trkpt lat="33.86623" lon="77.46773">
        <ele>3881.2</ele>
        <time>2015-09-03T05:24:33Z</time>
      </trkpt>
      <trkpt lat="33.86622" lon="77.46776">
        <ele>3881.2</ele>
        <time>2015-09-03T05:24:36Z</time>
      </trkpt>
      <trkpt lat="33.86621" lon="77.46778">
        <ele>3881.2</ele>
        <time>2015-09-03T05:24:38Z</time>
      </trkpt>
      <trkpt lat="33.8662" lon="77.46781">
        <ele>3881.2</ele>
        <time>2015-09-03T05:24:41Z</time>
      </trkpt>
      <trkpt lat="33.8662" lon="77.46786">
        <ele>3881.2</ele>
        <time>2015-09-03T05:24:45Z</time>
      </trkpt>
      <trkpt lat="33.86617" lon="77.46791">
        <ele>3881</ele>
        <time>2015-09-03T05:24:51Z</time>
      </trkpt>
      <trkpt lat="33.8661" lon="77.46799">
        <ele>3881.6</ele>
        <time>2015-09-03T05:25:05Z</time>
      </trkpt>
      <trkpt lat="33.86609" lon="77.46803">
        <ele>3881.6</ele>
        <time>2015-09-03T05:25:08Z</time>
      </trkpt>
      <trkpt lat="33.86608" lon="77.46804">
        <ele>3881.6</ele>
        <time>2015-09-03T05:25:10Z</time>
      </trkpt>
      <trkpt lat="33.86605" lon="77.46808">
        <ele>3881.8</ele>
        <time>2015-09-03T05:25:15Z</time>
      </trkpt>
      <trkpt lat="33.86605" lon="77.46813">
        <ele>3882</ele>
        <time>2015-09-03T05:25:20Z</time>
      </trkpt>
      <trkpt lat="33.86602" lon="77.46818">
        <ele>3882.2</ele>
        <time>2015-09-03T05:25:25Z</time>
      </trkpt>
      <trkpt lat="33.866" lon="77.4682">
        <ele>3882.2</ele>
        <time>2015-09-03T05:25:27Z</time>
      </trkpt>
      <trkpt lat="33.86598" lon="77.46825">
        <ele>3882</ele>
        <time>2015-09-03T05:25:30Z</time>
      </trkpt>
      <trkpt lat="33.86591" lon="77.46838">
        <ele>3882</ele>
        <time>2015-09-03T05:25:41Z</time>
      </trkpt>
      <trkpt lat="33.86581" lon="77.46847">
        <ele>3882.6</ele>
        <time>2015-09-03T05:25:53Z</time>
      </trkpt>
      <trkpt lat="33.86581" lon="77.46848">
        <ele>3882.8</ele>
        <time>2015-09-03T05:25:54Z</time>
      </trkpt>
      <trkpt lat="33.86579" lon="77.4685">
        <ele>3883</ele>
        <time>2015-09-03T05:25:57Z</time>
      </trkpt>
      <trkpt lat="33.86577" lon="77.46852">
        <ele>3883</ele>
        <time>2015-09-03T05:26:00Z</time>
      </trkpt>
      <trkpt lat="33.86575" lon="77.46854">
        <ele>3883</ele>
        <time>2015-09-03T05:26:02Z</time>
      </trkpt>
      <trkpt lat="33.86572" lon="77.46857">
        <ele>3883</ele>
        <time>2015-09-03T05:26:06Z</time>
      </trkpt>
      <trkpt lat="33.86569" lon="77.46861">
        <ele>3883.2</ele>
        <time>2015-09-03T05:26:12Z</time>
      </trkpt>
      <trkpt lat="33.86568" lon="77.46871">
        <ele>3883</ele>
        <time>2015-09-03T05:26:18Z</time>
      </trkpt>
      <trkpt lat="33.86566" lon="77.46878">
        <ele>3883.2</ele>
        <time>2015-09-03T05:26:23Z</time>
      </trkpt>
      <trkpt lat="33.86556" lon="77.46892">
        <ele>3883.6</ele>
        <time>2015-09-03T05:26:38Z</time>
      </trkpt>
      <trkpt lat="33.86552" lon="77.46896">
        <ele>3883.6</ele>
        <time>2015-09-03T05:26:51Z</time>
      </trkpt>
      <trkpt lat="33.8655" lon="77.46901">
        <ele>3883.8</ele>
        <time>2015-09-03T05:27:00Z</time>
      </trkpt>
      <trkpt lat="33.86547" lon="77.46905">
        <ele>3883.8</ele>
        <time>2015-09-03T05:27:15Z</time>
      </trkpt>
      <trkpt lat="33.86546" lon="77.46907">
        <ele>3883.8</ele>
        <time>2015-09-03T05:27:17Z</time>
      </trkpt>
      <trkpt lat="33.86545" lon="77.46911">
        <ele>3883.4</ele>
        <time>2015-09-03T05:27:20Z</time>
      </trkpt>
      <trkpt lat="33.86542" lon="77.46916">
        <ele>3883.4</ele>
        <time>2015-09-03T05:27:25Z</time>
      </trkpt>
      <trkpt lat="33.86536" lon="77.46927">
        <ele>3883.8</ele>
        <time>2015-09-03T05:27:36Z</time>
      </trkpt>
      <trkpt lat="33.8653" lon="77.46931">
        <ele>3884.6</ele>
        <time>2015-09-03T05:27:43Z</time>
      </trkpt>
      <trkpt lat="33.86524" lon="77.46934">
        <ele>3884.6</ele>
        <time>2015-09-03T05:27:50Z</time>
      </trkpt>
      <trkpt lat="33.86512" lon="77.46952">
        <ele>3884.6</ele>
        <time>2015-09-03T05:28:06Z</time>
      </trkpt>
      <trkpt lat="33.86511" lon="77.46954">
        <ele>3884.8</ele>
        <time>2015-09-03T05:28:07Z</time>
      </trkpt>
      <trkpt lat="33.86502" lon="77.46964">
        <ele>3885.2</ele>
        <time>2015-09-03T05:28:20Z</time>
      </trkpt>
      <trkpt lat="33.86501" lon="77.46967">
        <ele>3885.4</ele>
        <time>2015-09-03T05:28:23Z</time>
      </trkpt>
      <trkpt lat="33.86491" lon="77.46972">
        <ele>3885</ele>
        <time>2015-09-03T05:28:32Z</time>
      </trkpt>
      <trkpt lat="33.86489" lon="77.46972">
        <ele>3885.2</ele>
        <time>2015-09-03T05:28:34Z</time>
      </trkpt>
      <trkpt lat="33.86485" lon="77.46972">
        <ele>3885.4</ele>
        <time>2015-09-03T05:28:38Z</time>
      </trkpt>
      <trkpt lat="33.86481" lon="77.46975">
        <ele>3885.6</ele>
        <time>2015-09-03T05:28:43Z</time>
      </trkpt>
      <trkpt lat="33.86479" lon="77.46975">
        <ele>3885.6</ele>
        <time>2015-09-03T05:28:45Z</time>
      </trkpt>
      <trkpt lat="33.86475" lon="77.46977">
        <ele>3885.8</ele>
        <time>2015-09-03T05:28:50Z</time>
      </trkpt>
      <trkpt lat="33.86463" lon="77.46977">
        <ele>3885.8</ele>
        <time>2015-09-03T05:28:59Z</time>
      </trkpt>
      <trkpt lat="33.86456" lon="77.46984">
        <ele>3886</ele>
        <time>2015-09-03T05:29:19Z</time>
      </trkpt>
      <trkpt lat="33.86453" lon="77.46986">
        <ele>3886</ele>
        <time>2015-09-03T05:29:24Z</time>
      </trkpt>
      <trkpt lat="33.8645" lon="77.46992">
        <ele>3886</ele>
        <time>2015-09-03T05:29:29Z</time>
      </trkpt>
      <trkpt lat="33.86443" lon="77.4701">
        <ele>3886.4</ele>
        <time>2015-09-03T05:29:47Z</time>
      </trkpt>
      <trkpt lat="33.86442" lon="77.47011">
        <ele>3886.4</ele>
        <time>2015-09-03T05:29:49Z</time>
      </trkpt>
      <trkpt lat="33.8644" lon="77.4702">
        <ele>3886.4</ele>
        <time>2015-09-03T05:29:57Z</time>
      </trkpt>
      <trkpt lat="33.86438" lon="77.47023">
        <ele>3886.4</ele>
        <time>2015-09-03T05:30:01Z</time>
      </trkpt>
      <trkpt lat="33.86434" lon="77.47034">
        <ele>3886.6</ele>
        <time>2015-09-03T05:30:17Z</time>
      </trkpt>
      <trkpt lat="33.86429" lon="77.47043">
        <ele>3886.6</ele>
        <time>2015-09-03T05:30:23Z</time>
      </trkpt>
      <trkpt lat="33.86428" lon="77.47044">
        <ele>3886.6</ele>
        <time>2015-09-03T05:30:24Z</time>
      </trkpt>
      <trkpt lat="33.86427" lon="77.47052">
        <ele>3887</ele>
        <time>2015-09-03T05:30:33Z</time>
      </trkpt>
      <trkpt lat="33.86426" lon="77.47056">
        <ele>3887.2</ele>
        <time>2015-09-03T05:30:38Z</time>
      </trkpt>
      <trkpt lat="33.86422" lon="77.4706">
        <ele>3887.4</ele>
        <time>2015-09-03T05:30:43Z</time>
      </trkpt>
      <trkpt lat="33.86419" lon="77.47064">
        <ele>3887.6</ele>
        <time>2015-09-03T05:30:46Z</time>
      </trkpt>
      <trkpt lat="33.86406" lon="77.47077">
        <ele>3888</ele>
        <time>2015-09-03T05:31:00Z</time>
      </trkpt>
      <trkpt lat="33.86405" lon="77.47078">
        <ele>3888</ele>
        <time>2015-09-03T05:31:02Z</time>
      </trkpt>
      <trkpt lat="33.86404" lon="77.47078">
        <ele>3888</ele>
        <time>2015-09-03T05:31:03Z</time>
      </trkpt>
      <trkpt lat="33.86402" lon="77.47081">
        <ele>3888.2</ele>
        <time>2015-09-03T05:31:06Z</time>
      </trkpt>
      <trkpt lat="33.86397" lon="77.4709">
        <ele>3888.2</ele>
        <time>2015-09-03T05:31:13Z</time>
      </trkpt>
      <trkpt lat="33.86396" lon="77.47095">
        <ele>3888.4</ele>
        <time>2015-09-03T05:31:18Z</time>
      </trkpt>
      <trkpt lat="33.86392" lon="77.47102">
        <ele>3888.2</ele>
        <time>2015-09-03T05:31:27Z</time>
      </trkpt>
      <trkpt lat="33.86385" lon="77.47109">
        <ele>3888.2</ele>
        <time>2015-09-03T05:31:40Z</time>
      </trkpt>
      <trkpt lat="33.86384" lon="77.47111">
        <ele>3888.4</ele>
        <time>2015-09-03T05:31:42Z</time>
      </trkpt>
      <trkpt lat="33.86381" lon="77.47114">
        <ele>3889</ele>
        <time>2015-09-03T05:31:46Z</time>
      </trkpt>
      <trkpt lat="33.86381" lon="77.47115">
        <ele>3889.2</ele>
        <time>2015-09-03T05:31:47Z</time>
      </trkpt>
      <trkpt lat="33.86379" lon="77.47118">
        <ele>3889.2</ele>
        <time>2015-09-03T05:31:50Z</time>
      </trkpt>
      <trkpt lat="33.86373" lon="77.47126">
        <ele>3889.2</ele>
        <time>2015-09-03T05:32:00Z</time>
      </trkpt>
      <trkpt lat="33.86369" lon="77.47139">
        <ele>3889.4</ele>
        <time>2015-09-03T05:32:07Z</time>
      </trkpt>
      <trkpt lat="33.86367" lon="77.47141">
        <ele>3889.6</ele>
        <time>2015-09-03T05:32:11Z</time>
      </trkpt>
      <trkpt lat="33.86367" lon="77.47142">
        <ele>3889.6</ele>
        <time>2015-09-03T05:32:12Z</time>
      </trkpt>
      <trkpt lat="33.86351" lon="77.47155">
        <ele>3890</ele>
        <time>2015-09-03T05:32:34Z</time>
      </trkpt>
      <trkpt lat="33.86349" lon="77.47157">
        <ele>3890</ele>
        <time>2015-09-03T05:32:37Z</time>
      </trkpt>
      <trkpt lat="33.86348" lon="77.4716">
        <ele>3890</ele>
        <time>2015-09-03T05:32:39Z</time>
      </trkpt>
      <trkpt lat="33.86346" lon="77.47169">
        <ele>3889.8</ele>
        <time>2015-09-03T05:32:44Z</time>
      </trkpt>
      <trkpt lat="33.86342" lon="77.47174">
        <ele>3890</ele>
        <time>2015-09-03T05:32:48Z</time>
      </trkpt>
      <trkpt lat="33.86342" lon="77.47175">
        <ele>3890</ele>
        <time>2015-09-03T05:32:49Z</time>
      </trkpt>
      <trkpt lat="33.86339" lon="77.47181">
        <ele>3890</ele>
        <time>2015-09-03T05:32:54Z</time>
      </trkpt>
      <trkpt lat="33.86337" lon="77.47185">
        <ele>3890.2</ele>
        <time>2015-09-03T05:32:59Z</time>
      </trkpt>
      <trkpt lat="33.86335" lon="77.47187">
        <ele>3890.4</ele>
        <time>2015-09-03T05:33:01Z</time>
      </trkpt>
      <trkpt lat="33.86332" lon="77.47189">
        <ele>3890.4</ele>
        <time>2015-09-03T05:33:05Z</time>
      </trkpt>
      <trkpt lat="33.86329" lon="77.47199">
        <ele>3890.6</ele>
        <time>2015-09-03T05:33:10Z</time>
      </trkpt>
      <trkpt lat="33.86319" lon="77.47211">
        <ele>3891</ele>
        <time>2015-09-03T05:33:28Z</time>
      </trkpt>
      <trkpt lat="33.86313" lon="77.47228">
        <ele>3891.8</ele>
        <time>2015-09-03T05:33:45Z</time>
      </trkpt>
      <trkpt lat="33.86311" lon="77.4723">
        <ele>3892</ele>
        <time>2015-09-03T05:33:48Z</time>
      </trkpt>
      <trkpt lat="33.8631" lon="77.47231">
        <ele>3892</ele>
        <time>2015-09-03T05:33:49Z</time>
      </trkpt>
      <trkpt lat="33.86306" lon="77.47232">
        <ele>3892</ele>
        <time>2015-09-03T05:33:53Z</time>
      </trkpt>
      <trkpt lat="33.86304" lon="77.47236">
        <ele>3892</ele>
        <time>2015-09-03T05:33:55Z</time>
      </trkpt>
      <trkpt lat="33.86301" lon="77.47237">
        <ele>3892</ele>
        <time>2015-09-03T05:33:57Z</time>
      </trkpt>
      <trkpt lat="33.86294" lon="77.4724">
        <ele>3892.2</ele>
        <time>2015-09-03T05:34:04Z</time>
      </trkpt>
      <trkpt lat="33.86293" lon="77.47241">
        <ele>3892.2</ele>
        <time>2015-09-03T05:34:06Z</time>
      </trkpt>
      <trkpt lat="33.86293" lon="77.47244">
        <ele>3892.4</ele>
        <time>2015-09-03T05:34:08Z</time>
      </trkpt>
      <trkpt lat="33.86292" lon="77.47247">
        <ele>3892.4</ele>
        <time>2015-09-03T05:34:12Z</time>
      </trkpt>
      <trkpt lat="33.86293" lon="77.47252">
        <ele>3892.4</ele>
        <time>2015-09-03T05:34:17Z</time>
      </trkpt>
      <trkpt lat="33.86294" lon="77.47261">
        <ele>3892.8</ele>
        <time>2015-09-03T05:34:25Z</time>
      </trkpt>
      <trkpt lat="33.86293" lon="77.47263">
        <ele>3893</ele>
        <time>2015-09-03T05:34:27Z</time>
      </trkpt>
      <trkpt lat="33.86292" lon="77.47263">
        <ele>3893.2</ele>
        <time>2015-09-03T05:34:29Z</time>
      </trkpt>
      <trkpt lat="33.86284" lon="77.47278">
        <ele>3894.2</ele>
        <time>2015-09-03T05:34:45Z</time>
      </trkpt>
      <trkpt lat="33.86283" lon="77.47282">
        <ele>3894.6</ele>
        <time>2015-09-03T05:34:49Z</time>
      </trkpt>
      <trkpt lat="33.8628" lon="77.47283">
        <ele>3894.8</ele>
        <time>2015-09-03T05:34:52Z</time>
      </trkpt>
      <trkpt lat="33.86275" lon="77.47283">
        <ele>3895.2</ele>
        <time>2015-09-03T05:34:58Z</time>
      </trkpt>
      <trkpt lat="33.8627" lon="77.47294">
        <ele>3896</ele>
        <time>2015-09-03T05:35:07Z</time>
      </trkpt>
      <trkpt lat="33.86268" lon="77.473">
        <ele>3896.2</ele>
        <time>2015-09-03T05:35:10Z</time>
      </trkpt>
      <trkpt lat="33.86267" lon="77.47302">
        <ele>3896.2</ele>
        <time>2015-09-03T05:35:12Z</time>
      </trkpt>
      <trkpt lat="33.86266" lon="77.47305">
        <ele>3896.8</ele>
        <time>2015-09-03T05:35:15Z</time>
      </trkpt>
      <trkpt lat="33.86265" lon="77.47306">
        <ele>3897</ele>
        <time>2015-09-03T05:35:18Z</time>
      </trkpt>
      <trkpt lat="33.86262" lon="77.47307">
        <ele>3897.4</ele>
        <time>2015-09-03T05:35:24Z</time>
      </trkpt>
      <trkpt lat="33.86262" lon="77.47305">
        <ele>3897.8</ele>
        <time>2015-09-03T05:35:29Z</time>
      </trkpt>
      <trkpt lat="33.86261" lon="77.4731">
        <ele>3897.8</ele>
        <time>2015-09-03T05:35:32Z</time>
      </trkpt>
      <trkpt lat="33.86258" lon="77.47318">
        <ele>3898.4</ele>
        <time>2015-09-03T05:35:43Z</time>
      </trkpt>
      <trkpt lat="33.86257" lon="77.47319">
        <ele>3898.4</ele>
        <time>2015-09-03T05:35:45Z</time>
      </trkpt>
      <trkpt lat="33.86252" lon="77.4733">
        <ele>3898.4</ele>
        <time>2015-09-03T05:35:59Z</time>
      </trkpt>
      <trkpt lat="33.8625" lon="77.47334">
        <ele>3898.2</ele>
        <time>2015-09-03T05:36:02Z</time>
      </trkpt>
      <trkpt lat="33.86248" lon="77.47338">
        <ele>3898</ele>
        <time>2015-09-03T05:36:05Z</time>
      </trkpt>
      <trkpt lat="33.86247" lon="77.47339">
        <ele>3897.6</ele>
        <time>2015-09-03T05:36:07Z</time>
      </trkpt>
      <trkpt lat="33.86245" lon="77.47341">
        <ele>3897.6</ele>
        <time>2015-09-03T05:36:09Z</time>
      </trkpt>
      <trkpt lat="33.86243" lon="77.47343">
        <ele>3897.6</ele>
        <time>2015-09-03T05:36:11Z</time>
      </trkpt>
      <trkpt lat="33.86241" lon="77.47345">
        <ele>3897.6</ele>
        <time>2015-09-03T05:36:13Z</time>
      </trkpt>
      <trkpt lat="33.86239" lon="77.47347">
        <ele>3897.4</ele>
        <time>2015-09-03T05:36:16Z</time>
      </trkpt>
      <trkpt lat="33.86238" lon="77.47353">
        <ele>3896.6</ele>
        <time>2015-09-03T05:36:26Z</time>
      </trkpt>
      <trkpt lat="33.86236" lon="77.47353">
        <ele>3896.4</ele>
        <time>2015-09-03T05:36:29Z</time>
      </trkpt>
      <trkpt lat="33.86233" lon="77.47358">
        <ele>3895.4</ele>
        <time>2015-09-03T05:36:35Z</time>
      </trkpt>
      <trkpt lat="33.86233" lon="77.47359">
        <ele>3895.2</ele>
        <time>2015-09-03T05:36:36Z</time>
      </trkpt>
      <trkpt lat="33.86232" lon="77.47361">
        <ele>3895</ele>
        <time>2015-09-03T05:36:38Z</time>
      </trkpt>
      <trkpt lat="33.8623" lon="77.47363">
        <ele>3894.6</ele>
        <time>2015-09-03T05:36:41Z</time>
      </trkpt>
      <trkpt lat="33.86229" lon="77.47369">
        <ele>3894.6</ele>
        <time>2015-09-03T05:36:47Z</time>
      </trkpt>
      <trkpt lat="33.86228" lon="77.47373">
        <ele>3894.6</ele>
        <time>2015-09-03T05:36:50Z</time>
      </trkpt>
      <trkpt lat="33.86227" lon="77.47375">
        <ele>3894.6</ele>
        <time>2015-09-03T05:36:52Z</time>
      </trkpt>
      <trkpt lat="33.86225" lon="77.47391">
        <ele>3895.2</ele>
        <time>2015-09-03T05:37:02Z</time>
      </trkpt>
      <trkpt lat="33.86224" lon="77.47407">
        <ele>3895.4</ele>
        <time>2015-09-03T05:37:16Z</time>
      </trkpt>
      <trkpt lat="33.86223" lon="77.4741">
        <ele>3895.6</ele>
        <time>2015-09-03T05:37:18Z</time>
      </trkpt>
      <trkpt lat="33.86219" lon="77.47418">
        <ele>3896</ele>
        <time>2015-09-03T05:37:25Z</time>
      </trkpt>
      <trkpt lat="33.8621" lon="77.4743">
        <ele>3896</ele>
        <time>2015-09-03T05:37:35Z</time>
      </trkpt>
      <trkpt lat="33.86208" lon="77.47433">
        <ele>3896</ele>
        <time>2015-09-03T05:37:38Z</time>
      </trkpt>
      <trkpt lat="33.86204" lon="77.47437">
        <ele>3896.2</ele>
        <time>2015-09-03T05:37:45Z</time>
      </trkpt>
      <trkpt lat="33.86204" lon="77.47437">
        <ele>3896.2</ele>
        <time>2015-09-03T05:37:46Z</time>
      </trkpt>
      <trkpt lat="33.862" lon="77.47446">
        <ele>3896.2</ele>
        <time>2015-09-03T05:37:57Z</time>
      </trkpt>
      <trkpt lat="33.86199" lon="77.47446">
        <ele>3896.2</ele>
        <time>2015-09-03T05:37:58Z</time>
      </trkpt>
      <trkpt lat="33.86199" lon="77.47447">
        <ele>3896.2</ele>
        <time>2015-09-03T05:37:59Z</time>
      </trkpt>
      <trkpt lat="33.86198" lon="77.47453">
        <ele>3896.2</ele>
        <time>2015-09-03T05:38:03Z</time>
      </trkpt>
      <trkpt lat="33.86197" lon="77.47454">
        <ele>3896.2</ele>
        <time>2015-09-03T05:38:05Z</time>
      </trkpt>
      <trkpt lat="33.86194" lon="77.47457">
        <ele>3896.4</ele>
        <time>2015-09-03T05:38:09Z</time>
      </trkpt>
      <trkpt lat="33.86181" lon="77.47469">
        <ele>3896.6</ele>
        <time>2015-09-03T05:38:22Z</time>
      </trkpt>
      <trkpt lat="33.8618" lon="77.47472">
        <ele>3896.6</ele>
        <time>2015-09-03T05:38:25Z</time>
      </trkpt>
      <trkpt lat="33.86168" lon="77.47486">
        <ele>3896.6</ele>
        <time>2015-09-03T05:38:44Z</time>
      </trkpt>
      <trkpt lat="33.86165" lon="77.47492">
        <ele>3896.6</ele>
        <time>2015-09-03T05:38:53Z</time>
      </trkpt>
      <trkpt lat="33.86163" lon="77.47495">
        <ele>3896.8</ele>
        <time>2015-09-03T05:38:55Z</time>
      </trkpt>
      <trkpt lat="33.86155" lon="77.47501">
        <ele>3896.8</ele>
        <time>2015-09-03T05:39:07Z</time>
      </trkpt>
      <trkpt lat="33.86153" lon="77.47504">
        <ele>3896.8</ele>
        <time>2015-09-03T05:39:10Z</time>
      </trkpt>
      <trkpt lat="33.86144" lon="77.47514">
        <ele>3897.4</ele>
        <time>2015-09-03T05:39:19Z</time>
      </trkpt>
      <trkpt lat="33.86128" lon="77.47522">
        <ele>3897</ele>
        <time>2015-09-03T05:39:33Z</time>
      </trkpt>
      <trkpt lat="33.86124" lon="77.47525">
        <ele>3897</ele>
        <time>2015-09-03T05:39:37Z</time>
      </trkpt>
      <trkpt lat="33.86118" lon="77.47528">
        <ele>3898.4</ele>
        <time>2015-09-03T05:39:51Z</time>
      </trkpt>
      <trkpt lat="33.86112" lon="77.47532">
        <ele>3898.2</ele>
        <time>2015-09-03T05:40:00Z</time>
      </trkpt>
      <trkpt lat="33.86105" lon="77.47545">
        <ele>3898.2</ele>
        <time>2015-09-03T05:40:21Z</time>
      </trkpt>
      <trkpt lat="33.86103" lon="77.47549">
        <ele>3898.4</ele>
        <time>2015-09-03T05:40:24Z</time>
      </trkpt>
      <trkpt lat="33.86101" lon="77.47551">
        <ele>3898.4</ele>
        <time>2015-09-03T05:40:27Z</time>
      </trkpt>
      <trkpt lat="33.86091" lon="77.47562">
        <ele>3898.6</ele>
        <time>2015-09-03T05:40:42Z</time>
      </trkpt>
      <trkpt lat="33.86082" lon="77.4758">
        <ele>3899</ele>
        <time>2015-09-03T05:40:55Z</time>
      </trkpt>
      <trkpt lat="33.8608" lon="77.47587">
        <ele>3899</ele>
        <time>2015-09-03T05:40:59Z</time>
      </trkpt>
      <trkpt lat="33.86067" lon="77.47597">
        <ele>3899.4</ele>
        <time>2015-09-03T05:41:19Z</time>
      </trkpt>
      <trkpt lat="33.86064" lon="77.47601">
        <ele>3899.4</ele>
        <time>2015-09-03T05:41:22Z</time>
      </trkpt>
      <trkpt lat="33.86063" lon="77.47604">
        <ele>3899.4</ele>
        <time>2015-09-03T05:41:24Z</time>
      </trkpt>
      <trkpt lat="33.86062" lon="77.47607">
        <ele>3899.4</ele>
        <time>2015-09-03T05:41:25Z</time>
      </trkpt>
      <trkpt lat="33.86059" lon="77.47611">
        <ele>3899.6</ele>
        <time>2015-09-03T05:41:29Z</time>
      </trkpt>
      <trkpt lat="33.86057" lon="77.47614">
        <ele>3899.6</ele>
        <time>2015-09-03T05:41:32Z</time>
      </trkpt>
      <trkpt lat="33.86054" lon="77.47619">
        <ele>3899.8</ele>
        <time>2015-09-03T05:41:37Z</time>
      </trkpt>
      <trkpt lat="33.8605" lon="77.47619">
        <ele>3899.8</ele>
        <time>2015-09-03T05:41:41Z</time>
      </trkpt>
      <trkpt lat="33.86041" lon="77.4763">
        <ele>3899.8</ele>
        <time>2015-09-03T05:41:50Z</time>
      </trkpt>
      <trkpt lat="33.86038" lon="77.47643">
        <ele>3899.8</ele>
        <time>2015-09-03T05:41:57Z</time>
      </trkpt>
      <trkpt lat="33.86035" lon="77.4765">
        <ele>3900</ele>
        <time>2015-09-03T05:42:03Z</time>
      </trkpt>
      <trkpt lat="33.86032" lon="77.4765">
        <ele>3900.2</ele>
        <time>2015-09-03T05:42:07Z</time>
      </trkpt>
      <trkpt lat="33.86029" lon="77.47652">
        <ele>3900.4</ele>
        <time>2015-09-03T05:42:10Z</time>
      </trkpt>
      <trkpt lat="33.86028" lon="77.47652">
        <ele>3900.4</ele>
        <time>2015-09-03T05:42:11Z</time>
      </trkpt>
      <trkpt lat="33.86026" lon="77.47652">
        <ele>3900.4</ele>
        <time>2015-09-03T05:42:13Z</time>
      </trkpt>
      <trkpt lat="33.86018" lon="77.47657">
        <ele>3900.8</ele>
        <time>2015-09-03T05:42:24Z</time>
      </trkpt>
      <trkpt lat="33.86016" lon="77.47667">
        <ele>3900.8</ele>
        <time>2015-09-03T05:42:30Z</time>
      </trkpt>
      <trkpt lat="33.86003" lon="77.47683">
        <ele>3901</ele>
        <time>2015-09-03T05:42:43Z</time>
      </trkpt>
      <trkpt lat="33.85994" lon="77.4769">
        <ele>3901.2</ele>
        <time>2015-09-03T05:42:52Z</time>
      </trkpt>
      <trkpt lat="33.85991" lon="77.47698">
        <ele>3901.4</ele>
        <time>2015-09-03T05:43:00Z</time>
      </trkpt>
      <trkpt lat="33.8599" lon="77.47703">
        <ele>3901.6</ele>
        <time>2015-09-03T05:43:04Z</time>
      </trkpt>
      <trkpt lat="33.85986" lon="77.47708">
        <ele>3901.8</ele>
        <time>2015-09-03T05:43:10Z</time>
      </trkpt>
      <trkpt lat="33.85985" lon="77.47709">
        <ele>3902</ele>
        <time>2015-09-03T05:43:12Z</time>
      </trkpt>
      <trkpt lat="33.85982" lon="77.47719">
        <ele>3901.8</ele>
        <time>2015-09-03T05:43:18Z</time>
      </trkpt>
      <trkpt lat="33.85975" lon="77.47725">
        <ele>3902.2</ele>
        <time>2015-09-03T05:43:28Z</time>
      </trkpt>
      <trkpt lat="33.85973" lon="77.47728">
        <ele>3902.2</ele>
        <time>2015-09-03T05:43:31Z</time>
      </trkpt>
      <trkpt lat="33.85971" lon="77.47731">
        <ele>3902.2</ele>
        <time>2015-09-03T05:43:34Z</time>
      </trkpt>
      <trkpt lat="33.85969" lon="77.47733">
        <ele>3902.2</ele>
        <time>2015-09-03T05:43:36Z</time>
      </trkpt>
      <trkpt lat="33.85964" lon="77.47735">
        <ele>3902.4</ele>
        <time>2015-09-03T05:43:42Z</time>
      </trkpt>
      <trkpt lat="33.85963" lon="77.47738">
        <ele>3902.4</ele>
        <time>2015-09-03T05:43:43Z</time>
      </trkpt>
      <trkpt lat="33.85961" lon="77.47738">
        <ele>3902.6</ele>
        <time>2015-09-03T05:43:46Z</time>
      </trkpt>
      <trkpt lat="33.85958" lon="77.47738">
        <ele>3902.6</ele>
        <time>2015-09-03T05:43:51Z</time>
      </trkpt>
      <trkpt lat="33.85956" lon="77.47745">
        <ele>3902.6</ele>
        <time>2015-09-03T05:43:56Z</time>
      </trkpt>
      <trkpt lat="33.85954" lon="77.47749">
        <ele>3902.6</ele>
        <time>2015-09-03T05:43:59Z</time>
      </trkpt>
      <trkpt lat="33.85948" lon="77.47756">
        <ele>3902.4</ele>
        <time>2015-09-03T05:44:05Z</time>
      </trkpt>
      <trkpt lat="33.85945" lon="77.47757">
        <ele>3902.2</ele>
        <time>2015-09-03T05:44:08Z</time>
      </trkpt>
      <trkpt lat="33.85934" lon="77.4776">
        <ele>3901.8</ele>
        <time>2015-09-03T05:44:18Z</time>
      </trkpt>
      <trkpt lat="33.85931" lon="77.47759">
        <ele>3901.8</ele>
        <time>2015-09-03T05:44:22Z</time>
      </trkpt>
      <trkpt lat="33.85929" lon="77.4776">
        <ele>3901.8</ele>
        <time>2015-09-03T05:44:24Z</time>
      </trkpt>
      <trkpt lat="33.85925" lon="77.47763">
        <ele>3902</ele>
        <time>2015-09-03T05:44:31Z</time>
      </trkpt>
      <trkpt lat="33.85913" lon="77.4776">
        <ele>3902.4</ele>
        <time>2015-09-03T05:44:42Z</time>
      </trkpt>
      <trkpt lat="33.85907" lon="77.47767">
        <ele>3902.6</ele>
        <time>2015-09-03T05:44:50Z</time>
      </trkpt>
      <trkpt lat="33.85905" lon="77.47771">
        <ele>3902.6</ele>
        <time>2015-09-03T05:44:54Z</time>
      </trkpt>
      <trkpt lat="33.85899" lon="77.47788">
        <ele>3902.8</ele>
        <time>2015-09-03T05:45:02Z</time>
      </trkpt>
      <trkpt lat="33.8589" lon="77.47795">
        <ele>3903</ele>
        <time>2015-09-03T05:45:17Z</time>
      </trkpt>
      <trkpt lat="33.85889" lon="77.47796">
        <ele>3903</ele>
        <time>2015-09-03T05:45:19Z</time>
      </trkpt>
      <trkpt lat="33.85887" lon="77.4779">
        <ele>3903.2</ele>
        <time>2015-09-03T05:45:22Z</time>
      </trkpt>
      <trkpt lat="33.85886" lon="77.4779">
        <ele>3903.2</ele>
        <time>2015-09-03T05:45:24Z</time>
      </trkpt>
      <trkpt lat="33.85883" lon="77.47799">
        <ele>3903</ele>
        <time>2015-09-03T05:45:30Z</time>
      </trkpt>
      <trkpt lat="33.85882" lon="77.47801">
        <ele>3903</ele>
        <time>2015-09-03T05:45:32Z</time>
      </trkpt>
      <trkpt lat="33.8588" lon="77.47804">
        <ele>3903.2</ele>
        <time>2015-09-03T05:45:36Z</time>
      </trkpt>
      <trkpt lat="33.85878" lon="77.47809">
        <ele>3903.2</ele>
        <time>2015-09-03T05:45:38Z</time>
      </trkpt>
      <trkpt lat="33.85869" lon="77.47829">
        <ele>3903</ele>
        <time>2015-09-03T05:45:53Z</time>
      </trkpt>
      <trkpt lat="33.85859" lon="77.47841">
        <ele>3903.6</ele>
        <time>2015-09-03T05:46:11Z</time>
      </trkpt>
      <trkpt lat="33.85855" lon="77.47841">
        <ele>3903.6</ele>
        <time>2015-09-03T05:46:13Z</time>
      </trkpt>
      <trkpt lat="33.85858" lon="77.47845">
        <ele>3903.6</ele>
        <time>2015-09-03T05:46:16Z</time>
      </trkpt>
      <trkpt lat="33.85851" lon="77.47849">
        <ele>3903.8</ele>
        <time>2015-09-03T05:46:27Z</time>
      </trkpt>
      <trkpt lat="33.85847" lon="77.47849">
        <ele>3903.6</ele>
        <time>2015-09-03T05:46:31Z</time>
      </trkpt>
      <trkpt lat="33.8584" lon="77.4785">
        <ele>3903.6</ele>
        <time>2015-09-03T05:46:36Z</time>
      </trkpt>
      <trkpt lat="33.85839" lon="77.47851">
        <ele>3903.6</ele>
        <time>2015-09-03T05:46:38Z</time>
      </trkpt>
      <trkpt lat="33.85835" lon="77.47853">
        <ele>3903.8</ele>
        <time>2015-09-03T05:46:42Z</time>
      </trkpt>
      <trkpt lat="33.85818" lon="77.47861">
        <ele>3904.6</ele>
        <time>2015-09-03T05:46:58Z</time>
      </trkpt>
      <trkpt lat="33.85818" lon="77.47862">
        <ele>3904.6</ele>
        <time>2015-09-03T05:46:59Z</time>
      </trkpt>
      <trkpt lat="33.85821" lon="77.47866">
        <ele>3904.6</ele>
        <time>2015-09-03T05:47:02Z</time>
      </trkpt>
      <trkpt lat="33.85823" lon="77.47871">
        <ele>3904.6</ele>
        <time>2015-09-03T05:47:07Z</time>
      </trkpt>
      <trkpt lat="33.85821" lon="77.47874">
        <ele>3904.6</ele>
        <time>2015-09-03T05:47:11Z</time>
      </trkpt>
      <trkpt lat="33.85819" lon="77.47878">
        <ele>3904.8</ele>
        <time>2015-09-03T05:47:13Z</time>
      </trkpt>
      <trkpt lat="33.85818" lon="77.47881">
        <ele>3905</ele>
        <time>2015-09-03T05:47:16Z</time>
      </trkpt>
      <trkpt lat="33.85808" lon="77.47889">
        <ele>3905.2</ele>
        <time>2015-09-03T05:47:23Z</time>
      </trkpt>
      <trkpt lat="33.85803" lon="77.47899">
        <ele>3905.2</ele>
        <time>2015-09-03T05:47:39Z</time>
      </trkpt>
      <trkpt lat="33.85802" lon="77.47903">
        <ele>3905.6</ele>
        <time>2015-09-03T05:47:44Z</time>
      </trkpt>
      <trkpt lat="33.85799" lon="77.47917">
        <ele>3906.6</ele>
        <time>2015-09-03T05:47:52Z</time>
      </trkpt>
      <trkpt lat="33.85798" lon="77.4792">
        <ele>3906.8</ele>
        <time>2015-09-03T05:47:56Z</time>
      </trkpt>
      <trkpt lat="33.85796" lon="77.47922">
        <ele>3907.6</ele>
        <time>2015-09-03T05:48:04Z</time>
      </trkpt>
      <trkpt lat="33.85789" lon="77.4793">
        <ele>3907.8</ele>
        <time>2015-09-03T05:48:16Z</time>
      </trkpt>
      <trkpt lat="33.85793" lon="77.4794">
        <ele>3907.4</ele>
        <time>2015-09-03T05:48:27Z</time>
      </trkpt>
      <trkpt lat="33.85789" lon="77.47943">
        <ele>3907.4</ele>
        <time>2015-09-03T05:48:32Z</time>
      </trkpt>
      <trkpt lat="33.8579" lon="77.47945">
        <ele>3907.6</ele>
        <time>2015-09-03T05:48:34Z</time>
      </trkpt>
      <trkpt lat="33.8579" lon="77.47947">
        <ele>3907.6</ele>
        <time>2015-09-03T05:48:36Z</time>
      </trkpt>
      <trkpt lat="33.85783" lon="77.47952">
        <ele>3907.6</ele>
        <time>2015-09-03T05:48:42Z</time>
      </trkpt>
      <trkpt lat="33.85778" lon="77.47954">
        <ele>3907.6</ele>
        <time>2015-09-03T05:48:47Z</time>
      </trkpt>
      <trkpt lat="33.8577" lon="77.47972">
        <ele>3907.4</ele>
        <time>2015-09-03T05:49:02Z</time>
      </trkpt>
      <trkpt lat="33.85769" lon="77.47982">
        <ele>3907.4</ele>
        <time>2015-09-03T05:49:07Z</time>
      </trkpt>
      <trkpt lat="33.85759" lon="77.47989">
        <ele>3907.4</ele>
        <time>2015-09-03T05:49:16Z</time>
      </trkpt>
      <trkpt lat="33.85754" lon="77.47992">
        <ele>3907.8</ele>
        <time>2015-09-03T05:49:26Z</time>
      </trkpt>
      <trkpt lat="33.85743" lon="77.48007">
        <ele>3908</ele>
        <time>2015-09-03T05:49:44Z</time>
      </trkpt>
      <trkpt lat="33.85743" lon="77.48008">
        <ele>3908</ele>
        <time>2015-09-03T05:49:46Z</time>
      </trkpt>
      <trkpt lat="33.85742" lon="77.48013">
        <ele>3908.2</ele>
        <time>2015-09-03T05:49:49Z</time>
      </trkpt>
      <trkpt lat="33.85739" lon="77.48016">
        <ele>3908</ele>
        <time>2015-09-03T05:49:53Z</time>
      </trkpt>
      <trkpt lat="33.85736" lon="77.48016">
        <ele>3908</ele>
        <time>2015-09-03T05:49:56Z</time>
      </trkpt>
      <trkpt lat="33.85727" lon="77.4802">
        <ele>3908.2</ele>
        <time>2015-09-03T05:50:06Z</time>
      </trkpt>
      <trkpt lat="33.85713" lon="77.48036">
        <ele>3908.6</ele>
        <time>2015-09-03T05:50:19Z</time>
      </trkpt>
      <trkpt lat="33.85712" lon="77.48038">
        <ele>3908.6</ele>
        <time>2015-09-03T05:50:20Z</time>
      </trkpt>
      <trkpt lat="33.85705" lon="77.48058">
        <ele>3909.2</ele>
        <time>2015-09-03T05:50:39Z</time>
      </trkpt>
      <trkpt lat="33.85705" lon="77.48058">
        <ele>3909.4</ele>
        <time>2015-09-03T05:50:40Z</time>
      </trkpt>
      <trkpt lat="33.85703" lon="77.4806">
        <ele>3909.8</ele>
        <time>2015-09-03T05:50:43Z</time>
      </trkpt>
      <trkpt lat="33.85693" lon="77.4807">
        <ele>3910.6</ele>
        <time>2015-09-03T05:50:55Z</time>
      </trkpt>
      <trkpt lat="33.85692" lon="77.48071">
        <ele>3910.8</ele>
        <time>2015-09-03T05:50:57Z</time>
      </trkpt>
      <trkpt lat="33.85689" lon="77.48073">
        <ele>3910.6</ele>
        <time>2015-09-03T05:51:02Z</time>
      </trkpt>
      <trkpt lat="33.85687" lon="77.48074">
        <ele>3910.6</ele>
        <time>2015-09-03T05:51:05Z</time>
      </trkpt>
      <trkpt lat="33.85684" lon="77.48076">
        <ele>3910.6</ele>
        <time>2015-09-03T05:51:09Z</time>
      </trkpt>
      <trkpt lat="33.85683" lon="77.48075">
        <ele>3910.6</ele>
        <time>2015-09-03T05:51:11Z</time>
      </trkpt>
      <trkpt lat="33.8568" lon="77.48075">
        <ele>3910.2</ele>
        <time>2015-09-03T05:51:15Z</time>
      </trkpt>
      <trkpt lat="33.85679" lon="77.48082">
        <ele>3910</ele>
        <time>2015-09-03T05:51:20Z</time>
      </trkpt>
      <trkpt lat="33.85671" lon="77.4809">
        <ele>3909.8</ele>
        <time>2015-09-03T05:51:31Z</time>
      </trkpt>
      <trkpt lat="33.8567" lon="77.48092">
        <ele>3909.8</ele>
        <time>2015-09-03T05:51:33Z</time>
      </trkpt>
      <trkpt lat="33.85669" lon="77.48093">
        <ele>3909.8</ele>
        <time>2015-09-03T05:51:35Z</time>
      </trkpt>
      <trkpt lat="33.85664" lon="77.48106">
        <ele>3909.6</ele>
        <time>2015-09-03T05:51:41Z</time>
      </trkpt>
      <trkpt lat="33.85661" lon="77.48109">
        <ele>3909.6</ele>
        <time>2015-09-03T05:51:44Z</time>
      </trkpt>
      <trkpt lat="33.85654" lon="77.48114">
        <ele>3910</ele>
        <time>2015-09-03T05:51:54Z</time>
      </trkpt>
      <trkpt lat="33.85652" lon="77.48117">
        <ele>3910</ele>
        <time>2015-09-03T05:51:57Z</time>
      </trkpt>
      <trkpt lat="33.8565" lon="77.48117">
        <ele>3910</ele>
        <time>2015-09-03T05:51:59Z</time>
      </trkpt>
      <trkpt lat="33.85647" lon="77.4812">
        <ele>3910.2</ele>
        <time>2015-09-03T05:52:02Z</time>
      </trkpt>
      <trkpt lat="33.85637" lon="77.48133">
        <ele>3910.6</ele>
        <time>2015-09-03T05:52:16Z</time>
      </trkpt>
      <trkpt lat="33.85628" lon="77.48141">
        <ele>3910.8</ele>
        <time>2015-09-03T05:52:26Z</time>
      </trkpt>
      <trkpt lat="33.85612" lon="77.48151">
        <ele>3911.2</ele>
        <time>2015-09-03T05:52:42Z</time>
      </trkpt>
      <trkpt lat="33.85602" lon="77.48167">
        <ele>3911.8</ele>
        <time>2015-09-03T05:53:00Z</time>
      </trkpt>
      <trkpt lat="33.85596" lon="77.48176">
        <ele>3912.2</ele>
        <time>2015-09-03T05:53:07Z</time>
      </trkpt>
      <trkpt lat="33.85587" lon="77.48179">
        <ele>3912.4</ele>
        <time>2015-09-03T05:53:19Z</time>
      </trkpt>
      <trkpt lat="33.85584" lon="77.48181">
        <ele>3912.4</ele>
        <time>2015-09-03T05:53:23Z</time>
      </trkpt>
      <trkpt lat="33.85578" lon="77.48185">
        <ele>3912.8</ele>
        <time>2015-09-03T05:53:33Z</time>
      </trkpt>
      <trkpt lat="33.85569" lon="77.48199">
        <ele>3913.2</ele>
        <time>2015-09-03T05:53:45Z</time>
      </trkpt>
      <trkpt lat="33.85563" lon="77.48203">
        <ele>3914</ele>
        <time>2015-09-03T05:53:50Z</time>
      </trkpt>
      <trkpt lat="33.85538" lon="77.48213">
        <ele>3913.8</ele>
        <time>2015-09-03T05:54:25Z</time>
      </trkpt>
      <trkpt lat="33.85524" lon="77.48224">
        <ele>3914.4</ele>
        <time>2015-09-03T05:54:49Z</time>
      </trkpt>
      <trkpt lat="33.85522" lon="77.48226">
        <ele>3914.6</ele>
        <time>2015-09-03T05:54:50Z</time>
      </trkpt>
      <trkpt lat="33.85521" lon="77.48231">
        <ele>3914.6</ele>
        <time>2015-09-03T05:54:53Z</time>
      </trkpt>
      <trkpt lat="33.85526" lon="77.48251">
        <ele>3914.4</ele>
        <time>2015-09-03T05:55:04Z</time>
      </trkpt>
      <trkpt lat="33.85544" lon="77.48263">
        <ele>3914.6</ele>
        <time>2015-09-03T05:55:10Z</time>
      </trkpt>
      <trkpt lat="33.85556" lon="77.48281">
        <ele>3915</ele>
        <time>2015-09-03T05:55:17Z</time>
      </trkpt>
      <trkpt lat="33.85552" lon="77.48284">
        <ele>3915</ele>
        <time>2015-09-03T05:55:22Z</time>
      </trkpt>
      <trkpt lat="33.85546" lon="77.48285">
        <ele>3915.2</ele>
        <time>2015-09-03T05:55:24Z</time>
      </trkpt>
      <trkpt lat="33.85518" lon="77.48277">
        <ele>3915.2</ele>
        <time>2015-09-03T05:55:26Z</time>
      </trkpt>
      <trkpt lat="33.85494" lon="77.48271">
        <ele>3915.2</ele>
        <time>2015-09-03T05:55:28Z</time>
      </trkpt>
      <trkpt lat="33.85473" lon="77.48265">
        <ele>3915.2</ele>
        <time>2015-09-03T05:55:31Z</time>
      </trkpt>
      <trkpt lat="33.85454" lon="77.48261">
        <ele>3915.2</ele>
        <time>2015-09-03T05:55:34Z</time>
      </trkpt>
      <trkpt lat="33.85436" lon="77.48269">
        <ele>3915</ele>
        <time>2015-09-03T05:55:46Z</time>
      </trkpt>
      <trkpt lat="33.85422" lon="77.48256">
        <ele>3922.2</ele>
        <time>2015-09-03T05:59:28Z</time>
      </trkpt>
      <trkpt lat="33.85419" lon="77.48253">
        <ele>3923.4</ele>
        <time>2015-09-03T05:59:49Z</time>
      </trkpt>
      <trkpt lat="33.85412" lon="77.48252">
        <ele>3924.4</ele>
        <time>2015-09-03T05:59:59Z</time>
      </trkpt>
      <trkpt lat="33.85389" lon="77.48267">
        <ele>3924.8</ele>
        <time>2015-09-03T06:00:06Z</time>
      </trkpt>
      <trkpt lat="33.85369" lon="77.48284">
        <ele>3925</ele>
        <time>2015-09-03T06:00:08Z</time>
      </trkpt>
      <trkpt lat="33.85343" lon="77.48303">
        <ele>3925</ele>
        <time>2015-09-03T06:00:10Z</time>
      </trkpt>
      <trkpt lat="33.85336" lon="77.48306">
        <ele>3925</ele>
        <time>2015-09-03T06:00:11Z</time>
      </trkpt>
      <trkpt lat="33.85315" lon="77.48316">
        <ele>3925.4</ele>
        <time>2015-09-03T06:00:17Z</time>
      </trkpt>
      <trkpt lat="33.85313" lon="77.48322">
        <ele>3925.4</ele>
        <time>2015-09-03T06:00:18Z</time>
      </trkpt>
      <trkpt lat="33.85294" lon="77.48322">
        <ele>3925.4</ele>
        <time>2015-09-03T06:00:23Z</time>
      </trkpt>
      <trkpt lat="33.85273" lon="77.48323">
        <ele>3925.6</ele>
        <time>2015-09-03T06:00:30Z</time>
      </trkpt>
      <trkpt lat="33.85255" lon="77.4832">
        <ele>3925.8</ele>
        <time>2015-09-03T06:00:35Z</time>
      </trkpt>
      <trkpt lat="33.85236" lon="77.48322">
        <ele>3925.6</ele>
        <time>2015-09-03T06:00:43Z</time>
      </trkpt>
      <trkpt lat="33.85219" lon="77.48329">
        <ele>3926.4</ele>
        <time>2015-09-03T06:00:56Z</time>
      </trkpt>
      <trkpt lat="33.85217" lon="77.48328">
        <ele>3926.4</ele>
        <time>2015-09-03T06:00:57Z</time>
      </trkpt>
      <trkpt lat="33.85205" lon="77.48329">
        <ele>3927.6</ele>
        <time>2015-09-03T06:01:05Z</time>
      </trkpt>
      <trkpt lat="33.85199" lon="77.48326">
        <ele>3928.8</ele>
        <time>2015-09-03T06:01:18Z</time>
      </trkpt>
      <trkpt lat="33.85196" lon="77.48343">
        <ele>3929.8</ele>
        <time>2015-09-03T06:01:32Z</time>
      </trkpt>
      <trkpt lat="33.85195" lon="77.48354">
        <ele>3930.8</ele>
        <time>2015-09-03T06:01:43Z</time>
      </trkpt>
      <trkpt lat="33.85195" lon="77.48355">
        <ele>3930.8</ele>
        <time>2015-09-03T06:01:44Z</time>
      </trkpt>
      <trkpt lat="33.85191" lon="77.48361">
        <ele>3930.8</ele>
        <time>2015-09-03T06:01:49Z</time>
      </trkpt>
      <trkpt lat="33.85177" lon="77.48365">
        <ele>3931.8</ele>
        <time>2015-09-03T06:02:12Z</time>
      </trkpt>
      <trkpt lat="33.85168" lon="77.4837">
        <ele>3932.4</ele>
        <time>2015-09-03T06:02:22Z</time>
      </trkpt>
      <trkpt lat="33.85164" lon="77.4837">
        <ele>3932.4</ele>
        <time>2015-09-03T06:02:27Z</time>
      </trkpt>
      <trkpt lat="33.8516" lon="77.48372">
        <ele>3932.8</ele>
        <time>2015-09-03T06:02:36Z</time>
      </trkpt>
      <trkpt lat="33.85152" lon="77.4839">
        <ele>3933.2</ele>
        <time>2015-09-03T06:02:51Z</time>
      </trkpt>
      <trkpt lat="33.85146" lon="77.48395">
        <ele>3933.6</ele>
        <time>2015-09-03T06:03:00Z</time>
      </trkpt>
      <trkpt lat="33.85145" lon="77.48396">
        <ele>3933.8</ele>
        <time>2015-09-03T06:03:02Z</time>
      </trkpt>
      <trkpt lat="33.85143" lon="77.48403">
        <ele>3935</ele>
        <time>2015-09-03T06:03:09Z</time>
      </trkpt>
      <trkpt lat="33.85137" lon="77.48402">
        <ele>3935.6</ele>
        <time>2015-09-03T06:03:16Z</time>
      </trkpt>
      <trkpt lat="33.85135" lon="77.48402">
        <ele>3936</ele>
        <time>2015-09-03T06:03:19Z</time>
      </trkpt>
      <trkpt lat="33.85134" lon="77.48402">
        <ele>3936</ele>
        <time>2015-09-03T06:03:20Z</time>
      </trkpt>
      <trkpt lat="33.85125" lon="77.4841">
        <ele>3937</ele>
        <time>2015-09-03T06:03:33Z</time>
      </trkpt>
      <trkpt lat="33.85119" lon="77.48414">
        <ele>3937</ele>
        <time>2015-09-03T06:03:37Z</time>
      </trkpt>
      <trkpt lat="33.85108" lon="77.4842">
        <ele>3937.8</ele>
        <time>2015-09-03T06:03:44Z</time>
      </trkpt>
      <trkpt lat="33.85085" lon="77.48435">
        <ele>3938</ele>
        <time>2015-09-03T06:03:52Z</time>
      </trkpt>
      <trkpt lat="33.85065" lon="77.4844">
        <ele>3939</ele>
        <time>2015-09-03T06:04:06Z</time>
      </trkpt>
      <trkpt lat="33.85108" lon="77.48429">
        <ele>3939.4</ele>
        <time>2015-09-03T06:04:16Z</time>
      </trkpt>
      <trkpt lat="33.85106" lon="77.48431">
        <ele>3939.4</ele>
        <time>2015-09-03T06:04:17Z</time>
      </trkpt>
      <trkpt lat="33.85106" lon="77.48432">
        <ele>3939.4</ele>
        <time>2015-09-03T06:04:19Z</time>
      </trkpt>
      <trkpt lat="33.85106" lon="77.48437">
        <ele>3939.4</ele>
        <time>2015-09-03T06:04:25Z</time>
      </trkpt>
      <trkpt lat="33.85092" lon="77.48437">
        <ele>3940.2</ele>
        <time>2015-09-03T06:04:34Z</time>
      </trkpt>
      <trkpt lat="33.85093" lon="77.48442">
        <ele>3940.2</ele>
        <time>2015-09-03T06:04:46Z</time>
      </trkpt>
      <trkpt lat="33.85092" lon="77.48451">
        <ele>3940.2</ele>
        <time>2015-09-03T06:04:59Z</time>
      </trkpt>
      <trkpt lat="33.85088" lon="77.48461">
        <ele>3940.6</ele>
        <time>2015-09-03T06:05:09Z</time>
      </trkpt>
      <trkpt lat="33.85084" lon="77.48469">
        <ele>3940.8</ele>
        <time>2015-09-03T06:05:23Z</time>
      </trkpt>
      <trkpt lat="33.85083" lon="77.48469">
        <ele>3941.2</ele>
        <time>2015-09-03T06:05:29Z</time>
      </trkpt>
      <trkpt lat="33.85084" lon="77.4847">
        <ele>3942.2</ele>
        <time>2015-09-03T06:05:34Z</time>
      </trkpt>
      <trkpt lat="33.8508" lon="77.48466">
        <ele>3941.8</ele>
        <time>2015-09-03T06:05:39Z</time>
      </trkpt>
      <trkpt lat="33.85078" lon="77.48464">
        <ele>3941.6</ele>
        <time>2015-09-03T06:05:42Z</time>
      </trkpt>
      <trkpt lat="33.85065" lon="77.48473">
        <ele>3943</ele>
        <time>2015-09-03T06:06:09Z</time>
      </trkpt>
      <trkpt lat="33.85064" lon="77.48474">
        <ele>3943.2</ele>
        <time>2015-09-03T06:06:12Z</time>
      </trkpt>
      <trkpt lat="33.85064" lon="77.48474">
        <ele>3943.4</ele>
        <time>2015-09-03T06:06:13Z</time>
      </trkpt>
      <trkpt lat="33.85061" lon="77.48478">
        <ele>3944</ele>
        <time>2015-09-03T06:06:17Z</time>
      </trkpt>
      <trkpt lat="33.8506" lon="77.48479">
        <ele>3944</ele>
        <time>2015-09-03T06:06:19Z</time>
      </trkpt>
      <trkpt lat="33.85057" lon="77.48481">
        <ele>3944</ele>
        <time>2015-09-03T06:06:30Z</time>
      </trkpt>
      <trkpt lat="33.8504" lon="77.48491">
        <ele>3943.6</ele>
        <time>2015-09-03T06:06:50Z</time>
      </trkpt>
      <trkpt lat="33.85023" lon="77.48498">
        <ele>3944.2</ele>
        <time>2015-09-03T06:07:09Z</time>
      </trkpt>
      <trkpt lat="33.85015" lon="77.48511">
        <ele>3943.8</ele>
        <time>2015-09-03T06:07:46Z</time>
      </trkpt>
      <trkpt lat="33.8502" lon="77.48512">
        <ele>3943.6</ele>
        <time>2015-09-03T06:08:33Z</time>
      </trkpt>
      <trkpt lat="33.85007" lon="77.48507">
        <ele>3943.4</ele>
        <time>2015-09-03T06:08:44Z</time>
      </trkpt>
      <trkpt lat="33.85007" lon="77.48513">
        <ele>3943.4</ele>
        <time>2015-09-03T06:08:48Z</time>
      </trkpt>
      <trkpt lat="33.85016" lon="77.48513">
        <ele>3943.2</ele>
        <time>2015-09-03T06:09:00Z</time>
      </trkpt>
      <trkpt lat="33.85017" lon="77.48513">
        <ele>3943.4</ele>
        <time>2015-09-03T06:09:03Z</time>
      </trkpt>
      <trkpt lat="33.85009" lon="77.48513">
        <ele>3944.2</ele>
        <time>2015-09-03T06:09:30Z</time>
      </trkpt>
      <trkpt lat="33.85006" lon="77.48521">
        <ele>3942.8</ele>
        <time>2015-09-03T06:10:44Z</time>
      </trkpt>
      <trkpt lat="33.85004" lon="77.48525">
        <ele>3942.4</ele>
        <time>2015-09-03T06:10:46Z</time>
      </trkpt>
      <trkpt lat="33.84998" lon="77.48533">
        <ele>3942.4</ele>
        <time>2015-09-03T06:10:55Z</time>
      </trkpt>
      <trkpt lat="33.84993" lon="77.4854">
        <ele>3941.6</ele>
        <time>2015-09-03T06:11:02Z</time>
      </trkpt>
      <trkpt lat="33.84993" lon="77.48542">
        <ele>3941.6</ele>
        <time>2015-09-03T06:11:04Z</time>
      </trkpt>
      <trkpt lat="33.84993" lon="77.48545">
        <ele>3941.8</ele>
        <time>2015-09-03T06:11:06Z</time>
      </trkpt>
      <trkpt lat="33.84994" lon="77.48552">
        <ele>3941.2</ele>
        <time>2015-09-03T06:11:13Z</time>
      </trkpt>
      <trkpt lat="33.84995" lon="77.48553">
        <ele>3941.2</ele>
        <time>2015-09-03T06:11:14Z</time>
      </trkpt>
      <trkpt lat="33.84991" lon="77.48555">
        <ele>3940.6</ele>
        <time>2015-09-03T06:12:11Z</time>
      </trkpt>
      <trkpt lat="33.84993" lon="77.48557">
        <ele>3940.2</ele>
        <time>2015-09-03T06:12:15Z</time>
      </trkpt>
      <trkpt lat="33.84985" lon="77.48573">
        <ele>3939.2</ele>
        <time>2015-09-03T06:12:32Z</time>
      </trkpt>
      <trkpt lat="33.84985" lon="77.48574">
        <ele>3939</ele>
        <time>2015-09-03T06:12:33Z</time>
      </trkpt>
      <trkpt lat="33.84984" lon="77.48586">
        <ele>3938</ele>
        <time>2015-09-03T06:12:42Z</time>
      </trkpt>
      <trkpt lat="33.84985" lon="77.48592">
        <ele>3936.8</ele>
        <time>2015-09-03T06:12:46Z</time>
      </trkpt>
      <trkpt lat="33.84984" lon="77.486">
        <ele>3936</ele>
        <time>2015-09-03T06:12:52Z</time>
      </trkpt>
      <trkpt lat="33.84982" lon="77.48605">
        <ele>3935.8</ele>
        <time>2015-09-03T06:12:56Z</time>
      </trkpt>
      <trkpt lat="33.84978" lon="77.48627">
        <ele>3935.6</ele>
        <time>2015-09-03T06:13:12Z</time>
      </trkpt>
      <trkpt lat="33.84974" lon="77.48645">
        <ele>3935.6</ele>
        <time>2015-09-03T06:13:26Z</time>
      </trkpt>
      <trkpt lat="33.84971" lon="77.48651">
        <ele>3936</ele>
        <time>2015-09-03T06:13:32Z</time>
      </trkpt>
      <trkpt lat="33.8497" lon="77.48652">
        <ele>3936.2</ele>
        <time>2015-09-03T06:13:34Z</time>
      </trkpt>
      <trkpt lat="33.84969" lon="77.48657">
        <ele>3936.2</ele>
        <time>2015-09-03T06:13:39Z</time>
      </trkpt>
      <trkpt lat="33.84966" lon="77.48657">
        <ele>3937</ele>
        <time>2015-09-03T06:13:47Z</time>
      </trkpt>
      <trkpt lat="33.84973" lon="77.48659">
        <ele>3936.8</ele>
        <time>2015-09-03T06:14:34Z</time>
      </trkpt>
      <trkpt lat="33.84968" lon="77.48659">
        <ele>3937</ele>
        <time>2015-09-03T06:15:14Z</time>
      </trkpt>
      <trkpt lat="33.84965" lon="77.4866">
        <ele>3937</ele>
        <time>2015-09-03T06:15:23Z</time>
      </trkpt>
      <trkpt lat="33.84963" lon="77.48663">
        <ele>3937</ele>
        <time>2015-09-03T06:15:26Z</time>
      </trkpt>
      <trkpt lat="33.8496" lon="77.48667">
        <ele>3937</ele>
        <time>2015-09-03T06:15:30Z</time>
      </trkpt>
      <trkpt lat="33.8496" lon="77.4867">
        <ele>3937</ele>
        <time>2015-09-03T06:15:32Z</time>
      </trkpt>
      <trkpt lat="33.84956" lon="77.48676">
        <ele>3936.8</ele>
        <time>2015-09-03T06:15:38Z</time>
      </trkpt>
      <trkpt lat="33.84951" lon="77.48687">
        <ele>3937.4</ele>
        <time>2015-09-03T06:15:45Z</time>
      </trkpt>
      <trkpt lat="33.84948" lon="77.48696">
        <ele>3937.2</ele>
        <time>2015-09-03T06:15:51Z</time>
      </trkpt>
      <trkpt lat="33.84942" lon="77.48707">
        <ele>3937.2</ele>
        <time>2015-09-03T06:16:01Z</time>
      </trkpt>
      <trkpt lat="33.84935" lon="77.48721">
        <ele>3937</ele>
        <time>2015-09-03T06:16:17Z</time>
      </trkpt>
      <trkpt lat="33.84937" lon="77.48723">
        <ele>3937.2</ele>
        <time>2015-09-03T06:16:20Z</time>
      </trkpt>
      <trkpt lat="33.84929" lon="77.48739">
        <ele>3938</ele>
        <time>2015-09-03T06:16:30Z</time>
      </trkpt>
      <trkpt lat="33.84922" lon="77.48751">
        <ele>3938.2</ele>
        <time>2015-09-03T06:16:40Z</time>
      </trkpt>
      <trkpt lat="33.84914" lon="77.4877">
        <ele>3938.6</ele>
        <time>2015-09-03T06:16:55Z</time>
      </trkpt>
      <trkpt lat="33.84913" lon="77.48772">
        <ele>3938.8</ele>
        <time>2015-09-03T06:16:57Z</time>
      </trkpt>
      <trkpt lat="33.84911" lon="77.48772">
        <ele>3939</ele>
        <time>2015-09-03T06:16:59Z</time>
      </trkpt>
      <trkpt lat="33.84908" lon="77.48773">
        <ele>3939.2</ele>
        <time>2015-09-03T06:17:01Z</time>
      </trkpt>
      <trkpt lat="33.84897" lon="77.48789">
        <ele>3939.4</ele>
        <time>2015-09-03T06:17:16Z</time>
      </trkpt>
      <trkpt lat="33.84885" lon="77.48807">
        <ele>3939.4</ele>
        <time>2015-09-03T06:17:31Z</time>
      </trkpt>
      <trkpt lat="33.84878" lon="77.4882">
        <ele>3940.2</ele>
        <time>2015-09-03T06:17:45Z</time>
      </trkpt>
      <trkpt lat="33.84875" lon="77.48821">
        <ele>3940.4</ele>
        <time>2015-09-03T06:17:48Z</time>
      </trkpt>
      <trkpt lat="33.84873" lon="77.48827">
        <ele>3940.8</ele>
        <time>2015-09-03T06:17:55Z</time>
      </trkpt>
      <trkpt lat="33.84867" lon="77.48831">
        <ele>3941.2</ele>
        <time>2015-09-03T06:18:01Z</time>
      </trkpt>
      <trkpt lat="33.84864" lon="77.48833">
        <ele>3941.4</ele>
        <time>2015-09-03T06:18:04Z</time>
      </trkpt>
      <trkpt lat="33.84855" lon="77.4885">
        <ele>3941.6</ele>
        <time>2015-09-03T06:18:17Z</time>
      </trkpt>
      <trkpt lat="33.84854" lon="77.48852">
        <ele>3941.6</ele>
        <time>2015-09-03T06:18:20Z</time>
      </trkpt>
      <trkpt lat="33.84854" lon="77.48855">
        <ele>3941.6</ele>
        <time>2015-09-03T06:18:22Z</time>
      </trkpt>
      <trkpt lat="33.84852" lon="77.48857">
        <ele>3941.8</ele>
        <time>2015-09-03T06:18:25Z</time>
      </trkpt>
      <trkpt lat="33.8485" lon="77.48859">
        <ele>3941.8</ele>
        <time>2015-09-03T06:18:27Z</time>
      </trkpt>
      <trkpt lat="33.84849" lon="77.48859">
        <ele>3941.8</ele>
        <time>2015-09-03T06:18:29Z</time>
      </trkpt>
      <trkpt lat="33.84847" lon="77.48866">
        <ele>3941.2</ele>
        <time>2015-09-03T06:18:35Z</time>
      </trkpt>
      <trkpt lat="33.84842" lon="77.48872">
        <ele>3941.8</ele>
        <time>2015-09-03T06:18:42Z</time>
      </trkpt>
      <trkpt lat="33.84839" lon="77.48875">
        <ele>3941.8</ele>
        <time>2015-09-03T06:18:47Z</time>
      </trkpt>
      <trkpt lat="33.84838" lon="77.48877">
        <ele>3942</ele>
        <time>2015-09-03T06:18:49Z</time>
      </trkpt>
      <trkpt lat="33.84832" lon="77.48879">
        <ele>3942</ele>
        <time>2015-09-03T06:18:54Z</time>
      </trkpt>
      <trkpt lat="33.84827" lon="77.48886">
        <ele>3942.2</ele>
        <time>2015-09-03T06:19:00Z</time>
      </trkpt>
      <trkpt lat="33.84817" lon="77.48899">
        <ele>3942.4</ele>
        <time>2015-09-03T06:19:14Z</time>
      </trkpt>
      <trkpt lat="33.84808" lon="77.48908">
        <ele>3942.6</ele>
        <time>2015-09-03T06:19:24Z</time>
      </trkpt>
      <trkpt lat="33.84807" lon="77.48909">
        <ele>3942.8</ele>
        <time>2015-09-03T06:19:26Z</time>
      </trkpt>
      <trkpt lat="33.84798" lon="77.48923">
        <ele>3943.4</ele>
        <time>2015-09-03T06:19:40Z</time>
      </trkpt>
      <trkpt lat="33.84795" lon="77.48927">
        <ele>3943.2</ele>
        <time>2015-09-03T06:19:45Z</time>
      </trkpt>
      <trkpt lat="33.84791" lon="77.48934">
        <ele>3943.6</ele>
        <time>2015-09-03T06:19:51Z</time>
      </trkpt>
      <trkpt lat="33.84784" lon="77.48944">
        <ele>3944</ele>
        <time>2015-09-03T06:20:03Z</time>
      </trkpt>
      <trkpt lat="33.8478" lon="77.48949">
        <ele>3944.4</ele>
        <time>2015-09-03T06:20:08Z</time>
      </trkpt>
      <trkpt lat="33.84778" lon="77.48951">
        <ele>3944.6</ele>
        <time>2015-09-03T06:20:11Z</time>
      </trkpt>
      <trkpt lat="33.84772" lon="77.4896">
        <ele>3945.4</ele>
        <time>2015-09-03T06:20:22Z</time>
      </trkpt>
      <trkpt lat="33.84771" lon="77.48972">
        <ele>3946.6</ele>
        <time>2015-09-03T06:20:34Z</time>
      </trkpt>
      <trkpt lat="33.84768" lon="77.48976">
        <ele>3947</ele>
        <time>2015-09-03T06:20:39Z</time>
      </trkpt>
      <trkpt lat="33.84768" lon="77.48979">
        <ele>3947.2</ele>
        <time>2015-09-03T06:20:42Z</time>
      </trkpt>
      <trkpt lat="33.84767" lon="77.48981">
        <ele>3947.4</ele>
        <time>2015-09-03T06:20:44Z</time>
      </trkpt>
      <trkpt lat="33.84767" lon="77.48982">
        <ele>3947.6</ele>
        <time>2015-09-03T06:20:45Z</time>
      </trkpt>
      <trkpt lat="33.84764" lon="77.48997">
        <ele>3947.2</ele>
        <time>2015-09-03T06:20:58Z</time>
      </trkpt>
      <trkpt lat="33.84763" lon="77.49002">
        <ele>3946.4</ele>
        <time>2015-09-03T06:21:02Z</time>
      </trkpt>
      <trkpt lat="33.84758" lon="77.49007">
        <ele>3945.4</ele>
        <time>2015-09-03T06:21:10Z</time>
      </trkpt>
      <trkpt lat="33.84757" lon="77.4901">
        <ele>3945.2</ele>
        <time>2015-09-03T06:21:12Z</time>
      </trkpt>
      <trkpt lat="33.84754" lon="77.49016">
        <ele>3945.4</ele>
        <time>2015-09-03T06:21:17Z</time>
      </trkpt>
      <trkpt lat="33.84748" lon="77.49024">
        <ele>3945.6</ele>
        <time>2015-09-03T06:21:25Z</time>
      </trkpt>
      <trkpt lat="33.84742" lon="77.49043">
        <ele>3946.2</ele>
        <time>2015-09-03T06:21:39Z</time>
      </trkpt>
      <trkpt lat="33.84738" lon="77.49057">
        <ele>3946</ele>
        <time>2015-09-03T06:21:51Z</time>
      </trkpt>
      <trkpt lat="33.84734" lon="77.49057">
        <ele>3946.2</ele>
        <time>2015-09-03T06:21:54Z</time>
      </trkpt>
      <trkpt lat="33.84733" lon="77.49059">
        <ele>3946.2</ele>
        <time>2015-09-03T06:21:56Z</time>
      </trkpt>
      <trkpt lat="33.84732" lon="77.49064">
        <ele>3946.4</ele>
        <time>2015-09-03T06:21:59Z</time>
      </trkpt>
      <trkpt lat="33.84725" lon="77.49067">
        <ele>3946</ele>
        <time>2015-09-03T06:22:05Z</time>
      </trkpt>
      <trkpt lat="33.84719" lon="77.49078">
        <ele>3946.6</ele>
        <time>2015-09-03T06:22:16Z</time>
      </trkpt>
      <trkpt lat="33.84719" lon="77.49082">
        <ele>3946.8</ele>
        <time>2015-09-03T06:22:20Z</time>
      </trkpt>
      <trkpt lat="33.84711" lon="77.49103">
        <ele>3947</ele>
        <time>2015-09-03T06:22:40Z</time>
      </trkpt>
      <trkpt lat="33.84705" lon="77.49106">
        <ele>3947</ele>
        <time>2015-09-03T06:22:45Z</time>
      </trkpt>
      <trkpt lat="33.84695" lon="77.49113">
        <ele>3947.4</ele>
        <time>2015-09-03T06:22:55Z</time>
      </trkpt>
      <trkpt lat="33.84695" lon="77.49124">
        <ele>3947.8</ele>
        <time>2015-09-03T06:23:02Z</time>
      </trkpt>
      <trkpt lat="33.84696" lon="77.49127">
        <ele>3947.8</ele>
        <time>2015-09-03T06:23:05Z</time>
      </trkpt>
      <trkpt lat="33.84697" lon="77.49132">
        <ele>3948.6</ele>
        <time>2015-09-03T06:23:09Z</time>
      </trkpt>
      <trkpt lat="33.84698" lon="77.49138">
        <ele>3949.8</ele>
        <time>2015-09-03T06:23:14Z</time>
      </trkpt>
      <trkpt lat="33.84692" lon="77.49147">
        <ele>3950.8</ele>
        <time>2015-09-03T06:23:26Z</time>
      </trkpt>
      <trkpt lat="33.8469" lon="77.49154">
        <ele>3951.8</ele>
        <time>2015-09-03T06:23:37Z</time>
      </trkpt>
      <trkpt lat="33.84686" lon="77.49162">
        <ele>3953</ele>
        <time>2015-09-03T06:23:48Z</time>
      </trkpt>
      <trkpt lat="33.84681" lon="77.49167">
        <ele>3951.8</ele>
        <time>2015-09-03T06:23:55Z</time>
      </trkpt>
      <trkpt lat="33.84678" lon="77.49167">
        <ele>3951.6</ele>
        <time>2015-09-03T06:23:58Z</time>
      </trkpt>
      <trkpt lat="33.84676" lon="77.49169">
        <ele>3950.6</ele>
        <time>2015-09-03T06:24:02Z</time>
      </trkpt>
      <trkpt lat="33.84665" lon="77.49176">
        <ele>3949.6</ele>
        <time>2015-09-03T06:24:23Z</time>
      </trkpt>
      <trkpt lat="33.84664" lon="77.49177">
        <ele>3949.2</ele>
        <time>2015-09-03T06:24:24Z</time>
      </trkpt>
      <trkpt lat="33.84663" lon="77.4919">
        <ele>3950.6</ele>
        <time>2015-09-03T06:24:42Z</time>
      </trkpt>
      <trkpt lat="33.84666" lon="77.49205">
        <ele>3951.8</ele>
        <time>2015-09-03T06:25:06Z</time>
      </trkpt>
      <trkpt lat="33.84668" lon="77.4921">
        <ele>3952.8</ele>
        <time>2015-09-03T06:25:16Z</time>
      </trkpt>
      <trkpt lat="33.84669" lon="77.4921">
        <ele>3954</ele>
        <time>2015-09-03T06:25:20Z</time>
      </trkpt>
      <trkpt lat="33.84667" lon="77.49212">
        <ele>3955</ele>
        <time>2015-09-03T06:25:28Z</time>
      </trkpt>
      <trkpt lat="33.84666" lon="77.49215">
        <ele>3956</ele>
        <time>2015-09-03T06:25:35Z</time>
      </trkpt>
      <trkpt lat="33.84665" lon="77.49217">
        <ele>3957</ele>
        <time>2015-09-03T06:25:43Z</time>
      </trkpt>
      <trkpt lat="33.84667" lon="77.49218">
        <ele>3958</ele>
        <time>2015-09-03T06:25:53Z</time>
      </trkpt>
      <trkpt lat="33.84663" lon="77.49222">
        <ele>3959</ele>
        <time>2015-09-03T06:26:02Z</time>
      </trkpt>
      <trkpt lat="33.84664" lon="77.49228">
        <ele>3959.8</ele>
        <time>2015-09-03T06:26:08Z</time>
      </trkpt>
      <trkpt lat="33.84663" lon="77.4923">
        <ele>3960</ele>
        <time>2015-09-03T06:26:10Z</time>
      </trkpt>
      <trkpt lat="33.84662" lon="77.49231">
        <ele>3960.2</ele>
        <time>2015-09-03T06:26:12Z</time>
      </trkpt>
      <trkpt lat="33.84658" lon="77.49234">
        <ele>3961.2</ele>
        <time>2015-09-03T06:26:20Z</time>
      </trkpt>
      <trkpt lat="33.84655" lon="77.49235">
        <ele>3961.2</ele>
        <time>2015-09-03T06:26:23Z</time>
      </trkpt>
      <trkpt lat="33.8465" lon="77.4924">
        <ele>3960.6</ele>
        <time>2015-09-03T06:26:31Z</time>
      </trkpt>
      <trkpt lat="33.84649" lon="77.49242">
        <ele>3960.6</ele>
        <time>2015-09-03T06:26:33Z</time>
      </trkpt>
      <trkpt lat="33.84648" lon="77.49246">
        <ele>3960.2</ele>
        <time>2015-09-03T06:26:36Z</time>
      </trkpt>
      <trkpt lat="33.84646" lon="77.49249">
        <ele>3960.2</ele>
        <time>2015-09-03T06:26:41Z</time>
      </trkpt>
      <trkpt lat="33.84635" lon="77.49258">
        <ele>3961.4</ele>
        <time>2015-09-03T06:27:00Z</time>
      </trkpt>
      <trkpt lat="33.84635" lon="77.49272">
        <ele>3962.4</ele>
        <time>2015-09-03T06:27:14Z</time>
      </trkpt>
      <trkpt lat="33.84632" lon="77.49283">
        <ele>3962.6</ele>
        <time>2015-09-03T06:27:26Z</time>
      </trkpt>
      <trkpt lat="33.84629" lon="77.49284">
        <ele>3962.6</ele>
        <time>2015-09-03T06:27:29Z</time>
      </trkpt>
      <trkpt lat="33.84617" lon="77.49282">
        <ele>3963.2</ele>
        <time>2015-09-03T06:27:45Z</time>
      </trkpt>
      <trkpt lat="33.84614" lon="77.49282">
        <ele>3963.2</ele>
        <time>2015-09-03T06:27:47Z</time>
      </trkpt>
      <trkpt lat="33.84612" lon="77.49282">
        <ele>3963.4</ele>
        <time>2015-09-03T06:27:49Z</time>
      </trkpt>
      <trkpt lat="33.84611" lon="77.49282">
        <ele>3963.6</ele>
        <time>2015-09-03T06:27:50Z</time>
      </trkpt>
      <trkpt lat="33.84611" lon="77.49283">
        <ele>3963.8</ele>
        <time>2015-09-03T06:27:51Z</time>
      </trkpt>
      <trkpt lat="33.8461" lon="77.49284">
        <ele>3964.8</ele>
        <time>2015-09-03T06:27:56Z</time>
      </trkpt>
      <trkpt lat="33.84611" lon="77.49291">
        <ele>3965.2</ele>
        <time>2015-09-03T06:28:07Z</time>
      </trkpt>
      <trkpt lat="33.84613" lon="77.49295">
        <ele>3963.6</ele>
        <time>2015-09-03T06:28:31Z</time>
      </trkpt>
      <trkpt lat="33.84614" lon="77.49296">
        <ele>3963.2</ele>
        <time>2015-09-03T06:28:41Z</time>
      </trkpt>
      <trkpt lat="33.84613" lon="77.49298">
        <ele>3962.6</ele>
        <time>2015-09-03T06:28:44Z</time>
      </trkpt>
      <trkpt lat="33.84614" lon="77.49301">
        <ele>3961.6</ele>
        <time>2015-09-03T06:28:51Z</time>
      </trkpt>
      <trkpt lat="33.84618" lon="77.49305">
        <ele>3962.2</ele>
        <time>2015-09-03T06:29:09Z</time>
      </trkpt>
      <trkpt lat="33.84613" lon="77.49308">
        <ele>3961</ele>
        <time>2015-09-03T06:29:14Z</time>
      </trkpt>
      <trkpt lat="33.84606" lon="77.49313">
        <ele>3961.4</ele>
        <time>2015-09-03T06:29:27Z</time>
      </trkpt>
      <trkpt lat="33.84601" lon="77.49314">
        <ele>3962.8</ele>
        <time>2015-09-03T06:29:34Z</time>
      </trkpt>
      <trkpt lat="33.84598" lon="77.49315">
        <ele>3963</ele>
        <time>2015-09-03T06:29:37Z</time>
      </trkpt>
      <trkpt lat="33.84597" lon="77.49317">
        <ele>3963.2</ele>
        <time>2015-09-03T06:29:39Z</time>
      </trkpt>
      <trkpt lat="33.84596" lon="77.49321">
        <ele>3964</ele>
        <time>2015-09-03T06:29:45Z</time>
      </trkpt>
      <trkpt lat="33.84599" lon="77.49339">
        <ele>3965</ele>
        <time>2015-09-03T06:30:09Z</time>
      </trkpt>
      <trkpt lat="33.84589" lon="77.4935">
        <ele>3966</ele>
        <time>2015-09-03T06:30:34Z</time>
      </trkpt>
      <trkpt lat="33.84587" lon="77.49352">
        <ele>3967</ele>
        <time>2015-09-03T06:30:44Z</time>
      </trkpt>
      <trkpt lat="33.84588" lon="77.49353">
        <ele>3968</ele>
        <time>2015-09-03T06:30:50Z</time>
      </trkpt>
      <trkpt lat="33.84586" lon="77.49356">
        <ele>3969.2</ele>
        <time>2015-09-03T06:31:03Z</time>
      </trkpt>
      <trkpt lat="33.84583" lon="77.49357">
        <ele>3970.2</ele>
        <time>2015-09-03T06:31:11Z</time>
      </trkpt>
      <trkpt lat="33.84579" lon="77.49365">
        <ele>3971.4</ele>
        <time>2015-09-03T06:31:33Z</time>
      </trkpt>
      <trkpt lat="33.84577" lon="77.49367">
        <ele>3972.6</ele>
        <time>2015-09-03T06:31:38Z</time>
      </trkpt>
      <trkpt lat="33.84577" lon="77.49371">
        <ele>3973.6</ele>
        <time>2015-09-03T06:31:47Z</time>
      </trkpt>
      <trkpt lat="33.84579" lon="77.49378">
        <ele>3974.6</ele>
        <time>2015-09-03T06:31:58Z</time>
      </trkpt>
      <trkpt lat="33.84576" lon="77.49383">
        <ele>3975.6</ele>
        <time>2015-09-03T06:32:07Z</time>
      </trkpt>
      <trkpt lat="33.84574" lon="77.49389">
        <ele>3976.6</ele>
        <time>2015-09-03T06:32:17Z</time>
      </trkpt>
      <trkpt lat="33.84575" lon="77.49391">
        <ele>3977.6</ele>
        <time>2015-09-03T06:32:21Z</time>
      </trkpt>
      <trkpt lat="33.84578" lon="77.49393">
        <ele>3978.2</ele>
        <time>2015-09-03T06:32:25Z</time>
      </trkpt>
      <trkpt lat="33.84574" lon="77.49397">
        <ele>3978.6</ele>
        <time>2015-09-03T06:32:32Z</time>
      </trkpt>
      <trkpt lat="33.84559" lon="77.49407">
        <ele>3978.4</ele>
        <time>2015-09-03T06:33:08Z</time>
      </trkpt>
      <trkpt lat="33.84555" lon="77.4941">
        <ele>3977.6</ele>
        <time>2015-09-03T06:33:15Z</time>
      </trkpt>
      <trkpt lat="33.84554" lon="77.49411">
        <ele>3977</ele>
        <time>2015-09-03T06:33:17Z</time>
      </trkpt>
      <trkpt lat="33.8455" lon="77.49407">
        <ele>3976.4</ele>
        <time>2015-09-03T06:33:21Z</time>
      </trkpt>
      <trkpt lat="33.8455" lon="77.49407">
        <ele>3976.4</ele>
        <time>2015-09-03T06:33:22Z</time>
      </trkpt>
      <trkpt lat="33.84551" lon="77.49411">
        <ele>3976.2</ele>
        <time>2015-09-03T06:33:26Z</time>
      </trkpt>
      <trkpt lat="33.84548" lon="77.49413">
        <ele>3975.4</ele>
        <time>2015-09-03T06:33:31Z</time>
      </trkpt>
      <trkpt lat="33.84546" lon="77.49414">
        <ele>3974.2</ele>
        <time>2015-09-03T06:33:38Z</time>
      </trkpt>
      <trkpt lat="33.84548" lon="77.49419">
        <ele>3973.2</ele>
        <time>2015-09-03T06:33:55Z</time>
      </trkpt>
      <trkpt lat="33.84542" lon="77.49425">
        <ele>3972.2</ele>
        <time>2015-09-03T06:33:59Z</time>
      </trkpt>
      <trkpt lat="33.84541" lon="77.49426">
        <ele>3972</ele>
        <time>2015-09-03T06:34:00Z</time>
      </trkpt>
      <trkpt lat="33.84538" lon="77.49429">
        <ele>3971.2</ele>
        <time>2015-09-03T06:34:05Z</time>
      </trkpt>
      <trkpt lat="33.84537" lon="77.4943">
        <ele>3971</ele>
        <time>2015-09-03T06:34:06Z</time>
      </trkpt>
      <trkpt lat="33.84534" lon="77.49433">
        <ele>3970.6</ele>
        <time>2015-09-03T06:34:10Z</time>
      </trkpt>
      <trkpt lat="33.84533" lon="77.4944">
        <ele>3970</ele>
        <time>2015-09-03T06:34:14Z</time>
      </trkpt>
      <trkpt lat="33.84533" lon="77.49444">
        <ele>3969.6</ele>
        <time>2015-09-03T06:34:17Z</time>
      </trkpt>
      <trkpt lat="33.84533" lon="77.49445">
        <ele>3969.4</ele>
        <time>2015-09-03T06:34:19Z</time>
      </trkpt>
      <trkpt lat="33.84531" lon="77.49446">
        <ele>3969</ele>
        <time>2015-09-03T06:34:40Z</time>
      </trkpt>
      <trkpt lat="33.84532" lon="77.49456">
        <ele>3968.2</ele>
        <time>2015-09-03T06:35:09Z</time>
      </trkpt>
      <trkpt lat="33.84531" lon="77.49457">
        <ele>3968</ele>
        <time>2015-09-03T06:35:10Z</time>
      </trkpt>
      <trkpt lat="33.84529" lon="77.49458">
        <ele>3967.4</ele>
        <time>2015-09-03T06:35:12Z</time>
      </trkpt>
      <trkpt lat="33.84528" lon="77.4946">
        <ele>3966.8</ele>
        <time>2015-09-03T06:35:14Z</time>
      </trkpt>
      <trkpt lat="33.84525" lon="77.49459">
        <ele>3966.2</ele>
        <time>2015-09-03T06:35:17Z</time>
      </trkpt>
      <trkpt lat="33.84523" lon="77.49459">
        <ele>3965.8</ele>
        <time>2015-09-03T06:35:19Z</time>
      </trkpt>
      <trkpt lat="33.84523" lon="77.49457">
        <ele>3965.8</ele>
        <time>2015-09-03T06:35:20Z</time>
      </trkpt>
      <trkpt lat="33.84517" lon="77.49453">
        <ele>3964.8</ele>
        <time>2015-09-03T06:35:25Z</time>
      </trkpt>
      <trkpt lat="33.84516" lon="77.49452">
        <ele>3964.6</ele>
        <time>2015-09-03T06:35:26Z</time>
      </trkpt>
      <trkpt lat="33.84516" lon="77.49451">
        <ele>3964.4</ele>
        <time>2015-09-03T06:35:27Z</time>
      </trkpt>
      <trkpt lat="33.84512" lon="77.49452">
        <ele>3963.6</ele>
        <time>2015-09-03T06:35:32Z</time>
      </trkpt>
      <trkpt lat="33.8451" lon="77.49452">
        <ele>3963.2</ele>
        <time>2015-09-03T06:35:34Z</time>
      </trkpt>
      <trkpt lat="33.84508" lon="77.49452">
        <ele>3962.4</ele>
        <time>2015-09-03T06:35:36Z</time>
      </trkpt>
      <trkpt lat="33.84507" lon="77.49453">
        <ele>3961.8</ele>
        <time>2015-09-03T06:35:38Z</time>
      </trkpt>
      <trkpt lat="33.84507" lon="77.49454">
        <ele>3961.2</ele>
        <time>2015-09-03T06:35:40Z</time>
      </trkpt>
      <trkpt lat="33.84506" lon="77.49457">
        <ele>3960.2</ele>
        <time>2015-09-03T06:35:51Z</time>
      </trkpt>
      <trkpt lat="33.84504" lon="77.49457">
        <ele>3959</ele>
        <time>2015-09-03T06:35:55Z</time>
      </trkpt>
      <trkpt lat="33.84501" lon="77.49459">
        <ele>3958.6</ele>
        <time>2015-09-03T06:35:59Z</time>
      </trkpt>
      <trkpt lat="33.84496" lon="77.4946">
        <ele>3957.8</ele>
        <time>2015-09-03T06:36:02Z</time>
      </trkpt>
      <trkpt lat="33.84487" lon="77.49467">
        <ele>3957.2</ele>
        <time>2015-09-03T06:36:21Z</time>
      </trkpt>
      <trkpt lat="33.84486" lon="77.49478">
        <ele>3958</ele>
        <time>2015-09-03T06:36:42Z</time>
      </trkpt>
      <trkpt lat="33.84486" lon="77.49481">
        <ele>3958</ele>
        <time>2015-09-03T06:36:46Z</time>
      </trkpt>
      <trkpt lat="33.84484" lon="77.49483">
        <ele>3958</ele>
        <time>2015-09-03T06:36:49Z</time>
      </trkpt>
      <trkpt lat="33.84479" lon="77.49491">
        <ele>3958.2</ele>
        <time>2015-09-03T06:36:59Z</time>
      </trkpt>
      <trkpt lat="33.84478" lon="77.49494">
        <ele>3958.4</ele>
        <time>2015-09-03T06:37:02Z</time>
      </trkpt>
      <trkpt lat="33.84477" lon="77.49499">
        <ele>3959</ele>
        <time>2015-09-03T06:37:06Z</time>
      </trkpt>
      <trkpt lat="33.84471" lon="77.49502">
        <ele>3959.2</ele>
        <time>2015-09-03T06:37:14Z</time>
      </trkpt>
      <trkpt lat="33.84468" lon="77.49505">
        <ele>3959.4</ele>
        <time>2015-09-03T06:37:19Z</time>
      </trkpt>
      <trkpt lat="33.84466" lon="77.49507">
        <ele>3959.6</ele>
        <time>2015-09-03T06:37:22Z</time>
      </trkpt>
      <trkpt lat="33.84463" lon="77.49507">
        <ele>3959.8</ele>
        <time>2015-09-03T06:37:25Z</time>
      </trkpt>
      <trkpt lat="33.84463" lon="77.49509">
        <ele>3960</ele>
        <time>2015-09-03T06:37:26Z</time>
      </trkpt>
      <trkpt lat="33.84462" lon="77.49509">
        <ele>3960.2</ele>
        <time>2015-09-03T06:37:27Z</time>
      </trkpt>
      <trkpt lat="33.8446" lon="77.49515">
        <ele>3961</ele>
        <time>2015-09-03T06:37:34Z</time>
      </trkpt>
      <trkpt lat="33.8446" lon="77.49515">
        <ele>3961</ele>
        <time>2015-09-03T06:37:35Z</time>
      </trkpt>
      <trkpt lat="33.84453" lon="77.49515">
        <ele>3961.8</ele>
        <time>2015-09-03T06:37:44Z</time>
      </trkpt>
      <trkpt lat="33.8445" lon="77.49517">
        <ele>3961.4</ele>
        <time>2015-09-03T06:37:47Z</time>
      </trkpt>
      <trkpt lat="33.84448" lon="77.49518">
        <ele>3961</ele>
        <time>2015-09-03T06:37:49Z</time>
      </trkpt>
      <trkpt lat="33.84444" lon="77.49522">
        <ele>3960.4</ele>
        <time>2015-09-03T06:37:54Z</time>
      </trkpt>
      <trkpt lat="33.84445" lon="77.49527">
        <ele>3960.2</ele>
        <time>2015-09-03T06:37:57Z</time>
      </trkpt>
      <trkpt lat="33.8443" lon="77.49538">
        <ele>3960.6</ele>
        <time>2015-09-03T06:38:17Z</time>
      </trkpt>
      <trkpt lat="33.84429" lon="77.49539">
        <ele>3960.8</ele>
        <time>2015-09-03T06:38:18Z</time>
      </trkpt>
      <trkpt lat="33.84424" lon="77.4955">
        <ele>3961</ele>
        <time>2015-09-03T06:38:28Z</time>
      </trkpt>
      <trkpt lat="33.84424" lon="77.49553">
        <ele>3961</ele>
        <time>2015-09-03T06:38:30Z</time>
      </trkpt>
      <trkpt lat="33.84415" lon="77.49572">
        <ele>3961.2</ele>
        <time>2015-09-03T06:38:44Z</time>
      </trkpt>
      <trkpt lat="33.84402" lon="77.49586">
        <ele>3961.8</ele>
        <time>2015-09-03T06:39:07Z</time>
      </trkpt>
      <trkpt lat="33.844" lon="77.49587">
        <ele>3961.8</ele>
        <time>2015-09-03T06:39:08Z</time>
      </trkpt>
      <trkpt lat="33.84395" lon="77.49595">
        <ele>3962.2</ele>
        <time>2015-09-03T06:39:16Z</time>
      </trkpt>
      <trkpt lat="33.84379" lon="77.49607">
        <ele>3962.6</ele>
        <time>2015-09-03T06:39:32Z</time>
      </trkpt>
      <trkpt lat="33.84377" lon="77.49607">
        <ele>3962.6</ele>
        <time>2015-09-03T06:39:35Z</time>
      </trkpt>
      <trkpt lat="33.84374" lon="77.49617">
        <ele>3962.8</ele>
        <time>2015-09-03T06:39:44Z</time>
      </trkpt>
      <trkpt lat="33.84374" lon="77.49621">
        <ele>3963.2</ele>
        <time>2015-09-03T06:39:47Z</time>
      </trkpt>
      <trkpt lat="33.84374" lon="77.49626">
        <ele>3963.4</ele>
        <time>2015-09-03T06:39:51Z</time>
      </trkpt>
      <trkpt lat="33.84375" lon="77.49628">
        <ele>3963.4</ele>
        <time>2015-09-03T06:39:53Z</time>
      </trkpt>
      <trkpt lat="33.8437" lon="77.49633">
        <ele>3963.6</ele>
        <time>2015-09-03T06:40:00Z</time>
      </trkpt>
      <trkpt lat="33.84367" lon="77.49637">
        <ele>3964.2</ele>
        <time>2015-09-03T06:40:06Z</time>
      </trkpt>
      <trkpt lat="33.84367" lon="77.49638">
        <ele>3964.2</ele>
        <time>2015-09-03T06:40:08Z</time>
      </trkpt>
      <trkpt lat="33.84363" lon="77.49643">
        <ele>3964.4</ele>
        <time>2015-09-03T06:40:14Z</time>
      </trkpt>
      <trkpt lat="33.84362" lon="77.49645">
        <ele>3964.6</ele>
        <time>2015-09-03T06:40:16Z</time>
      </trkpt>
      <trkpt lat="33.84361" lon="77.49647">
        <ele>3964.6</ele>
        <time>2015-09-03T06:40:18Z</time>
      </trkpt>
      <trkpt lat="33.84356" lon="77.49654">
        <ele>3965</ele>
        <time>2015-09-03T06:40:27Z</time>
      </trkpt>
      <trkpt lat="33.84355" lon="77.49656">
        <ele>3965</ele>
        <time>2015-09-03T06:40:29Z</time>
      </trkpt>
      <trkpt lat="33.84354" lon="77.49657">
        <ele>3965.2</ele>
        <time>2015-09-03T06:40:31Z</time>
      </trkpt>
      <trkpt lat="33.84354" lon="77.49659">
        <ele>3965.2</ele>
        <time>2015-09-03T06:40:33Z</time>
      </trkpt>
      <trkpt lat="33.84353" lon="77.49659">
        <ele>3965.2</ele>
        <time>2015-09-03T06:40:34Z</time>
      </trkpt>
      <trkpt lat="33.84352" lon="77.4966">
        <ele>3965.4</ele>
        <time>2015-09-03T06:40:35Z</time>
      </trkpt>
      <trkpt lat="33.84352" lon="77.49661">
        <ele>3965.4</ele>
        <time>2015-09-03T06:40:37Z</time>
      </trkpt>
      <trkpt lat="33.84345" lon="77.49667">
        <ele>3966.4</ele>
        <time>2015-09-03T06:40:52Z</time>
      </trkpt>
      <trkpt lat="33.84341" lon="77.49668">
        <ele>3966.8</ele>
        <time>2015-09-03T06:40:57Z</time>
      </trkpt>
      <trkpt lat="33.8434" lon="77.49668">
        <ele>3967</ele>
        <time>2015-09-03T06:40:59Z</time>
      </trkpt>
      <trkpt lat="33.84337" lon="77.49669">
        <ele>3967</ele>
        <time>2015-09-03T06:41:02Z</time>
      </trkpt>
      <trkpt lat="33.84335" lon="77.4967">
        <ele>3967.2</ele>
        <time>2015-09-03T06:41:05Z</time>
      </trkpt>
      <trkpt lat="33.84334" lon="77.4967">
        <ele>3967.4</ele>
        <time>2015-09-03T06:41:06Z</time>
      </trkpt>
      <trkpt lat="33.84325" lon="77.49672">
        <ele>3967.8</ele>
        <time>2015-09-03T06:41:19Z</time>
      </trkpt>
      <trkpt lat="33.8432" lon="77.49677">
        <ele>3968.2</ele>
        <time>2015-09-03T06:41:26Z</time>
      </trkpt>
      <trkpt lat="33.84317" lon="77.4968">
        <ele>3968.4</ele>
        <time>2015-09-03T06:41:29Z</time>
      </trkpt>
      <trkpt lat="33.84316" lon="77.49682">
        <ele>3968.8</ele>
        <time>2015-09-03T06:41:32Z</time>
      </trkpt>
      <trkpt lat="33.84306" lon="77.49687">
        <ele>3969</ele>
        <time>2015-09-03T06:41:44Z</time>
      </trkpt>
      <trkpt lat="33.84302" lon="77.49692">
        <ele>3969.2</ele>
        <time>2015-09-03T06:41:49Z</time>
      </trkpt>
      <trkpt lat="33.84287" lon="77.49705">
        <ele>3969.4</ele>
        <time>2015-09-03T06:42:08Z</time>
      </trkpt>
      <trkpt lat="33.84278" lon="77.49713">
        <ele>3968.4</ele>
        <time>2015-09-03T06:42:21Z</time>
      </trkpt>
      <trkpt lat="33.84269" lon="77.49731">
        <ele>3968.8</ele>
        <time>2015-09-03T06:42:36Z</time>
      </trkpt>
      <trkpt lat="33.84266" lon="77.49753">
        <ele>3968.6</ele>
        <time>2015-09-03T06:42:52Z</time>
      </trkpt>
      <trkpt lat="33.84265" lon="77.49768">
        <ele>3968.2</ele>
        <time>2015-09-03T06:43:03Z</time>
      </trkpt>
      <trkpt lat="33.84262" lon="77.49774">
        <ele>3968.4</ele>
        <time>2015-09-03T06:43:08Z</time>
      </trkpt>
      <trkpt lat="33.84261" lon="77.49776">
        <ele>3968.4</ele>
        <time>2015-09-03T06:43:10Z</time>
      </trkpt>
      <trkpt lat="33.84259" lon="77.49779">
        <ele>3968.4</ele>
        <time>2015-09-03T06:43:14Z</time>
      </trkpt>
      <trkpt lat="33.84254" lon="77.49787">
        <ele>3968</ele>
        <time>2015-09-03T06:43:26Z</time>
      </trkpt>
      <trkpt lat="33.8425" lon="77.49789">
        <ele>3967.8</ele>
        <time>2015-09-03T06:43:31Z</time>
      </trkpt>
      <trkpt lat="33.84246" lon="77.49794">
        <ele>3967.8</ele>
        <time>2015-09-03T06:43:36Z</time>
      </trkpt>
      <trkpt lat="33.84244" lon="77.49796">
        <ele>3967.8</ele>
        <time>2015-09-03T06:43:39Z</time>
      </trkpt>
      <trkpt lat="33.84242" lon="77.49798">
        <ele>3967.8</ele>
        <time>2015-09-03T06:43:41Z</time>
      </trkpt>
      <trkpt lat="33.84233" lon="77.49806">
        <ele>3967.8</ele>
        <time>2015-09-03T06:43:53Z</time>
      </trkpt>
      <trkpt lat="33.84232" lon="77.49807">
        <ele>3968</ele>
        <time>2015-09-03T06:43:55Z</time>
      </trkpt>
      <trkpt lat="33.8423" lon="77.49809">
        <ele>3968.2</ele>
        <time>2015-09-03T06:43:57Z</time>
      </trkpt>
      <trkpt lat="33.84217" lon="77.49823">
        <ele>3968.4</ele>
        <time>2015-09-03T06:44:17Z</time>
      </trkpt>
      <trkpt lat="33.84213" lon="77.49825">
        <ele>3968.6</ele>
        <time>2015-09-03T06:44:20Z</time>
      </trkpt>
      <trkpt lat="33.84212" lon="77.49826">
        <ele>3968.6</ele>
        <time>2015-09-03T06:44:22Z</time>
      </trkpt>
      <trkpt lat="33.84207" lon="77.49833">
        <ele>3969.4</ele>
        <time>2015-09-03T06:44:30Z</time>
      </trkpt>
      <trkpt lat="33.8419" lon="77.49844">
        <ele>3969.6</ele>
        <time>2015-09-03T06:44:47Z</time>
      </trkpt>
      <trkpt lat="33.84182" lon="77.49848">
        <ele>3969.2</ele>
        <time>2015-09-03T06:44:53Z</time>
      </trkpt>
      <trkpt lat="33.84182" lon="77.49851">
        <ele>3969.6</ele>
        <time>2015-09-03T06:44:56Z</time>
      </trkpt>
      <trkpt lat="33.8418" lon="77.49854">
        <ele>3969.8</ele>
        <time>2015-09-03T06:45:01Z</time>
      </trkpt>
      <trkpt lat="33.84178" lon="77.49857">
        <ele>3969.8</ele>
        <time>2015-09-03T06:45:06Z</time>
      </trkpt>
      <trkpt lat="33.84164" lon="77.49863">
        <ele>3970.2</ele>
        <time>2015-09-03T06:45:19Z</time>
      </trkpt>
      <trkpt lat="33.84162" lon="77.49864">
        <ele>3970.2</ele>
        <time>2015-09-03T06:45:21Z</time>
      </trkpt>
      <trkpt lat="33.84159" lon="77.49867">
        <ele>3970.4</ele>
        <time>2015-09-03T06:45:25Z</time>
      </trkpt>
      <trkpt lat="33.84148" lon="77.49869">
        <ele>3970.4</ele>
        <time>2015-09-03T06:45:47Z</time>
      </trkpt>
      <trkpt lat="33.84141" lon="77.49872">
        <ele>3970.8</ele>
        <time>2015-09-03T06:45:52Z</time>
      </trkpt>
      <trkpt lat="33.84139" lon="77.49872">
        <ele>3970.8</ele>
        <time>2015-09-03T06:45:55Z</time>
      </trkpt>
      <trkpt lat="33.84135" lon="77.49872">
        <ele>3970.8</ele>
        <time>2015-09-03T06:45:58Z</time>
      </trkpt>
      <trkpt lat="33.84123" lon="77.49881">
        <ele>3970.8</ele>
        <time>2015-09-03T06:46:04Z</time>
      </trkpt>
      <trkpt lat="33.84128" lon="77.49878">
        <ele>3970.8</ele>
        <time>2015-09-03T06:46:08Z</time>
      </trkpt>
      <trkpt lat="33.84122" lon="77.49881">
        <ele>3971.4</ele>
        <time>2015-09-03T06:46:13Z</time>
      </trkpt>
      <trkpt lat="33.84117" lon="77.49884">
        <ele>3971.6</ele>
        <time>2015-09-03T06:46:16Z</time>
      </trkpt>
      <trkpt lat="33.84113" lon="77.49887">
        <ele>3971.4</ele>
        <time>2015-09-03T06:46:20Z</time>
      </trkpt>
      <trkpt lat="33.84104" lon="77.49888">
        <ele>3971.6</ele>
        <time>2015-09-03T06:46:27Z</time>
      </trkpt>
      <trkpt lat="33.84099" lon="77.49893">
        <ele>3971.8</ele>
        <time>2015-09-03T06:46:33Z</time>
      </trkpt>
      <trkpt lat="33.84105" lon="77.49891">
        <ele>3972</ele>
        <time>2015-09-03T06:46:37Z</time>
      </trkpt>
      <trkpt lat="33.84103" lon="77.49895">
        <ele>3972</ele>
        <time>2015-09-03T06:46:41Z</time>
      </trkpt>
      <trkpt lat="33.84087" lon="77.499">
        <ele>3971.8</ele>
        <time>2015-09-03T06:46:59Z</time>
      </trkpt>
      <trkpt lat="33.84089" lon="77.49903">
        <ele>3971.6</ele>
        <time>2015-09-03T06:47:05Z</time>
      </trkpt>
      <trkpt lat="33.84075" lon="77.49915">
        <ele>3972.2</ele>
        <time>2015-09-03T06:47:25Z</time>
      </trkpt>
      <trkpt lat="33.84073" lon="77.49916">
        <ele>3972.4</ele>
        <time>2015-09-03T06:47:26Z</time>
      </trkpt>
      <trkpt lat="33.84072" lon="77.49916">
        <ele>3972.8</ele>
        <time>2015-09-03T06:47:28Z</time>
      </trkpt>
      <trkpt lat="33.8407" lon="77.49918">
        <ele>3973</ele>
        <time>2015-09-03T06:47:31Z</time>
      </trkpt>
      <trkpt lat="33.84061" lon="77.49925">
        <ele>3972.8</ele>
        <time>2015-09-03T06:47:41Z</time>
      </trkpt>
      <trkpt lat="33.84059" lon="77.49926">
        <ele>3972.8</ele>
        <time>2015-09-03T06:47:43Z</time>
      </trkpt>
      <trkpt lat="33.84045" lon="77.49928">
        <ele>3972.2</ele>
        <time>2015-09-03T06:47:51Z</time>
      </trkpt>
      <trkpt lat="33.84043" lon="77.49929">
        <ele>3972.2</ele>
        <time>2015-09-03T06:47:54Z</time>
      </trkpt>
      <trkpt lat="33.84042" lon="77.49932">
        <ele>3972.2</ele>
        <time>2015-09-03T06:47:57Z</time>
      </trkpt>
      <trkpt lat="33.84039" lon="77.49937">
        <ele>3972.6</ele>
        <time>2015-09-03T06:48:05Z</time>
      </trkpt>
      <trkpt lat="33.84022" lon="77.49947">
        <ele>3972.4</ele>
        <time>2015-09-03T06:48:17Z</time>
      </trkpt>
      <trkpt lat="33.84022" lon="77.49948">
        <ele>3972.4</ele>
        <time>2015-09-03T06:48:18Z</time>
      </trkpt>
      <trkpt lat="33.84025" lon="77.4995">
        <ele>3972.8</ele>
        <time>2015-09-03T06:48:28Z</time>
      </trkpt>
      <trkpt lat="33.84019" lon="77.49953">
        <ele>3973.2</ele>
        <time>2015-09-03T06:48:34Z</time>
      </trkpt>
      <trkpt lat="33.84021" lon="77.49953">
        <ele>3973.2</ele>
        <time>2015-09-03T06:48:38Z</time>
      </trkpt>
      <trkpt lat="33.84024" lon="77.49953">
        <ele>3973.2</ele>
        <time>2015-09-03T06:48:40Z</time>
      </trkpt>
      <trkpt lat="33.8403" lon="77.49957">
        <ele>3973.2</ele>
        <time>2015-09-03T06:48:43Z</time>
      </trkpt>
      <trkpt lat="33.84032" lon="77.49956">
        <ele>3973.6</ele>
        <time>2015-09-03T06:48:46Z</time>
      </trkpt>
      <trkpt lat="33.84032" lon="77.49958">
        <ele>3974.2</ele>
        <time>2015-09-03T06:48:49Z</time>
      </trkpt>
      <trkpt lat="33.84032" lon="77.49958">
        <ele>3974.6</ele>
        <time>2015-09-03T06:48:50Z</time>
      </trkpt>
      <trkpt lat="33.84022" lon="77.49959">
        <ele>3975.6</ele>
        <time>2015-09-03T06:49:02Z</time>
      </trkpt>
      <trkpt lat="33.84021" lon="77.49959">
        <ele>3975.6</ele>
        <time>2015-09-03T06:49:03Z</time>
      </trkpt>
      <trkpt lat="33.84004" lon="77.49964">
        <ele>3976.6</ele>
        <time>2015-09-03T06:49:23Z</time>
      </trkpt>
      <trkpt lat="33.83998" lon="77.49966">
        <ele>3976.6</ele>
        <time>2015-09-03T06:49:27Z</time>
      </trkpt>
      <trkpt lat="33.83991" lon="77.49971">
        <ele>3976.8</ele>
        <time>2015-09-03T06:49:35Z</time>
      </trkpt>
      <trkpt lat="33.83991" lon="77.49978">
        <ele>3977.4</ele>
        <time>2015-09-03T06:49:43Z</time>
      </trkpt>
      <trkpt lat="33.83989" lon="77.49978">
        <ele>3977.4</ele>
        <time>2015-09-03T06:49:45Z</time>
      </trkpt>
      <trkpt lat="33.83986" lon="77.49983">
        <ele>3977.6</ele>
        <time>2015-09-03T06:49:53Z</time>
      </trkpt>
      <trkpt lat="33.83986" lon="77.49984">
        <ele>3977.8</ele>
        <time>2015-09-03T06:49:54Z</time>
      </trkpt>
      <trkpt lat="33.83987" lon="77.49985">
        <ele>3977.8</ele>
        <time>2015-09-03T06:49:55Z</time>
      </trkpt>
      <trkpt lat="33.83984" lon="77.49986">
        <ele>3978.2</ele>
        <time>2015-09-03T06:49:59Z</time>
      </trkpt>
      <trkpt lat="33.83986" lon="77.49985">
        <ele>3978.2</ele>
        <time>2015-09-03T06:50:01Z</time>
      </trkpt>
      <trkpt lat="33.8399" lon="77.49988">
        <ele>3978</ele>
        <time>2015-09-03T06:50:05Z</time>
      </trkpt>
      <trkpt lat="33.8399" lon="77.4999">
        <ele>3977.8</ele>
        <time>2015-09-03T06:50:07Z</time>
      </trkpt>
      <trkpt lat="33.83975" lon="77.49996">
        <ele>3977.2</ele>
        <time>2015-09-03T06:50:22Z</time>
      </trkpt>
      <trkpt lat="33.83969" lon="77.50001">
        <ele>3977.4</ele>
        <time>2015-09-03T06:50:29Z</time>
      </trkpt>
      <trkpt lat="33.83964" lon="77.50004">
        <ele>3977.8</ele>
        <time>2015-09-03T06:50:33Z</time>
      </trkpt>
      <trkpt lat="33.8396" lon="77.50006">
        <ele>3978</ele>
        <time>2015-09-03T06:50:35Z</time>
      </trkpt>
      <trkpt lat="33.83964" lon="77.50008">
        <ele>3977.8</ele>
        <time>2015-09-03T06:50:40Z</time>
      </trkpt>
      <trkpt lat="33.83966" lon="77.50009">
        <ele>3978.8</ele>
        <time>2015-09-03T06:50:48Z</time>
      </trkpt>
      <trkpt lat="33.83956" lon="77.50009">
        <ele>3978.8</ele>
        <time>2015-09-03T06:50:57Z</time>
      </trkpt>
      <trkpt lat="33.83965" lon="77.50016">
        <ele>3978.8</ele>
        <time>2015-09-03T06:51:01Z</time>
      </trkpt>
      <trkpt lat="33.83962" lon="77.50018">
        <ele>3979</ele>
        <time>2015-09-03T06:51:04Z</time>
      </trkpt>
      <trkpt lat="33.83959" lon="77.50023">
        <ele>3979.6</ele>
        <time>2015-09-03T06:51:12Z</time>
      </trkpt>
      <trkpt lat="33.83959" lon="77.50028">
        <ele>3979.8</ele>
        <time>2015-09-03T06:51:18Z</time>
      </trkpt>
      <trkpt lat="33.83957" lon="77.5003">
        <ele>3980</ele>
        <time>2015-09-03T06:51:21Z</time>
      </trkpt>
      <trkpt lat="33.83962" lon="77.50028">
        <ele>3980</ele>
        <time>2015-09-03T06:51:31Z</time>
      </trkpt>
      <trkpt lat="33.83964" lon="77.50029">
        <ele>3980</ele>
        <time>2015-09-03T06:51:33Z</time>
      </trkpt>
      <trkpt lat="33.83963" lon="77.50031">
        <ele>3979.8</ele>
        <time>2015-09-03T06:51:35Z</time>
      </trkpt>
      <trkpt lat="33.83959" lon="77.50035">
        <ele>3980.8</ele>
        <time>2015-09-03T06:51:45Z</time>
      </trkpt>
      <trkpt lat="33.83956" lon="77.50037">
        <ele>3981</ele>
        <time>2015-09-03T06:51:49Z</time>
      </trkpt>
      <trkpt lat="33.83945" lon="77.50046">
        <ele>3980.4</ele>
        <time>2015-09-03T06:52:01Z</time>
      </trkpt>
      <trkpt lat="33.8394" lon="77.50051">
        <ele>3981.4</ele>
        <time>2015-09-03T06:52:07Z</time>
      </trkpt>
      <trkpt lat="33.83939" lon="77.50053">
        <ele>3981.4</ele>
        <time>2015-09-03T06:52:09Z</time>
      </trkpt>
      <trkpt lat="33.83936" lon="77.50055">
        <ele>3982</ele>
        <time>2015-09-03T06:52:13Z</time>
      </trkpt>
      <trkpt lat="33.83934" lon="77.50057">
        <ele>3982.2</ele>
        <time>2015-09-03T06:52:16Z</time>
      </trkpt>
      <trkpt lat="33.83927" lon="77.50063">
        <ele>3983</ele>
        <time>2015-09-03T06:52:25Z</time>
      </trkpt>
      <trkpt lat="33.83926" lon="77.50063">
        <ele>3983</ele>
        <time>2015-09-03T06:52:26Z</time>
      </trkpt>
      <trkpt lat="33.83923" lon="77.50065">
        <ele>3983.2</ele>
        <time>2015-09-03T06:52:29Z</time>
      </trkpt>
      <trkpt lat="33.83905" lon="77.50073">
        <ele>3983.8</ele>
        <time>2015-09-03T06:52:48Z</time>
      </trkpt>
      <trkpt lat="33.83902" lon="77.50074">
        <ele>3984.2</ele>
        <time>2015-09-03T06:52:51Z</time>
      </trkpt>
      <trkpt lat="33.839" lon="77.50075">
        <ele>3984.4</ele>
        <time>2015-09-03T06:52:53Z</time>
      </trkpt>
      <trkpt lat="33.83895" lon="77.50075">
        <ele>3984.4</ele>
        <time>2015-09-03T06:52:59Z</time>
      </trkpt>
      <trkpt lat="33.83882" lon="77.5008">
        <ele>3985.2</ele>
        <time>2015-09-03T06:53:16Z</time>
      </trkpt>
      <trkpt lat="33.83881" lon="77.50082">
        <ele>3985.2</ele>
        <time>2015-09-03T06:53:18Z</time>
      </trkpt>
      <trkpt lat="33.83878" lon="77.50082">
        <ele>3986.2</ele>
        <time>2015-09-03T06:53:33Z</time>
      </trkpt>
      <trkpt lat="33.83875" lon="77.50083">
        <ele>3987.4</ele>
        <time>2015-09-03T06:53:44Z</time>
      </trkpt>
      <trkpt lat="33.83872" lon="77.50087">
        <ele>3987.2</ele>
        <time>2015-09-03T06:53:50Z</time>
      </trkpt>
      <trkpt lat="33.83869" lon="77.5009">
        <ele>3987.4</ele>
        <time>2015-09-03T06:53:54Z</time>
      </trkpt>
      <trkpt lat="33.83865" lon="77.50095">
        <ele>3987.6</ele>
        <time>2015-09-03T06:54:00Z</time>
      </trkpt>
      <trkpt lat="33.83863" lon="77.50099">
        <ele>3987.8</ele>
        <time>2015-09-03T06:54:03Z</time>
      </trkpt>
      <trkpt lat="33.83863" lon="77.50101">
        <ele>3988.4</ele>
        <time>2015-09-03T06:54:06Z</time>
      </trkpt>
      <trkpt lat="33.83857" lon="77.50108">
        <ele>3989</ele>
        <time>2015-09-03T06:54:16Z</time>
      </trkpt>
      <trkpt lat="33.83858" lon="77.50118">
        <ele>3989.4</ele>
        <time>2015-09-03T06:54:32Z</time>
      </trkpt>
      <trkpt lat="33.83857" lon="77.50126">
        <ele>3990.4</ele>
        <time>2015-09-03T06:55:00Z</time>
      </trkpt>
      <trkpt lat="33.83858" lon="77.50121">
        <ele>3990.6</ele>
        <time>2015-09-03T06:56:20Z</time>
      </trkpt>
      <trkpt lat="33.83853" lon="77.50125">
        <ele>3990.2</ele>
        <time>2015-09-03T06:56:38Z</time>
      </trkpt>
      <trkpt lat="33.83856" lon="77.50123">
        <ele>3989.4</ele>
        <time>2015-09-03T06:57:32Z</time>
      </trkpt>
      <trkpt lat="33.8386" lon="77.50124">
        <ele>3990.6</ele>
        <time>2015-09-03T06:57:47Z</time>
      </trkpt>
      <trkpt lat="33.83855" lon="77.50128">
        <ele>3990.8</ele>
        <time>2015-09-03T06:57:54Z</time>
      </trkpt>
      <trkpt lat="33.83855" lon="77.50125">
        <ele>3990.8</ele>
        <time>2015-09-03T06:57:56Z</time>
      </trkpt>
      <trkpt lat="33.83856" lon="77.50123">
        <ele>3990.8</ele>
        <time>2015-09-03T06:57:58Z</time>
      </trkpt>
      <trkpt lat="33.83855" lon="77.5012">
        <ele>3990.2</ele>
        <time>2015-09-03T06:58:01Z</time>
      </trkpt>
      <trkpt lat="33.83857" lon="77.50118">
        <ele>3989.6</ele>
        <time>2015-09-03T06:58:10Z</time>
      </trkpt>
      <trkpt lat="33.83863" lon="77.50127">
        <ele>3989.6</ele>
        <time>2015-09-03T06:58:20Z</time>
      </trkpt>
      <trkpt lat="33.83861" lon="77.50127">
        <ele>3990.6</ele>
        <time>2015-09-03T06:59:10Z</time>
      </trkpt>
      <trkpt lat="33.83863" lon="77.50125">
        <ele>3990.6</ele>
        <time>2015-09-03T06:59:16Z</time>
      </trkpt>
      <trkpt lat="33.83863" lon="77.50123">
        <ele>3990.4</ele>
        <time>2015-09-03T06:59:19Z</time>
      </trkpt>
      <trkpt lat="33.83851" lon="77.50128">
        <ele>3990.8</ele>
        <time>2015-09-03T06:59:35Z</time>
      </trkpt>
      <trkpt lat="33.83846" lon="77.50132">
        <ele>3991.2</ele>
        <time>2015-09-03T06:59:55Z</time>
      </trkpt>
      <trkpt lat="33.83854" lon="77.50134">
        <ele>3991.2</ele>
        <time>2015-09-03T07:00:02Z</time>
      </trkpt>
      <trkpt lat="33.83855" lon="77.50132">
        <ele>3991.6</ele>
        <time>2015-09-03T07:00:11Z</time>
      </trkpt>
      <trkpt lat="33.83862" lon="77.50126">
        <ele>3991.6</ele>
        <time>2015-09-03T07:00:30Z</time>
      </trkpt>
      <trkpt lat="33.83858" lon="77.50127">
        <ele>3990.6</ele>
        <time>2015-09-03T07:01:36Z</time>
      </trkpt>
      <trkpt lat="33.83856" lon="77.50128">
        <ele>3989.6</ele>
        <time>2015-09-03T07:02:47Z</time>
      </trkpt>
      <trkpt lat="33.83856" lon="77.50128">
        <ele>3990.6</ele>
        <time>2015-09-03T07:05:01Z</time>
      </trkpt>
      <trkpt lat="33.8386" lon="77.50124">
        <ele>3990</ele>
        <time>2015-09-03T07:07:11Z</time>
      </trkpt>
      <trkpt lat="33.83855" lon="77.50126">
        <ele>3989.4</ele>
        <time>2015-09-03T07:07:37Z</time>
      </trkpt>
      <trkpt lat="33.83857" lon="77.50127">
        <ele>3989.6</ele>
        <time>2015-09-03T07:09:54Z</time>
      </trkpt>
      <trkpt lat="33.83861" lon="77.50121">
        <ele>3990.2</ele>
        <time>2015-09-03T07:11:00Z</time>
      </trkpt>
      <trkpt lat="33.83858" lon="77.50117">
        <ele>3988.4</ele>
        <time>2015-09-03T07:11:14Z</time>
      </trkpt>
      <trkpt lat="33.83857" lon="77.50119">
        <ele>3988.8</ele>
        <time>2015-09-03T07:11:34Z</time>
      </trkpt>
      <trkpt lat="33.83857" lon="77.50119">
        <ele>3989.4</ele>
        <time>2015-09-03T07:11:41Z</time>
      </trkpt>
      <trkpt lat="33.83855" lon="77.50126">
        <ele>3989.2</ele>
        <time>2015-09-03T07:11:51Z</time>
      </trkpt>
      <trkpt lat="33.83858" lon="77.50116">
        <ele>3988.4</ele>
        <time>2015-09-03T07:12:27Z</time>
      </trkpt>
      <trkpt lat="33.83859" lon="77.50125">
        <ele>3988.8</ele>
        <time>2015-09-03T07:12:54Z</time>
      </trkpt>
      <trkpt lat="33.83859" lon="77.50124">
        <ele>3988.6</ele>
        <time>2015-09-03T07:12:56Z</time>
      </trkpt>
      <trkpt lat="33.83859" lon="77.50121">
        <ele>3988.6</ele>
        <time>2015-09-03T07:13:21Z</time>
      </trkpt>
      <trkpt lat="33.83859" lon="77.50116">
        <ele>3988.8</ele>
        <time>2015-09-03T07:13:26Z</time>
      </trkpt>
      <trkpt lat="33.83861" lon="77.50118">
        <ele>3988.8</ele>
        <time>2015-09-03T07:13:28Z</time>
      </trkpt>
      <trkpt lat="33.83876" lon="77.50142">
        <ele>3987.2</ele>
        <time>2015-09-03T07:13:42Z</time>
      </trkpt>
      <trkpt lat="33.83872" lon="77.50158">
        <ele>3988.4</ele>
        <time>2015-09-03T07:13:55Z</time>
      </trkpt>
      <trkpt lat="33.83872" lon="77.50158">
        <ele>3988.4</ele>
        <time>2015-09-03T07:13:57Z</time>
      </trkpt>
      <trkpt lat="33.83873" lon="77.50159">
        <ele>3988.6</ele>
        <time>2015-09-03T07:14:00Z</time>
      </trkpt>
      <trkpt lat="33.83864" lon="77.50125">
        <ele>3988.4</ele>
        <time>2015-09-03T07:14:11Z</time>
      </trkpt>
      <trkpt lat="33.83865" lon="77.50125">
        <ele>3988.4</ele>
        <time>2015-09-03T07:14:13Z</time>
      </trkpt>
      <trkpt lat="33.83866" lon="77.50122">
        <ele>3988.8</ele>
        <time>2015-09-03T07:14:16Z</time>
      </trkpt>
      <trkpt lat="33.83866" lon="77.50119">
        <ele>3989</ele>
        <time>2015-09-03T07:14:20Z</time>
      </trkpt>
      <trkpt lat="33.83862" lon="77.5012">
        <ele>3989.4</ele>
        <time>2015-09-03T07:14:31Z</time>
      </trkpt>
      <trkpt lat="33.83857" lon="77.50123">
        <ele>3989.4</ele>
        <time>2015-09-03T07:14:39Z</time>
      </trkpt>
      <trkpt lat="33.83855" lon="77.50128">
        <ele>3989.2</ele>
        <time>2015-09-03T07:15:15Z</time>
      </trkpt>
      <trkpt lat="33.83856" lon="77.50133">
        <ele>3990.4</ele>
        <time>2015-09-03T07:15:23Z</time>
      </trkpt>
      <trkpt lat="33.83857" lon="77.50144">
        <ele>3989.4</ele>
        <time>2015-09-03T07:15:31Z</time>
      </trkpt>
      <trkpt lat="33.83854" lon="77.50142">
        <ele>3989.4</ele>
        <time>2015-09-03T07:17:11Z</time>
      </trkpt>
      <trkpt lat="33.83854" lon="77.50126">
        <ele>3990.4</ele>
        <time>2015-09-03T07:17:34Z</time>
      </trkpt>
      <trkpt lat="33.8384" lon="77.50145">
        <ele>3991.4</ele>
        <time>2015-09-03T07:18:19Z</time>
      </trkpt>
      <trkpt lat="33.83841" lon="77.50134">
        <ele>3992.4</ele>
        <time>2015-09-03T07:18:28Z</time>
      </trkpt>
      <trkpt lat="33.83834" lon="77.50147">
        <ele>3993.4</ele>
        <time>2015-09-03T07:19:27Z</time>
      </trkpt>
      <trkpt lat="33.83846" lon="77.50138">
        <ele>3994.6</ele>
        <time>2015-09-03T07:19:36Z</time>
      </trkpt>
      <trkpt lat="33.8385" lon="77.50132">
        <ele>3995.2</ele>
        <time>2015-09-03T07:19:46Z</time>
      </trkpt>
      <trkpt lat="33.8385" lon="77.50134">
        <ele>3995.2</ele>
        <time>2015-09-03T07:19:48Z</time>
      </trkpt>
      <trkpt lat="33.83849" lon="77.50125">
        <ele>3995.8</ele>
        <time>2015-09-03T07:19:53Z</time>
      </trkpt>
      <trkpt lat="33.83849" lon="77.50121">
        <ele>3996.2</ele>
        <time>2015-09-03T07:19:55Z</time>
      </trkpt>
      <trkpt lat="33.8385" lon="77.5011">
        <ele>3996.2</ele>
        <time>2015-09-03T07:19:59Z</time>
      </trkpt>
      <trkpt lat="33.83859" lon="77.50133">
        <ele>3996.8</ele>
        <time>2015-09-03T07:20:24Z</time>
      </trkpt>
      <trkpt lat="33.83859" lon="77.50128">
        <ele>3997.2</ele>
        <time>2015-09-03T07:20:48Z</time>
      </trkpt>
      <trkpt lat="33.83864" lon="77.50116">
        <ele>3996.8</ele>
        <time>2015-09-03T07:20:57Z</time>
      </trkpt>
      <trkpt lat="33.83875" lon="77.50117">
        <ele>3996.2</ele>
        <time>2015-09-03T07:21:08Z</time>
      </trkpt>
      <trkpt lat="33.83864" lon="77.50125">
        <ele>3995.8</ele>
        <time>2015-09-03T07:21:23Z</time>
      </trkpt>
      <trkpt lat="33.83861" lon="77.50123">
        <ele>3995.6</ele>
        <time>2015-09-03T07:21:24Z</time>
      </trkpt>
      <trkpt lat="33.83855" lon="77.50128">
        <ele>3996</ele>
        <time>2015-09-03T07:22:14Z</time>
      </trkpt>
      <trkpt lat="33.83854" lon="77.50128">
        <ele>3996.8</ele>
        <time>2015-09-03T07:22:54Z</time>
      </trkpt>
      <trkpt lat="33.83857" lon="77.50118">
        <ele>3996.8</ele>
        <time>2015-09-03T07:23:09Z</time>
      </trkpt>
      <trkpt lat="33.83862" lon="77.50118">
        <ele>3997.2</ele>
        <time>2015-09-03T07:23:21Z</time>
      </trkpt>
      <trkpt lat="33.8386" lon="77.50121">
        <ele>3997.2</ele>
        <time>2015-09-03T07:23:24Z</time>
      </trkpt>
      <trkpt lat="33.83854" lon="77.50114">
        <ele>3997.8</ele>
        <time>2015-09-03T07:23:55Z</time>
      </trkpt>
      <trkpt lat="33.83855" lon="77.50159">
        <ele>3997.8</ele>
        <time>2015-09-03T07:24:18Z</time>
      </trkpt>
      <trkpt lat="33.83857" lon="77.50129">
        <ele>3998.6</ele>
        <time>2015-09-03T07:24:26Z</time>
      </trkpt>
      <trkpt lat="33.83858" lon="77.5012">
        <ele>3998.6</ele>
        <time>2015-09-03T07:24:29Z</time>
      </trkpt>
      <trkpt lat="33.83849" lon="77.50126">
        <ele>3997.2</ele>
        <time>2015-09-03T07:25:50Z</time>
      </trkpt>
      <trkpt lat="33.83854" lon="77.50126">
        <ele>3997.6</ele>
        <time>2015-09-03T07:25:59Z</time>
      </trkpt>
      <trkpt lat="33.83855" lon="77.50124">
        <ele>3999</ele>
        <time>2015-09-03T07:27:02Z</time>
      </trkpt>
      <trkpt lat="33.83859" lon="77.50127">
        <ele>3999.4</ele>
        <time>2015-09-03T07:27:31Z</time>
      </trkpt>
      <trkpt lat="33.83857" lon="77.50123">
        <ele>3999.4</ele>
        <time>2015-09-03T07:27:33Z</time>
      </trkpt>
      <trkpt lat="33.83856" lon="77.50128">
        <ele>3999</ele>
        <time>2015-09-03T07:28:37Z</time>
      </trkpt>
      <trkpt lat="33.8386" lon="77.50142">
        <ele>3999.6</ele>
        <time>2015-09-03T07:29:08Z</time>
      </trkpt>
      <trkpt lat="33.83863" lon="77.50137">
        <ele>3999.8</ele>
        <time>2015-09-03T07:29:11Z</time>
      </trkpt>
      <trkpt lat="33.83862" lon="77.50151">
        <ele>4000</ele>
        <time>2015-09-03T07:29:35Z</time>
      </trkpt>
      <trkpt lat="33.83886" lon="77.502">
        <ele>4000</ele>
        <time>2015-09-03T07:29:44Z</time>
      </trkpt>
      <trkpt lat="33.83863" lon="77.50145">
        <ele>4000</ele>
        <time>2015-09-03T07:29:46Z</time>
      </trkpt>
      <trkpt lat="33.83858" lon="77.50133">
        <ele>3999.8</ele>
        <time>2015-09-03T07:29:48Z</time>
      </trkpt>
      <trkpt lat="33.83854" lon="77.50119">
        <ele>3999.8</ele>
        <time>2015-09-03T07:29:51Z</time>
      </trkpt>
      <trkpt lat="33.83854" lon="77.50117">
        <ele>3999.8</ele>
        <time>2015-09-03T07:29:53Z</time>
      </trkpt>
      <trkpt lat="33.83855" lon="77.50117">
        <ele>3999.8</ele>
        <time>2015-09-03T07:29:55Z</time>
      </trkpt>
      <trkpt lat="33.83864" lon="77.50112">
        <ele>4000</ele>
        <time>2015-09-03T07:30:07Z</time>
      </trkpt>
      <trkpt lat="33.83857" lon="77.50119">
        <ele>4000</ele>
        <time>2015-09-03T07:31:39Z</time>
      </trkpt>
      <trkpt lat="33.83855" lon="77.50121">
        <ele>4000.2</ele>
        <time>2015-09-03T07:32:44Z</time>
      </trkpt>
      <trkpt lat="33.83855" lon="77.50124">
        <ele>3999.8</ele>
        <time>2015-09-03T07:33:28Z</time>
      </trkpt>
      <trkpt lat="33.83856" lon="77.50118">
        <ele>4001.2</ele>
        <time>2015-09-03T07:33:54Z</time>
      </trkpt>
      <trkpt lat="33.83853" lon="77.50122">
        <ele>4000.8</ele>
        <time>2015-09-03T07:34:06Z</time>
      </trkpt>
      <trkpt lat="33.83856" lon="77.50123">
        <ele>4001.6</ele>
        <time>2015-09-03T07:34:50Z</time>
      </trkpt>
      <trkpt lat="33.83854" lon="77.5012">
        <ele>4001.8</ele>
        <time>2015-09-03T07:34:54Z</time>
      </trkpt>
      <trkpt lat="33.83853" lon="77.50118">
        <ele>4001.8</ele>
        <time>2015-09-03T07:35:13Z</time>
      </trkpt>
      <trkpt lat="33.83853" lon="77.50124">
        <ele>4002.2</ele>
        <time>2015-09-03T07:35:57Z</time>
      </trkpt>
      <trkpt lat="33.83853" lon="77.50122">
        <ele>4002.4</ele>
        <time>2015-09-03T07:36:56Z</time>
      </trkpt>
      <trkpt lat="33.83853" lon="77.50121">
        <ele>4002.2</ele>
        <time>2015-09-03T07:38:00Z</time>
      </trkpt>
      <trkpt lat="33.83851" lon="77.50119">
        <ele>4002.2</ele>
        <time>2015-09-03T07:38:12Z</time>
      </trkpt>
      <trkpt lat="33.8385" lon="77.50121">
        <ele>4002.2</ele>
        <time>2015-09-03T07:40:05Z</time>
      </trkpt>
      <trkpt lat="33.83858" lon="77.50121">
        <ele>4002.8</ele>
        <time>2015-09-03T07:40:17Z</time>
      </trkpt>
      <trkpt lat="33.83859" lon="77.50122">
        <ele>4003.2</ele>
        <time>2015-09-03T07:40:20Z</time>
      </trkpt>
      <trkpt lat="33.83859" lon="77.50122">
        <ele>4003.2</ele>
        <time>2015-09-03T07:40:21Z</time>
      </trkpt>
      <trkpt lat="33.83857" lon="77.50121">
        <ele>4003</ele>
        <time>2015-09-03T07:40:27Z</time>
      </trkpt>
      <trkpt lat="33.83855" lon="77.50126">
        <ele>4003.2</ele>
        <time>2015-09-03T07:41:19Z</time>
      </trkpt>
      <trkpt lat="33.83854" lon="77.50125">
        <ele>4003.2</ele>
        <time>2015-09-03T07:41:37Z</time>
      </trkpt>
      <trkpt lat="33.83854" lon="77.50123">
        <ele>4003.6</ele>
        <time>2015-09-03T07:42:40Z</time>
      </trkpt>
      <trkpt lat="33.83856" lon="77.50123">
        <ele>4004.2</ele>
        <time>2015-09-03T07:43:27Z</time>
      </trkpt>
      <trkpt lat="33.83855" lon="77.5012">
        <ele>4003.2</ele>
        <time>2015-09-03T07:43:57Z</time>
      </trkpt>
      <trkpt lat="33.83855" lon="77.50119">
        <ele>4003</ele>
        <time>2015-09-03T07:43:59Z</time>
      </trkpt>
      <trkpt lat="33.83844" lon="77.50104">
        <ele>4002</ele>
        <time>2015-09-03T07:44:20Z</time>
      </trkpt>
      <trkpt lat="33.83843" lon="77.50103">
        <ele>4002</ele>
        <time>2015-09-03T07:44:21Z</time>
      </trkpt>
      <trkpt lat="33.83842" lon="77.50103">
        <ele>4002</ele>
        <time>2015-09-03T07:44:22Z</time>
      </trkpt>
      <trkpt lat="33.8384" lon="77.50105">
        <ele>4001.8</ele>
        <time>2015-09-03T07:44:24Z</time>
      </trkpt>
      <trkpt lat="33.83836" lon="77.50107">
        <ele>4001.6</ele>
        <time>2015-09-03T07:44:27Z</time>
      </trkpt>
      <trkpt lat="33.83829" lon="77.50114">
        <ele>4001.8</ele>
        <time>2015-09-03T07:44:33Z</time>
      </trkpt>
      <trkpt lat="33.83827" lon="77.50115">
        <ele>4001.8</ele>
        <time>2015-09-03T07:44:35Z</time>
      </trkpt>
      <trkpt lat="33.83826" lon="77.50116">
        <ele>4001.8</ele>
        <time>2015-09-03T07:44:41Z</time>
      </trkpt>
      <trkpt lat="33.83809" lon="77.50122">
        <ele>4002.2</ele>
        <time>2015-09-03T07:45:02Z</time>
      </trkpt>
      <trkpt lat="33.83808" lon="77.50122">
        <ele>4002.2</ele>
        <time>2015-09-03T07:45:03Z</time>
      </trkpt>
      <trkpt lat="33.83807" lon="77.50123">
        <ele>4001.8</ele>
        <time>2015-09-03T07:45:05Z</time>
      </trkpt>
      <trkpt lat="33.83802" lon="77.50126">
        <ele>4001.8</ele>
        <time>2015-09-03T07:45:11Z</time>
      </trkpt>
      <trkpt lat="33.838" lon="77.50129">
        <ele>4002.2</ele>
        <time>2015-09-03T07:45:16Z</time>
      </trkpt>
      <trkpt lat="33.83788" lon="77.50142">
        <ele>4001.8</ele>
        <time>2015-09-03T07:45:52Z</time>
      </trkpt>
      <trkpt lat="33.83779" lon="77.50153">
        <ele>4003</ele>
        <time>2015-09-03T07:46:11Z</time>
      </trkpt>
      <trkpt lat="33.83778" lon="77.50152">
        <ele>4003</ele>
        <time>2015-09-03T07:46:13Z</time>
      </trkpt>
      <trkpt lat="33.83775" lon="77.50149">
        <ele>4004</ele>
        <time>2015-09-03T07:46:27Z</time>
      </trkpt>
      <trkpt lat="33.83771" lon="77.50149">
        <ele>4005.2</ele>
        <time>2015-09-03T07:46:37Z</time>
      </trkpt>
      <trkpt lat="33.8376" lon="77.50158">
        <ele>4005.2</ele>
        <time>2015-09-03T07:46:50Z</time>
      </trkpt>
      <trkpt lat="33.83754" lon="77.50161">
        <ele>4005.4</ele>
        <time>2015-09-03T07:46:57Z</time>
      </trkpt>
      <trkpt lat="33.8375" lon="77.50162">
        <ele>4005.6</ele>
        <time>2015-09-03T07:47:01Z</time>
      </trkpt>
      <trkpt lat="33.83749" lon="77.50156">
        <ele>4005.4</ele>
        <time>2015-09-03T07:47:05Z</time>
      </trkpt>
      <trkpt lat="33.83745" lon="77.50148">
        <ele>4005.2</ele>
        <time>2015-09-03T07:47:14Z</time>
      </trkpt>
      <trkpt lat="33.83732" lon="77.50145">
        <ele>4004.8</ele>
        <time>2015-09-03T07:47:30Z</time>
      </trkpt>
      <trkpt lat="33.8373" lon="77.50144">
        <ele>4004.8</ele>
        <time>2015-09-03T07:47:33Z</time>
      </trkpt>
      <trkpt lat="33.83731" lon="77.50142">
        <ele>4004.6</ele>
        <time>2015-09-03T07:47:38Z</time>
      </trkpt>
      <trkpt lat="33.83726" lon="77.50141">
        <ele>4004.4</ele>
        <time>2015-09-03T07:47:49Z</time>
      </trkpt>
      <trkpt lat="33.8372" lon="77.50139">
        <ele>4004.2</ele>
        <time>2015-09-03T07:47:56Z</time>
      </trkpt>
      <trkpt lat="33.83715" lon="77.50136">
        <ele>4004</ele>
        <time>2015-09-03T07:48:04Z</time>
      </trkpt>
      <trkpt lat="33.83706" lon="77.50135">
        <ele>4003</ele>
        <time>2015-09-03T07:48:15Z</time>
      </trkpt>
      <trkpt lat="33.83704" lon="77.50134">
        <ele>4002.8</ele>
        <time>2015-09-03T07:48:19Z</time>
      </trkpt>
      <trkpt lat="33.83701" lon="77.50124">
        <ele>4003.4</ele>
        <time>2015-09-03T07:48:31Z</time>
      </trkpt>
      <trkpt lat="33.83696" lon="77.5012">
        <ele>4003</ele>
        <time>2015-09-03T07:48:42Z</time>
      </trkpt>
      <trkpt lat="33.83692" lon="77.50123">
        <ele>4003</ele>
        <time>2015-09-03T07:49:15Z</time>
      </trkpt>
      <trkpt lat="33.83692" lon="77.50122">
        <ele>4003</ele>
        <time>2015-09-03T07:49:17Z</time>
      </trkpt>
      <trkpt lat="33.83679" lon="77.5011">
        <ele>4003.6</ele>
        <time>2015-09-03T07:49:50Z</time>
      </trkpt>
      <trkpt lat="33.83677" lon="77.50108">
        <ele>4003.8</ele>
        <time>2015-09-03T07:49:52Z</time>
      </trkpt>
      <trkpt lat="33.83673" lon="77.50107">
        <ele>4003.8</ele>
        <time>2015-09-03T07:49:55Z</time>
      </trkpt>
      <trkpt lat="33.8366" lon="77.50093">
        <ele>4004</ele>
        <time>2015-09-03T07:50:09Z</time>
      </trkpt>
      <trkpt lat="33.83654" lon="77.50093">
        <ele>4004.2</ele>
        <time>2015-09-03T07:50:15Z</time>
      </trkpt>
      <trkpt lat="33.83648" lon="77.50093">
        <ele>4004.2</ele>
        <time>2015-09-03T07:50:19Z</time>
      </trkpt>
      <trkpt lat="33.83635" lon="77.50092">
        <ele>4005</ele>
        <time>2015-09-03T07:50:32Z</time>
      </trkpt>
      <trkpt lat="33.83621" lon="77.50078">
        <ele>4005.6</ele>
        <time>2015-09-03T07:50:49Z</time>
      </trkpt>
      <trkpt lat="33.83608" lon="77.5007">
        <ele>4006.2</ele>
        <time>2015-09-03T07:51:07Z</time>
      </trkpt>
      <trkpt lat="33.83604" lon="77.50069">
        <ele>4006.2</ele>
        <time>2015-09-03T07:51:11Z</time>
      </trkpt>
      <trkpt lat="33.83602" lon="77.50068">
        <ele>4006.4</ele>
        <time>2015-09-03T07:51:13Z</time>
      </trkpt>
      <trkpt lat="33.83598" lon="77.50065">
        <ele>4006.2</ele>
        <time>2015-09-03T07:51:16Z</time>
      </trkpt>
      <trkpt lat="33.83583" lon="77.50056">
        <ele>4007</ele>
        <time>2015-09-03T07:51:31Z</time>
      </trkpt>
      <trkpt lat="33.8358" lon="77.50055">
        <ele>4007</ele>
        <time>2015-09-03T07:51:34Z</time>
      </trkpt>
      <trkpt lat="33.8358" lon="77.50053">
        <ele>4007.2</ele>
        <time>2015-09-03T07:51:35Z</time>
      </trkpt>
      <trkpt lat="33.83579" lon="77.50053">
        <ele>4007.2</ele>
        <time>2015-09-03T07:51:36Z</time>
      </trkpt>
      <trkpt lat="33.83566" lon="77.50038">
        <ele>4007.8</ele>
        <time>2015-09-03T07:51:52Z</time>
      </trkpt>
      <trkpt lat="33.83563" lon="77.50039">
        <ele>4007.8</ele>
        <time>2015-09-03T07:51:55Z</time>
      </trkpt>
      <trkpt lat="33.8356" lon="77.50038">
        <ele>4007.6</ele>
        <time>2015-09-03T07:51:57Z</time>
      </trkpt>
      <trkpt lat="33.83554" lon="77.50031">
        <ele>4007.6</ele>
        <time>2015-09-03T07:52:05Z</time>
      </trkpt>
      <trkpt lat="33.83552" lon="77.50031">
        <ele>4007.8</ele>
        <time>2015-09-03T07:52:08Z</time>
      </trkpt>
      <trkpt lat="33.83547" lon="77.50031">
        <ele>4008.2</ele>
        <time>2015-09-03T07:52:13Z</time>
      </trkpt>
      <trkpt lat="33.83546" lon="77.50031">
        <ele>4008.2</ele>
        <time>2015-09-03T07:52:14Z</time>
      </trkpt>
      <trkpt lat="33.83533" lon="77.50036">
        <ele>4009</ele>
        <time>2015-09-03T07:52:31Z</time>
      </trkpt>
      <trkpt lat="33.8353" lon="77.50039">
        <ele>4009</ele>
        <time>2015-09-03T07:52:33Z</time>
      </trkpt>
      <trkpt lat="33.83528" lon="77.50041">
        <ele>4009.2</ele>
        <time>2015-09-03T07:52:35Z</time>
      </trkpt>
      <trkpt lat="33.83527" lon="77.50042">
        <ele>4009.2</ele>
        <time>2015-09-03T07:52:36Z</time>
      </trkpt>
      <trkpt lat="33.83524" lon="77.5004">
        <ele>4009.4</ele>
        <time>2015-09-03T07:52:41Z</time>
      </trkpt>
      <trkpt lat="33.83522" lon="77.5004">
        <ele>4009.6</ele>
        <time>2015-09-03T07:52:43Z</time>
      </trkpt>
      <trkpt lat="33.83522" lon="77.5004">
        <ele>4009.6</ele>
        <time>2015-09-03T07:52:44Z</time>
      </trkpt>
      <trkpt lat="33.83522" lon="77.5004">
        <ele>4009.6</ele>
        <time>2015-09-03T07:52:45Z</time>
      </trkpt>
      <trkpt lat="33.83517" lon="77.50043">
        <ele>4009.6</ele>
        <time>2015-09-03T07:52:50Z</time>
      </trkpt>
      <trkpt lat="33.83516" lon="77.50043">
        <ele>4009.4</ele>
        <time>2015-09-03T07:52:52Z</time>
      </trkpt>
      <trkpt lat="33.83512" lon="77.50045">
        <ele>4009.6</ele>
        <time>2015-09-03T07:52:56Z</time>
      </trkpt>
      <trkpt lat="33.8351" lon="77.50045">
        <ele>4009.6</ele>
        <time>2015-09-03T07:52:58Z</time>
      </trkpt>
      <trkpt lat="33.83498" lon="77.50048">
        <ele>4010.2</ele>
        <time>2015-09-03T07:53:11Z</time>
      </trkpt>
      <trkpt lat="33.83497" lon="77.50049">
        <ele>4010.2</ele>
        <time>2015-09-03T07:53:12Z</time>
      </trkpt>
      <trkpt lat="33.83495" lon="77.50049">
        <ele>4010.4</ele>
        <time>2015-09-03T07:53:14Z</time>
      </trkpt>
      <trkpt lat="33.83491" lon="77.5005">
        <ele>4010.6</ele>
        <time>2015-09-03T07:53:18Z</time>
      </trkpt>
      <trkpt lat="33.83489" lon="77.5005">
        <ele>4010.8</ele>
        <time>2015-09-03T07:53:21Z</time>
      </trkpt>
      <trkpt lat="33.83483" lon="77.50051">
        <ele>4010.8</ele>
        <time>2015-09-03T07:53:27Z</time>
      </trkpt>
      <trkpt lat="33.83479" lon="77.50049">
        <ele>4011.2</ele>
        <time>2015-09-03T07:53:31Z</time>
      </trkpt>
      <trkpt lat="33.83478" lon="77.50048">
        <ele>4011.2</ele>
        <time>2015-09-03T07:53:32Z</time>
      </trkpt>
      <trkpt lat="33.83477" lon="77.50049">
        <ele>4011.4</ele>
        <time>2015-09-03T07:53:34Z</time>
      </trkpt>
      <trkpt lat="33.83466" lon="77.50056">
        <ele>4012</ele>
        <time>2015-09-03T07:53:57Z</time>
      </trkpt>
      <trkpt lat="33.83464" lon="77.50057">
        <ele>4012</ele>
        <time>2015-09-03T07:54:00Z</time>
      </trkpt>
      <trkpt lat="33.83461" lon="77.50058">
        <ele>4012.2</ele>
        <time>2015-09-03T07:54:03Z</time>
      </trkpt>
      <trkpt lat="33.83458" lon="77.50061">
        <ele>4012.6</ele>
        <time>2015-09-03T07:54:06Z</time>
      </trkpt>
      <trkpt lat="33.83453" lon="77.50064">
        <ele>4012.8</ele>
        <time>2015-09-03T07:54:12Z</time>
      </trkpt>
      <trkpt lat="33.83448" lon="77.50067">
        <ele>4013.2</ele>
        <time>2015-09-03T07:54:22Z</time>
      </trkpt>
      <trkpt lat="33.83445" lon="77.50072">
        <ele>4013.4</ele>
        <time>2015-09-03T07:54:28Z</time>
      </trkpt>
      <trkpt lat="33.83443" lon="77.50073">
        <ele>4013.4</ele>
        <time>2015-09-03T07:54:30Z</time>
      </trkpt>
      <trkpt lat="33.83434" lon="77.50077">
        <ele>4014</ele>
        <time>2015-09-03T07:54:39Z</time>
      </trkpt>
      <trkpt lat="33.8343" lon="77.50081">
        <ele>4014</ele>
        <time>2015-09-03T07:54:45Z</time>
      </trkpt>
      <trkpt lat="33.83425" lon="77.50083">
        <ele>4014.2</ele>
        <time>2015-09-03T07:54:49Z</time>
      </trkpt>
      <trkpt lat="33.83423" lon="77.50085">
        <ele>4014.2</ele>
        <time>2015-09-03T07:54:51Z</time>
      </trkpt>
      <trkpt lat="33.83422" lon="77.50086">
        <ele>4014.2</ele>
        <time>2015-09-03T07:54:52Z</time>
      </trkpt>
      <trkpt lat="33.83419" lon="77.5009">
        <ele>4014.6</ele>
        <time>2015-09-03T07:54:55Z</time>
      </trkpt>
      <trkpt lat="33.83416" lon="77.50092">
        <ele>4014.8</ele>
        <time>2015-09-03T07:54:58Z</time>
      </trkpt>
      <trkpt lat="33.83408" lon="77.50097">
        <ele>4015.2</ele>
        <time>2015-09-03T07:55:07Z</time>
      </trkpt>
      <trkpt lat="33.83407" lon="77.50097">
        <ele>4015.4</ele>
        <time>2015-09-03T07:55:08Z</time>
      </trkpt>
      <trkpt lat="33.83391" lon="77.501">
        <ele>4016</ele>
        <time>2015-09-03T07:55:22Z</time>
      </trkpt>
      <trkpt lat="33.8339" lon="77.50102">
        <ele>4016.2</ele>
        <time>2015-09-03T07:55:25Z</time>
      </trkpt>
      <trkpt lat="33.83386" lon="77.5011">
        <ele>4016.4</ele>
        <time>2015-09-03T07:55:32Z</time>
      </trkpt>
      <trkpt lat="33.83383" lon="77.50113">
        <ele>4016.4</ele>
        <time>2015-09-03T07:55:37Z</time>
      </trkpt>
      <trkpt lat="33.83382" lon="77.50115">
        <ele>4016.4</ele>
        <time>2015-09-03T07:55:39Z</time>
      </trkpt>
      <trkpt lat="33.8338" lon="77.50117">
        <ele>4016.6</ele>
        <time>2015-09-03T07:55:41Z</time>
      </trkpt>
      <trkpt lat="33.83379" lon="77.50115">
        <ele>4016.6</ele>
        <time>2015-09-03T07:55:43Z</time>
      </trkpt>
      <trkpt lat="33.83374" lon="77.50114">
        <ele>4016.8</ele>
        <time>2015-09-03T07:55:51Z</time>
      </trkpt>
      <trkpt lat="33.83363" lon="77.50108">
        <ele>4017.2</ele>
        <time>2015-09-03T07:56:01Z</time>
      </trkpt>
      <trkpt lat="33.83362" lon="77.50109">
        <ele>4017.2</ele>
        <time>2015-09-03T07:56:03Z</time>
      </trkpt>
      <trkpt lat="33.8336" lon="77.50114">
        <ele>4017.4</ele>
        <time>2015-09-03T07:56:05Z</time>
      </trkpt>
      <trkpt lat="33.83359" lon="77.50119">
        <ele>4017.4</ele>
        <time>2015-09-03T07:56:08Z</time>
      </trkpt>
      <trkpt lat="33.83353" lon="77.50125">
        <ele>4018.4</ele>
        <time>2015-09-03T07:56:19Z</time>
      </trkpt>
      <trkpt lat="33.83352" lon="77.50142">
        <ele>4019.4</ele>
        <time>2015-09-03T07:56:26Z</time>
      </trkpt>
      <trkpt lat="33.83351" lon="77.50142">
        <ele>4019.6</ele>
        <time>2015-09-03T07:56:28Z</time>
      </trkpt>
      <trkpt lat="33.83343" lon="77.50137">
        <ele>4020.4</ele>
        <time>2015-09-03T07:56:40Z</time>
      </trkpt>
      <trkpt lat="33.83341" lon="77.50135">
        <ele>4020.6</ele>
        <time>2015-09-03T07:56:42Z</time>
      </trkpt>
      <trkpt lat="33.8334" lon="77.50132">
        <ele>4021</ele>
        <time>2015-09-03T07:56:44Z</time>
      </trkpt>
      <trkpt lat="33.83341" lon="77.5013">
        <ele>4021.6</ele>
        <time>2015-09-03T07:56:50Z</time>
      </trkpt>
      <trkpt lat="33.83348" lon="77.50133">
        <ele>4022.6</ele>
        <time>2015-09-03T07:57:08Z</time>
      </trkpt>
      <trkpt lat="33.83346" lon="77.5014">
        <ele>4023.6</ele>
        <time>2015-09-03T07:57:18Z</time>
      </trkpt>
      <trkpt lat="33.83347" lon="77.50142">
        <ele>4024</ele>
        <time>2015-09-03T07:57:21Z</time>
      </trkpt>
      <trkpt lat="33.83347" lon="77.50143">
        <ele>4024.6</ele>
        <time>2015-09-03T07:57:26Z</time>
      </trkpt>
      <trkpt lat="33.83355" lon="77.50144">
        <ele>4025.2</ele>
        <time>2015-09-03T07:57:32Z</time>
      </trkpt>
      <trkpt lat="33.83359" lon="77.50143">
        <ele>4025.2</ele>
        <time>2015-09-03T07:57:34Z</time>
      </trkpt>
      <trkpt lat="33.83359" lon="77.50144">
        <ele>4025.4</ele>
        <time>2015-09-03T07:57:37Z</time>
      </trkpt>
      <trkpt lat="33.8336" lon="77.50144">
        <ele>4025.6</ele>
        <time>2015-09-03T07:57:42Z</time>
      </trkpt>
      <trkpt lat="33.83352" lon="77.50144">
        <ele>4026.2</ele>
        <time>2015-09-03T07:57:48Z</time>
      </trkpt>
      <trkpt lat="33.83351" lon="77.50145">
        <ele>4026.8</ele>
        <time>2015-09-03T07:57:52Z</time>
      </trkpt>
      <trkpt lat="33.8335" lon="77.50147">
        <ele>4027.8</ele>
        <time>2015-09-03T07:58:02Z</time>
      </trkpt>
      <trkpt lat="33.83351" lon="77.50148">
        <ele>4028.4</ele>
        <time>2015-09-03T07:58:06Z</time>
      </trkpt>
      <trkpt lat="33.83352" lon="77.50149">
        <ele>4028.8</ele>
        <time>2015-09-03T07:58:13Z</time>
      </trkpt>
      <trkpt lat="33.83351" lon="77.50149">
        <ele>4030</ele>
        <time>2015-09-03T07:58:22Z</time>
      </trkpt>
      <trkpt lat="33.83347" lon="77.50157">
        <ele>4030.8</ele>
        <time>2015-09-03T07:58:34Z</time>
      </trkpt>
      <trkpt lat="33.83346" lon="77.50158">
        <ele>4030.8</ele>
        <time>2015-09-03T07:58:36Z</time>
      </trkpt>
      <trkpt lat="33.83345" lon="77.50159">
        <ele>4031</ele>
        <time>2015-09-03T07:58:38Z</time>
      </trkpt>
      <trkpt lat="33.83347" lon="77.50159">
        <ele>4031.6</ele>
        <time>2015-09-03T07:58:42Z</time>
      </trkpt>
      <trkpt lat="33.83348" lon="77.50159">
        <ele>4032</ele>
        <time>2015-09-03T07:58:44Z</time>
      </trkpt>
      <trkpt lat="33.83339" lon="77.50166">
        <ele>4033</ele>
        <time>2015-09-03T07:58:56Z</time>
      </trkpt>
      <trkpt lat="33.83344" lon="77.50167">
        <ele>4033.8</ele>
        <time>2015-09-03T07:59:03Z</time>
      </trkpt>
      <trkpt lat="33.83345" lon="77.50164">
        <ele>4034</ele>
        <time>2015-09-03T07:59:06Z</time>
      </trkpt>
      <trkpt lat="33.83346" lon="77.50163">
        <ele>4034.2</ele>
        <time>2015-09-03T07:59:07Z</time>
      </trkpt>
      <trkpt lat="33.83349" lon="77.50163">
        <ele>4034.6</ele>
        <time>2015-09-03T07:59:12Z</time>
      </trkpt>
      <trkpt lat="33.8335" lon="77.50162">
        <ele>4035.2</ele>
        <time>2015-09-03T07:59:15Z</time>
      </trkpt>
      <trkpt lat="33.83356" lon="77.50162">
        <ele>4036</ele>
        <time>2015-09-03T07:59:21Z</time>
      </trkpt>
      <trkpt lat="33.8335" lon="77.50173">
        <ele>4036.2</ele>
        <time>2015-09-03T07:59:26Z</time>
      </trkpt>
      <trkpt lat="33.8335" lon="77.50174">
        <ele>4036.2</ele>
        <time>2015-09-03T07:59:28Z</time>
      </trkpt>
      <trkpt lat="33.83348" lon="77.50172">
        <ele>4037.2</ele>
        <time>2015-09-03T07:59:38Z</time>
      </trkpt>
      <trkpt lat="33.83347" lon="77.5017">
        <ele>4037.4</ele>
        <time>2015-09-03T07:59:40Z</time>
      </trkpt>
      <trkpt lat="33.83351" lon="77.50173">
        <ele>4037.6</ele>
        <time>2015-09-03T08:00:00Z</time>
      </trkpt>
      <trkpt lat="33.8335" lon="77.50174">
        <ele>4040.4</ele>
        <time>2015-09-03T08:00:37Z</time>
      </trkpt>
      <trkpt lat="33.8335" lon="77.50173">
        <ele>4040.4</ele>
        <time>2015-09-03T08:00:38Z</time>
      </trkpt>
      <trkpt lat="33.83347" lon="77.5018">
        <ele>4041.6</ele>
        <time>2015-09-03T08:00:46Z</time>
      </trkpt>
      <trkpt lat="33.83348" lon="77.50181">
        <ele>4042.6</ele>
        <time>2015-09-03T08:00:54Z</time>
      </trkpt>
      <trkpt lat="33.83344" lon="77.50181">
        <ele>4043.4</ele>
        <time>2015-09-03T08:01:04Z</time>
      </trkpt>
      <trkpt lat="33.83343" lon="77.50182">
        <ele>4043.6</ele>
        <time>2015-09-03T08:01:06Z</time>
      </trkpt>
      <trkpt lat="33.83342" lon="77.50188">
        <ele>4044.6</ele>
        <time>2015-09-03T08:01:17Z</time>
      </trkpt>
      <trkpt lat="33.83343" lon="77.50192">
        <ele>4045.8</ele>
        <time>2015-09-03T08:01:29Z</time>
      </trkpt>
      <trkpt lat="33.83345" lon="77.50194">
        <ele>4046.8</ele>
        <time>2015-09-03T08:01:37Z</time>
      </trkpt>
      <trkpt lat="33.83345" lon="77.502">
        <ele>4047.8</ele>
        <time>2015-09-03T08:01:48Z</time>
      </trkpt>
      <trkpt lat="33.83345" lon="77.50204">
        <ele>4049</ele>
        <time>2015-09-03T08:01:59Z</time>
      </trkpt>
      <trkpt lat="33.83341" lon="77.50209">
        <ele>4050</ele>
        <time>2015-09-03T08:02:09Z</time>
      </trkpt>
      <trkpt lat="33.8334" lon="77.50214">
        <ele>4051</ele>
        <time>2015-09-03T08:02:17Z</time>
      </trkpt>
      <trkpt lat="33.8334" lon="77.50221">
        <ele>4052</ele>
        <time>2015-09-03T08:03:01Z</time>
      </trkpt>
      <trkpt lat="33.83338" lon="77.50227">
        <ele>4053</ele>
        <time>2015-09-03T08:03:11Z</time>
      </trkpt>
      <trkpt lat="33.83336" lon="77.50235">
        <ele>4054.2</ele>
        <time>2015-09-03T08:03:24Z</time>
      </trkpt>
      <trkpt lat="33.83334" lon="77.50243">
        <ele>4055.2</ele>
        <time>2015-09-03T08:03:35Z</time>
      </trkpt>
      <trkpt lat="33.83333" lon="77.50248">
        <ele>4056.2</ele>
        <time>2015-09-03T08:03:45Z</time>
      </trkpt>
      <trkpt lat="33.83334" lon="77.50252">
        <ele>4057.2</ele>
        <time>2015-09-03T08:04:00Z</time>
      </trkpt>
      <trkpt lat="33.83332" lon="77.50255">
        <ele>4058.2</ele>
        <time>2015-09-03T08:04:10Z</time>
      </trkpt>
      <trkpt lat="33.83329" lon="77.50264">
        <ele>4059.4</ele>
        <time>2015-09-03T08:04:25Z</time>
      </trkpt>
      <trkpt lat="33.83325" lon="77.50276">
        <ele>4060.4</ele>
        <time>2015-09-03T08:04:42Z</time>
      </trkpt>
      <trkpt lat="33.83321" lon="77.50288">
        <ele>4061.4</ele>
        <time>2015-09-03T08:05:01Z</time>
      </trkpt>
      <trkpt lat="33.83316" lon="77.50294">
        <ele>4062.4</ele>
        <time>2015-09-03T08:05:14Z</time>
      </trkpt>
      <trkpt lat="33.83311" lon="77.50304">
        <ele>4063</ele>
        <time>2015-09-03T08:05:26Z</time>
      </trkpt>
      <trkpt lat="33.83307" lon="77.50308">
        <ele>4063.6</ele>
        <time>2015-09-03T08:05:33Z</time>
      </trkpt>
      <trkpt lat="33.833" lon="77.50313">
        <ele>4064.6</ele>
        <time>2015-09-03T08:05:47Z</time>
      </trkpt>
      <trkpt lat="33.83298" lon="77.50326">
        <ele>4065.6</ele>
        <time>2015-09-03T08:06:05Z</time>
      </trkpt>
      <trkpt lat="33.83293" lon="77.50339">
        <ele>4066.8</ele>
        <time>2015-09-03T08:06:23Z</time>
      </trkpt>
      <trkpt lat="33.83292" lon="77.50341">
        <ele>4067.2</ele>
        <time>2015-09-03T08:06:25Z</time>
      </trkpt>
      <trkpt lat="33.83286" lon="77.50351">
        <ele>4067.8</ele>
        <time>2015-09-03T08:06:37Z</time>
      </trkpt>
      <trkpt lat="33.83285" lon="77.50352">
        <ele>4067.8</ele>
        <time>2015-09-03T08:06:40Z</time>
      </trkpt>
      <trkpt lat="33.83277" lon="77.50369">
        <ele>4068.8</ele>
        <time>2015-09-03T08:07:00Z</time>
      </trkpt>
      <trkpt lat="33.83277" lon="77.50372">
        <ele>4069</ele>
        <time>2015-09-03T08:07:02Z</time>
      </trkpt>
      <trkpt lat="33.83277" lon="77.50374">
        <ele>4069.4</ele>
        <time>2015-09-03T08:07:05Z</time>
      </trkpt>
      <trkpt lat="33.83276" lon="77.50378">
        <ele>4069.8</ele>
        <time>2015-09-03T08:07:17Z</time>
      </trkpt>
      <trkpt lat="33.83274" lon="77.50392">
        <ele>4070</ele>
        <time>2015-09-03T08:07:29Z</time>
      </trkpt>
      <trkpt lat="33.83274" lon="77.50396">
        <ele>4070.2</ele>
        <time>2015-09-03T08:07:33Z</time>
      </trkpt>
      <trkpt lat="33.83271" lon="77.50395">
        <ele>4070.2</ele>
        <time>2015-09-03T08:07:46Z</time>
      </trkpt>
      <trkpt lat="33.83268" lon="77.50392">
        <ele>4070.2</ele>
        <time>2015-09-03T08:07:49Z</time>
      </trkpt>
      <trkpt lat="33.83266" lon="77.50393">
        <ele>4070</ele>
        <time>2015-09-03T08:07:51Z</time>
      </trkpt>
      <trkpt lat="33.83261" lon="77.50393">
        <ele>4069.2</ele>
        <time>2015-09-03T08:07:56Z</time>
      </trkpt>
      <trkpt lat="33.8326" lon="77.50396">
        <ele>4069</ele>
        <time>2015-09-03T08:07:59Z</time>
      </trkpt>
      <trkpt lat="33.8326" lon="77.50397">
        <ele>4068.8</ele>
        <time>2015-09-03T08:08:00Z</time>
      </trkpt>
      <trkpt lat="33.83258" lon="77.50402">
        <ele>4068.6</ele>
        <time>2015-09-03T08:08:03Z</time>
      </trkpt>
      <trkpt lat="33.83254" lon="77.50411">
        <ele>4067.8</ele>
        <time>2015-09-03T08:08:11Z</time>
      </trkpt>
      <trkpt lat="33.83254" lon="77.50412">
        <ele>4067.8</ele>
        <time>2015-09-03T08:08:12Z</time>
      </trkpt>
      <trkpt lat="33.83254" lon="77.50416">
        <ele>4067.6</ele>
        <time>2015-09-03T08:08:15Z</time>
      </trkpt>
      <trkpt lat="33.83252" lon="77.50419">
        <ele>4067.6</ele>
        <time>2015-09-03T08:08:18Z</time>
      </trkpt>
      <trkpt lat="33.83251" lon="77.50421">
        <ele>4067.4</ele>
        <time>2015-09-03T08:08:20Z</time>
      </trkpt>
      <trkpt lat="33.83251" lon="77.50425">
        <ele>4067.2</ele>
        <time>2015-09-03T08:08:23Z</time>
      </trkpt>
      <trkpt lat="33.8325" lon="77.50431">
        <ele>4067.4</ele>
        <time>2015-09-03T08:08:27Z</time>
      </trkpt>
      <trkpt lat="33.83255" lon="77.5045">
        <ele>4066.6</ele>
        <time>2015-09-03T08:08:49Z</time>
      </trkpt>
      <trkpt lat="33.83253" lon="77.50454">
        <ele>4066.4</ele>
        <time>2015-09-03T08:08:52Z</time>
      </trkpt>
      <trkpt lat="33.83241" lon="77.50469">
        <ele>4067</ele>
        <time>2015-09-03T08:09:07Z</time>
      </trkpt>
      <trkpt lat="33.83238" lon="77.50477">
        <ele>4067.2</ele>
        <time>2015-09-03T08:09:13Z</time>
      </trkpt>
      <trkpt lat="33.83237" lon="77.50491">
        <ele>4067.6</ele>
        <time>2015-09-03T08:09:26Z</time>
      </trkpt>
      <trkpt lat="33.83234" lon="77.50499">
        <ele>4067.6</ele>
        <time>2015-09-03T08:09:33Z</time>
      </trkpt>
      <trkpt lat="33.83228" lon="77.50515">
        <ele>4067</ele>
        <time>2015-09-03T08:09:46Z</time>
      </trkpt>
      <trkpt lat="33.83226" lon="77.50525">
        <ele>4067</ele>
        <time>2015-09-03T08:09:56Z</time>
      </trkpt>
      <trkpt lat="33.83224" lon="77.50529">
        <ele>4066.6</ele>
        <time>2015-09-03T08:10:02Z</time>
      </trkpt>
      <trkpt lat="33.8322" lon="77.50536">
        <ele>4066.2</ele>
        <time>2015-09-03T08:10:10Z</time>
      </trkpt>
      <trkpt lat="33.83218" lon="77.50544">
        <ele>4065.6</ele>
        <time>2015-09-03T08:10:16Z</time>
      </trkpt>
      <trkpt lat="33.83216" lon="77.5055">
        <ele>4065.4</ele>
        <time>2015-09-03T08:10:21Z</time>
      </trkpt>
      <trkpt lat="33.83215" lon="77.50552">
        <ele>4065.2</ele>
        <time>2015-09-03T08:10:23Z</time>
      </trkpt>
      <trkpt lat="33.83213" lon="77.50554">
        <ele>4065.2</ele>
        <time>2015-09-03T08:10:26Z</time>
      </trkpt>
      <trkpt lat="33.8321" lon="77.5056">
        <ele>4065.8</ele>
        <time>2015-09-03T08:10:32Z</time>
      </trkpt>
      <trkpt lat="33.83207" lon="77.50565">
        <ele>4066</ele>
        <time>2015-09-03T08:10:37Z</time>
      </trkpt>
      <trkpt lat="33.83208" lon="77.50578">
        <ele>4066</ele>
        <time>2015-09-03T08:10:49Z</time>
      </trkpt>
      <trkpt lat="33.8321" lon="77.5058">
        <ele>4066.2</ele>
        <time>2015-09-03T08:10:51Z</time>
      </trkpt>
      <trkpt lat="33.83209" lon="77.50582">
        <ele>4066.8</ele>
        <time>2015-09-03T08:10:54Z</time>
      </trkpt>
      <trkpt lat="33.83209" lon="77.50589">
        <ele>4067.2</ele>
        <time>2015-09-03T08:11:01Z</time>
      </trkpt>
      <trkpt lat="33.83209" lon="77.50595">
        <ele>4066.6</ele>
        <time>2015-09-03T08:11:08Z</time>
      </trkpt>
      <trkpt lat="33.83204" lon="77.50611">
        <ele>4067</ele>
        <time>2015-09-03T08:11:24Z</time>
      </trkpt>
      <trkpt lat="33.83203" lon="77.50626">
        <ele>4066.4</ele>
        <time>2015-09-03T08:11:36Z</time>
      </trkpt>
      <trkpt lat="33.83203" lon="77.50628">
        <ele>4066.4</ele>
        <time>2015-09-03T08:11:38Z</time>
      </trkpt>
      <trkpt lat="33.83203" lon="77.50635">
        <ele>4066.4</ele>
        <time>2015-09-03T08:11:43Z</time>
      </trkpt>
      <trkpt lat="33.83202" lon="77.50639">
        <ele>4066.4</ele>
        <time>2015-09-03T08:11:46Z</time>
      </trkpt>
      <trkpt lat="33.83197" lon="77.50644">
        <ele>4066.8</ele>
        <time>2015-09-03T08:11:53Z</time>
      </trkpt>
      <trkpt lat="33.83191" lon="77.50663">
        <ele>4065.6</ele>
        <time>2015-09-03T08:12:10Z</time>
      </trkpt>
      <trkpt lat="33.83192" lon="77.50676">
        <ele>4064.6</ele>
        <time>2015-09-03T08:12:20Z</time>
      </trkpt>
      <trkpt lat="33.83192" lon="77.50689">
        <ele>4063.6</ele>
        <time>2015-09-03T08:12:27Z</time>
      </trkpt>
      <trkpt lat="33.83192" lon="77.50693">
        <ele>4063.4</ele>
        <time>2015-09-03T08:12:30Z</time>
      </trkpt>
      <trkpt lat="33.83188" lon="77.507">
        <ele>4062.4</ele>
        <time>2015-09-03T08:12:40Z</time>
      </trkpt>
      <trkpt lat="33.83186" lon="77.50706">
        <ele>4061</ele>
        <time>2015-09-03T08:12:45Z</time>
      </trkpt>
      <trkpt lat="33.83178" lon="77.50714">
        <ele>4060.4</ele>
        <time>2015-09-03T08:12:54Z</time>
      </trkpt>
      <trkpt lat="33.83173" lon="77.50717">
        <ele>4060</ele>
        <time>2015-09-03T08:13:00Z</time>
      </trkpt>
      <trkpt lat="33.83171" lon="77.50717">
        <ele>4059.4</ele>
        <time>2015-09-03T08:13:03Z</time>
      </trkpt>
      <trkpt lat="33.8317" lon="77.50716">
        <ele>4059.4</ele>
        <time>2015-09-03T08:13:04Z</time>
      </trkpt>
      <trkpt lat="33.83165" lon="77.50718">
        <ele>4059</ele>
        <time>2015-09-03T08:13:10Z</time>
      </trkpt>
      <trkpt lat="33.83164" lon="77.5072">
        <ele>4058.8</ele>
        <time>2015-09-03T08:13:11Z</time>
      </trkpt>
      <trkpt lat="33.8316" lon="77.50723">
        <ele>4058.6</ele>
        <time>2015-09-03T08:13:15Z</time>
      </trkpt>
      <trkpt lat="33.83155" lon="77.50718">
        <ele>4058.2</ele>
        <time>2015-09-03T08:13:20Z</time>
      </trkpt>
      <trkpt lat="33.83147" lon="77.50709">
        <ele>4059</ele>
        <time>2015-09-03T08:13:34Z</time>
      </trkpt>
      <trkpt lat="33.8315" lon="77.5071">
        <ele>4059.4</ele>
        <time>2015-09-03T08:13:47Z</time>
      </trkpt>
      <trkpt lat="33.83149" lon="77.50711">
        <ele>4059.4</ele>
        <time>2015-09-03T08:13:51Z</time>
      </trkpt>
      <trkpt lat="33.83146" lon="77.50714">
        <ele>4059.8</ele>
        <time>2015-09-03T08:13:55Z</time>
      </trkpt>
      <trkpt lat="33.83143" lon="77.50715">
        <ele>4060</ele>
        <time>2015-09-03T08:13:57Z</time>
      </trkpt>
      <trkpt lat="33.83142" lon="77.50716">
        <ele>4060</ele>
        <time>2015-09-03T08:13:58Z</time>
      </trkpt>
      <trkpt lat="33.83138" lon="77.50709">
        <ele>4061</ele>
        <time>2015-09-03T08:14:08Z</time>
      </trkpt>
      <trkpt lat="33.83137" lon="77.50715">
        <ele>4062</ele>
        <time>2015-09-03T08:14:16Z</time>
      </trkpt>
      <trkpt lat="33.83133" lon="77.50721">
        <ele>4063</ele>
        <time>2015-09-03T08:14:25Z</time>
      </trkpt>
      <trkpt lat="33.83131" lon="77.50721">
        <ele>4064.2</ele>
        <time>2015-09-03T08:14:32Z</time>
      </trkpt>
      <trkpt lat="33.83128" lon="77.50724">
        <ele>4065.2</ele>
        <time>2015-09-03T08:14:41Z</time>
      </trkpt>
      <trkpt lat="33.8313" lon="77.50725">
        <ele>4066.2</ele>
        <time>2015-09-03T08:14:47Z</time>
      </trkpt>
      <trkpt lat="33.83125" lon="77.50719">
        <ele>4066.4</ele>
        <time>2015-09-03T08:14:56Z</time>
      </trkpt>
      <trkpt lat="33.8313" lon="77.50728">
        <ele>4067.4</ele>
        <time>2015-09-03T08:15:13Z</time>
      </trkpt>
      <trkpt lat="33.83131" lon="77.50732">
        <ele>4068.4</ele>
        <time>2015-09-03T08:15:23Z</time>
      </trkpt>
      <trkpt lat="33.83132" lon="77.50732">
        <ele>4069.4</ele>
        <time>2015-09-03T08:15:35Z</time>
      </trkpt>
      <trkpt lat="33.83131" lon="77.50735">
        <ele>4070.6</ele>
        <time>2015-09-03T08:15:43Z</time>
      </trkpt>
      <trkpt lat="33.83126" lon="77.50744">
        <ele>4071.2</ele>
        <time>2015-09-03T08:16:00Z</time>
      </trkpt>
      <trkpt lat="33.83126" lon="77.50745">
        <ele>4071.2</ele>
        <time>2015-09-03T08:16:02Z</time>
      </trkpt>
      <trkpt lat="33.83127" lon="77.50747">
        <ele>4071.6</ele>
        <time>2015-09-03T08:16:05Z</time>
      </trkpt>
      <trkpt lat="33.8313" lon="77.5075">
        <ele>4072.6</ele>
        <time>2015-09-03T08:16:12Z</time>
      </trkpt>
      <trkpt lat="33.83128" lon="77.50756">
        <ele>4073.8</ele>
        <time>2015-09-03T08:16:23Z</time>
      </trkpt>
      <trkpt lat="33.83126" lon="77.50758">
        <ele>4074.8</ele>
        <time>2015-09-03T08:16:34Z</time>
      </trkpt>
      <trkpt lat="33.83126" lon="77.50758">
        <ele>4075.8</ele>
        <time>2015-09-03T08:16:41Z</time>
      </trkpt>
      <trkpt lat="33.83121" lon="77.50771">
        <ele>4076.8</ele>
        <time>2015-09-03T08:17:09Z</time>
      </trkpt>
      <trkpt lat="33.83118" lon="77.50779">
        <ele>4077.6</ele>
        <time>2015-09-03T08:17:19Z</time>
      </trkpt>
      <trkpt lat="33.83105" lon="77.50787">
        <ele>4077</ele>
        <time>2015-09-03T08:17:38Z</time>
      </trkpt>
      <trkpt lat="33.83102" lon="77.50786">
        <ele>4077</ele>
        <time>2015-09-03T08:17:41Z</time>
      </trkpt>
      <trkpt lat="33.83098" lon="77.50787">
        <ele>4077.6</ele>
        <time>2015-09-03T08:17:47Z</time>
      </trkpt>
      <trkpt lat="33.83097" lon="77.5079">
        <ele>4078</ele>
        <time>2015-09-03T08:17:49Z</time>
      </trkpt>
      <trkpt lat="33.83083" lon="77.50807">
        <ele>4078.2</ele>
        <time>2015-09-03T08:18:08Z</time>
      </trkpt>
      <trkpt lat="33.83081" lon="77.50815">
        <ele>4078.2</ele>
        <time>2015-09-03T08:18:11Z</time>
      </trkpt>
      <trkpt lat="33.83078" lon="77.50821">
        <ele>4078.6</ele>
        <time>2015-09-03T08:18:19Z</time>
      </trkpt>
      <trkpt lat="33.83075" lon="77.50823">
        <ele>4079</ele>
        <time>2015-09-03T08:18:24Z</time>
      </trkpt>
      <trkpt lat="33.83067" lon="77.5083">
        <ele>4078.6</ele>
        <time>2015-09-03T08:18:36Z</time>
      </trkpt>
      <trkpt lat="33.83061" lon="77.50834">
        <ele>4078.4</ele>
        <time>2015-09-03T08:18:42Z</time>
      </trkpt>
      <trkpt lat="33.83055" lon="77.50839">
        <ele>4078.2</ele>
        <time>2015-09-03T08:18:50Z</time>
      </trkpt>
      <trkpt lat="33.83054" lon="77.50841">
        <ele>4078</ele>
        <time>2015-09-03T08:18:52Z</time>
      </trkpt>
      <trkpt lat="33.83057" lon="77.50846">
        <ele>4078</ele>
        <time>2015-09-03T08:19:01Z</time>
      </trkpt>
      <trkpt lat="33.83049" lon="77.50838">
        <ele>4078</ele>
        <time>2015-09-03T08:19:04Z</time>
      </trkpt>
      <trkpt lat="33.83046" lon="77.50841">
        <ele>4077.8</ele>
        <time>2015-09-03T08:19:07Z</time>
      </trkpt>
      <trkpt lat="33.83044" lon="77.50843">
        <ele>4077.8</ele>
        <time>2015-09-03T08:19:09Z</time>
      </trkpt>
      <trkpt lat="33.83043" lon="77.5085">
        <ele>4077.6</ele>
        <time>2015-09-03T08:19:13Z</time>
      </trkpt>
      <trkpt lat="33.83042" lon="77.50854">
        <ele>4077.2</ele>
        <time>2015-09-03T08:19:16Z</time>
      </trkpt>
      <trkpt lat="33.83041" lon="77.50856">
        <ele>4077</ele>
        <time>2015-09-03T08:19:18Z</time>
      </trkpt>
      <trkpt lat="33.83031" lon="77.50861">
        <ele>4076.6</ele>
        <time>2015-09-03T08:19:29Z</time>
      </trkpt>
      <trkpt lat="33.83026" lon="77.5087">
        <ele>4077.6</ele>
        <time>2015-09-03T08:19:38Z</time>
      </trkpt>
      <trkpt lat="33.83024" lon="77.50872">
        <ele>4078</ele>
        <time>2015-09-03T08:19:41Z</time>
      </trkpt>
      <trkpt lat="33.83022" lon="77.50877">
        <ele>4078.6</ele>
        <time>2015-09-03T08:19:48Z</time>
      </trkpt>
      <trkpt lat="33.83019" lon="77.50878">
        <ele>4078.2</ele>
        <time>2015-09-03T08:19:51Z</time>
      </trkpt>
      <trkpt lat="33.8301" lon="77.50879">
        <ele>4076.6</ele>
        <time>2015-09-03T08:19:59Z</time>
      </trkpt>
      <trkpt lat="33.83006" lon="77.50882">
        <ele>4075.8</ele>
        <time>2015-09-03T08:20:04Z</time>
      </trkpt>
      <trkpt lat="33.83006" lon="77.50882">
        <ele>4075.6</ele>
        <time>2015-09-03T08:20:05Z</time>
      </trkpt>
      <trkpt lat="33.82998" lon="77.50883">
        <ele>4074.6</ele>
        <time>2015-09-03T08:20:12Z</time>
      </trkpt>
      <trkpt lat="33.82993" lon="77.50885">
        <ele>4074</ele>
        <time>2015-09-03T08:20:17Z</time>
      </trkpt>
      <trkpt lat="33.82982" lon="77.50882">
        <ele>4073.6</ele>
        <time>2015-09-03T08:20:29Z</time>
      </trkpt>
      <trkpt lat="33.82976" lon="77.50879">
        <ele>4073.2</ele>
        <time>2015-09-03T08:20:36Z</time>
      </trkpt>
      <trkpt lat="33.82966" lon="77.50869">
        <ele>4072.4</ele>
        <time>2015-09-03T08:20:46Z</time>
      </trkpt>
      <trkpt lat="33.82961" lon="77.50865">
        <ele>4072.2</ele>
        <time>2015-09-03T08:20:50Z</time>
      </trkpt>
      <trkpt lat="33.82954" lon="77.50863">
        <ele>4072</ele>
        <time>2015-09-03T08:20:57Z</time>
      </trkpt>
      <trkpt lat="33.8295" lon="77.50866">
        <ele>4071.6</ele>
        <time>2015-09-03T08:21:00Z</time>
      </trkpt>
      <trkpt lat="33.82946" lon="77.50866">
        <ele>4071.4</ele>
        <time>2015-09-03T08:21:03Z</time>
      </trkpt>
      <trkpt lat="33.82942" lon="77.50865">
        <ele>4071.4</ele>
        <time>2015-09-03T08:21:07Z</time>
      </trkpt>
      <trkpt lat="33.82939" lon="77.50861">
        <ele>4071.2</ele>
        <time>2015-09-03T08:21:13Z</time>
      </trkpt>
      <trkpt lat="33.82932" lon="77.50859">
        <ele>4070.8</ele>
        <time>2015-09-03T08:21:21Z</time>
      </trkpt>
      <trkpt lat="33.82927" lon="77.50857">
        <ele>4070.4</ele>
        <time>2015-09-03T08:21:25Z</time>
      </trkpt>
      <trkpt lat="33.82926" lon="77.50857">
        <ele>4070.2</ele>
        <time>2015-09-03T08:21:26Z</time>
      </trkpt>
      <trkpt lat="33.82923" lon="77.50858">
        <ele>4069.8</ele>
        <time>2015-09-03T08:21:29Z</time>
      </trkpt>
      <trkpt lat="33.82914" lon="77.50856">
        <ele>4069.4</ele>
        <time>2015-09-03T08:21:38Z</time>
      </trkpt>
      <trkpt lat="33.82911" lon="77.50858">
        <ele>4069.4</ele>
        <time>2015-09-03T08:21:40Z</time>
      </trkpt>
      <trkpt lat="33.82901" lon="77.50879">
        <ele>4068.8</ele>
        <time>2015-09-03T08:21:51Z</time>
      </trkpt>
      <trkpt lat="33.82894" lon="77.50885">
        <ele>4068.8</ele>
        <time>2015-09-03T08:21:58Z</time>
      </trkpt>
      <trkpt lat="33.82888" lon="77.50891">
        <ele>4068.8</ele>
        <time>2015-09-03T08:22:03Z</time>
      </trkpt>
      <trkpt lat="33.82887" lon="77.50893">
        <ele>4069</ele>
        <time>2015-09-03T08:22:05Z</time>
      </trkpt>
      <trkpt lat="33.82886" lon="77.50894">
        <ele>4069</ele>
        <time>2015-09-03T08:22:07Z</time>
      </trkpt>
      <trkpt lat="33.82876" lon="77.50897">
        <ele>4068.8</ele>
        <time>2015-09-03T08:22:15Z</time>
      </trkpt>
      <trkpt lat="33.82871" lon="77.50898">
        <ele>4068.8</ele>
        <time>2015-09-03T08:22:19Z</time>
      </trkpt>
      <trkpt lat="33.82854" lon="77.50903">
        <ele>4069</ele>
        <time>2015-09-03T08:22:43Z</time>
      </trkpt>
      <trkpt lat="33.82851" lon="77.50906">
        <ele>4069</ele>
        <time>2015-09-03T08:22:46Z</time>
      </trkpt>
      <trkpt lat="33.82848" lon="77.50909">
        <ele>4069</ele>
        <time>2015-09-03T08:22:50Z</time>
      </trkpt>
      <trkpt lat="33.8284" lon="77.5091">
        <ele>4069.2</ele>
        <time>2015-09-03T08:22:59Z</time>
      </trkpt>
      <trkpt lat="33.82839" lon="77.5091">
        <ele>4069.2</ele>
        <time>2015-09-03T08:23:01Z</time>
      </trkpt>
      <trkpt lat="33.82836" lon="77.5091">
        <ele>4069.4</ele>
        <time>2015-09-03T08:23:04Z</time>
      </trkpt>
      <trkpt lat="33.82831" lon="77.50912">
        <ele>4069.8</ele>
        <time>2015-09-03T08:23:09Z</time>
      </trkpt>
      <trkpt lat="33.82828" lon="77.50925">
        <ele>4069.6</ele>
        <time>2015-09-03T08:23:17Z</time>
      </trkpt>
      <trkpt lat="33.82824" lon="77.50925">
        <ele>4069.4</ele>
        <time>2015-09-03T08:23:21Z</time>
      </trkpt>
      <trkpt lat="33.8282" lon="77.50925">
        <ele>4069.6</ele>
        <time>2015-09-03T08:23:25Z</time>
      </trkpt>
      <trkpt lat="33.82818" lon="77.50926">
        <ele>4069.8</ele>
        <time>2015-09-03T08:23:27Z</time>
      </trkpt>
      <trkpt lat="33.82809" lon="77.50927">
        <ele>4069.4</ele>
        <time>2015-09-03T08:23:35Z</time>
      </trkpt>
      <trkpt lat="33.82806" lon="77.50926">
        <ele>4069.4</ele>
        <time>2015-09-03T08:23:40Z</time>
      </trkpt>
      <trkpt lat="33.82798" lon="77.50926">
        <ele>4068.6</ele>
        <time>2015-09-03T08:23:51Z</time>
      </trkpt>
      <trkpt lat="33.82797" lon="77.50935">
        <ele>4068.6</ele>
        <time>2015-09-03T08:23:56Z</time>
      </trkpt>
      <trkpt lat="33.82789" lon="77.50946">
        <ele>4069.2</ele>
        <time>2015-09-03T08:24:10Z</time>
      </trkpt>
      <trkpt lat="33.82787" lon="77.50946">
        <ele>4069.2</ele>
        <time>2015-09-03T08:24:12Z</time>
      </trkpt>
      <trkpt lat="33.82783" lon="77.50949">
        <ele>4069.4</ele>
        <time>2015-09-03T08:24:16Z</time>
      </trkpt>
      <trkpt lat="33.82781" lon="77.50952">
        <ele>4069.6</ele>
        <time>2015-09-03T08:24:19Z</time>
      </trkpt>
      <trkpt lat="33.82781" lon="77.50953">
        <ele>4069.8</ele>
        <time>2015-09-03T08:24:21Z</time>
      </trkpt>
      <trkpt lat="33.82777" lon="77.50956">
        <ele>4069.4</ele>
        <time>2015-09-03T08:24:28Z</time>
      </trkpt>
      <trkpt lat="33.82775" lon="77.50955">
        <ele>4069.4</ele>
        <time>2015-09-03T08:24:31Z</time>
      </trkpt>
      <trkpt lat="33.82758" lon="77.50958">
        <ele>4069.2</ele>
        <time>2015-09-03T08:24:46Z</time>
      </trkpt>
      <trkpt lat="33.82752" lon="77.50959">
        <ele>4069.4</ele>
        <time>2015-09-03T08:24:52Z</time>
      </trkpt>
      <trkpt lat="33.8275" lon="77.50959">
        <ele>4069.4</ele>
        <time>2015-09-03T08:24:54Z</time>
      </trkpt>
      <trkpt lat="33.82732" lon="77.50956">
        <ele>4069.6</ele>
        <time>2015-09-03T08:25:09Z</time>
      </trkpt>
      <trkpt lat="33.8273" lon="77.50956">
        <ele>4069.6</ele>
        <time>2015-09-03T08:25:12Z</time>
      </trkpt>
      <trkpt lat="33.82716" lon="77.50953">
        <ele>4070</ele>
        <time>2015-09-03T08:25:27Z</time>
      </trkpt>
      <trkpt lat="33.82698" lon="77.50949">
        <ele>4069.6</ele>
        <time>2015-09-03T08:25:40Z</time>
      </trkpt>
      <trkpt lat="33.82689" lon="77.50954">
        <ele>4070</ele>
        <time>2015-09-03T08:25:50Z</time>
      </trkpt>
      <trkpt lat="33.82689" lon="77.50955">
        <ele>4070</ele>
        <time>2015-09-03T08:25:52Z</time>
      </trkpt>
      <trkpt lat="33.82687" lon="77.50956">
        <ele>4069.8</ele>
        <time>2015-09-03T08:25:58Z</time>
      </trkpt>
      <trkpt lat="33.8268" lon="77.50951">
        <ele>4068.8</ele>
        <time>2015-09-03T08:26:07Z</time>
      </trkpt>
      <trkpt lat="33.82677" lon="77.50949">
        <ele>4068.8</ele>
        <time>2015-09-03T08:26:12Z</time>
      </trkpt>
      <trkpt lat="33.82658" lon="77.5095">
        <ele>4068.4</ele>
        <time>2015-09-03T08:26:35Z</time>
      </trkpt>
      <trkpt lat="33.82658" lon="77.5095">
        <ele>4068.2</ele>
        <time>2015-09-03T08:26:36Z</time>
      </trkpt>
      <trkpt lat="33.82642" lon="77.50945">
        <ele>4067.4</ele>
        <time>2015-09-03T08:26:50Z</time>
      </trkpt>
      <trkpt lat="33.82639" lon="77.50942">
        <ele>4067.2</ele>
        <time>2015-09-03T08:26:53Z</time>
      </trkpt>
      <trkpt lat="33.82632" lon="77.50937">
        <ele>4066.8</ele>
        <time>2015-09-03T08:26:59Z</time>
      </trkpt>
      <trkpt lat="33.82617" lon="77.50929">
        <ele>4066.2</ele>
        <time>2015-09-03T08:27:16Z</time>
      </trkpt>
      <trkpt lat="33.82611" lon="77.50929">
        <ele>4065</ele>
        <time>2015-09-03T08:27:23Z</time>
      </trkpt>
      <trkpt lat="33.82609" lon="77.50928">
        <ele>4064.8</ele>
        <time>2015-09-03T08:27:25Z</time>
      </trkpt>
      <trkpt lat="33.82606" lon="77.50926">
        <ele>4064.8</ele>
        <time>2015-09-03T08:27:29Z</time>
      </trkpt>
      <trkpt lat="33.82603" lon="77.50927">
        <ele>4064.8</ele>
        <time>2015-09-03T08:27:32Z</time>
      </trkpt>
      <trkpt lat="33.82599" lon="77.50926">
        <ele>4065</ele>
        <time>2015-09-03T08:27:40Z</time>
      </trkpt>
      <trkpt lat="33.82598" lon="77.50928">
        <ele>4065</ele>
        <time>2015-09-03T08:27:42Z</time>
      </trkpt>
      <trkpt lat="33.82597" lon="77.50928">
        <ele>4065.2</ele>
        <time>2015-09-03T08:27:44Z</time>
      </trkpt>
      <trkpt lat="33.82596" lon="77.50927">
        <ele>4065.4</ele>
        <time>2015-09-03T08:27:46Z</time>
      </trkpt>
      <trkpt lat="33.82594" lon="77.50925">
        <ele>4065.4</ele>
        <time>2015-09-03T08:27:48Z</time>
      </trkpt>
      <trkpt lat="33.82591" lon="77.50926">
        <ele>4066.2</ele>
        <time>2015-09-03T08:27:56Z</time>
      </trkpt>
      <trkpt lat="33.82579" lon="77.50922">
        <ele>4067.2</ele>
        <time>2015-09-03T08:28:11Z</time>
      </trkpt>
      <trkpt lat="33.82573" lon="77.50921">
        <ele>4067.4</ele>
        <time>2015-09-03T08:28:16Z</time>
      </trkpt>
      <trkpt lat="33.8257" lon="77.50917">
        <ele>4067.4</ele>
        <time>2015-09-03T08:28:20Z</time>
      </trkpt>
      <trkpt lat="33.82569" lon="77.50915">
        <ele>4067.4</ele>
        <time>2015-09-03T08:28:22Z</time>
      </trkpt>
      <trkpt lat="33.82562" lon="77.50911">
        <ele>4068.2</ele>
        <time>2015-09-03T08:28:40Z</time>
      </trkpt>
      <trkpt lat="33.82565" lon="77.50919">
        <ele>4068.2</ele>
        <time>2015-09-03T08:28:45Z</time>
      </trkpt>
      <trkpt lat="33.82569" lon="77.50914">
        <ele>4068.2</ele>
        <time>2015-09-03T08:28:49Z</time>
      </trkpt>
      <trkpt lat="33.82573" lon="77.50908">
        <ele>4068</ele>
        <time>2015-09-03T08:29:05Z</time>
      </trkpt>
      <trkpt lat="33.82569" lon="77.50909">
        <ele>4068</ele>
        <time>2015-09-03T08:29:09Z</time>
      </trkpt>
      <trkpt lat="33.82568" lon="77.50911">
        <ele>4068</ele>
        <time>2015-09-03T08:29:11Z</time>
      </trkpt>
      <trkpt lat="33.82566" lon="77.5091">
        <ele>4068.2</ele>
        <time>2015-09-03T08:29:14Z</time>
      </trkpt>
      <trkpt lat="33.82564" lon="77.50912">
        <ele>4068.2</ele>
        <time>2015-09-03T08:29:18Z</time>
      </trkpt>
      <trkpt lat="33.82563" lon="77.50915">
        <ele>4068</ele>
        <time>2015-09-03T08:29:21Z</time>
      </trkpt>
      <trkpt lat="33.82558" lon="77.50911">
        <ele>4068</ele>
        <time>2015-09-03T08:29:48Z</time>
      </trkpt>
      <trkpt lat="33.82562" lon="77.50905">
        <ele>4069.2</ele>
        <time>2015-09-03T08:30:07Z</time>
      </trkpt>
      <trkpt lat="33.82563" lon="77.50909">
        <ele>4070.4</ele>
        <time>2015-09-03T08:30:26Z</time>
      </trkpt>
      <trkpt lat="33.82559" lon="77.50907">
        <ele>4070.6</ele>
        <time>2015-09-03T08:30:32Z</time>
      </trkpt>
      <trkpt lat="33.82565" lon="77.50916">
        <ele>4070.6</ele>
        <time>2015-09-03T08:30:57Z</time>
      </trkpt>
      <trkpt lat="33.82574" lon="77.50905">
        <ele>4070.6</ele>
        <time>2015-09-03T08:31:11Z</time>
      </trkpt>
      <trkpt lat="33.82571" lon="77.50903">
        <ele>4070.8</ele>
        <time>2015-09-03T08:31:14Z</time>
      </trkpt>
      <trkpt lat="33.82562" lon="77.50904">
        <ele>4071</ele>
        <time>2015-09-03T08:31:20Z</time>
      </trkpt>
      <trkpt lat="33.82561" lon="77.50904">
        <ele>4071.4</ele>
        <time>2015-09-03T08:31:25Z</time>
      </trkpt>
      <trkpt lat="33.82561" lon="77.50903">
        <ele>4072.4</ele>
        <time>2015-09-03T08:32:00Z</time>
      </trkpt>
      <trkpt lat="33.82561" lon="77.50906">
        <ele>4072.4</ele>
        <time>2015-09-03T08:32:10Z</time>
      </trkpt>
      <trkpt lat="33.8256" lon="77.50909">
        <ele>4072.6</ele>
        <time>2015-09-03T08:32:14Z</time>
      </trkpt>
      <trkpt lat="33.8256" lon="77.5091">
        <ele>4072.6</ele>
        <time>2015-09-03T08:32:17Z</time>
      </trkpt>
      <trkpt lat="33.82559" lon="77.50911">
        <ele>4072.6</ele>
        <time>2015-09-03T08:32:21Z</time>
      </trkpt>
      <trkpt lat="33.8256" lon="77.50917">
        <ele>4073</ele>
        <time>2015-09-03T08:33:18Z</time>
      </trkpt>
      <trkpt lat="33.82554" lon="77.50916">
        <ele>4073</ele>
        <time>2015-09-03T08:33:32Z</time>
      </trkpt>
      <trkpt lat="33.82556" lon="77.50914">
        <ele>4072.6</ele>
        <time>2015-09-03T08:33:40Z</time>
      </trkpt>
      <trkpt lat="33.82562" lon="77.50903">
        <ele>4073</ele>
        <time>2015-09-03T08:34:19Z</time>
      </trkpt>
      <trkpt lat="33.82551" lon="77.50913">
        <ele>4072.8</ele>
        <time>2015-09-03T08:34:32Z</time>
      </trkpt>
      <trkpt lat="33.82554" lon="77.50915">
        <ele>4072.2</ele>
        <time>2015-09-03T08:34:50Z</time>
      </trkpt>
      <trkpt lat="33.82552" lon="77.50918">
        <ele>4072.2</ele>
        <time>2015-09-03T08:34:52Z</time>
      </trkpt>
      <trkpt lat="33.82546" lon="77.50924">
        <ele>4072.2</ele>
        <time>2015-09-03T08:34:58Z</time>
      </trkpt>
      <trkpt lat="33.82543" lon="77.50919">
        <ele>4072.2</ele>
        <time>2015-09-03T08:35:08Z</time>
      </trkpt>
      <trkpt lat="33.82544" lon="77.50921">
        <ele>4072.4</ele>
        <time>2015-09-03T08:35:10Z</time>
      </trkpt>
      <trkpt lat="33.82542" lon="77.50918">
        <ele>4072.6</ele>
        <time>2015-09-03T08:35:15Z</time>
      </trkpt>
      <trkpt lat="33.8254" lon="77.50916">
        <ele>4072.6</ele>
        <time>2015-09-03T08:35:17Z</time>
      </trkpt>
      <trkpt lat="33.82538" lon="77.50917">
        <ele>4072.6</ele>
        <time>2015-09-03T08:35:19Z</time>
      </trkpt>
      <trkpt lat="33.82536" lon="77.50919">
        <ele>4072.6</ele>
        <time>2015-09-03T08:35:21Z</time>
      </trkpt>
      <trkpt lat="33.8253" lon="77.50925">
        <ele>4073</ele>
        <time>2015-09-03T08:35:32Z</time>
      </trkpt>
      <trkpt lat="33.82526" lon="77.50929">
        <ele>4072.8</ele>
        <time>2015-09-03T08:35:39Z</time>
      </trkpt>
      <trkpt lat="33.82523" lon="77.50934">
        <ele>4073.6</ele>
        <time>2015-09-03T08:35:45Z</time>
      </trkpt>
      <trkpt lat="33.82519" lon="77.50939">
        <ele>4073.6</ele>
        <time>2015-09-03T08:35:50Z</time>
      </trkpt>
      <trkpt lat="33.82518" lon="77.50942">
        <ele>4073.6</ele>
        <time>2015-09-03T08:35:53Z</time>
      </trkpt>
      <trkpt lat="33.82512" lon="77.50949">
        <ele>4073.8</ele>
        <time>2015-09-03T08:36:01Z</time>
      </trkpt>
      <trkpt lat="33.82507" lon="77.50954">
        <ele>4073.8</ele>
        <time>2015-09-03T08:36:08Z</time>
      </trkpt>
      <trkpt lat="33.825" lon="77.50969">
        <ele>4074</ele>
        <time>2015-09-03T08:36:23Z</time>
      </trkpt>
      <trkpt lat="33.82499" lon="77.5097">
        <ele>4074</ele>
        <time>2015-09-03T08:36:25Z</time>
      </trkpt>
      <trkpt lat="33.82494" lon="77.50974">
        <ele>4074</ele>
        <time>2015-09-03T08:36:29Z</time>
      </trkpt>
      <trkpt lat="33.82493" lon="77.50976">
        <ele>4074.2</ele>
        <time>2015-09-03T08:36:31Z</time>
      </trkpt>
      <trkpt lat="33.82489" lon="77.50978">
        <ele>4074.4</ele>
        <time>2015-09-03T08:36:37Z</time>
      </trkpt>
      <trkpt lat="33.8249" lon="77.5098">
        <ele>4074.4</ele>
        <time>2015-09-03T08:36:39Z</time>
      </trkpt>
      <trkpt lat="33.82484" lon="77.50988">
        <ele>4074.4</ele>
        <time>2015-09-03T08:36:47Z</time>
      </trkpt>
      <trkpt lat="33.82483" lon="77.50989">
        <ele>4074.6</ele>
        <time>2015-09-03T08:36:48Z</time>
      </trkpt>
      <trkpt lat="33.82466" lon="77.50992">
        <ele>4074.8</ele>
        <time>2015-09-03T08:37:14Z</time>
      </trkpt>
      <trkpt lat="33.82465" lon="77.50993">
        <ele>4074.8</ele>
        <time>2015-09-03T08:37:16Z</time>
      </trkpt>
      <trkpt lat="33.82462" lon="77.50996">
        <ele>4074.8</ele>
        <time>2015-09-03T08:37:21Z</time>
      </trkpt>
      <trkpt lat="33.8246" lon="77.50997">
        <ele>4075.6</ele>
        <time>2015-09-03T08:37:26Z</time>
      </trkpt>
      <trkpt lat="33.82452" lon="77.5101">
        <ele>4076</ele>
        <time>2015-09-03T08:37:57Z</time>
      </trkpt>
      <trkpt lat="33.82429" lon="77.51025">
        <ele>4081.6</ele>
        <time>2015-09-03T08:39:15Z</time>
      </trkpt>
      <trkpt lat="33.82414" lon="77.51031">
        <ele>4082.2</ele>
        <time>2015-09-03T08:39:20Z</time>
      </trkpt>
      <trkpt lat="33.82394" lon="77.51033">
        <ele>4082.8</ele>
        <time>2015-09-03T08:39:27Z</time>
      </trkpt>
      <trkpt lat="33.82382" lon="77.51039">
        <ele>4083.2</ele>
        <time>2015-09-03T08:39:36Z</time>
      </trkpt>
      <trkpt lat="33.8238" lon="77.51041">
        <ele>4083.2</ele>
        <time>2015-09-03T08:39:38Z</time>
      </trkpt>
      <trkpt lat="33.82377" lon="77.51047">
        <ele>4084.4</ele>
        <time>2015-09-03T08:39:44Z</time>
      </trkpt>
      <trkpt lat="33.82374" lon="77.51053">
        <ele>4085.4</ele>
        <time>2015-09-03T08:39:50Z</time>
      </trkpt>
      <trkpt lat="33.8237" lon="77.51064">
        <ele>4086.6</ele>
        <time>2015-09-03T08:40:02Z</time>
      </trkpt>
      <trkpt lat="33.82371" lon="77.51071">
        <ele>4086.6</ele>
        <time>2015-09-03T08:40:10Z</time>
      </trkpt>
      <trkpt lat="33.82373" lon="77.51078">
        <ele>4085.4</ele>
        <time>2015-09-03T08:40:17Z</time>
      </trkpt>
      <trkpt lat="33.82371" lon="77.51084">
        <ele>4085.6</ele>
        <time>2015-09-03T08:40:25Z</time>
      </trkpt>
      <trkpt lat="33.82372" lon="77.51102">
        <ele>4086.4</ele>
        <time>2015-09-03T08:40:41Z</time>
      </trkpt>
      <trkpt lat="33.82366" lon="77.511">
        <ele>4087</ele>
        <time>2015-09-03T08:40:45Z</time>
      </trkpt>
      <trkpt lat="33.82351" lon="77.51133">
        <ele>4090.6</ele>
        <time>2015-09-03T08:41:17Z</time>
      </trkpt>
      <trkpt lat="33.82336" lon="77.51149">
        <ele>4090.4</ele>
        <time>2015-09-03T08:41:38Z</time>
      </trkpt>
      <trkpt lat="33.82323" lon="77.51157">
        <ele>4091.2</ele>
        <time>2015-09-03T08:41:42Z</time>
      </trkpt>
      <trkpt lat="33.82322" lon="77.51158">
        <ele>4091.4</ele>
        <time>2015-09-03T08:41:43Z</time>
      </trkpt>
      <trkpt lat="33.82317" lon="77.51163">
        <ele>4091.8</ele>
        <time>2015-09-03T08:41:46Z</time>
      </trkpt>
      <trkpt lat="33.82316" lon="77.51164">
        <ele>4092</ele>
        <time>2015-09-03T08:41:48Z</time>
      </trkpt>
      <trkpt lat="33.82316" lon="77.51177">
        <ele>4092.8</ele>
        <time>2015-09-03T08:41:58Z</time>
      </trkpt>
      <trkpt lat="33.82315" lon="77.51179">
        <ele>4092.8</ele>
        <time>2015-09-03T08:41:59Z</time>
      </trkpt>
      <trkpt lat="33.82313" lon="77.51192">
        <ele>4093.8</ele>
        <time>2015-09-03T08:42:08Z</time>
      </trkpt>
      <trkpt lat="33.82313" lon="77.51193">
        <ele>4093.8</ele>
        <time>2015-09-03T08:42:09Z</time>
      </trkpt>
      <trkpt lat="33.82316" lon="77.512">
        <ele>4094.2</ele>
        <time>2015-09-03T08:42:20Z</time>
      </trkpt>
      <trkpt lat="33.82318" lon="77.512">
        <ele>4094</ele>
        <time>2015-09-03T08:42:22Z</time>
      </trkpt>
      <trkpt lat="33.82317" lon="77.51202">
        <ele>4094</ele>
        <time>2015-09-03T08:42:24Z</time>
      </trkpt>
      <trkpt lat="33.82318" lon="77.51206">
        <ele>4093.2</ele>
        <time>2015-09-03T08:42:29Z</time>
      </trkpt>
      <trkpt lat="33.8232" lon="77.51207">
        <ele>4092.6</ele>
        <time>2015-09-03T08:42:31Z</time>
      </trkpt>
      <trkpt lat="33.82322" lon="77.5121">
        <ele>4091.4</ele>
        <time>2015-09-03T08:42:36Z</time>
      </trkpt>
      <trkpt lat="33.82325" lon="77.51218">
        <ele>4090.6</ele>
        <time>2015-09-03T08:42:40Z</time>
      </trkpt>
      <trkpt lat="33.82354" lon="77.51213">
        <ele>4090.6</ele>
        <time>2015-09-03T08:42:43Z</time>
      </trkpt>
      <trkpt lat="33.82359" lon="77.51223">
        <ele>4090.8</ele>
        <time>2015-09-03T08:42:51Z</time>
      </trkpt>
      <trkpt lat="33.82354" lon="77.51243">
        <ele>4090.8</ele>
        <time>2015-09-03T08:43:04Z</time>
      </trkpt>
      <trkpt lat="33.82355" lon="77.51245">
        <ele>4091</ele>
        <time>2015-09-03T08:43:06Z</time>
      </trkpt>
      <trkpt lat="33.82348" lon="77.51259">
        <ele>4091.4</ele>
        <time>2015-09-03T08:43:15Z</time>
      </trkpt>
      <trkpt lat="33.82347" lon="77.51261">
        <ele>4091.6</ele>
        <time>2015-09-03T08:43:18Z</time>
      </trkpt>
      <trkpt lat="33.82346" lon="77.51267">
        <ele>4092.2</ele>
        <time>2015-09-03T08:43:24Z</time>
      </trkpt>
      <trkpt lat="33.82345" lon="77.51269">
        <ele>4092.2</ele>
        <time>2015-09-03T08:43:26Z</time>
      </trkpt>
      <trkpt lat="33.82345" lon="77.51271">
        <ele>4092.2</ele>
        <time>2015-09-03T08:43:28Z</time>
      </trkpt>
      <trkpt lat="33.82345" lon="77.51276">
        <ele>4092.4</ele>
        <time>2015-09-03T08:43:34Z</time>
      </trkpt>
      <trkpt lat="33.82338" lon="77.51293">
        <ele>4093.4</ele>
        <time>2015-09-03T08:43:51Z</time>
      </trkpt>
      <trkpt lat="33.82338" lon="77.51294">
        <ele>4093.6</ele>
        <time>2015-09-03T08:43:52Z</time>
      </trkpt>
      <trkpt lat="33.82328" lon="77.51311">
        <ele>4094.6</ele>
        <time>2015-09-03T08:44:14Z</time>
      </trkpt>
      <trkpt lat="33.82326" lon="77.51317">
        <ele>4094.6</ele>
        <time>2015-09-03T08:44:18Z</time>
      </trkpt>
      <trkpt lat="33.82327" lon="77.51319">
        <ele>4094.8</ele>
        <time>2015-09-03T08:44:21Z</time>
      </trkpt>
      <trkpt lat="33.82327" lon="77.51321">
        <ele>4094.8</ele>
        <time>2015-09-03T08:44:23Z</time>
      </trkpt>
      <trkpt lat="33.82325" lon="77.51324">
        <ele>4095</ele>
        <time>2015-09-03T08:44:27Z</time>
      </trkpt>
      <trkpt lat="33.82324" lon="77.51327">
        <ele>4095.6</ele>
        <time>2015-09-03T08:44:31Z</time>
      </trkpt>
      <trkpt lat="33.82322" lon="77.51336">
        <ele>4096.6</ele>
        <time>2015-09-03T08:44:40Z</time>
      </trkpt>
      <trkpt lat="33.82317" lon="77.51343">
        <ele>4097.6</ele>
        <time>2015-09-03T08:44:50Z</time>
      </trkpt>
      <trkpt lat="33.82313" lon="77.51346">
        <ele>4098.8</ele>
        <time>2015-09-03T08:44:55Z</time>
      </trkpt>
      <trkpt lat="33.82312" lon="77.51353">
        <ele>4099.6</ele>
        <time>2015-09-03T08:45:01Z</time>
      </trkpt>
      <trkpt lat="33.8231" lon="77.51374">
        <ele>4098.6</ele>
        <time>2015-09-03T08:45:20Z</time>
      </trkpt>
      <trkpt lat="33.8231" lon="77.5138">
        <ele>4098.4</ele>
        <time>2015-09-03T08:45:24Z</time>
      </trkpt>
      <trkpt lat="33.82316" lon="77.5139">
        <ele>4098.8</ele>
        <time>2015-09-03T08:45:34Z</time>
      </trkpt>
      <trkpt lat="33.82317" lon="77.51394">
        <ele>4099</ele>
        <time>2015-09-03T08:45:37Z</time>
      </trkpt>
      <trkpt lat="33.8232" lon="77.514">
        <ele>4099</ele>
        <time>2015-09-03T08:45:43Z</time>
      </trkpt>
      <trkpt lat="33.82321" lon="77.51404">
        <ele>4099.2</ele>
        <time>2015-09-03T08:45:47Z</time>
      </trkpt>
      <trkpt lat="33.82322" lon="77.51409">
        <ele>4099.6</ele>
        <time>2015-09-03T08:45:51Z</time>
      </trkpt>
      <trkpt lat="33.82321" lon="77.51413">
        <ele>4099.8</ele>
        <time>2015-09-03T08:45:54Z</time>
      </trkpt>
      <trkpt lat="33.8232" lon="77.51423">
        <ele>4101</ele>
        <time>2015-09-03T08:46:04Z</time>
      </trkpt>
      <trkpt lat="33.8232" lon="77.51431">
        <ele>4102</ele>
        <time>2015-09-03T08:46:11Z</time>
      </trkpt>
      <trkpt lat="33.82322" lon="77.51445">
        <ele>4102.4</ele>
        <time>2015-09-03T08:46:25Z</time>
      </trkpt>
      <trkpt lat="33.82322" lon="77.51447">
        <ele>4102.6</ele>
        <time>2015-09-03T08:46:27Z</time>
      </trkpt>
      <trkpt lat="33.82321" lon="77.5145">
        <ele>4103.4</ele>
        <time>2015-09-03T08:46:30Z</time>
      </trkpt>
      <trkpt lat="33.8232" lon="77.51453">
        <ele>4104.4</ele>
        <time>2015-09-03T08:46:33Z</time>
      </trkpt>
      <trkpt lat="33.82321" lon="77.51462">
        <ele>4104.6</ele>
        <time>2015-09-03T08:46:41Z</time>
      </trkpt>
      <trkpt lat="33.82322" lon="77.51469">
        <ele>4104.4</ele>
        <time>2015-09-03T08:46:48Z</time>
      </trkpt>
      <trkpt lat="33.82321" lon="77.51472">
        <ele>4104.8</ele>
        <time>2015-09-03T08:46:50Z</time>
      </trkpt>
      <trkpt lat="33.82322" lon="77.51478">
        <ele>4105.6</ele>
        <time>2015-09-03T08:46:55Z</time>
      </trkpt>
      <trkpt lat="33.82322" lon="77.5148">
        <ele>4105.4</ele>
        <time>2015-09-03T08:46:56Z</time>
      </trkpt>
      <trkpt lat="33.82323" lon="77.51484">
        <ele>4104.6</ele>
        <time>2015-09-03T08:46:59Z</time>
      </trkpt>
      <trkpt lat="33.82324" lon="77.51485">
        <ele>4104.4</ele>
        <time>2015-09-03T08:47:00Z</time>
      </trkpt>
      <trkpt lat="33.82325" lon="77.51487">
        <ele>4104.4</ele>
        <time>2015-09-03T08:47:02Z</time>
      </trkpt>
      <trkpt lat="33.82322" lon="77.51497">
        <ele>4104.6</ele>
        <time>2015-09-03T08:47:10Z</time>
      </trkpt>
      <trkpt lat="33.82322" lon="77.51508">
        <ele>4105</ele>
        <time>2015-09-03T08:47:22Z</time>
      </trkpt>
      <trkpt lat="33.8232" lon="77.51513">
        <ele>4105.6</ele>
        <time>2015-09-03T08:47:27Z</time>
      </trkpt>
      <trkpt lat="33.8232" lon="77.51515">
        <ele>4105.8</ele>
        <time>2015-09-03T08:47:29Z</time>
      </trkpt>
      <trkpt lat="33.82316" lon="77.5153">
        <ele>4104.6</ele>
        <time>2015-09-03T08:47:40Z</time>
      </trkpt>
      <trkpt lat="33.82317" lon="77.51532">
        <ele>4104.6</ele>
        <time>2015-09-03T08:47:42Z</time>
      </trkpt>
      <trkpt lat="33.82313" lon="77.51538">
        <ele>4104.8</ele>
        <time>2015-09-03T08:47:47Z</time>
      </trkpt>
      <trkpt lat="33.82311" lon="77.51541">
        <ele>4104.8</ele>
        <time>2015-09-03T08:47:50Z</time>
      </trkpt>
      <trkpt lat="33.82303" lon="77.51546">
        <ele>4105.6</ele>
        <time>2015-09-03T08:47:57Z</time>
      </trkpt>
      <trkpt lat="33.82306" lon="77.51553">
        <ele>4105.6</ele>
        <time>2015-09-03T08:48:00Z</time>
      </trkpt>
      <trkpt lat="33.82301" lon="77.51558">
        <ele>4105.8</ele>
        <time>2015-09-03T08:48:05Z</time>
      </trkpt>
      <trkpt lat="33.8229" lon="77.51566">
        <ele>4106.8</ele>
        <time>2015-09-03T08:48:16Z</time>
      </trkpt>
      <trkpt lat="33.82288" lon="77.51567">
        <ele>4107</ele>
        <time>2015-09-03T08:48:18Z</time>
      </trkpt>
      <trkpt lat="33.82285" lon="77.51573">
        <ele>4107.8</ele>
        <time>2015-09-03T08:48:28Z</time>
      </trkpt>
      <trkpt lat="33.82284" lon="77.51575">
        <ele>4107.8</ele>
        <time>2015-09-03T08:48:30Z</time>
      </trkpt>
      <trkpt lat="33.82283" lon="77.51583">
        <ele>4107.8</ele>
        <time>2015-09-03T08:48:44Z</time>
      </trkpt>
      <trkpt lat="33.8228" lon="77.51587">
        <ele>4107.6</ele>
        <time>2015-09-03T08:48:48Z</time>
      </trkpt>
      <trkpt lat="33.82272" lon="77.51598">
        <ele>4107.6</ele>
        <time>2015-09-03T08:48:53Z</time>
      </trkpt>
      <trkpt lat="33.82263" lon="77.51612">
        <ele>4108.8</ele>
        <time>2015-09-03T08:49:03Z</time>
      </trkpt>
      <trkpt lat="33.82261" lon="77.51618">
        <ele>4109.4</ele>
        <time>2015-09-03T08:49:08Z</time>
      </trkpt>
      <trkpt lat="33.82262" lon="77.5162">
        <ele>4110</ele>
        <time>2015-09-03T08:49:13Z</time>
      </trkpt>
      <trkpt lat="33.82258" lon="77.51632">
        <ele>4110.4</ele>
        <time>2015-09-03T08:49:19Z</time>
      </trkpt>
      <trkpt lat="33.82242" lon="77.51643">
        <ele>4109.4</ele>
        <time>2015-09-03T08:49:36Z</time>
      </trkpt>
      <trkpt lat="33.82239" lon="77.51652">
        <ele>4108.8</ele>
        <time>2015-09-03T08:49:47Z</time>
      </trkpt>
      <trkpt lat="33.82236" lon="77.51659">
        <ele>4108.6</ele>
        <time>2015-09-03T08:49:51Z</time>
      </trkpt>
      <trkpt lat="33.82241" lon="77.51658">
        <ele>4108.6</ele>
        <time>2015-09-03T08:49:53Z</time>
      </trkpt>
      <trkpt lat="33.82242" lon="77.51664">
        <ele>4108.6</ele>
        <time>2015-09-03T08:50:00Z</time>
      </trkpt>
      <trkpt lat="33.82242" lon="77.51664">
        <ele>4109.4</ele>
        <time>2015-09-03T08:50:15Z</time>
      </trkpt>
      <trkpt lat="33.82239" lon="77.51662">
        <ele>4108.6</ele>
        <time>2015-09-03T08:50:22Z</time>
      </trkpt>
      <trkpt lat="33.82238" lon="77.5166">
        <ele>4108.6</ele>
        <time>2015-09-03T08:50:24Z</time>
      </trkpt>
      <trkpt lat="33.82241" lon="77.51655">
        <ele>4108.4</ele>
        <time>2015-09-03T08:50:29Z</time>
      </trkpt>
      <trkpt lat="33.82245" lon="77.51647">
        <ele>4107.6</ele>
        <time>2015-09-03T08:50:36Z</time>
      </trkpt>
      <trkpt lat="33.82248" lon="77.51646">
        <ele>4107.2</ele>
        <time>2015-09-03T08:50:38Z</time>
      </trkpt>
      <trkpt lat="33.8225" lon="77.51646">
        <ele>4106.8</ele>
        <time>2015-09-03T08:50:40Z</time>
      </trkpt>
      <trkpt lat="33.8225" lon="77.51647">
        <ele>4106.8</ele>
        <time>2015-09-03T08:50:42Z</time>
      </trkpt>
      <trkpt lat="33.82248" lon="77.51653">
        <ele>4107.2</ele>
        <time>2015-09-03T08:50:47Z</time>
      </trkpt>
      <trkpt lat="33.82246" lon="77.5166">
        <ele>4108.8</ele>
        <time>2015-09-03T08:50:58Z</time>
      </trkpt>
      <trkpt lat="33.82242" lon="77.51663">
        <ele>4109.4</ele>
        <time>2015-09-03T08:51:04Z</time>
      </trkpt>
      <trkpt lat="33.82243" lon="77.51665">
        <ele>4109.8</ele>
        <time>2015-09-03T08:51:08Z</time>
      </trkpt>
      <trkpt lat="33.82246" lon="77.51664">
        <ele>4110.8</ele>
        <time>2015-09-03T08:51:17Z</time>
      </trkpt>
      <trkpt lat="33.82244" lon="77.51671">
        <ele>4111.4</ele>
        <time>2015-09-03T08:51:27Z</time>
      </trkpt>
      <trkpt lat="33.82242" lon="77.51672">
        <ele>4111.6</ele>
        <time>2015-09-03T08:51:29Z</time>
      </trkpt>
      <trkpt lat="33.82241" lon="77.51673">
        <ele>4111.8</ele>
        <time>2015-09-03T08:51:31Z</time>
      </trkpt>
      <trkpt lat="33.82241" lon="77.51673">
        <ele>4112</ele>
        <time>2015-09-03T08:51:32Z</time>
      </trkpt>
      <trkpt lat="33.82242" lon="77.5168">
        <ele>4113</ele>
        <time>2015-09-03T08:51:42Z</time>
      </trkpt>
      <trkpt lat="33.8224" lon="77.51681">
        <ele>4114</ele>
        <time>2015-09-03T08:51:52Z</time>
      </trkpt>
      <trkpt lat="33.82232" lon="77.51689">
        <ele>4115.2</ele>
        <time>2015-09-03T08:52:09Z</time>
      </trkpt>
      <trkpt lat="33.82233" lon="77.51691">
        <ele>4116.2</ele>
        <time>2015-09-03T08:52:18Z</time>
      </trkpt>
      <trkpt lat="33.82233" lon="77.51689">
        <ele>4117.4</ele>
        <time>2015-09-03T08:52:23Z</time>
      </trkpt>
      <trkpt lat="33.82238" lon="77.51689">
        <ele>4118.4</ele>
        <time>2015-09-03T08:52:31Z</time>
      </trkpt>
      <trkpt lat="33.82239" lon="77.5169">
        <ele>4119.6</ele>
        <time>2015-09-03T08:52:38Z</time>
      </trkpt>
      <trkpt lat="33.82245" lon="77.51697">
        <ele>4120.6</ele>
        <time>2015-09-03T08:53:06Z</time>
      </trkpt>
      <trkpt lat="33.82243" lon="77.51701">
        <ele>4121.6</ele>
        <time>2015-09-03T08:53:16Z</time>
      </trkpt>
      <trkpt lat="33.82241" lon="77.51706">
        <ele>4123</ele>
        <time>2015-09-03T08:53:30Z</time>
      </trkpt>
      <trkpt lat="33.82241" lon="77.51706">
        <ele>4124.2</ele>
        <time>2015-09-03T08:53:33Z</time>
      </trkpt>
      <trkpt lat="33.8224" lon="77.51709">
        <ele>4125.2</ele>
        <time>2015-09-03T08:53:43Z</time>
      </trkpt>
      <trkpt lat="33.82238" lon="77.51711">
        <ele>4126.4</ele>
        <time>2015-09-03T08:53:54Z</time>
      </trkpt>
      <trkpt lat="33.82228" lon="77.51726">
        <ele>4127.2</ele>
        <time>2015-09-03T08:54:24Z</time>
      </trkpt>
      <trkpt lat="33.82228" lon="77.51728">
        <ele>4127.4</ele>
        <time>2015-09-03T08:54:27Z</time>
      </trkpt>
      <trkpt lat="33.82224" lon="77.51738">
        <ele>4128.6</ele>
        <time>2015-09-03T08:54:54Z</time>
      </trkpt>
      <trkpt lat="33.82217" lon="77.51741">
        <ele>4127.4</ele>
        <time>2015-09-03T08:55:04Z</time>
      </trkpt>
      <trkpt lat="33.82216" lon="77.51743">
        <ele>4127.2</ele>
        <time>2015-09-03T08:55:06Z</time>
      </trkpt>
      <trkpt lat="33.82205" lon="77.51753">
        <ele>4128.4</ele>
        <time>2015-09-03T08:55:18Z</time>
      </trkpt>
      <trkpt lat="33.822" lon="77.51752">
        <ele>4128.2</ele>
        <time>2015-09-03T08:55:24Z</time>
      </trkpt>
      <trkpt lat="33.82196" lon="77.51757">
        <ele>4127.4</ele>
        <time>2015-09-03T08:55:28Z</time>
      </trkpt>
      <trkpt lat="33.82185" lon="77.5177">
        <ele>4126.4</ele>
        <time>2015-09-03T08:55:39Z</time>
      </trkpt>
      <trkpt lat="33.82184" lon="77.5177">
        <ele>4126.4</ele>
        <time>2015-09-03T08:55:41Z</time>
      </trkpt>
      <trkpt lat="33.82171" lon="77.51786">
        <ele>4126.6</ele>
        <time>2015-09-03T08:55:55Z</time>
      </trkpt>
      <trkpt lat="33.82157" lon="77.518">
        <ele>4126.6</ele>
        <time>2015-09-03T08:56:07Z</time>
      </trkpt>
      <trkpt lat="33.82149" lon="77.51793">
        <ele>4127.6</ele>
        <time>2015-09-03T08:56:13Z</time>
      </trkpt>
      <trkpt lat="33.82148" lon="77.51795">
        <ele>4127.6</ele>
        <time>2015-09-03T08:56:14Z</time>
      </trkpt>
      <trkpt lat="33.82143" lon="77.518">
        <ele>4126.4</ele>
        <time>2015-09-03T08:56:19Z</time>
      </trkpt>
      <trkpt lat="33.82154" lon="77.51803">
        <ele>4126</ele>
        <time>2015-09-03T08:56:32Z</time>
      </trkpt>
      <trkpt lat="33.82154" lon="77.51805">
        <ele>4125.4</ele>
        <time>2015-09-03T08:56:34Z</time>
      </trkpt>
      <trkpt lat="33.82154" lon="77.51805">
        <ele>4125.4</ele>
        <time>2015-09-03T08:56:35Z</time>
      </trkpt>
      <trkpt lat="33.82153" lon="77.5181">
        <ele>4126</ele>
        <time>2015-09-03T08:56:39Z</time>
      </trkpt>
      <trkpt lat="33.82149" lon="77.51812">
        <ele>4126.2</ele>
        <time>2015-09-03T08:56:42Z</time>
      </trkpt>
      <trkpt lat="33.82142" lon="77.51815">
        <ele>4123.8</ele>
        <time>2015-09-03T08:56:47Z</time>
      </trkpt>
      <trkpt lat="33.82133" lon="77.51817">
        <ele>4124.2</ele>
        <time>2015-09-03T08:56:55Z</time>
      </trkpt>
      <trkpt lat="33.82132" lon="77.51818">
        <ele>4125</ele>
        <time>2015-09-03T08:56:57Z</time>
      </trkpt>
      <trkpt lat="33.82133" lon="77.51822">
        <ele>4126</ele>
        <time>2015-09-03T08:57:03Z</time>
      </trkpt>
      <trkpt lat="33.82131" lon="77.51827">
        <ele>4127</ele>
        <time>2015-09-03T08:57:08Z</time>
      </trkpt>
      <trkpt lat="33.82132" lon="77.51835">
        <ele>4126.8</ele>
        <time>2015-09-03T08:57:17Z</time>
      </trkpt>
      <trkpt lat="33.82127" lon="77.51846">
        <ele>4128.2</ele>
        <time>2015-09-03T08:57:33Z</time>
      </trkpt>
      <trkpt lat="33.8212" lon="77.51854">
        <ele>4128.8</ele>
        <time>2015-09-03T08:57:46Z</time>
      </trkpt>
      <trkpt lat="33.82119" lon="77.51857">
        <ele>4129</ele>
        <time>2015-09-03T08:57:49Z</time>
      </trkpt>
      <trkpt lat="33.82119" lon="77.51858">
        <ele>4129.2</ele>
        <time>2015-09-03T08:57:50Z</time>
      </trkpt>
      <trkpt lat="33.82114" lon="77.51863">
        <ele>4130.2</ele>
        <time>2015-09-03T08:57:57Z</time>
      </trkpt>
      <trkpt lat="33.8211" lon="77.51866">
        <ele>4131.4</ele>
        <time>2015-09-03T08:58:05Z</time>
      </trkpt>
      <trkpt lat="33.82108" lon="77.51871">
        <ele>4132.4</ele>
        <time>2015-09-03T08:58:12Z</time>
      </trkpt>
      <trkpt lat="33.82104" lon="77.51877">
        <ele>4133.4</ele>
        <time>2015-09-03T08:58:24Z</time>
      </trkpt>
      <trkpt lat="33.82101" lon="77.51883">
        <ele>4134.6</ele>
        <time>2015-09-03T08:58:31Z</time>
      </trkpt>
      <trkpt lat="33.821" lon="77.51887">
        <ele>4135.6</ele>
        <time>2015-09-03T08:58:39Z</time>
      </trkpt>
      <trkpt lat="33.82097" lon="77.51888">
        <ele>4136.6</ele>
        <time>2015-09-03T08:58:43Z</time>
      </trkpt>
      <trkpt lat="33.82092" lon="77.51894">
        <ele>4137.4</ele>
        <time>2015-09-03T08:58:50Z</time>
      </trkpt>
      <trkpt lat="33.8209" lon="77.51896">
        <ele>4137.6</ele>
        <time>2015-09-03T08:58:54Z</time>
      </trkpt>
      <trkpt lat="33.8208" lon="77.51907">
        <ele>4138.2</ele>
        <time>2015-09-03T08:59:09Z</time>
      </trkpt>
      <trkpt lat="33.82076" lon="77.51911">
        <ele>4138.8</ele>
        <time>2015-09-03T08:59:16Z</time>
      </trkpt>
      <trkpt lat="33.82072" lon="77.51919">
        <ele>4138.8</ele>
        <time>2015-09-03T08:59:29Z</time>
      </trkpt>
      <trkpt lat="33.82071" lon="77.51927">
        <ele>4139.8</ele>
        <time>2015-09-03T08:59:46Z</time>
      </trkpt>
      <trkpt lat="33.82058" lon="77.51938">
        <ele>4140.6</ele>
        <time>2015-09-03T09:00:11Z</time>
      </trkpt>
      <trkpt lat="33.82057" lon="77.5194">
        <ele>4140.6</ele>
        <time>2015-09-03T09:00:12Z</time>
      </trkpt>
      <trkpt lat="33.82054" lon="77.51943">
        <ele>4140.8</ele>
        <time>2015-09-03T09:00:18Z</time>
      </trkpt>
      <trkpt lat="33.82048" lon="77.51949">
        <ele>4141.8</ele>
        <time>2015-09-03T09:00:29Z</time>
      </trkpt>
      <trkpt lat="33.82045" lon="77.51957">
        <ele>4143</ele>
        <time>2015-09-03T09:00:41Z</time>
      </trkpt>
      <trkpt lat="33.82045" lon="77.51962">
        <ele>4144</ele>
        <time>2015-09-03T09:00:47Z</time>
      </trkpt>
      <trkpt lat="33.82035" lon="77.51969">
        <ele>4144</ele>
        <time>2015-09-03T09:01:02Z</time>
      </trkpt>
      <trkpt lat="33.82029" lon="77.51976">
        <ele>4145</ele>
        <time>2015-09-03T09:01:17Z</time>
      </trkpt>
      <trkpt lat="33.82015" lon="77.51992">
        <ele>4145.8</ele>
        <time>2015-09-03T09:01:38Z</time>
      </trkpt>
      <trkpt lat="33.82009" lon="77.52001">
        <ele>4146</ele>
        <time>2015-09-03T09:01:45Z</time>
      </trkpt>
      <trkpt lat="33.82008" lon="77.52003">
        <ele>4146.2</ele>
        <time>2015-09-03T09:01:47Z</time>
      </trkpt>
      <trkpt lat="33.82007" lon="77.52004">
        <ele>4146.4</ele>
        <time>2015-09-03T09:01:49Z</time>
      </trkpt>
      <trkpt lat="33.82006" lon="77.52006">
        <ele>4146.6</ele>
        <time>2015-09-03T09:01:51Z</time>
      </trkpt>
      <trkpt lat="33.82001" lon="77.52008">
        <ele>4147.2</ele>
        <time>2015-09-03T09:01:58Z</time>
      </trkpt>
      <trkpt lat="33.81997" lon="77.52011">
        <ele>4147.8</ele>
        <time>2015-09-03T09:02:06Z</time>
      </trkpt>
      <trkpt lat="33.81996" lon="77.52011">
        <ele>4147.8</ele>
        <time>2015-09-03T09:02:08Z</time>
      </trkpt>
      <trkpt lat="33.81993" lon="77.52012">
        <ele>4147.6</ele>
        <time>2015-09-03T09:02:13Z</time>
      </trkpt>
      <trkpt lat="33.81991" lon="77.52015">
        <ele>4147.6</ele>
        <time>2015-09-03T09:02:16Z</time>
      </trkpt>
      <trkpt lat="33.81983" lon="77.52021">
        <ele>4148.2</ele>
        <time>2015-09-03T09:02:28Z</time>
      </trkpt>
      <trkpt lat="33.81974" lon="77.52024">
        <ele>4149.2</ele>
        <time>2015-09-03T09:02:42Z</time>
      </trkpt>
      <trkpt lat="33.81968" lon="77.52028">
        <ele>4150.4</ele>
        <time>2015-09-03T09:02:53Z</time>
      </trkpt>
      <trkpt lat="33.81962" lon="77.52033">
        <ele>4151.4</ele>
        <time>2015-09-03T09:03:06Z</time>
      </trkpt>
      <trkpt lat="33.81949" lon="77.52049">
        <ele>4152.4</ele>
        <time>2015-09-03T09:03:23Z</time>
      </trkpt>
      <trkpt lat="33.81946" lon="77.52051">
        <ele>4152.8</ele>
        <time>2015-09-03T09:03:27Z</time>
      </trkpt>
      <trkpt lat="33.81944" lon="77.52054">
        <ele>4153.6</ele>
        <time>2015-09-03T09:03:32Z</time>
      </trkpt>
      <trkpt lat="33.81938" lon="77.52061">
        <ele>4154.6</ele>
        <time>2015-09-03T09:03:44Z</time>
      </trkpt>
      <trkpt lat="33.81932" lon="77.52068">
        <ele>4155.6</ele>
        <time>2015-09-03T09:04:00Z</time>
      </trkpt>
      <trkpt lat="33.81929" lon="77.5208">
        <ele>4156.6</ele>
        <time>2015-09-03T09:04:14Z</time>
      </trkpt>
      <trkpt lat="33.81927" lon="77.52084">
        <ele>4157.2</ele>
        <time>2015-09-03T09:04:18Z</time>
      </trkpt>
      <trkpt lat="33.81925" lon="77.52092">
        <ele>4157.8</ele>
        <time>2015-09-03T09:04:27Z</time>
      </trkpt>
      <trkpt lat="33.81918" lon="77.521">
        <ele>4158.6</ele>
        <time>2015-09-03T09:04:40Z</time>
      </trkpt>
      <trkpt lat="33.81911" lon="77.52108">
        <ele>4157.2</ele>
        <time>2015-09-03T09:04:51Z</time>
      </trkpt>
      <trkpt lat="33.8191" lon="77.52112">
        <ele>4156.4</ele>
        <time>2015-09-03T09:04:53Z</time>
      </trkpt>
      <trkpt lat="33.81909" lon="77.52118">
        <ele>4155.4</ele>
        <time>2015-09-03T09:04:57Z</time>
      </trkpt>
      <trkpt lat="33.81906" lon="77.52122">
        <ele>4154.8</ele>
        <time>2015-09-03T09:05:01Z</time>
      </trkpt>
      <trkpt lat="33.81904" lon="77.52126">
        <ele>4154.8</ele>
        <time>2015-09-03T09:05:03Z</time>
      </trkpt>
      <trkpt lat="33.81905" lon="77.5213">
        <ele>4154.6</ele>
        <time>2015-09-03T09:05:05Z</time>
      </trkpt>
      <trkpt lat="33.81905" lon="77.52131">
        <ele>4154.4</ele>
        <time>2015-09-03T09:05:07Z</time>
      </trkpt>
      <trkpt lat="33.81906" lon="77.52132">
        <ele>4154.4</ele>
        <time>2015-09-03T09:05:08Z</time>
      </trkpt>
      <trkpt lat="33.81898" lon="77.5213">
        <ele>4155.4</ele>
        <time>2015-09-03T09:05:21Z</time>
      </trkpt>
      <trkpt lat="33.81896" lon="77.52133">
        <ele>4156.4</ele>
        <time>2015-09-03T09:05:28Z</time>
      </trkpt>
      <trkpt lat="33.81898" lon="77.52141">
        <ele>4157.6</ele>
        <time>2015-09-03T09:05:39Z</time>
      </trkpt>
      <trkpt lat="33.81896" lon="77.52148">
        <ele>4158.6</ele>
        <time>2015-09-03T09:05:51Z</time>
      </trkpt>
      <trkpt lat="33.81891" lon="77.52154">
        <ele>4159</ele>
        <time>2015-09-03T09:05:59Z</time>
      </trkpt>
      <trkpt lat="33.81881" lon="77.52165">
        <ele>4159.2</ele>
        <time>2015-09-03T09:06:12Z</time>
      </trkpt>
      <trkpt lat="33.81873" lon="77.52171">
        <ele>4159.2</ele>
        <time>2015-09-03T09:06:24Z</time>
      </trkpt>
      <trkpt lat="33.81871" lon="77.52174">
        <ele>4159.2</ele>
        <time>2015-09-03T09:06:29Z</time>
      </trkpt>
      <trkpt lat="33.8186" lon="77.52177">
        <ele>4159.2</ele>
        <time>2015-09-03T09:06:43Z</time>
      </trkpt>
      <trkpt lat="33.81857" lon="77.52178">
        <ele>4159.2</ele>
        <time>2015-09-03T09:06:46Z</time>
      </trkpt>
      <trkpt lat="33.81854" lon="77.5218">
        <ele>4159.2</ele>
        <time>2015-09-03T09:06:49Z</time>
      </trkpt>
      <trkpt lat="33.81847" lon="77.52182">
        <ele>4159.6</ele>
        <time>2015-09-03T09:06:56Z</time>
      </trkpt>
      <trkpt lat="33.81844" lon="77.52183">
        <ele>4159.8</ele>
        <time>2015-09-03T09:06:58Z</time>
      </trkpt>
      <trkpt lat="33.81841" lon="77.52183">
        <ele>4160</ele>
        <time>2015-09-03T09:07:02Z</time>
      </trkpt>
      <trkpt lat="33.8184" lon="77.52183">
        <ele>4160.2</ele>
        <time>2015-09-03T09:07:04Z</time>
      </trkpt>
      <trkpt lat="33.81834" lon="77.52188">
        <ele>4160.4</ele>
        <time>2015-09-03T09:07:11Z</time>
      </trkpt>
      <trkpt lat="33.81834" lon="77.52185">
        <ele>4160.6</ele>
        <time>2015-09-03T09:07:12Z</time>
      </trkpt>
      <trkpt lat="33.81834" lon="77.52185">
        <ele>4161</ele>
        <time>2015-09-03T09:07:14Z</time>
      </trkpt>
      <trkpt lat="33.8183" lon="77.52187">
        <ele>4161.8</ele>
        <time>2015-09-03T09:07:21Z</time>
      </trkpt>
      <trkpt lat="33.8182" lon="77.52203">
        <ele>4162.2</ele>
        <time>2015-09-03T09:07:44Z</time>
      </trkpt>
      <trkpt lat="33.81818" lon="77.52206">
        <ele>4162</ele>
        <time>2015-09-03T09:07:46Z</time>
      </trkpt>
      <trkpt lat="33.81817" lon="77.5221">
        <ele>4162</ele>
        <time>2015-09-03T09:07:51Z</time>
      </trkpt>
      <trkpt lat="33.81812" lon="77.52216">
        <ele>4162</ele>
        <time>2015-09-03T09:07:57Z</time>
      </trkpt>
      <trkpt lat="33.81804" lon="77.52219">
        <ele>4162</ele>
        <time>2015-09-03T09:08:04Z</time>
      </trkpt>
      <trkpt lat="33.81796" lon="77.52224">
        <ele>4162.8</ele>
        <time>2015-09-03T09:08:13Z</time>
      </trkpt>
      <trkpt lat="33.81795" lon="77.52226">
        <ele>4163</ele>
        <time>2015-09-03T09:08:15Z</time>
      </trkpt>
      <trkpt lat="33.81794" lon="77.52226">
        <ele>4163.2</ele>
        <time>2015-09-03T09:08:17Z</time>
      </trkpt>
      <trkpt lat="33.81788" lon="77.52227">
        <ele>4163.8</ele>
        <time>2015-09-03T09:08:25Z</time>
      </trkpt>
      <trkpt lat="33.8178" lon="77.52234">
        <ele>4165</ele>
        <time>2015-09-03T09:08:38Z</time>
      </trkpt>
      <trkpt lat="33.81776" lon="77.52237">
        <ele>4165</ele>
        <time>2015-09-03T09:08:41Z</time>
      </trkpt>
      <trkpt lat="33.81767" lon="77.52256">
        <ele>4165.2</ele>
        <time>2015-09-03T09:08:51Z</time>
      </trkpt>
      <trkpt lat="33.81766" lon="77.52257">
        <ele>4165</ele>
        <time>2015-09-03T09:08:54Z</time>
      </trkpt>
      <trkpt lat="33.81761" lon="77.52261">
        <ele>4164.6</ele>
        <time>2015-09-03T09:09:01Z</time>
      </trkpt>
      <trkpt lat="33.81754" lon="77.52269">
        <ele>4165.2</ele>
        <time>2015-09-03T09:09:12Z</time>
      </trkpt>
      <trkpt lat="33.81751" lon="77.52271">
        <ele>4166</ele>
        <time>2015-09-03T09:09:17Z</time>
      </trkpt>
      <trkpt lat="33.81742" lon="77.5228">
        <ele>4167</ele>
        <time>2015-09-03T09:09:33Z</time>
      </trkpt>
      <trkpt lat="33.81737" lon="77.52284">
        <ele>4168.2</ele>
        <time>2015-09-03T09:09:41Z</time>
      </trkpt>
      <trkpt lat="33.81734" lon="77.52287">
        <ele>4168.6</ele>
        <time>2015-09-03T09:09:45Z</time>
      </trkpt>
      <trkpt lat="33.81731" lon="77.5229">
        <ele>4169.2</ele>
        <time>2015-09-03T09:09:49Z</time>
      </trkpt>
      <trkpt lat="33.81729" lon="77.52291">
        <ele>4169.2</ele>
        <time>2015-09-03T09:09:52Z</time>
      </trkpt>
      <trkpt lat="33.81722" lon="77.52302">
        <ele>4169.4</ele>
        <time>2015-09-03T09:10:07Z</time>
      </trkpt>
      <trkpt lat="33.81712" lon="77.52311">
        <ele>4170</ele>
        <time>2015-09-03T09:10:20Z</time>
      </trkpt>
      <trkpt lat="33.81701" lon="77.5232">
        <ele>4170.2</ele>
        <time>2015-09-03T09:10:35Z</time>
      </trkpt>
      <trkpt lat="33.8169" lon="77.52333">
        <ele>4171</ele>
        <time>2015-09-03T09:10:53Z</time>
      </trkpt>
      <trkpt lat="33.81684" lon="77.52336">
        <ele>4171.2</ele>
        <time>2015-09-03T09:11:00Z</time>
      </trkpt>
      <trkpt lat="33.81677" lon="77.5234">
        <ele>4172.4</ele>
        <time>2015-09-03T09:11:07Z</time>
      </trkpt>
      <trkpt lat="33.81664" lon="77.5235">
        <ele>4172.8</ele>
        <time>2015-09-03T09:11:19Z</time>
      </trkpt>
      <trkpt lat="33.8166" lon="77.52352">
        <ele>4172.6</ele>
        <time>2015-09-03T09:11:25Z</time>
      </trkpt>
      <trkpt lat="33.81657" lon="77.52354">
        <ele>4173.4</ele>
        <time>2015-09-03T09:11:31Z</time>
      </trkpt>
      <trkpt lat="33.81653" lon="77.52354">
        <ele>4174.6</ele>
        <time>2015-09-03T09:11:40Z</time>
      </trkpt>
      <trkpt lat="33.8165" lon="77.52354">
        <ele>4176</ele>
        <time>2015-09-03T09:11:45Z</time>
      </trkpt>
      <trkpt lat="33.81645" lon="77.52359">
        <ele>4176.2</ele>
        <time>2015-09-03T09:11:55Z</time>
      </trkpt>
      <trkpt lat="33.81641" lon="77.52362">
        <ele>4176.4</ele>
        <time>2015-09-03T09:11:59Z</time>
      </trkpt>
      <trkpt lat="33.81639" lon="77.52362">
        <ele>4176.2</ele>
        <time>2015-09-03T09:12:02Z</time>
      </trkpt>
      <trkpt lat="33.81634" lon="77.52367">
        <ele>4176.2</ele>
        <time>2015-09-03T09:12:09Z</time>
      </trkpt>
      <trkpt lat="33.8163" lon="77.52373">
        <ele>4176.4</ele>
        <time>2015-09-03T09:12:17Z</time>
      </trkpt>
      <trkpt lat="33.81626" lon="77.52377">
        <ele>4176.6</ele>
        <time>2015-09-03T09:12:22Z</time>
      </trkpt>
      <trkpt lat="33.81623" lon="77.52377">
        <ele>4177</ele>
        <time>2015-09-03T09:12:26Z</time>
      </trkpt>
      <trkpt lat="33.81612" lon="77.52381">
        <ele>4177.6</ele>
        <time>2015-09-03T09:12:39Z</time>
      </trkpt>
      <trkpt lat="33.81611" lon="77.52382">
        <ele>4177.4</ele>
        <time>2015-09-03T09:12:42Z</time>
      </trkpt>
      <trkpt lat="33.81609" lon="77.52383">
        <ele>4177</ele>
        <time>2015-09-03T09:12:45Z</time>
      </trkpt>
      <trkpt lat="33.81607" lon="77.52385">
        <ele>4176.8</ele>
        <time>2015-09-03T09:12:47Z</time>
      </trkpt>
      <trkpt lat="33.81595" lon="77.52404">
        <ele>4176.6</ele>
        <time>2015-09-03T09:13:06Z</time>
      </trkpt>
      <trkpt lat="33.81594" lon="77.52405">
        <ele>4176.6</ele>
        <time>2015-09-03T09:13:08Z</time>
      </trkpt>
      <trkpt lat="33.81593" lon="77.52406">
        <ele>4176.6</ele>
        <time>2015-09-03T09:13:10Z</time>
      </trkpt>
      <trkpt lat="33.81589" lon="77.52409">
        <ele>4176.6</ele>
        <time>2015-09-03T09:13:14Z</time>
      </trkpt>
      <trkpt lat="33.81585" lon="77.52418">
        <ele>4177.4</ele>
        <time>2015-09-03T09:13:23Z</time>
      </trkpt>
      <trkpt lat="33.81579" lon="77.52427">
        <ele>4178</ele>
        <time>2015-09-03T09:13:32Z</time>
      </trkpt>
      <trkpt lat="33.81578" lon="77.52428">
        <ele>4178.2</ele>
        <time>2015-09-03T09:13:33Z</time>
      </trkpt>
      <trkpt lat="33.81573" lon="77.52434">
        <ele>4178.8</ele>
        <time>2015-09-03T09:13:40Z</time>
      </trkpt>
      <trkpt lat="33.81571" lon="77.52437">
        <ele>4179.2</ele>
        <time>2015-09-03T09:13:44Z</time>
      </trkpt>
      <trkpt lat="33.81562" lon="77.5245">
        <ele>4180.2</ele>
        <time>2015-09-03T09:14:01Z</time>
      </trkpt>
      <trkpt lat="33.81557" lon="77.52458">
        <ele>4181.2</ele>
        <time>2015-09-03T09:14:16Z</time>
      </trkpt>
      <trkpt lat="33.81548" lon="77.52462">
        <ele>4182</ele>
        <time>2015-09-03T09:14:22Z</time>
      </trkpt>
      <trkpt lat="33.81546" lon="77.52465">
        <ele>4182.2</ele>
        <time>2015-09-03T09:14:25Z</time>
      </trkpt>
      <trkpt lat="33.81546" lon="77.52465">
        <ele>4182.2</ele>
        <time>2015-09-03T09:14:26Z</time>
      </trkpt>
      <trkpt lat="33.81534" lon="77.52483">
        <ele>4183.4</ele>
        <time>2015-09-03T09:14:50Z</time>
      </trkpt>
      <trkpt lat="33.81528" lon="77.52487">
        <ele>4184</ele>
        <time>2015-09-03T09:14:56Z</time>
      </trkpt>
      <trkpt lat="33.81526" lon="77.52489">
        <ele>4184.4</ele>
        <time>2015-09-03T09:14:58Z</time>
      </trkpt>
      <trkpt lat="33.81516" lon="77.52502">
        <ele>4185.4</ele>
        <time>2015-09-03T09:15:15Z</time>
      </trkpt>
      <trkpt lat="33.81512" lon="77.52513">
        <ele>4186.4</ele>
        <time>2015-09-03T09:15:27Z</time>
      </trkpt>
      <trkpt lat="33.81514" lon="77.52517">
        <ele>4186.6</ele>
        <time>2015-09-03T09:15:31Z</time>
      </trkpt>
      <trkpt lat="33.81508" lon="77.52522">
        <ele>4186.6</ele>
        <time>2015-09-03T09:15:45Z</time>
      </trkpt>
      <trkpt lat="33.81506" lon="77.52513">
        <ele>4186.6</ele>
        <time>2015-09-03T09:15:47Z</time>
      </trkpt>
      <trkpt lat="33.81502" lon="77.5248">
        <ele>4186.8</ele>
        <time>2015-09-03T09:15:50Z</time>
      </trkpt>
      <trkpt lat="33.81497" lon="77.52466">
        <ele>4187.4</ele>
        <time>2015-09-03T09:15:53Z</time>
      </trkpt>
      <trkpt lat="33.81496" lon="77.52466">
        <ele>4187.6</ele>
        <time>2015-09-03T09:15:54Z</time>
      </trkpt>
      <trkpt lat="33.81495" lon="77.52463">
        <ele>4187.6</ele>
        <time>2015-09-03T09:15:55Z</time>
      </trkpt>
      <trkpt lat="33.81487" lon="77.52442">
        <ele>4188.6</ele>
        <time>2015-09-03T09:15:59Z</time>
      </trkpt>
      <trkpt lat="33.81484" lon="77.52434">
        <ele>4189</ele>
        <time>2015-09-03T09:16:00Z</time>
      </trkpt>
      <trkpt lat="33.81485" lon="77.52416">
        <ele>4189.8</ele>
        <time>2015-09-03T09:16:04Z</time>
      </trkpt>
      <trkpt lat="33.81486" lon="77.52406">
        <ele>4190.8</ele>
        <time>2015-09-03T09:16:07Z</time>
      </trkpt>
      <trkpt lat="33.81487" lon="77.52398">
        <ele>4192</ele>
        <time>2015-09-03T09:16:11Z</time>
      </trkpt>
      <trkpt lat="33.81485" lon="77.52397">
        <ele>4192.2</ele>
        <time>2015-09-03T09:16:12Z</time>
      </trkpt>
      <trkpt lat="33.81485" lon="77.52396">
        <ele>4193.2</ele>
        <time>2015-09-03T09:16:16Z</time>
      </trkpt>
      <trkpt lat="33.81481" lon="77.5241">
        <ele>4194.4</ele>
        <time>2015-09-03T09:16:21Z</time>
      </trkpt>
      <trkpt lat="33.81474" lon="77.52426">
        <ele>4195.2</ele>
        <time>2015-09-03T09:16:24Z</time>
      </trkpt>
      <trkpt lat="33.81471" lon="77.5243">
        <ele>4195.6</ele>
        <time>2015-09-03T09:16:25Z</time>
      </trkpt>
      <trkpt lat="33.81497" lon="77.52549">
        <ele>4196.2</ele>
        <time>2015-09-03T09:16:28Z</time>
      </trkpt>
      <trkpt lat="33.81492" lon="77.52553">
        <ele>4196.6</ele>
        <time>2015-09-03T09:16:29Z</time>
      </trkpt>
      <trkpt lat="33.81488" lon="77.52557">
        <ele>4197.2</ele>
        <time>2015-09-03T09:16:31Z</time>
      </trkpt>
      <trkpt lat="33.81484" lon="77.5256">
        <ele>4197.6</ele>
        <time>2015-09-03T09:16:33Z</time>
      </trkpt>
      <trkpt lat="33.81481" lon="77.52561">
        <ele>4197.8</ele>
        <time>2015-09-03T09:16:34Z</time>
      </trkpt>
      <trkpt lat="33.81473" lon="77.52564">
        <ele>4198.6</ele>
        <time>2015-09-03T09:16:39Z</time>
      </trkpt>
      <trkpt lat="33.81469" lon="77.52566">
        <ele>4199.8</ele>
        <time>2015-09-03T09:16:42Z</time>
      </trkpt>
      <trkpt lat="33.81469" lon="77.52565">
        <ele>4200</ele>
        <time>2015-09-03T09:16:43Z</time>
      </trkpt>
      <trkpt lat="33.81469" lon="77.52561">
        <ele>4201</ele>
        <time>2015-09-03T09:16:46Z</time>
      </trkpt>
      <trkpt lat="33.81467" lon="77.52562">
        <ele>4201.4</ele>
        <time>2015-09-03T09:16:49Z</time>
      </trkpt>
      <trkpt lat="33.81462" lon="77.52566">
        <ele>4201.6</ele>
        <time>2015-09-03T09:16:55Z</time>
      </trkpt>
      <trkpt lat="33.81462" lon="77.5257">
        <ele>4202.2</ele>
        <time>2015-09-03T09:16:59Z</time>
      </trkpt>
      <trkpt lat="33.81458" lon="77.52573">
        <ele>4202.8</ele>
        <time>2015-09-03T09:17:05Z</time>
      </trkpt>
      <trkpt lat="33.81457" lon="77.52575">
        <ele>4203</ele>
        <time>2015-09-03T09:17:08Z</time>
      </trkpt>
      <trkpt lat="33.81457" lon="77.52576">
        <ele>4203.2</ele>
        <time>2015-09-03T09:17:10Z</time>
      </trkpt>
      <trkpt lat="33.81455" lon="77.52595">
        <ele>4204.4</ele>
        <time>2015-09-03T09:17:29Z</time>
      </trkpt>
      <trkpt lat="33.81453" lon="77.52595">
        <ele>4204.6</ele>
        <time>2015-09-03T09:17:30Z</time>
      </trkpt>
      <trkpt lat="33.81452" lon="77.52596">
        <ele>4204.8</ele>
        <time>2015-09-03T09:17:32Z</time>
      </trkpt>
      <trkpt lat="33.81443" lon="77.52609">
        <ele>4205.2</ele>
        <time>2015-09-03T09:17:50Z</time>
      </trkpt>
      <trkpt lat="33.81441" lon="77.52611">
        <ele>4205.6</ele>
        <time>2015-09-03T09:17:52Z</time>
      </trkpt>
      <trkpt lat="33.81432" lon="77.5263">
        <ele>4205.4</ele>
        <time>2015-09-03T09:18:13Z</time>
      </trkpt>
      <trkpt lat="33.81431" lon="77.52632">
        <ele>4205.6</ele>
        <time>2015-09-03T09:18:15Z</time>
      </trkpt>
      <trkpt lat="33.81423" lon="77.52637">
        <ele>4206.2</ele>
        <time>2015-09-03T09:18:25Z</time>
      </trkpt>
      <trkpt lat="33.81421" lon="77.52639">
        <ele>4206.6</ele>
        <time>2015-09-03T09:18:27Z</time>
      </trkpt>
      <trkpt lat="33.81411" lon="77.52654">
        <ele>4206.8</ele>
        <time>2015-09-03T09:18:46Z</time>
      </trkpt>
      <trkpt lat="33.81405" lon="77.52661">
        <ele>4207.4</ele>
        <time>2015-09-03T09:18:57Z</time>
      </trkpt>
      <trkpt lat="33.81403" lon="77.52663">
        <ele>4207.8</ele>
        <time>2015-09-03T09:19:00Z</time>
      </trkpt>
      <trkpt lat="33.81402" lon="77.52665">
        <ele>4208.8</ele>
        <time>2015-09-03T09:19:04Z</time>
      </trkpt>
      <trkpt lat="33.81397" lon="77.52667">
        <ele>4209.8</ele>
        <time>2015-09-03T09:19:13Z</time>
      </trkpt>
      <trkpt lat="33.81393" lon="77.5267">
        <ele>4210.8</ele>
        <time>2015-09-03T09:19:19Z</time>
      </trkpt>
      <trkpt lat="33.81393" lon="77.5267">
        <ele>4210.8</ele>
        <time>2015-09-03T09:19:20Z</time>
      </trkpt>
      <trkpt lat="33.81389" lon="77.52677">
        <ele>4210.6</ele>
        <time>2015-09-03T09:19:30Z</time>
      </trkpt>
      <trkpt lat="33.81386" lon="77.52682">
        <ele>4210.4</ele>
        <time>2015-09-03T09:19:34Z</time>
      </trkpt>
      <trkpt lat="33.81382" lon="77.52702">
        <ele>4210.4</ele>
        <time>2015-09-03T09:19:53Z</time>
      </trkpt>
      <trkpt lat="33.81379" lon="77.52707">
        <ele>4210.8</ele>
        <time>2015-09-03T09:20:00Z</time>
      </trkpt>
      <trkpt lat="33.81374" lon="77.5271">
        <ele>4210.6</ele>
        <time>2015-09-03T09:20:04Z</time>
      </trkpt>
      <trkpt lat="33.81364" lon="77.52728">
        <ele>4211.2</ele>
        <time>2015-09-03T09:20:27Z</time>
      </trkpt>
      <trkpt lat="33.81363" lon="77.52729">
        <ele>4211.4</ele>
        <time>2015-09-03T09:20:28Z</time>
      </trkpt>
      <trkpt lat="33.81359" lon="77.52731">
        <ele>4212</ele>
        <time>2015-09-03T09:20:32Z</time>
      </trkpt>
      <trkpt lat="33.81358" lon="77.52734">
        <ele>4212.4</ele>
        <time>2015-09-03T09:20:35Z</time>
      </trkpt>
      <trkpt lat="33.81355" lon="77.52739">
        <ele>4212.4</ele>
        <time>2015-09-03T09:20:39Z</time>
      </trkpt>
      <trkpt lat="33.81352" lon="77.52743">
        <ele>4213</ele>
        <time>2015-09-03T09:20:45Z</time>
      </trkpt>
      <trkpt lat="33.81352" lon="77.52744">
        <ele>4213</ele>
        <time>2015-09-03T09:20:46Z</time>
      </trkpt>
      <trkpt lat="33.81352" lon="77.52745">
        <ele>4213</ele>
        <time>2015-09-03T09:20:48Z</time>
      </trkpt>
      <trkpt lat="33.81344" lon="77.52757">
        <ele>4213.4</ele>
        <time>2015-09-03T09:21:03Z</time>
      </trkpt>
      <trkpt lat="33.81342" lon="77.52764">
        <ele>4213.8</ele>
        <time>2015-09-03T09:21:11Z</time>
      </trkpt>
      <trkpt lat="33.81342" lon="77.52766">
        <ele>4214</ele>
        <time>2015-09-03T09:21:14Z</time>
      </trkpt>
      <trkpt lat="33.81335" lon="77.52781">
        <ele>4215</ele>
        <time>2015-09-03T09:21:32Z</time>
      </trkpt>
      <trkpt lat="33.81333" lon="77.52784">
        <ele>4215</ele>
        <time>2015-09-03T09:21:35Z</time>
      </trkpt>
      <trkpt lat="33.81332" lon="77.52794">
        <ele>4215.8</ele>
        <time>2015-09-03T09:21:45Z</time>
      </trkpt>
      <trkpt lat="33.81332" lon="77.52797">
        <ele>4216</ele>
        <time>2015-09-03T09:21:49Z</time>
      </trkpt>
      <trkpt lat="33.81332" lon="77.52803">
        <ele>4216.6</ele>
        <time>2015-09-03T09:21:56Z</time>
      </trkpt>
      <trkpt lat="33.81332" lon="77.52809">
        <ele>4217.2</ele>
        <time>2015-09-03T09:22:05Z</time>
      </trkpt>
      <trkpt lat="33.81331" lon="77.52815">
        <ele>4218.2</ele>
        <time>2015-09-03T09:22:15Z</time>
      </trkpt>
      <trkpt lat="33.81331" lon="77.52822">
        <ele>4218.4</ele>
        <time>2015-09-03T09:22:22Z</time>
      </trkpt>
      <trkpt lat="33.8133" lon="77.52838">
        <ele>4218.8</ele>
        <time>2015-09-03T09:22:39Z</time>
      </trkpt>
      <trkpt lat="33.81321" lon="77.52854">
        <ele>4219</ele>
        <time>2015-09-03T09:22:55Z</time>
      </trkpt>
      <trkpt lat="33.81319" lon="77.52859">
        <ele>4219.2</ele>
        <time>2015-09-03T09:23:00Z</time>
      </trkpt>
      <trkpt lat="33.8131" lon="77.52873">
        <ele>4218.2</ele>
        <time>2015-09-03T09:23:28Z</time>
      </trkpt>
      <trkpt lat="33.81307" lon="77.5288">
        <ele>4217.8</ele>
        <time>2015-09-03T09:23:32Z</time>
      </trkpt>
      <trkpt lat="33.81305" lon="77.52879">
        <ele>4217.8</ele>
        <time>2015-09-03T09:23:36Z</time>
      </trkpt>
      <trkpt lat="33.81298" lon="77.52886">
        <ele>4217</ele>
        <time>2015-09-03T09:23:50Z</time>
      </trkpt>
      <trkpt lat="33.81291" lon="77.5289">
        <ele>4216</ele>
        <time>2015-09-03T09:23:58Z</time>
      </trkpt>
      <trkpt lat="33.81282" lon="77.52897">
        <ele>4214.8</ele>
        <time>2015-09-03T09:24:08Z</time>
      </trkpt>
      <trkpt lat="33.81267" lon="77.52899">
        <ele>4215</ele>
        <time>2015-09-03T09:24:23Z</time>
      </trkpt>
      <trkpt lat="33.81253" lon="77.52904">
        <ele>4216</ele>
        <time>2015-09-03T09:24:51Z</time>
      </trkpt>
      <trkpt lat="33.8125" lon="77.52904">
        <ele>4217.2</ele>
        <time>2015-09-03T09:25:13Z</time>
      </trkpt>
      <trkpt lat="33.81242" lon="77.5291">
        <ele>4218.2</ele>
        <time>2015-09-03T09:25:27Z</time>
      </trkpt>
      <trkpt lat="33.81242" lon="77.52913">
        <ele>4219.4</ele>
        <time>2015-09-03T09:25:36Z</time>
      </trkpt>
      <trkpt lat="33.8124" lon="77.52916">
        <ele>4219.2</ele>
        <time>2015-09-03T09:25:40Z</time>
      </trkpt>
      <trkpt lat="33.8124" lon="77.52915">
        <ele>4218.8</ele>
        <time>2015-09-03T09:25:42Z</time>
      </trkpt>
      <trkpt lat="33.8124" lon="77.52913">
        <ele>4220.4</ele>
        <time>2015-09-03T09:26:28Z</time>
      </trkpt>
      <trkpt lat="33.81238" lon="77.52918">
        <ele>4220.2</ele>
        <time>2015-09-03T09:26:39Z</time>
      </trkpt>
      <trkpt lat="33.81239" lon="77.52916">
        <ele>4220.4</ele>
        <time>2015-09-03T09:26:56Z</time>
      </trkpt>
      <trkpt lat="33.81239" lon="77.52916">
        <ele>4220.6</ele>
        <time>2015-09-03T09:26:58Z</time>
      </trkpt>
      <trkpt lat="33.81226" lon="77.52924">
        <ele>4220.8</ele>
        <time>2015-09-03T09:27:12Z</time>
      </trkpt>
      <trkpt lat="33.81221" lon="77.52932">
        <ele>4221.2</ele>
        <time>2015-09-03T09:27:26Z</time>
      </trkpt>
      <trkpt lat="33.81219" lon="77.52936">
        <ele>4221.4</ele>
        <time>2015-09-03T09:27:28Z</time>
      </trkpt>
      <trkpt lat="33.81219" lon="77.52936">
        <ele>4221.6</ele>
        <time>2015-09-03T09:27:29Z</time>
      </trkpt>
      <trkpt lat="33.81218" lon="77.52943">
        <ele>4222.6</ele>
        <time>2015-09-03T09:27:36Z</time>
      </trkpt>
      <trkpt lat="33.81217" lon="77.52951">
        <ele>4223.6</ele>
        <time>2015-09-03T09:27:45Z</time>
      </trkpt>
      <trkpt lat="33.81213" lon="77.52954">
        <ele>4224.6</ele>
        <time>2015-09-03T09:27:52Z</time>
      </trkpt>
      <trkpt lat="33.81213" lon="77.52955">
        <ele>4224.6</ele>
        <time>2015-09-03T09:27:53Z</time>
      </trkpt>
      <trkpt lat="33.81212" lon="77.52962">
        <ele>4224</ele>
        <time>2015-09-03T09:28:00Z</time>
      </trkpt>
      <trkpt lat="33.81212" lon="77.52964">
        <ele>4223.6</ele>
        <time>2015-09-03T09:28:02Z</time>
      </trkpt>
      <trkpt lat="33.81209" lon="77.52978">
        <ele>4222.4</ele>
        <time>2015-09-03T09:28:20Z</time>
      </trkpt>
      <trkpt lat="33.81221" lon="77.52999">
        <ele>4221.2</ele>
        <time>2015-09-03T09:28:38Z</time>
      </trkpt>
      <trkpt lat="33.81222" lon="77.53004">
        <ele>4221</ele>
        <time>2015-09-03T09:28:43Z</time>
      </trkpt>
      <trkpt lat="33.81224" lon="77.53006">
        <ele>4221</ele>
        <time>2015-09-03T09:28:46Z</time>
      </trkpt>
      <trkpt lat="33.81221" lon="77.53013">
        <ele>4221.8</ele>
        <time>2015-09-03T09:28:56Z</time>
      </trkpt>
      <trkpt lat="33.81218" lon="77.53021">
        <ele>4222.4</ele>
        <time>2015-09-03T09:29:04Z</time>
      </trkpt>
      <trkpt lat="33.81218" lon="77.53022">
        <ele>4222.6</ele>
        <time>2015-09-03T09:29:05Z</time>
      </trkpt>
      <trkpt lat="33.8122" lon="77.53031">
        <ele>4223.4</ele>
        <time>2015-09-03T09:29:17Z</time>
      </trkpt>
      <trkpt lat="33.81217" lon="77.53037">
        <ele>4224.6</ele>
        <time>2015-09-03T09:29:24Z</time>
      </trkpt>
      <trkpt lat="33.81216" lon="77.53038">
        <ele>4224.8</ele>
        <time>2015-09-03T09:29:25Z</time>
      </trkpt>
      <trkpt lat="33.81216" lon="77.53041">
        <ele>4225</ele>
        <time>2015-09-03T09:29:27Z</time>
      </trkpt>
      <trkpt lat="33.81215" lon="77.53046">
        <ele>4225.6</ele>
        <time>2015-09-03T09:29:32Z</time>
      </trkpt>
      <trkpt lat="33.81214" lon="77.53049">
        <ele>4225.8</ele>
        <time>2015-09-03T09:29:36Z</time>
      </trkpt>
      <trkpt lat="33.81213" lon="77.53055">
        <ele>4226.6</ele>
        <time>2015-09-03T09:29:41Z</time>
      </trkpt>
      <trkpt lat="33.81211" lon="77.53059">
        <ele>4226.8</ele>
        <time>2015-09-03T09:29:44Z</time>
      </trkpt>
      <trkpt lat="33.81212" lon="77.53071">
        <ele>4227</ele>
        <time>2015-09-03T09:29:55Z</time>
      </trkpt>
      <trkpt lat="33.81205" lon="77.53082">
        <ele>4227.4</ele>
        <time>2015-09-03T09:30:07Z</time>
      </trkpt>
      <trkpt lat="33.81205" lon="77.53084">
        <ele>4227.6</ele>
        <time>2015-09-03T09:30:09Z</time>
      </trkpt>
      <trkpt lat="33.81203" lon="77.53092">
        <ele>4229</ele>
        <time>2015-09-03T09:30:17Z</time>
      </trkpt>
      <trkpt lat="33.81203" lon="77.53093">
        <ele>4229.6</ele>
        <time>2015-09-03T09:30:19Z</time>
      </trkpt>
      <trkpt lat="33.81198" lon="77.53097">
        <ele>4229.2</ele>
        <time>2015-09-03T09:30:24Z</time>
      </trkpt>
      <trkpt lat="33.81198" lon="77.53105">
        <ele>4229.6</ele>
        <time>2015-09-03T09:30:34Z</time>
      </trkpt>
      <trkpt lat="33.81197" lon="77.53107">
        <ele>4230</ele>
        <time>2015-09-03T09:30:37Z</time>
      </trkpt>
      <trkpt lat="33.81195" lon="77.53111">
        <ele>4230.6</ele>
        <time>2015-09-03T09:30:41Z</time>
      </trkpt>
      <trkpt lat="33.81195" lon="77.53116">
        <ele>4230.8</ele>
        <time>2015-09-03T09:30:46Z</time>
      </trkpt>
      <trkpt lat="33.81197" lon="77.53118">
        <ele>4231.2</ele>
        <time>2015-09-03T09:30:48Z</time>
      </trkpt>
      <trkpt lat="33.81195" lon="77.53123">
        <ele>4232.2</ele>
        <time>2015-09-03T09:30:57Z</time>
      </trkpt>
      <trkpt lat="33.81201" lon="77.53127">
        <ele>4233.2</ele>
        <time>2015-09-03T09:31:03Z</time>
      </trkpt>
      <trkpt lat="33.81198" lon="77.53133">
        <ele>4234.2</ele>
        <time>2015-09-03T09:31:10Z</time>
      </trkpt>
      <trkpt lat="33.81188" lon="77.53138">
        <ele>4234.6</ele>
        <time>2015-09-03T09:31:17Z</time>
      </trkpt>
      <trkpt lat="33.81184" lon="77.53141">
        <ele>4235</ele>
        <time>2015-09-03T09:31:21Z</time>
      </trkpt>
      <trkpt lat="33.81182" lon="77.53144">
        <ele>4235.4</ele>
        <time>2015-09-03T09:31:26Z</time>
      </trkpt>
      <trkpt lat="33.8118" lon="77.53146">
        <ele>4235.4</ele>
        <time>2015-09-03T09:31:28Z</time>
      </trkpt>
      <trkpt lat="33.81181" lon="77.53152">
        <ele>4236</ele>
        <time>2015-09-03T09:31:34Z</time>
      </trkpt>
      <trkpt lat="33.81181" lon="77.53154">
        <ele>4236</ele>
        <time>2015-09-03T09:31:37Z</time>
      </trkpt>
      <trkpt lat="33.81182" lon="77.53158">
        <ele>4236.2</ele>
        <time>2015-09-03T09:31:41Z</time>
      </trkpt>
      <trkpt lat="33.81182" lon="77.5316">
        <ele>4236.2</ele>
        <time>2015-09-03T09:31:42Z</time>
      </trkpt>
      <trkpt lat="33.81182" lon="77.5316">
        <ele>4236.4</ele>
        <time>2015-09-03T09:31:43Z</time>
      </trkpt>
      <trkpt lat="33.81181" lon="77.53161">
        <ele>4236.4</ele>
        <time>2015-09-03T09:31:44Z</time>
      </trkpt>
      <trkpt lat="33.81171" lon="77.5318">
        <ele>4237.2</ele>
        <time>2015-09-03T09:32:07Z</time>
      </trkpt>
      <trkpt lat="33.81172" lon="77.53182">
        <ele>4237.4</ele>
        <time>2015-09-03T09:32:10Z</time>
      </trkpt>
      <trkpt lat="33.81175" lon="77.53191">
        <ele>4238</ele>
        <time>2015-09-03T09:32:19Z</time>
      </trkpt>
      <trkpt lat="33.81176" lon="77.53193">
        <ele>4238</ele>
        <time>2015-09-03T09:32:21Z</time>
      </trkpt>
      <trkpt lat="33.81177" lon="77.53195">
        <ele>4238.2</ele>
        <time>2015-09-03T09:32:23Z</time>
      </trkpt>
      <trkpt lat="33.81177" lon="77.53197">
        <ele>4238.4</ele>
        <time>2015-09-03T09:32:25Z</time>
      </trkpt>
      <trkpt lat="33.81177" lon="77.532">
        <ele>4238.6</ele>
        <time>2015-09-03T09:32:27Z</time>
      </trkpt>
      <trkpt lat="33.81179" lon="77.53204">
        <ele>4239</ele>
        <time>2015-09-03T09:32:31Z</time>
      </trkpt>
      <trkpt lat="33.81179" lon="77.53206">
        <ele>4239.2</ele>
        <time>2015-09-03T09:32:33Z</time>
      </trkpt>
      <trkpt lat="33.81173" lon="77.53215">
        <ele>4239.4</ele>
        <time>2015-09-03T09:32:42Z</time>
      </trkpt>
      <trkpt lat="33.81173" lon="77.53218">
        <ele>4239.6</ele>
        <time>2015-09-03T09:32:45Z</time>
      </trkpt>
      <trkpt lat="33.81173" lon="77.53228">
        <ele>4240.6</ele>
        <time>2015-09-03T09:33:00Z</time>
      </trkpt>
      <trkpt lat="33.81171" lon="77.53236">
        <ele>4241</ele>
        <time>2015-09-03T09:33:06Z</time>
      </trkpt>
      <trkpt lat="33.81171" lon="77.5324">
        <ele>4241.4</ele>
        <time>2015-09-03T09:33:10Z</time>
      </trkpt>
      <trkpt lat="33.81169" lon="77.53243">
        <ele>4241.8</ele>
        <time>2015-09-03T09:33:13Z</time>
      </trkpt>
      <trkpt lat="33.81171" lon="77.53247">
        <ele>4242</ele>
        <time>2015-09-03T09:33:17Z</time>
      </trkpt>
      <trkpt lat="33.81171" lon="77.5326">
        <ele>4242.8</ele>
        <time>2015-09-03T09:33:31Z</time>
      </trkpt>
      <trkpt lat="33.81167" lon="77.53268">
        <ele>4243.6</ele>
        <time>2015-09-03T09:33:39Z</time>
      </trkpt>
      <trkpt lat="33.81168" lon="77.53277">
        <ele>4243.6</ele>
        <time>2015-09-03T09:33:47Z</time>
      </trkpt>
      <trkpt lat="33.81167" lon="77.5328">
        <ele>4244</ele>
        <time>2015-09-03T09:33:51Z</time>
      </trkpt>
      <trkpt lat="33.81162" lon="77.53284">
        <ele>4244.6</ele>
        <time>2015-09-03T09:33:55Z</time>
      </trkpt>
      <trkpt lat="33.81161" lon="77.53287">
        <ele>4244.8</ele>
        <time>2015-09-03T09:33:58Z</time>
      </trkpt>
      <trkpt lat="33.81154" lon="77.53296">
        <ele>4245.2</ele>
        <time>2015-09-03T09:34:05Z</time>
      </trkpt>
      <trkpt lat="33.81152" lon="77.53303">
        <ele>4246.2</ele>
        <time>2015-09-03T09:34:12Z</time>
      </trkpt>
      <trkpt lat="33.81152" lon="77.53319">
        <ele>4247.2</ele>
        <time>2015-09-03T09:34:29Z</time>
      </trkpt>
      <trkpt lat="33.81154" lon="77.53323">
        <ele>4247.6</ele>
        <time>2015-09-03T09:34:33Z</time>
      </trkpt>
      <trkpt lat="33.81155" lon="77.53325">
        <ele>4247.8</ele>
        <time>2015-09-03T09:34:35Z</time>
      </trkpt>
      <trkpt lat="33.8116" lon="77.53332">
        <ele>4247.6</ele>
        <time>2015-09-03T09:34:44Z</time>
      </trkpt>
      <trkpt lat="33.81161" lon="77.53333">
        <ele>4247.4</ele>
        <time>2015-09-03T09:34:45Z</time>
      </trkpt>
      <trkpt lat="33.81163" lon="77.53336">
        <ele>4247.4</ele>
        <time>2015-09-03T09:34:48Z</time>
      </trkpt>
      <trkpt lat="33.8116" lon="77.53339">
        <ele>4248</ele>
        <time>2015-09-03T09:34:53Z</time>
      </trkpt>
      <trkpt lat="33.81161" lon="77.53341">
        <ele>4248.2</ele>
        <time>2015-09-03T09:34:56Z</time>
      </trkpt>
      <trkpt lat="33.81167" lon="77.53346">
        <ele>4247.6</ele>
        <time>2015-09-03T09:35:02Z</time>
      </trkpt>
      <trkpt lat="33.81169" lon="77.53348">
        <ele>4247.6</ele>
        <time>2015-09-03T09:35:05Z</time>
      </trkpt>
      <trkpt lat="33.8117" lon="77.53353">
        <ele>4247.4</ele>
        <time>2015-09-03T09:35:10Z</time>
      </trkpt>
      <trkpt lat="33.81162" lon="77.53358">
        <ele>4210.2</ele>
        <time>2015-09-03T09:35:31Z</time>
      </trkpt>
    </trkseg>
  </trk>
  <trk>
    <name><![CDATA[Camp de Tachungste (4250m) - Camp de Nimaling (4800m)]]></name>
    <trkseg>
      <trkpt lat="33.81153" lon="77.53362">
        <ele>4236.2</ele>
        <time>2015-09-04T02:42:52Z</time>
      </trkpt>
      <trkpt lat="33.81154" lon="77.53371">
        <ele>4236.2</ele>
        <time>2015-09-04T02:43:03Z</time>
      </trkpt>
      <trkpt lat="33.81153" lon="77.53375">
        <ele>4236.2</ele>
        <time>2015-09-04T02:43:06Z</time>
      </trkpt>
      <trkpt lat="33.8115" lon="77.53388">
        <ele>4237.2</ele>
        <time>2015-09-04T02:43:25Z</time>
      </trkpt>
      <trkpt lat="33.8115" lon="77.53397">
        <ele>4237.8</ele>
        <time>2015-09-04T02:43:37Z</time>
      </trkpt>
      <trkpt lat="33.8115" lon="77.53409">
        <ele>4238.2</ele>
        <time>2015-09-04T02:43:59Z</time>
      </trkpt>
      <trkpt lat="33.8115" lon="77.53415">
        <ele>4238.8</ele>
        <time>2015-09-04T02:44:03Z</time>
      </trkpt>
      <trkpt lat="33.81147" lon="77.53426">
        <ele>4238.8</ele>
        <time>2015-09-04T02:44:12Z</time>
      </trkpt>
      <trkpt lat="33.81146" lon="77.53426">
        <ele>4239</ele>
        <time>2015-09-04T02:44:33Z</time>
      </trkpt>
      <trkpt lat="33.81146" lon="77.53432">
        <ele>4239.4</ele>
        <time>2015-09-04T02:44:40Z</time>
      </trkpt>
      <trkpt lat="33.81146" lon="77.53438">
        <ele>4239.6</ele>
        <time>2015-09-04T02:44:46Z</time>
      </trkpt>
      <trkpt lat="33.81145" lon="77.53447">
        <ele>4240.4</ele>
        <time>2015-09-04T02:44:55Z</time>
      </trkpt>
      <trkpt lat="33.81143" lon="77.53453">
        <ele>4241.6</ele>
        <time>2015-09-04T02:45:04Z</time>
      </trkpt>
      <trkpt lat="33.81145" lon="77.5347">
        <ele>4242.4</ele>
        <time>2015-09-04T02:45:15Z</time>
      </trkpt>
      <trkpt lat="33.81146" lon="77.53472">
        <ele>4242.6</ele>
        <time>2015-09-04T02:45:18Z</time>
      </trkpt>
      <trkpt lat="33.81144" lon="77.53481">
        <ele>4243.6</ele>
        <time>2015-09-04T02:45:34Z</time>
      </trkpt>
      <trkpt lat="33.81143" lon="77.53483">
        <ele>4243.8</ele>
        <time>2015-09-04T02:45:36Z</time>
      </trkpt>
      <trkpt lat="33.81142" lon="77.53498">
        <ele>4244.4</ele>
        <time>2015-09-04T02:45:57Z</time>
      </trkpt>
      <trkpt lat="33.81142" lon="77.53501">
        <ele>4244.6</ele>
        <time>2015-09-04T02:46:03Z</time>
      </trkpt>
      <trkpt lat="33.81141" lon="77.53512">
        <ele>4245.6</ele>
        <time>2015-09-04T02:46:14Z</time>
      </trkpt>
      <trkpt lat="33.81141" lon="77.53519">
        <ele>4245.4</ele>
        <time>2015-09-04T02:46:20Z</time>
      </trkpt>
      <trkpt lat="33.81141" lon="77.53522">
        <ele>4245.6</ele>
        <time>2015-09-04T02:46:23Z</time>
      </trkpt>
      <trkpt lat="33.81141" lon="77.53523">
        <ele>4245.8</ele>
        <time>2015-09-04T02:46:24Z</time>
      </trkpt>
      <trkpt lat="33.81141" lon="77.53533">
        <ele>4246.8</ele>
        <time>2015-09-04T02:46:36Z</time>
      </trkpt>
      <trkpt lat="33.8114" lon="77.53537">
        <ele>4247.6</ele>
        <time>2015-09-04T02:46:42Z</time>
      </trkpt>
      <trkpt lat="33.81139" lon="77.53541">
        <ele>4247.8</ele>
        <time>2015-09-04T02:46:48Z</time>
      </trkpt>
      <trkpt lat="33.81139" lon="77.5356">
        <ele>4248.8</ele>
        <time>2015-09-04T02:47:06Z</time>
      </trkpt>
      <trkpt lat="33.81142" lon="77.53569">
        <ele>4250</ele>
        <time>2015-09-04T02:47:13Z</time>
      </trkpt>
      <trkpt lat="33.81141" lon="77.53579">
        <ele>4251</ele>
        <time>2015-09-04T02:47:29Z</time>
      </trkpt>
      <trkpt lat="33.81141" lon="77.53587">
        <ele>4252</ele>
        <time>2015-09-04T02:47:40Z</time>
      </trkpt>
      <trkpt lat="33.81142" lon="77.53595">
        <ele>4253.2</ele>
        <time>2015-09-04T02:47:50Z</time>
      </trkpt>
      <trkpt lat="33.81141" lon="77.53603">
        <ele>4254.2</ele>
        <time>2015-09-04T02:48:04Z</time>
      </trkpt>
      <trkpt lat="33.81141" lon="77.53603">
        <ele>4254.6</ele>
        <time>2015-09-04T02:48:09Z</time>
      </trkpt>
      <trkpt lat="33.81142" lon="77.5361">
        <ele>4255.2</ele>
        <time>2015-09-04T02:48:16Z</time>
      </trkpt>
      <trkpt lat="33.81145" lon="77.53621">
        <ele>4256.2</ele>
        <time>2015-09-04T02:48:31Z</time>
      </trkpt>
      <trkpt lat="33.81149" lon="77.53633">
        <ele>4257.2</ele>
        <time>2015-09-04T02:48:45Z</time>
      </trkpt>
      <trkpt lat="33.81152" lon="77.53635">
        <ele>4257.4</ele>
        <time>2015-09-04T02:48:48Z</time>
      </trkpt>
      <trkpt lat="33.81145" lon="77.53639">
        <ele>4257.8</ele>
        <time>2015-09-04T02:48:54Z</time>
      </trkpt>
      <trkpt lat="33.81143" lon="77.53641">
        <ele>4258</ele>
        <time>2015-09-04T02:48:56Z</time>
      </trkpt>
      <trkpt lat="33.81142" lon="77.53643">
        <ele>4258</ele>
        <time>2015-09-04T02:48:58Z</time>
      </trkpt>
      <trkpt lat="33.81143" lon="77.53648">
        <ele>4258.4</ele>
        <time>2015-09-04T02:49:03Z</time>
      </trkpt>
      <trkpt lat="33.81143" lon="77.53656">
        <ele>4259.4</ele>
        <time>2015-09-04T02:49:16Z</time>
      </trkpt>
      <trkpt lat="33.81138" lon="77.5366">
        <ele>4260.4</ele>
        <time>2015-09-04T02:49:27Z</time>
      </trkpt>
      <trkpt lat="33.81132" lon="77.53662">
        <ele>4260.8</ele>
        <time>2015-09-04T02:49:34Z</time>
      </trkpt>
      <trkpt lat="33.81129" lon="77.5366">
        <ele>4261.2</ele>
        <time>2015-09-04T02:49:37Z</time>
      </trkpt>
      <trkpt lat="33.81127" lon="77.53659">
        <ele>4261.4</ele>
        <time>2015-09-04T02:49:39Z</time>
      </trkpt>
      <trkpt lat="33.81126" lon="77.5366">
        <ele>4262.4</ele>
        <time>2015-09-04T02:49:48Z</time>
      </trkpt>
      <trkpt lat="33.81121" lon="77.53672">
        <ele>4263.2</ele>
        <time>2015-09-04T02:49:57Z</time>
      </trkpt>
      <trkpt lat="33.81119" lon="77.53674">
        <ele>4263.2</ele>
        <time>2015-09-04T02:50:01Z</time>
      </trkpt>
      <trkpt lat="33.81118" lon="77.53674">
        <ele>4263.6</ele>
        <time>2015-09-04T02:50:03Z</time>
      </trkpt>
      <trkpt lat="33.81116" lon="77.53682">
        <ele>4264.6</ele>
        <time>2015-09-04T02:50:17Z</time>
      </trkpt>
      <trkpt lat="33.81116" lon="77.53682">
        <ele>4265.6</ele>
        <time>2015-09-04T02:50:27Z</time>
      </trkpt>
      <trkpt lat="33.81115" lon="77.53683">
        <ele>4265.8</ele>
        <time>2015-09-04T02:50:29Z</time>
      </trkpt>
      <trkpt lat="33.81111" lon="77.53688">
        <ele>4266.4</ele>
        <time>2015-09-04T02:50:37Z</time>
      </trkpt>
      <trkpt lat="33.81113" lon="77.5369">
        <ele>4266.6</ele>
        <time>2015-09-04T02:50:39Z</time>
      </trkpt>
      <trkpt lat="33.81116" lon="77.53703">
        <ele>4267.8</ele>
        <time>2015-09-04T02:50:51Z</time>
      </trkpt>
      <trkpt lat="33.81126" lon="77.53715">
        <ele>4268.2</ele>
        <time>2015-09-04T02:51:12Z</time>
      </trkpt>
      <trkpt lat="33.8113" lon="77.53723">
        <ele>4268.8</ele>
        <time>2015-09-04T02:51:26Z</time>
      </trkpt>
      <trkpt lat="33.81129" lon="77.53732">
        <ele>4269.8</ele>
        <time>2015-09-04T02:51:41Z</time>
      </trkpt>
      <trkpt lat="33.81138" lon="77.5374">
        <ele>4270.4</ele>
        <time>2015-09-04T02:51:59Z</time>
      </trkpt>
      <trkpt lat="33.8114" lon="77.53751">
        <ele>4271</ele>
        <time>2015-09-04T02:52:12Z</time>
      </trkpt>
      <trkpt lat="33.81139" lon="77.53752">
        <ele>4271.2</ele>
        <time>2015-09-04T02:52:14Z</time>
      </trkpt>
      <trkpt lat="33.81138" lon="77.53757">
        <ele>4272</ele>
        <time>2015-09-04T02:52:23Z</time>
      </trkpt>
      <trkpt lat="33.81135" lon="77.5376">
        <ele>4273</ele>
        <time>2015-09-04T02:52:32Z</time>
      </trkpt>
      <trkpt lat="33.81134" lon="77.53769">
        <ele>4274</ele>
        <time>2015-09-04T02:52:43Z</time>
      </trkpt>
      <trkpt lat="33.81133" lon="77.53774">
        <ele>4274.2</ele>
        <time>2015-09-04T02:52:47Z</time>
      </trkpt>
      <trkpt lat="33.81133" lon="77.53778">
        <ele>4274.6</ele>
        <time>2015-09-04T02:52:51Z</time>
      </trkpt>
      <trkpt lat="33.81133" lon="77.53781">
        <ele>4274.8</ele>
        <time>2015-09-04T02:52:54Z</time>
      </trkpt>
      <trkpt lat="33.81133" lon="77.53784">
        <ele>4275</ele>
        <time>2015-09-04T02:52:57Z</time>
      </trkpt>
      <trkpt lat="33.81143" lon="77.5379">
        <ele>4276.2</ele>
        <time>2015-09-04T02:53:22Z</time>
      </trkpt>
      <trkpt lat="33.81144" lon="77.5379">
        <ele>4276.6</ele>
        <time>2015-09-04T02:53:24Z</time>
      </trkpt>
      <trkpt lat="33.81145" lon="77.53795">
        <ele>4277.4</ele>
        <time>2015-09-04T02:53:33Z</time>
      </trkpt>
      <trkpt lat="33.81149" lon="77.53803">
        <ele>4278.4</ele>
        <time>2015-09-04T02:53:52Z</time>
      </trkpt>
      <trkpt lat="33.81152" lon="77.53809">
        <ele>4279</ele>
        <time>2015-09-04T02:54:14Z</time>
      </trkpt>
      <trkpt lat="33.81154" lon="77.53808">
        <ele>4279.4</ele>
        <time>2015-09-04T02:54:20Z</time>
      </trkpt>
      <trkpt lat="33.81157" lon="77.53807">
        <ele>4279.6</ele>
        <time>2015-09-04T02:54:41Z</time>
      </trkpt>
      <trkpt lat="33.81156" lon="77.53809">
        <ele>4279.6</ele>
        <time>2015-09-04T02:54:42Z</time>
      </trkpt>
      <trkpt lat="33.81155" lon="77.53816">
        <ele>4280.6</ele>
        <time>2015-09-04T02:55:01Z</time>
      </trkpt>
      <trkpt lat="33.81159" lon="77.53817">
        <ele>4280.8</ele>
        <time>2015-09-04T02:55:06Z</time>
      </trkpt>
      <trkpt lat="33.81153" lon="77.53821">
        <ele>4281.6</ele>
        <time>2015-09-04T02:55:14Z</time>
      </trkpt>
      <trkpt lat="33.81151" lon="77.53824">
        <ele>4281.8</ele>
        <time>2015-09-04T02:55:17Z</time>
      </trkpt>
      <trkpt lat="33.8115" lon="77.53825">
        <ele>4282.2</ele>
        <time>2015-09-04T02:55:21Z</time>
      </trkpt>
      <trkpt lat="33.81152" lon="77.53826">
        <ele>4282.4</ele>
        <time>2015-09-04T02:55:23Z</time>
      </trkpt>
      <trkpt lat="33.81152" lon="77.53829">
        <ele>4282.6</ele>
        <time>2015-09-04T02:55:25Z</time>
      </trkpt>
      <trkpt lat="33.81153" lon="77.5383">
        <ele>4282.8</ele>
        <time>2015-09-04T02:55:28Z</time>
      </trkpt>
      <trkpt lat="33.81163" lon="77.53831">
        <ele>4283.6</ele>
        <time>2015-09-04T02:55:37Z</time>
      </trkpt>
      <trkpt lat="33.81169" lon="77.53832">
        <ele>4284.6</ele>
        <time>2015-09-04T02:55:47Z</time>
      </trkpt>
      <trkpt lat="33.81177" lon="77.53834">
        <ele>4285.8</ele>
        <time>2015-09-04T02:55:59Z</time>
      </trkpt>
      <trkpt lat="33.81175" lon="77.53837">
        <ele>4286.8</ele>
        <time>2015-09-04T02:56:10Z</time>
      </trkpt>
      <trkpt lat="33.81171" lon="77.53841">
        <ele>4287.8</ele>
        <time>2015-09-04T02:56:26Z</time>
      </trkpt>
      <trkpt lat="33.81173" lon="77.53849">
        <ele>4288.8</ele>
        <time>2015-09-04T02:56:38Z</time>
      </trkpt>
      <trkpt lat="33.81182" lon="77.53853">
        <ele>4289.8</ele>
        <time>2015-09-04T02:56:51Z</time>
      </trkpt>
      <trkpt lat="33.81178" lon="77.5386">
        <ele>4290.6</ele>
        <time>2015-09-04T02:57:00Z</time>
      </trkpt>
      <trkpt lat="33.81176" lon="77.53862">
        <ele>4291</ele>
        <time>2015-09-04T02:57:03Z</time>
      </trkpt>
      <trkpt lat="33.81168" lon="77.53862">
        <ele>4292</ele>
        <time>2015-09-04T02:57:14Z</time>
      </trkpt>
      <trkpt lat="33.81165" lon="77.53865">
        <ele>4293</ele>
        <time>2015-09-04T02:57:23Z</time>
      </trkpt>
      <trkpt lat="33.81167" lon="77.5387">
        <ele>4294.2</ele>
        <time>2015-09-04T02:57:35Z</time>
      </trkpt>
      <trkpt lat="33.81171" lon="77.53877">
        <ele>4295.2</ele>
        <time>2015-09-04T02:57:44Z</time>
      </trkpt>
      <trkpt lat="33.81167" lon="77.53884">
        <ele>4295.8</ele>
        <time>2015-09-04T02:57:54Z</time>
      </trkpt>
      <trkpt lat="33.81166" lon="77.53887">
        <ele>4296.2</ele>
        <time>2015-09-04T02:57:59Z</time>
      </trkpt>
      <trkpt lat="33.81171" lon="77.53889">
        <ele>4297</ele>
        <time>2015-09-04T02:58:05Z</time>
      </trkpt>
      <trkpt lat="33.81173" lon="77.5389">
        <ele>4297.2</ele>
        <time>2015-09-04T02:58:09Z</time>
      </trkpt>
      <trkpt lat="33.81173" lon="77.53899">
        <ele>4298.4</ele>
        <time>2015-09-04T02:58:25Z</time>
      </trkpt>
      <trkpt lat="33.81177" lon="77.53903">
        <ele>4298.6</ele>
        <time>2015-09-04T02:58:33Z</time>
      </trkpt>
      <trkpt lat="33.81176" lon="77.53904">
        <ele>4298.8</ele>
        <time>2015-09-04T02:58:35Z</time>
      </trkpt>
      <trkpt lat="33.81174" lon="77.53912">
        <ele>4299.2</ele>
        <time>2015-09-04T02:58:45Z</time>
      </trkpt>
      <trkpt lat="33.81174" lon="77.53914">
        <ele>4299.4</ele>
        <time>2015-09-04T02:58:46Z</time>
      </trkpt>
      <trkpt lat="33.81173" lon="77.5392">
        <ele>4299.8</ele>
        <time>2015-09-04T02:58:52Z</time>
      </trkpt>
      <trkpt lat="33.81173" lon="77.53926">
        <ele>4300.4</ele>
        <time>2015-09-04T02:59:01Z</time>
      </trkpt>
      <trkpt lat="33.81168" lon="77.53929">
        <ele>4301.4</ele>
        <time>2015-09-04T02:59:13Z</time>
      </trkpt>
      <trkpt lat="33.81164" lon="77.53933">
        <ele>4302.4</ele>
        <time>2015-09-04T02:59:30Z</time>
      </trkpt>
      <trkpt lat="33.81166" lon="77.5394">
        <ele>4303.6</ele>
        <time>2015-09-04T02:59:41Z</time>
      </trkpt>
      <trkpt lat="33.81167" lon="77.5395">
        <ele>4304.8</ele>
        <time>2015-09-04T02:59:55Z</time>
      </trkpt>
      <trkpt lat="33.81167" lon="77.53954">
        <ele>4305.8</ele>
        <time>2015-09-04T03:00:05Z</time>
      </trkpt>
      <trkpt lat="33.81169" lon="77.5396">
        <ele>4306.8</ele>
        <time>2015-09-04T03:00:15Z</time>
      </trkpt>
      <trkpt lat="33.81171" lon="77.53966">
        <ele>4308</ele>
        <time>2015-09-04T03:00:25Z</time>
      </trkpt>
      <trkpt lat="33.81171" lon="77.53971">
        <ele>4309</ele>
        <time>2015-09-04T03:00:52Z</time>
      </trkpt>
      <trkpt lat="33.81172" lon="77.53976">
        <ele>4310</ele>
        <time>2015-09-04T03:01:02Z</time>
      </trkpt>
      <trkpt lat="33.81177" lon="77.5398">
        <ele>4311.2</ele>
        <time>2015-09-04T03:01:12Z</time>
      </trkpt>
      <trkpt lat="33.8118" lon="77.53983">
        <ele>4312.2</ele>
        <time>2015-09-04T03:01:28Z</time>
      </trkpt>
      <trkpt lat="33.8118" lon="77.53989">
        <ele>4313.2</ele>
        <time>2015-09-04T03:01:37Z</time>
      </trkpt>
      <trkpt lat="33.81179" lon="77.53997">
        <ele>4314.4</ele>
        <time>2015-09-04T03:01:49Z</time>
      </trkpt>
      <trkpt lat="33.81179" lon="77.54001">
        <ele>4315.4</ele>
        <time>2015-09-04T03:01:57Z</time>
      </trkpt>
      <trkpt lat="33.81179" lon="77.54005">
        <ele>4316.6</ele>
        <time>2015-09-04T03:02:08Z</time>
      </trkpt>
      <trkpt lat="33.8118" lon="77.54009">
        <ele>4317.6</ele>
        <time>2015-09-04T03:02:17Z</time>
      </trkpt>
      <trkpt lat="33.81178" lon="77.54016">
        <ele>4318.8</ele>
        <time>2015-09-04T03:02:29Z</time>
      </trkpt>
      <trkpt lat="33.81178" lon="77.54024">
        <ele>4319.8</ele>
        <time>2015-09-04T03:02:41Z</time>
      </trkpt>
      <trkpt lat="33.81177" lon="77.54033">
        <ele>4320.8</ele>
        <time>2015-09-04T03:02:53Z</time>
      </trkpt>
      <trkpt lat="33.81178" lon="77.54043">
        <ele>4321.8</ele>
        <time>2015-09-04T03:03:09Z</time>
      </trkpt>
      <trkpt lat="33.81176" lon="77.54047">
        <ele>4323</ele>
        <time>2015-09-04T03:03:16Z</time>
      </trkpt>
      <trkpt lat="33.81172" lon="77.5405">
        <ele>4324</ele>
        <time>2015-09-04T03:03:25Z</time>
      </trkpt>
      <trkpt lat="33.8117" lon="77.54055">
        <ele>4325</ele>
        <time>2015-09-04T03:03:34Z</time>
      </trkpt>
      <trkpt lat="33.81171" lon="77.54064">
        <ele>4326.2</ele>
        <time>2015-09-04T03:03:45Z</time>
      </trkpt>
      <trkpt lat="33.81171" lon="77.5407">
        <ele>4327.2</ele>
        <time>2015-09-04T03:03:56Z</time>
      </trkpt>
      <trkpt lat="33.81169" lon="77.54076">
        <ele>4328.2</ele>
        <time>2015-09-04T03:04:06Z</time>
      </trkpt>
      <trkpt lat="33.81167" lon="77.54083">
        <ele>4329</ele>
        <time>2015-09-04T03:04:14Z</time>
      </trkpt>
      <trkpt lat="33.81166" lon="77.54085">
        <ele>4329.4</ele>
        <time>2015-09-04T03:04:17Z</time>
      </trkpt>
      <trkpt lat="33.81169" lon="77.5409">
        <ele>4330.4</ele>
        <time>2015-09-04T03:04:27Z</time>
      </trkpt>
      <trkpt lat="33.81162" lon="77.54092">
        <ele>4331.4</ele>
        <time>2015-09-04T03:04:37Z</time>
      </trkpt>
      <trkpt lat="33.8116" lon="77.5409">
        <ele>4332.4</ele>
        <time>2015-09-04T03:04:45Z</time>
      </trkpt>
      <trkpt lat="33.8116" lon="77.54093">
        <ele>4333.4</ele>
        <time>2015-09-04T03:04:54Z</time>
      </trkpt>
      <trkpt lat="33.81158" lon="77.54094">
        <ele>4334.4</ele>
        <time>2015-09-04T03:05:02Z</time>
      </trkpt>
      <trkpt lat="33.81157" lon="77.54095">
        <ele>4334.6</ele>
        <time>2015-09-04T03:05:03Z</time>
      </trkpt>
      <trkpt lat="33.81155" lon="77.541">
        <ele>4335.8</ele>
        <time>2015-09-04T03:05:14Z</time>
      </trkpt>
      <trkpt lat="33.81154" lon="77.54105">
        <ele>4336.8</ele>
        <time>2015-09-04T03:05:22Z</time>
      </trkpt>
      <trkpt lat="33.81152" lon="77.54108">
        <ele>4337.8</ele>
        <time>2015-09-04T03:05:29Z</time>
      </trkpt>
      <trkpt lat="33.81146" lon="77.54115">
        <ele>4338.8</ele>
        <time>2015-09-04T03:05:44Z</time>
      </trkpt>
      <trkpt lat="33.81145" lon="77.54122">
        <ele>4340</ele>
        <time>2015-09-04T03:05:53Z</time>
      </trkpt>
      <trkpt lat="33.81147" lon="77.54127">
        <ele>4341</ele>
        <time>2015-09-04T03:06:02Z</time>
      </trkpt>
      <trkpt lat="33.81143" lon="77.5413">
        <ele>4342</ele>
        <time>2015-09-04T03:06:12Z</time>
      </trkpt>
      <trkpt lat="33.81141" lon="77.54133">
        <ele>4343.2</ele>
        <time>2015-09-04T03:06:21Z</time>
      </trkpt>
      <trkpt lat="33.8114" lon="77.54134">
        <ele>4344.2</ele>
        <time>2015-09-04T03:06:30Z</time>
      </trkpt>
      <trkpt lat="33.81133" lon="77.54135">
        <ele>4345.2</ele>
        <time>2015-09-04T03:06:42Z</time>
      </trkpt>
      <trkpt lat="33.81131" lon="77.54136">
        <ele>4346.4</ele>
        <time>2015-09-04T03:06:49Z</time>
      </trkpt>
      <trkpt lat="33.81127" lon="77.54138">
        <ele>4347.4</ele>
        <time>2015-09-04T03:06:58Z</time>
      </trkpt>
      <trkpt lat="33.81123" lon="77.54138">
        <ele>4348.6</ele>
        <time>2015-09-04T03:07:09Z</time>
      </trkpt>
      <trkpt lat="33.81119" lon="77.54142">
        <ele>4349.6</ele>
        <time>2015-09-04T03:07:18Z</time>
      </trkpt>
      <trkpt lat="33.81115" lon="77.54146">
        <ele>4350.8</ele>
        <time>2015-09-04T03:07:30Z</time>
      </trkpt>
      <trkpt lat="33.81112" lon="77.54147">
        <ele>4351.8</ele>
        <time>2015-09-04T03:07:39Z</time>
      </trkpt>
      <trkpt lat="33.8111" lon="77.54154">
        <ele>4352.8</ele>
        <time>2015-09-04T03:07:52Z</time>
      </trkpt>
      <trkpt lat="33.81107" lon="77.54158">
        <ele>4353.8</ele>
        <time>2015-09-04T03:08:00Z</time>
      </trkpt>
      <trkpt lat="33.81105" lon="77.54164">
        <ele>4355</ele>
        <time>2015-09-04T03:08:11Z</time>
      </trkpt>
      <trkpt lat="33.811" lon="77.54173">
        <ele>4356</ele>
        <time>2015-09-04T03:08:27Z</time>
      </trkpt>
      <trkpt lat="33.81093" lon="77.54174">
        <ele>4357</ele>
        <time>2015-09-04T03:08:39Z</time>
      </trkpt>
      <trkpt lat="33.81087" lon="77.54181">
        <ele>4358.2</ele>
        <time>2015-09-04T03:08:51Z</time>
      </trkpt>
      <trkpt lat="33.8108" lon="77.54187">
        <ele>4359.2</ele>
        <time>2015-09-04T03:09:04Z</time>
      </trkpt>
      <trkpt lat="33.81075" lon="77.54199">
        <ele>4360.2</ele>
        <time>2015-09-04T03:09:23Z</time>
      </trkpt>
      <trkpt lat="33.81071" lon="77.54206">
        <ele>4361.2</ele>
        <time>2015-09-04T03:09:34Z</time>
      </trkpt>
      <trkpt lat="33.81063" lon="77.54209">
        <ele>4362.4</ele>
        <time>2015-09-04T03:09:50Z</time>
      </trkpt>
      <trkpt lat="33.81058" lon="77.54219">
        <ele>4363.4</ele>
        <time>2015-09-04T03:10:04Z</time>
      </trkpt>
      <trkpt lat="33.81053" lon="77.54233">
        <ele>4364.4</ele>
        <time>2015-09-04T03:10:18Z</time>
      </trkpt>
      <trkpt lat="33.81052" lon="77.54247">
        <ele>4365.4</ele>
        <time>2015-09-04T03:10:34Z</time>
      </trkpt>
      <trkpt lat="33.8105" lon="77.54255">
        <ele>4366.6</ele>
        <time>2015-09-04T03:10:49Z</time>
      </trkpt>
      <trkpt lat="33.81048" lon="77.54258">
        <ele>4367.6</ele>
        <time>2015-09-04T03:11:00Z</time>
      </trkpt>
      <trkpt lat="33.81046" lon="77.54264">
        <ele>4368.6</ele>
        <time>2015-09-04T03:11:11Z</time>
      </trkpt>
      <trkpt lat="33.81044" lon="77.54272">
        <ele>4369.8</ele>
        <time>2015-09-04T03:11:23Z</time>
      </trkpt>
      <trkpt lat="33.81044" lon="77.54277">
        <ele>4371</ele>
        <time>2015-09-04T03:11:32Z</time>
      </trkpt>
      <trkpt lat="33.81042" lon="77.54285">
        <ele>4372</ele>
        <time>2015-09-04T03:11:43Z</time>
      </trkpt>
      <trkpt lat="33.81042" lon="77.54291">
        <ele>4373</ele>
        <time>2015-09-04T03:11:54Z</time>
      </trkpt>
      <trkpt lat="33.81041" lon="77.54296">
        <ele>4374</ele>
        <time>2015-09-04T03:12:05Z</time>
      </trkpt>
      <trkpt lat="33.81041" lon="77.54303">
        <ele>4375</ele>
        <time>2015-09-04T03:12:18Z</time>
      </trkpt>
      <trkpt lat="33.81039" lon="77.54308">
        <ele>4376</ele>
        <time>2015-09-04T03:12:30Z</time>
      </trkpt>
      <trkpt lat="33.81037" lon="77.54314">
        <ele>4377.2</ele>
        <time>2015-09-04T03:12:40Z</time>
      </trkpt>
      <trkpt lat="33.81035" lon="77.54317">
        <ele>4378.2</ele>
        <time>2015-09-04T03:12:48Z</time>
      </trkpt>
      <trkpt lat="33.81036" lon="77.54322">
        <ele>4379.2</ele>
        <time>2015-09-04T03:12:59Z</time>
      </trkpt>
      <trkpt lat="33.81035" lon="77.54327">
        <ele>4380.4</ele>
        <time>2015-09-04T03:13:09Z</time>
      </trkpt>
      <trkpt lat="33.81031" lon="77.54331">
        <ele>4381.4</ele>
        <time>2015-09-04T03:13:21Z</time>
      </trkpt>
      <trkpt lat="33.81028" lon="77.54334">
        <ele>4382.4</ele>
        <time>2015-09-04T03:13:30Z</time>
      </trkpt>
      <trkpt lat="33.81024" lon="77.54343">
        <ele>4383.6</ele>
        <time>2015-09-04T03:13:43Z</time>
      </trkpt>
      <trkpt lat="33.81021" lon="77.54346">
        <ele>4384.6</ele>
        <time>2015-09-04T03:13:55Z</time>
      </trkpt>
      <trkpt lat="33.81017" lon="77.54353">
        <ele>4385.6</ele>
        <time>2015-09-04T03:14:07Z</time>
      </trkpt>
      <trkpt lat="33.81016" lon="77.54358">
        <ele>4385.8</ele>
        <time>2015-09-04T03:14:10Z</time>
      </trkpt>
      <trkpt lat="33.81014" lon="77.54362">
        <ele>4386.6</ele>
        <time>2015-09-04T03:14:15Z</time>
      </trkpt>
      <trkpt lat="33.81009" lon="77.54366">
        <ele>4387.8</ele>
        <time>2015-09-04T03:14:32Z</time>
      </trkpt>
      <trkpt lat="33.81005" lon="77.5437">
        <ele>4388.8</ele>
        <time>2015-09-04T03:14:46Z</time>
      </trkpt>
      <trkpt lat="33.81002" lon="77.54368">
        <ele>4389.8</ele>
        <time>2015-09-04T03:14:54Z</time>
      </trkpt>
      <trkpt lat="33.80999" lon="77.5437">
        <ele>4390.8</ele>
        <time>2015-09-04T03:15:07Z</time>
      </trkpt>
      <trkpt lat="33.81" lon="77.54379">
        <ele>4391.2</ele>
        <time>2015-09-04T03:15:16Z</time>
      </trkpt>
      <trkpt lat="33.80997" lon="77.54386">
        <ele>4391.8</ele>
        <time>2015-09-04T03:15:30Z</time>
      </trkpt>
      <trkpt lat="33.80991" lon="77.5439">
        <ele>4393</ele>
        <time>2015-09-04T03:15:47Z</time>
      </trkpt>
      <trkpt lat="33.80983" lon="77.54404">
        <ele>4394</ele>
        <time>2015-09-04T03:16:03Z</time>
      </trkpt>
      <trkpt lat="33.80976" lon="77.5442">
        <ele>4395.2</ele>
        <time>2015-09-04T03:16:21Z</time>
      </trkpt>
      <trkpt lat="33.8097" lon="77.54425">
        <ele>4396.2</ele>
        <time>2015-09-04T03:16:33Z</time>
      </trkpt>
      <trkpt lat="33.80969" lon="77.54425">
        <ele>4396.2</ele>
        <time>2015-09-04T03:16:34Z</time>
      </trkpt>
      <trkpt lat="33.80964" lon="77.54437">
        <ele>4397.2</ele>
        <time>2015-09-04T03:16:50Z</time>
      </trkpt>
      <trkpt lat="33.8096" lon="77.54451">
        <ele>4398.2</ele>
        <time>2015-09-04T03:17:07Z</time>
      </trkpt>
      <trkpt lat="33.80958" lon="77.54462">
        <ele>4399.2</ele>
        <time>2015-09-04T03:17:26Z</time>
      </trkpt>
      <trkpt lat="33.80958" lon="77.54468">
        <ele>4400.2</ele>
        <time>2015-09-04T03:17:40Z</time>
      </trkpt>
      <trkpt lat="33.80956" lon="77.54472">
        <ele>4401.4</ele>
        <time>2015-09-04T03:17:53Z</time>
      </trkpt>
      <trkpt lat="33.80956" lon="77.54476">
        <ele>4402.4</ele>
        <time>2015-09-04T03:18:08Z</time>
      </trkpt>
      <trkpt lat="33.80952" lon="77.54486">
        <ele>4403.4</ele>
        <time>2015-09-04T03:18:22Z</time>
      </trkpt>
      <trkpt lat="33.80949" lon="77.54493">
        <ele>4404.4</ele>
        <time>2015-09-04T03:18:36Z</time>
      </trkpt>
      <trkpt lat="33.80948" lon="77.54499">
        <ele>4405.4</ele>
        <time>2015-09-04T03:18:48Z</time>
      </trkpt>
      <trkpt lat="33.80948" lon="77.54507">
        <ele>4406.4</ele>
        <time>2015-09-04T03:19:03Z</time>
      </trkpt>
      <trkpt lat="33.80949" lon="77.54514">
        <ele>4407.4</ele>
        <time>2015-09-04T03:19:17Z</time>
      </trkpt>
      <trkpt lat="33.80951" lon="77.54518">
        <ele>4408.6</ele>
        <time>2015-09-04T03:19:28Z</time>
      </trkpt>
      <trkpt lat="33.80948" lon="77.54524">
        <ele>4409.6</ele>
        <time>2015-09-04T03:19:43Z</time>
      </trkpt>
      <trkpt lat="33.80945" lon="77.54531">
        <ele>4410.6</ele>
        <time>2015-09-04T03:20:00Z</time>
      </trkpt>
      <trkpt lat="33.80945" lon="77.54541">
        <ele>4411.6</ele>
        <time>2015-09-04T03:20:17Z</time>
      </trkpt>
      <trkpt lat="33.8095" lon="77.5455">
        <ele>4412.8</ele>
        <time>2015-09-04T03:20:35Z</time>
      </trkpt>
      <trkpt lat="33.8095" lon="77.54556">
        <ele>4413.8</ele>
        <time>2015-09-04T03:20:45Z</time>
      </trkpt>
      <trkpt lat="33.80951" lon="77.54561">
        <ele>4414.8</ele>
        <time>2015-09-04T03:20:57Z</time>
      </trkpt>
      <trkpt lat="33.80948" lon="77.54571">
        <ele>4415.8</ele>
        <time>2015-09-04T03:21:14Z</time>
      </trkpt>
      <trkpt lat="33.80949" lon="77.54582">
        <ele>4417</ele>
        <time>2015-09-04T03:21:32Z</time>
      </trkpt>
      <trkpt lat="33.8095" lon="77.54583">
        <ele>4417.4</ele>
        <time>2015-09-04T03:21:34Z</time>
      </trkpt>
      <trkpt lat="33.80954" lon="77.54587">
        <ele>4417.6</ele>
        <time>2015-09-04T03:21:43Z</time>
      </trkpt>
      <trkpt lat="33.80953" lon="77.5459">
        <ele>4418</ele>
        <time>2015-09-04T03:21:49Z</time>
      </trkpt>
      <trkpt lat="33.80954" lon="77.54598">
        <ele>4419</ele>
        <time>2015-09-04T03:22:03Z</time>
      </trkpt>
      <trkpt lat="33.80952" lon="77.54609">
        <ele>4420</ele>
        <time>2015-09-04T03:22:16Z</time>
      </trkpt>
      <trkpt lat="33.80948" lon="77.54615">
        <ele>4421.2</ele>
        <time>2015-09-04T03:22:26Z</time>
      </trkpt>
      <trkpt lat="33.80948" lon="77.54621">
        <ele>4422.2</ele>
        <time>2015-09-04T03:22:37Z</time>
      </trkpt>
      <trkpt lat="33.8095" lon="77.54628">
        <ele>4423.2</ele>
        <time>2015-09-04T03:22:48Z</time>
      </trkpt>
      <trkpt lat="33.80951" lon="77.54633">
        <ele>4424.2</ele>
        <time>2015-09-04T03:23:00Z</time>
      </trkpt>
      <trkpt lat="33.80947" lon="77.54639">
        <ele>4425.2</ele>
        <time>2015-09-04T03:23:11Z</time>
      </trkpt>
      <trkpt lat="33.80947" lon="77.54644">
        <ele>4426.4</ele>
        <time>2015-09-04T03:23:21Z</time>
      </trkpt>
      <trkpt lat="33.80946" lon="77.54647">
        <ele>4427.4</ele>
        <time>2015-09-04T03:23:33Z</time>
      </trkpt>
      <trkpt lat="33.80945" lon="77.54655">
        <ele>4428.4</ele>
        <time>2015-09-04T03:23:47Z</time>
      </trkpt>
      <trkpt lat="33.80945" lon="77.54661">
        <ele>4429.4</ele>
        <time>2015-09-04T03:24:00Z</time>
      </trkpt>
      <trkpt lat="33.80943" lon="77.54667">
        <ele>4430.6</ele>
        <time>2015-09-04T03:24:13Z</time>
      </trkpt>
      <trkpt lat="33.80942" lon="77.54673">
        <ele>4431.6</ele>
        <time>2015-09-04T03:24:24Z</time>
      </trkpt>
      <trkpt lat="33.80943" lon="77.54681">
        <ele>4432.6</ele>
        <time>2015-09-04T03:24:37Z</time>
      </trkpt>
      <trkpt lat="33.80943" lon="77.54683">
        <ele>4433.8</ele>
        <time>2015-09-04T03:24:47Z</time>
      </trkpt>
      <trkpt lat="33.80942" lon="77.54689">
        <ele>4434.8</ele>
        <time>2015-09-04T03:24:58Z</time>
      </trkpt>
      <trkpt lat="33.80944" lon="77.54695">
        <ele>4435.8</ele>
        <time>2015-09-04T03:25:12Z</time>
      </trkpt>
      <trkpt lat="33.80943" lon="77.54701">
        <ele>4437</ele>
        <time>2015-09-04T03:25:23Z</time>
      </trkpt>
      <trkpt lat="33.80943" lon="77.54705">
        <ele>4438</ele>
        <time>2015-09-04T03:25:33Z</time>
      </trkpt>
      <trkpt lat="33.80944" lon="77.54707">
        <ele>4438.4</ele>
        <time>2015-09-04T03:25:36Z</time>
      </trkpt>
      <trkpt lat="33.80942" lon="77.54709">
        <ele>4439</ele>
        <time>2015-09-04T03:25:45Z</time>
      </trkpt>
      <trkpt lat="33.80938" lon="77.54717">
        <ele>4440</ele>
        <time>2015-09-04T03:25:56Z</time>
      </trkpt>
      <trkpt lat="33.80937" lon="77.54719">
        <ele>4441</ele>
        <time>2015-09-04T03:26:08Z</time>
      </trkpt>
      <trkpt lat="33.80937" lon="77.54726">
        <ele>4442.2</ele>
        <time>2015-09-04T03:26:24Z</time>
      </trkpt>
      <trkpt lat="33.80935" lon="77.54731">
        <ele>4443.2</ele>
        <time>2015-09-04T03:26:36Z</time>
      </trkpt>
      <trkpt lat="33.80933" lon="77.54739">
        <ele>4444.2</ele>
        <time>2015-09-04T03:26:50Z</time>
      </trkpt>
      <trkpt lat="33.80934" lon="77.54749">
        <ele>4445.2</ele>
        <time>2015-09-04T03:27:05Z</time>
      </trkpt>
      <trkpt lat="33.80932" lon="77.54753">
        <ele>4446.4</ele>
        <time>2015-09-04T03:27:17Z</time>
      </trkpt>
      <trkpt lat="33.80931" lon="77.54762">
        <ele>4447.4</ele>
        <time>2015-09-04T03:27:29Z</time>
      </trkpt>
      <trkpt lat="33.80929" lon="77.54771">
        <ele>4448.6</ele>
        <time>2015-09-04T03:27:41Z</time>
      </trkpt>
      <trkpt lat="33.80928" lon="77.54781">
        <ele>4449.6</ele>
        <time>2015-09-04T03:27:56Z</time>
      </trkpt>
      <trkpt lat="33.80928" lon="77.54784">
        <ele>4450.2</ele>
        <time>2015-09-04T03:28:03Z</time>
      </trkpt>
      <trkpt lat="33.80928" lon="77.54787">
        <ele>4450.6</ele>
        <time>2015-09-04T03:28:06Z</time>
      </trkpt>
      <trkpt lat="33.80923" lon="77.54796">
        <ele>4451.8</ele>
        <time>2015-09-04T03:28:23Z</time>
      </trkpt>
      <trkpt lat="33.80922" lon="77.54803">
        <ele>4452.8</ele>
        <time>2015-09-04T03:28:33Z</time>
      </trkpt>
      <trkpt lat="33.80922" lon="77.54811">
        <ele>4453.8</ele>
        <time>2015-09-04T03:28:46Z</time>
      </trkpt>
      <trkpt lat="33.80922" lon="77.54815">
        <ele>4454.8</ele>
        <time>2015-09-04T03:28:55Z</time>
      </trkpt>
      <trkpt lat="33.8092" lon="77.54823">
        <ele>4455.4</ele>
        <time>2015-09-04T03:29:04Z</time>
      </trkpt>
      <trkpt lat="33.80919" lon="77.54826">
        <ele>4455.4</ele>
        <time>2015-09-04T03:29:08Z</time>
      </trkpt>
      <trkpt lat="33.80919" lon="77.54831">
        <ele>4455.6</ele>
        <time>2015-09-04T03:29:13Z</time>
      </trkpt>
      <trkpt lat="33.80918" lon="77.54833">
        <ele>4455.6</ele>
        <time>2015-09-04T03:29:15Z</time>
      </trkpt>
      <trkpt lat="33.80921" lon="77.54839">
        <ele>4456</ele>
        <time>2015-09-04T03:29:26Z</time>
      </trkpt>
      <trkpt lat="33.80924" lon="77.54843">
        <ele>4456</ele>
        <time>2015-09-04T03:29:32Z</time>
      </trkpt>
      <trkpt lat="33.80927" lon="77.54846">
        <ele>4457</ele>
        <time>2015-09-04T03:29:55Z</time>
      </trkpt>
      <trkpt lat="33.80927" lon="77.54854">
        <ele>4457.8</ele>
        <time>2015-09-04T03:31:05Z</time>
      </trkpt>
      <trkpt lat="33.80926" lon="77.54856">
        <ele>4458</ele>
        <time>2015-09-04T03:31:07Z</time>
      </trkpt>
      <trkpt lat="33.80924" lon="77.54862">
        <ele>4459</ele>
        <time>2015-09-04T03:31:17Z</time>
      </trkpt>
      <trkpt lat="33.80929" lon="77.54865">
        <ele>4459.6</ele>
        <time>2015-09-04T03:31:23Z</time>
      </trkpt>
      <trkpt lat="33.80931" lon="77.54866">
        <ele>4460.2</ele>
        <time>2015-09-04T03:31:27Z</time>
      </trkpt>
      <trkpt lat="33.80937" lon="77.54869">
        <ele>4461.4</ele>
        <time>2015-09-04T03:31:36Z</time>
      </trkpt>
      <trkpt lat="33.80941" lon="77.54869">
        <ele>4462.4</ele>
        <time>2015-09-04T03:31:43Z</time>
      </trkpt>
      <trkpt lat="33.80945" lon="77.54873">
        <ele>4463.6</ele>
        <time>2015-09-04T03:31:57Z</time>
      </trkpt>
      <trkpt lat="33.80942" lon="77.54881">
        <ele>4464.6</ele>
        <time>2015-09-04T03:32:10Z</time>
      </trkpt>
      <trkpt lat="33.80942" lon="77.54884">
        <ele>4465.8</ele>
        <time>2015-09-04T03:32:17Z</time>
      </trkpt>
      <trkpt lat="33.80948" lon="77.54883">
        <ele>4466.2</ele>
        <time>2015-09-04T03:32:26Z</time>
      </trkpt>
      <trkpt lat="33.80948" lon="77.54884">
        <ele>4466.2</ele>
        <time>2015-09-04T03:32:28Z</time>
      </trkpt>
      <trkpt lat="33.80944" lon="77.54885">
        <ele>4466.8</ele>
        <time>2015-09-04T03:33:05Z</time>
      </trkpt>
      <trkpt lat="33.80945" lon="77.54885">
        <ele>4466.8</ele>
        <time>2015-09-04T03:34:17Z</time>
      </trkpt>
      <trkpt lat="33.80946" lon="77.54883">
        <ele>4467</ele>
        <time>2015-09-04T03:35:51Z</time>
      </trkpt>
      <trkpt lat="33.80943" lon="77.5489">
        <ele>4467.8</ele>
        <time>2015-09-04T03:36:04Z</time>
      </trkpt>
      <trkpt lat="33.80943" lon="77.54895">
        <ele>4468.8</ele>
        <time>2015-09-04T03:36:14Z</time>
      </trkpt>
      <trkpt lat="33.8094" lon="77.54902">
        <ele>4469.8</ele>
        <time>2015-09-04T03:36:25Z</time>
      </trkpt>
      <trkpt lat="33.80939" lon="77.5491">
        <ele>4470.8</ele>
        <time>2015-09-04T03:36:38Z</time>
      </trkpt>
      <trkpt lat="33.80941" lon="77.54918">
        <ele>4472</ele>
        <time>2015-09-04T03:36:58Z</time>
      </trkpt>
      <trkpt lat="33.80943" lon="77.54928">
        <ele>4473</ele>
        <time>2015-09-04T03:37:12Z</time>
      </trkpt>
      <trkpt lat="33.80943" lon="77.5493">
        <ele>4473.2</ele>
        <time>2015-09-04T03:37:14Z</time>
      </trkpt>
      <trkpt lat="33.8094" lon="77.54931">
        <ele>4474</ele>
        <time>2015-09-04T03:37:20Z</time>
      </trkpt>
      <trkpt lat="33.80937" lon="77.54937">
        <ele>4475</ele>
        <time>2015-09-04T03:37:30Z</time>
      </trkpt>
      <trkpt lat="33.80938" lon="77.54941">
        <ele>4476</ele>
        <time>2015-09-04T03:37:42Z</time>
      </trkpt>
      <trkpt lat="33.80936" lon="77.54945">
        <ele>4477.2</ele>
        <time>2015-09-04T03:37:52Z</time>
      </trkpt>
      <trkpt lat="33.80937" lon="77.54953">
        <ele>4478.2</ele>
        <time>2015-09-04T03:38:06Z</time>
      </trkpt>
      <trkpt lat="33.80933" lon="77.54959">
        <ele>4479.2</ele>
        <time>2015-09-04T03:38:20Z</time>
      </trkpt>
      <trkpt lat="33.80936" lon="77.54965">
        <ele>4480.4</ele>
        <time>2015-09-04T03:38:33Z</time>
      </trkpt>
      <trkpt lat="33.80943" lon="77.54969">
        <ele>4481.4</ele>
        <time>2015-09-04T03:38:46Z</time>
      </trkpt>
      <trkpt lat="33.80945" lon="77.54975">
        <ele>4482.6</ele>
        <time>2015-09-04T03:38:59Z</time>
      </trkpt>
      <trkpt lat="33.80946" lon="77.5498">
        <ele>4483.6</ele>
        <time>2015-09-04T03:39:08Z</time>
      </trkpt>
      <trkpt lat="33.80944" lon="77.54989">
        <ele>4484.6</ele>
        <time>2015-09-04T03:39:28Z</time>
      </trkpt>
      <trkpt lat="33.80943" lon="77.55">
        <ele>4485.8</ele>
        <time>2015-09-04T03:39:41Z</time>
      </trkpt>
      <trkpt lat="33.80943" lon="77.55009">
        <ele>4486.8</ele>
        <time>2015-09-04T03:39:57Z</time>
      </trkpt>
      <trkpt lat="33.8094" lon="77.55012">
        <ele>4487.8</ele>
        <time>2015-09-04T03:40:08Z</time>
      </trkpt>
      <trkpt lat="33.80942" lon="77.55017">
        <ele>4488.8</ele>
        <time>2015-09-04T03:40:17Z</time>
      </trkpt>
      <trkpt lat="33.80945" lon="77.55026">
        <ele>4490</ele>
        <time>2015-09-04T03:40:34Z</time>
      </trkpt>
      <trkpt lat="33.80946" lon="77.55029">
        <ele>4490.6</ele>
        <time>2015-09-04T03:40:43Z</time>
      </trkpt>
      <trkpt lat="33.80945" lon="77.55031">
        <ele>4491</ele>
        <time>2015-09-04T03:40:47Z</time>
      </trkpt>
      <trkpt lat="33.80949" lon="77.55038">
        <ele>4492</ele>
        <time>2015-09-04T03:41:06Z</time>
      </trkpt>
      <trkpt lat="33.80949" lon="77.55045">
        <ele>4493</ele>
        <time>2015-09-04T03:41:14Z</time>
      </trkpt>
      <trkpt lat="33.80947" lon="77.55055">
        <ele>4494</ele>
        <time>2015-09-04T03:41:27Z</time>
      </trkpt>
      <trkpt lat="33.80949" lon="77.55058">
        <ele>4495.2</ele>
        <time>2015-09-04T03:41:35Z</time>
      </trkpt>
      <trkpt lat="33.80951" lon="77.55064">
        <ele>4496.2</ele>
        <time>2015-09-04T03:41:48Z</time>
      </trkpt>
      <trkpt lat="33.80954" lon="77.55067">
        <ele>4497.2</ele>
        <time>2015-09-04T03:41:57Z</time>
      </trkpt>
      <trkpt lat="33.80953" lon="77.55073">
        <ele>4498.4</ele>
        <time>2015-09-04T03:42:05Z</time>
      </trkpt>
      <trkpt lat="33.80952" lon="77.55078">
        <ele>4499.4</ele>
        <time>2015-09-04T03:42:16Z</time>
      </trkpt>
      <trkpt lat="33.80952" lon="77.55084">
        <ele>4500.4</ele>
        <time>2015-09-04T03:42:28Z</time>
      </trkpt>
      <trkpt lat="33.80954" lon="77.55092">
        <ele>4501.4</ele>
        <time>2015-09-04T03:42:40Z</time>
      </trkpt>
      <trkpt lat="33.80952" lon="77.551">
        <ele>4502.4</ele>
        <time>2015-09-04T03:42:56Z</time>
      </trkpt>
      <trkpt lat="33.80955" lon="77.55105">
        <ele>4503.6</ele>
        <time>2015-09-04T03:43:07Z</time>
      </trkpt>
      <trkpt lat="33.80956" lon="77.55108">
        <ele>4504</ele>
        <time>2015-09-04T03:43:16Z</time>
      </trkpt>
      <trkpt lat="33.80957" lon="77.55112">
        <ele>4504.6</ele>
        <time>2015-09-04T03:43:23Z</time>
      </trkpt>
      <trkpt lat="33.80957" lon="77.55115">
        <ele>4505.6</ele>
        <time>2015-09-04T03:43:28Z</time>
      </trkpt>
      <trkpt lat="33.80955" lon="77.5512">
        <ele>4506.8</ele>
        <time>2015-09-04T03:43:38Z</time>
      </trkpt>
      <trkpt lat="33.80955" lon="77.55124">
        <ele>4507.8</ele>
        <time>2015-09-04T03:43:51Z</time>
      </trkpt>
      <trkpt lat="33.80962" lon="77.55128">
        <ele>4508.8</ele>
        <time>2015-09-04T03:44:03Z</time>
      </trkpt>
      <trkpt lat="33.80958" lon="77.55133">
        <ele>4509.2</ele>
        <time>2015-09-04T03:44:08Z</time>
      </trkpt>
      <trkpt lat="33.80956" lon="77.55135">
        <ele>4509.8</ele>
        <time>2015-09-04T03:44:13Z</time>
      </trkpt>
      <trkpt lat="33.80962" lon="77.55139">
        <ele>4511</ele>
        <time>2015-09-04T03:44:23Z</time>
      </trkpt>
      <trkpt lat="33.80963" lon="77.55145">
        <ele>4512</ele>
        <time>2015-09-04T03:44:36Z</time>
      </trkpt>
      <trkpt lat="33.80962" lon="77.55153">
        <ele>4513</ele>
        <time>2015-09-04T03:44:47Z</time>
      </trkpt>
      <trkpt lat="33.80961" lon="77.55156">
        <ele>4514</ele>
        <time>2015-09-04T03:44:56Z</time>
      </trkpt>
      <trkpt lat="33.8096" lon="77.55163">
        <ele>4515</ele>
        <time>2015-09-04T03:45:10Z</time>
      </trkpt>
      <trkpt lat="33.80958" lon="77.55171">
        <ele>4516</ele>
        <time>2015-09-04T03:45:20Z</time>
      </trkpt>
      <trkpt lat="33.80958" lon="77.55177">
        <ele>4517</ele>
        <time>2015-09-04T03:45:32Z</time>
      </trkpt>
      <trkpt lat="33.80958" lon="77.55184">
        <ele>4518</ele>
        <time>2015-09-04T03:45:44Z</time>
      </trkpt>
      <trkpt lat="33.80959" lon="77.5519">
        <ele>4519.2</ele>
        <time>2015-09-04T03:45:57Z</time>
      </trkpt>
      <trkpt lat="33.80958" lon="77.55196">
        <ele>4520.2</ele>
        <time>2015-09-04T03:46:08Z</time>
      </trkpt>
      <trkpt lat="33.8096" lon="77.552">
        <ele>4521.2</ele>
        <time>2015-09-04T03:46:20Z</time>
      </trkpt>
      <trkpt lat="33.80957" lon="77.55207">
        <ele>4522.4</ele>
        <time>2015-09-04T03:46:33Z</time>
      </trkpt>
      <trkpt lat="33.80957" lon="77.55216">
        <ele>4523.4</ele>
        <time>2015-09-04T03:46:51Z</time>
      </trkpt>
      <trkpt lat="33.80953" lon="77.55227">
        <ele>4524.4</ele>
        <time>2015-09-04T03:47:03Z</time>
      </trkpt>
      <trkpt lat="33.80953" lon="77.55228">
        <ele>4524.4</ele>
        <time>2015-09-04T03:47:05Z</time>
      </trkpt>
      <trkpt lat="33.80951" lon="77.55236">
        <ele>4525.4</ele>
        <time>2015-09-04T03:47:18Z</time>
      </trkpt>
      <trkpt lat="33.80952" lon="77.55244">
        <ele>4526.4</ele>
        <time>2015-09-04T03:47:30Z</time>
      </trkpt>
      <trkpt lat="33.80953" lon="77.55248">
        <ele>4527.6</ele>
        <time>2015-09-04T03:47:40Z</time>
      </trkpt>
      <trkpt lat="33.80951" lon="77.55254">
        <ele>4528.6</ele>
        <time>2015-09-04T03:47:54Z</time>
      </trkpt>
      <trkpt lat="33.80949" lon="77.5526">
        <ele>4529.6</ele>
        <time>2015-09-04T03:48:04Z</time>
      </trkpt>
      <trkpt lat="33.80948" lon="77.55269">
        <ele>4530.6</ele>
        <time>2015-09-04T03:48:17Z</time>
      </trkpt>
      <trkpt lat="33.80951" lon="77.55272">
        <ele>4531.8</ele>
        <time>2015-09-04T03:48:28Z</time>
      </trkpt>
      <trkpt lat="33.80954" lon="77.55273">
        <ele>4532.8</ele>
        <time>2015-09-04T03:48:38Z</time>
      </trkpt>
      <trkpt lat="33.80956" lon="77.55271">
        <ele>4533.8</ele>
        <time>2015-09-04T03:48:50Z</time>
      </trkpt>
      <trkpt lat="33.80959" lon="77.55265">
        <ele>4534.8</ele>
        <time>2015-09-04T03:49:00Z</time>
      </trkpt>
      <trkpt lat="33.80963" lon="77.5526">
        <ele>4536</ele>
        <time>2015-09-04T03:49:11Z</time>
      </trkpt>
      <trkpt lat="33.80966" lon="77.55256">
        <ele>4537</ele>
        <time>2015-09-04T03:49:23Z</time>
      </trkpt>
      <trkpt lat="33.80969" lon="77.55253">
        <ele>4538</ele>
        <time>2015-09-04T03:49:34Z</time>
      </trkpt>
      <trkpt lat="33.80973" lon="77.55251">
        <ele>4539</ele>
        <time>2015-09-04T03:49:44Z</time>
      </trkpt>
      <trkpt lat="33.80972" lon="77.55245">
        <ele>4540.2</ele>
        <time>2015-09-04T03:49:54Z</time>
      </trkpt>
      <trkpt lat="33.80979" lon="77.55242">
        <ele>4541.2</ele>
        <time>2015-09-04T03:50:07Z</time>
      </trkpt>
      <trkpt lat="33.80985" lon="77.55241">
        <ele>4542.2</ele>
        <time>2015-09-04T03:50:18Z</time>
      </trkpt>
      <trkpt lat="33.80987" lon="77.55238">
        <ele>4543.2</ele>
        <time>2015-09-04T03:50:28Z</time>
      </trkpt>
      <trkpt lat="33.80989" lon="77.55232">
        <ele>4544.2</ele>
        <time>2015-09-04T03:50:37Z</time>
      </trkpt>
      <trkpt lat="33.80991" lon="77.55224">
        <ele>4545.2</ele>
        <time>2015-09-04T03:50:47Z</time>
      </trkpt>
      <trkpt lat="33.80996" lon="77.5522">
        <ele>4546.2</ele>
        <time>2015-09-04T03:50:59Z</time>
      </trkpt>
      <trkpt lat="33.81002" lon="77.55219">
        <ele>4547.4</ele>
        <time>2015-09-04T03:51:11Z</time>
      </trkpt>
      <trkpt lat="33.81008" lon="77.55219">
        <ele>4548.4</ele>
        <time>2015-09-04T03:51:22Z</time>
      </trkpt>
      <trkpt lat="33.81012" lon="77.55218">
        <ele>4549.4</ele>
        <time>2015-09-04T03:51:34Z</time>
      </trkpt>
      <trkpt lat="33.81017" lon="77.55222">
        <ele>4550.6</ele>
        <time>2015-09-04T03:51:45Z</time>
      </trkpt>
      <trkpt lat="33.8102" lon="77.55213">
        <ele>4551.8</ele>
        <time>2015-09-04T03:52:00Z</time>
      </trkpt>
      <trkpt lat="33.81018" lon="77.55212">
        <ele>4552.4</ele>
        <time>2015-09-04T03:52:13Z</time>
      </trkpt>
      <trkpt lat="33.81019" lon="77.55215">
        <ele>4552.8</ele>
        <time>2015-09-04T03:52:52Z</time>
      </trkpt>
      <trkpt lat="33.81016" lon="77.55218">
        <ele>4553.2</ele>
        <time>2015-09-04T03:53:26Z</time>
      </trkpt>
      <trkpt lat="33.81015" lon="77.55219">
        <ele>4552.6</ele>
        <time>2015-09-04T03:53:28Z</time>
      </trkpt>
      <trkpt lat="33.81015" lon="77.55217">
        <ele>4552.2</ele>
        <time>2015-09-04T03:53:53Z</time>
      </trkpt>
      <trkpt lat="33.81021" lon="77.5521">
        <ele>4553.2</ele>
        <time>2015-09-04T03:54:14Z</time>
      </trkpt>
      <trkpt lat="33.81022" lon="77.5521">
        <ele>4553.4</ele>
        <time>2015-09-04T03:54:16Z</time>
      </trkpt>
      <trkpt lat="33.81023" lon="77.55213">
        <ele>4553.4</ele>
        <time>2015-09-04T03:54:20Z</time>
      </trkpt>
      <trkpt lat="33.81023" lon="77.55214">
        <ele>4553.2</ele>
        <time>2015-09-04T03:54:22Z</time>
      </trkpt>
      <trkpt lat="33.81022" lon="77.55214">
        <ele>4553.8</ele>
        <time>2015-09-04T03:54:40Z</time>
      </trkpt>
      <trkpt lat="33.81017" lon="77.55217">
        <ele>4553</ele>
        <time>2015-09-04T03:55:03Z</time>
      </trkpt>
      <trkpt lat="33.81018" lon="77.55217">
        <ele>4552.8</ele>
        <time>2015-09-04T03:55:57Z</time>
      </trkpt>
      <trkpt lat="33.81016" lon="77.55222">
        <ele>4554</ele>
        <time>2015-09-04T03:56:11Z</time>
      </trkpt>
      <trkpt lat="33.81023" lon="77.55219">
        <ele>4554.4</ele>
        <time>2015-09-04T03:56:46Z</time>
      </trkpt>
      <trkpt lat="33.81023" lon="77.55217">
        <ele>4554.4</ele>
        <time>2015-09-04T03:56:48Z</time>
      </trkpt>
      <trkpt lat="33.81022" lon="77.55217">
        <ele>4555</ele>
        <time>2015-09-04T03:57:12Z</time>
      </trkpt>
      <trkpt lat="33.81016" lon="77.55215">
        <ele>4554</ele>
        <time>2015-09-04T03:57:51Z</time>
      </trkpt>
      <trkpt lat="33.81016" lon="77.5522">
        <ele>4554.8</ele>
        <time>2015-09-04T03:58:32Z</time>
      </trkpt>
      <trkpt lat="33.81017" lon="77.5522">
        <ele>4555</ele>
        <time>2015-09-04T03:58:38Z</time>
      </trkpt>
      <trkpt lat="33.81019" lon="77.55217">
        <ele>4555.6</ele>
        <time>2015-09-04T03:59:46Z</time>
      </trkpt>
      <trkpt lat="33.81017" lon="77.55234">
        <ele>4556</ele>
        <time>2015-09-04T04:00:05Z</time>
      </trkpt>
      <trkpt lat="33.8102" lon="77.5524">
        <ele>4556.6</ele>
        <time>2015-09-04T04:00:13Z</time>
      </trkpt>
      <trkpt lat="33.81019" lon="77.55241">
        <ele>4557.2</ele>
        <time>2015-09-04T04:00:23Z</time>
      </trkpt>
      <trkpt lat="33.81014" lon="77.55248">
        <ele>4558.2</ele>
        <time>2015-09-04T04:00:34Z</time>
      </trkpt>
      <trkpt lat="33.81013" lon="77.55256">
        <ele>4559.2</ele>
        <time>2015-09-04T04:00:45Z</time>
      </trkpt>
      <trkpt lat="33.81013" lon="77.55257">
        <ele>4559.2</ele>
        <time>2015-09-04T04:00:46Z</time>
      </trkpt>
      <trkpt lat="33.81012" lon="77.55263">
        <ele>4560.4</ele>
        <time>2015-09-04T04:00:57Z</time>
      </trkpt>
      <trkpt lat="33.81011" lon="77.55267">
        <ele>4561.4</ele>
        <time>2015-09-04T04:01:09Z</time>
      </trkpt>
      <trkpt lat="33.81017" lon="77.55273">
        <ele>4562.4</ele>
        <time>2015-09-04T04:01:25Z</time>
      </trkpt>
      <trkpt lat="33.81013" lon="77.55278">
        <ele>4563.4</ele>
        <time>2015-09-04T04:01:38Z</time>
      </trkpt>
      <trkpt lat="33.81012" lon="77.55283">
        <ele>4564.6</ele>
        <time>2015-09-04T04:01:52Z</time>
      </trkpt>
      <trkpt lat="33.81008" lon="77.55289">
        <ele>4565.6</ele>
        <time>2015-09-04T04:02:05Z</time>
      </trkpt>
      <trkpt lat="33.81008" lon="77.55296">
        <ele>4566.8</ele>
        <time>2015-09-04T04:02:19Z</time>
      </trkpt>
      <trkpt lat="33.81001" lon="77.55307">
        <ele>4567.8</ele>
        <time>2015-09-04T04:02:33Z</time>
      </trkpt>
      <trkpt lat="33.80999" lon="77.55311">
        <ele>4569</ele>
        <time>2015-09-04T04:02:44Z</time>
      </trkpt>
      <trkpt lat="33.81005" lon="77.55316">
        <ele>4570</ele>
        <time>2015-09-04T04:02:56Z</time>
      </trkpt>
      <trkpt lat="33.81005" lon="77.55324">
        <ele>4571</ele>
        <time>2015-09-04T04:03:10Z</time>
      </trkpt>
      <trkpt lat="33.80999" lon="77.55341">
        <ele>4571.8</ele>
        <time>2015-09-04T04:03:27Z</time>
      </trkpt>
      <trkpt lat="33.80997" lon="77.55344">
        <ele>4572</ele>
        <time>2015-09-04T04:03:30Z</time>
      </trkpt>
      <trkpt lat="33.80996" lon="77.55348">
        <ele>4572.4</ele>
        <time>2015-09-04T04:03:36Z</time>
      </trkpt>
      <trkpt lat="33.80996" lon="77.5535">
        <ele>4572.6</ele>
        <time>2015-09-04T04:03:39Z</time>
      </trkpt>
      <trkpt lat="33.80995" lon="77.55362">
        <ele>4573</ele>
        <time>2015-09-04T04:03:54Z</time>
      </trkpt>
      <trkpt lat="33.80993" lon="77.55369">
        <ele>4574</ele>
        <time>2015-09-04T04:04:02Z</time>
      </trkpt>
      <trkpt lat="33.80992" lon="77.55368">
        <ele>4574.2</ele>
        <time>2015-09-04T04:04:10Z</time>
      </trkpt>
      <trkpt lat="33.80987" lon="77.55379">
        <ele>4575.2</ele>
        <time>2015-09-04T04:04:22Z</time>
      </trkpt>
      <trkpt lat="33.80988" lon="77.5539">
        <ele>4576.2</ele>
        <time>2015-09-04T04:04:38Z</time>
      </trkpt>
      <trkpt lat="33.80987" lon="77.55391">
        <ele>4576.2</ele>
        <time>2015-09-04T04:04:39Z</time>
      </trkpt>
      <trkpt lat="33.80982" lon="77.55396">
        <ele>4577.2</ele>
        <time>2015-09-04T04:04:54Z</time>
      </trkpt>
      <trkpt lat="33.80979" lon="77.554">
        <ele>4578.2</ele>
        <time>2015-09-04T04:05:06Z</time>
      </trkpt>
      <trkpt lat="33.80977" lon="77.55411">
        <ele>4579.2</ele>
        <time>2015-09-04T04:05:16Z</time>
      </trkpt>
      <trkpt lat="33.80977" lon="77.55413">
        <ele>4579.6</ele>
        <time>2015-09-04T04:05:20Z</time>
      </trkpt>
      <trkpt lat="33.80978" lon="77.55415">
        <ele>4580.4</ele>
        <time>2015-09-04T04:05:27Z</time>
      </trkpt>
      <trkpt lat="33.80983" lon="77.55418">
        <ele>4581.4</ele>
        <time>2015-09-04T04:05:37Z</time>
      </trkpt>
      <trkpt lat="33.80984" lon="77.55424">
        <ele>4582.4</ele>
        <time>2015-09-04T04:05:46Z</time>
      </trkpt>
      <trkpt lat="33.80981" lon="77.55429">
        <ele>4583.4</ele>
        <time>2015-09-04T04:05:56Z</time>
      </trkpt>
      <trkpt lat="33.80979" lon="77.55436">
        <ele>4584.6</ele>
        <time>2015-09-04T04:06:11Z</time>
      </trkpt>
      <trkpt lat="33.80978" lon="77.55443">
        <ele>4585.6</ele>
        <time>2015-09-04T04:06:22Z</time>
      </trkpt>
      <trkpt lat="33.8098" lon="77.55447">
        <ele>4586.6</ele>
        <time>2015-09-04T04:06:32Z</time>
      </trkpt>
      <trkpt lat="33.80978" lon="77.55455">
        <ele>4587.6</ele>
        <time>2015-09-04T04:06:48Z</time>
      </trkpt>
      <trkpt lat="33.80975" lon="77.55454">
        <ele>4588.6</ele>
        <time>2015-09-04T04:06:58Z</time>
      </trkpt>
      <trkpt lat="33.80971" lon="77.55453">
        <ele>4589.8</ele>
        <time>2015-09-04T04:07:09Z</time>
      </trkpt>
      <trkpt lat="33.80968" lon="77.55457">
        <ele>4590.8</ele>
        <time>2015-09-04T04:07:19Z</time>
      </trkpt>
      <trkpt lat="33.80964" lon="77.55461">
        <ele>4591.8</ele>
        <time>2015-09-04T04:07:32Z</time>
      </trkpt>
      <trkpt lat="33.80957" lon="77.55464">
        <ele>4593</ele>
        <time>2015-09-04T04:07:45Z</time>
      </trkpt>
      <trkpt lat="33.80952" lon="77.5547">
        <ele>4594</ele>
        <time>2015-09-04T04:07:58Z</time>
      </trkpt>
      <trkpt lat="33.8095" lon="77.55471">
        <ele>4595</ele>
        <time>2015-09-04T04:08:09Z</time>
      </trkpt>
      <trkpt lat="33.80946" lon="77.55476">
        <ele>4595.8</ele>
        <time>2015-09-04T04:08:21Z</time>
      </trkpt>
      <trkpt lat="33.80945" lon="77.55475">
        <ele>4596.2</ele>
        <time>2015-09-04T04:08:25Z</time>
      </trkpt>
      <trkpt lat="33.80942" lon="77.5548">
        <ele>4597.2</ele>
        <time>2015-09-04T04:08:35Z</time>
      </trkpt>
      <trkpt lat="33.80938" lon="77.55487">
        <ele>4598.2</ele>
        <time>2015-09-04T04:08:48Z</time>
      </trkpt>
      <trkpt lat="33.80933" lon="77.55493">
        <ele>4599.4</ele>
        <time>2015-09-04T04:09:02Z</time>
      </trkpt>
      <trkpt lat="33.80933" lon="77.55496">
        <ele>4600.4</ele>
        <time>2015-09-04T04:09:10Z</time>
      </trkpt>
      <trkpt lat="33.80933" lon="77.555">
        <ele>4601.4</ele>
        <time>2015-09-04T04:09:20Z</time>
      </trkpt>
      <trkpt lat="33.80929" lon="77.55505">
        <ele>4602.6</ele>
        <time>2015-09-04T04:09:29Z</time>
      </trkpt>
      <trkpt lat="33.80935" lon="77.55509">
        <ele>4603.6</ele>
        <time>2015-09-04T04:09:40Z</time>
      </trkpt>
      <trkpt lat="33.80935" lon="77.55516">
        <ele>4604.8</ele>
        <time>2015-09-04T04:09:52Z</time>
      </trkpt>
      <trkpt lat="33.80941" lon="77.5552">
        <ele>4605.4</ele>
        <time>2015-09-04T04:09:59Z</time>
      </trkpt>
      <trkpt lat="33.80939" lon="77.55523">
        <ele>4605.2</ele>
        <time>2015-09-04T04:10:01Z</time>
      </trkpt>
      <trkpt lat="33.8094" lon="77.55529">
        <ele>4605.2</ele>
        <time>2015-09-04T04:10:08Z</time>
      </trkpt>
      <trkpt lat="33.80936" lon="77.55531">
        <ele>4605.8</ele>
        <time>2015-09-04T04:10:16Z</time>
      </trkpt>
      <trkpt lat="33.80935" lon="77.55538">
        <ele>4606.8</ele>
        <time>2015-09-04T04:10:28Z</time>
      </trkpt>
      <trkpt lat="33.80928" lon="77.55546">
        <ele>4608</ele>
        <time>2015-09-04T04:10:45Z</time>
      </trkpt>
      <trkpt lat="33.80926" lon="77.5556">
        <ele>4609</ele>
        <time>2015-09-04T04:11:00Z</time>
      </trkpt>
      <trkpt lat="33.80924" lon="77.55566">
        <ele>4610</ele>
        <time>2015-09-04T04:11:11Z</time>
      </trkpt>
      <trkpt lat="33.80919" lon="77.55577">
        <ele>4611</ele>
        <time>2015-09-04T04:11:27Z</time>
      </trkpt>
      <trkpt lat="33.80918" lon="77.5559">
        <ele>4612</ele>
        <time>2015-09-04T04:11:45Z</time>
      </trkpt>
      <trkpt lat="33.80918" lon="77.55601">
        <ele>4613.2</ele>
        <time>2015-09-04T04:12:02Z</time>
      </trkpt>
      <trkpt lat="33.80922" lon="77.55612">
        <ele>4614.4</ele>
        <time>2015-09-04T04:12:18Z</time>
      </trkpt>
      <trkpt lat="33.80924" lon="77.55623">
        <ele>4615.4</ele>
        <time>2015-09-04T04:12:34Z</time>
      </trkpt>
      <trkpt lat="33.80926" lon="77.55633">
        <ele>4616</ele>
        <time>2015-09-04T04:12:45Z</time>
      </trkpt>
      <trkpt lat="33.80925" lon="77.55634">
        <ele>4616.4</ele>
        <time>2015-09-04T04:12:48Z</time>
      </trkpt>
      <trkpt lat="33.80925" lon="77.55641">
        <ele>4617.6</ele>
        <time>2015-09-04T04:12:59Z</time>
      </trkpt>
      <trkpt lat="33.80922" lon="77.55649">
        <ele>4618.6</ele>
        <time>2015-09-04T04:13:13Z</time>
      </trkpt>
      <trkpt lat="33.80922" lon="77.55655">
        <ele>4619.6</ele>
        <time>2015-09-04T04:13:22Z</time>
      </trkpt>
      <trkpt lat="33.80924" lon="77.55664">
        <ele>4620.6</ele>
        <time>2015-09-04T04:13:35Z</time>
      </trkpt>
      <trkpt lat="33.80922" lon="77.55675">
        <ele>4621.6</ele>
        <time>2015-09-04T04:13:52Z</time>
      </trkpt>
      <trkpt lat="33.80921" lon="77.55681">
        <ele>4622.8</ele>
        <time>2015-09-04T04:14:04Z</time>
      </trkpt>
      <trkpt lat="33.80918" lon="77.55686">
        <ele>4623.8</ele>
        <time>2015-09-04T04:14:16Z</time>
      </trkpt>
      <trkpt lat="33.80918" lon="77.55695">
        <ele>4624.8</ele>
        <time>2015-09-04T04:14:28Z</time>
      </trkpt>
      <trkpt lat="33.80913" lon="77.55702">
        <ele>4625.8</ele>
        <time>2015-09-04T04:14:44Z</time>
      </trkpt>
      <trkpt lat="33.80906" lon="77.55712">
        <ele>4627</ele>
        <time>2015-09-04T04:14:59Z</time>
      </trkpt>
      <trkpt lat="33.80907" lon="77.55724">
        <ele>4628</ele>
        <time>2015-09-04T04:15:15Z</time>
      </trkpt>
      <trkpt lat="33.80903" lon="77.5573">
        <ele>4629</ele>
        <time>2015-09-04T04:15:27Z</time>
      </trkpt>
      <trkpt lat="33.80897" lon="77.55733">
        <ele>4630</ele>
        <time>2015-09-04T04:15:42Z</time>
      </trkpt>
      <trkpt lat="33.80896" lon="77.55738">
        <ele>4631.2</ele>
        <time>2015-09-04T04:15:53Z</time>
      </trkpt>
      <trkpt lat="33.80891" lon="77.55743">
        <ele>4632.2</ele>
        <time>2015-09-04T04:16:05Z</time>
      </trkpt>
      <trkpt lat="33.80885" lon="77.55743">
        <ele>4633.4</ele>
        <time>2015-09-04T04:16:19Z</time>
      </trkpt>
      <trkpt lat="33.80878" lon="77.55749">
        <ele>4634.4</ele>
        <time>2015-09-04T04:16:33Z</time>
      </trkpt>
      <trkpt lat="33.80875" lon="77.55752">
        <ele>4635.4</ele>
        <time>2015-09-04T04:16:43Z</time>
      </trkpt>
      <trkpt lat="33.8087" lon="77.55756">
        <ele>4636.4</ele>
        <time>2015-09-04T04:16:53Z</time>
      </trkpt>
      <trkpt lat="33.80867" lon="77.5576">
        <ele>4637.6</ele>
        <time>2015-09-04T04:17:03Z</time>
      </trkpt>
      <trkpt lat="33.80862" lon="77.55764">
        <ele>4638.6</ele>
        <time>2015-09-04T04:17:16Z</time>
      </trkpt>
      <trkpt lat="33.80858" lon="77.55764">
        <ele>4639.6</ele>
        <time>2015-09-04T04:17:25Z</time>
      </trkpt>
      <trkpt lat="33.80853" lon="77.55766">
        <ele>4640.4</ele>
        <time>2015-09-04T04:17:37Z</time>
      </trkpt>
      <trkpt lat="33.80849" lon="77.5577">
        <ele>4640.8</ele>
        <time>2015-09-04T04:17:44Z</time>
      </trkpt>
      <trkpt lat="33.80846" lon="77.55769">
        <ele>4641.8</ele>
        <time>2015-09-04T04:17:57Z</time>
      </trkpt>
      <trkpt lat="33.80843" lon="77.55771">
        <ele>4642.8</ele>
        <time>2015-09-04T04:18:07Z</time>
      </trkpt>
      <trkpt lat="33.80838" lon="77.55774">
        <ele>4643.8</ele>
        <time>2015-09-04T04:18:18Z</time>
      </trkpt>
      <trkpt lat="33.80832" lon="77.5578">
        <ele>4644.8</ele>
        <time>2015-09-04T04:18:27Z</time>
      </trkpt>
      <trkpt lat="33.80828" lon="77.55782">
        <ele>4646</ele>
        <time>2015-09-04T04:18:34Z</time>
      </trkpt>
      <trkpt lat="33.80824" lon="77.5579">
        <ele>4647</ele>
        <time>2015-09-04T04:18:47Z</time>
      </trkpt>
      <trkpt lat="33.80816" lon="77.55792">
        <ele>4648.2</ele>
        <time>2015-09-04T04:19:03Z</time>
      </trkpt>
      <trkpt lat="33.80811" lon="77.55794">
        <ele>4649.2</ele>
        <time>2015-09-04T04:19:13Z</time>
      </trkpt>
      <trkpt lat="33.80808" lon="77.55802">
        <ele>4650.2</ele>
        <time>2015-09-04T04:19:27Z</time>
      </trkpt>
      <trkpt lat="33.80802" lon="77.55808">
        <ele>4651.2</ele>
        <time>2015-09-04T04:19:41Z</time>
      </trkpt>
      <trkpt lat="33.80799" lon="77.55807">
        <ele>4652.4</ele>
        <time>2015-09-04T04:19:53Z</time>
      </trkpt>
      <trkpt lat="33.80794" lon="77.5581">
        <ele>4653.4</ele>
        <time>2015-09-04T04:20:09Z</time>
      </trkpt>
      <trkpt lat="33.80791" lon="77.55814">
        <ele>4654.6</ele>
        <time>2015-09-04T04:20:22Z</time>
      </trkpt>
      <trkpt lat="33.80788" lon="77.55819">
        <ele>4655.6</ele>
        <time>2015-09-04T04:20:33Z</time>
      </trkpt>
      <trkpt lat="33.80786" lon="77.55825">
        <ele>4656.6</ele>
        <time>2015-09-04T04:20:47Z</time>
      </trkpt>
      <trkpt lat="33.80782" lon="77.55828">
        <ele>4657.6</ele>
        <time>2015-09-04T04:20:55Z</time>
      </trkpt>
      <trkpt lat="33.80779" lon="77.55829">
        <ele>4658.6</ele>
        <time>2015-09-04T04:21:04Z</time>
      </trkpt>
      <trkpt lat="33.80772" lon="77.55837">
        <ele>4659.2</ele>
        <time>2015-09-04T04:21:17Z</time>
      </trkpt>
      <trkpt lat="33.80754" lon="77.55838">
        <ele>4659.6</ele>
        <time>2015-09-04T04:21:44Z</time>
      </trkpt>
      <trkpt lat="33.80738" lon="77.55837">
        <ele>4660.8</ele>
        <time>2015-09-04T04:22:10Z</time>
      </trkpt>
      <trkpt lat="33.80737" lon="77.55837">
        <ele>4660.8</ele>
        <time>2015-09-04T04:22:11Z</time>
      </trkpt>
      <trkpt lat="33.8073" lon="77.55838">
        <ele>4661.8</ele>
        <time>2015-09-04T04:22:24Z</time>
      </trkpt>
      <trkpt lat="33.80722" lon="77.55846">
        <ele>4662.8</ele>
        <time>2015-09-04T04:22:41Z</time>
      </trkpt>
      <trkpt lat="33.80718" lon="77.5585">
        <ele>4663.8</ele>
        <time>2015-09-04T04:22:51Z</time>
      </trkpt>
      <trkpt lat="33.80714" lon="77.55854">
        <ele>4665</ele>
        <time>2015-09-04T04:23:01Z</time>
      </trkpt>
      <trkpt lat="33.80712" lon="77.55859">
        <ele>4666</ele>
        <time>2015-09-04T04:23:10Z</time>
      </trkpt>
      <trkpt lat="33.80707" lon="77.55866">
        <ele>4667</ele>
        <time>2015-09-04T04:23:20Z</time>
      </trkpt>
      <trkpt lat="33.80703" lon="77.55871">
        <ele>4668</ele>
        <time>2015-09-04T04:23:42Z</time>
      </trkpt>
      <trkpt lat="33.80699" lon="77.55877">
        <ele>4669.2</ele>
        <time>2015-09-04T04:23:52Z</time>
      </trkpt>
      <trkpt lat="33.80698" lon="77.55882">
        <ele>4670.2</ele>
        <time>2015-09-04T04:24:01Z</time>
      </trkpt>
      <trkpt lat="33.80692" lon="77.55888">
        <ele>4671.4</ele>
        <time>2015-09-04T04:24:14Z</time>
      </trkpt>
      <trkpt lat="33.8069" lon="77.5589">
        <ele>4672.4</ele>
        <time>2015-09-04T04:24:22Z</time>
      </trkpt>
      <trkpt lat="33.80686" lon="77.55891">
        <ele>4673.6</ele>
        <time>2015-09-04T04:24:37Z</time>
      </trkpt>
      <trkpt lat="33.80685" lon="77.55894">
        <ele>4674.6</ele>
        <time>2015-09-04T04:24:51Z</time>
      </trkpt>
      <trkpt lat="33.80681" lon="77.559">
        <ele>4675.6</ele>
        <time>2015-09-04T04:25:03Z</time>
      </trkpt>
      <trkpt lat="33.80678" lon="77.55911">
        <ele>4676.6</ele>
        <time>2015-09-04T04:25:19Z</time>
      </trkpt>
      <trkpt lat="33.80676" lon="77.55915">
        <ele>4677.6</ele>
        <time>2015-09-04T04:25:27Z</time>
      </trkpt>
      <trkpt lat="33.80675" lon="77.55926">
        <ele>4678.2</ele>
        <time>2015-09-04T04:25:43Z</time>
      </trkpt>
      <trkpt lat="33.80673" lon="77.55928">
        <ele>4678.8</ele>
        <time>2015-09-04T04:25:51Z</time>
      </trkpt>
      <trkpt lat="33.80669" lon="77.5593">
        <ele>4679.8</ele>
        <time>2015-09-04T04:26:02Z</time>
      </trkpt>
      <trkpt lat="33.80669" lon="77.55935">
        <ele>4680.8</ele>
        <time>2015-09-04T04:26:13Z</time>
      </trkpt>
      <trkpt lat="33.80668" lon="77.55944">
        <ele>4681.6</ele>
        <time>2015-09-04T04:26:27Z</time>
      </trkpt>
      <trkpt lat="33.80667" lon="77.55947">
        <ele>4681.8</ele>
        <time>2015-09-04T04:26:35Z</time>
      </trkpt>
      <trkpt lat="33.80669" lon="77.55951">
        <ele>4682.8</ele>
        <time>2015-09-04T04:27:09Z</time>
      </trkpt>
      <trkpt lat="33.80674" lon="77.55949">
        <ele>4682.8</ele>
        <time>2015-09-04T04:27:30Z</time>
      </trkpt>
      <trkpt lat="33.80672" lon="77.55945">
        <ele>4682.4</ele>
        <time>2015-09-04T04:27:35Z</time>
      </trkpt>
      <trkpt lat="33.80671" lon="77.55939">
        <ele>4681.8</ele>
        <time>2015-09-04T04:27:39Z</time>
      </trkpt>
      <trkpt lat="33.80676" lon="77.55947">
        <ele>4682.8</ele>
        <time>2015-09-04T04:28:06Z</time>
      </trkpt>
      <trkpt lat="33.8067" lon="77.55949">
        <ele>4682.8</ele>
        <time>2015-09-04T04:28:52Z</time>
      </trkpt>
      <trkpt lat="33.80669" lon="77.55949">
        <ele>4682.4</ele>
        <time>2015-09-04T04:28:55Z</time>
      </trkpt>
      <trkpt lat="33.80668" lon="77.55946">
        <ele>4682.8</ele>
        <time>2015-09-04T04:29:29Z</time>
      </trkpt>
      <trkpt lat="33.8067" lon="77.55948">
        <ele>4682.6</ele>
        <time>2015-09-04T04:29:32Z</time>
      </trkpt>
      <trkpt lat="33.80672" lon="77.55946">
        <ele>4682.2</ele>
        <time>2015-09-04T04:29:36Z</time>
      </trkpt>
      <trkpt lat="33.80662" lon="77.5593">
        <ele>4682.2</ele>
        <time>2015-09-04T04:30:04Z</time>
      </trkpt>
      <trkpt lat="33.8066" lon="77.55924">
        <ele>4682.6</ele>
        <time>2015-09-04T04:30:12Z</time>
      </trkpt>
      <trkpt lat="33.80653" lon="77.55922">
        <ele>4683.8</ele>
        <time>2015-09-04T04:30:23Z</time>
      </trkpt>
      <trkpt lat="33.80639" lon="77.55921">
        <ele>4684.8</ele>
        <time>2015-09-04T04:30:40Z</time>
      </trkpt>
      <trkpt lat="33.80638" lon="77.55919">
        <ele>4685</ele>
        <time>2015-09-04T04:30:42Z</time>
      </trkpt>
      <trkpt lat="33.80633" lon="77.55912">
        <ele>4685.8</ele>
        <time>2015-09-04T04:30:56Z</time>
      </trkpt>
      <trkpt lat="33.80633" lon="77.55911">
        <ele>4686</ele>
        <time>2015-09-04T04:30:57Z</time>
      </trkpt>
      <trkpt lat="33.80627" lon="77.55912">
        <ele>4686.6</ele>
        <time>2015-09-04T04:31:05Z</time>
      </trkpt>
      <trkpt lat="33.80626" lon="77.5591">
        <ele>4687.2</ele>
        <time>2015-09-04T04:31:13Z</time>
      </trkpt>
      <trkpt lat="33.80627" lon="77.55906">
        <ele>4688.2</ele>
        <time>2015-09-04T04:31:22Z</time>
      </trkpt>
      <trkpt lat="33.80619" lon="77.55898">
        <ele>4689.2</ele>
        <time>2015-09-04T04:31:39Z</time>
      </trkpt>
      <trkpt lat="33.80615" lon="77.559">
        <ele>4688.8</ele>
        <time>2015-09-04T04:31:46Z</time>
      </trkpt>
      <trkpt lat="33.80613" lon="77.55903">
        <ele>4688.8</ele>
        <time>2015-09-04T04:31:49Z</time>
      </trkpt>
      <trkpt lat="33.80611" lon="77.55909">
        <ele>4689.4</ele>
        <time>2015-09-04T04:31:59Z</time>
      </trkpt>
      <trkpt lat="33.80609" lon="77.55914">
        <ele>4689.6</ele>
        <time>2015-09-04T04:32:03Z</time>
      </trkpt>
      <trkpt lat="33.80607" lon="77.55918">
        <ele>4689.4</ele>
        <time>2015-09-04T04:32:07Z</time>
      </trkpt>
      <trkpt lat="33.80607" lon="77.55923">
        <ele>4689.8</ele>
        <time>2015-09-04T04:32:17Z</time>
      </trkpt>
      <trkpt lat="33.80604" lon="77.55914">
        <ele>4690.4</ele>
        <time>2015-09-04T04:32:38Z</time>
      </trkpt>
      <trkpt lat="33.80604" lon="77.55914">
        <ele>4690.4</ele>
        <time>2015-09-04T04:32:39Z</time>
      </trkpt>
      <trkpt lat="33.80611" lon="77.55919">
        <ele>4690.2</ele>
        <time>2015-09-04T04:33:39Z</time>
      </trkpt>
      <trkpt lat="33.80609" lon="77.5592">
        <ele>4689.2</ele>
        <time>2015-09-04T04:34:01Z</time>
      </trkpt>
      <trkpt lat="33.8061" lon="77.55917">
        <ele>4688.8</ele>
        <time>2015-09-04T04:34:50Z</time>
      </trkpt>
      <trkpt lat="33.80609" lon="77.55918">
        <ele>4689</ele>
        <time>2015-09-04T04:35:41Z</time>
      </trkpt>
      <trkpt lat="33.80612" lon="77.55917">
        <ele>4689</ele>
        <time>2015-09-04T04:36:19Z</time>
      </trkpt>
      <trkpt lat="33.80611" lon="77.55918">
        <ele>4689.2</ele>
        <time>2015-09-04T04:36:57Z</time>
      </trkpt>
      <trkpt lat="33.80611" lon="77.55918">
        <ele>4689.6</ele>
        <time>2015-09-04T04:37:37Z</time>
      </trkpt>
      <trkpt lat="33.8061" lon="77.55918">
        <ele>4689.8</ele>
        <time>2015-09-04T04:38:14Z</time>
      </trkpt>
      <trkpt lat="33.8061" lon="77.55918">
        <ele>4690</ele>
        <time>2015-09-04T04:38:51Z</time>
      </trkpt>
      <trkpt lat="33.8061" lon="77.55918">
        <ele>4690.2</ele>
        <time>2015-09-04T04:39:29Z</time>
      </trkpt>
      <trkpt lat="33.80607" lon="77.5592">
        <ele>4691</ele>
        <time>2015-09-04T04:40:10Z</time>
      </trkpt>
      <trkpt lat="33.80608" lon="77.55921">
        <ele>4690.8</ele>
        <time>2015-09-04T04:42:19Z</time>
      </trkpt>
      <trkpt lat="33.80609" lon="77.55921">
        <ele>4691.4</ele>
        <time>2015-09-04T04:44:29Z</time>
      </trkpt>
      <trkpt lat="33.80608" lon="77.55921">
        <ele>4692</ele>
        <time>2015-09-04T04:44:33Z</time>
      </trkpt>
      <trkpt lat="33.80608" lon="77.55921">
        <ele>4692.4</ele>
        <time>2015-09-04T04:44:35Z</time>
      </trkpt>
      <trkpt lat="33.80606" lon="77.55921">
        <ele>4692.4</ele>
        <time>2015-09-04T04:45:35Z</time>
      </trkpt>
      <trkpt lat="33.80606" lon="77.5592">
        <ele>4692.2</ele>
        <time>2015-09-04T04:45:41Z</time>
      </trkpt>
      <trkpt lat="33.80603" lon="77.55929">
        <ele>4692.6</ele>
        <time>2015-09-04T04:46:32Z</time>
      </trkpt>
      <trkpt lat="33.80602" lon="77.55929">
        <ele>4692.8</ele>
        <time>2015-09-04T04:46:34Z</time>
      </trkpt>
      <trkpt lat="33.80603" lon="77.55932">
        <ele>4693.4</ele>
        <time>2015-09-04T04:46:43Z</time>
      </trkpt>
      <trkpt lat="33.80603" lon="77.5594">
        <ele>4693.8</ele>
        <time>2015-09-04T04:46:59Z</time>
      </trkpt>
      <trkpt lat="33.80607" lon="77.55949">
        <ele>4693.6</ele>
        <time>2015-09-04T04:47:08Z</time>
      </trkpt>
      <trkpt lat="33.80606" lon="77.55958">
        <ele>4693.2</ele>
        <time>2015-09-04T04:47:18Z</time>
      </trkpt>
      <trkpt lat="33.80605" lon="77.55959">
        <ele>4693.2</ele>
        <time>2015-09-04T04:47:20Z</time>
      </trkpt>
      <trkpt lat="33.80604" lon="77.5597">
        <ele>4693.2</ele>
        <time>2015-09-04T04:47:38Z</time>
      </trkpt>
      <trkpt lat="33.80599" lon="77.55977">
        <ele>4692.6</ele>
        <time>2015-09-04T04:47:46Z</time>
      </trkpt>
      <trkpt lat="33.80593" lon="77.55987">
        <ele>4692.4</ele>
        <time>2015-09-04T04:48:04Z</time>
      </trkpt>
      <trkpt lat="33.80594" lon="77.55989">
        <ele>4692.2</ele>
        <time>2015-09-04T04:48:06Z</time>
      </trkpt>
      <trkpt lat="33.80593" lon="77.55993">
        <ele>4691.4</ele>
        <time>2015-09-04T04:48:09Z</time>
      </trkpt>
      <trkpt lat="33.80593" lon="77.55995">
        <ele>4691.2</ele>
        <time>2015-09-04T04:48:10Z</time>
      </trkpt>
      <trkpt lat="33.80595" lon="77.56015">
        <ele>4690.6</ele>
        <time>2015-09-04T04:48:32Z</time>
      </trkpt>
      <trkpt lat="33.80596" lon="77.56017">
        <ele>4690.6</ele>
        <time>2015-09-04T04:48:34Z</time>
      </trkpt>
      <trkpt lat="33.80597" lon="77.56019">
        <ele>4690.6</ele>
        <time>2015-09-04T04:48:37Z</time>
      </trkpt>
      <trkpt lat="33.80597" lon="77.56021">
        <ele>4690.2</ele>
        <time>2015-09-04T04:48:39Z</time>
      </trkpt>
      <trkpt lat="33.80599" lon="77.56023">
        <ele>4690</ele>
        <time>2015-09-04T04:48:41Z</time>
      </trkpt>
      <trkpt lat="33.80603" lon="77.5604">
        <ele>4690</ele>
        <time>2015-09-04T04:49:08Z</time>
      </trkpt>
      <trkpt lat="33.80605" lon="77.56044">
        <ele>4690.2</ele>
        <time>2015-09-04T04:49:17Z</time>
      </trkpt>
      <trkpt lat="33.80607" lon="77.56051">
        <ele>4690.2</ele>
        <time>2015-09-04T04:49:23Z</time>
      </trkpt>
      <trkpt lat="33.80607" lon="77.56054">
        <ele>4690.4</ele>
        <time>2015-09-04T04:49:26Z</time>
      </trkpt>
      <trkpt lat="33.80607" lon="77.5606">
        <ele>4690.6</ele>
        <time>2015-09-04T04:49:33Z</time>
      </trkpt>
      <trkpt lat="33.80609" lon="77.56063">
        <ele>4690.8</ele>
        <time>2015-09-04T04:49:35Z</time>
      </trkpt>
      <trkpt lat="33.80612" lon="77.5607">
        <ele>4691.2</ele>
        <time>2015-09-04T04:49:41Z</time>
      </trkpt>
      <trkpt lat="33.80613" lon="77.56072">
        <ele>4691.2</ele>
        <time>2015-09-04T04:49:45Z</time>
      </trkpt>
      <trkpt lat="33.80615" lon="77.56074">
        <ele>4691.4</ele>
        <time>2015-09-04T04:49:48Z</time>
      </trkpt>
      <trkpt lat="33.80618" lon="77.56079">
        <ele>4691.6</ele>
        <time>2015-09-04T04:49:55Z</time>
      </trkpt>
      <trkpt lat="33.80617" lon="77.56081">
        <ele>4691.8</ele>
        <time>2015-09-04T04:49:57Z</time>
      </trkpt>
      <trkpt lat="33.80611" lon="77.56087">
        <ele>4692.4</ele>
        <time>2015-09-04T04:50:07Z</time>
      </trkpt>
      <trkpt lat="33.80609" lon="77.56093">
        <ele>4692.4</ele>
        <time>2015-09-04T04:50:14Z</time>
      </trkpt>
      <trkpt lat="33.80604" lon="77.56098">
        <ele>4693.4</ele>
        <time>2015-09-04T04:50:27Z</time>
      </trkpt>
      <trkpt lat="33.806" lon="77.56105">
        <ele>4694.4</ele>
        <time>2015-09-04T04:50:40Z</time>
      </trkpt>
      <trkpt lat="33.80597" lon="77.56114">
        <ele>4695.4</ele>
        <time>2015-09-04T04:50:57Z</time>
      </trkpt>
      <trkpt lat="33.80596" lon="77.56131">
        <ele>4696.4</ele>
        <time>2015-09-04T04:51:23Z</time>
      </trkpt>
      <trkpt lat="33.80592" lon="77.56135">
        <ele>4696.8</ele>
        <time>2015-09-04T04:51:29Z</time>
      </trkpt>
      <trkpt lat="33.80592" lon="77.5615">
        <ele>4697.4</ele>
        <time>2015-09-04T04:51:51Z</time>
      </trkpt>
      <trkpt lat="33.80588" lon="77.56163">
        <ele>4698</ele>
        <time>2015-09-04T04:52:09Z</time>
      </trkpt>
      <trkpt lat="33.80587" lon="77.56176">
        <ele>4698.4</ele>
        <time>2015-09-04T04:52:21Z</time>
      </trkpt>
      <trkpt lat="33.80576" lon="77.56191">
        <ele>4699.2</ele>
        <time>2015-09-04T04:52:44Z</time>
      </trkpt>
      <trkpt lat="33.80575" lon="77.56191">
        <ele>4699.2</ele>
        <time>2015-09-04T04:52:45Z</time>
      </trkpt>
      <trkpt lat="33.80568" lon="77.56197">
        <ele>4699.4</ele>
        <time>2015-09-04T04:52:54Z</time>
      </trkpt>
      <trkpt lat="33.80567" lon="77.562">
        <ele>4699.4</ele>
        <time>2015-09-04T04:52:57Z</time>
      </trkpt>
      <trkpt lat="33.80562" lon="77.56209">
        <ele>4699.4</ele>
        <time>2015-09-04T04:53:09Z</time>
      </trkpt>
      <trkpt lat="33.80558" lon="77.56218">
        <ele>4700.6</ele>
        <time>2015-09-04T04:53:28Z</time>
      </trkpt>
      <trkpt lat="33.80556" lon="77.5622">
        <ele>4701</ele>
        <time>2015-09-04T04:53:32Z</time>
      </trkpt>
      <trkpt lat="33.8055" lon="77.56229">
        <ele>4701.6</ele>
        <time>2015-09-04T04:53:43Z</time>
      </trkpt>
      <trkpt lat="33.8055" lon="77.5623">
        <ele>4701.6</ele>
        <time>2015-09-04T04:53:44Z</time>
      </trkpt>
      <trkpt lat="33.8055" lon="77.56242">
        <ele>4702.6</ele>
        <time>2015-09-04T04:53:59Z</time>
      </trkpt>
      <trkpt lat="33.80549" lon="77.5625">
        <ele>4703.6</ele>
        <time>2015-09-04T04:54:13Z</time>
      </trkpt>
      <trkpt lat="33.80549" lon="77.56261">
        <ele>4704.8</ele>
        <time>2015-09-04T04:54:31Z</time>
      </trkpt>
      <trkpt lat="33.80544" lon="77.56268">
        <ele>4705.8</ele>
        <time>2015-09-04T04:54:44Z</time>
      </trkpt>
      <trkpt lat="33.80537" lon="77.56276">
        <ele>4706.8</ele>
        <time>2015-09-04T04:54:56Z</time>
      </trkpt>
      <trkpt lat="33.80537" lon="77.56282">
        <ele>4708</ele>
        <time>2015-09-04T04:55:09Z</time>
      </trkpt>
      <trkpt lat="33.80529" lon="77.56294">
        <ele>4709</ele>
        <time>2015-09-04T04:55:27Z</time>
      </trkpt>
      <trkpt lat="33.80529" lon="77.56295">
        <ele>4709</ele>
        <time>2015-09-04T04:55:28Z</time>
      </trkpt>
      <trkpt lat="33.80528" lon="77.56296">
        <ele>4709</ele>
        <time>2015-09-04T04:55:30Z</time>
      </trkpt>
      <trkpt lat="33.80519" lon="77.56312">
        <ele>4710</ele>
        <time>2015-09-04T04:55:56Z</time>
      </trkpt>
      <trkpt lat="33.80514" lon="77.56316">
        <ele>4710</ele>
        <time>2015-09-04T04:56:03Z</time>
      </trkpt>
      <trkpt lat="33.80513" lon="77.56317">
        <ele>4710.2</ele>
        <time>2015-09-04T04:56:05Z</time>
      </trkpt>
      <trkpt lat="33.80512" lon="77.56322">
        <ele>4710.2</ele>
        <time>2015-09-04T04:56:10Z</time>
      </trkpt>
      <trkpt lat="33.8051" lon="77.56325">
        <ele>4710.4</ele>
        <time>2015-09-04T04:56:14Z</time>
      </trkpt>
      <trkpt lat="33.80511" lon="77.56331">
        <ele>4711</ele>
        <time>2015-09-04T04:56:23Z</time>
      </trkpt>
      <trkpt lat="33.80505" lon="77.5634">
        <ele>4712</ele>
        <time>2015-09-04T04:56:36Z</time>
      </trkpt>
      <trkpt lat="33.80508" lon="77.56351">
        <ele>4712.2</ele>
        <time>2015-09-04T04:56:50Z</time>
      </trkpt>
      <trkpt lat="33.80505" lon="77.56359">
        <ele>4713</ele>
        <time>2015-09-04T04:57:03Z</time>
      </trkpt>
      <trkpt lat="33.80503" lon="77.56362">
        <ele>4713.6</ele>
        <time>2015-09-04T04:57:09Z</time>
      </trkpt>
      <trkpt lat="33.80501" lon="77.56362">
        <ele>4714</ele>
        <time>2015-09-04T04:57:14Z</time>
      </trkpt>
      <trkpt lat="33.805" lon="77.56367">
        <ele>4715</ele>
        <time>2015-09-04T04:57:23Z</time>
      </trkpt>
      <trkpt lat="33.80497" lon="77.56376">
        <ele>4716.2</ele>
        <time>2015-09-04T04:57:34Z</time>
      </trkpt>
      <trkpt lat="33.80495" lon="77.5638">
        <ele>4716.2</ele>
        <time>2015-09-04T04:57:37Z</time>
      </trkpt>
      <trkpt lat="33.80491" lon="77.56387">
        <ele>4717.2</ele>
        <time>2015-09-04T04:57:58Z</time>
      </trkpt>
      <trkpt lat="33.80489" lon="77.56391">
        <ele>4718.2</ele>
        <time>2015-09-04T04:58:09Z</time>
      </trkpt>
      <trkpt lat="33.80487" lon="77.56403">
        <ele>4719.4</ele>
        <time>2015-09-04T04:58:26Z</time>
      </trkpt>
      <trkpt lat="33.80482" lon="77.5641">
        <ele>4720.4</ele>
        <time>2015-09-04T04:58:38Z</time>
      </trkpt>
      <trkpt lat="33.80479" lon="77.56418">
        <ele>4721.4</ele>
        <time>2015-09-04T04:58:54Z</time>
      </trkpt>
      <trkpt lat="33.8047" lon="77.56423">
        <ele>4722.2</ele>
        <time>2015-09-04T04:59:12Z</time>
      </trkpt>
      <trkpt lat="33.80469" lon="77.56425">
        <ele>4722.4</ele>
        <time>2015-09-04T04:59:14Z</time>
      </trkpt>
      <trkpt lat="33.80469" lon="77.56426">
        <ele>4722.4</ele>
        <time>2015-09-04T04:59:16Z</time>
      </trkpt>
      <trkpt lat="33.80466" lon="77.56434">
        <ele>4723.4</ele>
        <time>2015-09-04T04:59:33Z</time>
      </trkpt>
      <trkpt lat="33.80463" lon="77.56442">
        <ele>4724.6</ele>
        <time>2015-09-04T04:59:46Z</time>
      </trkpt>
      <trkpt lat="33.8046" lon="77.56451">
        <ele>4725.6</ele>
        <time>2015-09-04T05:00:06Z</time>
      </trkpt>
      <trkpt lat="33.8046" lon="77.56459">
        <ele>4726.6</ele>
        <time>2015-09-04T05:00:20Z</time>
      </trkpt>
      <trkpt lat="33.80459" lon="77.56464">
        <ele>4727.6</ele>
        <time>2015-09-04T05:00:32Z</time>
      </trkpt>
      <trkpt lat="33.80454" lon="77.56475">
        <ele>4728</ele>
        <time>2015-09-04T05:00:45Z</time>
      </trkpt>
      <trkpt lat="33.8045" lon="77.56482">
        <ele>4728.8</ele>
        <time>2015-09-04T05:01:02Z</time>
      </trkpt>
      <trkpt lat="33.80445" lon="77.56486">
        <ele>4729.8</ele>
        <time>2015-09-04T05:01:14Z</time>
      </trkpt>
      <trkpt lat="33.80443" lon="77.56488">
        <ele>4731</ele>
        <time>2015-09-04T05:01:27Z</time>
      </trkpt>
      <trkpt lat="33.80439" lon="77.56496">
        <ele>4732</ele>
        <time>2015-09-04T05:01:44Z</time>
      </trkpt>
      <trkpt lat="33.80435" lon="77.56503">
        <ele>4733</ele>
        <time>2015-09-04T05:01:55Z</time>
      </trkpt>
      <trkpt lat="33.8043" lon="77.56516">
        <ele>4734</ele>
        <time>2015-09-04T05:02:17Z</time>
      </trkpt>
      <trkpt lat="33.80428" lon="77.5652">
        <ele>4735.2</ele>
        <time>2015-09-04T05:02:25Z</time>
      </trkpt>
      <trkpt lat="33.80427" lon="77.56522">
        <ele>4736.2</ele>
        <time>2015-09-04T05:02:37Z</time>
      </trkpt>
      <trkpt lat="33.80427" lon="77.56529">
        <ele>4737.4</ele>
        <time>2015-09-04T05:02:48Z</time>
      </trkpt>
      <trkpt lat="33.80423" lon="77.56535">
        <ele>4738.4</ele>
        <time>2015-09-04T05:03:01Z</time>
      </trkpt>
      <trkpt lat="33.80418" lon="77.5655">
        <ele>4739.4</ele>
        <time>2015-09-04T05:03:19Z</time>
      </trkpt>
      <trkpt lat="33.80416" lon="77.56551">
        <ele>4739.4</ele>
        <time>2015-09-04T05:03:22Z</time>
      </trkpt>
      <trkpt lat="33.80413" lon="77.56558">
        <ele>4740.4</ele>
        <time>2015-09-04T05:03:34Z</time>
      </trkpt>
      <trkpt lat="33.8041" lon="77.56567">
        <ele>4741</ele>
        <time>2015-09-04T05:03:44Z</time>
      </trkpt>
      <trkpt lat="33.80407" lon="77.56573">
        <ele>4741.4</ele>
        <time>2015-09-04T05:03:56Z</time>
      </trkpt>
      <trkpt lat="33.80408" lon="77.56581">
        <ele>4742</ele>
        <time>2015-09-04T05:04:05Z</time>
      </trkpt>
      <trkpt lat="33.80408" lon="77.56587">
        <ele>4742.6</ele>
        <time>2015-09-04T05:04:13Z</time>
      </trkpt>
      <trkpt lat="33.80402" lon="77.56596">
        <ele>4743.6</ele>
        <time>2015-09-04T05:04:30Z</time>
      </trkpt>
      <trkpt lat="33.80399" lon="77.56608">
        <ele>4744.6</ele>
        <time>2015-09-04T05:04:48Z</time>
      </trkpt>
      <trkpt lat="33.80399" lon="77.56609">
        <ele>4744.8</ele>
        <time>2015-09-04T05:04:50Z</time>
      </trkpt>
      <trkpt lat="33.80398" lon="77.56614">
        <ele>4745.6</ele>
        <time>2015-09-04T05:04:57Z</time>
      </trkpt>
      <trkpt lat="33.80398" lon="77.56615">
        <ele>4745.8</ele>
        <time>2015-09-04T05:04:58Z</time>
      </trkpt>
      <trkpt lat="33.80395" lon="77.5662">
        <ele>4746.4</ele>
        <time>2015-09-04T05:05:03Z</time>
      </trkpt>
      <trkpt lat="33.80392" lon="77.5662">
        <ele>4746.6</ele>
        <time>2015-09-04T05:05:06Z</time>
      </trkpt>
      <trkpt lat="33.80393" lon="77.56621">
        <ele>4746.8</ele>
        <time>2015-09-04T05:05:07Z</time>
      </trkpt>
      <trkpt lat="33.80394" lon="77.56623">
        <ele>4747</ele>
        <time>2015-09-04T05:05:09Z</time>
      </trkpt>
      <trkpt lat="33.80393" lon="77.56623">
        <ele>4747</ele>
        <time>2015-09-04T05:05:11Z</time>
      </trkpt>
      <trkpt lat="33.80392" lon="77.56636">
        <ele>4747.8</ele>
        <time>2015-09-04T05:05:27Z</time>
      </trkpt>
      <trkpt lat="33.80388" lon="77.56645">
        <ele>4748.8</ele>
        <time>2015-09-04T05:05:37Z</time>
      </trkpt>
      <trkpt lat="33.80387" lon="77.56645">
        <ele>4748.8</ele>
        <time>2015-09-04T05:05:38Z</time>
      </trkpt>
      <trkpt lat="33.80378" lon="77.56661">
        <ele>4749.8</ele>
        <time>2015-09-04T05:06:01Z</time>
      </trkpt>
      <trkpt lat="33.80371" lon="77.5668">
        <ele>4750</ele>
        <time>2015-09-04T05:06:26Z</time>
      </trkpt>
      <trkpt lat="33.80368" lon="77.56684">
        <ele>4750.2</ele>
        <time>2015-09-04T05:06:30Z</time>
      </trkpt>
      <trkpt lat="33.80367" lon="77.56685">
        <ele>4750.4</ele>
        <time>2015-09-04T05:06:32Z</time>
      </trkpt>
      <trkpt lat="33.80365" lon="77.56688">
        <ele>4750.8</ele>
        <time>2015-09-04T05:06:37Z</time>
      </trkpt>
      <trkpt lat="33.80356" lon="77.56696">
        <ele>4751.8</ele>
        <time>2015-09-04T05:06:52Z</time>
      </trkpt>
      <trkpt lat="33.80353" lon="77.56699">
        <ele>4752.2</ele>
        <time>2015-09-04T05:06:56Z</time>
      </trkpt>
      <trkpt lat="33.8035" lon="77.56701">
        <ele>4752.2</ele>
        <time>2015-09-04T05:06:59Z</time>
      </trkpt>
      <trkpt lat="33.80347" lon="77.56701">
        <ele>4752.4</ele>
        <time>2015-09-04T05:07:03Z</time>
      </trkpt>
      <trkpt lat="33.8034" lon="77.56709">
        <ele>4753</ele>
        <time>2015-09-04T05:07:18Z</time>
      </trkpt>
      <trkpt lat="33.80338" lon="77.56711">
        <ele>4753</ele>
        <time>2015-09-04T05:07:21Z</time>
      </trkpt>
      <trkpt lat="33.8033" lon="77.5672">
        <ele>4753</ele>
        <time>2015-09-04T05:07:32Z</time>
      </trkpt>
      <trkpt lat="33.80324" lon="77.56725">
        <ele>4753.4</ele>
        <time>2015-09-04T05:07:40Z</time>
      </trkpt>
      <trkpt lat="33.8032" lon="77.56729">
        <ele>4753.4</ele>
        <time>2015-09-04T05:07:47Z</time>
      </trkpt>
      <trkpt lat="33.80309" lon="77.56735">
        <ele>4753.8</ele>
        <time>2015-09-04T05:08:01Z</time>
      </trkpt>
      <trkpt lat="33.80307" lon="77.56737">
        <ele>4754</ele>
        <time>2015-09-04T05:08:04Z</time>
      </trkpt>
      <trkpt lat="33.80304" lon="77.56737">
        <ele>4754.4</ele>
        <time>2015-09-04T05:08:08Z</time>
      </trkpt>
      <trkpt lat="33.80302" lon="77.56737">
        <ele>4754.8</ele>
        <time>2015-09-04T05:08:11Z</time>
      </trkpt>
      <trkpt lat="33.803" lon="77.56738">
        <ele>4755</ele>
        <time>2015-09-04T05:08:14Z</time>
      </trkpt>
      <trkpt lat="33.80299" lon="77.56739">
        <ele>4755</ele>
        <time>2015-09-04T05:08:15Z</time>
      </trkpt>
      <trkpt lat="33.80291" lon="77.56749">
        <ele>4755</ele>
        <time>2015-09-04T05:08:30Z</time>
      </trkpt>
      <trkpt lat="33.8029" lon="77.56752">
        <ele>4754.8</ele>
        <time>2015-09-04T05:08:32Z</time>
      </trkpt>
      <trkpt lat="33.80285" lon="77.56755">
        <ele>4753.8</ele>
        <time>2015-09-04T05:08:40Z</time>
      </trkpt>
      <trkpt lat="33.80282" lon="77.56758">
        <ele>4753.4</ele>
        <time>2015-09-04T05:08:44Z</time>
      </trkpt>
      <trkpt lat="33.80272" lon="77.56762">
        <ele>4752.8</ele>
        <time>2015-09-04T05:08:56Z</time>
      </trkpt>
      <trkpt lat="33.80265" lon="77.56775">
        <ele>4751.8</ele>
        <time>2015-09-04T05:09:06Z</time>
      </trkpt>
      <trkpt lat="33.80259" lon="77.56788">
        <ele>4750.8</ele>
        <time>2015-09-04T05:09:19Z</time>
      </trkpt>
      <trkpt lat="33.80256" lon="77.56791">
        <ele>4751</ele>
        <time>2015-09-04T05:09:23Z</time>
      </trkpt>
      <trkpt lat="33.80248" lon="77.56809">
        <ele>4752.8</ele>
        <time>2015-09-04T05:09:46Z</time>
      </trkpt>
      <trkpt lat="33.80247" lon="77.56816">
        <ele>4753</ele>
        <time>2015-09-04T05:09:54Z</time>
      </trkpt>
      <trkpt lat="33.80245" lon="77.56826">
        <ele>4753.2</ele>
        <time>2015-09-04T05:10:06Z</time>
      </trkpt>
      <trkpt lat="33.80243" lon="77.5683">
        <ele>4753.6</ele>
        <time>2015-09-04T05:10:10Z</time>
      </trkpt>
      <trkpt lat="33.80242" lon="77.56834">
        <ele>4753.8</ele>
        <time>2015-09-04T05:10:15Z</time>
      </trkpt>
      <trkpt lat="33.80239" lon="77.56838">
        <ele>4754.2</ele>
        <time>2015-09-04T05:10:21Z</time>
      </trkpt>
      <trkpt lat="33.80236" lon="77.56854">
        <ele>4754.8</ele>
        <time>2015-09-04T05:10:39Z</time>
      </trkpt>
      <trkpt lat="33.80233" lon="77.56857">
        <ele>4755.8</ele>
        <time>2015-09-04T05:10:46Z</time>
      </trkpt>
      <trkpt lat="33.80223" lon="77.56868">
        <ele>4757</ele>
        <time>2015-09-04T05:11:07Z</time>
      </trkpt>
      <trkpt lat="33.8022" lon="77.56875">
        <ele>4757.6</ele>
        <time>2015-09-04T05:11:14Z</time>
      </trkpt>
      <trkpt lat="33.80217" lon="77.5688">
        <ele>4758</ele>
        <time>2015-09-04T05:11:21Z</time>
      </trkpt>
      <trkpt lat="33.80212" lon="77.5689">
        <ele>4758.8</ele>
        <time>2015-09-04T05:11:34Z</time>
      </trkpt>
      <trkpt lat="33.80208" lon="77.56889">
        <ele>4759</ele>
        <time>2015-09-04T05:11:37Z</time>
      </trkpt>
      <trkpt lat="33.80207" lon="77.56889">
        <ele>4759.2</ele>
        <time>2015-09-04T05:11:38Z</time>
      </trkpt>
      <trkpt lat="33.80206" lon="77.5689">
        <ele>4759.2</ele>
        <time>2015-09-04T05:11:40Z</time>
      </trkpt>
      <trkpt lat="33.80203" lon="77.56892">
        <ele>4759.6</ele>
        <time>2015-09-04T05:11:47Z</time>
      </trkpt>
      <trkpt lat="33.80202" lon="77.56894">
        <ele>4760</ele>
        <time>2015-09-04T05:11:50Z</time>
      </trkpt>
      <trkpt lat="33.80197" lon="77.56905">
        <ele>4760.8</ele>
        <time>2015-09-04T05:12:05Z</time>
      </trkpt>
      <trkpt lat="33.80197" lon="77.56907">
        <ele>4761</ele>
        <time>2015-09-04T05:12:07Z</time>
      </trkpt>
      <trkpt lat="33.80192" lon="77.56912">
        <ele>4761.6</ele>
        <time>2015-09-04T05:12:18Z</time>
      </trkpt>
      <trkpt lat="33.80191" lon="77.56914">
        <ele>4762</ele>
        <time>2015-09-04T05:12:22Z</time>
      </trkpt>
      <trkpt lat="33.80185" lon="77.56916">
        <ele>4763.2</ele>
        <time>2015-09-04T05:12:31Z</time>
      </trkpt>
      <trkpt lat="33.80178" lon="77.5692">
        <ele>4764.2</ele>
        <time>2015-09-04T05:12:42Z</time>
      </trkpt>
      <trkpt lat="33.80174" lon="77.56923">
        <ele>4765</ele>
        <time>2015-09-04T05:12:50Z</time>
      </trkpt>
      <trkpt lat="33.80175" lon="77.56923">
        <ele>4765.2</ele>
        <time>2015-09-04T05:12:54Z</time>
      </trkpt>
      <trkpt lat="33.80168" lon="77.56928">
        <ele>4766</ele>
        <time>2015-09-04T05:13:07Z</time>
      </trkpt>
      <trkpt lat="33.80166" lon="77.56928">
        <ele>4766</ele>
        <time>2015-09-04T05:13:10Z</time>
      </trkpt>
      <trkpt lat="33.80159" lon="77.56932">
        <ele>4766.2</ele>
        <time>2015-09-04T05:13:22Z</time>
      </trkpt>
      <trkpt lat="33.80154" lon="77.56934">
        <ele>4767.2</ele>
        <time>2015-09-04T05:13:44Z</time>
      </trkpt>
      <trkpt lat="33.80154" lon="77.56937">
        <ele>4767.4</ele>
        <time>2015-09-04T05:13:48Z</time>
      </trkpt>
      <trkpt lat="33.80149" lon="77.5695">
        <ele>4768.4</ele>
        <time>2015-09-04T05:14:06Z</time>
      </trkpt>
      <trkpt lat="33.80147" lon="77.56961">
        <ele>4769.4</ele>
        <time>2015-09-04T05:14:20Z</time>
      </trkpt>
      <trkpt lat="33.80143" lon="77.56971">
        <ele>4770.4</ele>
        <time>2015-09-04T05:14:34Z</time>
      </trkpt>
      <trkpt lat="33.80138" lon="77.56976">
        <ele>4771.4</ele>
        <time>2015-09-04T05:14:48Z</time>
      </trkpt>
      <trkpt lat="33.80137" lon="77.56978">
        <ele>4771.4</ele>
        <time>2015-09-04T05:14:50Z</time>
      </trkpt>
      <trkpt lat="33.80132" lon="77.56981">
        <ele>4772.6</ele>
        <time>2015-09-04T05:15:02Z</time>
      </trkpt>
      <trkpt lat="33.80129" lon="77.56985">
        <ele>4773.6</ele>
        <time>2015-09-04T05:15:13Z</time>
      </trkpt>
      <trkpt lat="33.80122" lon="77.57">
        <ele>4774.8</ele>
        <time>2015-09-04T05:15:36Z</time>
      </trkpt>
      <trkpt lat="33.8012" lon="77.57006">
        <ele>4775.8</ele>
        <time>2015-09-04T05:15:46Z</time>
      </trkpt>
      <trkpt lat="33.80118" lon="77.57013">
        <ele>4776.8</ele>
        <time>2015-09-04T05:15:55Z</time>
      </trkpt>
      <trkpt lat="33.80116" lon="77.57018">
        <ele>4777.8</ele>
        <time>2015-09-04T05:16:04Z</time>
      </trkpt>
      <trkpt lat="33.80106" lon="77.57019">
        <ele>4778.8</ele>
        <time>2015-09-04T05:16:54Z</time>
      </trkpt>
      <trkpt lat="33.801" lon="77.5703">
        <ele>4780</ele>
        <time>2015-09-04T05:17:13Z</time>
      </trkpt>
      <trkpt lat="33.80089" lon="77.57038">
        <ele>4781</ele>
        <time>2015-09-04T05:17:33Z</time>
      </trkpt>
      <trkpt lat="33.80084" lon="77.57043">
        <ele>4782</ele>
        <time>2015-09-04T05:17:49Z</time>
      </trkpt>
      <trkpt lat="33.80078" lon="77.57052">
        <ele>4783</ele>
        <time>2015-09-04T05:18:02Z</time>
      </trkpt>
      <trkpt lat="33.80069" lon="77.57066">
        <ele>4784</ele>
        <time>2015-09-04T05:18:29Z</time>
      </trkpt>
      <trkpt lat="33.80063" lon="77.57075">
        <ele>4785.2</ele>
        <time>2015-09-04T05:18:43Z</time>
      </trkpt>
      <trkpt lat="33.80061" lon="77.57084">
        <ele>4786.4</ele>
        <time>2015-09-04T05:18:57Z</time>
      </trkpt>
      <trkpt lat="33.80054" lon="77.57091">
        <ele>4787.4</ele>
        <time>2015-09-04T05:19:14Z</time>
      </trkpt>
      <trkpt lat="33.80049" lon="77.57097">
        <ele>4788.6</ele>
        <time>2015-09-04T05:19:33Z</time>
      </trkpt>
      <trkpt lat="33.80045" lon="77.57108">
        <ele>4789.6</ele>
        <time>2015-09-04T05:19:46Z</time>
      </trkpt>
      <trkpt lat="33.80045" lon="77.57108">
        <ele>4789.6</ele>
        <time>2015-09-04T05:19:47Z</time>
      </trkpt>
      <trkpt lat="33.80045" lon="77.57111">
        <ele>4790.6</ele>
        <time>2015-09-04T05:19:58Z</time>
      </trkpt>
      <trkpt lat="33.80042" lon="77.57116">
        <ele>4791.6</ele>
        <time>2015-09-04T05:20:11Z</time>
      </trkpt>
      <trkpt lat="33.80041" lon="77.5712">
        <ele>4792</ele>
        <time>2015-09-04T05:20:16Z</time>
      </trkpt>
      <trkpt lat="33.80039" lon="77.57124">
        <ele>4792.8</ele>
        <time>2015-09-04T05:20:22Z</time>
      </trkpt>
      <trkpt lat="33.80032" lon="77.57124">
        <ele>4793.8</ele>
        <time>2015-09-04T05:20:43Z</time>
      </trkpt>
      <trkpt lat="33.8003" lon="77.57132">
        <ele>4794.8</ele>
        <time>2015-09-04T05:20:55Z</time>
      </trkpt>
      <trkpt lat="33.80029" lon="77.57135">
        <ele>4795.4</ele>
        <time>2015-09-04T05:20:59Z</time>
      </trkpt>
      <trkpt lat="33.80025" lon="77.57142">
        <ele>4795.8</ele>
        <time>2015-09-04T05:21:10Z</time>
      </trkpt>
      <trkpt lat="33.80022" lon="77.57146">
        <ele>4796.8</ele>
        <time>2015-09-04T05:21:21Z</time>
      </trkpt>
      <trkpt lat="33.80013" lon="77.57157">
        <ele>4797.8</ele>
        <time>2015-09-04T05:21:46Z</time>
      </trkpt>
      <trkpt lat="33.80013" lon="77.57158">
        <ele>4797.8</ele>
        <time>2015-09-04T05:21:47Z</time>
      </trkpt>
      <trkpt lat="33.80005" lon="77.57169">
        <ele>4798.8</ele>
        <time>2015-09-04T05:22:06Z</time>
      </trkpt>
      <trkpt lat="33.79989" lon="77.57169">
        <ele>4800</ele>
        <time>2015-09-04T05:22:29Z</time>
      </trkpt>
      <trkpt lat="33.7998" lon="77.57176">
        <ele>4801</ele>
        <time>2015-09-04T05:23:05Z</time>
      </trkpt>
      <trkpt lat="33.79975" lon="77.5719">
        <ele>4802</ele>
        <time>2015-09-04T05:23:38Z</time>
      </trkpt>
      <trkpt lat="33.7997" lon="77.57198">
        <ele>4802.8</ele>
        <time>2015-09-04T05:23:48Z</time>
      </trkpt>
      <trkpt lat="33.79969" lon="77.57198">
        <ele>4803</ele>
        <time>2015-09-04T05:23:51Z</time>
      </trkpt>
      <trkpt lat="33.79963" lon="77.57204">
        <ele>4804</ele>
        <time>2015-09-04T05:24:01Z</time>
      </trkpt>
      <trkpt lat="33.79953" lon="77.57214">
        <ele>4805</ele>
        <time>2015-09-04T05:24:20Z</time>
      </trkpt>
      <trkpt lat="33.79937" lon="77.57223">
        <ele>4806</ele>
        <time>2015-09-04T05:24:50Z</time>
      </trkpt>
      <trkpt lat="33.79937" lon="77.57224">
        <ele>4806.2</ele>
        <time>2015-09-04T05:24:51Z</time>
      </trkpt>
      <trkpt lat="33.79931" lon="77.57237">
        <ele>4807.2</ele>
        <time>2015-09-04T05:25:11Z</time>
      </trkpt>
      <trkpt lat="33.79929" lon="77.57242">
        <ele>4808.2</ele>
        <time>2015-09-04T05:25:18Z</time>
      </trkpt>
      <trkpt lat="33.7992" lon="77.57252">
        <ele>4809.2</ele>
        <time>2015-09-04T05:25:32Z</time>
      </trkpt>
      <trkpt lat="33.79913" lon="77.57254">
        <ele>4810.2</ele>
        <time>2015-09-04T05:25:50Z</time>
      </trkpt>
      <trkpt lat="33.79917" lon="77.57254">
        <ele>4810.4</ele>
        <time>2015-09-04T05:26:57Z</time>
      </trkpt>
      <trkpt lat="33.79913" lon="77.57258">
        <ele>4810.8</ele>
        <time>2015-09-04T05:27:35Z</time>
      </trkpt>
      <trkpt lat="33.79914" lon="77.57256">
        <ele>4810.8</ele>
        <time>2015-09-04T05:27:45Z</time>
      </trkpt>
      <trkpt lat="33.79907" lon="77.57261">
        <ele>4811.6</ele>
        <time>2015-09-04T05:28:04Z</time>
      </trkpt>
      <trkpt lat="33.79907" lon="77.57266">
        <ele>4812.6</ele>
        <time>2015-09-04T05:28:10Z</time>
      </trkpt>
      <trkpt lat="33.79895" lon="77.57278">
        <ele>4813.6</ele>
        <time>2015-09-04T05:28:36Z</time>
      </trkpt>
      <trkpt lat="33.79894" lon="77.57279">
        <ele>4813.8</ele>
        <time>2015-09-04T05:28:37Z</time>
      </trkpt>
      <trkpt lat="33.7989" lon="77.57281">
        <ele>4814.8</ele>
        <time>2015-09-04T05:28:45Z</time>
      </trkpt>
      <trkpt lat="33.79886" lon="77.57287">
        <ele>4815.8</ele>
        <time>2015-09-04T05:28:55Z</time>
      </trkpt>
      <trkpt lat="33.79879" lon="77.57289">
        <ele>4816.4</ele>
        <time>2015-09-04T05:29:05Z</time>
      </trkpt>
      <trkpt lat="33.79877" lon="77.57296">
        <ele>4816.8</ele>
        <time>2015-09-04T05:29:12Z</time>
      </trkpt>
      <trkpt lat="33.7988" lon="77.57302">
        <ele>4817.2</ele>
        <time>2015-09-04T05:29:16Z</time>
      </trkpt>
      <trkpt lat="33.79881" lon="77.57305">
        <ele>4817.4</ele>
        <time>2015-09-04T05:29:20Z</time>
      </trkpt>
      <trkpt lat="33.7988" lon="77.57308">
        <ele>4818</ele>
        <time>2015-09-04T05:29:23Z</time>
      </trkpt>
      <trkpt lat="33.79876" lon="77.57322">
        <ele>4818.6</ele>
        <time>2015-09-04T05:29:42Z</time>
      </trkpt>
      <trkpt lat="33.7987" lon="77.57328">
        <ele>4819</ele>
        <time>2015-09-04T05:29:52Z</time>
      </trkpt>
      <trkpt lat="33.79859" lon="77.57342">
        <ele>4820</ele>
        <time>2015-09-04T05:30:14Z</time>
      </trkpt>
      <trkpt lat="33.79857" lon="77.57349">
        <ele>4820.2</ele>
        <time>2015-09-04T05:30:20Z</time>
      </trkpt>
      <trkpt lat="33.79857" lon="77.57351">
        <ele>4820.4</ele>
        <time>2015-09-04T05:30:22Z</time>
      </trkpt>
      <trkpt lat="33.79851" lon="77.57356">
        <ele>4821</ele>
        <time>2015-09-04T05:30:42Z</time>
      </trkpt>
      <trkpt lat="33.79841" lon="77.57373">
        <ele>4822</ele>
        <time>2015-09-04T05:31:11Z</time>
      </trkpt>
      <trkpt lat="33.79837" lon="77.57386">
        <ele>4822</ele>
        <time>2015-09-04T05:31:26Z</time>
      </trkpt>
      <trkpt lat="33.79835" lon="77.57391">
        <ele>4822.4</ele>
        <time>2015-09-04T05:31:31Z</time>
      </trkpt>
      <trkpt lat="33.79832" lon="77.574">
        <ele>4822.8</ele>
        <time>2015-09-04T05:31:40Z</time>
      </trkpt>
      <trkpt lat="33.79831" lon="77.57403">
        <ele>4822.8</ele>
        <time>2015-09-04T05:31:42Z</time>
      </trkpt>
      <trkpt lat="33.7983" lon="77.57407">
        <ele>4823</ele>
        <time>2015-09-04T05:31:46Z</time>
      </trkpt>
      <trkpt lat="33.7983" lon="77.57408">
        <ele>4823</ele>
        <time>2015-09-04T05:31:48Z</time>
      </trkpt>
      <trkpt lat="33.79822" lon="77.5742">
        <ele>4823.6</ele>
        <time>2015-09-04T05:32:08Z</time>
      </trkpt>
      <trkpt lat="33.79821" lon="77.57423">
        <ele>4824</ele>
        <time>2015-09-04T05:32:12Z</time>
      </trkpt>
      <trkpt lat="33.7982" lon="77.57426">
        <ele>4824</ele>
        <time>2015-09-04T05:32:17Z</time>
      </trkpt>
      <trkpt lat="33.79817" lon="77.57426">
        <ele>4824.2</ele>
        <time>2015-09-04T05:32:22Z</time>
      </trkpt>
      <trkpt lat="33.79813" lon="77.57449">
        <ele>4824.8</ele>
        <time>2015-09-04T05:32:42Z</time>
      </trkpt>
      <trkpt lat="33.79809" lon="77.57452">
        <ele>4825</ele>
        <time>2015-09-04T05:32:49Z</time>
      </trkpt>
      <trkpt lat="33.79804" lon="77.57465">
        <ele>4825.6</ele>
        <time>2015-09-04T05:33:08Z</time>
      </trkpt>
      <trkpt lat="33.79792" lon="77.57481">
        <ele>4826.2</ele>
        <time>2015-09-04T05:33:39Z</time>
      </trkpt>
      <trkpt lat="33.79792" lon="77.57491">
        <ele>4826.4</ele>
        <time>2015-09-04T05:33:44Z</time>
      </trkpt>
      <trkpt lat="33.79789" lon="77.57502">
        <ele>4826.8</ele>
        <time>2015-09-04T05:33:52Z</time>
      </trkpt>
      <trkpt lat="33.79787" lon="77.57504">
        <ele>4827.2</ele>
        <time>2015-09-04T05:33:58Z</time>
      </trkpt>
      <trkpt lat="33.79783" lon="77.57515">
        <ele>4827.6</ele>
        <time>2015-09-04T05:34:12Z</time>
      </trkpt>
      <trkpt lat="33.79784" lon="77.5752">
        <ele>4827.4</ele>
        <time>2015-09-04T05:34:15Z</time>
      </trkpt>
      <trkpt lat="33.79784" lon="77.57521">
        <ele>4827.4</ele>
        <time>2015-09-04T05:34:17Z</time>
      </trkpt>
      <trkpt lat="33.79778" lon="77.57538">
        <ele>4827.4</ele>
        <time>2015-09-04T05:34:35Z</time>
      </trkpt>
      <trkpt lat="33.79778" lon="77.57539">
        <ele>4827.4</ele>
        <time>2015-09-04T05:34:37Z</time>
      </trkpt>
      <trkpt lat="33.79776" lon="77.57544">
        <ele>4828.2</ele>
        <time>2015-09-04T05:35:03Z</time>
      </trkpt>
      <trkpt lat="33.79773" lon="77.57558">
        <ele>4828.8</ele>
        <time>2015-09-04T05:35:16Z</time>
      </trkpt>
      <trkpt lat="33.79772" lon="77.57562">
        <ele>4829.4</ele>
        <time>2015-09-04T05:35:23Z</time>
      </trkpt>
      <trkpt lat="33.79766" lon="77.57583">
        <ele>4830.2</ele>
        <time>2015-09-04T05:35:49Z</time>
      </trkpt>
      <trkpt lat="33.79764" lon="77.57583">
        <ele>4830.4</ele>
        <time>2015-09-04T05:35:55Z</time>
      </trkpt>
      <trkpt lat="33.79757" lon="77.57595">
        <ele>4831.2</ele>
        <time>2015-09-04T05:36:15Z</time>
      </trkpt>
      <trkpt lat="33.79756" lon="77.57596">
        <ele>4831.4</ele>
        <time>2015-09-04T05:36:18Z</time>
      </trkpt>
      <trkpt lat="33.79751" lon="77.57617">
        <ele>4831.8</ele>
        <time>2015-09-04T05:36:40Z</time>
      </trkpt>
      <trkpt lat="33.79748" lon="77.57619">
        <ele>4832.4</ele>
        <time>2015-09-04T05:36:48Z</time>
      </trkpt>
      <trkpt lat="33.79745" lon="77.5763">
        <ele>4833.4</ele>
        <time>2015-09-04T05:37:02Z</time>
      </trkpt>
      <trkpt lat="33.79738" lon="77.5764">
        <ele>4834.4</ele>
        <time>2015-09-04T05:37:20Z</time>
      </trkpt>
      <trkpt lat="33.79739" lon="77.57652">
        <ele>4834.6</ele>
        <time>2015-09-04T05:37:29Z</time>
      </trkpt>
      <trkpt lat="33.79739" lon="77.57655">
        <ele>4834.6</ele>
        <time>2015-09-04T05:37:32Z</time>
      </trkpt>
      <trkpt lat="33.79738" lon="77.57657">
        <ele>4834.8</ele>
        <time>2015-09-04T05:37:35Z</time>
      </trkpt>
      <trkpt lat="33.79732" lon="77.57677">
        <ele>4835</ele>
        <time>2015-09-04T05:37:59Z</time>
      </trkpt>
      <trkpt lat="33.79729" lon="77.57681">
        <ele>4835.6</ele>
        <time>2015-09-04T05:38:05Z</time>
      </trkpt>
      <trkpt lat="33.79726" lon="77.57685">
        <ele>4836</ele>
        <time>2015-09-04T05:38:11Z</time>
      </trkpt>
      <trkpt lat="33.79725" lon="77.57686">
        <ele>4836.6</ele>
        <time>2015-09-04T05:38:16Z</time>
      </trkpt>
      <trkpt lat="33.79723" lon="77.57681">
        <ele>4836.6</ele>
        <time>2015-09-04T05:38:18Z</time>
      </trkpt>
      <trkpt lat="33.79717" lon="77.57685">
        <ele>4837.2</ele>
        <time>2015-09-04T05:39:08Z</time>
      </trkpt>
      <trkpt lat="33.7971" lon="77.57703">
        <ele>4837.4</ele>
        <time>2015-09-04T05:39:58Z</time>
      </trkpt>
      <trkpt lat="33.7971" lon="77.57705">
        <ele>4837.4</ele>
        <time>2015-09-04T05:39:59Z</time>
      </trkpt>
      <trkpt lat="33.7971" lon="77.5771">
        <ele>4837.4</ele>
        <time>2015-09-04T05:40:02Z</time>
      </trkpt>
      <trkpt lat="33.79709" lon="77.57711">
        <ele>4837.2</ele>
        <time>2015-09-04T05:40:04Z</time>
      </trkpt>
      <trkpt lat="33.79705" lon="77.57729">
        <ele>4835.6</ele>
        <time>2015-09-04T05:40:28Z</time>
      </trkpt>
      <trkpt lat="33.79701" lon="77.57748">
        <ele>4835.2</ele>
        <time>2015-09-04T05:40:51Z</time>
      </trkpt>
      <trkpt lat="33.79692" lon="77.57759">
        <ele>4835.2</ele>
        <time>2015-09-04T05:41:06Z</time>
      </trkpt>
      <trkpt lat="33.79682" lon="77.57768">
        <ele>4836.6</ele>
        <time>2015-09-04T05:41:24Z</time>
      </trkpt>
      <trkpt lat="33.79679" lon="77.57776">
        <ele>4836.6</ele>
        <time>2015-09-04T05:41:37Z</time>
      </trkpt>
      <trkpt lat="33.79676" lon="77.57787">
        <ele>4837</ele>
        <time>2015-09-04T05:41:48Z</time>
      </trkpt>
      <trkpt lat="33.79675" lon="77.57791">
        <ele>4837</ele>
        <time>2015-09-04T05:41:51Z</time>
      </trkpt>
      <trkpt lat="33.79669" lon="77.57809">
        <ele>4837.6</ele>
        <time>2015-09-04T05:42:08Z</time>
      </trkpt>
      <trkpt lat="33.79668" lon="77.57809">
        <ele>4837.6</ele>
        <time>2015-09-04T05:42:09Z</time>
      </trkpt>
      <trkpt lat="33.79667" lon="77.57811">
        <ele>4837.8</ele>
        <time>2015-09-04T05:42:11Z</time>
      </trkpt>
      <trkpt lat="33.79665" lon="77.57816">
        <ele>4837.8</ele>
        <time>2015-09-04T05:42:16Z</time>
      </trkpt>
      <trkpt lat="33.7966" lon="77.57822">
        <ele>4838.6</ele>
        <time>2015-09-04T05:42:28Z</time>
      </trkpt>
      <trkpt lat="33.7965" lon="77.57838">
        <ele>4839.4</ele>
        <time>2015-09-04T05:42:49Z</time>
      </trkpt>
      <trkpt lat="33.79647" lon="77.57842">
        <ele>4839.6</ele>
        <time>2015-09-04T05:42:56Z</time>
      </trkpt>
      <trkpt lat="33.79642" lon="77.57852">
        <ele>4840</ele>
        <time>2015-09-04T05:43:05Z</time>
      </trkpt>
      <trkpt lat="33.79636" lon="77.57856">
        <ele>4840.6</ele>
        <time>2015-09-04T05:43:18Z</time>
      </trkpt>
      <trkpt lat="33.79634" lon="77.57867">
        <ele>4840.8</ele>
        <time>2015-09-04T05:43:24Z</time>
      </trkpt>
      <trkpt lat="33.79633" lon="77.57871">
        <ele>4841</ele>
        <time>2015-09-04T05:43:28Z</time>
      </trkpt>
      <trkpt lat="33.7963" lon="77.57883">
        <ele>4839.6</ele>
        <time>2015-09-04T05:43:40Z</time>
      </trkpt>
      <trkpt lat="33.79628" lon="77.57886">
        <ele>4839.6</ele>
        <time>2015-09-04T05:43:43Z</time>
      </trkpt>
      <trkpt lat="33.79622" lon="77.57907">
        <ele>4838.8</ele>
        <time>2015-09-04T05:44:05Z</time>
      </trkpt>
      <trkpt lat="33.79619" lon="77.57918">
        <ele>4839.2</ele>
        <time>2015-09-04T05:45:18Z</time>
      </trkpt>
      <trkpt lat="33.79619" lon="77.57918">
        <ele>4838.4</ele>
        <time>2015-09-04T05:45:20Z</time>
      </trkpt>
      <trkpt lat="33.7962" lon="77.57918">
        <ele>4837.8</ele>
        <time>2015-09-04T05:45:26Z</time>
      </trkpt>
      <trkpt lat="33.7962" lon="77.57919">
        <ele>4837.6</ele>
        <time>2015-09-04T05:45:59Z</time>
      </trkpt>
      <trkpt lat="33.79619" lon="77.5792">
        <ele>4837.4</ele>
        <time>2015-09-04T05:46:00Z</time>
      </trkpt>
      <trkpt lat="33.79619" lon="77.57921">
        <ele>4836.4</ele>
        <time>2015-09-04T05:46:44Z</time>
      </trkpt>
      <trkpt lat="33.79613" lon="77.57925">
        <ele>4836</ele>
        <time>2015-09-04T05:46:58Z</time>
      </trkpt>
      <trkpt lat="33.79612" lon="77.57935">
        <ele>4835.6</ele>
        <time>2015-09-04T05:47:09Z</time>
      </trkpt>
      <trkpt lat="33.79608" lon="77.57942">
        <ele>4835.6</ele>
        <time>2015-09-04T05:47:19Z</time>
      </trkpt>
      <trkpt lat="33.79606" lon="77.5795">
        <ele>4835.6</ele>
        <time>2015-09-04T05:47:26Z</time>
      </trkpt>
      <trkpt lat="33.79606" lon="77.57951">
        <ele>4835.2</ele>
        <time>2015-09-04T05:47:28Z</time>
      </trkpt>
      <trkpt lat="33.79603" lon="77.57956">
        <ele>4835</ele>
        <time>2015-09-04T05:47:35Z</time>
      </trkpt>
      <trkpt lat="33.79594" lon="77.57963">
        <ele>4834.4</ele>
        <time>2015-09-04T05:47:48Z</time>
      </trkpt>
      <trkpt lat="33.79593" lon="77.57964">
        <ele>4834.2</ele>
        <time>2015-09-04T05:47:49Z</time>
      </trkpt>
      <trkpt lat="33.79588" lon="77.57983">
        <ele>4833.2</ele>
        <time>2015-09-04T05:48:07Z</time>
      </trkpt>
      <trkpt lat="33.79584" lon="77.57993">
        <ele>4832.2</ele>
        <time>2015-09-04T05:48:20Z</time>
      </trkpt>
      <trkpt lat="33.79583" lon="77.57997">
        <ele>4831.8</ele>
        <time>2015-09-04T05:48:24Z</time>
      </trkpt>
      <trkpt lat="33.79582" lon="77.58001">
        <ele>4831.4</ele>
        <time>2015-09-04T05:48:28Z</time>
      </trkpt>
      <trkpt lat="33.79582" lon="77.58004">
        <ele>4831.2</ele>
        <time>2015-09-04T05:48:30Z</time>
      </trkpt>
      <trkpt lat="33.79581" lon="77.58007">
        <ele>4831</ele>
        <time>2015-09-04T05:48:32Z</time>
      </trkpt>
      <trkpt lat="33.79571" lon="77.58023">
        <ele>4830</ele>
        <time>2015-09-04T05:48:48Z</time>
      </trkpt>
      <trkpt lat="33.79567" lon="77.58031">
        <ele>4830.2</ele>
        <time>2015-09-04T05:48:55Z</time>
      </trkpt>
      <trkpt lat="33.79563" lon="77.58036">
        <ele>4830</ele>
        <time>2015-09-04T05:49:03Z</time>
      </trkpt>
      <trkpt lat="33.79558" lon="77.58055">
        <ele>4829</ele>
        <time>2015-09-04T05:49:20Z</time>
      </trkpt>
      <trkpt lat="33.79558" lon="77.58057">
        <ele>4828.8</ele>
        <time>2015-09-04T05:49:21Z</time>
      </trkpt>
      <trkpt lat="33.79558" lon="77.58059">
        <ele>4828.8</ele>
        <time>2015-09-04T05:49:23Z</time>
      </trkpt>
      <trkpt lat="33.79558" lon="77.58059">
        <ele>4828.8</ele>
        <time>2015-09-04T05:49:25Z</time>
      </trkpt>
      <trkpt lat="33.7956" lon="77.5806">
        <ele>4828.4</ele>
        <time>2015-09-04T05:49:43Z</time>
      </trkpt>
      <trkpt lat="33.79564" lon="77.58063">
        <ele>4827.8</ele>
        <time>2015-09-04T05:49:48Z</time>
      </trkpt>
      <trkpt lat="33.79567" lon="77.58063">
        <ele>4828</ele>
        <time>2015-09-04T05:49:57Z</time>
      </trkpt>
      <trkpt lat="33.79566" lon="77.58065">
        <ele>4828.8</ele>
        <time>2015-09-04T05:51:21Z</time>
      </trkpt>
      <trkpt lat="33.79563" lon="77.58062">
        <ele>4828.6</ele>
        <time>2015-09-04T05:51:54Z</time>
      </trkpt>
      <trkpt lat="33.7956" lon="77.58063">
        <ele>4828.4</ele>
        <time>2015-09-04T05:51:58Z</time>
      </trkpt>
      <trkpt lat="33.79557" lon="77.58075">
        <ele>4828.2</ele>
        <time>2015-09-04T05:52:38Z</time>
      </trkpt>
      <trkpt lat="33.79558" lon="77.58079">
        <ele>4828.4</ele>
        <time>2015-09-04T05:52:42Z</time>
      </trkpt>
      <trkpt lat="33.79556" lon="77.58082">
        <ele>4828.6</ele>
        <time>2015-09-04T05:52:46Z</time>
      </trkpt>
      <trkpt lat="33.79554" lon="77.58086">
        <ele>4828.8</ele>
        <time>2015-09-04T05:52:51Z</time>
      </trkpt>
      <trkpt lat="33.79552" lon="77.58089">
        <ele>4829.4</ele>
        <time>2015-09-04T05:52:56Z</time>
      </trkpt>
      <trkpt lat="33.79544" lon="77.58104">
        <ele>4829.2</ele>
        <time>2015-09-04T05:53:13Z</time>
      </trkpt>
      <trkpt lat="33.79542" lon="77.58105">
        <ele>4829</ele>
        <time>2015-09-04T05:53:15Z</time>
      </trkpt>
      <trkpt lat="33.79539" lon="77.58107">
        <ele>4828.8</ele>
        <time>2015-09-04T05:53:19Z</time>
      </trkpt>
      <trkpt lat="33.79535" lon="77.5812">
        <ele>4828.2</ele>
        <time>2015-09-04T05:53:33Z</time>
      </trkpt>
      <trkpt lat="33.79535" lon="77.58123">
        <ele>4828</ele>
        <time>2015-09-04T05:53:35Z</time>
      </trkpt>
      <trkpt lat="33.79532" lon="77.58124">
        <ele>4827.8</ele>
        <time>2015-09-04T05:53:38Z</time>
      </trkpt>
      <trkpt lat="33.7953" lon="77.58125">
        <ele>4827.8</ele>
        <time>2015-09-04T05:53:40Z</time>
      </trkpt>
      <trkpt lat="33.79529" lon="77.58127">
        <ele>4828</ele>
        <time>2015-09-04T05:53:42Z</time>
      </trkpt>
      <trkpt lat="33.79528" lon="77.58132">
        <ele>4828</ele>
        <time>2015-09-04T05:53:48Z</time>
      </trkpt>
      <trkpt lat="33.79522" lon="77.58138">
        <ele>4828</ele>
        <time>2015-09-04T05:53:56Z</time>
      </trkpt>
      <trkpt lat="33.79521" lon="77.58138">
        <ele>4828</ele>
        <time>2015-09-04T05:53:59Z</time>
      </trkpt>
      <trkpt lat="33.79515" lon="77.58144">
        <ele>4828.2</ele>
        <time>2015-09-04T05:54:13Z</time>
      </trkpt>
      <trkpt lat="33.79505" lon="77.58163">
        <ele>4828.6</ele>
        <time>2015-09-04T05:54:36Z</time>
      </trkpt>
      <trkpt lat="33.79501" lon="77.5817">
        <ele>4828.8</ele>
        <time>2015-09-04T05:54:45Z</time>
      </trkpt>
      <trkpt lat="33.795" lon="77.58171">
        <ele>4828.8</ele>
        <time>2015-09-04T05:54:46Z</time>
      </trkpt>
      <trkpt lat="33.79491" lon="77.5818">
        <ele>4829.6</ele>
        <time>2015-09-04T05:55:10Z</time>
      </trkpt>
      <trkpt lat="33.79491" lon="77.58182">
        <ele>4829.6</ele>
        <time>2015-09-04T05:55:11Z</time>
      </trkpt>
      <trkpt lat="33.7949" lon="77.58184">
        <ele>4829.6</ele>
        <time>2015-09-04T05:55:13Z</time>
      </trkpt>
      <trkpt lat="33.79488" lon="77.58187">
        <ele>4829.6</ele>
        <time>2015-09-04T05:55:17Z</time>
      </trkpt>
      <trkpt lat="33.79487" lon="77.58187">
        <ele>4829.8</ele>
        <time>2015-09-04T05:55:19Z</time>
      </trkpt>
      <trkpt lat="33.79481" lon="77.58206">
        <ele>4829.4</ele>
        <time>2015-09-04T05:55:36Z</time>
      </trkpt>
      <trkpt lat="33.79479" lon="77.58205">
        <ele>4829.2</ele>
        <time>2015-09-04T05:55:39Z</time>
      </trkpt>
      <trkpt lat="33.79472" lon="77.58207">
        <ele>4829</ele>
        <time>2015-09-04T05:56:05Z</time>
      </trkpt>
      <trkpt lat="33.79472" lon="77.58207">
        <ele>4828.8</ele>
        <time>2015-09-04T05:56:06Z</time>
      </trkpt>
      <trkpt lat="33.7947" lon="77.58207">
        <ele>4828.6</ele>
        <time>2015-09-04T05:56:08Z</time>
      </trkpt>
      <trkpt lat="33.79468" lon="77.58214">
        <ele>4828.2</ele>
        <time>2015-09-04T05:56:18Z</time>
      </trkpt>
      <trkpt lat="33.79462" lon="77.58226">
        <ele>4828.4</ele>
        <time>2015-09-04T05:56:30Z</time>
      </trkpt>
      <trkpt lat="33.79459" lon="77.58239">
        <ele>4828</ele>
        <time>2015-09-04T05:56:40Z</time>
      </trkpt>
      <trkpt lat="33.79452" lon="77.58252">
        <ele>4827.8</ele>
        <time>2015-09-04T05:56:53Z</time>
      </trkpt>
      <trkpt lat="33.79442" lon="77.58265">
        <ele>4827.8</ele>
        <time>2015-09-04T05:57:18Z</time>
      </trkpt>
      <trkpt lat="33.79438" lon="77.58287">
        <ele>4828</ele>
        <time>2015-09-04T05:57:42Z</time>
      </trkpt>
      <trkpt lat="33.79438" lon="77.58292">
        <ele>4827.8</ele>
        <time>2015-09-04T05:57:46Z</time>
      </trkpt>
      <trkpt lat="33.79438" lon="77.58294">
        <ele>4827.8</ele>
        <time>2015-09-04T05:57:48Z</time>
      </trkpt>
      <trkpt lat="33.79434" lon="77.58308">
        <ele>4827.8</ele>
        <time>2015-09-04T05:58:27Z</time>
      </trkpt>
      <trkpt lat="33.79432" lon="77.58318">
        <ele>4828.2</ele>
        <time>2015-09-04T05:58:37Z</time>
      </trkpt>
      <trkpt lat="33.79432" lon="77.5832">
        <ele>4828.4</ele>
        <time>2015-09-04T05:58:39Z</time>
      </trkpt>
      <trkpt lat="33.79427" lon="77.58338">
        <ele>4828.4</ele>
        <time>2015-09-04T05:58:57Z</time>
      </trkpt>
      <trkpt lat="33.79425" lon="77.58339">
        <ele>4828.6</ele>
        <time>2015-09-04T05:58:59Z</time>
      </trkpt>
      <trkpt lat="33.79425" lon="77.58342">
        <ele>4828.8</ele>
        <time>2015-09-04T05:59:02Z</time>
      </trkpt>
      <trkpt lat="33.7942" lon="77.58354">
        <ele>4828.6</ele>
        <time>2015-09-04T05:59:17Z</time>
      </trkpt>
      <trkpt lat="33.79419" lon="77.5836">
        <ele>4828.4</ele>
        <time>2015-09-04T05:59:22Z</time>
      </trkpt>
      <trkpt lat="33.79416" lon="77.58367">
        <ele>4828.4</ele>
        <time>2015-09-04T05:59:31Z</time>
      </trkpt>
      <trkpt lat="33.79414" lon="77.58371">
        <ele>4828.4</ele>
        <time>2015-09-04T05:59:36Z</time>
      </trkpt>
      <trkpt lat="33.79412" lon="77.58378">
        <ele>4828</ele>
        <time>2015-09-04T05:59:43Z</time>
      </trkpt>
      <trkpt lat="33.79412" lon="77.58381">
        <ele>4827.8</ele>
        <time>2015-09-04T05:59:45Z</time>
      </trkpt>
      <trkpt lat="33.79411" lon="77.58391">
        <ele>4827.8</ele>
        <time>2015-09-04T05:59:57Z</time>
      </trkpt>
      <trkpt lat="33.79415" lon="77.584">
        <ele>4827.4</ele>
        <time>2015-09-04T06:00:06Z</time>
      </trkpt>
      <trkpt lat="33.79417" lon="77.58402">
        <ele>4827.4</ele>
        <time>2015-09-04T06:00:10Z</time>
      </trkpt>
      <trkpt lat="33.79413" lon="77.58422">
        <ele>4828.6</ele>
        <time>2015-09-04T06:00:31Z</time>
      </trkpt>
      <trkpt lat="33.7941" lon="77.58427">
        <ele>4828.8</ele>
        <time>2015-09-04T06:00:39Z</time>
      </trkpt>
      <trkpt lat="33.79407" lon="77.58433">
        <ele>4830</ele>
        <time>2015-09-04T06:00:47Z</time>
      </trkpt>
      <trkpt lat="33.79407" lon="77.58447">
        <ele>4831</ele>
        <time>2015-09-04T06:01:06Z</time>
      </trkpt>
      <trkpt lat="33.79406" lon="77.58457">
        <ele>4832</ele>
        <time>2015-09-04T06:01:18Z</time>
      </trkpt>
      <trkpt lat="33.79402" lon="77.58462">
        <ele>4833</ele>
        <time>2015-09-04T06:01:30Z</time>
      </trkpt>
      <trkpt lat="33.79393" lon="77.58477">
        <ele>4833.8</ele>
        <time>2015-09-04T06:01:48Z</time>
      </trkpt>
      <trkpt lat="33.79385" lon="77.58495">
        <ele>4834</ele>
        <time>2015-09-04T06:02:05Z</time>
      </trkpt>
      <trkpt lat="33.79384" lon="77.58494">
        <ele>4834</ele>
        <time>2015-09-04T06:02:07Z</time>
      </trkpt>
      <trkpt lat="33.79372" lon="77.58506">
        <ele>4835</ele>
        <time>2015-09-04T06:02:29Z</time>
      </trkpt>
      <trkpt lat="33.7936" lon="77.58514">
        <ele>4835</ele>
        <time>2015-09-04T06:02:52Z</time>
      </trkpt>
      <trkpt lat="33.79349" lon="77.58516">
        <ele>4834.4</ele>
        <time>2015-09-04T06:03:08Z</time>
      </trkpt>
      <trkpt lat="33.79346" lon="77.58524">
        <ele>4834.6</ele>
        <time>2015-09-04T06:03:23Z</time>
      </trkpt>
      <trkpt lat="33.79339" lon="77.58542">
        <ele>4834.6</ele>
        <time>2015-09-04T06:03:38Z</time>
      </trkpt>
      <trkpt lat="33.79336" lon="77.58545">
        <ele>4834.8</ele>
        <time>2015-09-04T06:03:42Z</time>
      </trkpt>
      <trkpt lat="33.79323" lon="77.58557">
        <ele>4835.6</ele>
        <time>2015-09-04T06:04:05Z</time>
      </trkpt>
      <trkpt lat="33.79322" lon="77.58558">
        <ele>4835.8</ele>
        <time>2015-09-04T06:04:06Z</time>
      </trkpt>
      <trkpt lat="33.79318" lon="77.58562">
        <ele>4835.8</ele>
        <time>2015-09-04T06:04:12Z</time>
      </trkpt>
      <trkpt lat="33.79302" lon="77.58572">
        <ele>4834.6</ele>
        <time>2015-09-04T06:04:37Z</time>
      </trkpt>
      <trkpt lat="33.79293" lon="77.58582">
        <ele>4835.8</ele>
        <time>2015-09-04T06:04:52Z</time>
      </trkpt>
      <trkpt lat="33.79292" lon="77.58584">
        <ele>4836</ele>
        <time>2015-09-04T06:04:54Z</time>
      </trkpt>
      <trkpt lat="33.79291" lon="77.58587">
        <ele>4836</ele>
        <time>2015-09-04T06:04:57Z</time>
      </trkpt>
      <trkpt lat="33.79289" lon="77.58588">
        <ele>4836.2</ele>
        <time>2015-09-04T06:05:00Z</time>
      </trkpt>
      <trkpt lat="33.79286" lon="77.58594">
        <ele>4836.4</ele>
        <time>2015-09-04T06:05:08Z</time>
      </trkpt>
      <trkpt lat="33.79273" lon="77.58609">
        <ele>4836.8</ele>
        <time>2015-09-04T06:05:31Z</time>
      </trkpt>
      <trkpt lat="33.79256" lon="77.58616">
        <ele>4836.8</ele>
        <time>2015-09-04T06:05:53Z</time>
      </trkpt>
      <trkpt lat="33.7924" lon="77.58626">
        <ele>4836.8</ele>
        <time>2015-09-04T06:06:15Z</time>
      </trkpt>
      <trkpt lat="33.79239" lon="77.58628">
        <ele>4836.8</ele>
        <time>2015-09-04T06:06:16Z</time>
      </trkpt>
      <trkpt lat="33.79234" lon="77.58639">
        <ele>4836.6</ele>
        <time>2015-09-04T06:06:22Z</time>
      </trkpt>
      <trkpt lat="33.79231" lon="77.58641">
        <ele>4836.6</ele>
        <time>2015-09-04T06:06:26Z</time>
      </trkpt>
      <trkpt lat="33.79229" lon="77.58643">
        <ele>4837.2</ele>
        <time>2015-09-04T06:06:31Z</time>
      </trkpt>
      <trkpt lat="33.79221" lon="77.58649">
        <ele>4838.2</ele>
        <time>2015-09-04T06:06:45Z</time>
      </trkpt>
      <trkpt lat="33.7922" lon="77.58654">
        <ele>4838.4</ele>
        <time>2015-09-04T06:06:54Z</time>
      </trkpt>
      <trkpt lat="33.79215" lon="77.58669">
        <ele>4838</ele>
        <time>2015-09-04T06:07:08Z</time>
      </trkpt>
      <trkpt lat="33.79214" lon="77.58674">
        <ele>4838.2</ele>
        <time>2015-09-04T06:07:12Z</time>
      </trkpt>
      <trkpt lat="33.79207" lon="77.58687">
        <ele>4838.4</ele>
        <time>2015-09-04T06:07:32Z</time>
      </trkpt>
      <trkpt lat="33.79198" lon="77.58697">
        <ele>4839.2</ele>
        <time>2015-09-04T06:07:48Z</time>
      </trkpt>
      <trkpt lat="33.79183" lon="77.58708">
        <ele>4838.8</ele>
        <time>2015-09-04T06:08:14Z</time>
      </trkpt>
      <trkpt lat="33.79179" lon="77.58715">
        <ele>4838.2</ele>
        <time>2015-09-04T06:08:24Z</time>
      </trkpt>
      <trkpt lat="33.79168" lon="77.5873">
        <ele>4837.2</ele>
        <time>2015-09-04T06:08:40Z</time>
      </trkpt>
      <trkpt lat="33.79167" lon="77.58731">
        <ele>4837</ele>
        <time>2015-09-04T06:08:41Z</time>
      </trkpt>
      <trkpt lat="33.79156" lon="77.58738">
        <ele>4836</ele>
        <time>2015-09-04T06:08:53Z</time>
      </trkpt>
      <trkpt lat="33.79144" lon="77.58754">
        <ele>4836.2</ele>
        <time>2015-09-04T06:09:10Z</time>
      </trkpt>
      <trkpt lat="33.79143" lon="77.58755">
        <ele>4836.2</ele>
        <time>2015-09-04T06:09:12Z</time>
      </trkpt>
      <trkpt lat="33.79142" lon="77.5876">
        <ele>4836</ele>
        <time>2015-09-04T06:09:17Z</time>
      </trkpt>
      <trkpt lat="33.79136" lon="77.58767">
        <ele>4835.8</ele>
        <time>2015-09-04T06:09:26Z</time>
      </trkpt>
      <trkpt lat="33.79125" lon="77.58772">
        <ele>4835.8</ele>
        <time>2015-09-04T06:09:43Z</time>
      </trkpt>
      <trkpt lat="33.79117" lon="77.58786">
        <ele>4835.8</ele>
        <time>2015-09-04T06:09:56Z</time>
      </trkpt>
      <trkpt lat="33.79115" lon="77.58789">
        <ele>4835.8</ele>
        <time>2015-09-04T06:09:59Z</time>
      </trkpt>
      <trkpt lat="33.79098" lon="77.58797">
        <ele>4835.2</ele>
        <time>2015-09-04T06:10:18Z</time>
      </trkpt>
      <trkpt lat="33.79094" lon="77.58801">
        <ele>4835</ele>
        <time>2015-09-04T06:10:23Z</time>
      </trkpt>
      <trkpt lat="33.79087" lon="77.5882">
        <ele>4835.2</ele>
        <time>2015-09-04T06:10:41Z</time>
      </trkpt>
      <trkpt lat="33.79078" lon="77.58835">
        <ele>4835.6</ele>
        <time>2015-09-04T06:10:56Z</time>
      </trkpt>
      <trkpt lat="33.79072" lon="77.58839">
        <ele>4835.6</ele>
        <time>2015-09-04T06:11:04Z</time>
      </trkpt>
      <trkpt lat="33.79067" lon="77.58842">
        <ele>4835.6</ele>
        <time>2015-09-04T06:11:10Z</time>
      </trkpt>
      <trkpt lat="33.79063" lon="77.58844">
        <ele>4835.8</ele>
        <time>2015-09-04T06:11:14Z</time>
      </trkpt>
      <trkpt lat="33.79061" lon="77.58847">
        <ele>4836.2</ele>
        <time>2015-09-04T06:11:15Z</time>
      </trkpt>
      <trkpt lat="33.79049" lon="77.58865">
        <ele>4836</ele>
        <time>2015-09-04T06:11:32Z</time>
      </trkpt>
      <trkpt lat="33.79045" lon="77.58876">
        <ele>4836.2</ele>
        <time>2015-09-04T06:11:47Z</time>
      </trkpt>
      <trkpt lat="33.79035" lon="77.58884">
        <ele>4836.4</ele>
        <time>2015-09-04T06:11:58Z</time>
      </trkpt>
      <trkpt lat="33.79027" lon="77.58898">
        <ele>4836.2</ele>
        <time>2015-09-04T06:12:10Z</time>
      </trkpt>
      <trkpt lat="33.79014" lon="77.58909">
        <ele>4836.8</ele>
        <time>2015-09-04T06:12:29Z</time>
      </trkpt>
      <trkpt lat="33.7901" lon="77.58915">
        <ele>4837</ele>
        <time>2015-09-04T06:12:35Z</time>
      </trkpt>
      <trkpt lat="33.79001" lon="77.58929">
        <ele>4837.2</ele>
        <time>2015-09-04T06:12:45Z</time>
      </trkpt>
      <trkpt lat="33.78996" lon="77.58935">
        <ele>4837.4</ele>
        <time>2015-09-04T06:12:53Z</time>
      </trkpt>
      <trkpt lat="33.78992" lon="77.5894">
        <ele>4837.6</ele>
        <time>2015-09-04T06:12:59Z</time>
      </trkpt>
      <trkpt lat="33.78989" lon="77.5894">
        <ele>4838</ele>
        <time>2015-09-04T06:13:08Z</time>
      </trkpt>
      <trkpt lat="33.78986" lon="77.58943">
        <ele>4838.2</ele>
        <time>2015-09-04T06:13:12Z</time>
      </trkpt>
      <trkpt lat="33.78985" lon="77.58945">
        <ele>4838.2</ele>
        <time>2015-09-04T06:13:14Z</time>
      </trkpt>
      <trkpt lat="33.78982" lon="77.5895">
        <ele>4838</ele>
        <time>2015-09-04T06:13:22Z</time>
      </trkpt>
      <trkpt lat="33.7898" lon="77.58951">
        <ele>4838.2</ele>
        <time>2015-09-04T06:13:25Z</time>
      </trkpt>
      <trkpt lat="33.78983" lon="77.58952">
        <ele>4838.2</ele>
        <time>2015-09-04T06:13:27Z</time>
      </trkpt>
      <trkpt lat="33.78982" lon="77.5896">
        <ele>4838.2</ele>
        <time>2015-09-04T06:13:34Z</time>
      </trkpt>
      <trkpt lat="33.78979" lon="77.58962">
        <ele>4838.2</ele>
        <time>2015-09-04T06:13:37Z</time>
      </trkpt>
      <trkpt lat="33.78968" lon="77.58974">
        <ele>4838.2</ele>
        <time>2015-09-04T06:13:47Z</time>
      </trkpt>
      <trkpt lat="33.78963" lon="77.58979">
        <ele>4838.4</ele>
        <time>2015-09-04T06:13:53Z</time>
      </trkpt>
      <trkpt lat="33.78961" lon="77.58982">
        <ele>4838.6</ele>
        <time>2015-09-04T06:13:56Z</time>
      </trkpt>
      <trkpt lat="33.7895" lon="77.58988">
        <ele>4838.8</ele>
        <time>2015-09-04T06:14:09Z</time>
      </trkpt>
      <trkpt lat="33.78947" lon="77.58987">
        <ele>4838.8</ele>
        <time>2015-09-04T06:14:11Z</time>
      </trkpt>
      <trkpt lat="33.7894" lon="77.58991">
        <ele>4838.8</ele>
        <time>2015-09-04T06:14:21Z</time>
      </trkpt>
      <trkpt lat="33.78938" lon="77.58992">
        <ele>4839.2</ele>
        <time>2015-09-04T06:14:24Z</time>
      </trkpt>
      <trkpt lat="33.78937" lon="77.58994">
        <ele>4839.2</ele>
        <time>2015-09-04T06:14:25Z</time>
      </trkpt>
      <trkpt lat="33.78932" lon="77.59001">
        <ele>4839.2</ele>
        <time>2015-09-04T06:14:34Z</time>
      </trkpt>
      <trkpt lat="33.78918" lon="77.59011">
        <ele>4839.6</ele>
        <time>2015-09-04T06:14:58Z</time>
      </trkpt>
      <trkpt lat="33.78915" lon="77.59016">
        <ele>4839.6</ele>
        <time>2015-09-04T06:15:02Z</time>
      </trkpt>
      <trkpt lat="33.78914" lon="77.59018">
        <ele>4839.6</ele>
        <time>2015-09-04T06:15:04Z</time>
      </trkpt>
      <trkpt lat="33.789" lon="77.59035">
        <ele>4839.8</ele>
        <time>2015-09-04T06:15:19Z</time>
      </trkpt>
      <trkpt lat="33.7889" lon="77.59043">
        <ele>4840.2</ele>
        <time>2015-09-04T06:15:30Z</time>
      </trkpt>
      <trkpt lat="33.78889" lon="77.59043">
        <ele>4840.2</ele>
        <time>2015-09-04T06:15:33Z</time>
      </trkpt>
      <trkpt lat="33.78884" lon="77.59052">
        <ele>4840.2</ele>
        <time>2015-09-04T06:15:41Z</time>
      </trkpt>
      <trkpt lat="33.7888" lon="77.59058">
        <ele>4840.2</ele>
        <time>2015-09-04T06:15:47Z</time>
      </trkpt>
      <trkpt lat="33.78869" lon="77.59075">
        <ele>4840.6</ele>
        <time>2015-09-04T06:16:00Z</time>
      </trkpt>
      <trkpt lat="33.78869" lon="77.59077">
        <ele>4840.6</ele>
        <time>2015-09-04T06:16:02Z</time>
      </trkpt>
      <trkpt lat="33.78866" lon="77.59083">
        <ele>4840.6</ele>
        <time>2015-09-04T06:16:10Z</time>
      </trkpt>
      <trkpt lat="33.78856" lon="77.59092">
        <ele>4841</ele>
        <time>2015-09-04T06:16:26Z</time>
      </trkpt>
      <trkpt lat="33.78853" lon="77.59095">
        <ele>4841.2</ele>
        <time>2015-09-04T06:16:31Z</time>
      </trkpt>
      <trkpt lat="33.78847" lon="77.59102">
        <ele>4841.4</ele>
        <time>2015-09-04T06:16:40Z</time>
      </trkpt>
      <trkpt lat="33.78846" lon="77.59105">
        <ele>4841.4</ele>
        <time>2015-09-04T06:16:43Z</time>
      </trkpt>
      <trkpt lat="33.78844" lon="77.59108">
        <ele>4841.2</ele>
        <time>2015-09-04T06:16:48Z</time>
      </trkpt>
      <trkpt lat="33.78837" lon="77.59129">
        <ele>4841.6</ele>
        <time>2015-09-04T06:17:04Z</time>
      </trkpt>
      <trkpt lat="33.7883" lon="77.59145">
        <ele>4842</ele>
        <time>2015-09-04T06:17:19Z</time>
      </trkpt>
      <trkpt lat="33.78828" lon="77.59152">
        <ele>4842</ele>
        <time>2015-09-04T06:17:26Z</time>
      </trkpt>
      <trkpt lat="33.78826" lon="77.59154">
        <ele>4842.2</ele>
        <time>2015-09-04T06:17:28Z</time>
      </trkpt>
      <trkpt lat="33.78824" lon="77.59157">
        <ele>4842.2</ele>
        <time>2015-09-04T06:17:32Z</time>
      </trkpt>
      <trkpt lat="33.7882" lon="77.59161">
        <ele>4842.2</ele>
        <time>2015-09-04T06:17:37Z</time>
      </trkpt>
      <trkpt lat="33.78812" lon="77.59173">
        <ele>4842</ele>
        <time>2015-09-04T06:17:50Z</time>
      </trkpt>
      <trkpt lat="33.78807" lon="77.59176">
        <ele>4842.2</ele>
        <time>2015-09-04T06:17:55Z</time>
      </trkpt>
      <trkpt lat="33.78806" lon="77.59178">
        <ele>4842.2</ele>
        <time>2015-09-04T06:17:57Z</time>
      </trkpt>
      <trkpt lat="33.78806" lon="77.59179">
        <ele>4842.4</ele>
        <time>2015-09-04T06:17:58Z</time>
      </trkpt>
      <trkpt lat="33.78805" lon="77.59183">
        <ele>4842.4</ele>
        <time>2015-09-04T06:18:02Z</time>
      </trkpt>
      <trkpt lat="33.78796" lon="77.59197">
        <ele>4843.2</ele>
        <time>2015-09-04T06:18:19Z</time>
      </trkpt>
      <trkpt lat="33.78795" lon="77.592">
        <ele>4843.4</ele>
        <time>2015-09-04T06:18:22Z</time>
      </trkpt>
      <trkpt lat="33.7879" lon="77.59209">
        <ele>4843.4</ele>
        <time>2015-09-04T06:18:33Z</time>
      </trkpt>
      <trkpt lat="33.7878" lon="77.59216">
        <ele>4843.8</ele>
        <time>2015-09-04T06:18:44Z</time>
      </trkpt>
      <trkpt lat="33.78775" lon="77.59225">
        <ele>4843.8</ele>
        <time>2015-09-04T06:18:52Z</time>
      </trkpt>
      <trkpt lat="33.78769" lon="77.59239">
        <ele>4844.4</ele>
        <time>2015-09-04T06:19:11Z</time>
      </trkpt>
      <trkpt lat="33.78767" lon="77.59257">
        <ele>4845.4</ele>
        <time>2015-09-04T06:19:41Z</time>
      </trkpt>
      <trkpt lat="33.78758" lon="77.59275">
        <ele>4846</ele>
        <time>2015-09-04T06:20:05Z</time>
      </trkpt>
      <trkpt lat="33.78754" lon="77.59276">
        <ele>4846.2</ele>
        <time>2015-09-04T06:20:09Z</time>
      </trkpt>
      <trkpt lat="33.7875" lon="77.59277">
        <ele>4846.4</ele>
        <time>2015-09-04T06:20:13Z</time>
      </trkpt>
      <trkpt lat="33.78749" lon="77.5928">
        <ele>4846.4</ele>
        <time>2015-09-04T06:20:15Z</time>
      </trkpt>
      <trkpt lat="33.78748" lon="77.59282">
        <ele>4846.4</ele>
        <time>2015-09-04T06:20:17Z</time>
      </trkpt>
      <trkpt lat="33.78747" lon="77.59283">
        <ele>4846.6</ele>
        <time>2015-09-04T06:20:19Z</time>
      </trkpt>
      <trkpt lat="33.78745" lon="77.59289">
        <ele>4846.6</ele>
        <time>2015-09-04T06:20:24Z</time>
      </trkpt>
      <trkpt lat="33.78745" lon="77.59295">
        <ele>4846.4</ele>
        <time>2015-09-04T06:20:30Z</time>
      </trkpt>
      <trkpt lat="33.78738" lon="77.59311">
        <ele>4846</ele>
        <time>2015-09-04T06:20:44Z</time>
      </trkpt>
      <trkpt lat="33.78734" lon="77.59317">
        <ele>4846.6</ele>
        <time>2015-09-04T06:20:52Z</time>
      </trkpt>
      <trkpt lat="33.78725" lon="77.59321">
        <ele>4847</ele>
        <time>2015-09-04T06:21:01Z</time>
      </trkpt>
      <trkpt lat="33.78722" lon="77.59328">
        <ele>4847.4</ele>
        <time>2015-09-04T06:21:08Z</time>
      </trkpt>
      <trkpt lat="33.78721" lon="77.5933">
        <ele>4847.6</ele>
        <time>2015-09-04T06:21:11Z</time>
      </trkpt>
      <trkpt lat="33.78714" lon="77.59331">
        <ele>4847.4</ele>
        <time>2015-09-04T06:21:23Z</time>
      </trkpt>
      <trkpt lat="33.78709" lon="77.59338">
        <ele>4847.6</ele>
        <time>2015-09-04T06:21:28Z</time>
      </trkpt>
      <trkpt lat="33.78695" lon="77.59351">
        <ele>4848.2</ele>
        <time>2015-09-04T06:21:53Z</time>
      </trkpt>
      <trkpt lat="33.78687" lon="77.59367">
        <ele>4848.6</ele>
        <time>2015-09-04T06:22:11Z</time>
      </trkpt>
      <trkpt lat="33.78687" lon="77.59371">
        <ele>4848</ele>
        <time>2015-09-04T06:22:22Z</time>
      </trkpt>
      <trkpt lat="33.78687" lon="77.59387">
        <ele>4848.4</ele>
        <time>2015-09-04T06:22:38Z</time>
      </trkpt>
      <trkpt lat="33.78676" lon="77.59401">
        <ele>4848.8</ele>
        <time>2015-09-04T06:23:01Z</time>
      </trkpt>
      <trkpt lat="33.78673" lon="77.59401">
        <ele>4849</ele>
        <time>2015-09-04T06:23:04Z</time>
      </trkpt>
      <trkpt lat="33.78672" lon="77.59402">
        <ele>4849</ele>
        <time>2015-09-04T06:23:06Z</time>
      </trkpt>
      <trkpt lat="33.78664" lon="77.59406">
        <ele>4849.4</ele>
        <time>2015-09-04T06:23:14Z</time>
      </trkpt>
      <trkpt lat="33.78663" lon="77.59406">
        <ele>4849.6</ele>
        <time>2015-09-04T06:23:19Z</time>
      </trkpt>
      <trkpt lat="33.78656" lon="77.5941">
        <ele>4850.2</ele>
        <time>2015-09-04T06:23:32Z</time>
      </trkpt>
      <trkpt lat="33.78656" lon="77.59411">
        <ele>4850.2</ele>
        <time>2015-09-04T06:23:34Z</time>
      </trkpt>
      <trkpt lat="33.78658" lon="77.59408">
        <ele>4850.6</ele>
        <time>2015-09-04T06:23:52Z</time>
      </trkpt>
      <trkpt lat="33.78655" lon="77.59402">
        <ele>4850.6</ele>
        <time>2015-09-04T06:24:09Z</time>
      </trkpt>
      <trkpt lat="33.78652" lon="77.59397">
        <ele>4850.6</ele>
        <time>2015-09-04T06:24:40Z</time>
      </trkpt>
      <trkpt lat="33.78648" lon="77.59399">
        <ele>4851.2</ele>
        <time>2015-09-04T06:25:38Z</time>
      </trkpt>
      <trkpt lat="33.78654" lon="77.59396">
        <ele>4850.6</ele>
        <time>2015-09-04T06:25:52Z</time>
      </trkpt>
      <trkpt lat="33.78655" lon="77.59396">
        <ele>4851.2</ele>
        <time>2015-09-04T06:26:37Z</time>
      </trkpt>
      <trkpt lat="33.78647" lon="77.59398">
        <ele>4851.2</ele>
        <time>2015-09-04T06:26:39Z</time>
      </trkpt>
      <trkpt lat="33.78646" lon="77.59398">
        <ele>4850.8</ele>
        <time>2015-09-04T06:26:41Z</time>
      </trkpt>
      <trkpt lat="33.7865" lon="77.59402">
        <ele>4850.4</ele>
        <time>2015-09-04T06:27:11Z</time>
      </trkpt>
      <trkpt lat="33.78651" lon="77.59402">
        <ele>4850.4</ele>
        <time>2015-09-04T06:27:12Z</time>
      </trkpt>
      <trkpt lat="33.78647" lon="77.59409">
        <ele>4850.8</ele>
        <time>2015-09-04T06:27:24Z</time>
      </trkpt>
      <trkpt lat="33.78651" lon="77.59401">
        <ele>4807.8</ele>
        <time>2015-09-04T06:27:49Z</time>
      </trkpt>
    </trkseg>
  </trk>
  <trk>
    <name><![CDATA[Ballade de Nimaling pour aller voir le camp de base du Kang Yatse (5310m)]]></name>
    <trkseg>
      <trkpt lat="33.7859" lon="77.59592">
        <ele>4868.8</ele>
        <time>2015-09-04T07:56:35Z</time>
      </trkpt>
      <trkpt lat="33.78591" lon="77.59584">
        <ele>4868</ele>
        <time>2015-09-04T07:57:04Z</time>
      </trkpt>
      <trkpt lat="33.78585" lon="77.5957">
        <ele>4868.2</ele>
        <time>2015-09-04T07:57:20Z</time>
      </trkpt>
      <trkpt lat="33.78586" lon="77.59565">
        <ele>4867.8</ele>
        <time>2015-09-04T07:57:27Z</time>
      </trkpt>
      <trkpt lat="33.78581" lon="77.59544">
        <ele>4867.6</ele>
        <time>2015-09-04T07:57:50Z</time>
      </trkpt>
      <trkpt lat="33.78581" lon="77.59543">
        <ele>4867.6</ele>
        <time>2015-09-04T07:57:51Z</time>
      </trkpt>
      <trkpt lat="33.78577" lon="77.59521">
        <ele>4867.2</ele>
        <time>2015-09-04T07:58:12Z</time>
      </trkpt>
      <trkpt lat="33.7857" lon="77.595">
        <ele>4866.8</ele>
        <time>2015-09-04T07:58:28Z</time>
      </trkpt>
      <trkpt lat="33.78569" lon="77.59494">
        <ele>4866.6</ele>
        <time>2015-09-04T07:58:32Z</time>
      </trkpt>
      <trkpt lat="33.78575" lon="77.59475">
        <ele>4866.8</ele>
        <time>2015-09-04T07:58:55Z</time>
      </trkpt>
      <trkpt lat="33.78575" lon="77.59463">
        <ele>4866.4</ele>
        <time>2015-09-04T07:59:20Z</time>
      </trkpt>
      <trkpt lat="33.78572" lon="77.59462">
        <ele>4866.4</ele>
        <time>2015-09-04T07:59:22Z</time>
      </trkpt>
      <trkpt lat="33.7857" lon="77.59444">
        <ele>4867.4</ele>
        <time>2015-09-04T07:59:44Z</time>
      </trkpt>
      <trkpt lat="33.78581" lon="77.59426">
        <ele>4866.8</ele>
        <time>2015-09-04T08:00:06Z</time>
      </trkpt>
      <trkpt lat="33.78587" lon="77.59403">
        <ele>4866.6</ele>
        <time>2015-09-04T08:00:24Z</time>
      </trkpt>
      <trkpt lat="33.78588" lon="77.59402">
        <ele>4866.8</ele>
        <time>2015-09-04T08:00:25Z</time>
      </trkpt>
      <trkpt lat="33.78591" lon="77.59388">
        <ele>4867.2</ele>
        <time>2015-09-04T08:00:40Z</time>
      </trkpt>
      <trkpt lat="33.78594" lon="77.59376">
        <ele>4867.8</ele>
        <time>2015-09-04T08:00:51Z</time>
      </trkpt>
      <trkpt lat="33.78592" lon="77.59368">
        <ele>4866.6</ele>
        <time>2015-09-04T08:01:04Z</time>
      </trkpt>
      <trkpt lat="33.78593" lon="77.59357">
        <ele>4866.4</ele>
        <time>2015-09-04T08:01:18Z</time>
      </trkpt>
      <trkpt lat="33.7859" lon="77.59353">
        <ele>4867.6</ele>
        <time>2015-09-04T08:01:35Z</time>
      </trkpt>
      <trkpt lat="33.78583" lon="77.59347">
        <ele>4868.8</ele>
        <time>2015-09-04T08:01:49Z</time>
      </trkpt>
      <trkpt lat="33.78575" lon="77.59339">
        <ele>4869.8</ele>
        <time>2015-09-04T08:02:04Z</time>
      </trkpt>
      <trkpt lat="33.78566" lon="77.59331">
        <ele>4870.8</ele>
        <time>2015-09-04T08:02:29Z</time>
      </trkpt>
      <trkpt lat="33.78562" lon="77.5932">
        <ele>4872</ele>
        <time>2015-09-04T08:02:56Z</time>
      </trkpt>
      <trkpt lat="33.78562" lon="77.59316">
        <ele>4872.2</ele>
        <time>2015-09-04T08:02:59Z</time>
      </trkpt>
      <trkpt lat="33.78559" lon="77.59306">
        <ele>4873</ele>
        <time>2015-09-04T08:03:18Z</time>
      </trkpt>
      <trkpt lat="33.78556" lon="77.59297">
        <ele>4874</ele>
        <time>2015-09-04T08:03:31Z</time>
      </trkpt>
      <trkpt lat="33.78557" lon="77.59294">
        <ele>4875</ele>
        <time>2015-09-04T08:03:42Z</time>
      </trkpt>
      <trkpt lat="33.78557" lon="77.59283">
        <ele>4876.2</ele>
        <time>2015-09-04T08:04:02Z</time>
      </trkpt>
      <trkpt lat="33.78557" lon="77.59274">
        <ele>4877.2</ele>
        <time>2015-09-04T08:04:22Z</time>
      </trkpt>
      <trkpt lat="33.78552" lon="77.59265">
        <ele>4878.2</ele>
        <time>2015-09-04T08:04:33Z</time>
      </trkpt>
      <trkpt lat="33.78548" lon="77.59256">
        <ele>4879.2</ele>
        <time>2015-09-04T08:04:46Z</time>
      </trkpt>
      <trkpt lat="33.78547" lon="77.59252">
        <ele>4880.4</ele>
        <time>2015-09-04T08:04:56Z</time>
      </trkpt>
      <trkpt lat="33.78544" lon="77.59249">
        <ele>4881.6</ele>
        <time>2015-09-04T08:05:10Z</time>
      </trkpt>
      <trkpt lat="33.78542" lon="77.59245">
        <ele>4882.6</ele>
        <time>2015-09-04T08:05:20Z</time>
      </trkpt>
      <trkpt lat="33.78542" lon="77.59242">
        <ele>4883.6</ele>
        <time>2015-09-04T08:05:30Z</time>
      </trkpt>
      <trkpt lat="33.78542" lon="77.59236">
        <ele>4884.8</ele>
        <time>2015-09-04T08:05:45Z</time>
      </trkpt>
      <trkpt lat="33.78535" lon="77.59226">
        <ele>4885.8</ele>
        <time>2015-09-04T08:05:57Z</time>
      </trkpt>
      <trkpt lat="33.78534" lon="77.59222">
        <ele>4886.8</ele>
        <time>2015-09-04T08:06:09Z</time>
      </trkpt>
      <trkpt lat="33.78532" lon="77.59223">
        <ele>4887.8</ele>
        <time>2015-09-04T08:06:24Z</time>
      </trkpt>
      <trkpt lat="33.78528" lon="77.5922">
        <ele>4888.8</ele>
        <time>2015-09-04T08:06:35Z</time>
      </trkpt>
      <trkpt lat="33.78526" lon="77.59217">
        <ele>4889.8</ele>
        <time>2015-09-04T08:06:44Z</time>
      </trkpt>
      <trkpt lat="33.78522" lon="77.59216">
        <ele>4890.8</ele>
        <time>2015-09-04T08:07:00Z</time>
      </trkpt>
      <trkpt lat="33.78519" lon="77.5921">
        <ele>4892</ele>
        <time>2015-09-04T08:07:11Z</time>
      </trkpt>
      <trkpt lat="33.78523" lon="77.59211">
        <ele>4893</ele>
        <time>2015-09-04T08:07:22Z</time>
      </trkpt>
      <trkpt lat="33.78519" lon="77.59201">
        <ele>4893.6</ele>
        <time>2015-09-04T08:07:32Z</time>
      </trkpt>
      <trkpt lat="33.78517" lon="77.59198">
        <ele>4894</ele>
        <time>2015-09-04T08:07:34Z</time>
      </trkpt>
      <trkpt lat="33.78517" lon="77.59198">
        <ele>4894</ele>
        <time>2015-09-04T08:07:35Z</time>
      </trkpt>
      <trkpt lat="33.78517" lon="77.59197">
        <ele>4894.2</ele>
        <time>2015-09-04T08:07:36Z</time>
      </trkpt>
      <trkpt lat="33.78516" lon="77.59194">
        <ele>4894.4</ele>
        <time>2015-09-04T08:07:40Z</time>
      </trkpt>
      <trkpt lat="33.78515" lon="77.59193">
        <ele>4895</ele>
        <time>2015-09-04T08:07:48Z</time>
      </trkpt>
      <trkpt lat="33.78515" lon="77.59191">
        <ele>4896.2</ele>
        <time>2015-09-04T08:07:58Z</time>
      </trkpt>
      <trkpt lat="33.78512" lon="77.59185">
        <ele>4897.2</ele>
        <time>2015-09-04T08:08:08Z</time>
      </trkpt>
      <trkpt lat="33.78509" lon="77.59186">
        <ele>4898.2</ele>
        <time>2015-09-04T08:08:19Z</time>
      </trkpt>
      <trkpt lat="33.78507" lon="77.59185">
        <ele>4899.2</ele>
        <time>2015-09-04T08:08:30Z</time>
      </trkpt>
      <trkpt lat="33.78504" lon="77.59181">
        <ele>4900.2</ele>
        <time>2015-09-04T08:08:44Z</time>
      </trkpt>
      <trkpt lat="33.78501" lon="77.5918">
        <ele>4901.2</ele>
        <time>2015-09-04T08:08:52Z</time>
      </trkpt>
      <trkpt lat="33.785" lon="77.5918">
        <ele>4901.2</ele>
        <time>2015-09-04T08:08:54Z</time>
      </trkpt>
      <trkpt lat="33.78499" lon="77.59174">
        <ele>4902.4</ele>
        <time>2015-09-04T08:09:03Z</time>
      </trkpt>
      <trkpt lat="33.78499" lon="77.59169">
        <ele>4903.2</ele>
        <time>2015-09-04T08:09:18Z</time>
      </trkpt>
      <trkpt lat="33.78499" lon="77.59169">
        <ele>4903.4</ele>
        <time>2015-09-04T08:09:19Z</time>
      </trkpt>
      <trkpt lat="33.78494" lon="77.59168">
        <ele>4904.4</ele>
        <time>2015-09-04T08:09:31Z</time>
      </trkpt>
      <trkpt lat="33.7849" lon="77.59164">
        <ele>4905</ele>
        <time>2015-09-04T08:09:42Z</time>
      </trkpt>
      <trkpt lat="33.78489" lon="77.59164">
        <ele>4905.2</ele>
        <time>2015-09-04T08:09:45Z</time>
      </trkpt>
      <trkpt lat="33.78487" lon="77.59169">
        <ele>4905.6</ele>
        <time>2015-09-04T08:09:48Z</time>
      </trkpt>
      <trkpt lat="33.78487" lon="77.59167">
        <ele>4906.6</ele>
        <time>2015-09-04T08:09:58Z</time>
      </trkpt>
      <trkpt lat="33.78485" lon="77.59163">
        <ele>4907.6</ele>
        <time>2015-09-04T08:10:15Z</time>
      </trkpt>
      <trkpt lat="33.78478" lon="77.59164">
        <ele>4908.8</ele>
        <time>2015-09-04T08:10:28Z</time>
      </trkpt>
      <trkpt lat="33.78476" lon="77.59161">
        <ele>4909.8</ele>
        <time>2015-09-04T08:10:37Z</time>
      </trkpt>
      <trkpt lat="33.78473" lon="77.59157">
        <ele>4910.8</ele>
        <time>2015-09-04T08:10:52Z</time>
      </trkpt>
      <trkpt lat="33.78473" lon="77.59157">
        <ele>4911.8</ele>
        <time>2015-09-04T08:11:00Z</time>
      </trkpt>
      <trkpt lat="33.78468" lon="77.59154">
        <ele>4913</ele>
        <time>2015-09-04T08:11:12Z</time>
      </trkpt>
      <trkpt lat="33.78463" lon="77.59153">
        <ele>4914</ele>
        <time>2015-09-04T08:11:23Z</time>
      </trkpt>
      <trkpt lat="33.78463" lon="77.5915">
        <ele>4915</ele>
        <time>2015-09-04T08:11:34Z</time>
      </trkpt>
      <trkpt lat="33.78462" lon="77.59148">
        <ele>4916.2</ele>
        <time>2015-09-04T08:11:44Z</time>
      </trkpt>
      <trkpt lat="33.7846" lon="77.59144">
        <ele>4916.6</ele>
        <time>2015-09-04T08:11:50Z</time>
      </trkpt>
      <trkpt lat="33.78459" lon="77.59142">
        <ele>4917.2</ele>
        <time>2015-09-04T08:11:56Z</time>
      </trkpt>
      <trkpt lat="33.78458" lon="77.59139">
        <ele>4918.2</ele>
        <time>2015-09-04T08:12:08Z</time>
      </trkpt>
      <trkpt lat="33.78454" lon="77.5914">
        <ele>4919.4</ele>
        <time>2015-09-04T08:12:19Z</time>
      </trkpt>
      <trkpt lat="33.78452" lon="77.59138">
        <ele>4920.4</ele>
        <time>2015-09-04T08:12:31Z</time>
      </trkpt>
      <trkpt lat="33.78451" lon="77.59136">
        <ele>4921.4</ele>
        <time>2015-09-04T08:12:45Z</time>
      </trkpt>
      <trkpt lat="33.78445" lon="77.59132">
        <ele>4922.6</ele>
        <time>2015-09-04T08:12:58Z</time>
      </trkpt>
      <trkpt lat="33.78437" lon="77.59135">
        <ele>4923.6</ele>
        <time>2015-09-04T08:13:12Z</time>
      </trkpt>
      <trkpt lat="33.78434" lon="77.59135">
        <ele>4924.6</ele>
        <time>2015-09-04T08:13:22Z</time>
      </trkpt>
      <trkpt lat="33.78429" lon="77.59132">
        <ele>4925.6</ele>
        <time>2015-09-04T08:13:34Z</time>
      </trkpt>
      <trkpt lat="33.78428" lon="77.59128">
        <ele>4926.6</ele>
        <time>2015-09-04T08:13:43Z</time>
      </trkpt>
      <trkpt lat="33.78428" lon="77.59117">
        <ele>4927.8</ele>
        <time>2015-09-04T08:13:59Z</time>
      </trkpt>
      <trkpt lat="33.78425" lon="77.59113">
        <ele>4928.8</ele>
        <time>2015-09-04T08:14:09Z</time>
      </trkpt>
      <trkpt lat="33.7842" lon="77.59112">
        <ele>4929.8</ele>
        <time>2015-09-04T08:14:18Z</time>
      </trkpt>
      <trkpt lat="33.78413" lon="77.5911">
        <ele>4931</ele>
        <time>2015-09-04T08:14:27Z</time>
      </trkpt>
      <trkpt lat="33.78408" lon="77.59103">
        <ele>4931.8</ele>
        <time>2015-09-04T08:14:51Z</time>
      </trkpt>
      <trkpt lat="33.7841" lon="77.59107">
        <ele>4932</ele>
        <time>2015-09-04T08:14:52Z</time>
      </trkpt>
      <trkpt lat="33.78411" lon="77.59105">
        <ele>4933</ele>
        <time>2015-09-04T08:15:06Z</time>
      </trkpt>
      <trkpt lat="33.78411" lon="77.59105">
        <ele>4934.2</ele>
        <time>2015-09-04T08:15:15Z</time>
      </trkpt>
      <trkpt lat="33.78407" lon="77.59099">
        <ele>4934.4</ele>
        <time>2015-09-04T08:15:19Z</time>
      </trkpt>
      <trkpt lat="33.78405" lon="77.59097">
        <ele>4934.6</ele>
        <time>2015-09-04T08:15:22Z</time>
      </trkpt>
      <trkpt lat="33.78404" lon="77.59096">
        <ele>4935.2</ele>
        <time>2015-09-04T08:15:26Z</time>
      </trkpt>
      <trkpt lat="33.78403" lon="77.59095">
        <ele>4936.2</ele>
        <time>2015-09-04T08:15:38Z</time>
      </trkpt>
      <trkpt lat="33.78401" lon="77.59095">
        <ele>4937.4</ele>
        <time>2015-09-04T08:15:46Z</time>
      </trkpt>
      <trkpt lat="33.784" lon="77.59095">
        <ele>4938.4</ele>
        <time>2015-09-04T08:15:55Z</time>
      </trkpt>
      <trkpt lat="33.78396" lon="77.59093">
        <ele>4939.4</ele>
        <time>2015-09-04T08:16:07Z</time>
      </trkpt>
      <trkpt lat="33.78393" lon="77.5909">
        <ele>4940.4</ele>
        <time>2015-09-04T08:16:19Z</time>
      </trkpt>
      <trkpt lat="33.7839" lon="77.5909">
        <ele>4940.8</ele>
        <time>2015-09-04T08:16:35Z</time>
      </trkpt>
      <trkpt lat="33.78391" lon="77.59092">
        <ele>4941.4</ele>
        <time>2015-09-04T08:16:56Z</time>
      </trkpt>
      <trkpt lat="33.78391" lon="77.59085">
        <ele>4942</ele>
        <time>2015-09-04T08:17:51Z</time>
      </trkpt>
      <trkpt lat="33.78394" lon="77.59087">
        <ele>4942</ele>
        <time>2015-09-04T08:17:53Z</time>
      </trkpt>
      <trkpt lat="33.78395" lon="77.59089">
        <ele>4942</ele>
        <time>2015-09-04T08:17:55Z</time>
      </trkpt>
      <trkpt lat="33.78395" lon="77.59088">
        <ele>4942.6</ele>
        <time>2015-09-04T08:17:58Z</time>
      </trkpt>
      <trkpt lat="33.78392" lon="77.59075">
        <ele>4943.6</ele>
        <time>2015-09-04T08:18:25Z</time>
      </trkpt>
      <trkpt lat="33.7839" lon="77.59069">
        <ele>4943.8</ele>
        <time>2015-09-04T08:18:30Z</time>
      </trkpt>
      <trkpt lat="33.78388" lon="77.59063">
        <ele>4943.8</ele>
        <time>2015-09-04T08:18:35Z</time>
      </trkpt>
      <trkpt lat="33.78387" lon="77.59052">
        <ele>4944.6</ele>
        <time>2015-09-04T08:18:52Z</time>
      </trkpt>
      <trkpt lat="33.78385" lon="77.59045">
        <ele>4945.8</ele>
        <time>2015-09-04T08:19:07Z</time>
      </trkpt>
      <trkpt lat="33.78388" lon="77.59045">
        <ele>4946.8</ele>
        <time>2015-09-04T08:19:21Z</time>
      </trkpt>
      <trkpt lat="33.78389" lon="77.59043">
        <ele>4947.8</ele>
        <time>2015-09-04T08:19:34Z</time>
      </trkpt>
      <trkpt lat="33.78384" lon="77.59045">
        <ele>4948.8</ele>
        <time>2015-09-04T08:19:45Z</time>
      </trkpt>
      <trkpt lat="33.78381" lon="77.5904">
        <ele>4950</ele>
        <time>2015-09-04T08:19:57Z</time>
      </trkpt>
      <trkpt lat="33.78382" lon="77.59036">
        <ele>4951</ele>
        <time>2015-09-04T08:20:11Z</time>
      </trkpt>
      <trkpt lat="33.78387" lon="77.59037">
        <ele>4952</ele>
        <time>2015-09-04T08:20:25Z</time>
      </trkpt>
      <trkpt lat="33.78388" lon="77.59032">
        <ele>4953</ele>
        <time>2015-09-04T08:20:37Z</time>
      </trkpt>
      <trkpt lat="33.78391" lon="77.59028">
        <ele>4954</ele>
        <time>2015-09-04T08:20:52Z</time>
      </trkpt>
      <trkpt lat="33.7839" lon="77.59023">
        <ele>4954.8</ele>
        <time>2015-09-04T08:21:01Z</time>
      </trkpt>
      <trkpt lat="33.78389" lon="77.59021">
        <ele>4955</ele>
        <time>2015-09-04T08:21:04Z</time>
      </trkpt>
      <trkpt lat="33.78386" lon="77.59018">
        <ele>4956.2</ele>
        <time>2015-09-04T08:21:13Z</time>
      </trkpt>
      <trkpt lat="33.78384" lon="77.59017">
        <ele>4957.2</ele>
        <time>2015-09-04T08:21:20Z</time>
      </trkpt>
      <trkpt lat="33.7838" lon="77.59018">
        <ele>4958.2</ele>
        <time>2015-09-04T08:21:29Z</time>
      </trkpt>
      <trkpt lat="33.78376" lon="77.59017">
        <ele>4959.4</ele>
        <time>2015-09-04T08:21:42Z</time>
      </trkpt>
      <trkpt lat="33.78373" lon="77.59017">
        <ele>4960.4</ele>
        <time>2015-09-04T08:21:52Z</time>
      </trkpt>
      <trkpt lat="33.78369" lon="77.59015">
        <ele>4961.6</ele>
        <time>2015-09-04T08:22:05Z</time>
      </trkpt>
      <trkpt lat="33.78368" lon="77.59013">
        <ele>4962.8</ele>
        <time>2015-09-04T08:22:09Z</time>
      </trkpt>
      <trkpt lat="33.78364" lon="77.59005">
        <ele>4963.8</ele>
        <time>2015-09-04T08:22:26Z</time>
      </trkpt>
      <trkpt lat="33.7836" lon="77.59006">
        <ele>4964.8</ele>
        <time>2015-09-04T08:22:39Z</time>
      </trkpt>
      <trkpt lat="33.7836" lon="77.59001">
        <ele>4966</ele>
        <time>2015-09-04T08:22:50Z</time>
      </trkpt>
      <trkpt lat="33.78355" lon="77.58998">
        <ele>4967</ele>
        <time>2015-09-04T08:23:01Z</time>
      </trkpt>
      <trkpt lat="33.7835" lon="77.58996">
        <ele>4968</ele>
        <time>2015-09-04T08:23:13Z</time>
      </trkpt>
      <trkpt lat="33.78347" lon="77.58995">
        <ele>4969</ele>
        <time>2015-09-04T08:23:25Z</time>
      </trkpt>
      <trkpt lat="33.7834" lon="77.58995">
        <ele>4970.2</ele>
        <time>2015-09-04T08:23:41Z</time>
      </trkpt>
      <trkpt lat="33.78335" lon="77.58993">
        <ele>4971.2</ele>
        <time>2015-09-04T08:23:54Z</time>
      </trkpt>
      <trkpt lat="33.78335" lon="77.58989">
        <ele>4972.2</ele>
        <time>2015-09-04T08:24:01Z</time>
      </trkpt>
      <trkpt lat="33.78333" lon="77.58983">
        <ele>4973.2</ele>
        <time>2015-09-04T08:24:15Z</time>
      </trkpt>
      <trkpt lat="33.7833" lon="77.5898">
        <ele>4973.8</ele>
        <time>2015-09-04T08:24:24Z</time>
      </trkpt>
      <trkpt lat="33.78328" lon="77.58979">
        <ele>4974.2</ele>
        <time>2015-09-04T08:24:30Z</time>
      </trkpt>
      <trkpt lat="33.78328" lon="77.58975">
        <ele>4975.4</ele>
        <time>2015-09-04T08:24:42Z</time>
      </trkpt>
      <trkpt lat="33.78323" lon="77.58972">
        <ele>4976.6</ele>
        <time>2015-09-04T08:24:55Z</time>
      </trkpt>
      <trkpt lat="33.78317" lon="77.58971">
        <ele>4977.6</ele>
        <time>2015-09-04T08:25:08Z</time>
      </trkpt>
      <trkpt lat="33.78317" lon="77.58966">
        <ele>4978.8</ele>
        <time>2015-09-04T08:25:16Z</time>
      </trkpt>
      <trkpt lat="33.78315" lon="77.58959">
        <ele>4979.8</ele>
        <time>2015-09-04T08:25:28Z</time>
      </trkpt>
      <trkpt lat="33.78307" lon="77.58958">
        <ele>4980.8</ele>
        <time>2015-09-04T08:25:51Z</time>
      </trkpt>
      <trkpt lat="33.78306" lon="77.58952">
        <ele>4981.8</ele>
        <time>2015-09-04T08:26:05Z</time>
      </trkpt>
      <trkpt lat="33.78305" lon="77.5895">
        <ele>4982.8</ele>
        <time>2015-09-04T08:26:20Z</time>
      </trkpt>
      <trkpt lat="33.783" lon="77.5895">
        <ele>4984</ele>
        <time>2015-09-04T08:26:34Z</time>
      </trkpt>
      <trkpt lat="33.78291" lon="77.58946">
        <ele>4985</ele>
        <time>2015-09-04T08:27:01Z</time>
      </trkpt>
      <trkpt lat="33.78287" lon="77.58948">
        <ele>4985.4</ele>
        <time>2015-09-04T08:27:06Z</time>
      </trkpt>
      <trkpt lat="33.78283" lon="77.58948">
        <ele>4986</ele>
        <time>2015-09-04T08:27:14Z</time>
      </trkpt>
      <trkpt lat="33.7828" lon="77.58943">
        <ele>4987.2</ele>
        <time>2015-09-04T08:27:24Z</time>
      </trkpt>
      <trkpt lat="33.78278" lon="77.58941">
        <ele>4988.2</ele>
        <time>2015-09-04T08:27:31Z</time>
      </trkpt>
      <trkpt lat="33.78273" lon="77.58943">
        <ele>4989.2</ele>
        <time>2015-09-04T08:27:45Z</time>
      </trkpt>
      <trkpt lat="33.78266" lon="77.58938">
        <ele>4990.4</ele>
        <time>2015-09-04T08:28:03Z</time>
      </trkpt>
      <trkpt lat="33.78265" lon="77.58935">
        <ele>4991.4</ele>
        <time>2015-09-04T08:28:11Z</time>
      </trkpt>
      <trkpt lat="33.78261" lon="77.58932">
        <ele>4992.4</ele>
        <time>2015-09-04T08:28:22Z</time>
      </trkpt>
      <trkpt lat="33.7826" lon="77.58922">
        <ele>4993.4</ele>
        <time>2015-09-04T08:28:33Z</time>
      </trkpt>
      <trkpt lat="33.78258" lon="77.58917">
        <ele>4994.6</ele>
        <time>2015-09-04T08:28:43Z</time>
      </trkpt>
      <trkpt lat="33.78254" lon="77.58917">
        <ele>4995.6</ele>
        <time>2015-09-04T08:28:54Z</time>
      </trkpt>
      <trkpt lat="33.78252" lon="77.58912">
        <ele>4996.6</ele>
        <time>2015-09-04T08:29:04Z</time>
      </trkpt>
      <trkpt lat="33.78245" lon="77.58915">
        <ele>4997.8</ele>
        <time>2015-09-04T08:29:15Z</time>
      </trkpt>
      <trkpt lat="33.78243" lon="77.58909">
        <ele>4998.8</ele>
        <time>2015-09-04T08:29:26Z</time>
      </trkpt>
      <trkpt lat="33.7824" lon="77.58907">
        <ele>4999.8</ele>
        <time>2015-09-04T08:29:37Z</time>
      </trkpt>
      <trkpt lat="33.78237" lon="77.58903">
        <ele>5000.8</ele>
        <time>2015-09-04T08:29:46Z</time>
      </trkpt>
      <trkpt lat="33.78236" lon="77.58897">
        <ele>5002</ele>
        <time>2015-09-04T08:29:57Z</time>
      </trkpt>
      <trkpt lat="33.78231" lon="77.58896">
        <ele>5003</ele>
        <time>2015-09-04T08:30:08Z</time>
      </trkpt>
      <trkpt lat="33.78227" lon="77.5889">
        <ele>5004</ele>
        <time>2015-09-04T08:30:25Z</time>
      </trkpt>
      <trkpt lat="33.78223" lon="77.58891">
        <ele>5005.2</ele>
        <time>2015-09-04T08:30:37Z</time>
      </trkpt>
      <trkpt lat="33.78219" lon="77.58892">
        <ele>5006.2</ele>
        <time>2015-09-04T08:30:47Z</time>
      </trkpt>
      <trkpt lat="33.78218" lon="77.58887">
        <ele>5007.4</ele>
        <time>2015-09-04T08:30:58Z</time>
      </trkpt>
      <trkpt lat="33.78216" lon="77.58883">
        <ele>5007.8</ele>
        <time>2015-09-04T08:31:04Z</time>
      </trkpt>
      <trkpt lat="33.78216" lon="77.58875">
        <ele>5008.4</ele>
        <time>2015-09-04T08:31:13Z</time>
      </trkpt>
      <trkpt lat="33.78213" lon="77.58869">
        <ele>5009.6</ele>
        <time>2015-09-04T08:31:26Z</time>
      </trkpt>
      <trkpt lat="33.78211" lon="77.58866">
        <ele>5010.6</ele>
        <time>2015-09-04T08:31:37Z</time>
      </trkpt>
      <trkpt lat="33.78209" lon="77.5886">
        <ele>5012</ele>
        <time>2015-09-04T08:31:47Z</time>
      </trkpt>
      <trkpt lat="33.78214" lon="77.58859">
        <ele>5012.2</ele>
        <time>2015-09-04T08:32:22Z</time>
      </trkpt>
      <trkpt lat="33.78212" lon="77.5886">
        <ele>5012.2</ele>
        <time>2015-09-04T08:32:23Z</time>
      </trkpt>
      <trkpt lat="33.78212" lon="77.5886">
        <ele>5012.2</ele>
        <time>2015-09-04T08:32:24Z</time>
      </trkpt>
      <trkpt lat="33.7821" lon="77.58858">
        <ele>5012.8</ele>
        <time>2015-09-04T08:32:27Z</time>
      </trkpt>
      <trkpt lat="33.7821" lon="77.58857">
        <ele>5013</ele>
        <time>2015-09-04T08:32:28Z</time>
      </trkpt>
      <trkpt lat="33.78208" lon="77.58851">
        <ele>5013.4</ele>
        <time>2015-09-04T08:32:31Z</time>
      </trkpt>
      <trkpt lat="33.78206" lon="77.58849">
        <ele>5014</ele>
        <time>2015-09-04T08:33:46Z</time>
      </trkpt>
      <trkpt lat="33.78205" lon="77.58847">
        <ele>5014.4</ele>
        <time>2015-09-04T08:33:55Z</time>
      </trkpt>
      <trkpt lat="33.78199" lon="77.5884">
        <ele>5015</ele>
        <time>2015-09-04T08:34:09Z</time>
      </trkpt>
      <trkpt lat="33.78197" lon="77.58836">
        <ele>5016.2</ele>
        <time>2015-09-04T08:34:21Z</time>
      </trkpt>
      <trkpt lat="33.78198" lon="77.58833">
        <ele>5017.4</ele>
        <time>2015-09-04T08:34:34Z</time>
      </trkpt>
      <trkpt lat="33.78198" lon="77.58823">
        <ele>5018.4</ele>
        <time>2015-09-04T08:34:52Z</time>
      </trkpt>
      <trkpt lat="33.78192" lon="77.5882">
        <ele>5018.8</ele>
        <time>2015-09-04T08:34:59Z</time>
      </trkpt>
      <trkpt lat="33.78188" lon="77.58824">
        <ele>5019</ele>
        <time>2015-09-04T08:35:03Z</time>
      </trkpt>
      <trkpt lat="33.78183" lon="77.58821">
        <ele>5019.6</ele>
        <time>2015-09-04T08:35:20Z</time>
      </trkpt>
      <trkpt lat="33.7818" lon="77.58811">
        <ele>5020.6</ele>
        <time>2015-09-04T08:35:43Z</time>
      </trkpt>
      <trkpt lat="33.78176" lon="77.58806">
        <ele>5021.6</ele>
        <time>2015-09-04T08:35:54Z</time>
      </trkpt>
      <trkpt lat="33.7817" lon="77.58795">
        <ele>5022.6</ele>
        <time>2015-09-04T08:36:09Z</time>
      </trkpt>
      <trkpt lat="33.78168" lon="77.58792">
        <ele>5023.8</ele>
        <time>2015-09-04T08:36:18Z</time>
      </trkpt>
      <trkpt lat="33.78167" lon="77.58787">
        <ele>5024.8</ele>
        <time>2015-09-04T08:36:32Z</time>
      </trkpt>
      <trkpt lat="33.7816" lon="77.58787">
        <ele>5025.8</ele>
        <time>2015-09-04T08:36:47Z</time>
      </trkpt>
      <trkpt lat="33.78159" lon="77.58781">
        <ele>5026.8</ele>
        <time>2015-09-04T08:36:54Z</time>
      </trkpt>
      <trkpt lat="33.78156" lon="77.58776">
        <ele>5028</ele>
        <time>2015-09-04T08:37:05Z</time>
      </trkpt>
      <trkpt lat="33.78151" lon="77.58768">
        <ele>5029</ele>
        <time>2015-09-04T08:37:23Z</time>
      </trkpt>
      <trkpt lat="33.78154" lon="77.58773">
        <ele>5029.8</ele>
        <time>2015-09-04T08:37:41Z</time>
      </trkpt>
      <trkpt lat="33.78154" lon="77.58773">
        <ele>5030</ele>
        <time>2015-09-04T08:37:44Z</time>
      </trkpt>
      <trkpt lat="33.78155" lon="77.58764">
        <ele>5031</ele>
        <time>2015-09-04T08:37:57Z</time>
      </trkpt>
      <trkpt lat="33.78155" lon="77.58754">
        <ele>5031.8</ele>
        <time>2015-09-04T08:38:09Z</time>
      </trkpt>
      <trkpt lat="33.78154" lon="77.5875">
        <ele>5032</ele>
        <time>2015-09-04T08:38:17Z</time>
      </trkpt>
      <trkpt lat="33.78151" lon="77.5874">
        <ele>5033</ele>
        <time>2015-09-04T08:38:44Z</time>
      </trkpt>
      <trkpt lat="33.78148" lon="77.58731">
        <ele>5034</ele>
        <time>2015-09-04T08:38:58Z</time>
      </trkpt>
      <trkpt lat="33.78146" lon="77.58722">
        <ele>5035.2</ele>
        <time>2015-09-04T08:39:13Z</time>
      </trkpt>
      <trkpt lat="33.78142" lon="77.58719">
        <ele>5036.2</ele>
        <time>2015-09-04T08:39:28Z</time>
      </trkpt>
      <trkpt lat="33.78139" lon="77.58712">
        <ele>5037.2</ele>
        <time>2015-09-04T08:39:45Z</time>
      </trkpt>
      <trkpt lat="33.78136" lon="77.58706">
        <ele>5038.4</ele>
        <time>2015-09-04T08:39:58Z</time>
      </trkpt>
      <trkpt lat="33.78136" lon="77.58705">
        <ele>5038.4</ele>
        <time>2015-09-04T08:40:01Z</time>
      </trkpt>
      <trkpt lat="33.78136" lon="77.58703">
        <ele>5039.4</ele>
        <time>2015-09-04T08:40:08Z</time>
      </trkpt>
      <trkpt lat="33.78127" lon="77.58697">
        <ele>5040.4</ele>
        <time>2015-09-04T08:40:29Z</time>
      </trkpt>
      <trkpt lat="33.78124" lon="77.5869">
        <ele>5041</ele>
        <time>2015-09-04T08:40:36Z</time>
      </trkpt>
      <trkpt lat="33.78122" lon="77.58684">
        <ele>5041.4</ele>
        <time>2015-09-04T08:40:44Z</time>
      </trkpt>
      <trkpt lat="33.78117" lon="77.58681">
        <ele>5042.6</ele>
        <time>2015-09-04T08:40:58Z</time>
      </trkpt>
      <trkpt lat="33.78117" lon="77.58679">
        <ele>5043.6</ele>
        <time>2015-09-04T08:41:06Z</time>
      </trkpt>
      <trkpt lat="33.78112" lon="77.58673">
        <ele>5044.6</ele>
        <time>2015-09-04T08:41:18Z</time>
      </trkpt>
      <trkpt lat="33.78107" lon="77.58666">
        <ele>5045.6</ele>
        <time>2015-09-04T08:41:35Z</time>
      </trkpt>
      <trkpt lat="33.78102" lon="77.58662">
        <ele>5046.6</ele>
        <time>2015-09-04T08:41:51Z</time>
      </trkpt>
      <trkpt lat="33.78099" lon="77.58661">
        <ele>5047.4</ele>
        <time>2015-09-04T08:42:01Z</time>
      </trkpt>
      <trkpt lat="33.78098" lon="77.5866">
        <ele>5047.8</ele>
        <time>2015-09-04T08:42:04Z</time>
      </trkpt>
      <trkpt lat="33.78096" lon="77.58657">
        <ele>5048.8</ele>
        <time>2015-09-04T08:42:17Z</time>
      </trkpt>
      <trkpt lat="33.78089" lon="77.5865">
        <ele>5049.8</ele>
        <time>2015-09-04T08:42:35Z</time>
      </trkpt>
      <trkpt lat="33.78086" lon="77.58647">
        <ele>5050.8</ele>
        <time>2015-09-04T08:42:48Z</time>
      </trkpt>
      <trkpt lat="33.78078" lon="77.58646">
        <ele>5052</ele>
        <time>2015-09-04T08:43:06Z</time>
      </trkpt>
      <trkpt lat="33.78069" lon="77.58648">
        <ele>5053</ele>
        <time>2015-09-04T08:43:25Z</time>
      </trkpt>
      <trkpt lat="33.78067" lon="77.58649">
        <ele>5053</ele>
        <time>2015-09-04T08:45:16Z</time>
      </trkpt>
      <trkpt lat="33.78068" lon="77.58646">
        <ele>5054</ele>
        <time>2015-09-04T08:45:33Z</time>
      </trkpt>
      <trkpt lat="33.78074" lon="77.5865">
        <ele>5053</ele>
        <time>2015-09-04T08:46:01Z</time>
      </trkpt>
      <trkpt lat="33.78072" lon="77.58652">
        <ele>5053</ele>
        <time>2015-09-04T08:46:42Z</time>
      </trkpt>
      <trkpt lat="33.78071" lon="77.58651">
        <ele>5054</ele>
        <time>2015-09-04T08:46:53Z</time>
      </trkpt>
      <trkpt lat="33.78071" lon="77.58654">
        <ele>5053</ele>
        <time>2015-09-04T08:47:10Z</time>
      </trkpt>
      <trkpt lat="33.78072" lon="77.58651">
        <ele>5053.8</ele>
        <time>2015-09-04T08:48:40Z</time>
      </trkpt>
      <trkpt lat="33.7807" lon="77.58652">
        <ele>5054</ele>
        <time>2015-09-04T08:48:55Z</time>
      </trkpt>
      <trkpt lat="33.78068" lon="77.58653">
        <ele>5054.2</ele>
        <time>2015-09-04T08:50:18Z</time>
      </trkpt>
      <trkpt lat="33.78065" lon="77.58644">
        <ele>5055</ele>
        <time>2015-09-04T08:50:37Z</time>
      </trkpt>
      <trkpt lat="33.78054" lon="77.58643">
        <ele>5056</ele>
        <time>2015-09-04T08:50:53Z</time>
      </trkpt>
      <trkpt lat="33.7804" lon="77.58642">
        <ele>5057.2</ele>
        <time>2015-09-04T08:51:13Z</time>
      </trkpt>
      <trkpt lat="33.78032" lon="77.58636">
        <ele>5058.2</ele>
        <time>2015-09-04T08:51:27Z</time>
      </trkpt>
      <trkpt lat="33.78031" lon="77.58629">
        <ele>5059.2</ele>
        <time>2015-09-04T08:51:43Z</time>
      </trkpt>
      <trkpt lat="33.78023" lon="77.58624">
        <ele>5060.2</ele>
        <time>2015-09-04T08:52:00Z</time>
      </trkpt>
      <trkpt lat="33.78012" lon="77.58623">
        <ele>5061.4</ele>
        <time>2015-09-04T08:52:16Z</time>
      </trkpt>
      <trkpt lat="33.78008" lon="77.58619">
        <ele>5062.4</ele>
        <time>2015-09-04T08:52:27Z</time>
      </trkpt>
      <trkpt lat="33.78002" lon="77.58611">
        <ele>5063.4</ele>
        <time>2015-09-04T08:52:40Z</time>
      </trkpt>
      <trkpt lat="33.77997" lon="77.58609">
        <ele>5064.6</ele>
        <time>2015-09-04T08:52:55Z</time>
      </trkpt>
      <trkpt lat="33.7799" lon="77.58603">
        <ele>5065.6</ele>
        <time>2015-09-04T08:53:11Z</time>
      </trkpt>
      <trkpt lat="33.77991" lon="77.58592">
        <ele>5066.6</ele>
        <time>2015-09-04T08:53:26Z</time>
      </trkpt>
      <trkpt lat="33.77981" lon="77.58586">
        <ele>5067.6</ele>
        <time>2015-09-04T08:53:43Z</time>
      </trkpt>
      <trkpt lat="33.77968" lon="77.58586">
        <ele>5068.8</ele>
        <time>2015-09-04T08:54:03Z</time>
      </trkpt>
      <trkpt lat="33.7796" lon="77.58583">
        <ele>5069.8</ele>
        <time>2015-09-04T08:54:19Z</time>
      </trkpt>
      <trkpt lat="33.77953" lon="77.58577">
        <ele>5070.8</ele>
        <time>2015-09-04T08:54:37Z</time>
      </trkpt>
      <trkpt lat="33.77949" lon="77.58572">
        <ele>5071.2</ele>
        <time>2015-09-04T08:54:43Z</time>
      </trkpt>
      <trkpt lat="33.77945" lon="77.5857">
        <ele>5071.8</ele>
        <time>2015-09-04T08:54:53Z</time>
      </trkpt>
      <trkpt lat="33.77938" lon="77.58568">
        <ele>5073</ele>
        <time>2015-09-04T08:55:05Z</time>
      </trkpt>
      <trkpt lat="33.77928" lon="77.58565">
        <ele>5074</ele>
        <time>2015-09-04T08:55:24Z</time>
      </trkpt>
      <trkpt lat="33.77926" lon="77.58553">
        <ele>5075</ele>
        <time>2015-09-04T08:55:43Z</time>
      </trkpt>
      <trkpt lat="33.77912" lon="77.58556">
        <ele>5076</ele>
        <time>2015-09-04T08:56:01Z</time>
      </trkpt>
      <trkpt lat="33.7791" lon="77.58557">
        <ele>5076.2</ele>
        <time>2015-09-04T08:56:03Z</time>
      </trkpt>
      <trkpt lat="33.77904" lon="77.58551">
        <ele>5077</ele>
        <time>2015-09-04T08:56:16Z</time>
      </trkpt>
      <trkpt lat="33.77898" lon="77.58547">
        <ele>5078.2</ele>
        <time>2015-09-04T08:56:31Z</time>
      </trkpt>
      <trkpt lat="33.77892" lon="77.58539">
        <ele>5079.2</ele>
        <time>2015-09-04T08:56:50Z</time>
      </trkpt>
      <trkpt lat="33.77881" lon="77.58533">
        <ele>5080.2</ele>
        <time>2015-09-04T08:57:09Z</time>
      </trkpt>
      <trkpt lat="33.77873" lon="77.58532">
        <ele>5081.2</ele>
        <time>2015-09-04T08:57:29Z</time>
      </trkpt>
      <trkpt lat="33.77868" lon="77.58531">
        <ele>5082.2</ele>
        <time>2015-09-04T08:57:44Z</time>
      </trkpt>
      <trkpt lat="33.77864" lon="77.58531">
        <ele>5082.6</ele>
        <time>2015-09-04T08:57:50Z</time>
      </trkpt>
      <trkpt lat="33.77857" lon="77.58532">
        <ele>5083.2</ele>
        <time>2015-09-04T08:57:59Z</time>
      </trkpt>
      <trkpt lat="33.77852" lon="77.58527">
        <ele>5084</ele>
        <time>2015-09-04T08:58:10Z</time>
      </trkpt>
      <trkpt lat="33.77849" lon="77.58524">
        <ele>5084.4</ele>
        <time>2015-09-04T08:58:16Z</time>
      </trkpt>
      <trkpt lat="33.77844" lon="77.58519">
        <ele>5085.4</ele>
        <time>2015-09-04T08:58:34Z</time>
      </trkpt>
      <trkpt lat="33.77835" lon="77.58516">
        <ele>5086.4</ele>
        <time>2015-09-04T08:58:55Z</time>
      </trkpt>
      <trkpt lat="33.77832" lon="77.58512">
        <ele>5087.4</ele>
        <time>2015-09-04T08:59:03Z</time>
      </trkpt>
      <trkpt lat="33.77823" lon="77.58512">
        <ele>5088.4</ele>
        <time>2015-09-04T08:59:21Z</time>
      </trkpt>
      <trkpt lat="33.77813" lon="77.58514">
        <ele>5089.6</ele>
        <time>2015-09-04T08:59:35Z</time>
      </trkpt>
      <trkpt lat="33.77804" lon="77.58513">
        <ele>5090.6</ele>
        <time>2015-09-04T08:59:54Z</time>
      </trkpt>
      <trkpt lat="33.77798" lon="77.5851">
        <ele>5091.6</ele>
        <time>2015-09-04T09:00:09Z</time>
      </trkpt>
      <trkpt lat="33.77788" lon="77.58519">
        <ele>5092.4</ele>
        <time>2015-09-04T09:00:36Z</time>
      </trkpt>
      <trkpt lat="33.77788" lon="77.58518">
        <ele>5092.4</ele>
        <time>2015-09-04T09:00:48Z</time>
      </trkpt>
      <trkpt lat="33.77784" lon="77.58517">
        <ele>5092.6</ele>
        <time>2015-09-04T09:01:01Z</time>
      </trkpt>
      <trkpt lat="33.77783" lon="77.58518">
        <ele>5092.6</ele>
        <time>2015-09-04T09:01:02Z</time>
      </trkpt>
      <trkpt lat="33.77783" lon="77.58516">
        <ele>5093.2</ele>
        <time>2015-09-04T09:01:15Z</time>
      </trkpt>
      <trkpt lat="33.77782" lon="77.58508">
        <ele>5093.6</ele>
        <time>2015-09-04T09:01:28Z</time>
      </trkpt>
      <trkpt lat="33.77782" lon="77.58508">
        <ele>5093.6</ele>
        <time>2015-09-04T09:01:29Z</time>
      </trkpt>
      <trkpt lat="33.77771" lon="77.5851">
        <ele>5094.8</ele>
        <time>2015-09-04T09:01:45Z</time>
      </trkpt>
      <trkpt lat="33.77761" lon="77.58497">
        <ele>5095.8</ele>
        <time>2015-09-04T09:02:03Z</time>
      </trkpt>
      <trkpt lat="33.7776" lon="77.58495">
        <ele>5096</ele>
        <time>2015-09-04T09:02:05Z</time>
      </trkpt>
      <trkpt lat="33.77757" lon="77.58494">
        <ele>5097</ele>
        <time>2015-09-04T09:02:13Z</time>
      </trkpt>
      <trkpt lat="33.7775" lon="77.58494">
        <ele>5098</ele>
        <time>2015-09-04T09:02:26Z</time>
      </trkpt>
      <trkpt lat="33.77743" lon="77.585">
        <ele>5099</ele>
        <time>2015-09-04T09:02:36Z</time>
      </trkpt>
      <trkpt lat="33.77739" lon="77.58488">
        <ele>5100.2</ele>
        <time>2015-09-04T09:02:55Z</time>
      </trkpt>
      <trkpt lat="33.77737" lon="77.58484">
        <ele>5101.2</ele>
        <time>2015-09-04T09:03:07Z</time>
      </trkpt>
      <trkpt lat="33.77725" lon="77.58479">
        <ele>5102.2</ele>
        <time>2015-09-04T09:03:27Z</time>
      </trkpt>
      <trkpt lat="33.77722" lon="77.58473">
        <ele>5103.4</ele>
        <time>2015-09-04T09:03:39Z</time>
      </trkpt>
      <trkpt lat="33.77715" lon="77.58462">
        <ele>5104.4</ele>
        <time>2015-09-04T09:04:00Z</time>
      </trkpt>
      <trkpt lat="33.77708" lon="77.5846">
        <ele>5105.4</ele>
        <time>2015-09-04T09:04:14Z</time>
      </trkpt>
      <trkpt lat="33.77704" lon="77.58456">
        <ele>5106.4</ele>
        <time>2015-09-04T09:04:26Z</time>
      </trkpt>
      <trkpt lat="33.77701" lon="77.5845">
        <ele>5107.4</ele>
        <time>2015-09-04T09:04:39Z</time>
      </trkpt>
      <trkpt lat="33.77695" lon="77.58446">
        <ele>5108.6</ele>
        <time>2015-09-04T09:04:52Z</time>
      </trkpt>
      <trkpt lat="33.77687" lon="77.5844">
        <ele>5109.6</ele>
        <time>2015-09-04T09:05:09Z</time>
      </trkpt>
      <trkpt lat="33.77678" lon="77.58441">
        <ele>5110.6</ele>
        <time>2015-09-04T09:05:23Z</time>
      </trkpt>
      <trkpt lat="33.77674" lon="77.58435">
        <ele>5111.6</ele>
        <time>2015-09-04T09:05:34Z</time>
      </trkpt>
      <trkpt lat="33.77668" lon="77.58432">
        <ele>5112.8</ele>
        <time>2015-09-04T09:05:47Z</time>
      </trkpt>
      <trkpt lat="33.77663" lon="77.58428">
        <ele>5113.8</ele>
        <time>2015-09-04T09:06:02Z</time>
      </trkpt>
      <trkpt lat="33.77657" lon="77.58424">
        <ele>5114.8</ele>
        <time>2015-09-04T09:06:14Z</time>
      </trkpt>
      <trkpt lat="33.77649" lon="77.58415">
        <ele>5115.8</ele>
        <time>2015-09-04T09:06:31Z</time>
      </trkpt>
      <trkpt lat="33.77646" lon="77.58408">
        <ele>5117</ele>
        <time>2015-09-04T09:06:47Z</time>
      </trkpt>
      <trkpt lat="33.77639" lon="77.58405">
        <ele>5118</ele>
        <time>2015-09-04T09:07:03Z</time>
      </trkpt>
      <trkpt lat="33.77627" lon="77.58402">
        <ele>5119</ele>
        <time>2015-09-04T09:07:20Z</time>
      </trkpt>
      <trkpt lat="33.77623" lon="77.58394">
        <ele>5120</ele>
        <time>2015-09-04T09:07:34Z</time>
      </trkpt>
      <trkpt lat="33.77621" lon="77.58388">
        <ele>5121</ele>
        <time>2015-09-04T09:07:48Z</time>
      </trkpt>
      <trkpt lat="33.77615" lon="77.58383">
        <ele>5122.2</ele>
        <time>2015-09-04T09:08:03Z</time>
      </trkpt>
      <trkpt lat="33.77609" lon="77.58381">
        <ele>5123.2</ele>
        <time>2015-09-04T09:08:18Z</time>
      </trkpt>
      <trkpt lat="33.77601" lon="77.58376">
        <ele>5124.2</ele>
        <time>2015-09-04T09:08:33Z</time>
      </trkpt>
      <trkpt lat="33.77597" lon="77.58368">
        <ele>5125.2</ele>
        <time>2015-09-04T09:08:51Z</time>
      </trkpt>
      <trkpt lat="33.77587" lon="77.58366">
        <ele>5126.2</ele>
        <time>2015-09-04T09:09:07Z</time>
      </trkpt>
      <trkpt lat="33.77581" lon="77.58361">
        <ele>5127.4</ele>
        <time>2015-09-04T09:09:23Z</time>
      </trkpt>
      <trkpt lat="33.77577" lon="77.58357">
        <ele>5128.4</ele>
        <time>2015-09-04T09:09:36Z</time>
      </trkpt>
      <trkpt lat="33.77571" lon="77.58349">
        <ele>5129.4</ele>
        <time>2015-09-04T09:09:52Z</time>
      </trkpt>
      <trkpt lat="33.77566" lon="77.58347">
        <ele>5130.6</ele>
        <time>2015-09-04T09:10:07Z</time>
      </trkpt>
      <trkpt lat="33.77559" lon="77.58338">
        <ele>5131.6</ele>
        <time>2015-09-04T09:10:24Z</time>
      </trkpt>
      <trkpt lat="33.77553" lon="77.58337">
        <ele>5132.6</ele>
        <time>2015-09-04T09:10:36Z</time>
      </trkpt>
      <trkpt lat="33.77543" lon="77.58336">
        <ele>5133.6</ele>
        <time>2015-09-04T09:10:55Z</time>
      </trkpt>
      <trkpt lat="33.77537" lon="77.58332">
        <ele>5134.6</ele>
        <time>2015-09-04T09:11:10Z</time>
      </trkpt>
      <trkpt lat="33.77532" lon="77.58329">
        <ele>5135.6</ele>
        <time>2015-09-04T09:11:23Z</time>
      </trkpt>
      <trkpt lat="33.77527" lon="77.58325">
        <ele>5136.8</ele>
        <time>2015-09-04T09:11:39Z</time>
      </trkpt>
      <trkpt lat="33.7752" lon="77.58323">
        <ele>5137.8</ele>
        <time>2015-09-04T09:11:54Z</time>
      </trkpt>
      <trkpt lat="33.77515" lon="77.58323">
        <ele>5139</ele>
        <time>2015-09-04T09:12:08Z</time>
      </trkpt>
      <trkpt lat="33.77513" lon="77.58318">
        <ele>5139.6</ele>
        <time>2015-09-04T09:12:18Z</time>
      </trkpt>
      <trkpt lat="33.77511" lon="77.58316">
        <ele>5140</ele>
        <time>2015-09-04T09:12:23Z</time>
      </trkpt>
      <trkpt lat="33.77502" lon="77.58313">
        <ele>5141</ele>
        <time>2015-09-04T09:12:42Z</time>
      </trkpt>
      <trkpt lat="33.775" lon="77.58316">
        <ele>5141.2</ele>
        <time>2015-09-04T09:12:44Z</time>
      </trkpt>
      <trkpt lat="33.77493" lon="77.58312">
        <ele>5142</ele>
        <time>2015-09-04T09:12:59Z</time>
      </trkpt>
      <trkpt lat="33.7749" lon="77.58307">
        <ele>5143</ele>
        <time>2015-09-04T09:13:12Z</time>
      </trkpt>
      <trkpt lat="33.77492" lon="77.58297">
        <ele>5144.2</ele>
        <time>2015-09-04T09:13:26Z</time>
      </trkpt>
      <trkpt lat="33.7749" lon="77.58299">
        <ele>5144.4</ele>
        <time>2015-09-04T09:13:32Z</time>
      </trkpt>
      <trkpt lat="33.77481" lon="77.58301">
        <ele>5145</ele>
        <time>2015-09-04T09:14:11Z</time>
      </trkpt>
      <trkpt lat="33.7748" lon="77.58301">
        <ele>5145.2</ele>
        <time>2015-09-04T09:14:13Z</time>
      </trkpt>
      <trkpt lat="33.77471" lon="77.583">
        <ele>5146.2</ele>
        <time>2015-09-04T09:14:27Z</time>
      </trkpt>
      <trkpt lat="33.77469" lon="77.583">
        <ele>5146.4</ele>
        <time>2015-09-04T09:14:30Z</time>
      </trkpt>
      <trkpt lat="33.77466" lon="77.58295">
        <ele>5147.4</ele>
        <time>2015-09-04T09:14:42Z</time>
      </trkpt>
      <trkpt lat="33.7746" lon="77.58292">
        <ele>5148.4</ele>
        <time>2015-09-04T09:14:56Z</time>
      </trkpt>
      <trkpt lat="33.77455" lon="77.58291">
        <ele>5149.6</ele>
        <time>2015-09-04T09:15:03Z</time>
      </trkpt>
      <trkpt lat="33.77448" lon="77.58288">
        <ele>5150.6</ele>
        <time>2015-09-04T09:15:21Z</time>
      </trkpt>
      <trkpt lat="33.77445" lon="77.5828">
        <ele>5151.6</ele>
        <time>2015-09-04T09:15:38Z</time>
      </trkpt>
      <trkpt lat="33.77443" lon="77.58272">
        <ele>5152.6</ele>
        <time>2015-09-04T09:15:50Z</time>
      </trkpt>
      <trkpt lat="33.77438" lon="77.58268">
        <ele>5153.8</ele>
        <time>2015-09-04T09:16:02Z</time>
      </trkpt>
      <trkpt lat="33.77433" lon="77.58264">
        <ele>5154.8</ele>
        <time>2015-09-04T09:16:17Z</time>
      </trkpt>
      <trkpt lat="33.77431" lon="77.5826">
        <ele>5155.8</ele>
        <time>2015-09-04T09:16:30Z</time>
      </trkpt>
      <trkpt lat="33.77424" lon="77.5826">
        <ele>5157</ele>
        <time>2015-09-04T09:16:52Z</time>
      </trkpt>
      <trkpt lat="33.77423" lon="77.58263">
        <ele>5156.2</ele>
        <time>2015-09-04T09:17:05Z</time>
      </trkpt>
      <trkpt lat="33.77427" lon="77.58257">
        <ele>5157</ele>
        <time>2015-09-04T09:17:57Z</time>
      </trkpt>
      <trkpt lat="33.77422" lon="77.58252">
        <ele>5158</ele>
        <time>2015-09-04T09:18:11Z</time>
      </trkpt>
      <trkpt lat="33.77419" lon="77.58251">
        <ele>5158.2</ele>
        <time>2015-09-04T09:18:15Z</time>
      </trkpt>
      <trkpt lat="33.77413" lon="77.5825">
        <ele>5159</ele>
        <time>2015-09-04T09:18:26Z</time>
      </trkpt>
      <trkpt lat="33.7741" lon="77.58249">
        <ele>5160</ele>
        <time>2015-09-04T09:18:33Z</time>
      </trkpt>
      <trkpt lat="33.77406" lon="77.58246">
        <ele>5161</ele>
        <time>2015-09-04T09:18:45Z</time>
      </trkpt>
      <trkpt lat="33.774" lon="77.58242">
        <ele>5162.2</ele>
        <time>2015-09-04T09:18:59Z</time>
      </trkpt>
      <trkpt lat="33.77398" lon="77.58237">
        <ele>5163.2</ele>
        <time>2015-09-04T09:19:17Z</time>
      </trkpt>
      <trkpt lat="33.77394" lon="77.58232">
        <ele>5164.4</ele>
        <time>2015-09-04T09:19:34Z</time>
      </trkpt>
      <trkpt lat="33.77385" lon="77.58223">
        <ele>5165.4</ele>
        <time>2015-09-04T09:19:55Z</time>
      </trkpt>
      <trkpt lat="33.77377" lon="77.58224">
        <ele>5166.6</ele>
        <time>2015-09-04T09:20:06Z</time>
      </trkpt>
      <trkpt lat="33.77375" lon="77.58225">
        <ele>5167.4</ele>
        <time>2015-09-04T09:20:16Z</time>
      </trkpt>
      <trkpt lat="33.77375" lon="77.58223">
        <ele>5167.8</ele>
        <time>2015-09-04T09:20:21Z</time>
      </trkpt>
      <trkpt lat="33.77373" lon="77.58215">
        <ele>5168.8</ele>
        <time>2015-09-04T09:20:37Z</time>
      </trkpt>
      <trkpt lat="33.77367" lon="77.58214">
        <ele>5169.8</ele>
        <time>2015-09-04T09:20:48Z</time>
      </trkpt>
      <trkpt lat="33.77361" lon="77.58212">
        <ele>5170.8</ele>
        <time>2015-09-04T09:21:02Z</time>
      </trkpt>
      <trkpt lat="33.77356" lon="77.58209">
        <ele>5171.8</ele>
        <time>2015-09-04T09:21:14Z</time>
      </trkpt>
      <trkpt lat="33.77356" lon="77.58208">
        <ele>5172</ele>
        <time>2015-09-04T09:21:15Z</time>
      </trkpt>
      <trkpt lat="33.77355" lon="77.58206">
        <ele>5173</ele>
        <time>2015-09-04T09:21:26Z</time>
      </trkpt>
      <trkpt lat="33.7735" lon="77.58206">
        <ele>5174</ele>
        <time>2015-09-04T09:21:36Z</time>
      </trkpt>
      <trkpt lat="33.77346" lon="77.58198">
        <ele>5175</ele>
        <time>2015-09-04T09:21:56Z</time>
      </trkpt>
      <trkpt lat="33.77342" lon="77.58198">
        <ele>5176</ele>
        <time>2015-09-04T09:22:03Z</time>
      </trkpt>
      <trkpt lat="33.77338" lon="77.58192">
        <ele>5177.2</ele>
        <time>2015-09-04T09:22:19Z</time>
      </trkpt>
      <trkpt lat="33.77332" lon="77.58187">
        <ele>5178.2</ele>
        <time>2015-09-04T09:22:36Z</time>
      </trkpt>
      <trkpt lat="33.77332" lon="77.58178">
        <ele>5179.2</ele>
        <time>2015-09-04T09:22:49Z</time>
      </trkpt>
      <trkpt lat="33.77329" lon="77.58174">
        <ele>5180.4</ele>
        <time>2015-09-04T09:23:00Z</time>
      </trkpt>
      <trkpt lat="33.77325" lon="77.58173">
        <ele>5181.4</ele>
        <time>2015-09-04T09:23:10Z</time>
      </trkpt>
      <trkpt lat="33.77321" lon="77.58168">
        <ele>5182.4</ele>
        <time>2015-09-04T09:23:22Z</time>
      </trkpt>
      <trkpt lat="33.77321" lon="77.58167">
        <ele>5182.4</ele>
        <time>2015-09-04T09:23:23Z</time>
      </trkpt>
      <trkpt lat="33.77317" lon="77.58164">
        <ele>5183.4</ele>
        <time>2015-09-04T09:23:32Z</time>
      </trkpt>
      <trkpt lat="33.77313" lon="77.5816">
        <ele>5184.6</ele>
        <time>2015-09-04T09:23:46Z</time>
      </trkpt>
      <trkpt lat="33.77304" lon="77.5816">
        <ele>5185.6</ele>
        <time>2015-09-04T09:24:02Z</time>
      </trkpt>
      <trkpt lat="33.77303" lon="77.58157">
        <ele>5186.6</ele>
        <time>2015-09-04T09:24:13Z</time>
      </trkpt>
      <trkpt lat="33.77299" lon="77.58152">
        <ele>5187.6</ele>
        <time>2015-09-04T09:24:28Z</time>
      </trkpt>
      <trkpt lat="33.77292" lon="77.5815">
        <ele>5188.6</ele>
        <time>2015-09-04T09:24:41Z</time>
      </trkpt>
      <trkpt lat="33.77287" lon="77.58146">
        <ele>5189.6</ele>
        <time>2015-09-04T09:24:54Z</time>
      </trkpt>
      <trkpt lat="33.77283" lon="77.58143">
        <ele>5190.6</ele>
        <time>2015-09-04T09:25:05Z</time>
      </trkpt>
      <trkpt lat="33.77279" lon="77.58138">
        <ele>5191.8</ele>
        <time>2015-09-04T09:25:20Z</time>
      </trkpt>
      <trkpt lat="33.77278" lon="77.58132">
        <ele>5192.8</ele>
        <time>2015-09-04T09:25:37Z</time>
      </trkpt>
      <trkpt lat="33.77278" lon="77.58123">
        <ele>5193.8</ele>
        <time>2015-09-04T09:25:50Z</time>
      </trkpt>
      <trkpt lat="33.77276" lon="77.58118">
        <ele>5194.8</ele>
        <time>2015-09-04T09:26:03Z</time>
      </trkpt>
      <trkpt lat="33.77277" lon="77.58115">
        <ele>5195.8</ele>
        <time>2015-09-04T09:26:13Z</time>
      </trkpt>
      <trkpt lat="33.77277" lon="77.5811">
        <ele>5197</ele>
        <time>2015-09-04T09:26:24Z</time>
      </trkpt>
      <trkpt lat="33.77275" lon="77.58101">
        <ele>5198</ele>
        <time>2015-09-04T09:26:37Z</time>
      </trkpt>
      <trkpt lat="33.7727" lon="77.58102">
        <ele>5199</ele>
        <time>2015-09-04T09:26:46Z</time>
      </trkpt>
      <trkpt lat="33.7726" lon="77.58101">
        <ele>5200</ele>
        <time>2015-09-04T09:27:03Z</time>
      </trkpt>
      <trkpt lat="33.7726" lon="77.58101">
        <ele>5200.4</ele>
        <time>2015-09-04T09:27:05Z</time>
      </trkpt>
      <trkpt lat="33.77257" lon="77.581">
        <ele>5201.2</ele>
        <time>2015-09-04T09:27:14Z</time>
      </trkpt>
      <trkpt lat="33.77255" lon="77.58093">
        <ele>5202.2</ele>
        <time>2015-09-04T09:27:26Z</time>
      </trkpt>
      <trkpt lat="33.77249" lon="77.5809">
        <ele>5203.2</ele>
        <time>2015-09-04T09:27:41Z</time>
      </trkpt>
      <trkpt lat="33.77251" lon="77.58086">
        <ele>5204.2</ele>
        <time>2015-09-04T09:27:53Z</time>
      </trkpt>
      <trkpt lat="33.77247" lon="77.58084">
        <ele>5205.4</ele>
        <time>2015-09-04T09:28:00Z</time>
      </trkpt>
      <trkpt lat="33.77242" lon="77.58079">
        <ele>5206.4</ele>
        <time>2015-09-04T09:28:12Z</time>
      </trkpt>
      <trkpt lat="33.77231" lon="77.58075">
        <ele>5207.4</ele>
        <time>2015-09-04T09:28:34Z</time>
      </trkpt>
      <trkpt lat="33.77228" lon="77.58071">
        <ele>5208.6</ele>
        <time>2015-09-04T09:28:47Z</time>
      </trkpt>
      <trkpt lat="33.77223" lon="77.58071">
        <ele>5209.6</ele>
        <time>2015-09-04T09:29:00Z</time>
      </trkpt>
      <trkpt lat="33.77217" lon="77.58072">
        <ele>5210.6</ele>
        <time>2015-09-04T09:29:13Z</time>
      </trkpt>
      <trkpt lat="33.7721" lon="77.58074">
        <ele>5211.8</ele>
        <time>2015-09-04T09:29:25Z</time>
      </trkpt>
      <trkpt lat="33.77205" lon="77.58069">
        <ele>5212.8</ele>
        <time>2015-09-04T09:29:44Z</time>
      </trkpt>
      <trkpt lat="33.77191" lon="77.58054">
        <ele>5213.2</ele>
        <time>2015-09-04T09:29:49Z</time>
      </trkpt>
      <trkpt lat="33.77195" lon="77.58065">
        <ele>5213.4</ele>
        <time>2015-09-04T09:29:51Z</time>
      </trkpt>
      <trkpt lat="33.77197" lon="77.58065">
        <ele>5213.6</ele>
        <time>2015-09-04T09:29:54Z</time>
      </trkpt>
      <trkpt lat="33.77197" lon="77.58064">
        <ele>5213.8</ele>
        <time>2015-09-04T09:29:56Z</time>
      </trkpt>
      <trkpt lat="33.77199" lon="77.58064">
        <ele>5215</ele>
        <time>2015-09-04T09:30:05Z</time>
      </trkpt>
      <trkpt lat="33.77196" lon="77.58063">
        <ele>5216</ele>
        <time>2015-09-04T09:30:19Z</time>
      </trkpt>
      <trkpt lat="33.77185" lon="77.58067">
        <ele>5217</ele>
        <time>2015-09-04T09:30:33Z</time>
      </trkpt>
      <trkpt lat="33.77183" lon="77.58067">
        <ele>5217.8</ele>
        <time>2015-09-04T09:30:42Z</time>
      </trkpt>
      <trkpt lat="33.77182" lon="77.58066">
        <ele>5218</ele>
        <time>2015-09-04T09:30:45Z</time>
      </trkpt>
      <trkpt lat="33.77178" lon="77.58064">
        <ele>5219</ele>
        <time>2015-09-04T09:30:57Z</time>
      </trkpt>
      <trkpt lat="33.77177" lon="77.58058">
        <ele>5220</ele>
        <time>2015-09-04T09:31:09Z</time>
      </trkpt>
      <trkpt lat="33.77177" lon="77.58058">
        <ele>5220.2</ele>
        <time>2015-09-04T09:31:10Z</time>
      </trkpt>
      <trkpt lat="33.77178" lon="77.58058">
        <ele>5221.2</ele>
        <time>2015-09-04T09:31:16Z</time>
      </trkpt>
      <trkpt lat="33.77177" lon="77.58059">
        <ele>5222.2</ele>
        <time>2015-09-04T09:31:57Z</time>
      </trkpt>
      <trkpt lat="33.77167" lon="77.58054">
        <ele>5223.2</ele>
        <time>2015-09-04T09:33:38Z</time>
      </trkpt>
      <trkpt lat="33.77162" lon="77.58056">
        <ele>5224.4</ele>
        <time>2015-09-04T09:33:49Z</time>
      </trkpt>
      <trkpt lat="33.77155" lon="77.58057">
        <ele>5225.4</ele>
        <time>2015-09-04T09:34:06Z</time>
      </trkpt>
      <trkpt lat="33.77149" lon="77.58058">
        <ele>5226.4</ele>
        <time>2015-09-04T09:34:16Z</time>
      </trkpt>
      <trkpt lat="33.77146" lon="77.58058">
        <ele>5227.6</ele>
        <time>2015-09-04T09:34:27Z</time>
      </trkpt>
      <trkpt lat="33.77142" lon="77.58058">
        <ele>5228.6</ele>
        <time>2015-09-04T09:34:36Z</time>
      </trkpt>
      <trkpt lat="33.77138" lon="77.58059">
        <ele>5229.6</ele>
        <time>2015-09-04T09:34:49Z</time>
      </trkpt>
      <trkpt lat="33.77133" lon="77.58058">
        <ele>5230.6</ele>
        <time>2015-09-04T09:34:59Z</time>
      </trkpt>
      <trkpt lat="33.77132" lon="77.58059">
        <ele>5231.6</ele>
        <time>2015-09-04T09:35:13Z</time>
      </trkpt>
      <trkpt lat="33.7713" lon="77.58059">
        <ele>5232.8</ele>
        <time>2015-09-04T09:35:25Z</time>
      </trkpt>
      <trkpt lat="33.77128" lon="77.58062">
        <ele>5234</ele>
        <time>2015-09-04T09:35:33Z</time>
      </trkpt>
      <trkpt lat="33.77123" lon="77.58065">
        <ele>5235</ele>
        <time>2015-09-04T09:35:53Z</time>
      </trkpt>
      <trkpt lat="33.77121" lon="77.58066">
        <ele>5236</ele>
        <time>2015-09-04T09:36:02Z</time>
      </trkpt>
      <trkpt lat="33.77118" lon="77.58069">
        <ele>5237.2</ele>
        <time>2015-09-04T09:36:15Z</time>
      </trkpt>
      <trkpt lat="33.77114" lon="77.58076">
        <ele>5238.2</ele>
        <time>2015-09-04T09:36:33Z</time>
      </trkpt>
      <trkpt lat="33.7711" lon="77.5808">
        <ele>5239.4</ele>
        <time>2015-09-04T09:36:51Z</time>
      </trkpt>
      <trkpt lat="33.77107" lon="77.58081">
        <ele>5240.4</ele>
        <time>2015-09-04T09:36:56Z</time>
      </trkpt>
      <trkpt lat="33.77104" lon="77.58082">
        <ele>5241.4</ele>
        <time>2015-09-04T09:37:07Z</time>
      </trkpt>
      <trkpt lat="33.771" lon="77.58087">
        <ele>5242.4</ele>
        <time>2015-09-04T09:37:23Z</time>
      </trkpt>
      <trkpt lat="33.77098" lon="77.58091">
        <ele>5243.6</ele>
        <time>2015-09-04T09:37:36Z</time>
      </trkpt>
      <trkpt lat="33.77094" lon="77.5809">
        <ele>5244.6</ele>
        <time>2015-09-04T09:37:48Z</time>
      </trkpt>
      <trkpt lat="33.77092" lon="77.58089">
        <ele>5245.8</ele>
        <time>2015-09-04T09:37:56Z</time>
      </trkpt>
      <trkpt lat="33.77089" lon="77.58086">
        <ele>5246.8</ele>
        <time>2015-09-04T09:38:07Z</time>
      </trkpt>
      <trkpt lat="33.77088" lon="77.58085">
        <ele>5247.8</ele>
        <time>2015-09-04T09:38:19Z</time>
      </trkpt>
      <trkpt lat="33.77086" lon="77.58084">
        <ele>5249</ele>
        <time>2015-09-04T09:38:30Z</time>
      </trkpt>
      <trkpt lat="33.77081" lon="77.58087">
        <ele>5250</ele>
        <time>2015-09-04T09:38:44Z</time>
      </trkpt>
      <trkpt lat="33.77079" lon="77.58087">
        <ele>5251.2</ele>
        <time>2015-09-04T09:38:50Z</time>
      </trkpt>
      <trkpt lat="33.77076" lon="77.58087">
        <ele>5252.2</ele>
        <time>2015-09-04T09:39:02Z</time>
      </trkpt>
      <trkpt lat="33.77074" lon="77.58084">
        <ele>5253.2</ele>
        <time>2015-09-04T09:39:11Z</time>
      </trkpt>
      <trkpt lat="33.77069" lon="77.58082">
        <ele>5254.2</ele>
        <time>2015-09-04T09:39:23Z</time>
      </trkpt>
      <trkpt lat="33.77068" lon="77.58078">
        <ele>5255.4</ele>
        <time>2015-09-04T09:39:35Z</time>
      </trkpt>
      <trkpt lat="33.77066" lon="77.58074">
        <ele>5256.4</ele>
        <time>2015-09-04T09:39:47Z</time>
      </trkpt>
      <trkpt lat="33.77064" lon="77.58072">
        <ele>5257.4</ele>
        <time>2015-09-04T09:39:56Z</time>
      </trkpt>
      <trkpt lat="33.77061" lon="77.58067">
        <ele>5258.4</ele>
        <time>2015-09-04T09:40:10Z</time>
      </trkpt>
      <trkpt lat="33.77057" lon="77.58067">
        <ele>5259.4</ele>
        <time>2015-09-04T09:40:21Z</time>
      </trkpt>
      <trkpt lat="33.77054" lon="77.58067">
        <ele>5260.4</ele>
        <time>2015-09-04T09:40:32Z</time>
      </trkpt>
      <trkpt lat="33.7705" lon="77.58066">
        <ele>5261.6</ele>
        <time>2015-09-04T09:40:44Z</time>
      </trkpt>
      <trkpt lat="33.77048" lon="77.58063">
        <ele>5262.6</ele>
        <time>2015-09-04T09:40:54Z</time>
      </trkpt>
      <trkpt lat="33.77044" lon="77.5806">
        <ele>5263.6</ele>
        <time>2015-09-04T09:41:05Z</time>
      </trkpt>
      <trkpt lat="33.77042" lon="77.58055">
        <ele>5264.6</ele>
        <time>2015-09-04T09:41:16Z</time>
      </trkpt>
      <trkpt lat="33.77043" lon="77.58051">
        <ele>5265.8</ele>
        <time>2015-09-04T09:41:28Z</time>
      </trkpt>
      <trkpt lat="33.77041" lon="77.58045">
        <ele>5266.8</ele>
        <time>2015-09-04T09:41:38Z</time>
      </trkpt>
      <trkpt lat="33.7704" lon="77.58041">
        <ele>5267.8</ele>
        <time>2015-09-04T09:41:49Z</time>
      </trkpt>
      <trkpt lat="33.77036" lon="77.5804">
        <ele>5268.8</ele>
        <time>2015-09-04T09:42:01Z</time>
      </trkpt>
      <trkpt lat="33.7703" lon="77.58038">
        <ele>5270</ele>
        <time>2015-09-04T09:42:12Z</time>
      </trkpt>
      <trkpt lat="33.77026" lon="77.58033">
        <ele>5271</ele>
        <time>2015-09-04T09:42:25Z</time>
      </trkpt>
      <trkpt lat="33.77025" lon="77.58031">
        <ele>5272</ele>
        <time>2015-09-04T09:42:36Z</time>
      </trkpt>
      <trkpt lat="33.77022" lon="77.58025">
        <ele>5273</ele>
        <time>2015-09-04T09:42:49Z</time>
      </trkpt>
      <trkpt lat="33.77018" lon="77.5802">
        <ele>5274</ele>
        <time>2015-09-04T09:43:00Z</time>
      </trkpt>
      <trkpt lat="33.77019" lon="77.58016">
        <ele>5275</ele>
        <time>2015-09-04T09:43:11Z</time>
      </trkpt>
      <trkpt lat="33.77018" lon="77.5801">
        <ele>5276.2</ele>
        <time>2015-09-04T09:43:24Z</time>
      </trkpt>
      <trkpt lat="33.77015" lon="77.58005">
        <ele>5277.2</ele>
        <time>2015-09-04T09:43:37Z</time>
      </trkpt>
      <trkpt lat="33.77012" lon="77.58001">
        <ele>5278.2</ele>
        <time>2015-09-04T09:43:49Z</time>
      </trkpt>
      <trkpt lat="33.7701" lon="77.57997">
        <ele>5279.4</ele>
        <time>2015-09-04T09:43:57Z</time>
      </trkpt>
      <trkpt lat="33.77009" lon="77.57989">
        <ele>5280.6</ele>
        <time>2015-09-04T09:44:12Z</time>
      </trkpt>
      <trkpt lat="33.77006" lon="77.57984">
        <ele>5281.6</ele>
        <time>2015-09-04T09:44:24Z</time>
      </trkpt>
      <trkpt lat="33.77004" lon="77.5798">
        <ele>5282.6</ele>
        <time>2015-09-04T09:44:35Z</time>
      </trkpt>
      <trkpt lat="33.77" lon="77.57977">
        <ele>5283.8</ele>
        <time>2015-09-04T09:44:49Z</time>
      </trkpt>
      <trkpt lat="33.76996" lon="77.57973">
        <ele>5284.8</ele>
        <time>2015-09-04T09:45:01Z</time>
      </trkpt>
      <trkpt lat="33.7699" lon="77.57971">
        <ele>5285.8</ele>
        <time>2015-09-04T09:45:17Z</time>
      </trkpt>
      <trkpt lat="33.76987" lon="77.57967">
        <ele>5287</ele>
        <time>2015-09-04T09:45:26Z</time>
      </trkpt>
      <trkpt lat="33.76982" lon="77.57963">
        <ele>5288</ele>
        <time>2015-09-04T09:45:39Z</time>
      </trkpt>
      <trkpt lat="33.76978" lon="77.5796">
        <ele>5289</ele>
        <time>2015-09-04T09:45:49Z</time>
      </trkpt>
      <trkpt lat="33.76974" lon="77.57957">
        <ele>5290.2</ele>
        <time>2015-09-04T09:46:01Z</time>
      </trkpt>
      <trkpt lat="33.7697" lon="77.57956">
        <ele>5291.2</ele>
        <time>2015-09-04T09:46:12Z</time>
      </trkpt>
      <trkpt lat="33.76967" lon="77.57951">
        <ele>5292.4</ele>
        <time>2015-09-04T09:46:22Z</time>
      </trkpt>
      <trkpt lat="33.76965" lon="77.57946">
        <ele>5293.4</ele>
        <time>2015-09-04T09:46:31Z</time>
      </trkpt>
      <trkpt lat="33.76959" lon="77.57942">
        <ele>5294.4</ele>
        <time>2015-09-04T09:46:43Z</time>
      </trkpt>
      <trkpt lat="33.76959" lon="77.57938">
        <ele>5295.4</ele>
        <time>2015-09-04T09:46:54Z</time>
      </trkpt>
      <trkpt lat="33.76955" lon="77.57933">
        <ele>5296.6</ele>
        <time>2015-09-04T09:47:04Z</time>
      </trkpt>
      <trkpt lat="33.76952" lon="77.57931">
        <ele>5297.6</ele>
        <time>2015-09-04T09:47:12Z</time>
      </trkpt>
      <trkpt lat="33.76947" lon="77.57927">
        <ele>5298.6</ele>
        <time>2015-09-04T09:47:21Z</time>
      </trkpt>
      <trkpt lat="33.76943" lon="77.5792">
        <ele>5299.6</ele>
        <time>2015-09-04T09:47:33Z</time>
      </trkpt>
      <trkpt lat="33.76941" lon="77.57916">
        <ele>5300.6</ele>
        <time>2015-09-04T09:47:45Z</time>
      </trkpt>
      <trkpt lat="33.76936" lon="77.57908">
        <ele>5301.6</ele>
        <time>2015-09-04T09:48:04Z</time>
      </trkpt>
      <trkpt lat="33.76933" lon="77.57897">
        <ele>5302.6</ele>
        <time>2015-09-04T09:48:19Z</time>
      </trkpt>
      <trkpt lat="33.76927" lon="77.57887">
        <ele>5303.8</ele>
        <time>2015-09-04T09:48:34Z</time>
      </trkpt>
      <trkpt lat="33.76925" lon="77.57885">
        <ele>5303.8</ele>
        <time>2015-09-04T09:48:37Z</time>
      </trkpt>
      <trkpt lat="33.76924" lon="77.57884">
        <ele>5303.8</ele>
        <time>2015-09-04T09:48:39Z</time>
      </trkpt>
      <trkpt lat="33.76923" lon="77.57882">
        <ele>5304</ele>
        <time>2015-09-04T09:48:41Z</time>
      </trkpt>
      <trkpt lat="33.76915" lon="77.57866">
        <ele>5304.4</ele>
        <time>2015-09-04T09:49:12Z</time>
      </trkpt>
      <trkpt lat="33.76918" lon="77.57868">
        <ele>5304.2</ele>
        <time>2015-09-04T09:49:14Z</time>
      </trkpt>
      <trkpt lat="33.76918" lon="77.57869">
        <ele>5304.2</ele>
        <time>2015-09-04T09:49:16Z</time>
      </trkpt>
      <trkpt lat="33.76921" lon="77.57871">
        <ele>5304.2</ele>
        <time>2015-09-04T09:49:18Z</time>
      </trkpt>
      <trkpt lat="33.76923" lon="77.57872">
        <ele>5304.4</ele>
        <time>2015-09-04T09:49:21Z</time>
      </trkpt>
      <trkpt lat="33.76923" lon="77.57874">
        <ele>5304.8</ele>
        <time>2015-09-04T09:49:26Z</time>
      </trkpt>
      <trkpt lat="33.76924" lon="77.57875">
        <ele>5305.4</ele>
        <time>2015-09-04T09:50:56Z</time>
      </trkpt>
      <trkpt lat="33.76925" lon="77.57876">
        <ele>5305.6</ele>
        <time>2015-09-04T09:50:58Z</time>
      </trkpt>
      <trkpt lat="33.76921" lon="77.57872">
        <ele>5305.2</ele>
        <time>2015-09-04T09:51:05Z</time>
      </trkpt>
      <trkpt lat="33.7692" lon="77.57871">
        <ele>5305.4</ele>
        <time>2015-09-04T09:51:07Z</time>
      </trkpt>
      <trkpt lat="33.7692" lon="77.5787">
        <ele>5305.8</ele>
        <time>2015-09-04T09:51:23Z</time>
      </trkpt>
      <trkpt lat="33.76922" lon="77.57876">
        <ele>5306.4</ele>
        <time>2015-09-04T09:54:44Z</time>
      </trkpt>
      <trkpt lat="33.76922" lon="77.57874">
        <ele>5306.8</ele>
        <time>2015-09-04T09:54:46Z</time>
      </trkpt>
      <trkpt lat="33.7692" lon="77.57869">
        <ele>5305.8</ele>
        <time>2015-09-04T09:54:59Z</time>
      </trkpt>
      <trkpt lat="33.76924" lon="77.5787">
        <ele>5306.8</ele>
        <time>2015-09-04T09:55:40Z</time>
      </trkpt>
      <trkpt lat="33.76929" lon="77.57888">
        <ele>5306</ele>
        <time>2015-09-04T09:56:44Z</time>
      </trkpt>
      <trkpt lat="33.76933" lon="77.57891">
        <ele>5305.8</ele>
        <time>2015-09-04T09:56:49Z</time>
      </trkpt>
      <trkpt lat="33.76935" lon="77.57909">
        <ele>5304.8</ele>
        <time>2015-09-04T09:57:23Z</time>
      </trkpt>
      <trkpt lat="33.76938" lon="77.57915">
        <ele>5304.2</ele>
        <time>2015-09-04T09:57:32Z</time>
      </trkpt>
      <trkpt lat="33.76941" lon="77.57918">
        <ele>5303.8</ele>
        <time>2015-09-04T09:57:36Z</time>
      </trkpt>
      <trkpt lat="33.76945" lon="77.57922">
        <ele>5303.4</ele>
        <time>2015-09-04T09:57:43Z</time>
      </trkpt>
      <trkpt lat="33.76948" lon="77.57927">
        <ele>5302.6</ele>
        <time>2015-09-04T09:57:51Z</time>
      </trkpt>
      <trkpt lat="33.76953" lon="77.5793">
        <ele>5301.6</ele>
        <time>2015-09-04T09:57:59Z</time>
      </trkpt>
      <trkpt lat="33.76957" lon="77.57935">
        <ele>5300.6</ele>
        <time>2015-09-04T09:58:09Z</time>
      </trkpt>
      <trkpt lat="33.76961" lon="77.57939">
        <ele>5299.4</ele>
        <time>2015-09-04T09:58:17Z</time>
      </trkpt>
      <trkpt lat="33.76963" lon="77.57941">
        <ele>5298.4</ele>
        <time>2015-09-04T09:58:33Z</time>
      </trkpt>
      <trkpt lat="33.76965" lon="77.57947">
        <ele>5297.2</ele>
        <time>2015-09-04T09:58:42Z</time>
      </trkpt>
      <trkpt lat="33.76967" lon="77.57952">
        <ele>5296</ele>
        <time>2015-09-04T09:58:50Z</time>
      </trkpt>
      <trkpt lat="33.76974" lon="77.57958">
        <ele>5295</ele>
        <time>2015-09-04T09:59:09Z</time>
      </trkpt>
      <trkpt lat="33.76975" lon="77.57961">
        <ele>5293.8</ele>
        <time>2015-09-04T09:59:16Z</time>
      </trkpt>
      <trkpt lat="33.76981" lon="77.57962">
        <ele>5292.8</ele>
        <time>2015-09-04T09:59:24Z</time>
      </trkpt>
      <trkpt lat="33.76986" lon="77.57964">
        <ele>5291.6</ele>
        <time>2015-09-04T09:59:31Z</time>
      </trkpt>
      <trkpt lat="33.76992" lon="77.57966">
        <ele>5290.4</ele>
        <time>2015-09-04T09:59:38Z</time>
      </trkpt>
      <trkpt lat="33.76994" lon="77.57968">
        <ele>5289.4</ele>
        <time>2015-09-04T09:59:44Z</time>
      </trkpt>
      <trkpt lat="33.77001" lon="77.57973">
        <ele>5288.2</ele>
        <time>2015-09-04T09:59:54Z</time>
      </trkpt>
      <trkpt lat="33.77005" lon="77.57975">
        <ele>5287.2</ele>
        <time>2015-09-04T10:00:01Z</time>
      </trkpt>
      <trkpt lat="33.77009" lon="77.57979">
        <ele>5286</ele>
        <time>2015-09-04T10:00:13Z</time>
      </trkpt>
      <trkpt lat="33.77011" lon="77.57987">
        <ele>5285.2</ele>
        <time>2015-09-04T10:00:42Z</time>
      </trkpt>
      <trkpt lat="33.77012" lon="77.57988">
        <ele>5285</ele>
        <time>2015-09-04T10:00:43Z</time>
      </trkpt>
      <trkpt lat="33.77015" lon="77.5799">
        <ele>5284.2</ele>
        <time>2015-09-04T10:00:47Z</time>
      </trkpt>
      <trkpt lat="33.77016" lon="77.57992">
        <ele>5284</ele>
        <time>2015-09-04T10:00:49Z</time>
      </trkpt>
      <trkpt lat="33.77018" lon="77.57994">
        <ele>5283.8</ele>
        <time>2015-09-04T10:00:52Z</time>
      </trkpt>
      <trkpt lat="33.77021" lon="77.57996">
        <ele>5282.8</ele>
        <time>2015-09-04T10:00:57Z</time>
      </trkpt>
      <trkpt lat="33.77024" lon="77.57999">
        <ele>5282.6</ele>
        <time>2015-09-04T10:01:01Z</time>
      </trkpt>
      <trkpt lat="33.77026" lon="77.58">
        <ele>5282.2</ele>
        <time>2015-09-04T10:01:03Z</time>
      </trkpt>
      <trkpt lat="33.77026" lon="77.58001">
        <ele>5281.6</ele>
        <time>2015-09-04T10:01:05Z</time>
      </trkpt>
      <trkpt lat="33.77029" lon="77.58004">
        <ele>5280.4</ele>
        <time>2015-09-04T10:01:13Z</time>
      </trkpt>
      <trkpt lat="33.77027" lon="77.58009">
        <ele>5280.2</ele>
        <time>2015-09-04T10:01:20Z</time>
      </trkpt>
      <trkpt lat="33.77032" lon="77.58013">
        <ele>5279.4</ele>
        <time>2015-09-04T10:01:29Z</time>
      </trkpt>
      <trkpt lat="33.77033" lon="77.58017">
        <ele>5278.6</ele>
        <time>2015-09-04T10:01:34Z</time>
      </trkpt>
      <trkpt lat="33.77033" lon="77.58018">
        <ele>5278.4</ele>
        <time>2015-09-04T10:01:36Z</time>
      </trkpt>
      <trkpt lat="33.7703" lon="77.58021">
        <ele>5277.8</ele>
        <time>2015-09-04T10:01:41Z</time>
      </trkpt>
      <trkpt lat="33.77033" lon="77.58023">
        <ele>5277.2</ele>
        <time>2015-09-04T10:01:45Z</time>
      </trkpt>
      <trkpt lat="33.77036" lon="77.58026">
        <ele>5276</ele>
        <time>2015-09-04T10:01:52Z</time>
      </trkpt>
      <trkpt lat="33.77038" lon="77.58028">
        <ele>5275</ele>
        <time>2015-09-04T10:01:59Z</time>
      </trkpt>
      <trkpt lat="33.77042" lon="77.58029">
        <ele>5273.8</ele>
        <time>2015-09-04T10:02:05Z</time>
      </trkpt>
      <trkpt lat="33.77042" lon="77.58033">
        <ele>5272.8</ele>
        <time>2015-09-04T10:02:10Z</time>
      </trkpt>
      <trkpt lat="33.77043" lon="77.58044">
        <ele>5271.8</ele>
        <time>2015-09-04T10:02:26Z</time>
      </trkpt>
      <trkpt lat="33.77044" lon="77.58048">
        <ele>5270.6</ele>
        <time>2015-09-04T10:02:32Z</time>
      </trkpt>
      <trkpt lat="33.77048" lon="77.58054">
        <ele>5269.6</ele>
        <time>2015-09-04T10:02:41Z</time>
      </trkpt>
      <trkpt lat="33.77055" lon="77.58053">
        <ele>5268.6</ele>
        <time>2015-09-04T10:02:51Z</time>
      </trkpt>
      <trkpt lat="33.77057" lon="77.58051">
        <ele>5267.4</ele>
        <time>2015-09-04T10:02:55Z</time>
      </trkpt>
      <trkpt lat="33.77059" lon="77.58049">
        <ele>5266.2</ele>
        <time>2015-09-04T10:03:01Z</time>
      </trkpt>
      <trkpt lat="33.77065" lon="77.58051">
        <ele>5265.2</ele>
        <time>2015-09-04T10:03:11Z</time>
      </trkpt>
      <trkpt lat="33.77067" lon="77.5805">
        <ele>5264</ele>
        <time>2015-09-04T10:03:16Z</time>
      </trkpt>
      <trkpt lat="33.77071" lon="77.58053">
        <ele>5262.8</ele>
        <time>2015-09-04T10:03:23Z</time>
      </trkpt>
      <trkpt lat="33.77078" lon="77.58053">
        <ele>5261.6</ele>
        <time>2015-09-04T10:03:36Z</time>
      </trkpt>
      <trkpt lat="33.77081" lon="77.58051">
        <ele>5260.6</ele>
        <time>2015-09-04T10:03:41Z</time>
      </trkpt>
      <trkpt lat="33.77084" lon="77.58051">
        <ele>5259.4</ele>
        <time>2015-09-04T10:03:45Z</time>
      </trkpt>
      <trkpt lat="33.77086" lon="77.5805">
        <ele>5258.4</ele>
        <time>2015-09-04T10:03:52Z</time>
      </trkpt>
      <trkpt lat="33.77089" lon="77.58051">
        <ele>5257.2</ele>
        <time>2015-09-04T10:04:06Z</time>
      </trkpt>
      <trkpt lat="33.77093" lon="77.58052">
        <ele>5256</ele>
        <time>2015-09-04T10:04:12Z</time>
      </trkpt>
      <trkpt lat="33.77096" lon="77.58053">
        <ele>5254.8</ele>
        <time>2015-09-04T10:04:19Z</time>
      </trkpt>
      <trkpt lat="33.77099" lon="77.58055">
        <ele>5253.8</ele>
        <time>2015-09-04T10:04:26Z</time>
      </trkpt>
      <trkpt lat="33.771" lon="77.58059">
        <ele>5252.8</ele>
        <time>2015-09-04T10:04:31Z</time>
      </trkpt>
      <trkpt lat="33.77102" lon="77.58059">
        <ele>5251.6</ele>
        <time>2015-09-04T10:04:36Z</time>
      </trkpt>
      <trkpt lat="33.77103" lon="77.58061">
        <ele>5250.6</ele>
        <time>2015-09-04T10:04:41Z</time>
      </trkpt>
      <trkpt lat="33.77103" lon="77.58067">
        <ele>5249.4</ele>
        <time>2015-09-04T10:04:49Z</time>
      </trkpt>
      <trkpt lat="33.77103" lon="77.58071">
        <ele>5248.4</ele>
        <time>2015-09-04T10:04:56Z</time>
      </trkpt>
      <trkpt lat="33.7711" lon="77.58073">
        <ele>5247.2</ele>
        <time>2015-09-04T10:05:02Z</time>
      </trkpt>
      <trkpt lat="33.77111" lon="77.58073">
        <ele>5246.2</ele>
        <time>2015-09-04T10:05:09Z</time>
      </trkpt>
      <trkpt lat="33.77115" lon="77.58075">
        <ele>5245</ele>
        <time>2015-09-04T10:05:17Z</time>
      </trkpt>
      <trkpt lat="33.77117" lon="77.58074">
        <ele>5244</ele>
        <time>2015-09-04T10:05:21Z</time>
      </trkpt>
      <trkpt lat="33.7712" lon="77.58072">
        <ele>5243</ele>
        <time>2015-09-04T10:05:31Z</time>
      </trkpt>
      <trkpt lat="33.77123" lon="77.5807">
        <ele>5242</ele>
        <time>2015-09-04T10:05:37Z</time>
      </trkpt>
      <trkpt lat="33.77126" lon="77.58067">
        <ele>5240.8</ele>
        <time>2015-09-04T10:05:45Z</time>
      </trkpt>
      <trkpt lat="33.77129" lon="77.58065">
        <ele>5239.8</ele>
        <time>2015-09-04T10:05:51Z</time>
      </trkpt>
      <trkpt lat="33.77133" lon="77.58065">
        <ele>5238.8</ele>
        <time>2015-09-04T10:05:58Z</time>
      </trkpt>
      <trkpt lat="33.77136" lon="77.58068">
        <ele>5237.6</ele>
        <time>2015-09-04T10:06:08Z</time>
      </trkpt>
      <trkpt lat="33.77141" lon="77.58068">
        <ele>5236.6</ele>
        <time>2015-09-04T10:06:15Z</time>
      </trkpt>
      <trkpt lat="33.77142" lon="77.58068">
        <ele>5236.2</ele>
        <time>2015-09-04T10:06:17Z</time>
      </trkpt>
      <trkpt lat="33.77145" lon="77.58072">
        <ele>5235.4</ele>
        <time>2015-09-04T10:06:23Z</time>
      </trkpt>
      <trkpt lat="33.7715" lon="77.58072">
        <ele>5234.4</ele>
        <time>2015-09-04T10:06:30Z</time>
      </trkpt>
      <trkpt lat="33.77153" lon="77.58074">
        <ele>5233.4</ele>
        <time>2015-09-04T10:06:37Z</time>
      </trkpt>
      <trkpt lat="33.77156" lon="77.58076">
        <ele>5232.2</ele>
        <time>2015-09-04T10:06:43Z</time>
      </trkpt>
      <trkpt lat="33.77161" lon="77.58077">
        <ele>5231.4</ele>
        <time>2015-09-04T10:06:50Z</time>
      </trkpt>
      <trkpt lat="33.77162" lon="77.58077">
        <ele>5231.2</ele>
        <time>2015-09-04T10:06:52Z</time>
      </trkpt>
      <trkpt lat="33.77166" lon="77.58077">
        <ele>5230</ele>
        <time>2015-09-04T10:06:56Z</time>
      </trkpt>
      <trkpt lat="33.77171" lon="77.58077">
        <ele>5229</ele>
        <time>2015-09-04T10:07:04Z</time>
      </trkpt>
      <trkpt lat="33.77173" lon="77.58081">
        <ele>5228</ele>
        <time>2015-09-04T10:07:12Z</time>
      </trkpt>
      <trkpt lat="33.77178" lon="77.58081">
        <ele>5226.8</ele>
        <time>2015-09-04T10:07:21Z</time>
      </trkpt>
      <trkpt lat="33.77183" lon="77.58084">
        <ele>5225.8</ele>
        <time>2015-09-04T10:07:30Z</time>
      </trkpt>
      <trkpt lat="33.77183" lon="77.5809">
        <ele>5224.8</ele>
        <time>2015-09-04T10:07:36Z</time>
      </trkpt>
      <trkpt lat="33.77193" lon="77.58095">
        <ele>5223.6</ele>
        <time>2015-09-04T10:07:45Z</time>
      </trkpt>
      <trkpt lat="33.77196" lon="77.58097">
        <ele>5222.6</ele>
        <time>2015-09-04T10:07:54Z</time>
      </trkpt>
      <trkpt lat="33.77198" lon="77.58099">
        <ele>5222.2</ele>
        <time>2015-09-04T10:07:58Z</time>
      </trkpt>
      <trkpt lat="33.772" lon="77.58101">
        <ele>5221.4</ele>
        <time>2015-09-04T10:08:03Z</time>
      </trkpt>
      <trkpt lat="33.77203" lon="77.58104">
        <ele>5220.4</ele>
        <time>2015-09-04T10:08:11Z</time>
      </trkpt>
      <trkpt lat="33.77204" lon="77.58108">
        <ele>5219.4</ele>
        <time>2015-09-04T10:08:16Z</time>
      </trkpt>
      <trkpt lat="33.77209" lon="77.5811">
        <ele>5218.4</ele>
        <time>2015-09-04T10:08:23Z</time>
      </trkpt>
      <trkpt lat="33.77213" lon="77.58113">
        <ele>5217.2</ele>
        <time>2015-09-04T10:08:31Z</time>
      </trkpt>
      <trkpt lat="33.77216" lon="77.58115">
        <ele>5216</ele>
        <time>2015-09-04T10:08:38Z</time>
      </trkpt>
      <trkpt lat="33.77225" lon="77.58115">
        <ele>5215.2</ele>
        <time>2015-09-04T10:08:47Z</time>
      </trkpt>
      <trkpt lat="33.77226" lon="77.58116">
        <ele>5215</ele>
        <time>2015-09-04T10:08:48Z</time>
      </trkpt>
      <trkpt lat="33.77229" lon="77.58116">
        <ele>5214.4</ele>
        <time>2015-09-04T10:08:51Z</time>
      </trkpt>
      <trkpt lat="33.77232" lon="77.58117">
        <ele>5213.8</ele>
        <time>2015-09-04T10:08:54Z</time>
      </trkpt>
      <trkpt lat="33.77232" lon="77.58117">
        <ele>5213.6</ele>
        <time>2015-09-04T10:08:55Z</time>
      </trkpt>
      <trkpt lat="33.77235" lon="77.5812">
        <ele>5212.8</ele>
        <time>2015-09-04T10:09:01Z</time>
      </trkpt>
      <trkpt lat="33.77239" lon="77.58121">
        <ele>5211.8</ele>
        <time>2015-09-04T10:09:07Z</time>
      </trkpt>
      <trkpt lat="33.77243" lon="77.58125">
        <ele>5210.6</ele>
        <time>2015-09-04T10:09:13Z</time>
      </trkpt>
      <trkpt lat="33.77245" lon="77.58129">
        <ele>5209.6</ele>
        <time>2015-09-04T10:09:19Z</time>
      </trkpt>
      <trkpt lat="33.77253" lon="77.58132">
        <ele>5208.6</ele>
        <time>2015-09-04T10:09:26Z</time>
      </trkpt>
      <trkpt lat="33.77257" lon="77.58132">
        <ele>5207.8</ele>
        <time>2015-09-04T10:09:31Z</time>
      </trkpt>
      <trkpt lat="33.77259" lon="77.58133">
        <ele>5207.6</ele>
        <time>2015-09-04T10:09:34Z</time>
      </trkpt>
      <trkpt lat="33.77262" lon="77.58131">
        <ele>5206.6</ele>
        <time>2015-09-04T10:09:41Z</time>
      </trkpt>
      <trkpt lat="33.77264" lon="77.58131">
        <ele>5205.6</ele>
        <time>2015-09-04T10:09:45Z</time>
      </trkpt>
      <trkpt lat="33.77269" lon="77.58132">
        <ele>5204.6</ele>
        <time>2015-09-04T10:09:52Z</time>
      </trkpt>
      <trkpt lat="33.77276" lon="77.58135">
        <ele>5203.4</ele>
        <time>2015-09-04T10:10:00Z</time>
      </trkpt>
      <trkpt lat="33.77279" lon="77.58137">
        <ele>5202.8</ele>
        <time>2015-09-04T10:10:04Z</time>
      </trkpt>
      <trkpt lat="33.77281" lon="77.58138">
        <ele>5202.4</ele>
        <time>2015-09-04T10:10:07Z</time>
      </trkpt>
      <trkpt lat="33.77287" lon="77.5814">
        <ele>5201.2</ele>
        <time>2015-09-04T10:10:15Z</time>
      </trkpt>
      <trkpt lat="33.77292" lon="77.58142">
        <ele>5200.2</ele>
        <time>2015-09-04T10:10:22Z</time>
      </trkpt>
      <trkpt lat="33.77296" lon="77.58146">
        <ele>5199.2</ele>
        <time>2015-09-04T10:10:28Z</time>
      </trkpt>
      <trkpt lat="33.77298" lon="77.58151">
        <ele>5198</ele>
        <time>2015-09-04T10:10:36Z</time>
      </trkpt>
      <trkpt lat="33.77302" lon="77.58153">
        <ele>5197.2</ele>
        <time>2015-09-04T10:10:40Z</time>
      </trkpt>
      <trkpt lat="33.77304" lon="77.58153">
        <ele>5197</ele>
        <time>2015-09-04T10:10:42Z</time>
      </trkpt>
      <trkpt lat="33.77314" lon="77.58152">
        <ele>5196</ele>
        <time>2015-09-04T10:10:51Z</time>
      </trkpt>
      <trkpt lat="33.77321" lon="77.58152">
        <ele>5194.8</ele>
        <time>2015-09-04T10:11:00Z</time>
      </trkpt>
      <trkpt lat="33.77324" lon="77.58156">
        <ele>5193.8</ele>
        <time>2015-09-04T10:11:05Z</time>
      </trkpt>
      <trkpt lat="33.77325" lon="77.58157">
        <ele>5193.6</ele>
        <time>2015-09-04T10:11:06Z</time>
      </trkpt>
      <trkpt lat="33.77327" lon="77.58159">
        <ele>5193.4</ele>
        <time>2015-09-04T10:11:08Z</time>
      </trkpt>
      <trkpt lat="33.77333" lon="77.58159">
        <ele>5192.6</ele>
        <time>2015-09-04T10:11:16Z</time>
      </trkpt>
      <trkpt lat="33.77339" lon="77.5816">
        <ele>5191.4</ele>
        <time>2015-09-04T10:11:24Z</time>
      </trkpt>
      <trkpt lat="33.77346" lon="77.58162">
        <ele>5190.2</ele>
        <time>2015-09-04T10:11:32Z</time>
      </trkpt>
      <trkpt lat="33.7735" lon="77.58166">
        <ele>5189.2</ele>
        <time>2015-09-04T10:11:37Z</time>
      </trkpt>
      <trkpt lat="33.77353" lon="77.58171">
        <ele>5188.2</ele>
        <time>2015-09-04T10:11:45Z</time>
      </trkpt>
      <trkpt lat="33.77357" lon="77.58175">
        <ele>5187</ele>
        <time>2015-09-04T10:11:53Z</time>
      </trkpt>
      <trkpt lat="33.77361" lon="77.58175">
        <ele>5186</ele>
        <time>2015-09-04T10:12:00Z</time>
      </trkpt>
      <trkpt lat="33.77367" lon="77.58178">
        <ele>5184.8</ele>
        <time>2015-09-04T10:12:11Z</time>
      </trkpt>
      <trkpt lat="33.7737" lon="77.58181">
        <ele>5184.6</ele>
        <time>2015-09-04T10:12:14Z</time>
      </trkpt>
      <trkpt lat="33.77371" lon="77.58184">
        <ele>5184</ele>
        <time>2015-09-04T10:12:17Z</time>
      </trkpt>
      <trkpt lat="33.77372" lon="77.58185">
        <ele>5183.8</ele>
        <time>2015-09-04T10:12:19Z</time>
      </trkpt>
      <trkpt lat="33.77379" lon="77.58187">
        <ele>5183</ele>
        <time>2015-09-04T10:12:25Z</time>
      </trkpt>
      <trkpt lat="33.7738" lon="77.58187">
        <ele>5182.8</ele>
        <time>2015-09-04T10:12:26Z</time>
      </trkpt>
      <trkpt lat="33.77387" lon="77.58189">
        <ele>5181.6</ele>
        <time>2015-09-04T10:12:35Z</time>
      </trkpt>
      <trkpt lat="33.77391" lon="77.58192">
        <ele>5180.6</ele>
        <time>2015-09-04T10:12:45Z</time>
      </trkpt>
      <trkpt lat="33.77396" lon="77.58195">
        <ele>5179.8</ele>
        <time>2015-09-04T10:12:53Z</time>
      </trkpt>
      <trkpt lat="33.77396" lon="77.58197">
        <ele>5179.4</ele>
        <time>2015-09-04T10:12:55Z</time>
      </trkpt>
      <trkpt lat="33.774" lon="77.58198">
        <ele>5178.6</ele>
        <time>2015-09-04T10:13:00Z</time>
      </trkpt>
      <trkpt lat="33.774" lon="77.582">
        <ele>5178.4</ele>
        <time>2015-09-04T10:13:02Z</time>
      </trkpt>
      <trkpt lat="33.77401" lon="77.58201">
        <ele>5178.4</ele>
        <time>2015-09-04T10:13:03Z</time>
      </trkpt>
      <trkpt lat="33.77405" lon="77.58205">
        <ele>5177.4</ele>
        <time>2015-09-04T10:13:10Z</time>
      </trkpt>
      <trkpt lat="33.77407" lon="77.58206">
        <ele>5176.2</ele>
        <time>2015-09-04T10:13:16Z</time>
      </trkpt>
      <trkpt lat="33.77415" lon="77.58209">
        <ele>5175.2</ele>
        <time>2015-09-04T10:13:27Z</time>
      </trkpt>
      <trkpt lat="33.77419" lon="77.58211">
        <ele>5174.8</ele>
        <time>2015-09-04T10:13:30Z</time>
      </trkpt>
      <trkpt lat="33.77422" lon="77.58211">
        <ele>5174.4</ele>
        <time>2015-09-04T10:13:33Z</time>
      </trkpt>
      <trkpt lat="33.77424" lon="77.5821">
        <ele>5174.2</ele>
        <time>2015-09-04T10:13:35Z</time>
      </trkpt>
      <trkpt lat="33.7743" lon="77.58211">
        <ele>5173.2</ele>
        <time>2015-09-04T10:13:49Z</time>
      </trkpt>
      <trkpt lat="33.77435" lon="77.58216">
        <ele>5172</ele>
        <time>2015-09-04T10:13:57Z</time>
      </trkpt>
      <trkpt lat="33.77439" lon="77.58217">
        <ele>5171</ele>
        <time>2015-09-04T10:14:07Z</time>
      </trkpt>
      <trkpt lat="33.77443" lon="77.58222">
        <ele>5169.6</ele>
        <time>2015-09-04T10:14:19Z</time>
      </trkpt>
      <trkpt lat="33.77448" lon="77.58225">
        <ele>5168.6</ele>
        <time>2015-09-04T10:14:29Z</time>
      </trkpt>
      <trkpt lat="33.77453" lon="77.58231">
        <ele>5167.4</ele>
        <time>2015-09-04T10:14:40Z</time>
      </trkpt>
      <trkpt lat="33.77455" lon="77.58234">
        <ele>5166.6</ele>
        <time>2015-09-04T10:14:44Z</time>
      </trkpt>
      <trkpt lat="33.77456" lon="77.58235">
        <ele>5166.4</ele>
        <time>2015-09-04T10:14:46Z</time>
      </trkpt>
      <trkpt lat="33.77459" lon="77.58236">
        <ele>5165.4</ele>
        <time>2015-09-04T10:14:52Z</time>
      </trkpt>
      <trkpt lat="33.77464" lon="77.58238">
        <ele>5164.4</ele>
        <time>2015-09-04T10:15:00Z</time>
      </trkpt>
      <trkpt lat="33.77471" lon="77.5824">
        <ele>5163.2</ele>
        <time>2015-09-04T10:15:10Z</time>
      </trkpt>
      <trkpt lat="33.77475" lon="77.58243">
        <ele>5162.2</ele>
        <time>2015-09-04T10:15:17Z</time>
      </trkpt>
      <trkpt lat="33.77478" lon="77.58245">
        <ele>5161</ele>
        <time>2015-09-04T10:15:23Z</time>
      </trkpt>
      <trkpt lat="33.7748" lon="77.58246">
        <ele>5160.8</ele>
        <time>2015-09-04T10:15:25Z</time>
      </trkpt>
      <trkpt lat="33.77482" lon="77.58247">
        <ele>5160.6</ele>
        <time>2015-09-04T10:15:28Z</time>
      </trkpt>
      <trkpt lat="33.77485" lon="77.58251">
        <ele>5159.8</ele>
        <time>2015-09-04T10:15:34Z</time>
      </trkpt>
      <trkpt lat="33.77491" lon="77.58255">
        <ele>5159</ele>
        <time>2015-09-04T10:15:41Z</time>
      </trkpt>
      <trkpt lat="33.77493" lon="77.58256">
        <ele>5158.6</ele>
        <time>2015-09-04T10:15:43Z</time>
      </trkpt>
      <trkpt lat="33.775" lon="77.58259">
        <ele>5157.6</ele>
        <time>2015-09-04T10:15:50Z</time>
      </trkpt>
      <trkpt lat="33.77502" lon="77.5826">
        <ele>5157.2</ele>
        <time>2015-09-04T10:15:52Z</time>
      </trkpt>
      <trkpt lat="33.77503" lon="77.58261">
        <ele>5157</ele>
        <time>2015-09-04T10:15:55Z</time>
      </trkpt>
      <trkpt lat="33.77506" lon="77.58264">
        <ele>5156.4</ele>
        <time>2015-09-04T10:16:00Z</time>
      </trkpt>
      <trkpt lat="33.77512" lon="77.58266">
        <ele>5155.4</ele>
        <time>2015-09-04T10:16:10Z</time>
      </trkpt>
      <trkpt lat="33.77514" lon="77.58267">
        <ele>5154.8</ele>
        <time>2015-09-04T10:16:12Z</time>
      </trkpt>
      <trkpt lat="33.77515" lon="77.58268">
        <ele>5154.4</ele>
        <time>2015-09-04T10:16:14Z</time>
      </trkpt>
      <trkpt lat="33.77518" lon="77.58268">
        <ele>5153.2</ele>
        <time>2015-09-04T10:16:18Z</time>
      </trkpt>
      <trkpt lat="33.77523" lon="77.58269">
        <ele>5152.4</ele>
        <time>2015-09-04T10:16:24Z</time>
      </trkpt>
      <trkpt lat="33.77525" lon="77.58269">
        <ele>5152.2</ele>
        <time>2015-09-04T10:16:26Z</time>
      </trkpt>
      <trkpt lat="33.77529" lon="77.58273">
        <ele>5151.4</ele>
        <time>2015-09-04T10:16:32Z</time>
      </trkpt>
      <trkpt lat="33.77535" lon="77.58276">
        <ele>5151.2</ele>
        <time>2015-09-04T10:16:39Z</time>
      </trkpt>
      <trkpt lat="33.77536" lon="77.58277">
        <ele>5150.8</ele>
        <time>2015-09-04T10:16:41Z</time>
      </trkpt>
      <trkpt lat="33.77541" lon="77.5828">
        <ele>5150.2</ele>
        <time>2015-09-04T10:16:46Z</time>
      </trkpt>
      <trkpt lat="33.77546" lon="77.58279">
        <ele>5149</ele>
        <time>2015-09-04T10:16:52Z</time>
      </trkpt>
      <trkpt lat="33.7755" lon="77.58282">
        <ele>5148</ele>
        <time>2015-09-04T10:17:00Z</time>
      </trkpt>
      <trkpt lat="33.77553" lon="77.58284">
        <ele>5147</ele>
        <time>2015-09-04T10:17:06Z</time>
      </trkpt>
      <trkpt lat="33.77554" lon="77.58287">
        <ele>5146.8</ele>
        <time>2015-09-04T10:17:08Z</time>
      </trkpt>
      <trkpt lat="33.77556" lon="77.5829">
        <ele>5146.6</ele>
        <time>2015-09-04T10:17:12Z</time>
      </trkpt>
      <trkpt lat="33.77562" lon="77.58292">
        <ele>5146</ele>
        <time>2015-09-04T10:17:20Z</time>
      </trkpt>
      <trkpt lat="33.77566" lon="77.58293">
        <ele>5145</ele>
        <time>2015-09-04T10:17:26Z</time>
      </trkpt>
      <trkpt lat="33.77574" lon="77.58303">
        <ele>5143.8</ele>
        <time>2015-09-04T10:17:46Z</time>
      </trkpt>
      <trkpt lat="33.77578" lon="77.58306">
        <ele>5143</ele>
        <time>2015-09-04T10:17:52Z</time>
      </trkpt>
      <trkpt lat="33.7758" lon="77.58307">
        <ele>5142.8</ele>
        <time>2015-09-04T10:17:54Z</time>
      </trkpt>
      <trkpt lat="33.77584" lon="77.58309">
        <ele>5142</ele>
        <time>2015-09-04T10:17:59Z</time>
      </trkpt>
      <trkpt lat="33.77584" lon="77.5831">
        <ele>5141.8</ele>
        <time>2015-09-04T10:18:02Z</time>
      </trkpt>
      <trkpt lat="33.77591" lon="77.58308">
        <ele>5140.6</ele>
        <time>2015-09-04T10:18:12Z</time>
      </trkpt>
      <trkpt lat="33.77597" lon="77.58309">
        <ele>5139.6</ele>
        <time>2015-09-04T10:18:22Z</time>
      </trkpt>
      <trkpt lat="33.77601" lon="77.58312">
        <ele>5139.2</ele>
        <time>2015-09-04T10:18:26Z</time>
      </trkpt>
      <trkpt lat="33.77604" lon="77.58313">
        <ele>5138.6</ele>
        <time>2015-09-04T10:18:33Z</time>
      </trkpt>
      <trkpt lat="33.77609" lon="77.58316">
        <ele>5138</ele>
        <time>2015-09-04T10:18:39Z</time>
      </trkpt>
      <trkpt lat="33.77611" lon="77.58317">
        <ele>5137.4</ele>
        <time>2015-09-04T10:18:42Z</time>
      </trkpt>
      <trkpt lat="33.77612" lon="77.58317">
        <ele>5137.4</ele>
        <time>2015-09-04T10:18:44Z</time>
      </trkpt>
      <trkpt lat="33.77616" lon="77.58318">
        <ele>5137.4</ele>
        <time>2015-09-04T10:18:48Z</time>
      </trkpt>
      <trkpt lat="33.77622" lon="77.58321">
        <ele>5136.4</ele>
        <time>2015-09-04T10:18:58Z</time>
      </trkpt>
      <trkpt lat="33.77624" lon="77.58324">
        <ele>5136.4</ele>
        <time>2015-09-04T10:19:01Z</time>
      </trkpt>
      <trkpt lat="33.77627" lon="77.58326">
        <ele>5135.4</ele>
        <time>2015-09-04T10:19:11Z</time>
      </trkpt>
      <trkpt lat="33.77633" lon="77.58328">
        <ele>5134.4</ele>
        <time>2015-09-04T10:19:19Z</time>
      </trkpt>
      <trkpt lat="33.7764" lon="77.58333">
        <ele>5133.2</ele>
        <time>2015-09-04T10:19:29Z</time>
      </trkpt>
      <trkpt lat="33.77643" lon="77.58333">
        <ele>5132.4</ele>
        <time>2015-09-04T10:19:33Z</time>
      </trkpt>
      <trkpt lat="33.77645" lon="77.58334">
        <ele>5132.2</ele>
        <time>2015-09-04T10:19:38Z</time>
      </trkpt>
      <trkpt lat="33.7765" lon="77.58335">
        <ele>5131.2</ele>
        <time>2015-09-04T10:19:47Z</time>
      </trkpt>
      <trkpt lat="33.77655" lon="77.58337">
        <ele>5130</ele>
        <time>2015-09-04T10:19:56Z</time>
      </trkpt>
      <trkpt lat="33.77661" lon="77.58338">
        <ele>5129</ele>
        <time>2015-09-04T10:20:04Z</time>
      </trkpt>
      <trkpt lat="33.77668" lon="77.5834">
        <ele>5128</ele>
        <time>2015-09-04T10:20:16Z</time>
      </trkpt>
      <trkpt lat="33.77673" lon="77.58344">
        <ele>5127</ele>
        <time>2015-09-04T10:20:24Z</time>
      </trkpt>
      <trkpt lat="33.77684" lon="77.58349">
        <ele>5125.8</ele>
        <time>2015-09-04T10:20:37Z</time>
      </trkpt>
      <trkpt lat="33.77688" lon="77.58347">
        <ele>5125.6</ele>
        <time>2015-09-04T10:20:41Z</time>
      </trkpt>
      <trkpt lat="33.77689" lon="77.58352">
        <ele>5124.8</ele>
        <time>2015-09-04T10:20:47Z</time>
      </trkpt>
      <trkpt lat="33.77694" lon="77.58353">
        <ele>5123.8</ele>
        <time>2015-09-04T10:20:58Z</time>
      </trkpt>
      <trkpt lat="33.777" lon="77.58354">
        <ele>5122.8</ele>
        <time>2015-09-04T10:21:04Z</time>
      </trkpt>
      <trkpt lat="33.77704" lon="77.58356">
        <ele>5122.6</ele>
        <time>2015-09-04T10:21:09Z</time>
      </trkpt>
      <trkpt lat="33.77705" lon="77.58358">
        <ele>5122.6</ele>
        <time>2015-09-04T10:21:11Z</time>
      </trkpt>
      <trkpt lat="33.77707" lon="77.58357">
        <ele>5122.6</ele>
        <time>2015-09-04T10:21:13Z</time>
      </trkpt>
      <trkpt lat="33.77712" lon="77.58359">
        <ele>5122.2</ele>
        <time>2015-09-04T10:21:20Z</time>
      </trkpt>
      <trkpt lat="33.7772" lon="77.5836">
        <ele>5121.8</ele>
        <time>2015-09-04T10:21:30Z</time>
      </trkpt>
      <trkpt lat="33.77721" lon="77.5836">
        <ele>5121.4</ele>
        <time>2015-09-04T10:21:31Z</time>
      </trkpt>
      <trkpt lat="33.77723" lon="77.58359">
        <ele>5120.8</ele>
        <time>2015-09-04T10:21:33Z</time>
      </trkpt>
      <trkpt lat="33.77724" lon="77.58359">
        <ele>5120.6</ele>
        <time>2015-09-04T10:21:34Z</time>
      </trkpt>
      <trkpt lat="33.77738" lon="77.58363">
        <ele>5119.6</ele>
        <time>2015-09-04T10:21:57Z</time>
      </trkpt>
      <trkpt lat="33.77742" lon="77.58365">
        <ele>5118.6</ele>
        <time>2015-09-04T10:22:08Z</time>
      </trkpt>
      <trkpt lat="33.77747" lon="77.58365">
        <ele>5117.6</ele>
        <time>2015-09-04T10:22:13Z</time>
      </trkpt>
      <trkpt lat="33.77753" lon="77.58365">
        <ele>5116.6</ele>
        <time>2015-09-04T10:22:18Z</time>
      </trkpt>
      <trkpt lat="33.77753" lon="77.58366">
        <ele>5116.4</ele>
        <time>2015-09-04T10:22:19Z</time>
      </trkpt>
      <trkpt lat="33.77759" lon="77.5837">
        <ele>5115.2</ele>
        <time>2015-09-04T10:22:26Z</time>
      </trkpt>
      <trkpt lat="33.7776" lon="77.58372">
        <ele>5114.8</ele>
        <time>2015-09-04T10:22:28Z</time>
      </trkpt>
      <trkpt lat="33.77767" lon="77.58374">
        <ele>5114.2</ele>
        <time>2015-09-04T10:22:38Z</time>
      </trkpt>
      <trkpt lat="33.77773" lon="77.58374">
        <ele>5114</ele>
        <time>2015-09-04T10:22:44Z</time>
      </trkpt>
      <trkpt lat="33.77774" lon="77.58377">
        <ele>5114</ele>
        <time>2015-09-04T10:22:46Z</time>
      </trkpt>
      <trkpt lat="33.77775" lon="77.58379">
        <ele>5114</ele>
        <time>2015-09-04T10:22:48Z</time>
      </trkpt>
      <trkpt lat="33.77777" lon="77.58389">
        <ele>5113.2</ele>
        <time>2015-09-04T10:22:56Z</time>
      </trkpt>
      <trkpt lat="33.77778" lon="77.5839">
        <ele>5113</ele>
        <time>2015-09-04T10:22:57Z</time>
      </trkpt>
      <trkpt lat="33.77782" lon="77.58396">
        <ele>5112.2</ele>
        <time>2015-09-04T10:23:03Z</time>
      </trkpt>
      <trkpt lat="33.77783" lon="77.58396">
        <ele>5112.2</ele>
        <time>2015-09-04T10:23:04Z</time>
      </trkpt>
      <trkpt lat="33.77784" lon="77.58399">
        <ele>5111.8</ele>
        <time>2015-09-04T10:23:09Z</time>
      </trkpt>
      <trkpt lat="33.77787" lon="77.58402">
        <ele>5111</ele>
        <time>2015-09-04T10:23:16Z</time>
      </trkpt>
      <trkpt lat="33.77788" lon="77.58405">
        <ele>5110.6</ele>
        <time>2015-09-04T10:23:20Z</time>
      </trkpt>
      <trkpt lat="33.77792" lon="77.58407">
        <ele>5110.2</ele>
        <time>2015-09-04T10:23:25Z</time>
      </trkpt>
      <trkpt lat="33.77793" lon="77.58409">
        <ele>5110</ele>
        <time>2015-09-04T10:23:27Z</time>
      </trkpt>
      <trkpt lat="33.77794" lon="77.5841">
        <ele>5109.8</ele>
        <time>2015-09-04T10:23:29Z</time>
      </trkpt>
      <trkpt lat="33.77797" lon="77.58413">
        <ele>5108.8</ele>
        <time>2015-09-04T10:23:34Z</time>
      </trkpt>
      <trkpt lat="33.77798" lon="77.58419">
        <ele>5108.4</ele>
        <time>2015-09-04T10:23:39Z</time>
      </trkpt>
      <trkpt lat="33.77802" lon="77.58425">
        <ele>5107.8</ele>
        <time>2015-09-04T10:23:47Z</time>
      </trkpt>
      <trkpt lat="33.77806" lon="77.58428">
        <ele>5107.2</ele>
        <time>2015-09-04T10:23:52Z</time>
      </trkpt>
      <trkpt lat="33.77809" lon="77.58431">
        <ele>5106.8</ele>
        <time>2015-09-04T10:23:55Z</time>
      </trkpt>
      <trkpt lat="33.77809" lon="77.58432">
        <ele>5106.6</ele>
        <time>2015-09-04T10:23:56Z</time>
      </trkpt>
      <trkpt lat="33.7781" lon="77.58432">
        <ele>5106.4</ele>
        <time>2015-09-04T10:23:57Z</time>
      </trkpt>
      <trkpt lat="33.77812" lon="77.58435">
        <ele>5106</ele>
        <time>2015-09-04T10:24:00Z</time>
      </trkpt>
      <trkpt lat="33.77813" lon="77.58437">
        <ele>5106</ele>
        <time>2015-09-04T10:24:03Z</time>
      </trkpt>
      <trkpt lat="33.77814" lon="77.58445">
        <ele>5105.6</ele>
        <time>2015-09-04T10:24:11Z</time>
      </trkpt>
      <trkpt lat="33.77816" lon="77.58448">
        <ele>5105.6</ele>
        <time>2015-09-04T10:24:14Z</time>
      </trkpt>
      <trkpt lat="33.77817" lon="77.58458">
        <ele>5104.6</ele>
        <time>2015-09-04T10:24:27Z</time>
      </trkpt>
      <trkpt lat="33.7782" lon="77.58466">
        <ele>5103.4</ele>
        <time>2015-09-04T10:24:39Z</time>
      </trkpt>
      <trkpt lat="33.77822" lon="77.58475">
        <ele>5102.4</ele>
        <time>2015-09-04T10:24:57Z</time>
      </trkpt>
      <trkpt lat="33.77825" lon="77.58476">
        <ele>5102.2</ele>
        <time>2015-09-04T10:24:59Z</time>
      </trkpt>
      <trkpt lat="33.77827" lon="77.5848">
        <ele>5101.8</ele>
        <time>2015-09-04T10:25:04Z</time>
      </trkpt>
      <trkpt lat="33.77828" lon="77.58481">
        <ele>5101.6</ele>
        <time>2015-09-04T10:25:06Z</time>
      </trkpt>
      <trkpt lat="33.77826" lon="77.58482">
        <ele>5101.4</ele>
        <time>2015-09-04T10:25:07Z</time>
      </trkpt>
      <trkpt lat="33.77826" lon="77.58482">
        <ele>5101.4</ele>
        <time>2015-09-04T10:25:08Z</time>
      </trkpt>
      <trkpt lat="33.7783" lon="77.58484">
        <ele>5101.2</ele>
        <time>2015-09-04T10:25:12Z</time>
      </trkpt>
      <trkpt lat="33.77832" lon="77.58485">
        <ele>5100.4</ele>
        <time>2015-09-04T10:25:16Z</time>
      </trkpt>
      <trkpt lat="33.77831" lon="77.5849">
        <ele>5100.4</ele>
        <time>2015-09-04T10:25:22Z</time>
      </trkpt>
      <trkpt lat="33.77829" lon="77.58501">
        <ele>5099.4</ele>
        <time>2015-09-04T10:25:52Z</time>
      </trkpt>
      <trkpt lat="33.77828" lon="77.58515">
        <ele>5098.4</ele>
        <time>2015-09-04T10:26:08Z</time>
      </trkpt>
      <trkpt lat="33.7783" lon="77.58521">
        <ele>5097.2</ele>
        <time>2015-09-04T10:26:20Z</time>
      </trkpt>
      <trkpt lat="33.77832" lon="77.58522">
        <ele>5097</ele>
        <time>2015-09-04T10:26:22Z</time>
      </trkpt>
      <trkpt lat="33.77835" lon="77.58526">
        <ele>5096.6</ele>
        <time>2015-09-04T10:26:25Z</time>
      </trkpt>
      <trkpt lat="33.77836" lon="77.5853">
        <ele>5096.6</ele>
        <time>2015-09-04T10:26:29Z</time>
      </trkpt>
      <trkpt lat="33.77835" lon="77.58534">
        <ele>5096.2</ele>
        <time>2015-09-04T10:26:35Z</time>
      </trkpt>
      <trkpt lat="33.77836" lon="77.58541">
        <ele>5095</ele>
        <time>2015-09-04T10:26:50Z</time>
      </trkpt>
      <trkpt lat="33.77838" lon="77.58542">
        <ele>5094.8</ele>
        <time>2015-09-04T10:26:52Z</time>
      </trkpt>
      <trkpt lat="33.7784" lon="77.58544">
        <ele>5094.6</ele>
        <time>2015-09-04T10:26:55Z</time>
      </trkpt>
      <trkpt lat="33.77844" lon="77.5855">
        <ele>5094</ele>
        <time>2015-09-04T10:27:06Z</time>
      </trkpt>
      <trkpt lat="33.77847" lon="77.58555">
        <ele>5092.8</ele>
        <time>2015-09-04T10:27:24Z</time>
      </trkpt>
      <trkpt lat="33.77852" lon="77.58556">
        <ele>5091.8</ele>
        <time>2015-09-04T10:27:32Z</time>
      </trkpt>
      <trkpt lat="33.77859" lon="77.58558">
        <ele>5091.4</ele>
        <time>2015-09-04T10:27:40Z</time>
      </trkpt>
      <trkpt lat="33.7786" lon="77.5856">
        <ele>5091.4</ele>
        <time>2015-09-04T10:27:43Z</time>
      </trkpt>
      <trkpt lat="33.77861" lon="77.58561">
        <ele>5090.8</ele>
        <time>2015-09-04T10:27:50Z</time>
      </trkpt>
      <trkpt lat="33.77867" lon="77.58565">
        <ele>5090</ele>
        <time>2015-09-04T10:28:00Z</time>
      </trkpt>
      <trkpt lat="33.77868" lon="77.58567">
        <ele>5089.8</ele>
        <time>2015-09-04T10:28:01Z</time>
      </trkpt>
      <trkpt lat="33.77873" lon="77.58571">
        <ele>5089.2</ele>
        <time>2015-09-04T10:28:08Z</time>
      </trkpt>
      <trkpt lat="33.77875" lon="77.58572">
        <ele>5088.6</ele>
        <time>2015-09-04T10:28:12Z</time>
      </trkpt>
      <trkpt lat="33.77879" lon="77.58579">
        <ele>5087.6</ele>
        <time>2015-09-04T10:28:25Z</time>
      </trkpt>
      <trkpt lat="33.77885" lon="77.58585">
        <ele>5086.4</ele>
        <time>2015-09-04T10:28:35Z</time>
      </trkpt>
      <trkpt lat="33.77891" lon="77.58591">
        <ele>5085.4</ele>
        <time>2015-09-04T10:28:41Z</time>
      </trkpt>
      <trkpt lat="33.77892" lon="77.58592">
        <ele>5085</ele>
        <time>2015-09-04T10:28:43Z</time>
      </trkpt>
      <trkpt lat="33.77896" lon="77.58595">
        <ele>5084.8</ele>
        <time>2015-09-04T10:28:47Z</time>
      </trkpt>
      <trkpt lat="33.77901" lon="77.58597">
        <ele>5084.4</ele>
        <time>2015-09-04T10:28:53Z</time>
      </trkpt>
      <trkpt lat="33.77906" lon="77.58603">
        <ele>5083.2</ele>
        <time>2015-09-04T10:29:02Z</time>
      </trkpt>
      <trkpt lat="33.77912" lon="77.5861">
        <ele>5082.2</ele>
        <time>2015-09-04T10:29:30Z</time>
      </trkpt>
      <trkpt lat="33.77921" lon="77.58618">
        <ele>5081.4</ele>
        <time>2015-09-04T10:29:42Z</time>
      </trkpt>
      <trkpt lat="33.7792" lon="77.5862">
        <ele>5081.2</ele>
        <time>2015-09-04T10:29:44Z</time>
      </trkpt>
      <trkpt lat="33.7792" lon="77.58623">
        <ele>5080.8</ele>
        <time>2015-09-04T10:29:47Z</time>
      </trkpt>
      <trkpt lat="33.77922" lon="77.58626">
        <ele>5080.2</ele>
        <time>2015-09-04T10:29:54Z</time>
      </trkpt>
      <trkpt lat="33.77926" lon="77.58629">
        <ele>5079</ele>
        <time>2015-09-04T10:30:02Z</time>
      </trkpt>
      <trkpt lat="33.77933" lon="77.58635">
        <ele>5077.8</ele>
        <time>2015-09-04T10:30:12Z</time>
      </trkpt>
      <trkpt lat="33.7794" lon="77.5864">
        <ele>5077</ele>
        <time>2015-09-04T10:30:20Z</time>
      </trkpt>
      <trkpt lat="33.77941" lon="77.5864">
        <ele>5076.8</ele>
        <time>2015-09-04T10:30:21Z</time>
      </trkpt>
      <trkpt lat="33.77943" lon="77.58644">
        <ele>5076.4</ele>
        <time>2015-09-04T10:30:25Z</time>
      </trkpt>
      <trkpt lat="33.77944" lon="77.58649">
        <ele>5075.8</ele>
        <time>2015-09-04T10:30:31Z</time>
      </trkpt>
      <trkpt lat="33.77946" lon="77.58649">
        <ele>5075.6</ele>
        <time>2015-09-04T10:30:33Z</time>
      </trkpt>
      <trkpt lat="33.77947" lon="77.5865">
        <ele>5075.2</ele>
        <time>2015-09-04T10:30:35Z</time>
      </trkpt>
      <trkpt lat="33.77948" lon="77.58653">
        <ele>5074.8</ele>
        <time>2015-09-04T10:30:40Z</time>
      </trkpt>
      <trkpt lat="33.77954" lon="77.58661">
        <ele>5073.6</ele>
        <time>2015-09-04T10:30:50Z</time>
      </trkpt>
      <trkpt lat="33.77958" lon="77.58667">
        <ele>5072.6</ele>
        <time>2015-09-04T10:30:59Z</time>
      </trkpt>
      <trkpt lat="33.77962" lon="77.58668">
        <ele>5071.4</ele>
        <time>2015-09-04T10:31:06Z</time>
      </trkpt>
      <trkpt lat="33.77964" lon="77.58668">
        <ele>5071.4</ele>
        <time>2015-09-04T10:31:08Z</time>
      </trkpt>
      <trkpt lat="33.77973" lon="77.58669">
        <ele>5070.6</ele>
        <time>2015-09-04T10:31:17Z</time>
      </trkpt>
      <trkpt lat="33.77973" lon="77.58669">
        <ele>5070.4</ele>
        <time>2015-09-04T10:31:18Z</time>
      </trkpt>
      <trkpt lat="33.77976" lon="77.58671">
        <ele>5069.4</ele>
        <time>2015-09-04T10:31:45Z</time>
      </trkpt>
      <trkpt lat="33.77976" lon="77.58668">
        <ele>5070.6</ele>
        <time>2015-09-04T10:32:08Z</time>
      </trkpt>
      <trkpt lat="33.77973" lon="77.58679">
        <ele>5069.4</ele>
        <time>2015-09-04T10:32:32Z</time>
      </trkpt>
      <trkpt lat="33.77974" lon="77.5868">
        <ele>5069.2</ele>
        <time>2015-09-04T10:32:34Z</time>
      </trkpt>
      <trkpt lat="33.77976" lon="77.58685">
        <ele>5068.4</ele>
        <time>2015-09-04T10:32:41Z</time>
      </trkpt>
      <trkpt lat="33.77978" lon="77.5869">
        <ele>5067.2</ele>
        <time>2015-09-04T10:32:50Z</time>
      </trkpt>
      <trkpt lat="33.77984" lon="77.58694">
        <ele>5066.2</ele>
        <time>2015-09-04T10:33:00Z</time>
      </trkpt>
      <trkpt lat="33.77989" lon="77.58696">
        <ele>5065.2</ele>
        <time>2015-09-04T10:33:07Z</time>
      </trkpt>
      <trkpt lat="33.77992" lon="77.58699">
        <ele>5064.2</ele>
        <time>2015-09-04T10:33:12Z</time>
      </trkpt>
      <trkpt lat="33.77992" lon="77.58699">
        <ele>5064</ele>
        <time>2015-09-04T10:33:13Z</time>
      </trkpt>
      <trkpt lat="33.78003" lon="77.58704">
        <ele>5063</ele>
        <time>2015-09-04T10:33:28Z</time>
      </trkpt>
      <trkpt lat="33.78011" lon="77.58702">
        <ele>5062</ele>
        <time>2015-09-04T10:33:40Z</time>
      </trkpt>
      <trkpt lat="33.78016" lon="77.58702">
        <ele>5061.6</ele>
        <time>2015-09-04T10:33:45Z</time>
      </trkpt>
      <trkpt lat="33.78018" lon="77.58702">
        <ele>5061.4</ele>
        <time>2015-09-04T10:33:47Z</time>
      </trkpt>
      <trkpt lat="33.78025" lon="77.587">
        <ele>5061</ele>
        <time>2015-09-04T10:34:15Z</time>
      </trkpt>
      <trkpt lat="33.78025" lon="77.58699">
        <ele>5059.8</ele>
        <time>2015-09-04T10:34:55Z</time>
      </trkpt>
      <trkpt lat="33.78026" lon="77.58697">
        <ele>5058.8</ele>
        <time>2015-09-04T10:36:39Z</time>
      </trkpt>
      <trkpt lat="33.78028" lon="77.58702">
        <ele>5057.8</ele>
        <time>2015-09-04T10:39:59Z</time>
      </trkpt>
      <trkpt lat="33.78031" lon="77.58708">
        <ele>5056.8</ele>
        <time>2015-09-04T10:40:24Z</time>
      </trkpt>
      <trkpt lat="33.78039" lon="77.5871">
        <ele>5055.6</ele>
        <time>2015-09-04T10:40:32Z</time>
      </trkpt>
      <trkpt lat="33.78046" lon="77.58713">
        <ele>5054.6</ele>
        <time>2015-09-04T10:40:40Z</time>
      </trkpt>
      <trkpt lat="33.78052" lon="77.58715">
        <ele>5053.4</ele>
        <time>2015-09-04T10:40:49Z</time>
      </trkpt>
      <trkpt lat="33.78054" lon="77.58722">
        <ele>5052.2</ele>
        <time>2015-09-04T10:41:00Z</time>
      </trkpt>
      <trkpt lat="33.78057" lon="77.58726">
        <ele>5051.2</ele>
        <time>2015-09-04T10:41:08Z</time>
      </trkpt>
      <trkpt lat="33.78061" lon="77.58731">
        <ele>5050.2</ele>
        <time>2015-09-04T10:41:16Z</time>
      </trkpt>
      <trkpt lat="33.78066" lon="77.58736">
        <ele>5049.6</ele>
        <time>2015-09-04T10:41:24Z</time>
      </trkpt>
      <trkpt lat="33.78068" lon="77.58739">
        <ele>5049.2</ele>
        <time>2015-09-04T10:41:29Z</time>
      </trkpt>
      <trkpt lat="33.78071" lon="77.58745">
        <ele>5048.2</ele>
        <time>2015-09-04T10:41:36Z</time>
      </trkpt>
      <trkpt lat="33.78077" lon="77.58749">
        <ele>5047.2</ele>
        <time>2015-09-04T10:41:43Z</time>
      </trkpt>
      <trkpt lat="33.78081" lon="77.5875">
        <ele>5046.6</ele>
        <time>2015-09-04T10:41:47Z</time>
      </trkpt>
      <trkpt lat="33.78083" lon="77.58751">
        <ele>5046</ele>
        <time>2015-09-04T10:41:50Z</time>
      </trkpt>
      <trkpt lat="33.7809" lon="77.58759">
        <ele>5044.8</ele>
        <time>2015-09-04T10:42:02Z</time>
      </trkpt>
      <trkpt lat="33.78094" lon="77.58766">
        <ele>5043.8</ele>
        <time>2015-09-04T10:42:12Z</time>
      </trkpt>
      <trkpt lat="33.78099" lon="77.58768">
        <ele>5042.8</ele>
        <time>2015-09-04T10:42:19Z</time>
      </trkpt>
      <trkpt lat="33.78103" lon="77.58773">
        <ele>5042.4</ele>
        <time>2015-09-04T10:42:25Z</time>
      </trkpt>
      <trkpt lat="33.78104" lon="77.58777">
        <ele>5041.8</ele>
        <time>2015-09-04T10:42:30Z</time>
      </trkpt>
      <trkpt lat="33.78106" lon="77.5878">
        <ele>5041.4</ele>
        <time>2015-09-04T10:42:33Z</time>
      </trkpt>
      <trkpt lat="33.78106" lon="77.58783">
        <ele>5040.6</ele>
        <time>2015-09-04T10:42:38Z</time>
      </trkpt>
      <trkpt lat="33.78116" lon="77.58789">
        <ele>5039.6</ele>
        <time>2015-09-04T10:42:45Z</time>
      </trkpt>
      <trkpt lat="33.78116" lon="77.58795">
        <ele>5038.6</ele>
        <time>2015-09-04T10:42:57Z</time>
      </trkpt>
      <trkpt lat="33.78116" lon="77.58797">
        <ele>5037.4</ele>
        <time>2015-09-04T10:43:04Z</time>
      </trkpt>
      <trkpt lat="33.7812" lon="77.58798">
        <ele>5036.8</ele>
        <time>2015-09-04T10:43:09Z</time>
      </trkpt>
      <trkpt lat="33.78125" lon="77.58799">
        <ele>5036.6</ele>
        <time>2015-09-04T10:43:15Z</time>
      </trkpt>
      <trkpt lat="33.78126" lon="77.58798">
        <ele>5036.4</ele>
        <time>2015-09-04T10:43:17Z</time>
      </trkpt>
      <trkpt lat="33.78135" lon="77.58802">
        <ele>5035.4</ele>
        <time>2015-09-04T10:43:31Z</time>
      </trkpt>
      <trkpt lat="33.7814" lon="77.58805">
        <ele>5034.4</ele>
        <time>2015-09-04T10:43:37Z</time>
      </trkpt>
      <trkpt lat="33.78142" lon="77.58805">
        <ele>5034.2</ele>
        <time>2015-09-04T10:43:39Z</time>
      </trkpt>
      <trkpt lat="33.78148" lon="77.5881">
        <ele>5033.2</ele>
        <time>2015-09-04T10:43:49Z</time>
      </trkpt>
      <trkpt lat="33.78153" lon="77.58819">
        <ele>5032.2</ele>
        <time>2015-09-04T10:44:00Z</time>
      </trkpt>
      <trkpt lat="33.78157" lon="77.58822">
        <ele>5031.2</ele>
        <time>2015-09-04T10:44:09Z</time>
      </trkpt>
      <trkpt lat="33.78161" lon="77.58828">
        <ele>5030</ele>
        <time>2015-09-04T10:44:18Z</time>
      </trkpt>
      <trkpt lat="33.78167" lon="77.5883">
        <ele>5029</ele>
        <time>2015-09-04T10:44:28Z</time>
      </trkpt>
      <trkpt lat="33.78169" lon="77.58833">
        <ele>5028.6</ele>
        <time>2015-09-04T10:44:31Z</time>
      </trkpt>
      <trkpt lat="33.78171" lon="77.58839">
        <ele>5027.8</ele>
        <time>2015-09-04T10:44:40Z</time>
      </trkpt>
      <trkpt lat="33.78174" lon="77.58843">
        <ele>5026.6</ele>
        <time>2015-09-04T10:44:45Z</time>
      </trkpt>
      <trkpt lat="33.78176" lon="77.58845">
        <ele>5026</ele>
        <time>2015-09-04T10:44:48Z</time>
      </trkpt>
      <trkpt lat="33.78178" lon="77.58846">
        <ele>5025.6</ele>
        <time>2015-09-04T10:44:50Z</time>
      </trkpt>
      <trkpt lat="33.78179" lon="77.58849">
        <ele>5024.8</ele>
        <time>2015-09-04T10:44:53Z</time>
      </trkpt>
      <trkpt lat="33.7818" lon="77.58851">
        <ele>5024.4</ele>
        <time>2015-09-04T10:44:56Z</time>
      </trkpt>
      <trkpt lat="33.78183" lon="77.58855">
        <ele>5023.8</ele>
        <time>2015-09-04T10:45:01Z</time>
      </trkpt>
      <trkpt lat="33.78185" lon="77.58857">
        <ele>5023.4</ele>
        <time>2015-09-04T10:45:05Z</time>
      </trkpt>
      <trkpt lat="33.78186" lon="77.58857">
        <ele>5023.2</ele>
        <time>2015-09-04T10:45:06Z</time>
      </trkpt>
      <trkpt lat="33.78188" lon="77.58857">
        <ele>5022.8</ele>
        <time>2015-09-04T10:45:08Z</time>
      </trkpt>
      <trkpt lat="33.7819" lon="77.5886">
        <ele>5022.4</ele>
        <time>2015-09-04T10:45:14Z</time>
      </trkpt>
      <trkpt lat="33.78194" lon="77.58864">
        <ele>5021.4</ele>
        <time>2015-09-04T10:45:22Z</time>
      </trkpt>
      <trkpt lat="33.78199" lon="77.58868">
        <ele>5020.8</ele>
        <time>2015-09-04T10:45:31Z</time>
      </trkpt>
      <trkpt lat="33.782" lon="77.5887">
        <ele>5020.4</ele>
        <time>2015-09-04T10:45:33Z</time>
      </trkpt>
      <trkpt lat="33.782" lon="77.58871">
        <ele>5020.2</ele>
        <time>2015-09-04T10:45:34Z</time>
      </trkpt>
      <trkpt lat="33.78203" lon="77.58876">
        <ele>5019.2</ele>
        <time>2015-09-04T10:45:41Z</time>
      </trkpt>
      <trkpt lat="33.78208" lon="77.58878">
        <ele>5018</ele>
        <time>2015-09-04T10:45:50Z</time>
      </trkpt>
      <trkpt lat="33.78211" lon="77.58883">
        <ele>5017</ele>
        <time>2015-09-04T10:45:59Z</time>
      </trkpt>
      <trkpt lat="33.78216" lon="77.58888">
        <ele>5016</ele>
        <time>2015-09-04T10:46:08Z</time>
      </trkpt>
      <trkpt lat="33.7822" lon="77.58892">
        <ele>5015</ele>
        <time>2015-09-04T10:46:15Z</time>
      </trkpt>
      <trkpt lat="33.78224" lon="77.58895">
        <ele>5013.8</ele>
        <time>2015-09-04T10:46:22Z</time>
      </trkpt>
      <trkpt lat="33.7823" lon="77.58901">
        <ele>5012.8</ele>
        <time>2015-09-04T10:46:30Z</time>
      </trkpt>
      <trkpt lat="33.78232" lon="77.58904">
        <ele>5011.6</ele>
        <time>2015-09-04T10:46:36Z</time>
      </trkpt>
      <trkpt lat="33.78234" lon="77.58906">
        <ele>5010.6</ele>
        <time>2015-09-04T10:46:41Z</time>
      </trkpt>
      <trkpt lat="33.7824" lon="77.58909">
        <ele>5009.6</ele>
        <time>2015-09-04T10:46:48Z</time>
      </trkpt>
      <trkpt lat="33.78243" lon="77.58912">
        <ele>5008.6</ele>
        <time>2015-09-04T10:46:54Z</time>
      </trkpt>
      <trkpt lat="33.78246" lon="77.58915">
        <ele>5007.4</ele>
        <time>2015-09-04T10:47:01Z</time>
      </trkpt>
      <trkpt lat="33.7825" lon="77.58919">
        <ele>5006.4</ele>
        <time>2015-09-04T10:47:07Z</time>
      </trkpt>
      <trkpt lat="33.78255" lon="77.58922">
        <ele>5005.4</ele>
        <time>2015-09-04T10:47:16Z</time>
      </trkpt>
      <trkpt lat="33.78256" lon="77.58923">
        <ele>5005.2</ele>
        <time>2015-09-04T10:47:17Z</time>
      </trkpt>
      <trkpt lat="33.78257" lon="77.58924">
        <ele>5004.8</ele>
        <time>2015-09-04T10:47:19Z</time>
      </trkpt>
      <trkpt lat="33.7826" lon="77.58926">
        <ele>5004.2</ele>
        <time>2015-09-04T10:47:23Z</time>
      </trkpt>
      <trkpt lat="33.7826" lon="77.58926">
        <ele>5003.8</ele>
        <time>2015-09-04T10:47:25Z</time>
      </trkpt>
      <trkpt lat="33.78263" lon="77.58929">
        <ele>5003.2</ele>
        <time>2015-09-04T10:47:31Z</time>
      </trkpt>
      <trkpt lat="33.78267" lon="77.58929">
        <ele>5002</ele>
        <time>2015-09-04T10:47:35Z</time>
      </trkpt>
      <trkpt lat="33.78269" lon="77.58933">
        <ele>5002</ele>
        <time>2015-09-04T10:47:55Z</time>
      </trkpt>
      <trkpt lat="33.78272" lon="77.58936">
        <ele>5000.8</ele>
        <time>2015-09-04T10:47:59Z</time>
      </trkpt>
      <trkpt lat="33.78274" lon="77.58939">
        <ele>4999.8</ele>
        <time>2015-09-04T10:48:04Z</time>
      </trkpt>
      <trkpt lat="33.78273" lon="77.58944">
        <ele>4998.8</ele>
        <time>2015-09-04T10:48:11Z</time>
      </trkpt>
      <trkpt lat="33.7828" lon="77.58946">
        <ele>4997.6</ele>
        <time>2015-09-04T10:48:18Z</time>
      </trkpt>
      <trkpt lat="33.78285" lon="77.58949">
        <ele>4996.6</ele>
        <time>2015-09-04T10:48:27Z</time>
      </trkpt>
      <trkpt lat="33.78289" lon="77.58951">
        <ele>4995.6</ele>
        <time>2015-09-04T10:48:33Z</time>
      </trkpt>
      <trkpt lat="33.78292" lon="77.58952">
        <ele>4994.4</ele>
        <time>2015-09-04T10:48:38Z</time>
      </trkpt>
      <trkpt lat="33.78293" lon="77.58953">
        <ele>4994.2</ele>
        <time>2015-09-04T10:48:39Z</time>
      </trkpt>
      <trkpt lat="33.78298" lon="77.58955">
        <ele>4993.6</ele>
        <time>2015-09-04T10:48:45Z</time>
      </trkpt>
      <trkpt lat="33.78298" lon="77.58955">
        <ele>4993.4</ele>
        <time>2015-09-04T10:48:47Z</time>
      </trkpt>
      <trkpt lat="33.78301" lon="77.58956">
        <ele>4992.2</ele>
        <time>2015-09-04T10:48:54Z</time>
      </trkpt>
      <trkpt lat="33.78308" lon="77.58957">
        <ele>4991.2</ele>
        <time>2015-09-04T10:49:02Z</time>
      </trkpt>
      <trkpt lat="33.78309" lon="77.58957">
        <ele>4991.2</ele>
        <time>2015-09-04T10:49:03Z</time>
      </trkpt>
      <trkpt lat="33.78309" lon="77.58958">
        <ele>4991</ele>
        <time>2015-09-04T10:49:04Z</time>
      </trkpt>
      <trkpt lat="33.78313" lon="77.58961">
        <ele>4990</ele>
        <time>2015-09-04T10:49:14Z</time>
      </trkpt>
      <trkpt lat="33.78318" lon="77.58962">
        <ele>4989</ele>
        <time>2015-09-04T10:49:21Z</time>
      </trkpt>
      <trkpt lat="33.78319" lon="77.58964">
        <ele>4988.4</ele>
        <time>2015-09-04T10:49:43Z</time>
      </trkpt>
      <trkpt lat="33.78319" lon="77.58965">
        <ele>4988.4</ele>
        <time>2015-09-04T10:49:45Z</time>
      </trkpt>
      <trkpt lat="33.7832" lon="77.58966">
        <ele>4988</ele>
        <time>2015-09-04T10:49:48Z</time>
      </trkpt>
      <trkpt lat="33.78323" lon="77.58969">
        <ele>4986.8</ele>
        <time>2015-09-04T10:49:53Z</time>
      </trkpt>
      <trkpt lat="33.78325" lon="77.58972">
        <ele>4985.8</ele>
        <time>2015-09-04T10:49:59Z</time>
      </trkpt>
      <trkpt lat="33.78328" lon="77.58973">
        <ele>4985.6</ele>
        <time>2015-09-04T10:50:02Z</time>
      </trkpt>
      <trkpt lat="33.78331" lon="77.58976">
        <ele>4984.8</ele>
        <time>2015-09-04T10:50:10Z</time>
      </trkpt>
      <trkpt lat="33.78333" lon="77.58981">
        <ele>4983.6</ele>
        <time>2015-09-04T10:50:16Z</time>
      </trkpt>
      <trkpt lat="33.78335" lon="77.58985">
        <ele>4982.6</ele>
        <time>2015-09-04T10:50:23Z</time>
      </trkpt>
      <trkpt lat="33.78338" lon="77.58987">
        <ele>4981.4</ele>
        <time>2015-09-04T10:50:30Z</time>
      </trkpt>
      <trkpt lat="33.78341" lon="77.58991">
        <ele>4980.4</ele>
        <time>2015-09-04T10:50:41Z</time>
      </trkpt>
      <trkpt lat="33.78344" lon="77.58993">
        <ele>4979.4</ele>
        <time>2015-09-04T10:50:51Z</time>
      </trkpt>
      <trkpt lat="33.78347" lon="77.58993">
        <ele>4978.4</ele>
        <time>2015-09-04T10:51:02Z</time>
      </trkpt>
      <trkpt lat="33.78353" lon="77.58988">
        <ele>4979.4</ele>
        <time>2015-09-04T10:51:47Z</time>
      </trkpt>
      <trkpt lat="33.78351" lon="77.5899">
        <ele>4978.4</ele>
        <time>2015-09-04T10:52:43Z</time>
      </trkpt>
      <trkpt lat="33.78351" lon="77.58992">
        <ele>4977.2</ele>
        <time>2015-09-04T10:52:47Z</time>
      </trkpt>
      <trkpt lat="33.78356" lon="77.58999">
        <ele>4976.2</ele>
        <time>2015-09-04T10:52:55Z</time>
      </trkpt>
      <trkpt lat="33.78358" lon="77.59002">
        <ele>4975.4</ele>
        <time>2015-09-04T10:52:59Z</time>
      </trkpt>
      <trkpt lat="33.78359" lon="77.59002">
        <ele>4975.2</ele>
        <time>2015-09-04T10:53:00Z</time>
      </trkpt>
      <trkpt lat="33.78362" lon="77.59004">
        <ele>4974</ele>
        <time>2015-09-04T10:53:05Z</time>
      </trkpt>
      <trkpt lat="33.78364" lon="77.59007">
        <ele>4973</ele>
        <time>2015-09-04T10:53:10Z</time>
      </trkpt>
      <trkpt lat="33.78366" lon="77.59009">
        <ele>4972</ele>
        <time>2015-09-04T10:53:14Z</time>
      </trkpt>
      <trkpt lat="33.78369" lon="77.59011">
        <ele>4971</ele>
        <time>2015-09-04T10:53:19Z</time>
      </trkpt>
      <trkpt lat="33.78371" lon="77.59012">
        <ele>4970.6</ele>
        <time>2015-09-04T10:53:22Z</time>
      </trkpt>
      <trkpt lat="33.78373" lon="77.59013">
        <ele>4969.8</ele>
        <time>2015-09-04T10:53:26Z</time>
      </trkpt>
      <trkpt lat="33.78377" lon="77.59015">
        <ele>4968.8</ele>
        <time>2015-09-04T10:53:31Z</time>
      </trkpt>
      <trkpt lat="33.78379" lon="77.59017">
        <ele>4967.8</ele>
        <time>2015-09-04T10:53:44Z</time>
      </trkpt>
      <trkpt lat="33.78384" lon="77.59022">
        <ele>4966.8</ele>
        <time>2015-09-04T10:54:05Z</time>
      </trkpt>
      <trkpt lat="33.78384" lon="77.59027">
        <ele>4965.6</ele>
        <time>2015-09-04T10:54:11Z</time>
      </trkpt>
      <trkpt lat="33.78382" lon="77.5903">
        <ele>4964.4</ele>
        <time>2015-09-04T10:54:16Z</time>
      </trkpt>
      <trkpt lat="33.78383" lon="77.59031">
        <ele>4963.4</ele>
        <time>2015-09-04T10:54:21Z</time>
      </trkpt>
      <trkpt lat="33.78383" lon="77.59034">
        <ele>4962.4</ele>
        <time>2015-09-04T10:54:26Z</time>
      </trkpt>
      <trkpt lat="33.78382" lon="77.59035">
        <ele>4961.4</ele>
        <time>2015-09-04T10:54:32Z</time>
      </trkpt>
      <trkpt lat="33.78382" lon="77.59038">
        <ele>4960.2</ele>
        <time>2015-09-04T10:54:38Z</time>
      </trkpt>
      <trkpt lat="33.78384" lon="77.59041">
        <ele>4959</ele>
        <time>2015-09-04T10:54:43Z</time>
      </trkpt>
      <trkpt lat="33.78389" lon="77.59045">
        <ele>4958</ele>
        <time>2015-09-04T10:54:53Z</time>
      </trkpt>
      <trkpt lat="33.78392" lon="77.59048">
        <ele>4956.8</ele>
        <time>2015-09-04T10:54:59Z</time>
      </trkpt>
      <trkpt lat="33.78394" lon="77.59054">
        <ele>4955.8</ele>
        <time>2015-09-04T10:55:06Z</time>
      </trkpt>
      <trkpt lat="33.78395" lon="77.59061">
        <ele>4954.6</ele>
        <time>2015-09-04T10:55:14Z</time>
      </trkpt>
      <trkpt lat="33.78393" lon="77.59067">
        <ele>4953.6</ele>
        <time>2015-09-04T10:55:20Z</time>
      </trkpt>
      <trkpt lat="33.78393" lon="77.59067">
        <ele>4953.4</ele>
        <time>2015-09-04T10:55:21Z</time>
      </trkpt>
      <trkpt lat="33.78393" lon="77.59081">
        <ele>4952.6</ele>
        <time>2015-09-04T10:55:38Z</time>
      </trkpt>
      <trkpt lat="33.78391" lon="77.59085">
        <ele>4951.6</ele>
        <time>2015-09-04T10:55:44Z</time>
      </trkpt>
      <trkpt lat="33.78391" lon="77.59087">
        <ele>4951.6</ele>
        <time>2015-09-04T10:55:46Z</time>
      </trkpt>
      <trkpt lat="33.78395" lon="77.59093">
        <ele>4950.4</ele>
        <time>2015-09-04T10:55:56Z</time>
      </trkpt>
      <trkpt lat="33.78397" lon="77.59096">
        <ele>4949.2</ele>
        <time>2015-09-04T10:56:03Z</time>
      </trkpt>
      <trkpt lat="33.78401" lon="77.59097">
        <ele>4948</ele>
        <time>2015-09-04T10:56:10Z</time>
      </trkpt>
      <trkpt lat="33.78404" lon="77.59098">
        <ele>4947</ele>
        <time>2015-09-04T10:56:14Z</time>
      </trkpt>
      <trkpt lat="33.78406" lon="77.59103">
        <ele>4945.8</ele>
        <time>2015-09-04T10:56:20Z</time>
      </trkpt>
      <trkpt lat="33.78408" lon="77.59105">
        <ele>4944.6</ele>
        <time>2015-09-04T10:56:26Z</time>
      </trkpt>
      <trkpt lat="33.78411" lon="77.59105">
        <ele>4943.6</ele>
        <time>2015-09-04T10:56:31Z</time>
      </trkpt>
      <trkpt lat="33.78414" lon="77.59109">
        <ele>4942.4</ele>
        <time>2015-09-04T10:56:36Z</time>
      </trkpt>
      <trkpt lat="33.78415" lon="77.5911">
        <ele>4942.2</ele>
        <time>2015-09-04T10:56:37Z</time>
      </trkpt>
      <trkpt lat="33.78418" lon="77.59112">
        <ele>4941.6</ele>
        <time>2015-09-04T10:56:40Z</time>
      </trkpt>
      <trkpt lat="33.78419" lon="77.59113">
        <ele>4941.2</ele>
        <time>2015-09-04T10:56:42Z</time>
      </trkpt>
      <trkpt lat="33.78421" lon="77.59116">
        <ele>4940.2</ele>
        <time>2015-09-04T10:56:47Z</time>
      </trkpt>
      <trkpt lat="33.78422" lon="77.5912">
        <ele>4939</ele>
        <time>2015-09-04T10:56:53Z</time>
      </trkpt>
      <trkpt lat="33.78423" lon="77.5912">
        <ele>4938.8</ele>
        <time>2015-09-04T10:56:54Z</time>
      </trkpt>
      <trkpt lat="33.78425" lon="77.59123">
        <ele>4938</ele>
        <time>2015-09-04T10:57:01Z</time>
      </trkpt>
      <trkpt lat="33.7843" lon="77.59127">
        <ele>4937</ele>
        <time>2015-09-04T10:57:07Z</time>
      </trkpt>
      <trkpt lat="33.78433" lon="77.59127">
        <ele>4935.8</ele>
        <time>2015-09-04T10:57:12Z</time>
      </trkpt>
      <trkpt lat="33.78435" lon="77.5913">
        <ele>4934.6</ele>
        <time>2015-09-04T10:57:20Z</time>
      </trkpt>
      <trkpt lat="33.78441" lon="77.59133">
        <ele>4933.4</ele>
        <time>2015-09-04T10:57:30Z</time>
      </trkpt>
      <trkpt lat="33.78446" lon="77.59133">
        <ele>4932.4</ele>
        <time>2015-09-04T10:57:39Z</time>
      </trkpt>
      <trkpt lat="33.78449" lon="77.59133">
        <ele>4931.2</ele>
        <time>2015-09-04T10:57:47Z</time>
      </trkpt>
      <trkpt lat="33.78451" lon="77.59139">
        <ele>4930.2</ele>
        <time>2015-09-04T10:57:58Z</time>
      </trkpt>
      <trkpt lat="33.78452" lon="77.59145">
        <ele>4929.2</ele>
        <time>2015-09-04T10:58:06Z</time>
      </trkpt>
      <trkpt lat="33.78457" lon="77.59145">
        <ele>4928</ele>
        <time>2015-09-04T10:58:12Z</time>
      </trkpt>
      <trkpt lat="33.78462" lon="77.59148">
        <ele>4927</ele>
        <time>2015-09-04T10:58:21Z</time>
      </trkpt>
      <trkpt lat="33.78463" lon="77.59148">
        <ele>4925.8</ele>
        <time>2015-09-04T10:58:26Z</time>
      </trkpt>
      <trkpt lat="33.78468" lon="77.59154">
        <ele>4924.8</ele>
        <time>2015-09-04T10:58:38Z</time>
      </trkpt>
      <trkpt lat="33.78469" lon="77.59154">
        <ele>4923.8</ele>
        <time>2015-09-04T10:58:43Z</time>
      </trkpt>
      <trkpt lat="33.78472" lon="77.59155">
        <ele>4922.8</ele>
        <time>2015-09-04T10:58:51Z</time>
      </trkpt>
      <trkpt lat="33.78474" lon="77.59154">
        <ele>4922</ele>
        <time>2015-09-04T10:58:55Z</time>
      </trkpt>
      <trkpt lat="33.78474" lon="77.59153">
        <ele>4921.8</ele>
        <time>2015-09-04T10:58:58Z</time>
      </trkpt>
      <trkpt lat="33.78473" lon="77.59159">
        <ele>4921.4</ele>
        <time>2015-09-04T10:59:03Z</time>
      </trkpt>
      <trkpt lat="33.78472" lon="77.59163">
        <ele>4920.6</ele>
        <time>2015-09-04T10:59:09Z</time>
      </trkpt>
      <trkpt lat="33.78474" lon="77.59162">
        <ele>4919.6</ele>
        <time>2015-09-04T10:59:14Z</time>
      </trkpt>
      <trkpt lat="33.78476" lon="77.59164">
        <ele>4919</ele>
        <time>2015-09-04T10:59:17Z</time>
      </trkpt>
      <trkpt lat="33.78479" lon="77.59165">
        <ele>4918.4</ele>
        <time>2015-09-04T10:59:21Z</time>
      </trkpt>
      <trkpt lat="33.78485" lon="77.59164">
        <ele>4917.4</ele>
        <time>2015-09-04T10:59:29Z</time>
      </trkpt>
      <trkpt lat="33.78488" lon="77.59163">
        <ele>4917</ele>
        <time>2015-09-04T10:59:33Z</time>
      </trkpt>
      <trkpt lat="33.78491" lon="77.59164">
        <ele>4916.2</ele>
        <time>2015-09-04T11:00:06Z</time>
      </trkpt>
      <trkpt lat="33.7849" lon="77.59167">
        <ele>4915.2</ele>
        <time>2015-09-04T11:00:11Z</time>
      </trkpt>
      <trkpt lat="33.78494" lon="77.59169">
        <ele>4914.4</ele>
        <time>2015-09-04T11:00:16Z</time>
      </trkpt>
      <trkpt lat="33.78495" lon="77.59169">
        <ele>4914</ele>
        <time>2015-09-04T11:00:17Z</time>
      </trkpt>
      <trkpt lat="33.78496" lon="77.59169">
        <ele>4913.8</ele>
        <time>2015-09-04T11:00:18Z</time>
      </trkpt>
      <trkpt lat="33.78496" lon="77.5917">
        <ele>4913.6</ele>
        <time>2015-09-04T11:00:20Z</time>
      </trkpt>
      <trkpt lat="33.78499" lon="77.59169">
        <ele>4913</ele>
        <time>2015-09-04T11:00:25Z</time>
      </trkpt>
      <trkpt lat="33.78503" lon="77.59176">
        <ele>4911.8</ele>
        <time>2015-09-04T11:00:36Z</time>
      </trkpt>
      <trkpt lat="33.78505" lon="77.59179">
        <ele>4910.8</ele>
        <time>2015-09-04T11:00:49Z</time>
      </trkpt>
      <trkpt lat="33.78505" lon="77.59183">
        <ele>4909.6</ele>
        <time>2015-09-04T11:00:56Z</time>
      </trkpt>
      <trkpt lat="33.78506" lon="77.59182">
        <ele>4908.6</ele>
        <time>2015-09-04T11:00:59Z</time>
      </trkpt>
      <trkpt lat="33.78508" lon="77.59187">
        <ele>4907.4</ele>
        <time>2015-09-04T11:01:05Z</time>
      </trkpt>
      <trkpt lat="33.78512" lon="77.59193">
        <ele>4906.4</ele>
        <time>2015-09-04T11:01:14Z</time>
      </trkpt>
      <trkpt lat="33.78516" lon="77.59196">
        <ele>4905.2</ele>
        <time>2015-09-04T11:01:19Z</time>
      </trkpt>
      <trkpt lat="33.78517" lon="77.592">
        <ele>4904.2</ele>
        <time>2015-09-04T11:01:25Z</time>
      </trkpt>
      <trkpt lat="33.78517" lon="77.59202">
        <ele>4903.2</ele>
        <time>2015-09-04T11:01:31Z</time>
      </trkpt>
      <trkpt lat="33.78519" lon="77.59203">
        <ele>4902</ele>
        <time>2015-09-04T11:01:35Z</time>
      </trkpt>
      <trkpt lat="33.78522" lon="77.59206">
        <ele>4900.8</ele>
        <time>2015-09-04T11:01:45Z</time>
      </trkpt>
      <trkpt lat="33.78523" lon="77.5921">
        <ele>4899.6</ele>
        <time>2015-09-04T11:01:50Z</time>
      </trkpt>
      <trkpt lat="33.78525" lon="77.59216">
        <ele>4898.6</ele>
        <time>2015-09-04T11:01:57Z</time>
      </trkpt>
      <trkpt lat="33.78529" lon="77.59221">
        <ele>4897.4</ele>
        <time>2015-09-04T11:02:03Z</time>
      </trkpt>
      <trkpt lat="33.78531" lon="77.59224">
        <ele>4896.2</ele>
        <time>2015-09-04T11:02:08Z</time>
      </trkpt>
      <trkpt lat="33.78534" lon="77.59227">
        <ele>4895.2</ele>
        <time>2015-09-04T11:02:13Z</time>
      </trkpt>
      <trkpt lat="33.78535" lon="77.59232">
        <ele>4894.2</ele>
        <time>2015-09-04T11:02:19Z</time>
      </trkpt>
      <trkpt lat="33.78538" lon="77.59235">
        <ele>4893</ele>
        <time>2015-09-04T11:02:26Z</time>
      </trkpt>
      <trkpt lat="33.78539" lon="77.59237">
        <ele>4893</ele>
        <time>2015-09-04T11:02:28Z</time>
      </trkpt>
      <trkpt lat="33.7854" lon="77.59238">
        <ele>4893</ele>
        <time>2015-09-04T11:02:30Z</time>
      </trkpt>
      <trkpt lat="33.78542" lon="77.59244">
        <ele>4892</ele>
        <time>2015-09-04T11:02:36Z</time>
      </trkpt>
      <trkpt lat="33.78543" lon="77.59248">
        <ele>4891.4</ele>
        <time>2015-09-04T11:02:41Z</time>
      </trkpt>
      <trkpt lat="33.78544" lon="77.5925">
        <ele>4891</ele>
        <time>2015-09-04T11:02:43Z</time>
      </trkpt>
      <trkpt lat="33.78546" lon="77.59252">
        <ele>4890.6</ele>
        <time>2015-09-04T11:02:46Z</time>
      </trkpt>
      <trkpt lat="33.78547" lon="77.59254">
        <ele>4889.8</ele>
        <time>2015-09-04T11:02:49Z</time>
      </trkpt>
      <trkpt lat="33.78548" lon="77.59256">
        <ele>4888.6</ele>
        <time>2015-09-04T11:02:52Z</time>
      </trkpt>
      <trkpt lat="33.78548" lon="77.59258">
        <ele>4888.4</ele>
        <time>2015-09-04T11:02:53Z</time>
      </trkpt>
      <trkpt lat="33.7855" lon="77.5926">
        <ele>4887.6</ele>
        <time>2015-09-04T11:02:56Z</time>
      </trkpt>
      <trkpt lat="33.78552" lon="77.59264">
        <ele>4887</ele>
        <time>2015-09-04T11:03:01Z</time>
      </trkpt>
      <trkpt lat="33.78553" lon="77.59266">
        <ele>4886.6</ele>
        <time>2015-09-04T11:03:05Z</time>
      </trkpt>
      <trkpt lat="33.78555" lon="77.59272">
        <ele>4885.4</ele>
        <time>2015-09-04T11:03:12Z</time>
      </trkpt>
      <trkpt lat="33.78555" lon="77.5928">
        <ele>4884.4</ele>
        <time>2015-09-04T11:03:21Z</time>
      </trkpt>
      <trkpt lat="33.78557" lon="77.59285">
        <ele>4883.2</ele>
        <time>2015-09-04T11:03:28Z</time>
      </trkpt>
      <trkpt lat="33.7856" lon="77.59291">
        <ele>4882</ele>
        <time>2015-09-04T11:03:39Z</time>
      </trkpt>
      <trkpt lat="33.78562" lon="77.59296">
        <ele>4880.8</ele>
        <time>2015-09-04T11:03:45Z</time>
      </trkpt>
      <trkpt lat="33.78566" lon="77.59305">
        <ele>4879.8</ele>
        <time>2015-09-04T11:03:56Z</time>
      </trkpt>
      <trkpt lat="33.78569" lon="77.59309">
        <ele>4879.2</ele>
        <time>2015-09-04T11:04:01Z</time>
      </trkpt>
      <trkpt lat="33.78571" lon="77.59318">
        <ele>4878.6</ele>
        <time>2015-09-04T11:04:11Z</time>
      </trkpt>
      <trkpt lat="33.78575" lon="77.59326">
        <ele>4877.6</ele>
        <time>2015-09-04T11:04:21Z</time>
      </trkpt>
      <trkpt lat="33.78578" lon="77.59328">
        <ele>4877.2</ele>
        <time>2015-09-04T11:04:25Z</time>
      </trkpt>
      <trkpt lat="33.78584" lon="77.59336">
        <ele>4876.6</ele>
        <time>2015-09-04T11:04:35Z</time>
      </trkpt>
      <trkpt lat="33.78584" lon="77.59338">
        <ele>4876.6</ele>
        <time>2015-09-04T11:04:37Z</time>
      </trkpt>
      <trkpt lat="33.78587" lon="77.59341">
        <ele>4876.6</ele>
        <time>2015-09-04T11:04:40Z</time>
      </trkpt>
      <trkpt lat="33.7859" lon="77.59356">
        <ele>4875.6</ele>
        <time>2015-09-04T11:04:54Z</time>
      </trkpt>
      <trkpt lat="33.78592" lon="77.59361">
        <ele>4874.6</ele>
        <time>2015-09-04T11:05:01Z</time>
      </trkpt>
      <trkpt lat="33.78596" lon="77.59368">
        <ele>4873.4</ele>
        <time>2015-09-04T11:05:08Z</time>
      </trkpt>
      <trkpt lat="33.78596" lon="77.59371">
        <ele>4873.4</ele>
        <time>2015-09-04T11:05:11Z</time>
      </trkpt>
      <trkpt lat="33.78599" lon="77.59376">
        <ele>4873.2</ele>
        <time>2015-09-04T11:05:14Z</time>
      </trkpt>
      <trkpt lat="33.78601" lon="77.59378">
        <ele>4873.4</ele>
        <time>2015-09-04T11:05:17Z</time>
      </trkpt>
      <trkpt lat="33.78602" lon="77.59381">
        <ele>4873.4</ele>
        <time>2015-09-04T11:05:20Z</time>
      </trkpt>
      <trkpt lat="33.78606" lon="77.59402">
        <ele>4873.2</ele>
        <time>2015-09-04T11:05:38Z</time>
      </trkpt>
      <trkpt lat="33.78606" lon="77.59404">
        <ele>4873</ele>
        <time>2015-09-04T11:05:40Z</time>
      </trkpt>
      <trkpt lat="33.78605" lon="77.59406">
        <ele>4873</ele>
        <time>2015-09-04T11:05:42Z</time>
      </trkpt>
      <trkpt lat="33.78603" lon="77.5943">
        <ele>4873</ele>
        <time>2015-09-04T11:06:04Z</time>
      </trkpt>
      <trkpt lat="33.78592" lon="77.59446">
        <ele>4872.8</ele>
        <time>2015-09-04T11:06:21Z</time>
      </trkpt>
      <trkpt lat="33.78592" lon="77.59449">
        <ele>4873.2</ele>
        <time>2015-09-04T11:06:26Z</time>
      </trkpt>
      <trkpt lat="33.78576" lon="77.59458">
        <ele>4873.4</ele>
        <time>2015-09-04T11:06:43Z</time>
      </trkpt>
      <trkpt lat="33.78571" lon="77.59465">
        <ele>4873.2</ele>
        <time>2015-09-04T11:06:56Z</time>
      </trkpt>
      <trkpt lat="33.7857" lon="77.59474">
        <ele>4873.4</ele>
        <time>2015-09-04T11:07:04Z</time>
      </trkpt>
      <trkpt lat="33.78577" lon="77.59493">
        <ele>4873.4</ele>
        <time>2015-09-04T11:07:23Z</time>
      </trkpt>
      <trkpt lat="33.7858" lon="77.59501">
        <ele>4873.2</ele>
        <time>2015-09-04T11:07:30Z</time>
      </trkpt>
      <trkpt lat="33.78583" lon="77.59503">
        <ele>4873.2</ele>
        <time>2015-09-04T11:07:34Z</time>
      </trkpt>
      <trkpt lat="33.78589" lon="77.5951">
        <ele>4873.4</ele>
        <time>2015-09-04T11:07:41Z</time>
      </trkpt>
      <trkpt lat="33.7859" lon="77.59511">
        <ele>4873.4</ele>
        <time>2015-09-04T11:07:43Z</time>
      </trkpt>
      <trkpt lat="33.78593" lon="77.59516">
        <ele>4873</ele>
        <time>2015-09-04T11:07:49Z</time>
      </trkpt>
      <trkpt lat="33.78595" lon="77.59538">
        <ele>4873.4</ele>
        <time>2015-09-04T11:08:13Z</time>
      </trkpt>
      <trkpt lat="33.78596" lon="77.59549">
        <ele>4873.4</ele>
        <time>2015-09-04T11:08:24Z</time>
      </trkpt>
      <trkpt lat="33.78596" lon="77.59564">
        <ele>4873.6</ele>
        <time>2015-09-04T11:08:42Z</time>
      </trkpt>
      <trkpt lat="33.78596" lon="77.59569">
        <ele>4873.6</ele>
        <time>2015-09-04T11:08:46Z</time>
      </trkpt>
      <trkpt lat="33.78595" lon="77.59574">
        <ele>4873.8</ele>
        <time>2015-09-04T11:08:50Z</time>
      </trkpt>
      <trkpt lat="33.78597" lon="77.59578">
        <ele>4873.8</ele>
        <time>2015-09-04T11:08:55Z</time>
      </trkpt>
      <trkpt lat="33.78605" lon="77.59579">
        <ele>4873.8</ele>
        <time>2015-09-04T11:09:04Z</time>
      </trkpt>
      <trkpt lat="33.78607" lon="77.59578">
        <ele>4873.8</ele>
        <time>2015-09-04T11:09:06Z</time>
      </trkpt>
      <trkpt lat="33.7861" lon="77.59576">
        <ele>4874</ele>
        <time>2015-09-04T11:09:09Z</time>
      </trkpt>
      <trkpt lat="33.78608" lon="77.59576">
        <ele>4881.4</ele>
        <time>2015-09-04T11:10:28Z</time>
      </trkpt>
    </trkseg>
  </trk>
  <trk>
    <name><![CDATA[Nimaling (4800m) - Lhalung La Pass (5340m) - Camp de Chaktsang La (4900m)]]></name>
    <trkseg>
      <trkpt lat="33.78644" lon="77.59483">
        <ele>4859.2</ele>
        <time>2015-09-05T02:59:07Z</time>
      </trkpt>
      <trkpt lat="33.78648" lon="77.59474">
        <ele>4859</ele>
        <time>2015-09-05T02:59:10Z</time>
      </trkpt>
      <trkpt lat="33.78649" lon="77.59468">
        <ele>4859</ele>
        <time>2015-09-05T02:59:16Z</time>
      </trkpt>
      <trkpt lat="33.7865" lon="77.59462">
        <ele>4859</ele>
        <time>2015-09-05T02:59:19Z</time>
      </trkpt>
      <trkpt lat="33.78657" lon="77.59451">
        <ele>4858.8</ele>
        <time>2015-09-05T02:59:32Z</time>
      </trkpt>
      <trkpt lat="33.78657" lon="77.59446">
        <ele>4858.6</ele>
        <time>2015-09-05T02:59:36Z</time>
      </trkpt>
      <trkpt lat="33.78658" lon="77.59443">
        <ele>4858.4</ele>
        <time>2015-09-05T02:59:39Z</time>
      </trkpt>
      <trkpt lat="33.7866" lon="77.5944">
        <ele>4858</ele>
        <time>2015-09-05T02:59:42Z</time>
      </trkpt>
      <trkpt lat="33.78668" lon="77.59428">
        <ele>4858.4</ele>
        <time>2015-09-05T03:00:01Z</time>
      </trkpt>
      <trkpt lat="33.78674" lon="77.59423">
        <ele>4858.6</ele>
        <time>2015-09-05T03:00:08Z</time>
      </trkpt>
      <trkpt lat="33.78675" lon="77.59421">
        <ele>4858.4</ele>
        <time>2015-09-05T03:00:10Z</time>
      </trkpt>
      <trkpt lat="33.78676" lon="77.59419">
        <ele>4858.4</ele>
        <time>2015-09-05T03:00:13Z</time>
      </trkpt>
      <trkpt lat="33.7868" lon="77.59416">
        <ele>4857.4</ele>
        <time>2015-09-05T03:00:38Z</time>
      </trkpt>
      <trkpt lat="33.78674" lon="77.59411">
        <ele>4857.6</ele>
        <time>2015-09-05T03:00:40Z</time>
      </trkpt>
      <trkpt lat="33.78675" lon="77.59415">
        <ele>4858</ele>
        <time>2015-09-05T03:00:43Z</time>
      </trkpt>
      <trkpt lat="33.78678" lon="77.59417">
        <ele>4857.8</ele>
        <time>2015-09-05T03:00:46Z</time>
      </trkpt>
      <trkpt lat="33.7868" lon="77.59418">
        <ele>4857.8</ele>
        <time>2015-09-05T03:00:49Z</time>
      </trkpt>
      <trkpt lat="33.78687" lon="77.59417">
        <ele>4857.4</ele>
        <time>2015-09-05T03:01:01Z</time>
      </trkpt>
      <trkpt lat="33.78689" lon="77.59417">
        <ele>4857.6</ele>
        <time>2015-09-05T03:01:03Z</time>
      </trkpt>
      <trkpt lat="33.78693" lon="77.59427">
        <ele>4857.4</ele>
        <time>2015-09-05T03:01:15Z</time>
      </trkpt>
      <trkpt lat="33.78693" lon="77.5943">
        <ele>4857.2</ele>
        <time>2015-09-05T03:01:17Z</time>
      </trkpt>
      <trkpt lat="33.78694" lon="77.59432">
        <ele>4857</ele>
        <time>2015-09-05T03:01:19Z</time>
      </trkpt>
      <trkpt lat="33.78689" lon="77.59448">
        <ele>4857.8</ele>
        <time>2015-09-05T03:01:33Z</time>
      </trkpt>
      <trkpt lat="33.7869" lon="77.59455">
        <ele>4858</ele>
        <time>2015-09-05T03:01:43Z</time>
      </trkpt>
      <trkpt lat="33.78686" lon="77.59477">
        <ele>4858.6</ele>
        <time>2015-09-05T03:01:59Z</time>
      </trkpt>
      <trkpt lat="33.78685" lon="77.59489">
        <ele>4859</ele>
        <time>2015-09-05T03:02:11Z</time>
      </trkpt>
      <trkpt lat="33.78679" lon="77.595">
        <ele>4859</ele>
        <time>2015-09-05T03:02:22Z</time>
      </trkpt>
      <trkpt lat="33.78674" lon="77.59521">
        <ele>4859.4</ele>
        <time>2015-09-05T03:02:42Z</time>
      </trkpt>
      <trkpt lat="33.78673" lon="77.59525">
        <ele>4859.6</ele>
        <time>2015-09-05T03:02:44Z</time>
      </trkpt>
      <trkpt lat="33.78677" lon="77.59542">
        <ele>4860.2</ele>
        <time>2015-09-05T03:03:07Z</time>
      </trkpt>
      <trkpt lat="33.78679" lon="77.59554">
        <ele>4860.4</ele>
        <time>2015-09-05T03:03:19Z</time>
      </trkpt>
      <trkpt lat="33.78675" lon="77.59574">
        <ele>4860.8</ele>
        <time>2015-09-05T03:03:42Z</time>
      </trkpt>
      <trkpt lat="33.78675" lon="77.59587">
        <ele>4860.8</ele>
        <time>2015-09-05T03:03:57Z</time>
      </trkpt>
      <trkpt lat="33.7867" lon="77.59593">
        <ele>4861</ele>
        <time>2015-09-05T03:04:04Z</time>
      </trkpt>
      <trkpt lat="33.78662" lon="77.59604">
        <ele>4861.2</ele>
        <time>2015-09-05T03:04:14Z</time>
      </trkpt>
      <trkpt lat="33.78653" lon="77.5962">
        <ele>4862.2</ele>
        <time>2015-09-05T03:04:36Z</time>
      </trkpt>
      <trkpt lat="33.78643" lon="77.59638">
        <ele>4862.8</ele>
        <time>2015-09-05T03:04:53Z</time>
      </trkpt>
      <trkpt lat="33.78643" lon="77.59639">
        <ele>4862.8</ele>
        <time>2015-09-05T03:04:54Z</time>
      </trkpt>
      <trkpt lat="33.78633" lon="77.59645">
        <ele>4863.2</ele>
        <time>2015-09-05T03:05:11Z</time>
      </trkpt>
      <trkpt lat="33.78629" lon="77.59661">
        <ele>4863.8</ele>
        <time>2015-09-05T03:05:20Z</time>
      </trkpt>
      <trkpt lat="33.78622" lon="77.59669">
        <ele>4864</ele>
        <time>2015-09-05T03:05:33Z</time>
      </trkpt>
      <trkpt lat="33.78617" lon="77.59674">
        <ele>4864</ele>
        <time>2015-09-05T03:05:38Z</time>
      </trkpt>
      <trkpt lat="33.78611" lon="77.59686">
        <ele>4864.2</ele>
        <time>2015-09-05T03:05:48Z</time>
      </trkpt>
      <trkpt lat="33.78608" lon="77.5969">
        <ele>4864.4</ele>
        <time>2015-09-05T03:05:54Z</time>
      </trkpt>
      <trkpt lat="33.786" lon="77.59702">
        <ele>4864.4</ele>
        <time>2015-09-05T03:06:09Z</time>
      </trkpt>
      <trkpt lat="33.78598" lon="77.59705">
        <ele>4864.4</ele>
        <time>2015-09-05T03:06:13Z</time>
      </trkpt>
      <trkpt lat="33.78596" lon="77.59707">
        <ele>4864.2</ele>
        <time>2015-09-05T03:06:21Z</time>
      </trkpt>
      <trkpt lat="33.78592" lon="77.59712">
        <ele>4864.6</ele>
        <time>2015-09-05T03:06:28Z</time>
      </trkpt>
      <trkpt lat="33.78588" lon="77.59724">
        <ele>4864.8</ele>
        <time>2015-09-05T03:06:35Z</time>
      </trkpt>
      <trkpt lat="33.78587" lon="77.59727">
        <ele>4864.8</ele>
        <time>2015-09-05T03:06:37Z</time>
      </trkpt>
      <trkpt lat="33.78586" lon="77.5973">
        <ele>4864.8</ele>
        <time>2015-09-05T03:06:39Z</time>
      </trkpt>
      <trkpt lat="33.78585" lon="77.59732">
        <ele>4864.8</ele>
        <time>2015-09-05T03:06:41Z</time>
      </trkpt>
      <trkpt lat="33.78585" lon="77.59734">
        <ele>4865</ele>
        <time>2015-09-05T03:06:43Z</time>
      </trkpt>
      <trkpt lat="33.78582" lon="77.59736">
        <ele>4865.2</ele>
        <time>2015-09-05T03:06:46Z</time>
      </trkpt>
      <trkpt lat="33.78568" lon="77.59749">
        <ele>4864.8</ele>
        <time>2015-09-05T03:07:17Z</time>
      </trkpt>
      <trkpt lat="33.78565" lon="77.59762">
        <ele>4865.4</ele>
        <time>2015-09-05T03:07:21Z</time>
      </trkpt>
      <trkpt lat="33.78562" lon="77.5977">
        <ele>4866.4</ele>
        <time>2015-09-05T03:07:26Z</time>
      </trkpt>
      <trkpt lat="33.7856" lon="77.59774">
        <ele>4866.6</ele>
        <time>2015-09-05T03:07:29Z</time>
      </trkpt>
      <trkpt lat="33.78557" lon="77.59778">
        <ele>4866.8</ele>
        <time>2015-09-05T03:07:32Z</time>
      </trkpt>
      <trkpt lat="33.78555" lon="77.59781">
        <ele>4866.4</ele>
        <time>2015-09-05T03:07:36Z</time>
      </trkpt>
      <trkpt lat="33.78546" lon="77.59791">
        <ele>4865.8</ele>
        <time>2015-09-05T03:07:55Z</time>
      </trkpt>
      <trkpt lat="33.78544" lon="77.59794">
        <ele>4866.2</ele>
        <time>2015-09-05T03:07:59Z</time>
      </trkpt>
      <trkpt lat="33.78534" lon="77.59813">
        <ele>4866.6</ele>
        <time>2015-09-05T03:08:18Z</time>
      </trkpt>
      <trkpt lat="33.7853" lon="77.5982">
        <ele>4866.8</ele>
        <time>2015-09-05T03:08:26Z</time>
      </trkpt>
      <trkpt lat="33.78528" lon="77.59824">
        <ele>4866.8</ele>
        <time>2015-09-05T03:08:30Z</time>
      </trkpt>
      <trkpt lat="33.78523" lon="77.59846">
        <ele>4867</ele>
        <time>2015-09-05T03:08:51Z</time>
      </trkpt>
      <trkpt lat="33.78517" lon="77.59854">
        <ele>4867.4</ele>
        <time>2015-09-05T03:09:04Z</time>
      </trkpt>
      <trkpt lat="33.78505" lon="77.59868">
        <ele>4868.6</ele>
        <time>2015-09-05T03:09:33Z</time>
      </trkpt>
      <trkpt lat="33.78502" lon="77.59876">
        <ele>4868.8</ele>
        <time>2015-09-05T03:09:41Z</time>
      </trkpt>
      <trkpt lat="33.785" lon="77.59881">
        <ele>4868.8</ele>
        <time>2015-09-05T03:09:45Z</time>
      </trkpt>
      <trkpt lat="33.78499" lon="77.59881">
        <ele>4868.8</ele>
        <time>2015-09-05T03:09:47Z</time>
      </trkpt>
      <trkpt lat="33.78487" lon="77.59886">
        <ele>4869</ele>
        <time>2015-09-05T03:10:03Z</time>
      </trkpt>
      <trkpt lat="33.7848" lon="77.59911">
        <ele>4869.4</ele>
        <time>2015-09-05T03:10:40Z</time>
      </trkpt>
      <trkpt lat="33.78463" lon="77.59919">
        <ele>4869.4</ele>
        <time>2015-09-05T03:11:06Z</time>
      </trkpt>
      <trkpt lat="33.78456" lon="77.59938">
        <ele>4869.6</ele>
        <time>2015-09-05T03:11:15Z</time>
      </trkpt>
      <trkpt lat="33.78454" lon="77.5994">
        <ele>4869.6</ele>
        <time>2015-09-05T03:11:19Z</time>
      </trkpt>
      <trkpt lat="33.78451" lon="77.5994">
        <ele>4869.6</ele>
        <time>2015-09-05T03:11:22Z</time>
      </trkpt>
      <trkpt lat="33.7845" lon="77.59942">
        <ele>4869.6</ele>
        <time>2015-09-05T03:11:24Z</time>
      </trkpt>
      <trkpt lat="33.78449" lon="77.59944">
        <ele>4869.6</ele>
        <time>2015-09-05T03:11:27Z</time>
      </trkpt>
      <trkpt lat="33.7844" lon="77.59956">
        <ele>4869.6</ele>
        <time>2015-09-05T03:11:42Z</time>
      </trkpt>
      <trkpt lat="33.78433" lon="77.59968">
        <ele>4870.4</ele>
        <time>2015-09-05T03:11:55Z</time>
      </trkpt>
      <trkpt lat="33.78431" lon="77.59971">
        <ele>4870.4</ele>
        <time>2015-09-05T03:11:57Z</time>
      </trkpt>
      <trkpt lat="33.78425" lon="77.5998">
        <ele>4870.6</ele>
        <time>2015-09-05T03:12:06Z</time>
      </trkpt>
      <trkpt lat="33.78421" lon="77.59985">
        <ele>4871</ele>
        <time>2015-09-05T03:12:16Z</time>
      </trkpt>
      <trkpt lat="33.78415" lon="77.60001">
        <ele>4871.4</ele>
        <time>2015-09-05T03:12:28Z</time>
      </trkpt>
      <trkpt lat="33.78415" lon="77.60005">
        <ele>4871.6</ele>
        <time>2015-09-05T03:12:30Z</time>
      </trkpt>
      <trkpt lat="33.78415" lon="77.60012">
        <ele>4871.6</ele>
        <time>2015-09-05T03:12:41Z</time>
      </trkpt>
      <trkpt lat="33.78414" lon="77.60015">
        <ele>4871.8</ele>
        <time>2015-09-05T03:12:47Z</time>
      </trkpt>
      <trkpt lat="33.78413" lon="77.60016">
        <ele>4872</ele>
        <time>2015-09-05T03:12:49Z</time>
      </trkpt>
      <trkpt lat="33.78406" lon="77.6003">
        <ele>4872.6</ele>
        <time>2015-09-05T03:13:07Z</time>
      </trkpt>
      <trkpt lat="33.78403" lon="77.60037">
        <ele>4872.8</ele>
        <time>2015-09-05T03:13:14Z</time>
      </trkpt>
      <trkpt lat="33.78402" lon="77.60039">
        <ele>4872.6</ele>
        <time>2015-09-05T03:13:16Z</time>
      </trkpt>
      <trkpt lat="33.784" lon="77.60047">
        <ele>4872.8</ele>
        <time>2015-09-05T03:13:25Z</time>
      </trkpt>
      <trkpt lat="33.7839" lon="77.60063">
        <ele>4873.4</ele>
        <time>2015-09-05T03:13:45Z</time>
      </trkpt>
      <trkpt lat="33.7838" lon="77.60069">
        <ele>4873.6</ele>
        <time>2015-09-05T03:14:03Z</time>
      </trkpt>
      <trkpt lat="33.78379" lon="77.60069">
        <ele>4873.6</ele>
        <time>2015-09-05T03:14:04Z</time>
      </trkpt>
      <trkpt lat="33.78373" lon="77.60076">
        <ele>4873.8</ele>
        <time>2015-09-05T03:14:18Z</time>
      </trkpt>
      <trkpt lat="33.78362" lon="77.60094">
        <ele>4874.4</ele>
        <time>2015-09-05T03:14:39Z</time>
      </trkpt>
      <trkpt lat="33.78358" lon="77.60099">
        <ele>4874.6</ele>
        <time>2015-09-05T03:14:43Z</time>
      </trkpt>
      <trkpt lat="33.78358" lon="77.601">
        <ele>4874.6</ele>
        <time>2015-09-05T03:14:44Z</time>
      </trkpt>
      <trkpt lat="33.78356" lon="77.601">
        <ele>4874.8</ele>
        <time>2015-09-05T03:14:47Z</time>
      </trkpt>
      <trkpt lat="33.78341" lon="77.60114">
        <ele>4875.4</ele>
        <time>2015-09-05T03:15:15Z</time>
      </trkpt>
      <trkpt lat="33.78341" lon="77.60115">
        <ele>4875.4</ele>
        <time>2015-09-05T03:15:16Z</time>
      </trkpt>
      <trkpt lat="33.78328" lon="77.6013">
        <ele>4875.2</ele>
        <time>2015-09-05T03:15:35Z</time>
      </trkpt>
      <trkpt lat="33.7832" lon="77.60145">
        <ele>4875.6</ele>
        <time>2015-09-05T03:15:50Z</time>
      </trkpt>
      <trkpt lat="33.78318" lon="77.60148">
        <ele>4875.6</ele>
        <time>2015-09-05T03:15:52Z</time>
      </trkpt>
      <trkpt lat="33.78313" lon="77.60155">
        <ele>4876</ele>
        <time>2015-09-05T03:16:03Z</time>
      </trkpt>
      <trkpt lat="33.78306" lon="77.60161">
        <ele>4876.4</ele>
        <time>2015-09-05T03:16:17Z</time>
      </trkpt>
      <trkpt lat="33.78296" lon="77.6018">
        <ele>4876.6</ele>
        <time>2015-09-05T03:16:33Z</time>
      </trkpt>
      <trkpt lat="33.78291" lon="77.60187">
        <ele>4876.8</ele>
        <time>2015-09-05T03:16:36Z</time>
      </trkpt>
      <trkpt lat="33.78292" lon="77.60194">
        <ele>4876.8</ele>
        <time>2015-09-05T03:16:40Z</time>
      </trkpt>
      <trkpt lat="33.78285" lon="77.60213">
        <ele>4877.8</ele>
        <time>2015-09-05T03:17:07Z</time>
      </trkpt>
      <trkpt lat="33.78277" lon="77.60223">
        <ele>4878.8</ele>
        <time>2015-09-05T03:17:25Z</time>
      </trkpt>
      <trkpt lat="33.78272" lon="77.60237">
        <ele>4880</ele>
        <time>2015-09-05T03:17:46Z</time>
      </trkpt>
      <trkpt lat="33.7827" lon="77.60245">
        <ele>4880.6</ele>
        <time>2015-09-05T03:17:53Z</time>
      </trkpt>
      <trkpt lat="33.78268" lon="77.60253">
        <ele>4881</ele>
        <time>2015-09-05T03:18:00Z</time>
      </trkpt>
      <trkpt lat="33.78267" lon="77.60254">
        <ele>4881.2</ele>
        <time>2015-09-05T03:18:02Z</time>
      </trkpt>
      <trkpt lat="33.78264" lon="77.60262">
        <ele>4881.4</ele>
        <time>2015-09-05T03:18:10Z</time>
      </trkpt>
      <trkpt lat="33.78264" lon="77.60263">
        <ele>4881.6</ele>
        <time>2015-09-05T03:18:12Z</time>
      </trkpt>
      <trkpt lat="33.78262" lon="77.60267">
        <ele>4881.8</ele>
        <time>2015-09-05T03:18:17Z</time>
      </trkpt>
      <trkpt lat="33.78263" lon="77.60281">
        <ele>4881.6</ele>
        <time>2015-09-05T03:18:29Z</time>
      </trkpt>
      <trkpt lat="33.78261" lon="77.60283">
        <ele>4882</ele>
        <time>2015-09-05T03:18:33Z</time>
      </trkpt>
      <trkpt lat="33.78259" lon="77.60295">
        <ele>4883</ele>
        <time>2015-09-05T03:18:48Z</time>
      </trkpt>
      <trkpt lat="33.78258" lon="77.60307">
        <ele>4884.2</ele>
        <time>2015-09-05T03:19:05Z</time>
      </trkpt>
      <trkpt lat="33.78247" lon="77.60316">
        <ele>4885.2</ele>
        <time>2015-09-05T03:19:30Z</time>
      </trkpt>
      <trkpt lat="33.78246" lon="77.60319">
        <ele>4885.4</ele>
        <time>2015-09-05T03:19:33Z</time>
      </trkpt>
      <trkpt lat="33.78242" lon="77.60328">
        <ele>4885.2</ele>
        <time>2015-09-05T03:19:40Z</time>
      </trkpt>
      <trkpt lat="33.78239" lon="77.60329">
        <ele>4885.4</ele>
        <time>2015-09-05T03:19:44Z</time>
      </trkpt>
      <trkpt lat="33.7823" lon="77.60345">
        <ele>4886.2</ele>
        <time>2015-09-05T03:20:05Z</time>
      </trkpt>
      <trkpt lat="33.78217" lon="77.60361">
        <ele>4887</ele>
        <time>2015-09-05T03:20:33Z</time>
      </trkpt>
      <trkpt lat="33.78216" lon="77.60365">
        <ele>4887.2</ele>
        <time>2015-09-05T03:20:35Z</time>
      </trkpt>
      <trkpt lat="33.78206" lon="77.60383">
        <ele>4888</ele>
        <time>2015-09-05T03:21:00Z</time>
      </trkpt>
      <trkpt lat="33.78203" lon="77.60385">
        <ele>4888</ele>
        <time>2015-09-05T03:21:11Z</time>
      </trkpt>
      <trkpt lat="33.78202" lon="77.60388">
        <ele>4888</ele>
        <time>2015-09-05T03:21:14Z</time>
      </trkpt>
      <trkpt lat="33.78199" lon="77.60391">
        <ele>4888.2</ele>
        <time>2015-09-05T03:21:21Z</time>
      </trkpt>
      <trkpt lat="33.78191" lon="77.60404">
        <ele>4888.6</ele>
        <time>2015-09-05T03:21:38Z</time>
      </trkpt>
      <trkpt lat="33.78189" lon="77.60414">
        <ele>4888.8</ele>
        <time>2015-09-05T03:21:45Z</time>
      </trkpt>
      <trkpt lat="33.78181" lon="77.60426">
        <ele>4889.2</ele>
        <time>2015-09-05T03:21:58Z</time>
      </trkpt>
      <trkpt lat="33.78172" lon="77.60435">
        <ele>4890.2</ele>
        <time>2015-09-05T03:22:22Z</time>
      </trkpt>
      <trkpt lat="33.78167" lon="77.60447">
        <ele>4891.4</ele>
        <time>2015-09-05T03:22:36Z</time>
      </trkpt>
      <trkpt lat="33.78162" lon="77.6046">
        <ele>4892</ele>
        <time>2015-09-05T03:22:48Z</time>
      </trkpt>
      <trkpt lat="33.78161" lon="77.60462">
        <ele>4892.2</ele>
        <time>2015-09-05T03:22:50Z</time>
      </trkpt>
      <trkpt lat="33.78161" lon="77.60464">
        <ele>4892.4</ele>
        <time>2015-09-05T03:22:53Z</time>
      </trkpt>
      <trkpt lat="33.78158" lon="77.60469">
        <ele>4892.8</ele>
        <time>2015-09-05T03:22:59Z</time>
      </trkpt>
      <trkpt lat="33.78149" lon="77.60475">
        <ele>4893.4</ele>
        <time>2015-09-05T03:23:21Z</time>
      </trkpt>
      <trkpt lat="33.7814" lon="77.60492">
        <ele>4894.2</ele>
        <time>2015-09-05T03:23:40Z</time>
      </trkpt>
      <trkpt lat="33.78132" lon="77.60507">
        <ele>4894.4</ele>
        <time>2015-09-05T03:23:57Z</time>
      </trkpt>
      <trkpt lat="33.7813" lon="77.60508">
        <ele>4894.4</ele>
        <time>2015-09-05T03:23:59Z</time>
      </trkpt>
      <trkpt lat="33.78127" lon="77.60511">
        <ele>4894.4</ele>
        <time>2015-09-05T03:24:03Z</time>
      </trkpt>
      <trkpt lat="33.78126" lon="77.6052">
        <ele>4895</ele>
        <time>2015-09-05T03:24:11Z</time>
      </trkpt>
      <trkpt lat="33.78125" lon="77.6053">
        <ele>4895</ele>
        <time>2015-09-05T03:24:15Z</time>
      </trkpt>
      <trkpt lat="33.78123" lon="77.60538">
        <ele>4895.4</ele>
        <time>2015-09-05T03:24:24Z</time>
      </trkpt>
      <trkpt lat="33.78122" lon="77.60538">
        <ele>4895.4</ele>
        <time>2015-09-05T03:24:25Z</time>
      </trkpt>
      <trkpt lat="33.78119" lon="77.60541">
        <ele>4895.8</ele>
        <time>2015-09-05T03:24:30Z</time>
      </trkpt>
      <trkpt lat="33.78113" lon="77.60541">
        <ele>4896.6</ele>
        <time>2015-09-05T03:24:42Z</time>
      </trkpt>
      <trkpt lat="33.781" lon="77.60556">
        <ele>4897.6</ele>
        <time>2015-09-05T03:24:59Z</time>
      </trkpt>
      <trkpt lat="33.78099" lon="77.60556">
        <ele>4897.6</ele>
        <time>2015-09-05T03:25:00Z</time>
      </trkpt>
      <trkpt lat="33.78095" lon="77.60555">
        <ele>4898.2</ele>
        <time>2015-09-05T03:25:07Z</time>
      </trkpt>
      <trkpt lat="33.78099" lon="77.60561">
        <ele>4898.4</ele>
        <time>2015-09-05T03:25:33Z</time>
      </trkpt>
      <trkpt lat="33.78102" lon="77.60567">
        <ele>4898.6</ele>
        <time>2015-09-05T03:25:40Z</time>
      </trkpt>
      <trkpt lat="33.781" lon="77.60568">
        <ele>4898.6</ele>
        <time>2015-09-05T03:25:41Z</time>
      </trkpt>
      <trkpt lat="33.78098" lon="77.6057">
        <ele>4898.8</ele>
        <time>2015-09-05T03:25:44Z</time>
      </trkpt>
      <trkpt lat="33.78096" lon="77.60571">
        <ele>4899</ele>
        <time>2015-09-05T03:25:46Z</time>
      </trkpt>
      <trkpt lat="33.78095" lon="77.60572">
        <ele>4899.2</ele>
        <time>2015-09-05T03:25:48Z</time>
      </trkpt>
      <trkpt lat="33.78093" lon="77.60573">
        <ele>4899.2</ele>
        <time>2015-09-05T03:25:50Z</time>
      </trkpt>
      <trkpt lat="33.78092" lon="77.60574">
        <ele>4899.2</ele>
        <time>2015-09-05T03:25:52Z</time>
      </trkpt>
      <trkpt lat="33.78091" lon="77.60576">
        <ele>4899.2</ele>
        <time>2015-09-05T03:25:54Z</time>
      </trkpt>
      <trkpt lat="33.7809" lon="77.60576">
        <ele>4899.4</ele>
        <time>2015-09-05T03:25:56Z</time>
      </trkpt>
      <trkpt lat="33.78088" lon="77.60576">
        <ele>4899.6</ele>
        <time>2015-09-05T03:25:59Z</time>
      </trkpt>
      <trkpt lat="33.78083" lon="77.60575">
        <ele>4899.8</ele>
        <time>2015-09-05T03:26:05Z</time>
      </trkpt>
      <trkpt lat="33.78078" lon="77.60581">
        <ele>4900</ele>
        <time>2015-09-05T03:26:13Z</time>
      </trkpt>
      <trkpt lat="33.78073" lon="77.60588">
        <ele>4900.8</ele>
        <time>2015-09-05T03:26:21Z</time>
      </trkpt>
      <trkpt lat="33.78071" lon="77.60589">
        <ele>4900.8</ele>
        <time>2015-09-05T03:26:24Z</time>
      </trkpt>
      <trkpt lat="33.78064" lon="77.60608">
        <ele>4901.6</ele>
        <time>2015-09-05T03:26:44Z</time>
      </trkpt>
      <trkpt lat="33.78063" lon="77.6061">
        <ele>4901.8</ele>
        <time>2015-09-05T03:26:46Z</time>
      </trkpt>
      <trkpt lat="33.78057" lon="77.60617">
        <ele>4902.8</ele>
        <time>2015-09-05T03:27:00Z</time>
      </trkpt>
      <trkpt lat="33.78048" lon="77.60624">
        <ele>4904</ele>
        <time>2015-09-05T03:27:16Z</time>
      </trkpt>
      <trkpt lat="33.78039" lon="77.60631">
        <ele>4905</ele>
        <time>2015-09-05T03:27:33Z</time>
      </trkpt>
      <trkpt lat="33.7803" lon="77.60648">
        <ele>4905.8</ele>
        <time>2015-09-05T03:27:49Z</time>
      </trkpt>
      <trkpt lat="33.7803" lon="77.6065">
        <ele>4905.8</ele>
        <time>2015-09-05T03:27:50Z</time>
      </trkpt>
      <trkpt lat="33.78029" lon="77.60652">
        <ele>4905.8</ele>
        <time>2015-09-05T03:27:52Z</time>
      </trkpt>
      <trkpt lat="33.78028" lon="77.60656">
        <ele>4906</ele>
        <time>2015-09-05T03:27:57Z</time>
      </trkpt>
      <trkpt lat="33.78014" lon="77.6067">
        <ele>4906.6</ele>
        <time>2015-09-05T03:28:18Z</time>
      </trkpt>
      <trkpt lat="33.78009" lon="77.60679">
        <ele>4907</ele>
        <time>2015-09-05T03:28:31Z</time>
      </trkpt>
      <trkpt lat="33.77999" lon="77.60683">
        <ele>4908.2</ele>
        <time>2015-09-05T03:28:45Z</time>
      </trkpt>
      <trkpt lat="33.77984" lon="77.60697">
        <ele>4909</ele>
        <time>2015-09-05T03:29:09Z</time>
      </trkpt>
      <trkpt lat="33.77982" lon="77.60699">
        <ele>4909.2</ele>
        <time>2015-09-05T03:29:12Z</time>
      </trkpt>
      <trkpt lat="33.77981" lon="77.607">
        <ele>4909</ele>
        <time>2015-09-05T03:29:13Z</time>
      </trkpt>
      <trkpt lat="33.77976" lon="77.60707">
        <ele>4909.8</ele>
        <time>2015-09-05T03:29:22Z</time>
      </trkpt>
      <trkpt lat="33.77974" lon="77.6071">
        <ele>4909.8</ele>
        <time>2015-09-05T03:29:25Z</time>
      </trkpt>
      <trkpt lat="33.77973" lon="77.60711">
        <ele>4909.8</ele>
        <time>2015-09-05T03:29:28Z</time>
      </trkpt>
      <trkpt lat="33.77968" lon="77.60716">
        <ele>4910.2</ele>
        <time>2015-09-05T03:29:37Z</time>
      </trkpt>
      <trkpt lat="33.77956" lon="77.60726">
        <ele>4910.6</ele>
        <time>2015-09-05T03:29:49Z</time>
      </trkpt>
      <trkpt lat="33.77951" lon="77.60733">
        <ele>4910.4</ele>
        <time>2015-09-05T03:29:54Z</time>
      </trkpt>
      <trkpt lat="33.77943" lon="77.6074">
        <ele>4911.2</ele>
        <time>2015-09-05T03:30:09Z</time>
      </trkpt>
      <trkpt lat="33.77929" lon="77.60753">
        <ele>4912.2</ele>
        <time>2015-09-05T03:30:36Z</time>
      </trkpt>
      <trkpt lat="33.77929" lon="77.60755">
        <ele>4912.2</ele>
        <time>2015-09-05T03:30:37Z</time>
      </trkpt>
      <trkpt lat="33.77928" lon="77.60759">
        <ele>4912.4</ele>
        <time>2015-09-05T03:30:39Z</time>
      </trkpt>
      <trkpt lat="33.77925" lon="77.60762">
        <ele>4912.6</ele>
        <time>2015-09-05T03:30:43Z</time>
      </trkpt>
      <trkpt lat="33.77923" lon="77.60764">
        <ele>4913</ele>
        <time>2015-09-05T03:30:47Z</time>
      </trkpt>
      <trkpt lat="33.77915" lon="77.60777">
        <ele>4913</ele>
        <time>2015-09-05T03:31:00Z</time>
      </trkpt>
      <trkpt lat="33.77913" lon="77.60781">
        <ele>4913.4</ele>
        <time>2015-09-05T03:31:04Z</time>
      </trkpt>
      <trkpt lat="33.7791" lon="77.60787">
        <ele>4913.6</ele>
        <time>2015-09-05T03:31:08Z</time>
      </trkpt>
      <trkpt lat="33.77906" lon="77.60791">
        <ele>4914</ele>
        <time>2015-09-05T03:31:16Z</time>
      </trkpt>
      <trkpt lat="33.77902" lon="77.60791">
        <ele>4914.4</ele>
        <time>2015-09-05T03:31:22Z</time>
      </trkpt>
      <trkpt lat="33.77899" lon="77.60795">
        <ele>4914.8</ele>
        <time>2015-09-05T03:31:28Z</time>
      </trkpt>
      <trkpt lat="33.77898" lon="77.60795">
        <ele>4914.6</ele>
        <time>2015-09-05T03:31:30Z</time>
      </trkpt>
      <trkpt lat="33.77892" lon="77.60809">
        <ele>4915.4</ele>
        <time>2015-09-05T03:31:46Z</time>
      </trkpt>
      <trkpt lat="33.7789" lon="77.6082">
        <ele>4915.4</ele>
        <time>2015-09-05T03:31:53Z</time>
      </trkpt>
      <trkpt lat="33.7789" lon="77.60824">
        <ele>4915.4</ele>
        <time>2015-09-05T03:31:55Z</time>
      </trkpt>
      <trkpt lat="33.77889" lon="77.60825">
        <ele>4915.4</ele>
        <time>2015-09-05T03:31:57Z</time>
      </trkpt>
      <trkpt lat="33.77887" lon="77.60826">
        <ele>4915.2</ele>
        <time>2015-09-05T03:31:59Z</time>
      </trkpt>
      <trkpt lat="33.77883" lon="77.60826">
        <ele>4915.4</ele>
        <time>2015-09-05T03:32:05Z</time>
      </trkpt>
      <trkpt lat="33.7788" lon="77.6083">
        <ele>4916.4</ele>
        <time>2015-09-05T03:32:12Z</time>
      </trkpt>
      <trkpt lat="33.77879" lon="77.60835">
        <ele>4916.8</ele>
        <time>2015-09-05T03:32:16Z</time>
      </trkpt>
      <trkpt lat="33.77877" lon="77.6084">
        <ele>4917.4</ele>
        <time>2015-09-05T03:32:26Z</time>
      </trkpt>
      <trkpt lat="33.77879" lon="77.60845">
        <ele>4917.6</ele>
        <time>2015-09-05T03:32:28Z</time>
      </trkpt>
      <trkpt lat="33.77868" lon="77.60862">
        <ele>4917.8</ele>
        <time>2015-09-05T03:32:40Z</time>
      </trkpt>
      <trkpt lat="33.77857" lon="77.60866">
        <ele>4917.8</ele>
        <time>2015-09-05T03:32:58Z</time>
      </trkpt>
      <trkpt lat="33.77853" lon="77.60869">
        <ele>4918</ele>
        <time>2015-09-05T03:33:04Z</time>
      </trkpt>
      <trkpt lat="33.77848" lon="77.60876">
        <ele>4918.4</ele>
        <time>2015-09-05T03:33:10Z</time>
      </trkpt>
      <trkpt lat="33.77844" lon="77.60878">
        <ele>4918.6</ele>
        <time>2015-09-05T03:33:16Z</time>
      </trkpt>
      <trkpt lat="33.77839" lon="77.60883">
        <ele>4919</ele>
        <time>2015-09-05T03:33:24Z</time>
      </trkpt>
      <trkpt lat="33.77837" lon="77.60883">
        <ele>4919</ele>
        <time>2015-09-05T03:33:26Z</time>
      </trkpt>
      <trkpt lat="33.77835" lon="77.60886">
        <ele>4919.2</ele>
        <time>2015-09-05T03:33:28Z</time>
      </trkpt>
      <trkpt lat="33.77834" lon="77.60889">
        <ele>4919.2</ele>
        <time>2015-09-05T03:33:30Z</time>
      </trkpt>
      <trkpt lat="33.77831" lon="77.609">
        <ele>4919.4</ele>
        <time>2015-09-05T03:33:41Z</time>
      </trkpt>
      <trkpt lat="33.77825" lon="77.60904">
        <ele>4919.6</ele>
        <time>2015-09-05T03:33:52Z</time>
      </trkpt>
      <trkpt lat="33.77817" lon="77.60913">
        <ele>4920.6</ele>
        <time>2015-09-05T03:34:10Z</time>
      </trkpt>
      <trkpt lat="33.77812" lon="77.60931">
        <ele>4921.4</ele>
        <time>2015-09-05T03:34:35Z</time>
      </trkpt>
      <trkpt lat="33.77809" lon="77.60936">
        <ele>4921.6</ele>
        <time>2015-09-05T03:34:40Z</time>
      </trkpt>
      <trkpt lat="33.77801" lon="77.60948">
        <ele>4922.6</ele>
        <time>2015-09-05T03:34:58Z</time>
      </trkpt>
      <trkpt lat="33.77795" lon="77.60956">
        <ele>4922.8</ele>
        <time>2015-09-05T03:35:09Z</time>
      </trkpt>
      <trkpt lat="33.77792" lon="77.60966">
        <ele>4923.8</ele>
        <time>2015-09-05T03:35:26Z</time>
      </trkpt>
      <trkpt lat="33.77789" lon="77.60974">
        <ele>4923.8</ele>
        <time>2015-09-05T03:35:35Z</time>
      </trkpt>
      <trkpt lat="33.77779" lon="77.60986">
        <ele>4925</ele>
        <time>2015-09-05T03:35:57Z</time>
      </trkpt>
      <trkpt lat="33.7777" lon="77.60997">
        <ele>4925.8</ele>
        <time>2015-09-05T03:36:13Z</time>
      </trkpt>
      <trkpt lat="33.77769" lon="77.60999">
        <ele>4926</ele>
        <time>2015-09-05T03:36:18Z</time>
      </trkpt>
      <trkpt lat="33.77769" lon="77.61009">
        <ele>4926.4</ele>
        <time>2015-09-05T03:36:23Z</time>
      </trkpt>
      <trkpt lat="33.77762" lon="77.61022">
        <ele>4927</ele>
        <time>2015-09-05T03:36:37Z</time>
      </trkpt>
      <trkpt lat="33.77755" lon="77.61026">
        <ele>4927</ele>
        <time>2015-09-05T03:36:46Z</time>
      </trkpt>
      <trkpt lat="33.77753" lon="77.61027">
        <ele>4927</ele>
        <time>2015-09-05T03:36:50Z</time>
      </trkpt>
      <trkpt lat="33.77742" lon="77.6103">
        <ele>4927.6</ele>
        <time>2015-09-05T03:37:04Z</time>
      </trkpt>
      <trkpt lat="33.7774" lon="77.61031">
        <ele>4927.6</ele>
        <time>2015-09-05T03:37:07Z</time>
      </trkpt>
      <trkpt lat="33.77734" lon="77.61035">
        <ele>4927.8</ele>
        <time>2015-09-05T03:37:15Z</time>
      </trkpt>
      <trkpt lat="33.77731" lon="77.61036">
        <ele>4928.2</ele>
        <time>2015-09-05T03:37:23Z</time>
      </trkpt>
      <trkpt lat="33.77723" lon="77.61045">
        <ele>4928</ele>
        <time>2015-09-05T03:37:33Z</time>
      </trkpt>
      <trkpt lat="33.7771" lon="77.61054">
        <ele>4927.4</ele>
        <time>2015-09-05T03:37:51Z</time>
      </trkpt>
      <trkpt lat="33.77705" lon="77.6106">
        <ele>4927.6</ele>
        <time>2015-09-05T03:37:58Z</time>
      </trkpt>
      <trkpt lat="33.777" lon="77.61064">
        <ele>4927.4</ele>
        <time>2015-09-05T03:38:05Z</time>
      </trkpt>
      <trkpt lat="33.77695" lon="77.61076">
        <ele>4927.8</ele>
        <time>2015-09-05T03:38:16Z</time>
      </trkpt>
      <trkpt lat="33.77681" lon="77.61089">
        <ele>4928</ele>
        <time>2015-09-05T03:38:45Z</time>
      </trkpt>
      <trkpt lat="33.77678" lon="77.61108">
        <ele>4928.8</ele>
        <time>2015-09-05T03:39:03Z</time>
      </trkpt>
      <trkpt lat="33.77674" lon="77.61111">
        <ele>4929.2</ele>
        <time>2015-09-05T03:39:10Z</time>
      </trkpt>
      <trkpt lat="33.77663" lon="77.6112">
        <ele>4929.6</ele>
        <time>2015-09-05T03:39:28Z</time>
      </trkpt>
      <trkpt lat="33.77657" lon="77.61129">
        <ele>4930.2</ele>
        <time>2015-09-05T03:39:42Z</time>
      </trkpt>
      <trkpt lat="33.77654" lon="77.61135">
        <ele>4930.4</ele>
        <time>2015-09-05T03:39:48Z</time>
      </trkpt>
      <trkpt lat="33.77649" lon="77.61143">
        <ele>4930.6</ele>
        <time>2015-09-05T03:40:00Z</time>
      </trkpt>
      <trkpt lat="33.77646" lon="77.61149">
        <ele>4930.4</ele>
        <time>2015-09-05T03:40:04Z</time>
      </trkpt>
      <trkpt lat="33.77645" lon="77.6115">
        <ele>4930.2</ele>
        <time>2015-09-05T03:40:06Z</time>
      </trkpt>
      <trkpt lat="33.77641" lon="77.6115">
        <ele>4930.2</ele>
        <time>2015-09-05T03:40:10Z</time>
      </trkpt>
      <trkpt lat="33.77637" lon="77.61151">
        <ele>4930</ele>
        <time>2015-09-05T03:40:15Z</time>
      </trkpt>
      <trkpt lat="33.77629" lon="77.61163">
        <ele>4931.2</ele>
        <time>2015-09-05T03:40:32Z</time>
      </trkpt>
      <trkpt lat="33.77627" lon="77.61169">
        <ele>4930.8</ele>
        <time>2015-09-05T03:40:37Z</time>
      </trkpt>
      <trkpt lat="33.77617" lon="77.61178">
        <ele>4931.2</ele>
        <time>2015-09-05T03:40:56Z</time>
      </trkpt>
      <trkpt lat="33.77612" lon="77.61181">
        <ele>4931.6</ele>
        <time>2015-09-05T03:41:04Z</time>
      </trkpt>
      <trkpt lat="33.77605" lon="77.61185">
        <ele>4932.2</ele>
        <time>2015-09-05T03:41:22Z</time>
      </trkpt>
      <trkpt lat="33.7761" lon="77.61186">
        <ele>4932.4</ele>
        <time>2015-09-05T03:41:30Z</time>
      </trkpt>
      <trkpt lat="33.7761" lon="77.61188">
        <ele>4932.8</ele>
        <time>2015-09-05T03:43:16Z</time>
      </trkpt>
      <trkpt lat="33.77607" lon="77.61187">
        <ele>4932.6</ele>
        <time>2015-09-05T03:43:29Z</time>
      </trkpt>
      <trkpt lat="33.77613" lon="77.61188">
        <ele>4933.2</ele>
        <time>2015-09-05T03:44:28Z</time>
      </trkpt>
      <trkpt lat="33.77611" lon="77.61182">
        <ele>4932.8</ele>
        <time>2015-09-05T03:44:36Z</time>
      </trkpt>
      <trkpt lat="33.77611" lon="77.61183">
        <ele>4933</ele>
        <time>2015-09-05T03:44:52Z</time>
      </trkpt>
      <trkpt lat="33.77613" lon="77.61189">
        <ele>4934</ele>
        <time>2015-09-05T03:46:45Z</time>
      </trkpt>
      <trkpt lat="33.77608" lon="77.61188">
        <ele>4933.4</ele>
        <time>2015-09-05T03:48:37Z</time>
      </trkpt>
      <trkpt lat="33.77603" lon="77.61191">
        <ele>4934</ele>
        <time>2015-09-05T03:48:44Z</time>
      </trkpt>
      <trkpt lat="33.77601" lon="77.61191">
        <ele>4934.2</ele>
        <time>2015-09-05T03:48:46Z</time>
      </trkpt>
      <trkpt lat="33.776" lon="77.61191">
        <ele>4934.2</ele>
        <time>2015-09-05T03:48:47Z</time>
      </trkpt>
      <trkpt lat="33.776" lon="77.61192">
        <ele>4934.2</ele>
        <time>2015-09-05T03:48:48Z</time>
      </trkpt>
      <trkpt lat="33.77598" lon="77.61193">
        <ele>4934.4</ele>
        <time>2015-09-05T03:48:53Z</time>
      </trkpt>
      <trkpt lat="33.77594" lon="77.61202">
        <ele>4934.4</ele>
        <time>2015-09-05T03:49:05Z</time>
      </trkpt>
      <trkpt lat="33.77592" lon="77.61206">
        <ele>4935.2</ele>
        <time>2015-09-05T03:49:14Z</time>
      </trkpt>
      <trkpt lat="33.77588" lon="77.61208">
        <ele>4936</ele>
        <time>2015-09-05T03:49:20Z</time>
      </trkpt>
      <trkpt lat="33.77587" lon="77.6121">
        <ele>4936.4</ele>
        <time>2015-09-05T03:49:26Z</time>
      </trkpt>
      <trkpt lat="33.77586" lon="77.61213">
        <ele>4936.6</ele>
        <time>2015-09-05T03:49:29Z</time>
      </trkpt>
      <trkpt lat="33.77578" lon="77.61227">
        <ele>4936.2</ele>
        <time>2015-09-05T03:49:46Z</time>
      </trkpt>
      <trkpt lat="33.77571" lon="77.6123">
        <ele>4937.4</ele>
        <time>2015-09-05T03:50:00Z</time>
      </trkpt>
      <trkpt lat="33.77563" lon="77.61238">
        <ele>4938.4</ele>
        <time>2015-09-05T03:50:18Z</time>
      </trkpt>
      <trkpt lat="33.77556" lon="77.6125">
        <ele>4939.2</ele>
        <time>2015-09-05T03:50:32Z</time>
      </trkpt>
      <trkpt lat="33.77555" lon="77.61254">
        <ele>4939.2</ele>
        <time>2015-09-05T03:50:35Z</time>
      </trkpt>
      <trkpt lat="33.77554" lon="77.61256">
        <ele>4939.2</ele>
        <time>2015-09-05T03:50:37Z</time>
      </trkpt>
      <trkpt lat="33.7755" lon="77.61259">
        <ele>4939.6</ele>
        <time>2015-09-05T03:50:43Z</time>
      </trkpt>
      <trkpt lat="33.77547" lon="77.61261">
        <ele>4939.8</ele>
        <time>2015-09-05T03:50:47Z</time>
      </trkpt>
      <trkpt lat="33.77538" lon="77.61266">
        <ele>4940.6</ele>
        <time>2015-09-05T03:51:05Z</time>
      </trkpt>
      <trkpt lat="33.77522" lon="77.61276">
        <ele>4941</ele>
        <time>2015-09-05T03:51:31Z</time>
      </trkpt>
      <trkpt lat="33.77518" lon="77.6128">
        <ele>4941.6</ele>
        <time>2015-09-05T03:51:39Z</time>
      </trkpt>
      <trkpt lat="33.77508" lon="77.61294">
        <ele>4942.6</ele>
        <time>2015-09-05T03:51:57Z</time>
      </trkpt>
      <trkpt lat="33.77499" lon="77.61311">
        <ele>4943.2</ele>
        <time>2015-09-05T03:52:17Z</time>
      </trkpt>
      <trkpt lat="33.77496" lon="77.61317">
        <ele>4943.4</ele>
        <time>2015-09-05T03:52:25Z</time>
      </trkpt>
      <trkpt lat="33.77492" lon="77.6132">
        <ele>4943.4</ele>
        <time>2015-09-05T03:52:29Z</time>
      </trkpt>
      <trkpt lat="33.77489" lon="77.61326">
        <ele>4943.6</ele>
        <time>2015-09-05T03:52:35Z</time>
      </trkpt>
      <trkpt lat="33.77489" lon="77.61326">
        <ele>4943.8</ele>
        <time>2015-09-05T03:52:36Z</time>
      </trkpt>
      <trkpt lat="33.77472" lon="77.61333">
        <ele>4944.4</ele>
        <time>2015-09-05T03:53:01Z</time>
      </trkpt>
      <trkpt lat="33.77469" lon="77.61336">
        <ele>4944.4</ele>
        <time>2015-09-05T03:53:04Z</time>
      </trkpt>
      <trkpt lat="33.77466" lon="77.61338">
        <ele>4944.8</ele>
        <time>2015-09-05T03:53:10Z</time>
      </trkpt>
      <trkpt lat="33.77461" lon="77.61342">
        <ele>4945.2</ele>
        <time>2015-09-05T03:53:18Z</time>
      </trkpt>
      <trkpt lat="33.77457" lon="77.61345">
        <ele>4945.8</ele>
        <time>2015-09-05T03:53:23Z</time>
      </trkpt>
      <trkpt lat="33.77456" lon="77.61346">
        <ele>4945.8</ele>
        <time>2015-09-05T03:53:24Z</time>
      </trkpt>
      <trkpt lat="33.77455" lon="77.61348">
        <ele>4945.8</ele>
        <time>2015-09-05T03:53:26Z</time>
      </trkpt>
      <trkpt lat="33.77452" lon="77.61351">
        <ele>4945.8</ele>
        <time>2015-09-05T03:53:29Z</time>
      </trkpt>
      <trkpt lat="33.77445" lon="77.61361">
        <ele>4946</ele>
        <time>2015-09-05T03:53:38Z</time>
      </trkpt>
      <trkpt lat="33.77441" lon="77.61365">
        <ele>4946.2</ele>
        <time>2015-09-05T03:53:44Z</time>
      </trkpt>
      <trkpt lat="33.7744" lon="77.6137">
        <ele>4946.8</ele>
        <time>2015-09-05T03:53:50Z</time>
      </trkpt>
      <trkpt lat="33.77435" lon="77.61374">
        <ele>4947.6</ele>
        <time>2015-09-05T03:54:01Z</time>
      </trkpt>
      <trkpt lat="33.77431" lon="77.61377">
        <ele>4948</ele>
        <time>2015-09-05T03:54:05Z</time>
      </trkpt>
      <trkpt lat="33.7743" lon="77.61377">
        <ele>4948.2</ele>
        <time>2015-09-05T03:54:06Z</time>
      </trkpt>
      <trkpt lat="33.77428" lon="77.61377">
        <ele>4948.4</ele>
        <time>2015-09-05T03:54:09Z</time>
      </trkpt>
      <trkpt lat="33.77425" lon="77.61381">
        <ele>4948.4</ele>
        <time>2015-09-05T03:54:14Z</time>
      </trkpt>
      <trkpt lat="33.77418" lon="77.61384">
        <ele>4949</ele>
        <time>2015-09-05T03:54:27Z</time>
      </trkpt>
      <trkpt lat="33.77404" lon="77.61389">
        <ele>4949.8</ele>
        <time>2015-09-05T03:54:50Z</time>
      </trkpt>
      <trkpt lat="33.774" lon="77.61393">
        <ele>4949.8</ele>
        <time>2015-09-05T03:54:54Z</time>
      </trkpt>
      <trkpt lat="33.77399" lon="77.61395">
        <ele>4949.8</ele>
        <time>2015-09-05T03:54:56Z</time>
      </trkpt>
      <trkpt lat="33.77397" lon="77.61397">
        <ele>4950</ele>
        <time>2015-09-05T03:54:59Z</time>
      </trkpt>
      <trkpt lat="33.77394" lon="77.614">
        <ele>4951.2</ele>
        <time>2015-09-05T03:55:07Z</time>
      </trkpt>
      <trkpt lat="33.77387" lon="77.61406">
        <ele>4952.2</ele>
        <time>2015-09-05T03:55:18Z</time>
      </trkpt>
      <trkpt lat="33.77373" lon="77.61415">
        <ele>4953.2</ele>
        <time>2015-09-05T03:55:43Z</time>
      </trkpt>
      <trkpt lat="33.77366" lon="77.61418">
        <ele>4954</ele>
        <time>2015-09-05T03:55:58Z</time>
      </trkpt>
      <trkpt lat="33.77357" lon="77.61424">
        <ele>4954.4</ele>
        <time>2015-09-05T03:56:14Z</time>
      </trkpt>
      <trkpt lat="33.77358" lon="77.61423">
        <ele>4955.4</ele>
        <time>2015-09-05T03:56:27Z</time>
      </trkpt>
      <trkpt lat="33.77347" lon="77.61431">
        <ele>4955.8</ele>
        <time>2015-09-05T03:57:04Z</time>
      </trkpt>
      <trkpt lat="33.77344" lon="77.61433">
        <ele>4955.8</ele>
        <time>2015-09-05T03:57:08Z</time>
      </trkpt>
      <trkpt lat="33.77336" lon="77.61437">
        <ele>4956.4</ele>
        <time>2015-09-05T03:57:22Z</time>
      </trkpt>
      <trkpt lat="33.7733" lon="77.61438">
        <ele>4956.2</ele>
        <time>2015-09-05T03:57:30Z</time>
      </trkpt>
      <trkpt lat="33.77328" lon="77.61439">
        <ele>4956</ele>
        <time>2015-09-05T03:57:33Z</time>
      </trkpt>
      <trkpt lat="33.77311" lon="77.61446">
        <ele>4956.8</ele>
        <time>2015-09-05T03:57:59Z</time>
      </trkpt>
      <trkpt lat="33.77302" lon="77.61448">
        <ele>4957.4</ele>
        <time>2015-09-05T03:58:10Z</time>
      </trkpt>
      <trkpt lat="33.77284" lon="77.61452">
        <ele>4958</ele>
        <time>2015-09-05T03:58:38Z</time>
      </trkpt>
      <trkpt lat="33.77266" lon="77.61453">
        <ele>4958.4</ele>
        <time>2015-09-05T03:59:01Z</time>
      </trkpt>
      <trkpt lat="33.77265" lon="77.61453">
        <ele>4958.6</ele>
        <time>2015-09-05T03:59:02Z</time>
      </trkpt>
      <trkpt lat="33.77257" lon="77.61457">
        <ele>4959</ele>
        <time>2015-09-05T03:59:12Z</time>
      </trkpt>
      <trkpt lat="33.77255" lon="77.61457">
        <ele>4959.2</ele>
        <time>2015-09-05T03:59:15Z</time>
      </trkpt>
      <trkpt lat="33.77251" lon="77.61457">
        <ele>4959.4</ele>
        <time>2015-09-05T03:59:20Z</time>
      </trkpt>
      <trkpt lat="33.77238" lon="77.61452">
        <ele>4960</ele>
        <time>2015-09-05T03:59:39Z</time>
      </trkpt>
      <trkpt lat="33.77235" lon="77.61454">
        <ele>4960.2</ele>
        <time>2015-09-05T03:59:42Z</time>
      </trkpt>
      <trkpt lat="33.77233" lon="77.61454">
        <ele>4960.4</ele>
        <time>2015-09-05T03:59:44Z</time>
      </trkpt>
      <trkpt lat="33.77229" lon="77.61455">
        <ele>4961.2</ele>
        <time>2015-09-05T03:59:48Z</time>
      </trkpt>
      <trkpt lat="33.77227" lon="77.61456">
        <ele>4961.6</ele>
        <time>2015-09-05T03:59:52Z</time>
      </trkpt>
      <trkpt lat="33.77223" lon="77.61458">
        <ele>4962</ele>
        <time>2015-09-05T03:59:58Z</time>
      </trkpt>
      <trkpt lat="33.77219" lon="77.61459">
        <ele>4962.2</ele>
        <time>2015-09-05T04:00:02Z</time>
      </trkpt>
      <trkpt lat="33.77217" lon="77.6146">
        <ele>4962.6</ele>
        <time>2015-09-05T04:00:06Z</time>
      </trkpt>
      <trkpt lat="33.77209" lon="77.61468">
        <ele>4963.4</ele>
        <time>2015-09-05T04:00:17Z</time>
      </trkpt>
      <trkpt lat="33.77204" lon="77.61472">
        <ele>4963.8</ele>
        <time>2015-09-05T04:00:22Z</time>
      </trkpt>
      <trkpt lat="33.77203" lon="77.61471">
        <ele>4964</ele>
        <time>2015-09-05T04:00:23Z</time>
      </trkpt>
      <trkpt lat="33.77201" lon="77.61471">
        <ele>4964</ele>
        <time>2015-09-05T04:00:25Z</time>
      </trkpt>
      <trkpt lat="33.77191" lon="77.61473">
        <ele>4964</ele>
        <time>2015-09-05T04:00:38Z</time>
      </trkpt>
      <trkpt lat="33.77184" lon="77.61475">
        <ele>4964.8</ele>
        <time>2015-09-05T04:00:48Z</time>
      </trkpt>
      <trkpt lat="33.77176" lon="77.61479">
        <ele>4965.8</ele>
        <time>2015-09-05T04:01:03Z</time>
      </trkpt>
      <trkpt lat="33.77175" lon="77.61481">
        <ele>4965.8</ele>
        <time>2015-09-05T04:01:05Z</time>
      </trkpt>
      <trkpt lat="33.77173" lon="77.61482">
        <ele>4966.4</ele>
        <time>2015-09-05T04:01:08Z</time>
      </trkpt>
      <trkpt lat="33.7717" lon="77.61485">
        <ele>4966.8</ele>
        <time>2015-09-05T04:01:12Z</time>
      </trkpt>
      <trkpt lat="33.77159" lon="77.61491">
        <ele>4968</ele>
        <time>2015-09-05T04:01:27Z</time>
      </trkpt>
      <trkpt lat="33.77149" lon="77.61492">
        <ele>4969</ele>
        <time>2015-09-05T04:01:40Z</time>
      </trkpt>
      <trkpt lat="33.7714" lon="77.61495">
        <ele>4970</ele>
        <time>2015-09-05T04:01:53Z</time>
      </trkpt>
      <trkpt lat="33.77135" lon="77.61498">
        <ele>4970.4</ele>
        <time>2015-09-05T04:02:00Z</time>
      </trkpt>
      <trkpt lat="33.77127" lon="77.61499">
        <ele>4971.2</ele>
        <time>2015-09-05T04:02:12Z</time>
      </trkpt>
      <trkpt lat="33.77118" lon="77.61506">
        <ele>4972</ele>
        <time>2015-09-05T04:02:27Z</time>
      </trkpt>
      <trkpt lat="33.77116" lon="77.61509">
        <ele>4972.2</ele>
        <time>2015-09-05T04:02:32Z</time>
      </trkpt>
      <trkpt lat="33.77099" lon="77.61515">
        <ele>4973.2</ele>
        <time>2015-09-05T04:02:57Z</time>
      </trkpt>
      <trkpt lat="33.77097" lon="77.61517">
        <ele>4973.2</ele>
        <time>2015-09-05T04:02:59Z</time>
      </trkpt>
      <trkpt lat="33.7708" lon="77.61524">
        <ele>4974.2</ele>
        <time>2015-09-05T04:03:23Z</time>
      </trkpt>
      <trkpt lat="33.77072" lon="77.61527">
        <ele>4975.4</ele>
        <time>2015-09-05T04:03:35Z</time>
      </trkpt>
      <trkpt lat="33.77067" lon="77.61527">
        <ele>4975.4</ele>
        <time>2015-09-05T04:03:42Z</time>
      </trkpt>
      <trkpt lat="33.7706" lon="77.61531">
        <ele>4975.6</ele>
        <time>2015-09-05T04:03:48Z</time>
      </trkpt>
      <trkpt lat="33.77059" lon="77.61532">
        <ele>4975.8</ele>
        <time>2015-09-05T04:03:50Z</time>
      </trkpt>
      <trkpt lat="33.77058" lon="77.61532">
        <ele>4976</ele>
        <time>2015-09-05T04:03:52Z</time>
      </trkpt>
      <trkpt lat="33.77056" lon="77.61533">
        <ele>4976.4</ele>
        <time>2015-09-05T04:03:55Z</time>
      </trkpt>
      <trkpt lat="33.77039" lon="77.61537">
        <ele>4976.8</ele>
        <time>2015-09-05T04:04:24Z</time>
      </trkpt>
      <trkpt lat="33.77036" lon="77.6154">
        <ele>4977.4</ele>
        <time>2015-09-05T04:04:29Z</time>
      </trkpt>
      <trkpt lat="33.77034" lon="77.61542">
        <ele>4977.6</ele>
        <time>2015-09-05T04:04:32Z</time>
      </trkpt>
      <trkpt lat="33.77032" lon="77.61544">
        <ele>4977.6</ele>
        <time>2015-09-05T04:04:34Z</time>
      </trkpt>
      <trkpt lat="33.77023" lon="77.61554">
        <ele>4978.2</ele>
        <time>2015-09-05T04:04:48Z</time>
      </trkpt>
      <trkpt lat="33.77022" lon="77.61556">
        <ele>4978.2</ele>
        <time>2015-09-05T04:04:50Z</time>
      </trkpt>
      <trkpt lat="33.77021" lon="77.61556">
        <ele>4978.4</ele>
        <time>2015-09-05T04:04:53Z</time>
      </trkpt>
      <trkpt lat="33.77012" lon="77.61562">
        <ele>4979.4</ele>
        <time>2015-09-05T04:05:09Z</time>
      </trkpt>
      <trkpt lat="33.77005" lon="77.61565">
        <ele>4980.4</ele>
        <time>2015-09-05T04:05:25Z</time>
      </trkpt>
      <trkpt lat="33.77002" lon="77.6157">
        <ele>4981.6</ele>
        <time>2015-09-05T04:05:34Z</time>
      </trkpt>
      <trkpt lat="33.77002" lon="77.61578">
        <ele>4982.6</ele>
        <time>2015-09-05T04:05:46Z</time>
      </trkpt>
      <trkpt lat="33.77001" lon="77.61582">
        <ele>4983</ele>
        <time>2015-09-05T04:05:49Z</time>
      </trkpt>
      <trkpt lat="33.76997" lon="77.6159">
        <ele>4983.8</ele>
        <time>2015-09-05T04:06:00Z</time>
      </trkpt>
      <trkpt lat="33.76992" lon="77.61596">
        <ele>4984</ele>
        <time>2015-09-05T04:06:08Z</time>
      </trkpt>
      <trkpt lat="33.76987" lon="77.61598">
        <ele>4984.6</ele>
        <time>2015-09-05T04:06:18Z</time>
      </trkpt>
      <trkpt lat="33.76982" lon="77.61599">
        <ele>4984.8</ele>
        <time>2015-09-05T04:06:23Z</time>
      </trkpt>
      <trkpt lat="33.76981" lon="77.616">
        <ele>4984.8</ele>
        <time>2015-09-05T04:06:24Z</time>
      </trkpt>
      <trkpt lat="33.7698" lon="77.616">
        <ele>4984.8</ele>
        <time>2015-09-05T04:06:26Z</time>
      </trkpt>
      <trkpt lat="33.76978" lon="77.616">
        <ele>4984.8</ele>
        <time>2015-09-05T04:06:28Z</time>
      </trkpt>
      <trkpt lat="33.76976" lon="77.616">
        <ele>4985.2</ele>
        <time>2015-09-05T04:06:32Z</time>
      </trkpt>
      <trkpt lat="33.76959" lon="77.61603">
        <ele>4985.8</ele>
        <time>2015-09-05T04:06:55Z</time>
      </trkpt>
      <trkpt lat="33.76952" lon="77.61615">
        <ele>4986.8</ele>
        <time>2015-09-05T04:07:12Z</time>
      </trkpt>
      <trkpt lat="33.76952" lon="77.6162">
        <ele>4987.2</ele>
        <time>2015-09-05T04:07:15Z</time>
      </trkpt>
      <trkpt lat="33.76948" lon="77.61628">
        <ele>4987.8</ele>
        <time>2015-09-05T04:07:33Z</time>
      </trkpt>
      <trkpt lat="33.7694" lon="77.61635">
        <ele>4988</ele>
        <time>2015-09-05T04:07:48Z</time>
      </trkpt>
      <trkpt lat="33.76933" lon="77.61648">
        <ele>4988.6</ele>
        <time>2015-09-05T04:08:02Z</time>
      </trkpt>
      <trkpt lat="33.7693" lon="77.61655">
        <ele>4988.8</ele>
        <time>2015-09-05T04:08:09Z</time>
      </trkpt>
      <trkpt lat="33.76929" lon="77.61656">
        <ele>4988.8</ele>
        <time>2015-09-05T04:08:10Z</time>
      </trkpt>
      <trkpt lat="33.76929" lon="77.61657">
        <ele>4989</ele>
        <time>2015-09-05T04:08:11Z</time>
      </trkpt>
      <trkpt lat="33.76925" lon="77.61662">
        <ele>4990</ele>
        <time>2015-09-05T04:08:26Z</time>
      </trkpt>
      <trkpt lat="33.76921" lon="77.61665">
        <ele>4991</ele>
        <time>2015-09-05T04:08:35Z</time>
      </trkpt>
      <trkpt lat="33.76916" lon="77.61668">
        <ele>4992.2</ele>
        <time>2015-09-05T04:08:45Z</time>
      </trkpt>
      <trkpt lat="33.76915" lon="77.61675">
        <ele>4992.4</ele>
        <time>2015-09-05T04:08:50Z</time>
      </trkpt>
      <trkpt lat="33.76913" lon="77.61676">
        <ele>4993.2</ele>
        <time>2015-09-05T04:08:56Z</time>
      </trkpt>
      <trkpt lat="33.76909" lon="77.61677">
        <ele>4993.8</ele>
        <time>2015-09-05T04:09:03Z</time>
      </trkpt>
      <trkpt lat="33.76905" lon="77.61683">
        <ele>4994.2</ele>
        <time>2015-09-05T04:09:10Z</time>
      </trkpt>
      <trkpt lat="33.76903" lon="77.61684">
        <ele>4995.2</ele>
        <time>2015-09-05T04:09:22Z</time>
      </trkpt>
      <trkpt lat="33.76896" lon="77.61692">
        <ele>4996.2</ele>
        <time>2015-09-05T04:09:34Z</time>
      </trkpt>
      <trkpt lat="33.76895" lon="77.61693">
        <ele>4996.4</ele>
        <time>2015-09-05T04:09:36Z</time>
      </trkpt>
      <trkpt lat="33.76889" lon="77.61702">
        <ele>4997.4</ele>
        <time>2015-09-05T04:09:53Z</time>
      </trkpt>
      <trkpt lat="33.76883" lon="77.61704">
        <ele>4998.4</ele>
        <time>2015-09-05T04:10:06Z</time>
      </trkpt>
      <trkpt lat="33.76881" lon="77.61705">
        <ele>4998.8</ele>
        <time>2015-09-05T04:10:10Z</time>
      </trkpt>
      <trkpt lat="33.76878" lon="77.61708">
        <ele>4999.4</ele>
        <time>2015-09-05T04:10:18Z</time>
      </trkpt>
      <trkpt lat="33.76873" lon="77.61715">
        <ele>5000.4</ele>
        <time>2015-09-05T04:10:29Z</time>
      </trkpt>
      <trkpt lat="33.76872" lon="77.61715">
        <ele>5000.4</ele>
        <time>2015-09-05T04:10:30Z</time>
      </trkpt>
      <trkpt lat="33.76866" lon="77.61721">
        <ele>5001.4</ele>
        <time>2015-09-05T04:10:43Z</time>
      </trkpt>
      <trkpt lat="33.76859" lon="77.61727">
        <ele>5002.4</ele>
        <time>2015-09-05T04:10:59Z</time>
      </trkpt>
      <trkpt lat="33.76852" lon="77.61731">
        <ele>5003.4</ele>
        <time>2015-09-05T04:11:17Z</time>
      </trkpt>
      <trkpt lat="33.76838" lon="77.61744">
        <ele>5004.6</ele>
        <time>2015-09-05T04:11:40Z</time>
      </trkpt>
      <trkpt lat="33.76833" lon="77.61748">
        <ele>5005.6</ele>
        <time>2015-09-05T04:11:50Z</time>
      </trkpt>
      <trkpt lat="33.76831" lon="77.61751">
        <ele>5006.6</ele>
        <time>2015-09-05T04:12:01Z</time>
      </trkpt>
      <trkpt lat="33.76827" lon="77.61755">
        <ele>5007.6</ele>
        <time>2015-09-05T04:12:14Z</time>
      </trkpt>
      <trkpt lat="33.76828" lon="77.61755">
        <ele>5007.8</ele>
        <time>2015-09-05T04:12:15Z</time>
      </trkpt>
      <trkpt lat="33.76824" lon="77.61761">
        <ele>5008.6</ele>
        <time>2015-09-05T04:12:27Z</time>
      </trkpt>
      <trkpt lat="33.76823" lon="77.61762">
        <ele>5008.8</ele>
        <time>2015-09-05T04:12:28Z</time>
      </trkpt>
      <trkpt lat="33.76823" lon="77.61763">
        <ele>5008.8</ele>
        <time>2015-09-05T04:12:29Z</time>
      </trkpt>
      <trkpt lat="33.76818" lon="77.61768">
        <ele>5009.8</ele>
        <time>2015-09-05T04:12:38Z</time>
      </trkpt>
      <trkpt lat="33.76813" lon="77.61773">
        <ele>5010.8</ele>
        <time>2015-09-05T04:12:50Z</time>
      </trkpt>
      <trkpt lat="33.76811" lon="77.61779">
        <ele>5011.8</ele>
        <time>2015-09-05T04:13:01Z</time>
      </trkpt>
      <trkpt lat="33.76808" lon="77.61781">
        <ele>5012.8</ele>
        <time>2015-09-05T04:13:09Z</time>
      </trkpt>
      <trkpt lat="33.76803" lon="77.61788">
        <ele>5013.8</ele>
        <time>2015-09-05T04:13:20Z</time>
      </trkpt>
      <trkpt lat="33.76799" lon="77.61796">
        <ele>5015</ele>
        <time>2015-09-05T04:13:33Z</time>
      </trkpt>
      <trkpt lat="33.76795" lon="77.61802">
        <ele>5016</ele>
        <time>2015-09-05T04:13:47Z</time>
      </trkpt>
      <trkpt lat="33.76789" lon="77.61808">
        <ele>5017</ele>
        <time>2015-09-05T04:14:01Z</time>
      </trkpt>
      <trkpt lat="33.76785" lon="77.61811">
        <ele>5018.2</ele>
        <time>2015-09-05T04:14:17Z</time>
      </trkpt>
      <trkpt lat="33.76784" lon="77.61822">
        <ele>5019.2</ele>
        <time>2015-09-05T04:14:31Z</time>
      </trkpt>
      <trkpt lat="33.7678" lon="77.61829">
        <ele>5020.2</ele>
        <time>2015-09-05T04:14:41Z</time>
      </trkpt>
      <trkpt lat="33.7678" lon="77.61831">
        <ele>5020.2</ele>
        <time>2015-09-05T04:14:43Z</time>
      </trkpt>
      <trkpt lat="33.76776" lon="77.6184">
        <ele>5021.2</ele>
        <time>2015-09-05T04:14:53Z</time>
      </trkpt>
      <trkpt lat="33.76771" lon="77.61845">
        <ele>5022.2</ele>
        <time>2015-09-05T04:15:02Z</time>
      </trkpt>
      <trkpt lat="33.76769" lon="77.61845">
        <ele>5023.2</ele>
        <time>2015-09-05T04:15:11Z</time>
      </trkpt>
      <trkpt lat="33.76769" lon="77.61846">
        <ele>5024.2</ele>
        <time>2015-09-05T04:15:19Z</time>
      </trkpt>
      <trkpt lat="33.76765" lon="77.61851">
        <ele>5024.8</ele>
        <time>2015-09-05T04:15:27Z</time>
      </trkpt>
      <trkpt lat="33.76765" lon="77.6185">
        <ele>5025.4</ele>
        <time>2015-09-05T04:15:31Z</time>
      </trkpt>
      <trkpt lat="33.76764" lon="77.61851">
        <ele>5026.4</ele>
        <time>2015-09-05T04:15:41Z</time>
      </trkpt>
      <trkpt lat="33.76757" lon="77.6186">
        <ele>5027.4</ele>
        <time>2015-09-05T04:15:58Z</time>
      </trkpt>
      <trkpt lat="33.76757" lon="77.61861">
        <ele>5028.6</ele>
        <time>2015-09-05T04:16:02Z</time>
      </trkpt>
      <trkpt lat="33.76755" lon="77.61858">
        <ele>5029.6</ele>
        <time>2015-09-05T04:16:10Z</time>
      </trkpt>
      <trkpt lat="33.76752" lon="77.6186">
        <ele>5029.8</ele>
        <time>2015-09-05T04:16:13Z</time>
      </trkpt>
      <trkpt lat="33.76749" lon="77.61861">
        <ele>5029.8</ele>
        <time>2015-09-05T04:16:15Z</time>
      </trkpt>
      <trkpt lat="33.76743" lon="77.61869">
        <ele>5030.6</ele>
        <time>2015-09-05T04:16:31Z</time>
      </trkpt>
      <trkpt lat="33.76746" lon="77.61868">
        <ele>5031.4</ele>
        <time>2015-09-05T04:17:29Z</time>
      </trkpt>
      <trkpt lat="33.76744" lon="77.6187">
        <ele>5031.2</ele>
        <time>2015-09-05T04:18:01Z</time>
      </trkpt>
      <trkpt lat="33.76744" lon="77.61869">
        <ele>5031.6</ele>
        <time>2015-09-05T04:18:37Z</time>
      </trkpt>
      <trkpt lat="33.76745" lon="77.6187">
        <ele>5031.2</ele>
        <time>2015-09-05T04:19:09Z</time>
      </trkpt>
      <trkpt lat="33.76742" lon="77.61873">
        <ele>5031.2</ele>
        <time>2015-09-05T04:19:37Z</time>
      </trkpt>
      <trkpt lat="33.76739" lon="77.61875">
        <ele>5031.6</ele>
        <time>2015-09-05T04:20:04Z</time>
      </trkpt>
      <trkpt lat="33.76732" lon="77.6188">
        <ele>5032.8</ele>
        <time>2015-09-05T04:20:18Z</time>
      </trkpt>
      <trkpt lat="33.76731" lon="77.61881">
        <ele>5033.8</ele>
        <time>2015-09-05T04:20:28Z</time>
      </trkpt>
      <trkpt lat="33.76732" lon="77.61878">
        <ele>5034</ele>
        <time>2015-09-05T04:21:07Z</time>
      </trkpt>
      <trkpt lat="33.76728" lon="77.61881">
        <ele>5033.6</ele>
        <time>2015-09-05T04:21:16Z</time>
      </trkpt>
      <trkpt lat="33.76721" lon="77.61888">
        <ele>5034.4</ele>
        <time>2015-09-05T04:21:24Z</time>
      </trkpt>
      <trkpt lat="33.76721" lon="77.61887">
        <ele>5034.4</ele>
        <time>2015-09-05T04:21:27Z</time>
      </trkpt>
      <trkpt lat="33.7672" lon="77.61888">
        <ele>5034.8</ele>
        <time>2015-09-05T04:21:30Z</time>
      </trkpt>
      <trkpt lat="33.7672" lon="77.61887">
        <ele>5036</ele>
        <time>2015-09-05T04:21:38Z</time>
      </trkpt>
      <trkpt lat="33.76721" lon="77.61889">
        <ele>5037</ele>
        <time>2015-09-05T04:22:01Z</time>
      </trkpt>
      <trkpt lat="33.76716" lon="77.61891">
        <ele>5038</ele>
        <time>2015-09-05T04:22:37Z</time>
      </trkpt>
      <trkpt lat="33.76717" lon="77.61893">
        <ele>5039.2</ele>
        <time>2015-09-05T04:22:43Z</time>
      </trkpt>
      <trkpt lat="33.76721" lon="77.61899">
        <ele>5040.2</ele>
        <time>2015-09-05T04:22:52Z</time>
      </trkpt>
      <trkpt lat="33.76721" lon="77.61901">
        <ele>5041.2</ele>
        <time>2015-09-05T04:23:00Z</time>
      </trkpt>
      <trkpt lat="33.76728" lon="77.61907">
        <ele>5042.2</ele>
        <time>2015-09-05T04:23:14Z</time>
      </trkpt>
      <trkpt lat="33.76724" lon="77.61909">
        <ele>5043.4</ele>
        <time>2015-09-05T04:23:23Z</time>
      </trkpt>
      <trkpt lat="33.76724" lon="77.61909">
        <ele>5044.6</ele>
        <time>2015-09-05T04:23:31Z</time>
      </trkpt>
      <trkpt lat="33.76726" lon="77.61911">
        <ele>5045.6</ele>
        <time>2015-09-05T04:23:40Z</time>
      </trkpt>
      <trkpt lat="33.76721" lon="77.6191">
        <ele>5046.4</ele>
        <time>2015-09-05T04:24:05Z</time>
      </trkpt>
      <trkpt lat="33.76721" lon="77.6191">
        <ele>5046.8</ele>
        <time>2015-09-05T04:24:07Z</time>
      </trkpt>
      <trkpt lat="33.76733" lon="77.61916">
        <ele>5047.8</ele>
        <time>2015-09-05T04:24:17Z</time>
      </trkpt>
      <trkpt lat="33.76734" lon="77.61918">
        <ele>5048.8</ele>
        <time>2015-09-05T04:24:26Z</time>
      </trkpt>
      <trkpt lat="33.76741" lon="77.61924">
        <ele>5049.8</ele>
        <time>2015-09-05T04:24:41Z</time>
      </trkpt>
      <trkpt lat="33.7674" lon="77.61927">
        <ele>5050.8</ele>
        <time>2015-09-05T04:24:52Z</time>
      </trkpt>
      <trkpt lat="33.76738" lon="77.61927">
        <ele>5052</ele>
        <time>2015-09-05T04:25:01Z</time>
      </trkpt>
      <trkpt lat="33.7675" lon="77.61927">
        <ele>5053</ele>
        <time>2015-09-05T04:25:17Z</time>
      </trkpt>
      <trkpt lat="33.76758" lon="77.61935">
        <ele>5053.8</ele>
        <time>2015-09-05T04:25:28Z</time>
      </trkpt>
      <trkpt lat="33.76761" lon="77.61937">
        <ele>5054</ele>
        <time>2015-09-05T04:25:30Z</time>
      </trkpt>
      <trkpt lat="33.76759" lon="77.61936">
        <ele>5055.2</ele>
        <time>2015-09-05T04:25:43Z</time>
      </trkpt>
      <trkpt lat="33.7676" lon="77.61937">
        <ele>5056.2</ele>
        <time>2015-09-05T04:25:53Z</time>
      </trkpt>
      <trkpt lat="33.7676" lon="77.61934">
        <ele>5057.4</ele>
        <time>2015-09-05T04:26:02Z</time>
      </trkpt>
      <trkpt lat="33.76767" lon="77.61938">
        <ele>5058.4</ele>
        <time>2015-09-05T04:26:12Z</time>
      </trkpt>
      <trkpt lat="33.76772" lon="77.61942">
        <ele>5059</ele>
        <time>2015-09-05T04:26:18Z</time>
      </trkpt>
      <trkpt lat="33.76772" lon="77.61942">
        <ele>5059.4</ele>
        <time>2015-09-05T04:26:23Z</time>
      </trkpt>
      <trkpt lat="33.76772" lon="77.61941">
        <ele>5060.4</ele>
        <time>2015-09-05T04:26:30Z</time>
      </trkpt>
      <trkpt lat="33.76775" lon="77.61946">
        <ele>5061</ele>
        <time>2015-09-05T04:26:36Z</time>
      </trkpt>
      <trkpt lat="33.76779" lon="77.6195">
        <ele>5061.6</ele>
        <time>2015-09-05T04:26:43Z</time>
      </trkpt>
      <trkpt lat="33.76778" lon="77.61949">
        <ele>5062.6</ele>
        <time>2015-09-05T04:26:54Z</time>
      </trkpt>
      <trkpt lat="33.76779" lon="77.61951">
        <ele>5063.6</ele>
        <time>2015-09-05T04:27:02Z</time>
      </trkpt>
      <trkpt lat="33.76775" lon="77.61956">
        <ele>5064.8</ele>
        <time>2015-09-05T04:27:14Z</time>
      </trkpt>
      <trkpt lat="33.7677" lon="77.61958">
        <ele>5065.8</ele>
        <time>2015-09-05T04:27:24Z</time>
      </trkpt>
      <trkpt lat="33.7677" lon="77.61959">
        <ele>5066.8</ele>
        <time>2015-09-05T04:27:32Z</time>
      </trkpt>
      <trkpt lat="33.76767" lon="77.61963">
        <ele>5067.8</ele>
        <time>2015-09-05T04:27:41Z</time>
      </trkpt>
      <trkpt lat="33.76766" lon="77.6197">
        <ele>5069</ele>
        <time>2015-09-05T04:27:54Z</time>
      </trkpt>
      <trkpt lat="33.76761" lon="77.61972">
        <ele>5069.6</ele>
        <time>2015-09-05T04:27:59Z</time>
      </trkpt>
      <trkpt lat="33.76761" lon="77.61974">
        <ele>5070</ele>
        <time>2015-09-05T04:28:03Z</time>
      </trkpt>
      <trkpt lat="33.76761" lon="77.61976">
        <ele>5071</ele>
        <time>2015-09-05T04:28:13Z</time>
      </trkpt>
      <trkpt lat="33.76766" lon="77.6198">
        <ele>5072.2</ele>
        <time>2015-09-05T04:28:24Z</time>
      </trkpt>
      <trkpt lat="33.76765" lon="77.61983">
        <ele>5073.2</ele>
        <time>2015-09-05T04:28:35Z</time>
      </trkpt>
      <trkpt lat="33.76765" lon="77.6199">
        <ele>5074.2</ele>
        <time>2015-09-05T04:28:46Z</time>
      </trkpt>
      <trkpt lat="33.76763" lon="77.61992">
        <ele>5075.2</ele>
        <time>2015-09-05T04:28:57Z</time>
      </trkpt>
      <trkpt lat="33.76762" lon="77.61997">
        <ele>5076.2</ele>
        <time>2015-09-05T04:29:09Z</time>
      </trkpt>
      <trkpt lat="33.76763" lon="77.62004">
        <ele>5077.4</ele>
        <time>2015-09-05T04:29:22Z</time>
      </trkpt>
      <trkpt lat="33.76762" lon="77.6201">
        <ele>5078.4</ele>
        <time>2015-09-05T04:29:35Z</time>
      </trkpt>
      <trkpt lat="33.76756" lon="77.62013">
        <ele>5079.4</ele>
        <time>2015-09-05T04:29:51Z</time>
      </trkpt>
      <trkpt lat="33.76752" lon="77.62016">
        <ele>5080.6</ele>
        <time>2015-09-05T04:29:58Z</time>
      </trkpt>
      <trkpt lat="33.76751" lon="77.62014">
        <ele>5081</ele>
        <time>2015-09-05T04:30:04Z</time>
      </trkpt>
      <trkpt lat="33.76751" lon="77.62017">
        <ele>5081.6</ele>
        <time>2015-09-05T04:30:09Z</time>
      </trkpt>
      <trkpt lat="33.7675" lon="77.62023">
        <ele>5082.6</ele>
        <time>2015-09-05T04:30:20Z</time>
      </trkpt>
      <trkpt lat="33.76745" lon="77.62028">
        <ele>5083.6</ele>
        <time>2015-09-05T04:30:32Z</time>
      </trkpt>
      <trkpt lat="33.76746" lon="77.62029">
        <ele>5084.8</ele>
        <time>2015-09-05T04:30:38Z</time>
      </trkpt>
      <trkpt lat="33.76745" lon="77.62031">
        <ele>5085.8</ele>
        <time>2015-09-05T04:30:49Z</time>
      </trkpt>
      <trkpt lat="33.76743" lon="77.62034">
        <ele>5086.8</ele>
        <time>2015-09-05T04:31:00Z</time>
      </trkpt>
      <trkpt lat="33.76744" lon="77.62041">
        <ele>5087.8</ele>
        <time>2015-09-05T04:31:10Z</time>
      </trkpt>
      <trkpt lat="33.76742" lon="77.62045">
        <ele>5088.8</ele>
        <time>2015-09-05T04:31:21Z</time>
      </trkpt>
      <trkpt lat="33.7674" lon="77.62048">
        <ele>5089.8</ele>
        <time>2015-09-05T04:31:32Z</time>
      </trkpt>
      <trkpt lat="33.76738" lon="77.6205">
        <ele>5090.8</ele>
        <time>2015-09-05T04:31:39Z</time>
      </trkpt>
      <trkpt lat="33.76743" lon="77.62053">
        <ele>5091.2</ele>
        <time>2015-09-05T04:31:43Z</time>
      </trkpt>
      <trkpt lat="33.76741" lon="77.62052">
        <ele>5092</ele>
        <time>2015-09-05T04:31:49Z</time>
      </trkpt>
      <trkpt lat="33.76742" lon="77.62056">
        <ele>5093</ele>
        <time>2015-09-05T04:31:59Z</time>
      </trkpt>
      <trkpt lat="33.76741" lon="77.6206">
        <ele>5094</ele>
        <time>2015-09-05T04:32:12Z</time>
      </trkpt>
      <trkpt lat="33.76744" lon="77.62064">
        <ele>5095</ele>
        <time>2015-09-05T04:32:24Z</time>
      </trkpt>
      <trkpt lat="33.76743" lon="77.62067">
        <ele>5096.4</ele>
        <time>2015-09-05T04:32:34Z</time>
      </trkpt>
      <trkpt lat="33.76747" lon="77.62072">
        <ele>5097.4</ele>
        <time>2015-09-05T04:32:43Z</time>
      </trkpt>
      <trkpt lat="33.76744" lon="77.62073">
        <ele>5098.6</ele>
        <time>2015-09-05T04:32:57Z</time>
      </trkpt>
      <trkpt lat="33.76747" lon="77.62074">
        <ele>5099.6</ele>
        <time>2015-09-05T04:33:03Z</time>
      </trkpt>
      <trkpt lat="33.7675" lon="77.62079">
        <ele>5100.8</ele>
        <time>2015-09-05T04:33:16Z</time>
      </trkpt>
      <trkpt lat="33.76758" lon="77.62083">
        <ele>5101.8</ele>
        <time>2015-09-05T04:33:26Z</time>
      </trkpt>
      <trkpt lat="33.76755" lon="77.62074">
        <ele>5102</ele>
        <time>2015-09-05T04:33:27Z</time>
      </trkpt>
      <trkpt lat="33.76755" lon="77.62073">
        <ele>5102</ele>
        <time>2015-09-05T04:33:29Z</time>
      </trkpt>
      <trkpt lat="33.76756" lon="77.62073">
        <ele>5102.2</ele>
        <time>2015-09-05T04:33:31Z</time>
      </trkpt>
      <trkpt lat="33.76757" lon="77.62075">
        <ele>5103</ele>
        <time>2015-09-05T04:33:39Z</time>
      </trkpt>
      <trkpt lat="33.76757" lon="77.62076">
        <ele>5104</ele>
        <time>2015-09-05T04:33:47Z</time>
      </trkpt>
      <trkpt lat="33.76764" lon="77.6208">
        <ele>5105.2</ele>
        <time>2015-09-05T04:33:55Z</time>
      </trkpt>
      <trkpt lat="33.76775" lon="77.62088">
        <ele>5105.6</ele>
        <time>2015-09-05T04:34:00Z</time>
      </trkpt>
      <trkpt lat="33.76777" lon="77.62083">
        <ele>5106.2</ele>
        <time>2015-09-05T04:34:09Z</time>
      </trkpt>
      <trkpt lat="33.76777" lon="77.62081">
        <ele>5106.8</ele>
        <time>2015-09-05T04:34:24Z</time>
      </trkpt>
      <trkpt lat="33.76779" lon="77.62082">
        <ele>5107.4</ele>
        <time>2015-09-05T04:34:30Z</time>
      </trkpt>
      <trkpt lat="33.76781" lon="77.62088">
        <ele>5108</ele>
        <time>2015-09-05T04:34:41Z</time>
      </trkpt>
      <trkpt lat="33.76783" lon="77.62088">
        <ele>5108.4</ele>
        <time>2015-09-05T04:34:45Z</time>
      </trkpt>
      <trkpt lat="33.76787" lon="77.62093">
        <ele>5109.6</ele>
        <time>2015-09-05T04:35:01Z</time>
      </trkpt>
      <trkpt lat="33.76787" lon="77.62094">
        <ele>5110.6</ele>
        <time>2015-09-05T04:35:10Z</time>
      </trkpt>
      <trkpt lat="33.76785" lon="77.62092">
        <ele>5111.6</ele>
        <time>2015-09-05T04:35:19Z</time>
      </trkpt>
      <trkpt lat="33.76787" lon="77.62093">
        <ele>5112.6</ele>
        <time>2015-09-05T04:35:26Z</time>
      </trkpt>
      <trkpt lat="33.76786" lon="77.62097">
        <ele>5113.8</ele>
        <time>2015-09-05T04:35:36Z</time>
      </trkpt>
      <trkpt lat="33.76788" lon="77.62101">
        <ele>5114</ele>
        <time>2015-09-05T04:35:39Z</time>
      </trkpt>
      <trkpt lat="33.76787" lon="77.62105">
        <ele>5114.8</ele>
        <time>2015-09-05T04:35:50Z</time>
      </trkpt>
      <trkpt lat="33.7678" lon="77.62107">
        <ele>5115.8</ele>
        <time>2015-09-05T04:36:00Z</time>
      </trkpt>
      <trkpt lat="33.76778" lon="77.62109">
        <ele>5117</ele>
        <time>2015-09-05T04:36:11Z</time>
      </trkpt>
      <trkpt lat="33.76774" lon="77.62111">
        <ele>5118</ele>
        <time>2015-09-05T04:36:20Z</time>
      </trkpt>
      <trkpt lat="33.7677" lon="77.62114">
        <ele>5119.2</ele>
        <time>2015-09-05T04:36:32Z</time>
      </trkpt>
      <trkpt lat="33.76764" lon="77.62123">
        <ele>5120.2</ele>
        <time>2015-09-05T04:36:59Z</time>
      </trkpt>
      <trkpt lat="33.76762" lon="77.62128">
        <ele>5121.4</ele>
        <time>2015-09-05T04:37:11Z</time>
      </trkpt>
      <trkpt lat="33.76763" lon="77.6213">
        <ele>5122.4</ele>
        <time>2015-09-05T04:37:17Z</time>
      </trkpt>
      <trkpt lat="33.76759" lon="77.62132">
        <ele>5123.6</ele>
        <time>2015-09-05T04:37:28Z</time>
      </trkpt>
      <trkpt lat="33.76757" lon="77.62134">
        <ele>5124.6</ele>
        <time>2015-09-05T04:37:36Z</time>
      </trkpt>
      <trkpt lat="33.7676" lon="77.62141">
        <ele>5125.6</ele>
        <time>2015-09-05T04:37:46Z</time>
      </trkpt>
      <trkpt lat="33.76771" lon="77.6215">
        <ele>5126.4</ele>
        <time>2015-09-05T04:37:52Z</time>
      </trkpt>
      <trkpt lat="33.7677" lon="77.62149">
        <ele>5126.8</ele>
        <time>2015-09-05T04:37:54Z</time>
      </trkpt>
      <trkpt lat="33.76765" lon="77.62147">
        <ele>5127</ele>
        <time>2015-09-05T04:37:58Z</time>
      </trkpt>
      <trkpt lat="33.76766" lon="77.62148">
        <ele>5127.8</ele>
        <time>2015-09-05T04:38:04Z</time>
      </trkpt>
      <trkpt lat="33.76765" lon="77.62151">
        <ele>5129</ele>
        <time>2015-09-05T04:38:12Z</time>
      </trkpt>
      <trkpt lat="33.76764" lon="77.62155">
        <ele>5130</ele>
        <time>2015-09-05T04:38:21Z</time>
      </trkpt>
      <trkpt lat="33.76762" lon="77.62157">
        <ele>5131.2</ele>
        <time>2015-09-05T04:38:30Z</time>
      </trkpt>
      <trkpt lat="33.7676" lon="77.62162">
        <ele>5132.2</ele>
        <time>2015-09-05T04:38:40Z</time>
      </trkpt>
      <trkpt lat="33.76761" lon="77.62168">
        <ele>5133.4</ele>
        <time>2015-09-05T04:38:50Z</time>
      </trkpt>
      <trkpt lat="33.76763" lon="77.62169">
        <ele>5134.4</ele>
        <time>2015-09-05T04:38:59Z</time>
      </trkpt>
      <trkpt lat="33.76765" lon="77.62172">
        <ele>5135.4</ele>
        <time>2015-09-05T04:39:08Z</time>
      </trkpt>
      <trkpt lat="33.76765" lon="77.62173">
        <ele>5135.6</ele>
        <time>2015-09-05T04:39:10Z</time>
      </trkpt>
      <trkpt lat="33.76769" lon="77.62176">
        <ele>5136.6</ele>
        <time>2015-09-05T04:39:18Z</time>
      </trkpt>
      <trkpt lat="33.76771" lon="77.6218">
        <ele>5137.6</ele>
        <time>2015-09-05T04:39:30Z</time>
      </trkpt>
      <trkpt lat="33.76776" lon="77.62186">
        <ele>5138.6</ele>
        <time>2015-09-05T04:39:39Z</time>
      </trkpt>
      <trkpt lat="33.76782" lon="77.62189">
        <ele>5139.8</ele>
        <time>2015-09-05T04:39:48Z</time>
      </trkpt>
      <trkpt lat="33.76789" lon="77.62193">
        <ele>5140.8</ele>
        <time>2015-09-05T04:39:58Z</time>
      </trkpt>
      <trkpt lat="33.76789" lon="77.62196">
        <ele>5141.8</ele>
        <time>2015-09-05T04:40:07Z</time>
      </trkpt>
      <trkpt lat="33.76789" lon="77.62197">
        <ele>5143</ele>
        <time>2015-09-05T04:40:18Z</time>
      </trkpt>
      <trkpt lat="33.76787" lon="77.62199">
        <ele>5144</ele>
        <time>2015-09-05T04:40:27Z</time>
      </trkpt>
      <trkpt lat="33.76788" lon="77.622">
        <ele>5144</ele>
        <time>2015-09-05T04:40:28Z</time>
      </trkpt>
      <trkpt lat="33.76784" lon="77.62203">
        <ele>5145</ele>
        <time>2015-09-05T04:40:37Z</time>
      </trkpt>
      <trkpt lat="33.76782" lon="77.62209">
        <ele>5146.2</ele>
        <time>2015-09-05T04:40:48Z</time>
      </trkpt>
      <trkpt lat="33.76779" lon="77.6221">
        <ele>5147.2</ele>
        <time>2015-09-05T04:40:58Z</time>
      </trkpt>
      <trkpt lat="33.76781" lon="77.62212">
        <ele>5148.2</ele>
        <time>2015-09-05T04:41:03Z</time>
      </trkpt>
      <trkpt lat="33.76783" lon="77.62213">
        <ele>5149</ele>
        <time>2015-09-05T04:41:10Z</time>
      </trkpt>
      <trkpt lat="33.76784" lon="77.62212">
        <ele>5149.2</ele>
        <time>2015-09-05T04:41:13Z</time>
      </trkpt>
      <trkpt lat="33.76794" lon="77.62222">
        <ele>5150.2</ele>
        <time>2015-09-05T04:41:22Z</time>
      </trkpt>
      <trkpt lat="33.76795" lon="77.62223">
        <ele>5150.4</ele>
        <time>2015-09-05T04:41:23Z</time>
      </trkpt>
      <trkpt lat="33.76801" lon="77.62228">
        <ele>5151.2</ele>
        <time>2015-09-05T04:41:31Z</time>
      </trkpt>
      <trkpt lat="33.76801" lon="77.62229">
        <ele>5151.4</ele>
        <time>2015-09-05T04:41:32Z</time>
      </trkpt>
      <trkpt lat="33.76796" lon="77.62225">
        <ele>5152</ele>
        <time>2015-09-05T04:41:40Z</time>
      </trkpt>
      <trkpt lat="33.76795" lon="77.62218">
        <ele>5152.4</ele>
        <time>2015-09-05T04:41:53Z</time>
      </trkpt>
      <trkpt lat="33.768" lon="77.6222">
        <ele>5153.6</ele>
        <time>2015-09-05T04:41:59Z</time>
      </trkpt>
      <trkpt lat="33.76803" lon="77.62223">
        <ele>5154.6</ele>
        <time>2015-09-05T04:42:06Z</time>
      </trkpt>
      <trkpt lat="33.76803" lon="77.62225">
        <ele>5155.6</ele>
        <time>2015-09-05T04:42:14Z</time>
      </trkpt>
      <trkpt lat="33.76807" lon="77.62226">
        <ele>5156.6</ele>
        <time>2015-09-05T04:42:22Z</time>
      </trkpt>
      <trkpt lat="33.76808" lon="77.62224">
        <ele>5156.8</ele>
        <time>2015-09-05T04:42:23Z</time>
      </trkpt>
      <trkpt lat="33.76813" lon="77.62231">
        <ele>5157.8</ele>
        <time>2015-09-05T04:42:35Z</time>
      </trkpt>
      <trkpt lat="33.76823" lon="77.62241">
        <ele>5158.2</ele>
        <time>2015-09-05T04:42:39Z</time>
      </trkpt>
      <trkpt lat="33.76822" lon="77.62241">
        <ele>5158.4</ele>
        <time>2015-09-05T04:42:41Z</time>
      </trkpt>
      <trkpt lat="33.7682" lon="77.62238">
        <ele>5158.6</ele>
        <time>2015-09-05T04:42:47Z</time>
      </trkpt>
      <trkpt lat="33.76823" lon="77.62218">
        <ele>5158.4</ele>
        <time>2015-09-05T04:43:34Z</time>
      </trkpt>
      <trkpt lat="33.76821" lon="77.6222">
        <ele>5158.4</ele>
        <time>2015-09-05T04:43:37Z</time>
      </trkpt>
      <trkpt lat="33.76815" lon="77.62223">
        <ele>5157.6</ele>
        <time>2015-09-05T04:43:45Z</time>
      </trkpt>
      <trkpt lat="33.76818" lon="77.62224">
        <ele>5158.8</ele>
        <time>2015-09-05T04:45:01Z</time>
      </trkpt>
      <trkpt lat="33.76816" lon="77.62232">
        <ele>5160</ele>
        <time>2015-09-05T04:45:17Z</time>
      </trkpt>
      <trkpt lat="33.76815" lon="77.62233">
        <ele>5160.4</ele>
        <time>2015-09-05T04:45:19Z</time>
      </trkpt>
      <trkpt lat="33.76813" lon="77.62231">
        <ele>5159</ele>
        <time>2015-09-05T04:45:41Z</time>
      </trkpt>
      <trkpt lat="33.76811" lon="77.62233">
        <ele>5159.8</ele>
        <time>2015-09-05T04:46:09Z</time>
      </trkpt>
      <trkpt lat="33.76804" lon="77.62222">
        <ele>5157.8</ele>
        <time>2015-09-05T04:46:40Z</time>
      </trkpt>
      <trkpt lat="33.76808" lon="77.62216">
        <ele>5156.8</ele>
        <time>2015-09-05T04:47:11Z</time>
      </trkpt>
      <trkpt lat="33.76802" lon="77.6222">
        <ele>5156.8</ele>
        <time>2015-09-05T04:47:44Z</time>
      </trkpt>
      <trkpt lat="33.76805" lon="77.62217">
        <ele>5156.6</ele>
        <time>2015-09-05T04:48:07Z</time>
      </trkpt>
      <trkpt lat="33.76795" lon="77.62228">
        <ele>5156.6</ele>
        <time>2015-09-05T04:48:27Z</time>
      </trkpt>
      <trkpt lat="33.76787" lon="77.62226">
        <ele>5156.8</ele>
        <time>2015-09-05T04:49:01Z</time>
      </trkpt>
      <trkpt lat="33.76784" lon="77.62228">
        <ele>5156.8</ele>
        <time>2015-09-05T04:49:03Z</time>
      </trkpt>
      <trkpt lat="33.76774" lon="77.62233">
        <ele>5156</ele>
        <time>2015-09-05T04:49:12Z</time>
      </trkpt>
      <trkpt lat="33.76768" lon="77.62232">
        <ele>5157</ele>
        <time>2015-09-05T04:49:20Z</time>
      </trkpt>
      <trkpt lat="33.76767" lon="77.62228">
        <ele>5156.8</ele>
        <time>2015-09-05T04:49:26Z</time>
      </trkpt>
      <trkpt lat="33.76762" lon="77.6223">
        <ele>5156.6</ele>
        <time>2015-09-05T04:49:31Z</time>
      </trkpt>
      <trkpt lat="33.76755" lon="77.62231">
        <ele>5156.6</ele>
        <time>2015-09-05T04:49:51Z</time>
      </trkpt>
      <trkpt lat="33.76756" lon="77.6223">
        <ele>5157.8</ele>
        <time>2015-09-05T04:50:06Z</time>
      </trkpt>
      <trkpt lat="33.76754" lon="77.62232">
        <ele>5157.6</ele>
        <time>2015-09-05T04:50:10Z</time>
      </trkpt>
      <trkpt lat="33.76752" lon="77.62235">
        <ele>5157</ele>
        <time>2015-09-05T04:50:15Z</time>
      </trkpt>
      <trkpt lat="33.76751" lon="77.62237">
        <ele>5156.8</ele>
        <time>2015-09-05T04:50:30Z</time>
      </trkpt>
      <trkpt lat="33.76747" lon="77.62238">
        <ele>5157.2</ele>
        <time>2015-09-05T04:50:41Z</time>
      </trkpt>
      <trkpt lat="33.76747" lon="77.6224">
        <ele>5157.8</ele>
        <time>2015-09-05T04:50:50Z</time>
      </trkpt>
      <trkpt lat="33.76737" lon="77.6224">
        <ele>5157.6</ele>
        <time>2015-09-05T04:51:06Z</time>
      </trkpt>
      <trkpt lat="33.76736" lon="77.62241">
        <ele>5157.8</ele>
        <time>2015-09-05T04:51:09Z</time>
      </trkpt>
      <trkpt lat="33.76734" lon="77.62242">
        <ele>5157.8</ele>
        <time>2015-09-05T04:51:11Z</time>
      </trkpt>
      <trkpt lat="33.76731" lon="77.62234">
        <ele>5158.4</ele>
        <time>2015-09-05T04:51:39Z</time>
      </trkpt>
      <trkpt lat="33.76733" lon="77.62234">
        <ele>5158.4</ele>
        <time>2015-09-05T04:51:57Z</time>
      </trkpt>
      <trkpt lat="33.76732" lon="77.62236">
        <ele>5158.4</ele>
        <time>2015-09-05T04:51:59Z</time>
      </trkpt>
      <trkpt lat="33.76728" lon="77.6225">
        <ele>5158.8</ele>
        <time>2015-09-05T04:52:14Z</time>
      </trkpt>
      <trkpt lat="33.76722" lon="77.62253">
        <ele>5160</ele>
        <time>2015-09-05T04:52:23Z</time>
      </trkpt>
      <trkpt lat="33.76722" lon="77.62252">
        <ele>5160.2</ele>
        <time>2015-09-05T04:52:25Z</time>
      </trkpt>
      <trkpt lat="33.76716" lon="77.6225">
        <ele>5161</ele>
        <time>2015-09-05T04:52:55Z</time>
      </trkpt>
      <trkpt lat="33.76713" lon="77.62258">
        <ele>5162</ele>
        <time>2015-09-05T04:53:06Z</time>
      </trkpt>
      <trkpt lat="33.76711" lon="77.62259">
        <ele>5163.2</ele>
        <time>2015-09-05T04:53:13Z</time>
      </trkpt>
      <trkpt lat="33.7671" lon="77.62263">
        <ele>5164.2</ele>
        <time>2015-09-05T04:53:20Z</time>
      </trkpt>
      <trkpt lat="33.76714" lon="77.62268">
        <ele>5165</ele>
        <time>2015-09-05T04:53:26Z</time>
      </trkpt>
      <trkpt lat="33.76715" lon="77.62269">
        <ele>5165.2</ele>
        <time>2015-09-05T04:53:28Z</time>
      </trkpt>
      <trkpt lat="33.76715" lon="77.6227">
        <ele>5165.2</ele>
        <time>2015-09-05T04:53:29Z</time>
      </trkpt>
      <trkpt lat="33.76714" lon="77.62275">
        <ele>5166.4</ele>
        <time>2015-09-05T04:53:40Z</time>
      </trkpt>
      <trkpt lat="33.76709" lon="77.62279">
        <ele>5167.4</ele>
        <time>2015-09-05T04:53:51Z</time>
      </trkpt>
      <trkpt lat="33.76711" lon="77.62283">
        <ele>5168.6</ele>
        <time>2015-09-05T04:54:01Z</time>
      </trkpt>
      <trkpt lat="33.76714" lon="77.62286">
        <ele>5169.6</ele>
        <time>2015-09-05T04:54:11Z</time>
      </trkpt>
      <trkpt lat="33.76717" lon="77.62288">
        <ele>5170.4</ele>
        <time>2015-09-05T04:54:21Z</time>
      </trkpt>
      <trkpt lat="33.76716" lon="77.62288">
        <ele>5170.6</ele>
        <time>2015-09-05T04:54:22Z</time>
      </trkpt>
      <trkpt lat="33.76712" lon="77.62291">
        <ele>5171.6</ele>
        <time>2015-09-05T04:54:35Z</time>
      </trkpt>
      <trkpt lat="33.76715" lon="77.62295">
        <ele>5172.6</ele>
        <time>2015-09-05T04:54:42Z</time>
      </trkpt>
      <trkpt lat="33.7671" lon="77.62301">
        <ele>5173.6</ele>
        <time>2015-09-05T04:54:57Z</time>
      </trkpt>
      <trkpt lat="33.76707" lon="77.62303">
        <ele>5174.6</ele>
        <time>2015-09-05T04:55:04Z</time>
      </trkpt>
      <trkpt lat="33.76702" lon="77.62308">
        <ele>5175.8</ele>
        <time>2015-09-05T04:55:17Z</time>
      </trkpt>
      <trkpt lat="33.767" lon="77.62311">
        <ele>5176</ele>
        <time>2015-09-05T04:55:21Z</time>
      </trkpt>
      <trkpt lat="33.76698" lon="77.62313">
        <ele>5176.8</ele>
        <time>2015-09-05T04:55:27Z</time>
      </trkpt>
      <trkpt lat="33.76697" lon="77.62314">
        <ele>5177.8</ele>
        <time>2015-09-05T04:55:36Z</time>
      </trkpt>
      <trkpt lat="33.76697" lon="77.62316">
        <ele>5178.8</ele>
        <time>2015-09-05T04:55:43Z</time>
      </trkpt>
      <trkpt lat="33.76698" lon="77.62318">
        <ele>5180</ele>
        <time>2015-09-05T04:55:54Z</time>
      </trkpt>
      <trkpt lat="33.76696" lon="77.62323">
        <ele>5181</ele>
        <time>2015-09-05T04:56:05Z</time>
      </trkpt>
      <trkpt lat="33.76689" lon="77.62328">
        <ele>5182</ele>
        <time>2015-09-05T04:56:18Z</time>
      </trkpt>
      <trkpt lat="33.76687" lon="77.62328">
        <ele>5183.2</ele>
        <time>2015-09-05T04:56:25Z</time>
      </trkpt>
      <trkpt lat="33.7668" lon="77.62333">
        <ele>5184.2</ele>
        <time>2015-09-05T04:56:39Z</time>
      </trkpt>
      <trkpt lat="33.76677" lon="77.62342">
        <ele>5185.2</ele>
        <time>2015-09-05T04:56:52Z</time>
      </trkpt>
      <trkpt lat="33.76676" lon="77.62346">
        <ele>5186.4</ele>
        <time>2015-09-05T04:57:01Z</time>
      </trkpt>
      <trkpt lat="33.76676" lon="77.62348">
        <ele>5186.8</ele>
        <time>2015-09-05T04:57:04Z</time>
      </trkpt>
      <trkpt lat="33.76676" lon="77.62352">
        <ele>5187.4</ele>
        <time>2015-09-05T04:57:14Z</time>
      </trkpt>
      <trkpt lat="33.76676" lon="77.62353">
        <ele>5188.4</ele>
        <time>2015-09-05T04:57:19Z</time>
      </trkpt>
      <trkpt lat="33.76674" lon="77.62359">
        <ele>5189.4</ele>
        <time>2015-09-05T04:57:32Z</time>
      </trkpt>
      <trkpt lat="33.7667" lon="77.62363">
        <ele>5190.4</ele>
        <time>2015-09-05T04:57:45Z</time>
      </trkpt>
      <trkpt lat="33.76667" lon="77.62367">
        <ele>5191.4</ele>
        <time>2015-09-05T04:57:54Z</time>
      </trkpt>
      <trkpt lat="33.76664" lon="77.62373">
        <ele>5192.6</ele>
        <time>2015-09-05T04:58:10Z</time>
      </trkpt>
      <trkpt lat="33.76665" lon="77.62374">
        <ele>5193.6</ele>
        <time>2015-09-05T04:58:23Z</time>
      </trkpt>
      <trkpt lat="33.76663" lon="77.62375">
        <ele>5194.6</ele>
        <time>2015-09-05T04:58:32Z</time>
      </trkpt>
      <trkpt lat="33.76661" lon="77.62382">
        <ele>5195.6</ele>
        <time>2015-09-05T04:58:45Z</time>
      </trkpt>
      <trkpt lat="33.76655" lon="77.62384">
        <ele>5196.8</ele>
        <time>2015-09-05T04:58:54Z</time>
      </trkpt>
      <trkpt lat="33.76654" lon="77.6239">
        <ele>5197.8</ele>
        <time>2015-09-05T04:59:03Z</time>
      </trkpt>
      <trkpt lat="33.76648" lon="77.62395">
        <ele>5198.8</ele>
        <time>2015-09-05T04:59:17Z</time>
      </trkpt>
      <trkpt lat="33.76644" lon="77.62396">
        <ele>5200</ele>
        <time>2015-09-05T04:59:26Z</time>
      </trkpt>
      <trkpt lat="33.76642" lon="77.62402">
        <ele>5201</ele>
        <time>2015-09-05T04:59:39Z</time>
      </trkpt>
      <trkpt lat="33.76641" lon="77.6241">
        <ele>5201.8</ele>
        <time>2015-09-05T04:59:49Z</time>
      </trkpt>
      <trkpt lat="33.76641" lon="77.62412">
        <ele>5202.2</ele>
        <time>2015-09-05T04:59:51Z</time>
      </trkpt>
      <trkpt lat="33.76641" lon="77.62415">
        <ele>5203.2</ele>
        <time>2015-09-05T04:59:56Z</time>
      </trkpt>
      <trkpt lat="33.76635" lon="77.62418">
        <ele>5204.2</ele>
        <time>2015-09-05T05:00:08Z</time>
      </trkpt>
      <trkpt lat="33.76634" lon="77.62422">
        <ele>5205.2</ele>
        <time>2015-09-05T05:00:17Z</time>
      </trkpt>
      <trkpt lat="33.76633" lon="77.62427">
        <ele>5206.4</ele>
        <time>2015-09-05T05:00:28Z</time>
      </trkpt>
      <trkpt lat="33.76631" lon="77.62433">
        <ele>5207.4</ele>
        <time>2015-09-05T05:00:37Z</time>
      </trkpt>
      <trkpt lat="33.76629" lon="77.62435">
        <ele>5208.4</ele>
        <time>2015-09-05T05:00:46Z</time>
      </trkpt>
      <trkpt lat="33.76629" lon="77.62435">
        <ele>5208.6</ele>
        <time>2015-09-05T05:00:49Z</time>
      </trkpt>
      <trkpt lat="33.76629" lon="77.62436">
        <ele>5209.6</ele>
        <time>2015-09-05T05:00:54Z</time>
      </trkpt>
      <trkpt lat="33.76629" lon="77.62442">
        <ele>5210.6</ele>
        <time>2015-09-05T05:01:08Z</time>
      </trkpt>
      <trkpt lat="33.76628" lon="77.62445">
        <ele>5211.8</ele>
        <time>2015-09-05T05:01:15Z</time>
      </trkpt>
      <trkpt lat="33.76627" lon="77.62448">
        <ele>5212.8</ele>
        <time>2015-09-05T05:01:24Z</time>
      </trkpt>
      <trkpt lat="33.76626" lon="77.62452">
        <ele>5213.8</ele>
        <time>2015-09-05T05:01:34Z</time>
      </trkpt>
      <trkpt lat="33.76627" lon="77.62456">
        <ele>5214.8</ele>
        <time>2015-09-05T05:01:46Z</time>
      </trkpt>
      <trkpt lat="33.76623" lon="77.62463">
        <ele>5216</ele>
        <time>2015-09-05T05:01:58Z</time>
      </trkpt>
      <trkpt lat="33.7662" lon="77.62466">
        <ele>5217</ele>
        <time>2015-09-05T05:02:05Z</time>
      </trkpt>
      <trkpt lat="33.7662" lon="77.62474">
        <ele>5218</ele>
        <time>2015-09-05T05:02:18Z</time>
      </trkpt>
      <trkpt lat="33.7662" lon="77.62476">
        <ele>5218.4</ele>
        <time>2015-09-05T05:02:20Z</time>
      </trkpt>
      <trkpt lat="33.7662" lon="77.62477">
        <ele>5219</ele>
        <time>2015-09-05T05:02:25Z</time>
      </trkpt>
      <trkpt lat="33.76619" lon="77.62484">
        <ele>5220</ele>
        <time>2015-09-05T05:02:37Z</time>
      </trkpt>
      <trkpt lat="33.76613" lon="77.62488">
        <ele>5221</ele>
        <time>2015-09-05T05:02:49Z</time>
      </trkpt>
      <trkpt lat="33.76612" lon="77.62487">
        <ele>5222</ele>
        <time>2015-09-05T05:02:58Z</time>
      </trkpt>
      <trkpt lat="33.76608" lon="77.62496">
        <ele>5223.2</ele>
        <time>2015-09-05T05:03:16Z</time>
      </trkpt>
      <trkpt lat="33.76606" lon="77.62501">
        <ele>5224.2</ele>
        <time>2015-09-05T05:03:22Z</time>
      </trkpt>
      <trkpt lat="33.766" lon="77.62504">
        <ele>5225.2</ele>
        <time>2015-09-05T05:03:38Z</time>
      </trkpt>
      <trkpt lat="33.76596" lon="77.62508">
        <ele>5226.4</ele>
        <time>2015-09-05T05:03:49Z</time>
      </trkpt>
      <trkpt lat="33.76591" lon="77.62511">
        <ele>5227.2</ele>
        <time>2015-09-05T05:03:56Z</time>
      </trkpt>
      <trkpt lat="33.7659" lon="77.62511">
        <ele>5227.4</ele>
        <time>2015-09-05T05:03:58Z</time>
      </trkpt>
      <trkpt lat="33.76585" lon="77.62516">
        <ele>5228.4</ele>
        <time>2015-09-05T05:04:09Z</time>
      </trkpt>
      <trkpt lat="33.76578" lon="77.62521">
        <ele>5229.6</ele>
        <time>2015-09-05T05:04:23Z</time>
      </trkpt>
      <trkpt lat="33.76574" lon="77.62525">
        <ele>5230.6</ele>
        <time>2015-09-05T05:04:34Z</time>
      </trkpt>
      <trkpt lat="33.76574" lon="77.62526">
        <ele>5231.6</ele>
        <time>2015-09-05T05:04:42Z</time>
      </trkpt>
      <trkpt lat="33.76571" lon="77.62531">
        <ele>5232.8</ele>
        <time>2015-09-05T05:04:52Z</time>
      </trkpt>
      <trkpt lat="33.76567" lon="77.62534">
        <ele>5234</ele>
        <time>2015-09-05T05:05:01Z</time>
      </trkpt>
      <trkpt lat="33.76564" lon="77.62537">
        <ele>5235</ele>
        <time>2015-09-05T05:05:10Z</time>
      </trkpt>
      <trkpt lat="33.76562" lon="77.62546">
        <ele>5236.2</ele>
        <time>2015-09-05T05:05:22Z</time>
      </trkpt>
      <trkpt lat="33.76561" lon="77.62549">
        <ele>5237.2</ele>
        <time>2015-09-05T05:05:34Z</time>
      </trkpt>
      <trkpt lat="33.76562" lon="77.6255">
        <ele>5238.4</ele>
        <time>2015-09-05T05:05:41Z</time>
      </trkpt>
      <trkpt lat="33.76562" lon="77.62555">
        <ele>5239.4</ele>
        <time>2015-09-05T05:05:49Z</time>
      </trkpt>
      <trkpt lat="33.76562" lon="77.62559">
        <ele>5240.4</ele>
        <time>2015-09-05T05:05:56Z</time>
      </trkpt>
      <trkpt lat="33.76562" lon="77.62564">
        <ele>5241.4</ele>
        <time>2015-09-05T05:06:03Z</time>
      </trkpt>
      <trkpt lat="33.76563" lon="77.62566">
        <ele>5242.6</ele>
        <time>2015-09-05T05:06:10Z</time>
      </trkpt>
      <trkpt lat="33.76562" lon="77.62573">
        <ele>5243.6</ele>
        <time>2015-09-05T05:06:21Z</time>
      </trkpt>
      <trkpt lat="33.76563" lon="77.62578">
        <ele>5244.8</ele>
        <time>2015-09-05T05:06:30Z</time>
      </trkpt>
      <trkpt lat="33.76564" lon="77.62579">
        <ele>5245.8</ele>
        <time>2015-09-05T05:06:39Z</time>
      </trkpt>
      <trkpt lat="33.76569" lon="77.62586">
        <ele>5246.6</ele>
        <time>2015-09-05T05:06:47Z</time>
      </trkpt>
      <trkpt lat="33.76571" lon="77.62591">
        <ele>5247</ele>
        <time>2015-09-05T05:06:56Z</time>
      </trkpt>
      <trkpt lat="33.76574" lon="77.62594">
        <ele>5248</ele>
        <time>2015-09-05T05:07:03Z</time>
      </trkpt>
      <trkpt lat="33.76573" lon="77.626">
        <ele>5249.2</ele>
        <time>2015-09-05T05:07:12Z</time>
      </trkpt>
      <trkpt lat="33.76573" lon="77.62602">
        <ele>5249.4</ele>
        <time>2015-09-05T05:07:15Z</time>
      </trkpt>
      <trkpt lat="33.76573" lon="77.62606">
        <ele>5250.2</ele>
        <time>2015-09-05T05:07:22Z</time>
      </trkpt>
      <trkpt lat="33.76573" lon="77.6261">
        <ele>5251.4</ele>
        <time>2015-09-05T05:07:34Z</time>
      </trkpt>
      <trkpt lat="33.76576" lon="77.62618">
        <ele>5252.4</ele>
        <time>2015-09-05T05:07:45Z</time>
      </trkpt>
      <trkpt lat="33.76584" lon="77.62622">
        <ele>5253.4</ele>
        <time>2015-09-05T05:07:56Z</time>
      </trkpt>
      <trkpt lat="33.76583" lon="77.62622">
        <ele>5253.4</ele>
        <time>2015-09-05T05:07:57Z</time>
      </trkpt>
      <trkpt lat="33.76592" lon="77.6263">
        <ele>5254</ele>
        <time>2015-09-05T05:08:11Z</time>
      </trkpt>
      <trkpt lat="33.76593" lon="77.62635">
        <ele>5254.2</ele>
        <time>2015-09-05T05:08:22Z</time>
      </trkpt>
      <trkpt lat="33.7659" lon="77.62633">
        <ele>5253.8</ele>
        <time>2015-09-05T05:08:42Z</time>
      </trkpt>
      <trkpt lat="33.76589" lon="77.62632">
        <ele>5252.8</ele>
        <time>2015-09-05T05:10:05Z</time>
      </trkpt>
      <trkpt lat="33.7659" lon="77.62629">
        <ele>5254.2</ele>
        <time>2015-09-05T05:10:34Z</time>
      </trkpt>
      <trkpt lat="33.76589" lon="77.62632">
        <ele>5253.4</ele>
        <time>2015-09-05T05:11:33Z</time>
      </trkpt>
      <trkpt lat="33.76588" lon="77.62634">
        <ele>5253.6</ele>
        <time>2015-09-05T05:12:32Z</time>
      </trkpt>
      <trkpt lat="33.76589" lon="77.6263">
        <ele>5253.6</ele>
        <time>2015-09-05T05:13:06Z</time>
      </trkpt>
      <trkpt lat="33.76588" lon="77.62633">
        <ele>5253.4</ele>
        <time>2015-09-05T05:13:09Z</time>
      </trkpt>
      <trkpt lat="33.76587" lon="77.62633">
        <ele>5253.4</ele>
        <time>2015-09-05T05:13:12Z</time>
      </trkpt>
      <trkpt lat="33.76588" lon="77.62632">
        <ele>5253.4</ele>
        <time>2015-09-05T05:13:18Z</time>
      </trkpt>
      <trkpt lat="33.76589" lon="77.62631">
        <ele>5232.8</ele>
        <time>2015-09-05T05:13:22Z</time>
      </trkpt>
      <trkpt lat="33.76589" lon="77.62631">
        <ele>5253</ele>
        <time>2015-09-05T05:13:26Z</time>
      </trkpt>
      <trkpt lat="33.76582" lon="77.62629">
        <ele>5254.2</ele>
        <time>2015-09-05T05:13:57Z</time>
      </trkpt>
      <trkpt lat="33.76572" lon="77.62636">
        <ele>5255.2</ele>
        <time>2015-09-05T05:14:13Z</time>
      </trkpt>
      <trkpt lat="33.76571" lon="77.62636">
        <ele>5255.8</ele>
        <time>2015-09-05T05:14:15Z</time>
      </trkpt>
      <trkpt lat="33.76577" lon="77.62641">
        <ele>5256.4</ele>
        <time>2015-09-05T05:14:25Z</time>
      </trkpt>
      <trkpt lat="33.76577" lon="77.62647">
        <ele>5257.4</ele>
        <time>2015-09-05T05:14:35Z</time>
      </trkpt>
      <trkpt lat="33.76581" lon="77.62656">
        <ele>5258.4</ele>
        <time>2015-09-05T05:14:51Z</time>
      </trkpt>
      <trkpt lat="33.76582" lon="77.62663">
        <ele>5259.6</ele>
        <time>2015-09-05T05:15:02Z</time>
      </trkpt>
      <trkpt lat="33.76581" lon="77.62668">
        <ele>5260.6</ele>
        <time>2015-09-05T05:15:12Z</time>
      </trkpt>
      <trkpt lat="33.76582" lon="77.62673">
        <ele>5261.2</ele>
        <time>2015-09-05T05:15:18Z</time>
      </trkpt>
      <trkpt lat="33.76584" lon="77.62678">
        <ele>5261.6</ele>
        <time>2015-09-05T05:15:23Z</time>
      </trkpt>
      <trkpt lat="33.76587" lon="77.62684">
        <ele>5262.2</ele>
        <time>2015-09-05T05:15:29Z</time>
      </trkpt>
      <trkpt lat="33.76586" lon="77.6269">
        <ele>5262.8</ele>
        <time>2015-09-05T05:15:37Z</time>
      </trkpt>
      <trkpt lat="33.76585" lon="77.62695">
        <ele>5263.8</ele>
        <time>2015-09-05T05:15:47Z</time>
      </trkpt>
      <trkpt lat="33.76585" lon="77.62701">
        <ele>5265</ele>
        <time>2015-09-05T05:16:00Z</time>
      </trkpt>
      <trkpt lat="33.76585" lon="77.62706">
        <ele>5266</ele>
        <time>2015-09-05T05:16:13Z</time>
      </trkpt>
      <trkpt lat="33.76583" lon="77.62715">
        <ele>5267</ele>
        <time>2015-09-05T05:16:26Z</time>
      </trkpt>
      <trkpt lat="33.76584" lon="77.62721">
        <ele>5268</ele>
        <time>2015-09-05T05:16:37Z</time>
      </trkpt>
      <trkpt lat="33.76585" lon="77.62727">
        <ele>5269</ele>
        <time>2015-09-05T05:16:47Z</time>
      </trkpt>
      <trkpt lat="33.76585" lon="77.62739">
        <ele>5270.2</ele>
        <time>2015-09-05T05:17:04Z</time>
      </trkpt>
      <trkpt lat="33.76585" lon="77.62742">
        <ele>5271.2</ele>
        <time>2015-09-05T05:17:13Z</time>
      </trkpt>
      <trkpt lat="33.76585" lon="77.62749">
        <ele>5272.2</ele>
        <time>2015-09-05T05:17:24Z</time>
      </trkpt>
      <trkpt lat="33.76583" lon="77.62757">
        <ele>5273.4</ele>
        <time>2015-09-05T05:17:33Z</time>
      </trkpt>
      <trkpt lat="33.76584" lon="77.62759">
        <ele>5273.6</ele>
        <time>2015-09-05T05:17:36Z</time>
      </trkpt>
      <trkpt lat="33.76581" lon="77.62765">
        <ele>5274.4</ele>
        <time>2015-09-05T05:17:46Z</time>
      </trkpt>
      <trkpt lat="33.76585" lon="77.6277">
        <ele>5275.4</ele>
        <time>2015-09-05T05:17:52Z</time>
      </trkpt>
      <trkpt lat="33.76589" lon="77.62775">
        <ele>5276.4</ele>
        <time>2015-09-05T05:18:03Z</time>
      </trkpt>
      <trkpt lat="33.76591" lon="77.62786">
        <ele>5277.6</ele>
        <time>2015-09-05T05:18:22Z</time>
      </trkpt>
      <trkpt lat="33.76591" lon="77.6279">
        <ele>5278.6</ele>
        <time>2015-09-05T05:18:34Z</time>
      </trkpt>
      <trkpt lat="33.76587" lon="77.62788">
        <ele>5279</ele>
        <time>2015-09-05T05:18:36Z</time>
      </trkpt>
      <trkpt lat="33.76586" lon="77.62782">
        <ele>5278.8</ele>
        <time>2015-09-05T05:18:45Z</time>
      </trkpt>
      <trkpt lat="33.76588" lon="77.62785">
        <ele>5278.4</ele>
        <time>2015-09-05T05:18:47Z</time>
      </trkpt>
      <trkpt lat="33.76587" lon="77.6279">
        <ele>5278.2</ele>
        <time>2015-09-05T05:18:53Z</time>
      </trkpt>
      <trkpt lat="33.76584" lon="77.62792">
        <ele>5278.6</ele>
        <time>2015-09-05T05:18:57Z</time>
      </trkpt>
      <trkpt lat="33.76581" lon="77.62794">
        <ele>5278.8</ele>
        <time>2015-09-05T05:18:59Z</time>
      </trkpt>
      <trkpt lat="33.76578" lon="77.62799">
        <ele>5279.8</ele>
        <time>2015-09-05T05:19:09Z</time>
      </trkpt>
      <trkpt lat="33.76575" lon="77.62803">
        <ele>5280.2</ele>
        <time>2015-09-05T05:19:15Z</time>
      </trkpt>
      <trkpt lat="33.76571" lon="77.62809">
        <ele>5280.8</ele>
        <time>2015-09-05T05:19:25Z</time>
      </trkpt>
      <trkpt lat="33.76566" lon="77.62813">
        <ele>5282</ele>
        <time>2015-09-05T05:19:33Z</time>
      </trkpt>
      <trkpt lat="33.76557" lon="77.62818">
        <ele>5283</ele>
        <time>2015-09-05T05:19:46Z</time>
      </trkpt>
      <trkpt lat="33.76552" lon="77.62822">
        <ele>5284.2</ele>
        <time>2015-09-05T05:19:59Z</time>
      </trkpt>
      <trkpt lat="33.7655" lon="77.62828">
        <ele>5284.4</ele>
        <time>2015-09-05T05:20:05Z</time>
      </trkpt>
      <trkpt lat="33.76547" lon="77.62835">
        <ele>5285.2</ele>
        <time>2015-09-05T05:20:16Z</time>
      </trkpt>
      <trkpt lat="33.76542" lon="77.62837">
        <ele>5286.2</ele>
        <time>2015-09-05T05:20:24Z</time>
      </trkpt>
      <trkpt lat="33.76535" lon="77.62842">
        <ele>5287.4</ele>
        <time>2015-09-05T05:20:38Z</time>
      </trkpt>
      <trkpt lat="33.76534" lon="77.62844">
        <ele>5288.4</ele>
        <time>2015-09-05T05:20:44Z</time>
      </trkpt>
      <trkpt lat="33.76529" lon="77.62849">
        <ele>5289.4</ele>
        <time>2015-09-05T05:21:02Z</time>
      </trkpt>
      <trkpt lat="33.76523" lon="77.62852">
        <ele>5290.4</ele>
        <time>2015-09-05T05:21:15Z</time>
      </trkpt>
      <trkpt lat="33.76511" lon="77.62863">
        <ele>5291.4</ele>
        <time>2015-09-05T05:21:34Z</time>
      </trkpt>
      <trkpt lat="33.76503" lon="77.62866">
        <ele>5292.6</ele>
        <time>2015-09-05T05:21:52Z</time>
      </trkpt>
      <trkpt lat="33.76498" lon="77.62871">
        <ele>5293.6</ele>
        <time>2015-09-05T05:22:03Z</time>
      </trkpt>
      <trkpt lat="33.76492" lon="77.62879">
        <ele>5294.6</ele>
        <time>2015-09-05T05:22:19Z</time>
      </trkpt>
      <trkpt lat="33.76487" lon="77.62889">
        <ele>5295.4</ele>
        <time>2015-09-05T05:22:31Z</time>
      </trkpt>
      <trkpt lat="33.76486" lon="77.62892">
        <ele>5295.8</ele>
        <time>2015-09-05T05:22:35Z</time>
      </trkpt>
      <trkpt lat="33.7648" lon="77.62894">
        <ele>5296.8</ele>
        <time>2015-09-05T05:22:47Z</time>
      </trkpt>
      <trkpt lat="33.76471" lon="77.62898">
        <ele>5297.8</ele>
        <time>2015-09-05T05:23:05Z</time>
      </trkpt>
      <trkpt lat="33.76463" lon="77.62907">
        <ele>5298.8</ele>
        <time>2015-09-05T05:23:21Z</time>
      </trkpt>
      <trkpt lat="33.76455" lon="77.62913">
        <ele>5300</ele>
        <time>2015-09-05T05:23:36Z</time>
      </trkpt>
      <trkpt lat="33.76448" lon="77.62921">
        <ele>5301</ele>
        <time>2015-09-05T05:23:51Z</time>
      </trkpt>
      <trkpt lat="33.76441" lon="77.62927">
        <ele>5302</ele>
        <time>2015-09-05T05:24:02Z</time>
      </trkpt>
      <trkpt lat="33.76434" lon="77.62929">
        <ele>5303</ele>
        <time>2015-09-05T05:24:12Z</time>
      </trkpt>
      <trkpt lat="33.76421" lon="77.62933">
        <ele>5304</ele>
        <time>2015-09-05T05:24:33Z</time>
      </trkpt>
      <trkpt lat="33.76418" lon="77.62941">
        <ele>5305.2</ele>
        <time>2015-09-05T05:24:48Z</time>
      </trkpt>
      <trkpt lat="33.76411" lon="77.62952">
        <ele>5306.2</ele>
        <time>2015-09-05T05:25:04Z</time>
      </trkpt>
      <trkpt lat="33.76404" lon="77.62954">
        <ele>5307</ele>
        <time>2015-09-05T05:25:15Z</time>
      </trkpt>
      <trkpt lat="33.76402" lon="77.62954">
        <ele>5306.8</ele>
        <time>2015-09-05T05:25:17Z</time>
      </trkpt>
      <trkpt lat="33.764" lon="77.62956">
        <ele>5307.4</ele>
        <time>2015-09-05T05:25:20Z</time>
      </trkpt>
      <trkpt lat="33.76393" lon="77.62966">
        <ele>5308.4</ele>
        <time>2015-09-05T05:25:41Z</time>
      </trkpt>
      <trkpt lat="33.76388" lon="77.62965">
        <ele>5309.4</ele>
        <time>2015-09-05T05:25:50Z</time>
      </trkpt>
      <trkpt lat="33.76382" lon="77.6297">
        <ele>5310.4</ele>
        <time>2015-09-05T05:26:02Z</time>
      </trkpt>
      <trkpt lat="33.76375" lon="77.62977">
        <ele>5311.4</ele>
        <time>2015-09-05T05:26:23Z</time>
      </trkpt>
      <trkpt lat="33.76371" lon="77.62974">
        <ele>5312.2</ele>
        <time>2015-09-05T05:26:33Z</time>
      </trkpt>
      <trkpt lat="33.76369" lon="77.62974">
        <ele>5312.6</ele>
        <time>2015-09-05T05:26:35Z</time>
      </trkpt>
      <trkpt lat="33.76362" lon="77.62983">
        <ele>5313.6</ele>
        <time>2015-09-05T05:26:53Z</time>
      </trkpt>
      <trkpt lat="33.76355" lon="77.62988">
        <ele>5314.6</ele>
        <time>2015-09-05T05:27:09Z</time>
      </trkpt>
      <trkpt lat="33.76348" lon="77.63003">
        <ele>5315.8</ele>
        <time>2015-09-05T05:27:31Z</time>
      </trkpt>
      <trkpt lat="33.76348" lon="77.63004">
        <ele>5315.8</ele>
        <time>2015-09-05T05:27:32Z</time>
      </trkpt>
      <trkpt lat="33.76347" lon="77.63006">
        <ele>5315.8</ele>
        <time>2015-09-05T05:27:34Z</time>
      </trkpt>
      <trkpt lat="33.76342" lon="77.63005">
        <ele>5316.8</ele>
        <time>2015-09-05T05:27:42Z</time>
      </trkpt>
      <trkpt lat="33.76331" lon="77.63011">
        <ele>5318</ele>
        <time>2015-09-05T05:28:03Z</time>
      </trkpt>
      <trkpt lat="33.76323" lon="77.63015">
        <ele>5319</ele>
        <time>2015-09-05T05:28:19Z</time>
      </trkpt>
      <trkpt lat="33.76312" lon="77.63021">
        <ele>5320</ele>
        <time>2015-09-05T05:28:35Z</time>
      </trkpt>
      <trkpt lat="33.76311" lon="77.63021">
        <ele>5320</ele>
        <time>2015-09-05T05:28:36Z</time>
      </trkpt>
      <trkpt lat="33.76303" lon="77.63033">
        <ele>5321</ele>
        <time>2015-09-05T05:28:56Z</time>
      </trkpt>
      <trkpt lat="33.76297" lon="77.6304">
        <ele>5322</ele>
        <time>2015-09-05T05:29:08Z</time>
      </trkpt>
      <trkpt lat="33.76297" lon="77.63039">
        <ele>5322</ele>
        <time>2015-09-05T05:29:10Z</time>
      </trkpt>
      <trkpt lat="33.76297" lon="77.63038">
        <ele>5323.2</ele>
        <time>2015-09-05T05:29:49Z</time>
      </trkpt>
      <trkpt lat="33.76295" lon="77.63038">
        <ele>5323.4</ele>
        <time>2015-09-05T05:29:54Z</time>
      </trkpt>
      <trkpt lat="33.76293" lon="77.6304">
        <ele>5322</ele>
        <time>2015-09-05T05:30:01Z</time>
      </trkpt>
      <trkpt lat="33.76294" lon="77.63044">
        <ele>5321.8</ele>
        <time>2015-09-05T05:31:48Z</time>
      </trkpt>
      <trkpt lat="33.76297" lon="77.63042">
        <ele>5321</ele>
        <time>2015-09-05T05:32:33Z</time>
      </trkpt>
      <trkpt lat="33.76285" lon="77.63031">
        <ele>5321.2</ele>
        <time>2015-09-05T05:33:13Z</time>
      </trkpt>
      <trkpt lat="33.76285" lon="77.6303">
        <ele>5321.4</ele>
        <time>2015-09-05T05:33:15Z</time>
      </trkpt>
      <trkpt lat="33.76286" lon="77.6303">
        <ele>5321.6</ele>
        <time>2015-09-05T05:33:17Z</time>
      </trkpt>
      <trkpt lat="33.76286" lon="77.6303">
        <ele>5322</ele>
        <time>2015-09-05T05:33:21Z</time>
      </trkpt>
      <trkpt lat="33.76288" lon="77.63033">
        <ele>5322.4</ele>
        <time>2015-09-05T05:33:38Z</time>
      </trkpt>
      <trkpt lat="33.76292" lon="77.63039">
        <ele>5322</ele>
        <time>2015-09-05T05:34:05Z</time>
      </trkpt>
      <trkpt lat="33.7629" lon="77.63037">
        <ele>5299.6</ele>
        <time>2015-09-05T05:34:08Z</time>
      </trkpt>
      <trkpt lat="33.76287" lon="77.63035">
        <ele>5321.8</ele>
        <time>2015-09-05T05:34:12Z</time>
      </trkpt>
      <trkpt lat="33.76285" lon="77.63029">
        <ele>5321.8</ele>
        <time>2015-09-05T05:34:15Z</time>
      </trkpt>
      <trkpt lat="33.76287" lon="77.6303">
        <ele>5322</ele>
        <time>2015-09-05T05:34:17Z</time>
      </trkpt>
      <trkpt lat="33.76291" lon="77.63029">
        <ele>5322.4</ele>
        <time>2015-09-05T05:34:26Z</time>
      </trkpt>
      <trkpt lat="33.76291" lon="77.63032">
        <ele>5322.4</ele>
        <time>2015-09-05T05:34:29Z</time>
      </trkpt>
      <trkpt lat="33.76299" lon="77.63036">
        <ele>5321.6</ele>
        <time>2015-09-05T05:34:35Z</time>
      </trkpt>
      <trkpt lat="33.76285" lon="77.6304">
        <ele>5322.4</ele>
        <time>2015-09-05T05:35:06Z</time>
      </trkpt>
      <trkpt lat="33.76284" lon="77.63041">
        <ele>5322.8</ele>
        <time>2015-09-05T05:35:09Z</time>
      </trkpt>
      <trkpt lat="33.76282" lon="77.63043">
        <ele>5323.8</ele>
        <time>2015-09-05T05:35:16Z</time>
      </trkpt>
      <trkpt lat="33.76272" lon="77.63053">
        <ele>5324.8</ele>
        <time>2015-09-05T05:35:38Z</time>
      </trkpt>
      <trkpt lat="33.76263" lon="77.63068">
        <ele>5326</ele>
        <time>2015-09-05T05:35:58Z</time>
      </trkpt>
      <trkpt lat="33.76258" lon="77.63075">
        <ele>5327</ele>
        <time>2015-09-05T05:36:10Z</time>
      </trkpt>
      <trkpt lat="33.76257" lon="77.63091">
        <ele>5328</ele>
        <time>2015-09-05T05:36:25Z</time>
      </trkpt>
      <trkpt lat="33.76257" lon="77.63091">
        <ele>5328</ele>
        <time>2015-09-05T05:36:26Z</time>
      </trkpt>
      <trkpt lat="33.76245" lon="77.63091">
        <ele>5329</ele>
        <time>2015-09-05T05:36:46Z</time>
      </trkpt>
      <trkpt lat="33.76242" lon="77.63093">
        <ele>5330</ele>
        <time>2015-09-05T05:36:54Z</time>
      </trkpt>
      <trkpt lat="33.76238" lon="77.63104">
        <ele>5331</ele>
        <time>2015-09-05T05:37:14Z</time>
      </trkpt>
      <trkpt lat="33.76237" lon="77.63104">
        <ele>5331.2</ele>
        <time>2015-09-05T05:37:15Z</time>
      </trkpt>
      <trkpt lat="33.76232" lon="77.63106">
        <ele>5332.2</ele>
        <time>2015-09-05T05:37:26Z</time>
      </trkpt>
      <trkpt lat="33.76222" lon="77.63117">
        <ele>5333.2</ele>
        <time>2015-09-05T05:37:43Z</time>
      </trkpt>
      <trkpt lat="33.76215" lon="77.63122">
        <ele>5334.2</ele>
        <time>2015-09-05T05:37:58Z</time>
      </trkpt>
      <trkpt lat="33.76207" lon="77.63128">
        <ele>5335.2</ele>
        <time>2015-09-05T05:38:17Z</time>
      </trkpt>
      <trkpt lat="33.76199" lon="77.6314">
        <ele>5335.8</ele>
        <time>2015-09-05T05:38:37Z</time>
      </trkpt>
      <trkpt lat="33.76198" lon="77.63141">
        <ele>5336.2</ele>
        <time>2015-09-05T05:38:41Z</time>
      </trkpt>
      <trkpt lat="33.76191" lon="77.63147">
        <ele>5337.4</ele>
        <time>2015-09-05T05:38:54Z</time>
      </trkpt>
      <trkpt lat="33.76183" lon="77.6316">
        <ele>5338.4</ele>
        <time>2015-09-05T05:39:12Z</time>
      </trkpt>
      <trkpt lat="33.76182" lon="77.63162">
        <ele>5338.4</ele>
        <time>2015-09-05T05:39:13Z</time>
      </trkpt>
      <trkpt lat="33.76176" lon="77.63164">
        <ele>5339.4</ele>
        <time>2015-09-05T05:39:24Z</time>
      </trkpt>
      <trkpt lat="33.76164" lon="77.63165">
        <ele>5340.6</ele>
        <time>2015-09-05T05:39:42Z</time>
      </trkpt>
      <trkpt lat="33.7616" lon="77.63175">
        <ele>5341.2</ele>
        <time>2015-09-05T05:39:51Z</time>
      </trkpt>
      <trkpt lat="33.76157" lon="77.63179">
        <ele>5341.6</ele>
        <time>2015-09-05T05:39:57Z</time>
      </trkpt>
      <trkpt lat="33.76156" lon="77.63179">
        <ele>5341.6</ele>
        <time>2015-09-05T05:39:58Z</time>
      </trkpt>
      <trkpt lat="33.7615" lon="77.63181">
        <ele>5342.6</ele>
        <time>2015-09-05T05:40:14Z</time>
      </trkpt>
      <trkpt lat="33.76139" lon="77.63193">
        <ele>5343.8</ele>
        <time>2015-09-05T05:40:34Z</time>
      </trkpt>
      <trkpt lat="33.76136" lon="77.63198">
        <ele>5344.2</ele>
        <time>2015-09-05T05:40:39Z</time>
      </trkpt>
      <trkpt lat="33.76133" lon="77.632">
        <ele>5344.8</ele>
        <time>2015-09-05T05:40:44Z</time>
      </trkpt>
      <trkpt lat="33.76129" lon="77.63201">
        <ele>5345.4</ele>
        <time>2015-09-05T05:40:49Z</time>
      </trkpt>
      <trkpt lat="33.76117" lon="77.63213">
        <ele>5344.2</ele>
        <time>2015-09-05T05:41:10Z</time>
      </trkpt>
      <trkpt lat="33.76113" lon="77.63216">
        <ele>5344</ele>
        <time>2015-09-05T05:41:16Z</time>
      </trkpt>
      <trkpt lat="33.76102" lon="77.63224">
        <ele>5344.4</ele>
        <time>2015-09-05T05:41:34Z</time>
      </trkpt>
      <trkpt lat="33.76095" lon="77.63235">
        <ele>5344.8</ele>
        <time>2015-09-05T05:41:49Z</time>
      </trkpt>
      <trkpt lat="33.76079" lon="77.63243">
        <ele>5345.4</ele>
        <time>2015-09-05T05:42:15Z</time>
      </trkpt>
      <trkpt lat="33.76071" lon="77.63252">
        <ele>5345.8</ele>
        <time>2015-09-05T05:42:32Z</time>
      </trkpt>
      <trkpt lat="33.76068" lon="77.63263">
        <ele>5346</ele>
        <time>2015-09-05T05:42:35Z</time>
      </trkpt>
      <trkpt lat="33.76057" lon="77.63268">
        <ele>5346.4</ele>
        <time>2015-09-05T05:42:52Z</time>
      </trkpt>
      <trkpt lat="33.76052" lon="77.63271">
        <ele>5347</ele>
        <time>2015-09-05T05:43:05Z</time>
      </trkpt>
      <trkpt lat="33.7606" lon="77.63284">
        <ele>5347</ele>
        <time>2015-09-05T05:43:25Z</time>
      </trkpt>
      <trkpt lat="33.76055" lon="77.63284">
        <ele>5346.8</ele>
        <time>2015-09-05T05:43:30Z</time>
      </trkpt>
      <trkpt lat="33.76053" lon="77.63283">
        <ele>5346.8</ele>
        <time>2015-09-05T05:43:32Z</time>
      </trkpt>
      <trkpt lat="33.76051" lon="77.63281">
        <ele>5347</ele>
        <time>2015-09-05T05:43:34Z</time>
      </trkpt>
      <trkpt lat="33.76048" lon="77.63276">
        <ele>5347.2</ele>
        <time>2015-09-05T05:43:43Z</time>
      </trkpt>
      <trkpt lat="33.7605" lon="77.63277">
        <ele>5347.6</ele>
        <time>2015-09-05T05:44:10Z</time>
      </trkpt>
      <trkpt lat="33.76053" lon="77.63278">
        <ele>5347</ele>
        <time>2015-09-05T05:44:18Z</time>
      </trkpt>
      <trkpt lat="33.76051" lon="77.63281">
        <ele>5347</ele>
        <time>2015-09-05T05:44:23Z</time>
      </trkpt>
      <trkpt lat="33.76052" lon="77.63283">
        <ele>5346.8</ele>
        <time>2015-09-05T05:44:27Z</time>
      </trkpt>
      <trkpt lat="33.76054" lon="77.63283">
        <ele>5346.6</ele>
        <time>2015-09-05T05:44:29Z</time>
      </trkpt>
      <trkpt lat="33.76057" lon="77.63282">
        <ele>5346.4</ele>
        <time>2015-09-05T05:44:33Z</time>
      </trkpt>
      <trkpt lat="33.76059" lon="77.63282">
        <ele>5347</ele>
        <time>2015-09-05T05:44:45Z</time>
      </trkpt>
      <trkpt lat="33.76054" lon="77.63276">
        <ele>5347.2</ele>
        <time>2015-09-05T05:45:03Z</time>
      </trkpt>
      <trkpt lat="33.76053" lon="77.63281">
        <ele>5346.6</ele>
        <time>2015-09-05T05:45:20Z</time>
      </trkpt>
      <trkpt lat="33.76054" lon="77.63274">
        <ele>5346.8</ele>
        <time>2015-09-05T05:45:39Z</time>
      </trkpt>
      <trkpt lat="33.76055" lon="77.63275">
        <ele>5346</ele>
        <time>2015-09-05T05:45:46Z</time>
      </trkpt>
      <trkpt lat="33.76056" lon="77.63278">
        <ele>5346.2</ele>
        <time>2015-09-05T05:46:02Z</time>
      </trkpt>
      <trkpt lat="33.76054" lon="77.63282">
        <ele>5347</ele>
        <time>2015-09-05T05:46:15Z</time>
      </trkpt>
      <trkpt lat="33.76051" lon="77.6328">
        <ele>5347.2</ele>
        <time>2015-09-05T05:47:13Z</time>
      </trkpt>
      <trkpt lat="33.76048" lon="77.63273">
        <ele>5346.4</ele>
        <time>2015-09-05T05:48:27Z</time>
      </trkpt>
      <trkpt lat="33.76058" lon="77.6328">
        <ele>5347.2</ele>
        <time>2015-09-05T05:49:32Z</time>
      </trkpt>
      <trkpt lat="33.76055" lon="77.6328">
        <ele>5346.8</ele>
        <time>2015-09-05T05:49:45Z</time>
      </trkpt>
      <trkpt lat="33.76049" lon="77.6328">
        <ele>5348</ele>
        <time>2015-09-05T05:49:58Z</time>
      </trkpt>
      <trkpt lat="33.7605" lon="77.6328">
        <ele>5347.6</ele>
        <time>2015-09-05T05:51:09Z</time>
      </trkpt>
      <trkpt lat="33.76049" lon="77.6328">
        <ele>5347.6</ele>
        <time>2015-09-05T05:51:10Z</time>
      </trkpt>
      <trkpt lat="33.76048" lon="77.63276">
        <ele>5347.6</ele>
        <time>2015-09-05T05:51:29Z</time>
      </trkpt>
      <trkpt lat="33.76049" lon="77.63277">
        <ele>5347.6</ele>
        <time>2015-09-05T05:51:31Z</time>
      </trkpt>
      <trkpt lat="33.76053" lon="77.63276">
        <ele>5347.8</ele>
        <time>2015-09-05T05:51:41Z</time>
      </trkpt>
      <trkpt lat="33.76055" lon="77.6328">
        <ele>5347.8</ele>
        <time>2015-09-05T05:51:44Z</time>
      </trkpt>
      <trkpt lat="33.76053" lon="77.6328">
        <ele>5347.4</ele>
        <time>2015-09-05T05:51:47Z</time>
      </trkpt>
      <trkpt lat="33.76051" lon="77.63283">
        <ele>5348.2</ele>
        <time>2015-09-05T05:52:23Z</time>
      </trkpt>
      <trkpt lat="33.76045" lon="77.63283">
        <ele>5347.6</ele>
        <time>2015-09-05T05:53:06Z</time>
      </trkpt>
      <trkpt lat="33.76043" lon="77.63277">
        <ele>5348</ele>
        <time>2015-09-05T05:53:14Z</time>
      </trkpt>
      <trkpt lat="33.76046" lon="77.63273">
        <ele>5347</ele>
        <time>2015-09-05T05:53:26Z</time>
      </trkpt>
      <trkpt lat="33.76052" lon="77.6328">
        <ele>5347.6</ele>
        <time>2015-09-05T05:53:30Z</time>
      </trkpt>
      <trkpt lat="33.76051" lon="77.6328">
        <ele>5348</ele>
        <time>2015-09-05T05:53:34Z</time>
      </trkpt>
      <trkpt lat="33.76051" lon="77.63276">
        <ele>5347</ele>
        <time>2015-09-05T05:53:47Z</time>
      </trkpt>
      <trkpt lat="33.76052" lon="77.63279">
        <ele>5348</ele>
        <time>2015-09-05T05:53:56Z</time>
      </trkpt>
      <trkpt lat="33.76049" lon="77.63276">
        <ele>5348.2</ele>
        <time>2015-09-05T05:54:25Z</time>
      </trkpt>
      <trkpt lat="33.76048" lon="77.63274">
        <ele>5347.8</ele>
        <time>2015-09-05T05:54:27Z</time>
      </trkpt>
      <trkpt lat="33.76048" lon="77.63274">
        <ele>5347.6</ele>
        <time>2015-09-05T05:54:29Z</time>
      </trkpt>
      <trkpt lat="33.76052" lon="77.63277">
        <ele>5347.8</ele>
        <time>2015-09-05T05:54:33Z</time>
      </trkpt>
      <trkpt lat="33.76053" lon="77.63279">
        <ele>5348</ele>
        <time>2015-09-05T05:54:35Z</time>
      </trkpt>
      <trkpt lat="33.76057" lon="77.63285">
        <ele>5348</ele>
        <time>2015-09-05T05:54:44Z</time>
      </trkpt>
      <trkpt lat="33.76057" lon="77.63289">
        <ele>5348</ele>
        <time>2015-09-05T05:54:47Z</time>
      </trkpt>
      <trkpt lat="33.76055" lon="77.6329">
        <ele>5347.6</ele>
        <time>2015-09-05T05:54:49Z</time>
      </trkpt>
      <trkpt lat="33.76056" lon="77.63293">
        <ele>5347.2</ele>
        <time>2015-09-05T05:55:03Z</time>
      </trkpt>
      <trkpt lat="33.76057" lon="77.6329">
        <ele>5347</ele>
        <time>2015-09-05T05:55:08Z</time>
      </trkpt>
      <trkpt lat="33.76056" lon="77.63277">
        <ele>5348</ele>
        <time>2015-09-05T05:55:48Z</time>
      </trkpt>
      <trkpt lat="33.76059" lon="77.63278">
        <ele>5348.2</ele>
        <time>2015-09-05T05:55:57Z</time>
      </trkpt>
      <trkpt lat="33.76053" lon="77.63275">
        <ele>5348.4</ele>
        <time>2015-09-05T05:56:35Z</time>
      </trkpt>
      <trkpt lat="33.7605" lon="77.63278">
        <ele>5348</ele>
        <time>2015-09-05T05:56:38Z</time>
      </trkpt>
      <trkpt lat="33.76056" lon="77.63279">
        <ele>5348.4</ele>
        <time>2015-09-05T05:57:13Z</time>
      </trkpt>
      <trkpt lat="33.76055" lon="77.6328">
        <ele>5349</ele>
        <time>2015-09-05T05:57:16Z</time>
      </trkpt>
      <trkpt lat="33.7605" lon="77.63278">
        <ele>5348.8</ele>
        <time>2015-09-05T05:57:46Z</time>
      </trkpt>
      <trkpt lat="33.76051" lon="77.6328">
        <ele>5348.6</ele>
        <time>2015-09-05T05:57:48Z</time>
      </trkpt>
      <trkpt lat="33.76051" lon="77.6328">
        <ele>5348.4</ele>
        <time>2015-09-05T05:58:43Z</time>
      </trkpt>
      <trkpt lat="33.7605" lon="77.6328">
        <ele>5348.2</ele>
        <time>2015-09-05T05:59:34Z</time>
      </trkpt>
      <trkpt lat="33.76053" lon="77.63276">
        <ele>5348.6</ele>
        <time>2015-09-05T05:59:55Z</time>
      </trkpt>
      <trkpt lat="33.76055" lon="77.63281">
        <ele>5348</ele>
        <time>2015-09-05T06:00:24Z</time>
      </trkpt>
      <trkpt lat="33.76059" lon="77.6328">
        <ele>5348.4</ele>
        <time>2015-09-05T06:00:54Z</time>
      </trkpt>
      <trkpt lat="33.76057" lon="77.63277">
        <ele>5347.8</ele>
        <time>2015-09-05T06:02:11Z</time>
      </trkpt>
      <trkpt lat="33.76058" lon="77.63276">
        <ele>5348.4</ele>
        <time>2015-09-05T06:03:42Z</time>
      </trkpt>
      <trkpt lat="33.7606" lon="77.6326">
        <ele>5348</ele>
        <time>2015-09-05T06:04:29Z</time>
      </trkpt>
      <trkpt lat="33.76058" lon="77.63279">
        <ele>5348.2</ele>
        <time>2015-09-05T06:04:39Z</time>
      </trkpt>
      <trkpt lat="33.76059" lon="77.63275">
        <ele>5348</ele>
        <time>2015-09-05T06:05:27Z</time>
      </trkpt>
      <trkpt lat="33.76057" lon="77.63275">
        <ele>5348</ele>
        <time>2015-09-05T06:05:48Z</time>
      </trkpt>
      <trkpt lat="33.76058" lon="77.63276">
        <ele>5347.8</ele>
        <time>2015-09-05T06:06:23Z</time>
      </trkpt>
      <trkpt lat="33.76055" lon="77.63276">
        <ele>5347</ele>
        <time>2015-09-05T06:06:55Z</time>
      </trkpt>
      <trkpt lat="33.76055" lon="77.63276">
        <ele>5347.6</ele>
        <time>2015-09-05T06:07:41Z</time>
      </trkpt>
      <trkpt lat="33.76056" lon="77.63272">
        <ele>5347.8</ele>
        <time>2015-09-05T06:07:49Z</time>
      </trkpt>
      <trkpt lat="33.76057" lon="77.63273">
        <ele>5347.8</ele>
        <time>2015-09-05T06:07:52Z</time>
      </trkpt>
      <trkpt lat="33.76054" lon="77.63276">
        <ele>5348</ele>
        <time>2015-09-05T06:07:54Z</time>
      </trkpt>
      <trkpt lat="33.76055" lon="77.63279">
        <ele>5348</ele>
        <time>2015-09-05T06:08:17Z</time>
      </trkpt>
      <trkpt lat="33.76055" lon="77.63287">
        <ele>5347.4</ele>
        <time>2015-09-05T06:09:02Z</time>
      </trkpt>
      <trkpt lat="33.76052" lon="77.63287">
        <ele>5347.8</ele>
        <time>2015-09-05T06:09:28Z</time>
      </trkpt>
      <trkpt lat="33.76052" lon="77.63274">
        <ele>5348</ele>
        <time>2015-09-05T06:10:10Z</time>
      </trkpt>
      <trkpt lat="33.76053" lon="77.63272">
        <ele>5348.4</ele>
        <time>2015-09-05T06:10:18Z</time>
      </trkpt>
      <trkpt lat="33.76053" lon="77.63276">
        <ele>5348.8</ele>
        <time>2015-09-05T06:10:20Z</time>
      </trkpt>
      <trkpt lat="33.76057" lon="77.63277">
        <ele>5348.8</ele>
        <time>2015-09-05T06:10:23Z</time>
      </trkpt>
      <trkpt lat="33.76059" lon="77.63276">
        <ele>5348.8</ele>
        <time>2015-09-05T06:10:26Z</time>
      </trkpt>
      <trkpt lat="33.76057" lon="77.63277">
        <ele>5349.2</ele>
        <time>2015-09-05T06:10:31Z</time>
      </trkpt>
      <trkpt lat="33.76054" lon="77.63274">
        <ele>5348.2</ele>
        <time>2015-09-05T06:10:43Z</time>
      </trkpt>
      <trkpt lat="33.76052" lon="77.63272">
        <ele>5347.8</ele>
        <time>2015-09-05T06:10:49Z</time>
      </trkpt>
      <trkpt lat="33.76049" lon="77.63275">
        <ele>5347.8</ele>
        <time>2015-09-05T06:10:56Z</time>
      </trkpt>
      <trkpt lat="33.76049" lon="77.63274">
        <ele>5347.8</ele>
        <time>2015-09-05T06:10:58Z</time>
      </trkpt>
      <trkpt lat="33.76052" lon="77.63272">
        <ele>5347.8</ele>
        <time>2015-09-05T06:11:00Z</time>
      </trkpt>
      <trkpt lat="33.76055" lon="77.63274">
        <ele>5348.2</ele>
        <time>2015-09-05T06:11:06Z</time>
      </trkpt>
      <trkpt lat="33.76052" lon="77.63274">
        <ele>5348.4</ele>
        <time>2015-09-05T06:11:08Z</time>
      </trkpt>
      <trkpt lat="33.76049" lon="77.63278">
        <ele>5348.8</ele>
        <time>2015-09-05T06:11:35Z</time>
      </trkpt>
      <trkpt lat="33.7605" lon="77.63279">
        <ele>5348.8</ele>
        <time>2015-09-05T06:11:37Z</time>
      </trkpt>
      <trkpt lat="33.76048" lon="77.63274">
        <ele>5349.2</ele>
        <time>2015-09-05T06:12:33Z</time>
      </trkpt>
      <trkpt lat="33.76053" lon="77.63276">
        <ele>5348.6</ele>
        <time>2015-09-05T06:12:40Z</time>
      </trkpt>
      <trkpt lat="33.76055" lon="77.63275">
        <ele>5348</ele>
        <time>2015-09-05T06:12:54Z</time>
      </trkpt>
      <trkpt lat="33.76054" lon="77.63282">
        <ele>5348</ele>
        <time>2015-09-05T06:13:04Z</time>
      </trkpt>
      <trkpt lat="33.76056" lon="77.6328">
        <ele>5348.6</ele>
        <time>2015-09-05T06:13:10Z</time>
      </trkpt>
      <trkpt lat="33.76057" lon="77.63278">
        <ele>5349</ele>
        <time>2015-09-05T06:13:12Z</time>
      </trkpt>
      <trkpt lat="33.76058" lon="77.63276">
        <ele>5349.2</ele>
        <time>2015-09-05T06:13:21Z</time>
      </trkpt>
      <trkpt lat="33.76058" lon="77.63276">
        <ele>5348.8</ele>
        <time>2015-09-05T06:13:24Z</time>
      </trkpt>
      <trkpt lat="33.76054" lon="77.63285">
        <ele>5349.8</ele>
        <time>2015-09-05T06:14:19Z</time>
      </trkpt>
      <trkpt lat="33.76053" lon="77.63284">
        <ele>5349.6</ele>
        <time>2015-09-05T06:14:21Z</time>
      </trkpt>
      <trkpt lat="33.76053" lon="77.63281">
        <ele>5350.2</ele>
        <time>2015-09-05T06:14:50Z</time>
      </trkpt>
      <trkpt lat="33.76052" lon="77.63283">
        <ele>5350.8</ele>
        <time>2015-09-05T06:15:11Z</time>
      </trkpt>
      <trkpt lat="33.7605" lon="77.63278">
        <ele>5350.8</ele>
        <time>2015-09-05T06:15:13Z</time>
      </trkpt>
      <trkpt lat="33.76049" lon="77.63281">
        <ele>5350.8</ele>
        <time>2015-09-05T06:15:15Z</time>
      </trkpt>
      <trkpt lat="33.76055" lon="77.63276">
        <ele>5350.8</ele>
        <time>2015-09-05T06:15:19Z</time>
      </trkpt>
      <trkpt lat="33.76056" lon="77.63272">
        <ele>5351.2</ele>
        <time>2015-09-05T06:15:23Z</time>
      </trkpt>
      <trkpt lat="33.76055" lon="77.6328">
        <ele>5350.4</ele>
        <time>2015-09-05T06:15:48Z</time>
      </trkpt>
      <trkpt lat="33.76056" lon="77.6328">
        <ele>5350.2</ele>
        <time>2015-09-05T06:15:52Z</time>
      </trkpt>
      <trkpt lat="33.76059" lon="77.63278">
        <ele>5350.2</ele>
        <time>2015-09-05T06:15:57Z</time>
      </trkpt>
      <trkpt lat="33.7606" lon="77.63278">
        <ele>5350.2</ele>
        <time>2015-09-05T06:15:59Z</time>
      </trkpt>
      <trkpt lat="33.76056" lon="77.63278">
        <ele>5350.2</ele>
        <time>2015-09-05T06:16:25Z</time>
      </trkpt>
      <trkpt lat="33.76052" lon="77.63276">
        <ele>5350.8</ele>
        <time>2015-09-05T06:16:41Z</time>
      </trkpt>
      <trkpt lat="33.76053" lon="77.63277">
        <ele>5350.6</ele>
        <time>2015-09-05T06:16:43Z</time>
      </trkpt>
      <trkpt lat="33.76053" lon="77.63279">
        <ele>5350.8</ele>
        <time>2015-09-05T06:16:45Z</time>
      </trkpt>
      <trkpt lat="33.76054" lon="77.63284">
        <ele>5351.2</ele>
        <time>2015-09-05T06:17:34Z</time>
      </trkpt>
      <trkpt lat="33.76054" lon="77.63279">
        <ele>5351.6</ele>
        <time>2015-09-05T06:18:27Z</time>
      </trkpt>
      <trkpt lat="33.76051" lon="77.63281">
        <ele>5351.4</ele>
        <time>2015-09-05T06:18:42Z</time>
      </trkpt>
      <trkpt lat="33.76052" lon="77.63281">
        <ele>5351.6</ele>
        <time>2015-09-05T06:18:50Z</time>
      </trkpt>
      <trkpt lat="33.76054" lon="77.63277">
        <ele>5351.8</ele>
        <time>2015-09-05T06:19:12Z</time>
      </trkpt>
      <trkpt lat="33.76055" lon="77.63278">
        <ele>5352.4</ele>
        <time>2015-09-05T06:19:14Z</time>
      </trkpt>
      <trkpt lat="33.76055" lon="77.63278">
        <ele>5351.4</ele>
        <time>2015-09-05T06:19:31Z</time>
      </trkpt>
      <trkpt lat="33.76056" lon="77.63281">
        <ele>5351</ele>
        <time>2015-09-05T06:20:34Z</time>
      </trkpt>
      <trkpt lat="33.76054" lon="77.6328">
        <ele>5351.4</ele>
        <time>2015-09-05T06:20:52Z</time>
      </trkpt>
      <trkpt lat="33.76056" lon="77.63283">
        <ele>5352.4</ele>
        <time>2015-09-05T06:21:41Z</time>
      </trkpt>
      <trkpt lat="33.76053" lon="77.63286">
        <ele>5353.4</ele>
        <time>2015-09-05T06:21:55Z</time>
      </trkpt>
      <trkpt lat="33.76048" lon="77.63296">
        <ele>5352.6</ele>
        <time>2015-09-05T06:22:15Z</time>
      </trkpt>
      <trkpt lat="33.76046" lon="77.63298">
        <ele>5352.4</ele>
        <time>2015-09-05T06:22:17Z</time>
      </trkpt>
      <trkpt lat="33.76044" lon="77.63301">
        <ele>5352</ele>
        <time>2015-09-05T06:22:21Z</time>
      </trkpt>
      <trkpt lat="33.76037" lon="77.63311">
        <ele>5351.4</ele>
        <time>2015-09-05T06:22:36Z</time>
      </trkpt>
      <trkpt lat="33.76021" lon="77.63315">
        <ele>5350.4</ele>
        <time>2015-09-05T06:23:00Z</time>
      </trkpt>
      <trkpt lat="33.76018" lon="77.63319">
        <ele>5350.6</ele>
        <time>2015-09-05T06:23:06Z</time>
      </trkpt>
      <trkpt lat="33.76011" lon="77.63323">
        <ele>5350.4</ele>
        <time>2015-09-05T06:23:21Z</time>
      </trkpt>
      <trkpt lat="33.76007" lon="77.63329">
        <ele>5350.4</ele>
        <time>2015-09-05T06:23:28Z</time>
      </trkpt>
      <trkpt lat="33.7599" lon="77.63336">
        <ele>5349.8</ele>
        <time>2015-09-05T06:23:49Z</time>
      </trkpt>
      <trkpt lat="33.75981" lon="77.63339">
        <ele>5350</ele>
        <time>2015-09-05T06:23:56Z</time>
      </trkpt>
      <trkpt lat="33.75974" lon="77.63338">
        <ele>5349.4</ele>
        <time>2015-09-05T06:24:04Z</time>
      </trkpt>
      <trkpt lat="33.75974" lon="77.63333">
        <ele>5349.6</ele>
        <time>2015-09-05T06:24:08Z</time>
      </trkpt>
      <trkpt lat="33.75966" lon="77.63333">
        <ele>5349.8</ele>
        <time>2015-09-05T06:24:19Z</time>
      </trkpt>
      <trkpt lat="33.75961" lon="77.63338">
        <ele>5349.8</ele>
        <time>2015-09-05T06:24:26Z</time>
      </trkpt>
      <trkpt lat="33.75945" lon="77.63343">
        <ele>5350</ele>
        <time>2015-09-05T06:24:52Z</time>
      </trkpt>
      <trkpt lat="33.75943" lon="77.63345">
        <ele>5350</ele>
        <time>2015-09-05T06:24:54Z</time>
      </trkpt>
      <trkpt lat="33.75931" lon="77.63352">
        <ele>5349.6</ele>
        <time>2015-09-05T06:25:11Z</time>
      </trkpt>
      <trkpt lat="33.75928" lon="77.63354">
        <ele>5349</ele>
        <time>2015-09-05T06:25:17Z</time>
      </trkpt>
      <trkpt lat="33.75912" lon="77.63348">
        <ele>5348.6</ele>
        <time>2015-09-05T06:25:39Z</time>
      </trkpt>
      <trkpt lat="33.75906" lon="77.63351">
        <ele>5348.2</ele>
        <time>2015-09-05T06:25:48Z</time>
      </trkpt>
      <trkpt lat="33.759" lon="77.63352">
        <ele>5348</ele>
        <time>2015-09-05T06:25:53Z</time>
      </trkpt>
      <trkpt lat="33.75882" lon="77.63356">
        <ele>5347.2</ele>
        <time>2015-09-05T06:26:13Z</time>
      </trkpt>
      <trkpt lat="33.7588" lon="77.63356">
        <ele>5347</ele>
        <time>2015-09-05T06:26:15Z</time>
      </trkpt>
      <trkpt lat="33.75877" lon="77.63353">
        <ele>5346.8</ele>
        <time>2015-09-05T06:26:19Z</time>
      </trkpt>
      <trkpt lat="33.75874" lon="77.63349">
        <ele>5346.6</ele>
        <time>2015-09-05T06:26:25Z</time>
      </trkpt>
      <trkpt lat="33.75877" lon="77.6335">
        <ele>5346</ele>
        <time>2015-09-05T06:26:34Z</time>
      </trkpt>
      <trkpt lat="33.75872" lon="77.63353">
        <ele>5344.8</ele>
        <time>2015-09-05T06:26:44Z</time>
      </trkpt>
      <trkpt lat="33.75871" lon="77.63354">
        <ele>5344.8</ele>
        <time>2015-09-05T06:26:45Z</time>
      </trkpt>
      <trkpt lat="33.7587" lon="77.63358">
        <ele>5344</ele>
        <time>2015-09-05T06:26:49Z</time>
      </trkpt>
      <trkpt lat="33.7587" lon="77.63362">
        <ele>5343.8</ele>
        <time>2015-09-05T06:26:52Z</time>
      </trkpt>
      <trkpt lat="33.75872" lon="77.63363">
        <ele>5343.8</ele>
        <time>2015-09-05T06:26:53Z</time>
      </trkpt>
      <trkpt lat="33.75872" lon="77.63366">
        <ele>5343.6</ele>
        <time>2015-09-05T06:26:56Z</time>
      </trkpt>
      <trkpt lat="33.75861" lon="77.63368">
        <ele>5343</ele>
        <time>2015-09-05T06:27:14Z</time>
      </trkpt>
      <trkpt lat="33.7586" lon="77.63369">
        <ele>5343.2</ele>
        <time>2015-09-05T06:27:17Z</time>
      </trkpt>
      <trkpt lat="33.7587" lon="77.63366">
        <ele>5344.2</ele>
        <time>2015-09-05T06:28:17Z</time>
      </trkpt>
      <trkpt lat="33.75862" lon="77.63367">
        <ele>5343.2</ele>
        <time>2015-09-05T06:28:28Z</time>
      </trkpt>
      <trkpt lat="33.75862" lon="77.63366">
        <ele>5342.8</ele>
        <time>2015-09-05T06:28:34Z</time>
      </trkpt>
      <trkpt lat="33.75861" lon="77.63371">
        <ele>5342.6</ele>
        <time>2015-09-05T06:29:02Z</time>
      </trkpt>
      <trkpt lat="33.75859" lon="77.6337">
        <ele>5342.6</ele>
        <time>2015-09-05T06:29:04Z</time>
      </trkpt>
      <trkpt lat="33.75856" lon="77.63365">
        <ele>5342.6</ele>
        <time>2015-09-05T06:29:11Z</time>
      </trkpt>
      <trkpt lat="33.75861" lon="77.63361">
        <ele>5341.8</ele>
        <time>2015-09-05T06:30:04Z</time>
      </trkpt>
      <trkpt lat="33.7586" lon="77.6337">
        <ele>5340.8</ele>
        <time>2015-09-05T06:30:57Z</time>
      </trkpt>
      <trkpt lat="33.7586" lon="77.6337">
        <ele>5341.2</ele>
        <time>2015-09-05T06:31:30Z</time>
      </trkpt>
      <trkpt lat="33.75854" lon="77.63372">
        <ele>5339.6</ele>
        <time>2015-09-05T06:31:39Z</time>
      </trkpt>
      <trkpt lat="33.75852" lon="77.63369">
        <ele>5338.6</ele>
        <time>2015-09-05T06:31:43Z</time>
      </trkpt>
      <trkpt lat="33.75845" lon="77.63369">
        <ele>5337.8</ele>
        <time>2015-09-05T06:31:50Z</time>
      </trkpt>
      <trkpt lat="33.75843" lon="77.63368">
        <ele>5337.6</ele>
        <time>2015-09-05T06:31:52Z</time>
      </trkpt>
      <trkpt lat="33.75842" lon="77.63368">
        <ele>5337.6</ele>
        <time>2015-09-05T06:31:53Z</time>
      </trkpt>
      <trkpt lat="33.75839" lon="77.63368">
        <ele>5337</ele>
        <time>2015-09-05T06:31:58Z</time>
      </trkpt>
      <trkpt lat="33.75836" lon="77.63368">
        <ele>5336.6</ele>
        <time>2015-09-05T06:32:00Z</time>
      </trkpt>
      <trkpt lat="33.75835" lon="77.63368">
        <ele>5336.4</ele>
        <time>2015-09-05T06:32:02Z</time>
      </trkpt>
      <trkpt lat="33.75832" lon="77.63368">
        <ele>5336.4</ele>
        <time>2015-09-05T06:32:05Z</time>
      </trkpt>
      <trkpt lat="33.75831" lon="77.63368">
        <ele>5335.4</ele>
        <time>2015-09-05T06:32:15Z</time>
      </trkpt>
      <trkpt lat="33.75823" lon="77.6337">
        <ele>5334.4</ele>
        <time>2015-09-05T06:32:25Z</time>
      </trkpt>
      <trkpt lat="33.75818" lon="77.63372">
        <ele>5333.6</ele>
        <time>2015-09-05T06:32:31Z</time>
      </trkpt>
      <trkpt lat="33.75815" lon="77.63373">
        <ele>5333.6</ele>
        <time>2015-09-05T06:32:34Z</time>
      </trkpt>
      <trkpt lat="33.75811" lon="77.63374">
        <ele>5333.4</ele>
        <time>2015-09-05T06:32:38Z</time>
      </trkpt>
      <trkpt lat="33.75808" lon="77.63376">
        <ele>5333.2</ele>
        <time>2015-09-05T06:32:40Z</time>
      </trkpt>
      <trkpt lat="33.75803" lon="77.63378">
        <ele>5333.2</ele>
        <time>2015-09-05T06:32:46Z</time>
      </trkpt>
      <trkpt lat="33.75797" lon="77.63383">
        <ele>5332.2</ele>
        <time>2015-09-05T06:33:04Z</time>
      </trkpt>
      <trkpt lat="33.75781" lon="77.63386">
        <ele>5331.2</ele>
        <time>2015-09-05T06:33:27Z</time>
      </trkpt>
      <trkpt lat="33.75775" lon="77.63388">
        <ele>5331</ele>
        <time>2015-09-05T06:33:31Z</time>
      </trkpt>
      <trkpt lat="33.75774" lon="77.63388">
        <ele>5331</ele>
        <time>2015-09-05T06:33:33Z</time>
      </trkpt>
      <trkpt lat="33.75768" lon="77.63384">
        <ele>5330.2</ele>
        <time>2015-09-05T06:33:46Z</time>
      </trkpt>
      <trkpt lat="33.75762" lon="77.63377">
        <ele>5329.2</ele>
        <time>2015-09-05T06:34:09Z</time>
      </trkpt>
      <trkpt lat="33.75761" lon="77.63377">
        <ele>5328</ele>
        <time>2015-09-05T06:34:14Z</time>
      </trkpt>
      <trkpt lat="33.75755" lon="77.63382">
        <ele>5327</ele>
        <time>2015-09-05T06:34:20Z</time>
      </trkpt>
      <trkpt lat="33.7575" lon="77.63387">
        <ele>5326.2</ele>
        <time>2015-09-05T06:34:26Z</time>
      </trkpt>
      <trkpt lat="33.75748" lon="77.63391">
        <ele>5326</ele>
        <time>2015-09-05T06:34:27Z</time>
      </trkpt>
      <trkpt lat="33.75743" lon="77.634">
        <ele>5325</ele>
        <time>2015-09-05T06:34:31Z</time>
      </trkpt>
      <trkpt lat="33.75742" lon="77.63401">
        <ele>5324.8</ele>
        <time>2015-09-05T06:34:32Z</time>
      </trkpt>
      <trkpt lat="33.75743" lon="77.63406">
        <ele>5323.8</ele>
        <time>2015-09-05T06:34:40Z</time>
      </trkpt>
      <trkpt lat="33.75742" lon="77.6341">
        <ele>5322.6</ele>
        <time>2015-09-05T06:34:46Z</time>
      </trkpt>
      <trkpt lat="33.75739" lon="77.63412">
        <ele>5321.4</ele>
        <time>2015-09-05T06:34:51Z</time>
      </trkpt>
      <trkpt lat="33.75735" lon="77.63411">
        <ele>5320.4</ele>
        <time>2015-09-05T06:34:57Z</time>
      </trkpt>
      <trkpt lat="33.75731" lon="77.63413">
        <ele>5319.6</ele>
        <time>2015-09-05T06:35:00Z</time>
      </trkpt>
      <trkpt lat="33.7573" lon="77.63413">
        <ele>5319.2</ele>
        <time>2015-09-05T06:35:02Z</time>
      </trkpt>
      <trkpt lat="33.75729" lon="77.63414">
        <ele>5318.2</ele>
        <time>2015-09-05T06:35:08Z</time>
      </trkpt>
      <trkpt lat="33.75722" lon="77.63424">
        <ele>5317.4</ele>
        <time>2015-09-05T06:35:15Z</time>
      </trkpt>
      <trkpt lat="33.7572" lon="77.63427">
        <ele>5317.2</ele>
        <time>2015-09-05T06:35:17Z</time>
      </trkpt>
      <trkpt lat="33.75711" lon="77.63435">
        <ele>5316</ele>
        <time>2015-09-05T06:35:29Z</time>
      </trkpt>
      <trkpt lat="33.75707" lon="77.63438">
        <ele>5315.6</ele>
        <time>2015-09-05T06:35:33Z</time>
      </trkpt>
      <trkpt lat="33.75703" lon="77.63441">
        <ele>5315</ele>
        <time>2015-09-05T06:35:38Z</time>
      </trkpt>
      <trkpt lat="33.75695" lon="77.63445">
        <ele>5313.8</ele>
        <time>2015-09-05T06:35:47Z</time>
      </trkpt>
      <trkpt lat="33.75691" lon="77.63447">
        <ele>5312.8</ele>
        <time>2015-09-05T06:35:53Z</time>
      </trkpt>
      <trkpt lat="33.75686" lon="77.63448">
        <ele>5312</ele>
        <time>2015-09-05T06:35:59Z</time>
      </trkpt>
      <trkpt lat="33.75683" lon="77.63452">
        <ele>5311.6</ele>
        <time>2015-09-05T06:36:06Z</time>
      </trkpt>
      <trkpt lat="33.75681" lon="77.63456">
        <ele>5310.8</ele>
        <time>2015-09-05T06:36:10Z</time>
      </trkpt>
      <trkpt lat="33.7568" lon="77.63458">
        <ele>5310.6</ele>
        <time>2015-09-05T06:36:12Z</time>
      </trkpt>
      <trkpt lat="33.75678" lon="77.6346">
        <ele>5310</ele>
        <time>2015-09-05T06:36:14Z</time>
      </trkpt>
      <trkpt lat="33.75676" lon="77.63462">
        <ele>5309.4</ele>
        <time>2015-09-05T06:36:17Z</time>
      </trkpt>
      <trkpt lat="33.75671" lon="77.63467">
        <ele>5308.2</ele>
        <time>2015-09-05T06:36:22Z</time>
      </trkpt>
      <trkpt lat="33.75668" lon="77.63467">
        <ele>5307.2</ele>
        <time>2015-09-05T06:36:26Z</time>
      </trkpt>
      <trkpt lat="33.75668" lon="77.63465">
        <ele>5306.6</ele>
        <time>2015-09-05T06:36:27Z</time>
      </trkpt>
      <trkpt lat="33.75668" lon="77.63464">
        <ele>5306.2</ele>
        <time>2015-09-05T06:36:28Z</time>
      </trkpt>
      <trkpt lat="33.75666" lon="77.63463">
        <ele>5305</ele>
        <time>2015-09-05T06:36:32Z</time>
      </trkpt>
      <trkpt lat="33.75661" lon="77.63469">
        <ele>5304.8</ele>
        <time>2015-09-05T06:36:38Z</time>
      </trkpt>
      <trkpt lat="33.75659" lon="77.63477">
        <ele>5303.8</ele>
        <time>2015-09-05T06:36:43Z</time>
      </trkpt>
      <trkpt lat="33.75657" lon="77.63482">
        <ele>5302.8</ele>
        <time>2015-09-05T06:36:47Z</time>
      </trkpt>
      <trkpt lat="33.75654" lon="77.63487">
        <ele>5301.6</ele>
        <time>2015-09-05T06:36:51Z</time>
      </trkpt>
      <trkpt lat="33.75653" lon="77.6349">
        <ele>5300.6</ele>
        <time>2015-09-05T06:36:54Z</time>
      </trkpt>
      <trkpt lat="33.75649" lon="77.63496">
        <ele>5299.4</ele>
        <time>2015-09-05T06:36:59Z</time>
      </trkpt>
      <trkpt lat="33.75649" lon="77.63499">
        <ele>5298.4</ele>
        <time>2015-09-05T06:37:03Z</time>
      </trkpt>
      <trkpt lat="33.75653" lon="77.63501">
        <ele>5298</ele>
        <time>2015-09-05T06:37:04Z</time>
      </trkpt>
      <trkpt lat="33.75654" lon="77.63503">
        <ele>5297.2</ele>
        <time>2015-09-05T06:37:06Z</time>
      </trkpt>
      <trkpt lat="33.75651" lon="77.63503">
        <ele>5296</ele>
        <time>2015-09-05T06:37:09Z</time>
      </trkpt>
      <trkpt lat="33.75645" lon="77.63503">
        <ele>5294.8</ele>
        <time>2015-09-05T06:37:13Z</time>
      </trkpt>
      <trkpt lat="33.75644" lon="77.63503">
        <ele>5294.6</ele>
        <time>2015-09-05T06:37:14Z</time>
      </trkpt>
      <trkpt lat="33.75641" lon="77.63504">
        <ele>5293.8</ele>
        <time>2015-09-05T06:37:17Z</time>
      </trkpt>
      <trkpt lat="33.75632" lon="77.63501">
        <ele>5292.4</ele>
        <time>2015-09-05T06:37:35Z</time>
      </trkpt>
      <trkpt lat="33.7563" lon="77.63499">
        <ele>5291.4</ele>
        <time>2015-09-05T06:37:40Z</time>
      </trkpt>
      <trkpt lat="33.75627" lon="77.63505">
        <ele>5290.2</ele>
        <time>2015-09-05T06:37:47Z</time>
      </trkpt>
      <trkpt lat="33.75626" lon="77.63508">
        <ele>5289.8</ele>
        <time>2015-09-05T06:37:50Z</time>
      </trkpt>
      <trkpt lat="33.75624" lon="77.6351">
        <ele>5289.2</ele>
        <time>2015-09-05T06:37:52Z</time>
      </trkpt>
      <trkpt lat="33.75624" lon="77.63509">
        <ele>5289</ele>
        <time>2015-09-05T06:37:53Z</time>
      </trkpt>
      <trkpt lat="33.75622" lon="77.63509">
        <ele>5288.8</ele>
        <time>2015-09-05T06:37:54Z</time>
      </trkpt>
      <trkpt lat="33.7562" lon="77.63509">
        <ele>5288.6</ele>
        <time>2015-09-05T06:37:56Z</time>
      </trkpt>
      <trkpt lat="33.75619" lon="77.63509">
        <ele>5287.8</ele>
        <time>2015-09-05T06:37:58Z</time>
      </trkpt>
      <trkpt lat="33.75615" lon="77.63514">
        <ele>5286.6</ele>
        <time>2015-09-05T06:38:05Z</time>
      </trkpt>
      <trkpt lat="33.75614" lon="77.63519">
        <ele>5286</ele>
        <time>2015-09-05T06:38:07Z</time>
      </trkpt>
      <trkpt lat="33.75612" lon="77.63517">
        <ele>5285.4</ele>
        <time>2015-09-05T06:38:09Z</time>
      </trkpt>
      <trkpt lat="33.7561" lon="77.63517">
        <ele>5284.4</ele>
        <time>2015-09-05T06:38:11Z</time>
      </trkpt>
      <trkpt lat="33.75607" lon="77.63516">
        <ele>5283.2</ele>
        <time>2015-09-05T06:38:15Z</time>
      </trkpt>
      <trkpt lat="33.75603" lon="77.63512">
        <ele>5281.8</ele>
        <time>2015-09-05T06:38:21Z</time>
      </trkpt>
      <trkpt lat="33.75597" lon="77.6351">
        <ele>5280.8</ele>
        <time>2015-09-05T06:38:29Z</time>
      </trkpt>
      <trkpt lat="33.75596" lon="77.6351">
        <ele>5280.8</ele>
        <time>2015-09-05T06:38:30Z</time>
      </trkpt>
      <trkpt lat="33.75587" lon="77.63518">
        <ele>5280.6</ele>
        <time>2015-09-05T06:38:32Z</time>
      </trkpt>
      <trkpt lat="33.75583" lon="77.63516">
        <ele>5280.4</ele>
        <time>2015-09-05T06:38:36Z</time>
      </trkpt>
      <trkpt lat="33.75567" lon="77.63505">
        <ele>5279.8</ele>
        <time>2015-09-05T06:38:57Z</time>
      </trkpt>
      <trkpt lat="33.75569" lon="77.63495">
        <ele>5279</ele>
        <time>2015-09-05T06:39:05Z</time>
      </trkpt>
      <trkpt lat="33.75568" lon="77.63493">
        <ele>5279.2</ele>
        <time>2015-09-05T06:39:07Z</time>
      </trkpt>
      <trkpt lat="33.75566" lon="77.63494">
        <ele>5280.8</ele>
        <time>2015-09-05T06:39:14Z</time>
      </trkpt>
      <trkpt lat="33.7557" lon="77.63498">
        <ele>5280</ele>
        <time>2015-09-05T06:40:23Z</time>
      </trkpt>
      <trkpt lat="33.75566" lon="77.63497">
        <ele>5281</ele>
        <time>2015-09-05T06:41:38Z</time>
      </trkpt>
      <trkpt lat="33.75565" lon="77.63496">
        <ele>5279.8</ele>
        <time>2015-09-05T06:43:02Z</time>
      </trkpt>
      <trkpt lat="33.75566" lon="77.63497">
        <ele>5279.4</ele>
        <time>2015-09-05T06:43:59Z</time>
      </trkpt>
      <trkpt lat="33.75562" lon="77.63496">
        <ele>5279.2</ele>
        <time>2015-09-05T06:44:48Z</time>
      </trkpt>
      <trkpt lat="33.75559" lon="77.63496">
        <ele>5278.8</ele>
        <time>2015-09-05T06:44:51Z</time>
      </trkpt>
      <trkpt lat="33.75551" lon="77.63493">
        <ele>5278</ele>
        <time>2015-09-05T06:45:07Z</time>
      </trkpt>
      <trkpt lat="33.75551" lon="77.63495">
        <ele>5277.8</ele>
        <time>2015-09-05T06:45:09Z</time>
      </trkpt>
      <trkpt lat="33.7555" lon="77.63497">
        <ele>5277.4</ele>
        <time>2015-09-05T06:45:10Z</time>
      </trkpt>
      <trkpt lat="33.7555" lon="77.63499">
        <ele>5276.6</ele>
        <time>2015-09-05T06:45:33Z</time>
      </trkpt>
      <trkpt lat="33.75547" lon="77.635">
        <ele>5275.6</ele>
        <time>2015-09-05T06:45:38Z</time>
      </trkpt>
      <trkpt lat="33.75537" lon="77.63497">
        <ele>5275.8</ele>
        <time>2015-09-05T06:45:55Z</time>
      </trkpt>
      <trkpt lat="33.75536" lon="77.63495">
        <ele>5276.6</ele>
        <time>2015-09-05T06:46:00Z</time>
      </trkpt>
      <trkpt lat="33.75534" lon="77.63493">
        <ele>5275.6</ele>
        <time>2015-09-05T06:46:40Z</time>
      </trkpt>
      <trkpt lat="33.75529" lon="77.63492">
        <ele>5274.4</ele>
        <time>2015-09-05T06:46:57Z</time>
      </trkpt>
      <trkpt lat="33.75523" lon="77.63494">
        <ele>5274.4</ele>
        <time>2015-09-05T06:47:05Z</time>
      </trkpt>
      <trkpt lat="33.7551" lon="77.6349">
        <ele>5274.2</ele>
        <time>2015-09-05T06:47:23Z</time>
      </trkpt>
      <trkpt lat="33.75504" lon="77.63492">
        <ele>5273.4</ele>
        <time>2015-09-05T06:47:30Z</time>
      </trkpt>
      <trkpt lat="33.75495" lon="77.63496">
        <ele>5272.4</ele>
        <time>2015-09-05T06:47:45Z</time>
      </trkpt>
      <trkpt lat="33.75486" lon="77.63501">
        <ele>5271.4</ele>
        <time>2015-09-05T06:47:54Z</time>
      </trkpt>
      <trkpt lat="33.75486" lon="77.63501">
        <ele>5271.2</ele>
        <time>2015-09-05T06:47:55Z</time>
      </trkpt>
      <trkpt lat="33.75477" lon="77.63506">
        <ele>5270.2</ele>
        <time>2015-09-05T06:48:06Z</time>
      </trkpt>
      <trkpt lat="33.75471" lon="77.63504">
        <ele>5269.2</ele>
        <time>2015-09-05T06:48:15Z</time>
      </trkpt>
      <trkpt lat="33.75467" lon="77.63505">
        <ele>5268.8</ele>
        <time>2015-09-05T06:48:19Z</time>
      </trkpt>
      <trkpt lat="33.75454" lon="77.6352">
        <ele>5268.2</ele>
        <time>2015-09-05T06:48:23Z</time>
      </trkpt>
      <trkpt lat="33.75449" lon="77.63522">
        <ele>5267</ele>
        <time>2015-09-05T06:48:33Z</time>
      </trkpt>
      <trkpt lat="33.75441" lon="77.63527">
        <ele>5266</ele>
        <time>2015-09-05T06:48:47Z</time>
      </trkpt>
      <trkpt lat="33.75431" lon="77.63528">
        <ele>5265</ele>
        <time>2015-09-05T06:48:58Z</time>
      </trkpt>
      <trkpt lat="33.7543" lon="77.63527">
        <ele>5264.6</ele>
        <time>2015-09-05T06:48:59Z</time>
      </trkpt>
      <trkpt lat="33.75421" lon="77.63532">
        <ele>5264</ele>
        <time>2015-09-05T06:49:06Z</time>
      </trkpt>
      <trkpt lat="33.75409" lon="77.6354">
        <ele>5263.6</ele>
        <time>2015-09-05T06:49:19Z</time>
      </trkpt>
      <trkpt lat="33.75406" lon="77.63542">
        <ele>5262.8</ele>
        <time>2015-09-05T06:49:23Z</time>
      </trkpt>
      <trkpt lat="33.75404" lon="77.63543">
        <ele>5262.6</ele>
        <time>2015-09-05T06:49:24Z</time>
      </trkpt>
      <trkpt lat="33.754" lon="77.63546">
        <ele>5262</ele>
        <time>2015-09-05T06:49:29Z</time>
      </trkpt>
      <trkpt lat="33.75395" lon="77.63547">
        <ele>5261.6</ele>
        <time>2015-09-05T06:49:33Z</time>
      </trkpt>
      <trkpt lat="33.75394" lon="77.63547">
        <ele>5261.4</ele>
        <time>2015-09-05T06:49:34Z</time>
      </trkpt>
      <trkpt lat="33.75387" lon="77.63548">
        <ele>5260.4</ele>
        <time>2015-09-05T06:49:40Z</time>
      </trkpt>
      <trkpt lat="33.75386" lon="77.63543">
        <ele>5259.4</ele>
        <time>2015-09-05T06:49:50Z</time>
      </trkpt>
      <trkpt lat="33.75381" lon="77.63543">
        <ele>5258.2</ele>
        <time>2015-09-05T06:49:57Z</time>
      </trkpt>
      <trkpt lat="33.75376" lon="77.63546">
        <ele>5257.6</ele>
        <time>2015-09-05T06:50:03Z</time>
      </trkpt>
      <trkpt lat="33.75374" lon="77.63549">
        <ele>5257.2</ele>
        <time>2015-09-05T06:50:06Z</time>
      </trkpt>
      <trkpt lat="33.75358" lon="77.63563">
        <ele>5256.4</ele>
        <time>2015-09-05T06:50:18Z</time>
      </trkpt>
      <trkpt lat="33.75356" lon="77.63563">
        <ele>5256.2</ele>
        <time>2015-09-05T06:50:22Z</time>
      </trkpt>
      <trkpt lat="33.75349" lon="77.63567">
        <ele>5256.4</ele>
        <time>2015-09-05T06:50:28Z</time>
      </trkpt>
      <trkpt lat="33.75333" lon="77.63577">
        <ele>5255.4</ele>
        <time>2015-09-05T06:50:43Z</time>
      </trkpt>
      <trkpt lat="33.7533" lon="77.63579">
        <ele>5255</ele>
        <time>2015-09-05T06:50:45Z</time>
      </trkpt>
      <trkpt lat="33.75315" lon="77.63583">
        <ele>5253.8</ele>
        <time>2015-09-05T06:51:00Z</time>
      </trkpt>
      <trkpt lat="33.753" lon="77.63594">
        <ele>5253.8</ele>
        <time>2015-09-05T06:51:09Z</time>
      </trkpt>
      <trkpt lat="33.75282" lon="77.636">
        <ele>5254.8</ele>
        <time>2015-09-05T06:51:23Z</time>
      </trkpt>
      <trkpt lat="33.75277" lon="77.63601">
        <ele>5254.8</ele>
        <time>2015-09-05T06:51:27Z</time>
      </trkpt>
      <trkpt lat="33.75271" lon="77.63593">
        <ele>5255.6</ele>
        <time>2015-09-05T06:51:38Z</time>
      </trkpt>
      <trkpt lat="33.7527" lon="77.63594">
        <ele>5256</ele>
        <time>2015-09-05T06:51:39Z</time>
      </trkpt>
      <trkpt lat="33.75268" lon="77.63588">
        <ele>5256.6</ele>
        <time>2015-09-05T06:51:45Z</time>
      </trkpt>
      <trkpt lat="33.75267" lon="77.63584">
        <ele>5257</ele>
        <time>2015-09-05T06:51:51Z</time>
      </trkpt>
      <trkpt lat="33.75267" lon="77.63581">
        <ele>5257.4</ele>
        <time>2015-09-05T06:51:55Z</time>
      </trkpt>
      <trkpt lat="33.75266" lon="77.63579">
        <ele>5258.2</ele>
        <time>2015-09-05T06:51:59Z</time>
      </trkpt>
      <trkpt lat="33.75271" lon="77.63574">
        <ele>5259</ele>
        <time>2015-09-05T06:52:06Z</time>
      </trkpt>
      <trkpt lat="33.75272" lon="77.63574">
        <ele>5259.2</ele>
        <time>2015-09-05T06:52:07Z</time>
      </trkpt>
      <trkpt lat="33.75276" lon="77.63572">
        <ele>5259.6</ele>
        <time>2015-09-05T06:52:11Z</time>
      </trkpt>
      <trkpt lat="33.75278" lon="77.63572">
        <ele>5260.2</ele>
        <time>2015-09-05T06:52:15Z</time>
      </trkpt>
      <trkpt lat="33.75278" lon="77.63573">
        <ele>5261.4</ele>
        <time>2015-09-05T06:52:22Z</time>
      </trkpt>
      <trkpt lat="33.75278" lon="77.63571">
        <ele>5262.6</ele>
        <time>2015-09-05T06:52:26Z</time>
      </trkpt>
      <trkpt lat="33.75275" lon="77.63566">
        <ele>5263.6</ele>
        <time>2015-09-05T06:52:35Z</time>
      </trkpt>
      <trkpt lat="33.75274" lon="77.63562">
        <ele>5264.6</ele>
        <time>2015-09-05T06:52:48Z</time>
      </trkpt>
      <trkpt lat="33.75277" lon="77.63557">
        <ele>5266</ele>
        <time>2015-09-05T06:53:02Z</time>
      </trkpt>
      <trkpt lat="33.75279" lon="77.63558">
        <ele>5267</ele>
        <time>2015-09-05T06:53:06Z</time>
      </trkpt>
      <trkpt lat="33.75282" lon="77.63558">
        <ele>5268</ele>
        <time>2015-09-05T06:53:15Z</time>
      </trkpt>
      <trkpt lat="33.75285" lon="77.63553">
        <ele>5267.2</ele>
        <time>2015-09-05T06:53:24Z</time>
      </trkpt>
      <trkpt lat="33.75283" lon="77.63553">
        <ele>5267</ele>
        <time>2015-09-05T06:53:25Z</time>
      </trkpt>
      <trkpt lat="33.75278" lon="77.63548">
        <ele>5266</ele>
        <time>2015-09-05T06:53:30Z</time>
      </trkpt>
      <trkpt lat="33.75283" lon="77.63541">
        <ele>5267</ele>
        <time>2015-09-05T06:54:04Z</time>
      </trkpt>
      <trkpt lat="33.75287" lon="77.63533">
        <ele>5268</ele>
        <time>2015-09-05T06:54:36Z</time>
      </trkpt>
      <trkpt lat="33.75291" lon="77.63532">
        <ele>5269</ele>
        <time>2015-09-05T06:54:44Z</time>
      </trkpt>
      <trkpt lat="33.75292" lon="77.63528">
        <ele>5270.2</ele>
        <time>2015-09-05T06:54:50Z</time>
      </trkpt>
      <trkpt lat="33.75293" lon="77.63526">
        <ele>5270.4</ele>
        <time>2015-09-05T06:54:52Z</time>
      </trkpt>
      <trkpt lat="33.75294" lon="77.63521">
        <ele>5271.2</ele>
        <time>2015-09-05T06:54:59Z</time>
      </trkpt>
      <trkpt lat="33.753" lon="77.63521">
        <ele>5271.6</ele>
        <time>2015-09-05T06:55:07Z</time>
      </trkpt>
      <trkpt lat="33.75303" lon="77.6352">
        <ele>5272.4</ele>
        <time>2015-09-05T06:55:11Z</time>
      </trkpt>
      <trkpt lat="33.75303" lon="77.63521">
        <ele>5272.8</ele>
        <time>2015-09-05T06:55:36Z</time>
      </trkpt>
      <trkpt lat="33.75295" lon="77.63518">
        <ele>5271.6</ele>
        <time>2015-09-05T06:55:49Z</time>
      </trkpt>
      <trkpt lat="33.75294" lon="77.6352">
        <ele>5271.4</ele>
        <time>2015-09-05T06:55:52Z</time>
      </trkpt>
      <trkpt lat="33.75292" lon="77.63523">
        <ele>5270.2</ele>
        <time>2015-09-05T06:56:02Z</time>
      </trkpt>
      <trkpt lat="33.75292" lon="77.63523">
        <ele>5271.4</ele>
        <time>2015-09-05T06:56:44Z</time>
      </trkpt>
      <trkpt lat="33.75291" lon="77.63525">
        <ele>5271.2</ele>
        <time>2015-09-05T06:56:59Z</time>
      </trkpt>
      <trkpt lat="33.75295" lon="77.63524">
        <ele>5271.4</ele>
        <time>2015-09-05T06:57:01Z</time>
      </trkpt>
      <trkpt lat="33.75299" lon="77.63522">
        <ele>5271.6</ele>
        <time>2015-09-05T06:57:04Z</time>
      </trkpt>
      <trkpt lat="33.75301" lon="77.63521">
        <ele>5271.8</ele>
        <time>2015-09-05T06:57:06Z</time>
      </trkpt>
      <trkpt lat="33.753" lon="77.63523">
        <ele>5272.6</ele>
        <time>2015-09-05T06:57:16Z</time>
      </trkpt>
      <trkpt lat="33.75297" lon="77.63515">
        <ele>5273.8</ele>
        <time>2015-09-05T06:57:50Z</time>
      </trkpt>
      <trkpt lat="33.753" lon="77.63515">
        <ele>5274</ele>
        <time>2015-09-05T06:57:57Z</time>
      </trkpt>
      <trkpt lat="33.75302" lon="77.63514">
        <ele>5274.2</ele>
        <time>2015-09-05T06:57:59Z</time>
      </trkpt>
      <trkpt lat="33.75309" lon="77.63506">
        <ele>5272.6</ele>
        <time>2015-09-05T06:59:03Z</time>
      </trkpt>
      <trkpt lat="33.75303" lon="77.63505">
        <ele>5272</ele>
        <time>2015-09-05T06:59:54Z</time>
      </trkpt>
      <trkpt lat="33.75307" lon="77.63505">
        <ele>5271.8</ele>
        <time>2015-09-05T07:00:13Z</time>
      </trkpt>
      <trkpt lat="33.75307" lon="77.63505">
        <ele>5271.6</ele>
        <time>2015-09-05T07:00:31Z</time>
      </trkpt>
      <trkpt lat="33.75305" lon="77.63504">
        <ele>5271.4</ele>
        <time>2015-09-05T07:00:56Z</time>
      </trkpt>
      <trkpt lat="33.75301" lon="77.63507">
        <ele>5271.8</ele>
        <time>2015-09-05T07:01:47Z</time>
      </trkpt>
      <trkpt lat="33.75296" lon="77.63506">
        <ele>5271.8</ele>
        <time>2015-09-05T07:01:52Z</time>
      </trkpt>
      <trkpt lat="33.75292" lon="77.63501">
        <ele>5271.4</ele>
        <time>2015-09-05T07:02:21Z</time>
      </trkpt>
      <trkpt lat="33.75311" lon="77.63506">
        <ele>5271.2</ele>
        <time>2015-09-05T07:02:43Z</time>
      </trkpt>
      <trkpt lat="33.75308" lon="77.63504">
        <ele>5271.4</ele>
        <time>2015-09-05T07:03:02Z</time>
      </trkpt>
      <trkpt lat="33.75306" lon="77.63505">
        <ele>5270.6</ele>
        <time>2015-09-05T07:04:33Z</time>
      </trkpt>
      <trkpt lat="33.75304" lon="77.6351">
        <ele>5270.4</ele>
        <time>2015-09-05T07:06:17Z</time>
      </trkpt>
      <trkpt lat="33.75304" lon="77.63509">
        <ele>5270.6</ele>
        <time>2015-09-05T07:06:25Z</time>
      </trkpt>
      <trkpt lat="33.75308" lon="77.63506">
        <ele>5270.4</ele>
        <time>2015-09-05T07:06:42Z</time>
      </trkpt>
      <trkpt lat="33.75304" lon="77.63508">
        <ele>5270.4</ele>
        <time>2015-09-05T07:08:17Z</time>
      </trkpt>
      <trkpt lat="33.75304" lon="77.63508">
        <ele>5270.4</ele>
        <time>2015-09-05T07:08:20Z</time>
      </trkpt>
      <trkpt lat="33.75303" lon="77.63509">
        <ele>5269.6</ele>
        <time>2015-09-05T07:08:31Z</time>
      </trkpt>
      <trkpt lat="33.75302" lon="77.63507">
        <ele>5269.6</ele>
        <time>2015-09-05T07:09:51Z</time>
      </trkpt>
      <trkpt lat="33.75303" lon="77.63507">
        <ele>5269.6</ele>
        <time>2015-09-05T07:09:57Z</time>
      </trkpt>
      <trkpt lat="33.75302" lon="77.63511">
        <ele>5269.6</ele>
        <time>2015-09-05T07:11:01Z</time>
      </trkpt>
      <trkpt lat="33.75304" lon="77.6351">
        <ele>5269.8</ele>
        <time>2015-09-05T07:12:10Z</time>
      </trkpt>
      <trkpt lat="33.75304" lon="77.6351">
        <ele>5269.8</ele>
        <time>2015-09-05T07:14:22Z</time>
      </trkpt>
      <trkpt lat="33.75303" lon="77.63511">
        <ele>5270.4</ele>
        <time>2015-09-05T07:16:09Z</time>
      </trkpt>
      <trkpt lat="33.75304" lon="77.63509">
        <ele>5270.8</ele>
        <time>2015-09-05T07:17:02Z</time>
      </trkpt>
      <trkpt lat="33.75304" lon="77.63511">
        <ele>5271.8</ele>
        <time>2015-09-05T07:17:51Z</time>
      </trkpt>
      <trkpt lat="33.75304" lon="77.63508">
        <ele>5270.8</ele>
        <time>2015-09-05T07:18:55Z</time>
      </trkpt>
      <trkpt lat="33.75303" lon="77.6351">
        <ele>5270.8</ele>
        <time>2015-09-05T07:19:39Z</time>
      </trkpt>
      <trkpt lat="33.75298" lon="77.63508">
        <ele>5269.6</ele>
        <time>2015-09-05T07:19:51Z</time>
      </trkpt>
      <trkpt lat="33.75303" lon="77.63506">
        <ele>5270.2</ele>
        <time>2015-09-05T07:21:48Z</time>
      </trkpt>
      <trkpt lat="33.75305" lon="77.63509">
        <ele>5270.8</ele>
        <time>2015-09-05T07:22:55Z</time>
      </trkpt>
      <trkpt lat="33.75301" lon="77.63511">
        <ele>5271</ele>
        <time>2015-09-05T07:23:01Z</time>
      </trkpt>
      <trkpt lat="33.75304" lon="77.6351">
        <ele>5271</ele>
        <time>2015-09-05T07:23:04Z</time>
      </trkpt>
      <trkpt lat="33.75304" lon="77.63511">
        <ele>5271</ele>
        <time>2015-09-05T07:23:20Z</time>
      </trkpt>
      <trkpt lat="33.75304" lon="77.63513">
        <ele>5271</ele>
        <time>2015-09-05T07:23:22Z</time>
      </trkpt>
      <trkpt lat="33.7531" lon="77.63508">
        <ele>5271</ele>
        <time>2015-09-05T07:24:12Z</time>
      </trkpt>
      <trkpt lat="33.75307" lon="77.63517">
        <ele>5271.8</ele>
        <time>2015-09-05T07:24:31Z</time>
      </trkpt>
      <trkpt lat="33.75307" lon="77.63515">
        <ele>5273.4</ele>
        <time>2015-09-05T07:24:34Z</time>
      </trkpt>
      <trkpt lat="33.75306" lon="77.63513">
        <ele>5272.2</ele>
        <time>2015-09-05T07:24:41Z</time>
      </trkpt>
      <trkpt lat="33.75303" lon="77.63504">
        <ele>5271.2</ele>
        <time>2015-09-05T07:24:55Z</time>
      </trkpt>
      <trkpt lat="33.753" lon="77.63504">
        <ele>5270.8</ele>
        <time>2015-09-05T07:25:09Z</time>
      </trkpt>
      <trkpt lat="33.75299" lon="77.63486">
        <ele>5270.8</ele>
        <time>2015-09-05T07:25:24Z</time>
      </trkpt>
      <trkpt lat="33.75296" lon="77.63481">
        <ele>5270</ele>
        <time>2015-09-05T07:25:27Z</time>
      </trkpt>
      <trkpt lat="33.75297" lon="77.6348">
        <ele>5269.8</ele>
        <time>2015-09-05T07:25:29Z</time>
      </trkpt>
      <trkpt lat="33.75298" lon="77.63473">
        <ele>5269.6</ele>
        <time>2015-09-05T07:25:38Z</time>
      </trkpt>
      <trkpt lat="33.75297" lon="77.63467">
        <ele>5269.2</ele>
        <time>2015-09-05T07:25:45Z</time>
      </trkpt>
      <trkpt lat="33.75296" lon="77.63465">
        <ele>5268.8</ele>
        <time>2015-09-05T07:25:47Z</time>
      </trkpt>
      <trkpt lat="33.75294" lon="77.63458">
        <ele>5267.8</ele>
        <time>2015-09-05T07:25:54Z</time>
      </trkpt>
      <trkpt lat="33.75291" lon="77.63455">
        <ele>5266.6</ele>
        <time>2015-09-05T07:26:01Z</time>
      </trkpt>
      <trkpt lat="33.75289" lon="77.63451">
        <ele>5265.6</ele>
        <time>2015-09-05T07:26:06Z</time>
      </trkpt>
      <trkpt lat="33.75287" lon="77.63447">
        <ele>5264.6</ele>
        <time>2015-09-05T07:26:12Z</time>
      </trkpt>
      <trkpt lat="33.75286" lon="77.63445">
        <ele>5263.4</ele>
        <time>2015-09-05T07:26:15Z</time>
      </trkpt>
      <trkpt lat="33.75286" lon="77.6344">
        <ele>5262.4</ele>
        <time>2015-09-05T07:26:23Z</time>
      </trkpt>
      <trkpt lat="33.7529" lon="77.63432">
        <ele>5261.2</ele>
        <time>2015-09-05T07:26:34Z</time>
      </trkpt>
      <trkpt lat="33.7529" lon="77.6343">
        <ele>5260.2</ele>
        <time>2015-09-05T07:26:37Z</time>
      </trkpt>
      <trkpt lat="33.75292" lon="77.63428">
        <ele>5259.2</ele>
        <time>2015-09-05T07:26:43Z</time>
      </trkpt>
      <trkpt lat="33.75292" lon="77.6342">
        <ele>5257.8</ele>
        <time>2015-09-05T07:26:52Z</time>
      </trkpt>
      <trkpt lat="33.75286" lon="77.63416">
        <ele>5256.6</ele>
        <time>2015-09-05T07:26:54Z</time>
      </trkpt>
      <trkpt lat="33.75286" lon="77.63407">
        <ele>5255.4</ele>
        <time>2015-09-05T07:27:09Z</time>
      </trkpt>
      <trkpt lat="33.75288" lon="77.63405">
        <ele>5254.4</ele>
        <time>2015-09-05T07:27:17Z</time>
      </trkpt>
      <trkpt lat="33.75287" lon="77.63403">
        <ele>5253</ele>
        <time>2015-09-05T07:27:21Z</time>
      </trkpt>
      <trkpt lat="33.75284" lon="77.63396">
        <ele>5251.8</ele>
        <time>2015-09-05T07:27:38Z</time>
      </trkpt>
      <trkpt lat="33.75284" lon="77.63395">
        <ele>5250.8</ele>
        <time>2015-09-05T07:27:41Z</time>
      </trkpt>
      <trkpt lat="33.75284" lon="77.63395">
        <ele>5250.2</ele>
        <time>2015-09-05T07:27:43Z</time>
      </trkpt>
      <trkpt lat="33.75283" lon="77.63394">
        <ele>5249.4</ele>
        <time>2015-09-05T07:27:46Z</time>
      </trkpt>
      <trkpt lat="33.7528" lon="77.6339">
        <ele>5248.4</ele>
        <time>2015-09-05T07:27:53Z</time>
      </trkpt>
      <trkpt lat="33.7528" lon="77.63389">
        <ele>5247.2</ele>
        <time>2015-09-05T07:27:55Z</time>
      </trkpt>
      <trkpt lat="33.7528" lon="77.63385">
        <ele>5246.2</ele>
        <time>2015-09-05T07:27:59Z</time>
      </trkpt>
      <trkpt lat="33.75281" lon="77.63384">
        <ele>5245</ele>
        <time>2015-09-05T07:28:06Z</time>
      </trkpt>
      <trkpt lat="33.75276" lon="77.63383">
        <ele>5244.6</ele>
        <time>2015-09-05T07:28:10Z</time>
      </trkpt>
      <trkpt lat="33.75274" lon="77.63382">
        <ele>5243.8</ele>
        <time>2015-09-05T07:28:15Z</time>
      </trkpt>
      <trkpt lat="33.75274" lon="77.63381">
        <ele>5242.8</ele>
        <time>2015-09-05T07:28:18Z</time>
      </trkpt>
      <trkpt lat="33.7527" lon="77.63383">
        <ele>5241.6</ele>
        <time>2015-09-05T07:28:26Z</time>
      </trkpt>
      <trkpt lat="33.75268" lon="77.63386">
        <ele>5240.6</ele>
        <time>2015-09-05T07:28:32Z</time>
      </trkpt>
      <trkpt lat="33.75267" lon="77.63388">
        <ele>5239.4</ele>
        <time>2015-09-05T07:28:37Z</time>
      </trkpt>
      <trkpt lat="33.75263" lon="77.63388">
        <ele>5238.4</ele>
        <time>2015-09-05T07:28:49Z</time>
      </trkpt>
      <trkpt lat="33.75262" lon="77.6339">
        <ele>5237.2</ele>
        <time>2015-09-05T07:28:56Z</time>
      </trkpt>
      <trkpt lat="33.75259" lon="77.63388">
        <ele>5236.2</ele>
        <time>2015-09-05T07:29:04Z</time>
      </trkpt>
      <trkpt lat="33.75255" lon="77.6339">
        <ele>5235</ele>
        <time>2015-09-05T07:29:09Z</time>
      </trkpt>
      <trkpt lat="33.75251" lon="77.63388">
        <ele>5234</ele>
        <time>2015-09-05T07:29:15Z</time>
      </trkpt>
      <trkpt lat="33.75249" lon="77.63386">
        <ele>5233</ele>
        <time>2015-09-05T07:29:22Z</time>
      </trkpt>
      <trkpt lat="33.75248" lon="77.63386">
        <ele>5231.8</ele>
        <time>2015-09-05T07:29:31Z</time>
      </trkpt>
      <trkpt lat="33.75247" lon="77.63386">
        <ele>5230.8</ele>
        <time>2015-09-05T07:29:36Z</time>
      </trkpt>
      <trkpt lat="33.75243" lon="77.63388">
        <ele>5229.6</ele>
        <time>2015-09-05T07:29:44Z</time>
      </trkpt>
      <trkpt lat="33.75242" lon="77.63391">
        <ele>5229.4</ele>
        <time>2015-09-05T07:29:46Z</time>
      </trkpt>
      <trkpt lat="33.75242" lon="77.63389">
        <ele>5228.4</ele>
        <time>2015-09-05T07:29:50Z</time>
      </trkpt>
      <trkpt lat="33.75243" lon="77.63386">
        <ele>5227.4</ele>
        <time>2015-09-05T07:29:57Z</time>
      </trkpt>
      <trkpt lat="33.75237" lon="77.63382">
        <ele>5227</ele>
        <time>2015-09-05T07:30:08Z</time>
      </trkpt>
      <trkpt lat="33.75233" lon="77.63377">
        <ele>5226.4</ele>
        <time>2015-09-05T07:30:20Z</time>
      </trkpt>
      <trkpt lat="33.7523" lon="77.63376">
        <ele>5225.2</ele>
        <time>2015-09-05T07:30:25Z</time>
      </trkpt>
      <trkpt lat="33.75224" lon="77.63367">
        <ele>5224.2</ele>
        <time>2015-09-05T07:30:37Z</time>
      </trkpt>
      <trkpt lat="33.75221" lon="77.63365">
        <ele>5223</ele>
        <time>2015-09-05T07:30:44Z</time>
      </trkpt>
      <trkpt lat="33.75219" lon="77.63363">
        <ele>5222</ele>
        <time>2015-09-05T07:30:49Z</time>
      </trkpt>
      <trkpt lat="33.75216" lon="77.63361">
        <ele>5221</ele>
        <time>2015-09-05T07:30:54Z</time>
      </trkpt>
      <trkpt lat="33.75211" lon="77.63362">
        <ele>5220.6</ele>
        <time>2015-09-05T07:31:00Z</time>
      </trkpt>
      <trkpt lat="33.75206" lon="77.63365">
        <ele>5220.6</ele>
        <time>2015-09-05T07:31:02Z</time>
      </trkpt>
      <trkpt lat="33.752" lon="77.63353">
        <ele>5219.8</ele>
        <time>2015-09-05T07:31:16Z</time>
      </trkpt>
      <trkpt lat="33.75193" lon="77.63339">
        <ele>5218.8</ele>
        <time>2015-09-05T07:31:30Z</time>
      </trkpt>
      <trkpt lat="33.75193" lon="77.63338">
        <ele>5218.6</ele>
        <time>2015-09-05T07:31:31Z</time>
      </trkpt>
      <trkpt lat="33.75189" lon="77.63338">
        <ele>5217.6</ele>
        <time>2015-09-05T07:31:40Z</time>
      </trkpt>
      <trkpt lat="33.75185" lon="77.63341">
        <ele>5216.6</ele>
        <time>2015-09-05T07:31:46Z</time>
      </trkpt>
      <trkpt lat="33.75181" lon="77.63344">
        <ele>5215.4</ele>
        <time>2015-09-05T07:31:52Z</time>
      </trkpt>
      <trkpt lat="33.7518" lon="77.63346">
        <ele>5215</ele>
        <time>2015-09-05T07:31:54Z</time>
      </trkpt>
      <trkpt lat="33.7518" lon="77.63346">
        <ele>5214.4</ele>
        <time>2015-09-05T07:31:57Z</time>
      </trkpt>
      <trkpt lat="33.75178" lon="77.63351">
        <ele>5213.2</ele>
        <time>2015-09-05T07:32:03Z</time>
      </trkpt>
      <trkpt lat="33.75175" lon="77.63348">
        <ele>5212.2</ele>
        <time>2015-09-05T07:32:08Z</time>
      </trkpt>
      <trkpt lat="33.75172" lon="77.63344">
        <ele>5211</ele>
        <time>2015-09-05T07:32:18Z</time>
      </trkpt>
      <trkpt lat="33.75171" lon="77.63341">
        <ele>5210</ele>
        <time>2015-09-05T07:32:22Z</time>
      </trkpt>
      <trkpt lat="33.75171" lon="77.63333">
        <ele>5209</ele>
        <time>2015-09-05T07:32:28Z</time>
      </trkpt>
      <trkpt lat="33.75167" lon="77.63329">
        <ele>5207.8</ele>
        <time>2015-09-05T07:32:36Z</time>
      </trkpt>
      <trkpt lat="33.75163" lon="77.63332">
        <ele>5206.8</ele>
        <time>2015-09-05T07:32:41Z</time>
      </trkpt>
      <trkpt lat="33.75158" lon="77.63335">
        <ele>5205.6</ele>
        <time>2015-09-05T07:32:46Z</time>
      </trkpt>
      <trkpt lat="33.75152" lon="77.63342">
        <ele>5204.6</ele>
        <time>2015-09-05T07:32:52Z</time>
      </trkpt>
      <trkpt lat="33.75148" lon="77.63349">
        <ele>5203.4</ele>
        <time>2015-09-05T07:32:58Z</time>
      </trkpt>
      <trkpt lat="33.75146" lon="77.63354">
        <ele>5202.4</ele>
        <time>2015-09-05T07:33:03Z</time>
      </trkpt>
      <trkpt lat="33.75145" lon="77.63355">
        <ele>5202.2</ele>
        <time>2015-09-05T07:33:04Z</time>
      </trkpt>
      <trkpt lat="33.7514" lon="77.63359">
        <ele>5201.2</ele>
        <time>2015-09-05T07:33:09Z</time>
      </trkpt>
      <trkpt lat="33.75136" lon="77.63358">
        <ele>5200</ele>
        <time>2015-09-05T07:33:15Z</time>
      </trkpt>
      <trkpt lat="33.75132" lon="77.63357">
        <ele>5198.8</ele>
        <time>2015-09-05T07:33:22Z</time>
      </trkpt>
      <trkpt lat="33.75131" lon="77.63354">
        <ele>5197.8</ele>
        <time>2015-09-05T07:33:27Z</time>
      </trkpt>
      <trkpt lat="33.75129" lon="77.63349">
        <ele>5196.8</ele>
        <time>2015-09-05T07:33:32Z</time>
      </trkpt>
      <trkpt lat="33.75125" lon="77.6335">
        <ele>5195.6</ele>
        <time>2015-09-05T07:33:37Z</time>
      </trkpt>
      <trkpt lat="33.7512" lon="77.63353">
        <ele>5195</ele>
        <time>2015-09-05T07:33:41Z</time>
      </trkpt>
      <trkpt lat="33.75118" lon="77.63354">
        <ele>5194.6</ele>
        <time>2015-09-05T07:33:43Z</time>
      </trkpt>
      <trkpt lat="33.75116" lon="77.63351">
        <ele>5193.8</ele>
        <time>2015-09-05T07:33:50Z</time>
      </trkpt>
      <trkpt lat="33.75115" lon="77.63351">
        <ele>5193.6</ele>
        <time>2015-09-05T07:33:51Z</time>
      </trkpt>
      <trkpt lat="33.75112" lon="77.63349">
        <ele>5192.6</ele>
        <time>2015-09-05T07:33:57Z</time>
      </trkpt>
      <trkpt lat="33.75111" lon="77.63343">
        <ele>5191.4</ele>
        <time>2015-09-05T07:34:02Z</time>
      </trkpt>
      <trkpt lat="33.75106" lon="77.63339">
        <ele>5190.4</ele>
        <time>2015-09-05T07:34:09Z</time>
      </trkpt>
      <trkpt lat="33.75097" lon="77.63343">
        <ele>5189.4</ele>
        <time>2015-09-05T07:34:19Z</time>
      </trkpt>
      <trkpt lat="33.75091" lon="77.63347">
        <ele>5189.2</ele>
        <time>2015-09-05T07:34:25Z</time>
      </trkpt>
      <trkpt lat="33.7509" lon="77.63348">
        <ele>5189.2</ele>
        <time>2015-09-05T07:34:26Z</time>
      </trkpt>
      <trkpt lat="33.75082" lon="77.63349">
        <ele>5188.2</ele>
        <time>2015-09-05T07:34:39Z</time>
      </trkpt>
      <trkpt lat="33.75078" lon="77.63358">
        <ele>5187.2</ele>
        <time>2015-09-05T07:34:48Z</time>
      </trkpt>
      <trkpt lat="33.75076" lon="77.63359">
        <ele>5187</ele>
        <time>2015-09-05T07:34:51Z</time>
      </trkpt>
      <trkpt lat="33.75074" lon="77.63365">
        <ele>5186.8</ele>
        <time>2015-09-05T07:34:54Z</time>
      </trkpt>
      <trkpt lat="33.75071" lon="77.63371">
        <ele>5186.2</ele>
        <time>2015-09-05T07:35:03Z</time>
      </trkpt>
      <trkpt lat="33.75069" lon="77.63375">
        <ele>5185</ele>
        <time>2015-09-05T07:35:08Z</time>
      </trkpt>
      <trkpt lat="33.75067" lon="77.63378">
        <ele>5184</ele>
        <time>2015-09-05T07:35:14Z</time>
      </trkpt>
      <trkpt lat="33.75064" lon="77.63379">
        <ele>5183</ele>
        <time>2015-09-05T07:35:20Z</time>
      </trkpt>
      <trkpt lat="33.75057" lon="77.63375">
        <ele>5182</ele>
        <time>2015-09-05T07:35:38Z</time>
      </trkpt>
      <trkpt lat="33.75053" lon="77.63377">
        <ele>5181</ele>
        <time>2015-09-05T07:35:47Z</time>
      </trkpt>
      <trkpt lat="33.75048" lon="77.63381">
        <ele>5179.8</ele>
        <time>2015-09-05T07:35:58Z</time>
      </trkpt>
      <trkpt lat="33.75044" lon="77.63384">
        <ele>5178.8</ele>
        <time>2015-09-05T07:36:05Z</time>
      </trkpt>
      <trkpt lat="33.75041" lon="77.63385">
        <ele>5177.8</ele>
        <time>2015-09-05T07:36:14Z</time>
      </trkpt>
      <trkpt lat="33.75029" lon="77.634">
        <ele>5177.6</ele>
        <time>2015-09-05T07:36:36Z</time>
      </trkpt>
      <trkpt lat="33.75026" lon="77.63409">
        <ele>5177.6</ele>
        <time>2015-09-05T07:36:41Z</time>
      </trkpt>
      <trkpt lat="33.75025" lon="77.63412">
        <ele>5177.6</ele>
        <time>2015-09-05T07:36:43Z</time>
      </trkpt>
      <trkpt lat="33.75017" lon="77.63421">
        <ele>5176.6</ele>
        <time>2015-09-05T07:37:00Z</time>
      </trkpt>
      <trkpt lat="33.75015" lon="77.63423">
        <ele>5175.6</ele>
        <time>2015-09-05T07:37:07Z</time>
      </trkpt>
      <trkpt lat="33.75008" lon="77.6342">
        <ele>5176.6</ele>
        <time>2015-09-05T07:37:26Z</time>
      </trkpt>
      <trkpt lat="33.74998" lon="77.63434">
        <ele>5175.8</ele>
        <time>2015-09-05T07:37:48Z</time>
      </trkpt>
      <trkpt lat="33.74997" lon="77.63435">
        <ele>5175.6</ele>
        <time>2015-09-05T07:37:49Z</time>
      </trkpt>
      <trkpt lat="33.74992" lon="77.63435">
        <ele>5174.6</ele>
        <time>2015-09-05T07:38:02Z</time>
      </trkpt>
      <trkpt lat="33.74988" lon="77.63435">
        <ele>5173.4</ele>
        <time>2015-09-05T07:38:11Z</time>
      </trkpt>
      <trkpt lat="33.74985" lon="77.63435">
        <ele>5172.4</ele>
        <time>2015-09-05T07:38:16Z</time>
      </trkpt>
      <trkpt lat="33.74983" lon="77.63432">
        <ele>5171.4</ele>
        <time>2015-09-05T07:38:22Z</time>
      </trkpt>
      <trkpt lat="33.74978" lon="77.63438">
        <ele>5170.6</ele>
        <time>2015-09-05T07:38:28Z</time>
      </trkpt>
      <trkpt lat="33.74977" lon="77.63438">
        <ele>5170.4</ele>
        <time>2015-09-05T07:38:29Z</time>
      </trkpt>
      <trkpt lat="33.7497" lon="77.6344">
        <ele>5169.4</ele>
        <time>2015-09-05T07:38:39Z</time>
      </trkpt>
      <trkpt lat="33.74966" lon="77.63444">
        <ele>5168.6</ele>
        <time>2015-09-05T07:38:44Z</time>
      </trkpt>
      <trkpt lat="33.74966" lon="77.63442">
        <ele>5168.4</ele>
        <time>2015-09-05T07:38:45Z</time>
      </trkpt>
      <trkpt lat="33.74965" lon="77.63443">
        <ele>5168.2</ele>
        <time>2015-09-05T07:38:46Z</time>
      </trkpt>
      <trkpt lat="33.74962" lon="77.63451">
        <ele>5167.4</ele>
        <time>2015-09-05T07:38:49Z</time>
      </trkpt>
      <trkpt lat="33.74961" lon="77.63453">
        <ele>5167</ele>
        <time>2015-09-05T07:38:51Z</time>
      </trkpt>
      <trkpt lat="33.74955" lon="77.63458">
        <ele>5166</ele>
        <time>2015-09-05T07:38:59Z</time>
      </trkpt>
      <trkpt lat="33.74945" lon="77.63461">
        <ele>5167.2</ele>
        <time>2015-09-05T07:39:19Z</time>
      </trkpt>
      <trkpt lat="33.74935" lon="77.63447">
        <ele>5166.6</ele>
        <time>2015-09-05T07:39:45Z</time>
      </trkpt>
      <trkpt lat="33.74931" lon="77.63447">
        <ele>5166</ele>
        <time>2015-09-05T07:39:49Z</time>
      </trkpt>
      <trkpt lat="33.74929" lon="77.63448">
        <ele>5165.6</ele>
        <time>2015-09-05T07:39:52Z</time>
      </trkpt>
      <trkpt lat="33.74912" lon="77.63458">
        <ele>5165.4</ele>
        <time>2015-09-05T07:40:11Z</time>
      </trkpt>
      <trkpt lat="33.7491" lon="77.63459">
        <ele>5165.4</ele>
        <time>2015-09-05T07:40:13Z</time>
      </trkpt>
      <trkpt lat="33.74908" lon="77.63461">
        <ele>5165.4</ele>
        <time>2015-09-05T07:40:16Z</time>
      </trkpt>
      <trkpt lat="33.74895" lon="77.6346">
        <ele>5165.8</ele>
        <time>2015-09-05T07:40:42Z</time>
      </trkpt>
      <trkpt lat="33.7489" lon="77.63467">
        <ele>5165.6</ele>
        <time>2015-09-05T07:40:50Z</time>
      </trkpt>
      <trkpt lat="33.74885" lon="77.6347">
        <ele>5165.4</ele>
        <time>2015-09-05T07:40:57Z</time>
      </trkpt>
      <trkpt lat="33.74884" lon="77.6347">
        <ele>5165.4</ele>
        <time>2015-09-05T07:41:00Z</time>
      </trkpt>
      <trkpt lat="33.74882" lon="77.6347">
        <ele>5165.2</ele>
        <time>2015-09-05T07:41:02Z</time>
      </trkpt>
      <trkpt lat="33.74881" lon="77.63473">
        <ele>5165</ele>
        <time>2015-09-05T07:41:04Z</time>
      </trkpt>
      <trkpt lat="33.74881" lon="77.63473">
        <ele>5165</ele>
        <time>2015-09-05T07:41:05Z</time>
      </trkpt>
      <trkpt lat="33.74876" lon="77.63474">
        <ele>5164</ele>
        <time>2015-09-05T07:41:13Z</time>
      </trkpt>
      <trkpt lat="33.74873" lon="77.63481">
        <ele>5162.8</ele>
        <time>2015-09-05T07:41:20Z</time>
      </trkpt>
      <trkpt lat="33.74867" lon="77.63483">
        <ele>5161.8</ele>
        <time>2015-09-05T07:41:30Z</time>
      </trkpt>
      <trkpt lat="33.74861" lon="77.63486">
        <ele>5160.8</ele>
        <time>2015-09-05T07:41:40Z</time>
      </trkpt>
      <trkpt lat="33.74859" lon="77.63481">
        <ele>5159.8</ele>
        <time>2015-09-05T07:41:46Z</time>
      </trkpt>
      <trkpt lat="33.74858" lon="77.63481">
        <ele>5159.8</ele>
        <time>2015-09-05T07:41:47Z</time>
      </trkpt>
      <trkpt lat="33.74856" lon="77.63485">
        <ele>5159.2</ele>
        <time>2015-09-05T07:41:50Z</time>
      </trkpt>
      <trkpt lat="33.74856" lon="77.63486">
        <ele>5159</ele>
        <time>2015-09-05T07:41:52Z</time>
      </trkpt>
      <trkpt lat="33.74855" lon="77.63487">
        <ele>5158.6</ele>
        <time>2015-09-05T07:41:57Z</time>
      </trkpt>
      <trkpt lat="33.74852" lon="77.63493">
        <ele>5157.6</ele>
        <time>2015-09-05T07:42:03Z</time>
      </trkpt>
      <trkpt lat="33.74851" lon="77.63495">
        <ele>5157.6</ele>
        <time>2015-09-05T07:42:04Z</time>
      </trkpt>
      <trkpt lat="33.74854" lon="77.635">
        <ele>5157.4</ele>
        <time>2015-09-05T07:42:07Z</time>
      </trkpt>
      <trkpt lat="33.74856" lon="77.63504">
        <ele>5156.8</ele>
        <time>2015-09-05T07:42:10Z</time>
      </trkpt>
      <trkpt lat="33.74855" lon="77.63505">
        <ele>5156.6</ele>
        <time>2015-09-05T07:42:11Z</time>
      </trkpt>
      <trkpt lat="33.74854" lon="77.63505">
        <ele>5156.2</ele>
        <time>2015-09-05T07:42:13Z</time>
      </trkpt>
      <trkpt lat="33.74856" lon="77.63506">
        <ele>5155.6</ele>
        <time>2015-09-05T07:42:18Z</time>
      </trkpt>
      <trkpt lat="33.74859" lon="77.63509">
        <ele>5154.4</ele>
        <time>2015-09-05T07:42:23Z</time>
      </trkpt>
      <trkpt lat="33.74862" lon="77.63512">
        <ele>5153.2</ele>
        <time>2015-09-05T07:42:30Z</time>
      </trkpt>
      <trkpt lat="33.74862" lon="77.63518">
        <ele>5152.2</ele>
        <time>2015-09-05T07:42:36Z</time>
      </trkpt>
      <trkpt lat="33.74858" lon="77.63532">
        <ele>5151.2</ele>
        <time>2015-09-05T07:42:51Z</time>
      </trkpt>
      <trkpt lat="33.74857" lon="77.63534">
        <ele>5151.2</ele>
        <time>2015-09-05T07:42:53Z</time>
      </trkpt>
      <trkpt lat="33.74851" lon="77.63538">
        <ele>5151.6</ele>
        <time>2015-09-05T07:43:01Z</time>
      </trkpt>
      <trkpt lat="33.74847" lon="77.63542">
        <ele>5152.2</ele>
        <time>2015-09-05T07:43:06Z</time>
      </trkpt>
      <trkpt lat="33.74843" lon="77.63549">
        <ele>5152</ele>
        <time>2015-09-05T07:43:34Z</time>
      </trkpt>
      <trkpt lat="33.74843" lon="77.63552">
        <ele>5151.8</ele>
        <time>2015-09-05T07:43:36Z</time>
      </trkpt>
      <trkpt lat="33.74843" lon="77.63553">
        <ele>5151.6</ele>
        <time>2015-09-05T07:43:38Z</time>
      </trkpt>
      <trkpt lat="33.74841" lon="77.63556">
        <ele>5151.4</ele>
        <time>2015-09-05T07:43:42Z</time>
      </trkpt>
      <trkpt lat="33.7484" lon="77.6356">
        <ele>5151</ele>
        <time>2015-09-05T07:43:46Z</time>
      </trkpt>
      <trkpt lat="33.7484" lon="77.6356">
        <ele>5151</ele>
        <time>2015-09-05T07:43:47Z</time>
      </trkpt>
      <trkpt lat="33.74839" lon="77.63568">
        <ele>5150.4</ele>
        <time>2015-09-05T07:44:41Z</time>
      </trkpt>
      <trkpt lat="33.74838" lon="77.63565">
        <ele>5150.2</ele>
        <time>2015-09-05T07:45:32Z</time>
      </trkpt>
      <trkpt lat="33.7484" lon="77.63564">
        <ele>5150</ele>
        <time>2015-09-05T07:45:35Z</time>
      </trkpt>
      <trkpt lat="33.74842" lon="77.63575">
        <ele>5149</ele>
        <time>2015-09-05T07:46:40Z</time>
      </trkpt>
      <trkpt lat="33.74842" lon="77.63575">
        <ele>5149</ele>
        <time>2015-09-05T07:46:41Z</time>
      </trkpt>
      <trkpt lat="33.7484" lon="77.63576">
        <ele>5149</ele>
        <time>2015-09-05T07:46:42Z</time>
      </trkpt>
      <trkpt lat="33.74834" lon="77.63576">
        <ele>5149.6</ele>
        <time>2015-09-05T07:46:49Z</time>
      </trkpt>
      <trkpt lat="33.74838" lon="77.63569">
        <ele>5149</ele>
        <time>2015-09-05T07:47:54Z</time>
      </trkpt>
      <trkpt lat="33.74831" lon="77.63573">
        <ele>5149</ele>
        <time>2015-09-05T07:48:09Z</time>
      </trkpt>
      <trkpt lat="33.74837" lon="77.63568">
        <ele>5149</ele>
        <time>2015-09-05T07:48:52Z</time>
      </trkpt>
      <trkpt lat="33.74839" lon="77.63574">
        <ele>5149.4</ele>
        <time>2015-09-05T07:49:15Z</time>
      </trkpt>
      <trkpt lat="33.74839" lon="77.63574">
        <ele>5149.2</ele>
        <time>2015-09-05T07:49:17Z</time>
      </trkpt>
      <trkpt lat="33.74844" lon="77.63571">
        <ele>5148.4</ele>
        <time>2015-09-05T07:49:45Z</time>
      </trkpt>
      <trkpt lat="33.74844" lon="77.63573">
        <ele>5148.4</ele>
        <time>2015-09-05T07:49:48Z</time>
      </trkpt>
      <trkpt lat="33.74838" lon="77.63571">
        <ele>5149.2</ele>
        <time>2015-09-05T07:50:19Z</time>
      </trkpt>
      <trkpt lat="33.74841" lon="77.63571">
        <ele>5148.8</ele>
        <time>2015-09-05T07:50:22Z</time>
      </trkpt>
      <trkpt lat="33.74842" lon="77.63572">
        <ele>5148.8</ele>
        <time>2015-09-05T07:50:25Z</time>
      </trkpt>
      <trkpt lat="33.74844" lon="77.63576">
        <ele>5149.2</ele>
        <time>2015-09-05T07:50:38Z</time>
      </trkpt>
      <trkpt lat="33.74848" lon="77.63579">
        <ele>5148.8</ele>
        <time>2015-09-05T07:50:46Z</time>
      </trkpt>
      <trkpt lat="33.74835" lon="77.63571">
        <ele>5149.2</ele>
        <time>2015-09-05T07:51:28Z</time>
      </trkpt>
      <trkpt lat="33.74836" lon="77.6357">
        <ele>5148.8</ele>
        <time>2015-09-05T07:51:39Z</time>
      </trkpt>
      <trkpt lat="33.74839" lon="77.63574">
        <ele>5148.6</ele>
        <time>2015-09-05T07:52:09Z</time>
      </trkpt>
      <trkpt lat="33.74838" lon="77.63572">
        <ele>5148.8</ele>
        <time>2015-09-05T07:52:21Z</time>
      </trkpt>
      <trkpt lat="33.74837" lon="77.63573">
        <ele>5148</ele>
        <time>2015-09-05T07:52:43Z</time>
      </trkpt>
      <trkpt lat="33.74839" lon="77.63571">
        <ele>5148.8</ele>
        <time>2015-09-05T07:53:21Z</time>
      </trkpt>
      <trkpt lat="33.7484" lon="77.63572">
        <ele>5148.8</ele>
        <time>2015-09-05T07:54:12Z</time>
      </trkpt>
      <trkpt lat="33.7484" lon="77.63573">
        <ele>5149</ele>
        <time>2015-09-05T07:54:15Z</time>
      </trkpt>
      <trkpt lat="33.74837" lon="77.63573">
        <ele>5149.4</ele>
        <time>2015-09-05T07:54:39Z</time>
      </trkpt>
      <trkpt lat="33.74839" lon="77.63571">
        <ele>5149.8</ele>
        <time>2015-09-05T07:55:23Z</time>
      </trkpt>
      <trkpt lat="33.74839" lon="77.6357">
        <ele>5149.4</ele>
        <time>2015-09-05T07:56:10Z</time>
      </trkpt>
      <trkpt lat="33.74837" lon="77.63571">
        <ele>5149.8</ele>
        <time>2015-09-05T07:57:36Z</time>
      </trkpt>
      <trkpt lat="33.74837" lon="77.6357">
        <ele>5150</ele>
        <time>2015-09-05T07:58:12Z</time>
      </trkpt>
      <trkpt lat="33.74838" lon="77.63572">
        <ele>5149</ele>
        <time>2015-09-05T07:58:57Z</time>
      </trkpt>
      <trkpt lat="33.74839" lon="77.6357">
        <ele>5148.6</ele>
        <time>2015-09-05T07:59:20Z</time>
      </trkpt>
      <trkpt lat="33.74838" lon="77.63571">
        <ele>5149.2</ele>
        <time>2015-09-05T07:59:51Z</time>
      </trkpt>
      <trkpt lat="33.74839" lon="77.6357">
        <ele>5150</ele>
        <time>2015-09-05T08:00:17Z</time>
      </trkpt>
      <trkpt lat="33.74839" lon="77.63571">
        <ele>5150.2</ele>
        <time>2015-09-05T08:03:10Z</time>
      </trkpt>
      <trkpt lat="33.74839" lon="77.6357">
        <ele>5150.6</ele>
        <time>2015-09-05T08:04:15Z</time>
      </trkpt>
      <trkpt lat="33.74839" lon="77.63567">
        <ele>5150.4</ele>
        <time>2015-09-05T08:06:03Z</time>
      </trkpt>
      <trkpt lat="33.74839" lon="77.63568">
        <ele>5151</ele>
        <time>2015-09-05T08:06:24Z</time>
      </trkpt>
      <trkpt lat="33.74841" lon="77.63566">
        <ele>5150.6</ele>
        <time>2015-09-05T08:12:02Z</time>
      </trkpt>
      <trkpt lat="33.7484" lon="77.6357">
        <ele>5150.8</ele>
        <time>2015-09-05T08:14:58Z</time>
      </trkpt>
      <trkpt lat="33.74839" lon="77.63572">
        <ele>5152</ele>
        <time>2015-09-05T08:15:37Z</time>
      </trkpt>
      <trkpt lat="33.74838" lon="77.63571">
        <ele>5151</ele>
        <time>2015-09-05T08:15:54Z</time>
      </trkpt>
      <trkpt lat="33.74839" lon="77.63569">
        <ele>5152.2</ele>
        <time>2015-09-05T08:16:29Z</time>
      </trkpt>
      <trkpt lat="33.74828" lon="77.63556">
        <ele>5153</ele>
        <time>2015-09-05T08:17:13Z</time>
      </trkpt>
      <trkpt lat="33.74827" lon="77.63556">
        <ele>5153</ele>
        <time>2015-09-05T08:17:14Z</time>
      </trkpt>
      <trkpt lat="33.74825" lon="77.63557">
        <ele>5153.4</ele>
        <time>2015-09-05T08:17:37Z</time>
      </trkpt>
      <trkpt lat="33.74831" lon="77.63545">
        <ele>5154.4</ele>
        <time>2015-09-05T08:18:20Z</time>
      </trkpt>
      <trkpt lat="33.74836" lon="77.63543">
        <ele>5155.6</ele>
        <time>2015-09-05T08:18:29Z</time>
      </trkpt>
      <trkpt lat="33.7484" lon="77.63537">
        <ele>5155.8</ele>
        <time>2015-09-05T08:18:43Z</time>
      </trkpt>
      <trkpt lat="33.74839" lon="77.63539">
        <ele>5155.8</ele>
        <time>2015-09-05T08:18:46Z</time>
      </trkpt>
      <trkpt lat="33.74853" lon="77.63541">
        <ele>5155.2</ele>
        <time>2015-09-05T08:19:08Z</time>
      </trkpt>
      <trkpt lat="33.7486" lon="77.63543">
        <ele>5154.4</ele>
        <time>2015-09-05T08:19:20Z</time>
      </trkpt>
      <trkpt lat="33.74859" lon="77.63544">
        <ele>5153.4</ele>
        <time>2015-09-05T08:19:23Z</time>
      </trkpt>
      <trkpt lat="33.74859" lon="77.63545">
        <ele>5153.2</ele>
        <time>2015-09-05T08:19:24Z</time>
      </trkpt>
      <trkpt lat="33.74854" lon="77.63552">
        <ele>5153.8</ele>
        <time>2015-09-05T08:19:36Z</time>
      </trkpt>
      <trkpt lat="33.74852" lon="77.63549">
        <ele>5153.8</ele>
        <time>2015-09-05T08:19:41Z</time>
      </trkpt>
      <trkpt lat="33.74847" lon="77.6355">
        <ele>5153.4</ele>
        <time>2015-09-05T08:19:49Z</time>
      </trkpt>
      <trkpt lat="33.74843" lon="77.63557">
        <ele>5153.2</ele>
        <time>2015-09-05T08:19:52Z</time>
      </trkpt>
      <trkpt lat="33.74842" lon="77.6356">
        <ele>5153</ele>
        <time>2015-09-05T08:19:54Z</time>
      </trkpt>
      <trkpt lat="33.74839" lon="77.63567">
        <ele>5152</ele>
        <time>2015-09-05T08:20:06Z</time>
      </trkpt>
      <trkpt lat="33.74839" lon="77.63568">
        <ele>5150.8</ele>
        <time>2015-09-05T08:20:09Z</time>
      </trkpt>
      <trkpt lat="33.74839" lon="77.63567">
        <ele>5151</ele>
        <time>2015-09-05T08:20:25Z</time>
      </trkpt>
      <trkpt lat="33.74839" lon="77.63566">
        <ele>5151.4</ele>
        <time>2015-09-05T08:20:38Z</time>
      </trkpt>
      <trkpt lat="33.74841" lon="77.63564">
        <ele>5151.2</ele>
        <time>2015-09-05T08:21:35Z</time>
      </trkpt>
      <trkpt lat="33.74835" lon="77.63564">
        <ele>5151.2</ele>
        <time>2015-09-05T08:21:39Z</time>
      </trkpt>
      <trkpt lat="33.74831" lon="77.6357">
        <ele>5150.6</ele>
        <time>2015-09-05T08:22:24Z</time>
      </trkpt>
      <trkpt lat="33.74833" lon="77.6357">
        <ele>5150.6</ele>
        <time>2015-09-05T08:22:28Z</time>
      </trkpt>
      <trkpt lat="33.74829" lon="77.63576">
        <ele>5149.6</ele>
        <time>2015-09-05T08:22:38Z</time>
      </trkpt>
      <trkpt lat="33.74827" lon="77.63579">
        <ele>5148.6</ele>
        <time>2015-09-05T08:22:43Z</time>
      </trkpt>
      <trkpt lat="33.74823" lon="77.6358">
        <ele>5148</ele>
        <time>2015-09-05T08:22:50Z</time>
      </trkpt>
      <trkpt lat="33.7482" lon="77.63582">
        <ele>5148</ele>
        <time>2015-09-05T08:22:54Z</time>
      </trkpt>
      <trkpt lat="33.74817" lon="77.63583">
        <ele>5147.6</ele>
        <time>2015-09-05T08:22:58Z</time>
      </trkpt>
      <trkpt lat="33.74817" lon="77.63585">
        <ele>5147</ele>
        <time>2015-09-05T08:22:59Z</time>
      </trkpt>
      <trkpt lat="33.74817" lon="77.63586">
        <ele>5146.4</ele>
        <time>2015-09-05T08:23:00Z</time>
      </trkpt>
      <trkpt lat="33.74816" lon="77.63587">
        <ele>5145.4</ele>
        <time>2015-09-05T08:23:02Z</time>
      </trkpt>
      <trkpt lat="33.74816" lon="77.63588">
        <ele>5145.2</ele>
        <time>2015-09-05T08:23:03Z</time>
      </trkpt>
      <trkpt lat="33.74812" lon="77.63585">
        <ele>5144.6</ele>
        <time>2015-09-05T08:23:08Z</time>
      </trkpt>
      <trkpt lat="33.74812" lon="77.63584">
        <ele>5143.8</ele>
        <time>2015-09-05T08:23:10Z</time>
      </trkpt>
      <trkpt lat="33.74811" lon="77.63584">
        <ele>5142.6</ele>
        <time>2015-09-05T08:23:13Z</time>
      </trkpt>
      <trkpt lat="33.74809" lon="77.63586">
        <ele>5141.4</ele>
        <time>2015-09-05T08:23:17Z</time>
      </trkpt>
      <trkpt lat="33.74804" lon="77.63591">
        <ele>5140.6</ele>
        <time>2015-09-05T08:23:22Z</time>
      </trkpt>
      <trkpt lat="33.74803" lon="77.63591">
        <ele>5140.4</ele>
        <time>2015-09-05T08:23:24Z</time>
      </trkpt>
      <trkpt lat="33.748" lon="77.63593">
        <ele>5139.4</ele>
        <time>2015-09-05T08:23:29Z</time>
      </trkpt>
      <trkpt lat="33.74797" lon="77.63595">
        <ele>5138.8</ele>
        <time>2015-09-05T08:23:32Z</time>
      </trkpt>
      <trkpt lat="33.74795" lon="77.63597">
        <ele>5138.2</ele>
        <time>2015-09-05T08:23:35Z</time>
      </trkpt>
      <trkpt lat="33.74794" lon="77.63598">
        <ele>5138</ele>
        <time>2015-09-05T08:23:36Z</time>
      </trkpt>
      <trkpt lat="33.74792" lon="77.63601">
        <ele>5136.8</ele>
        <time>2015-09-05T08:23:40Z</time>
      </trkpt>
      <trkpt lat="33.74789" lon="77.63604">
        <ele>5135.8</ele>
        <time>2015-09-05T08:23:45Z</time>
      </trkpt>
      <trkpt lat="33.74788" lon="77.63604">
        <ele>5135.6</ele>
        <time>2015-09-05T08:23:46Z</time>
      </trkpt>
      <trkpt lat="33.74787" lon="77.63606">
        <ele>5134.6</ele>
        <time>2015-09-05T08:23:49Z</time>
      </trkpt>
      <trkpt lat="33.74783" lon="77.63609">
        <ele>5134</ele>
        <time>2015-09-05T08:23:54Z</time>
      </trkpt>
      <trkpt lat="33.74782" lon="77.63611">
        <ele>5133.6</ele>
        <time>2015-09-05T08:23:56Z</time>
      </trkpt>
      <trkpt lat="33.74781" lon="77.63614">
        <ele>5133</ele>
        <time>2015-09-05T08:23:59Z</time>
      </trkpt>
      <trkpt lat="33.7478" lon="77.63616">
        <ele>5132.4</ele>
        <time>2015-09-05T08:24:01Z</time>
      </trkpt>
      <trkpt lat="33.74778" lon="77.63616">
        <ele>5131.4</ele>
        <time>2015-09-05T08:24:07Z</time>
      </trkpt>
      <trkpt lat="33.74776" lon="77.63622">
        <ele>5130.2</ele>
        <time>2015-09-05T08:24:12Z</time>
      </trkpt>
      <trkpt lat="33.74775" lon="77.63625">
        <ele>5129.8</ele>
        <time>2015-09-05T08:24:15Z</time>
      </trkpt>
      <trkpt lat="33.74768" lon="77.63624">
        <ele>5129.2</ele>
        <time>2015-09-05T08:24:22Z</time>
      </trkpt>
      <trkpt lat="33.74766" lon="77.63629">
        <ele>5128</ele>
        <time>2015-09-05T08:24:28Z</time>
      </trkpt>
      <trkpt lat="33.74766" lon="77.63635">
        <ele>5127</ele>
        <time>2015-09-05T08:24:34Z</time>
      </trkpt>
      <trkpt lat="33.74761" lon="77.63637">
        <ele>5126.2</ele>
        <time>2015-09-05T08:24:42Z</time>
      </trkpt>
      <trkpt lat="33.74761" lon="77.63637">
        <ele>5126</ele>
        <time>2015-09-05T08:24:43Z</time>
      </trkpt>
      <trkpt lat="33.7476" lon="77.63641">
        <ele>5124.8</ele>
        <time>2015-09-05T08:24:48Z</time>
      </trkpt>
      <trkpt lat="33.74761" lon="77.63646">
        <ele>5124</ele>
        <time>2015-09-05T08:24:52Z</time>
      </trkpt>
      <trkpt lat="33.74761" lon="77.63647">
        <ele>5123.6</ele>
        <time>2015-09-05T08:24:53Z</time>
      </trkpt>
      <trkpt lat="33.7476" lon="77.63648">
        <ele>5123.4</ele>
        <time>2015-09-05T08:24:54Z</time>
      </trkpt>
      <trkpt lat="33.74763" lon="77.63654">
        <ele>5122.6</ele>
        <time>2015-09-05T08:25:00Z</time>
      </trkpt>
      <trkpt lat="33.74766" lon="77.63661">
        <ele>5121.6</ele>
        <time>2015-09-05T08:25:07Z</time>
      </trkpt>
      <trkpt lat="33.74766" lon="77.63667">
        <ele>5121</ele>
        <time>2015-09-05T08:25:11Z</time>
      </trkpt>
      <trkpt lat="33.74766" lon="77.63669">
        <ele>5120.6</ele>
        <time>2015-09-05T08:25:13Z</time>
      </trkpt>
      <trkpt lat="33.74765" lon="77.6367">
        <ele>5120.2</ele>
        <time>2015-09-05T08:25:15Z</time>
      </trkpt>
      <trkpt lat="33.74762" lon="77.63674">
        <ele>5119.6</ele>
        <time>2015-09-05T08:25:19Z</time>
      </trkpt>
      <trkpt lat="33.74763" lon="77.63675">
        <ele>5119.4</ele>
        <time>2015-09-05T08:25:20Z</time>
      </trkpt>
      <trkpt lat="33.74752" lon="77.63669">
        <ele>5118.6</ele>
        <time>2015-09-05T08:25:39Z</time>
      </trkpt>
      <trkpt lat="33.74752" lon="77.63675">
        <ele>5117.4</ele>
        <time>2015-09-05T08:25:45Z</time>
      </trkpt>
      <trkpt lat="33.74752" lon="77.63678">
        <ele>5117</ele>
        <time>2015-09-05T08:25:48Z</time>
      </trkpt>
      <trkpt lat="33.74747" lon="77.63677">
        <ele>5116.2</ele>
        <time>2015-09-05T08:25:55Z</time>
      </trkpt>
      <trkpt lat="33.74745" lon="77.63675">
        <ele>5115.2</ele>
        <time>2015-09-05T08:26:00Z</time>
      </trkpt>
      <trkpt lat="33.74744" lon="77.63673">
        <ele>5114</ele>
        <time>2015-09-05T08:26:06Z</time>
      </trkpt>
      <trkpt lat="33.74741" lon="77.63676">
        <ele>5113</ele>
        <time>2015-09-05T08:26:10Z</time>
      </trkpt>
      <trkpt lat="33.74741" lon="77.63677">
        <ele>5112.8</ele>
        <time>2015-09-05T08:26:11Z</time>
      </trkpt>
      <trkpt lat="33.7474" lon="77.63679">
        <ele>5112.2</ele>
        <time>2015-09-05T08:26:13Z</time>
      </trkpt>
      <trkpt lat="33.74738" lon="77.63681">
        <ele>5111.8</ele>
        <time>2015-09-05T08:26:16Z</time>
      </trkpt>
      <trkpt lat="33.74735" lon="77.63684">
        <ele>5111</ele>
        <time>2015-09-05T08:26:20Z</time>
      </trkpt>
      <trkpt lat="33.74733" lon="77.63685">
        <ele>5110.6</ele>
        <time>2015-09-05T08:26:22Z</time>
      </trkpt>
      <trkpt lat="33.74731" lon="77.63685">
        <ele>5109.4</ele>
        <time>2015-09-05T08:26:27Z</time>
      </trkpt>
      <trkpt lat="33.74728" lon="77.63685">
        <ele>5108.2</ele>
        <time>2015-09-05T08:26:34Z</time>
      </trkpt>
      <trkpt lat="33.74724" lon="77.63686">
        <ele>5107.2</ele>
        <time>2015-09-05T08:26:40Z</time>
      </trkpt>
      <trkpt lat="33.7472" lon="77.63688">
        <ele>5106</ele>
        <time>2015-09-05T08:26:48Z</time>
      </trkpt>
      <trkpt lat="33.74719" lon="77.63691">
        <ele>5105</ele>
        <time>2015-09-05T08:26:54Z</time>
      </trkpt>
      <trkpt lat="33.74716" lon="77.63694">
        <ele>5104.4</ele>
        <time>2015-09-05T08:26:57Z</time>
      </trkpt>
      <trkpt lat="33.74715" lon="77.63696">
        <ele>5103.8</ele>
        <time>2015-09-05T08:26:59Z</time>
      </trkpt>
      <trkpt lat="33.74715" lon="77.63696">
        <ele>5103.8</ele>
        <time>2015-09-05T08:27:00Z</time>
      </trkpt>
      <trkpt lat="33.74712" lon="77.63699">
        <ele>5102.8</ele>
        <time>2015-09-05T08:27:05Z</time>
      </trkpt>
      <trkpt lat="33.7471" lon="77.63702">
        <ele>5101.8</ele>
        <time>2015-09-05T08:27:09Z</time>
      </trkpt>
      <trkpt lat="33.74706" lon="77.63705">
        <ele>5100.6</ele>
        <time>2015-09-05T08:27:15Z</time>
      </trkpt>
      <trkpt lat="33.74701" lon="77.63709">
        <ele>5099.6</ele>
        <time>2015-09-05T08:27:24Z</time>
      </trkpt>
      <trkpt lat="33.74696" lon="77.63709">
        <ele>5098.6</ele>
        <time>2015-09-05T08:27:31Z</time>
      </trkpt>
      <trkpt lat="33.74693" lon="77.63713">
        <ele>5097.4</ele>
        <time>2015-09-05T08:27:37Z</time>
      </trkpt>
      <trkpt lat="33.74689" lon="77.63713">
        <ele>5096.2</ele>
        <time>2015-09-05T08:27:44Z</time>
      </trkpt>
      <trkpt lat="33.74684" lon="77.63716">
        <ele>5095.2</ele>
        <time>2015-09-05T08:27:50Z</time>
      </trkpt>
      <trkpt lat="33.74679" lon="77.63721">
        <ele>5094</ele>
        <time>2015-09-05T08:27:59Z</time>
      </trkpt>
      <trkpt lat="33.74675" lon="77.63723">
        <ele>5092.8</ele>
        <time>2015-09-05T08:28:07Z</time>
      </trkpt>
      <trkpt lat="33.74673" lon="77.63724">
        <ele>5092.4</ele>
        <time>2015-09-05T08:28:10Z</time>
      </trkpt>
      <trkpt lat="33.74673" lon="77.63726">
        <ele>5091.6</ele>
        <time>2015-09-05T08:28:13Z</time>
      </trkpt>
      <trkpt lat="33.7467" lon="77.63728">
        <ele>5090.8</ele>
        <time>2015-09-05T08:28:17Z</time>
      </trkpt>
      <trkpt lat="33.74668" lon="77.63728">
        <ele>5090.6</ele>
        <time>2015-09-05T08:28:18Z</time>
      </trkpt>
      <trkpt lat="33.74666" lon="77.63732">
        <ele>5090</ele>
        <time>2015-09-05T08:28:22Z</time>
      </trkpt>
      <trkpt lat="33.74666" lon="77.63733">
        <ele>5089.6</ele>
        <time>2015-09-05T08:28:24Z</time>
      </trkpt>
      <trkpt lat="33.74664" lon="77.63737">
        <ele>5088.6</ele>
        <time>2015-09-05T08:28:30Z</time>
      </trkpt>
      <trkpt lat="33.74662" lon="77.63741">
        <ele>5087.4</ele>
        <time>2015-09-05T08:28:35Z</time>
      </trkpt>
      <trkpt lat="33.74661" lon="77.63744">
        <ele>5086.2</ele>
        <time>2015-09-05T08:28:41Z</time>
      </trkpt>
      <trkpt lat="33.74659" lon="77.63746">
        <ele>5085.2</ele>
        <time>2015-09-05T08:28:45Z</time>
      </trkpt>
      <trkpt lat="33.74658" lon="77.63748">
        <ele>5084</ele>
        <time>2015-09-05T08:28:49Z</time>
      </trkpt>
      <trkpt lat="33.74655" lon="77.63751">
        <ele>5083.4</ele>
        <time>2015-09-05T08:28:53Z</time>
      </trkpt>
      <trkpt lat="33.74653" lon="77.63752">
        <ele>5083</ele>
        <time>2015-09-05T08:28:55Z</time>
      </trkpt>
      <trkpt lat="33.74652" lon="77.63756">
        <ele>5082</ele>
        <time>2015-09-05T08:28:59Z</time>
      </trkpt>
      <trkpt lat="33.74651" lon="77.63761">
        <ele>5081</ele>
        <time>2015-09-05T08:29:04Z</time>
      </trkpt>
      <trkpt lat="33.7465" lon="77.63763">
        <ele>5079.8</ele>
        <time>2015-09-05T08:29:08Z</time>
      </trkpt>
      <trkpt lat="33.74645" lon="77.63766">
        <ele>5078.8</ele>
        <time>2015-09-05T08:29:17Z</time>
      </trkpt>
      <trkpt lat="33.74642" lon="77.63768">
        <ele>5077.6</ele>
        <time>2015-09-05T08:29:23Z</time>
      </trkpt>
      <trkpt lat="33.74639" lon="77.6377">
        <ele>5076.6</ele>
        <time>2015-09-05T08:29:29Z</time>
      </trkpt>
      <trkpt lat="33.74635" lon="77.63775">
        <ele>5075.4</ele>
        <time>2015-09-05T08:29:35Z</time>
      </trkpt>
      <trkpt lat="33.74632" lon="77.63778">
        <ele>5074.4</ele>
        <time>2015-09-05T08:29:40Z</time>
      </trkpt>
      <trkpt lat="33.74629" lon="77.63782">
        <ele>5073.2</ele>
        <time>2015-09-05T08:29:46Z</time>
      </trkpt>
      <trkpt lat="33.74625" lon="77.63786">
        <ele>5072</ele>
        <time>2015-09-05T08:29:54Z</time>
      </trkpt>
      <trkpt lat="33.74624" lon="77.63789">
        <ele>5071.6</ele>
        <time>2015-09-05T08:29:56Z</time>
      </trkpt>
      <trkpt lat="33.74623" lon="77.63792">
        <ele>5071</ele>
        <time>2015-09-05T08:29:59Z</time>
      </trkpt>
      <trkpt lat="33.7462" lon="77.63796">
        <ele>5070</ele>
        <time>2015-09-05T08:30:04Z</time>
      </trkpt>
      <trkpt lat="33.74618" lon="77.63796">
        <ele>5069.8</ele>
        <time>2015-09-05T08:30:05Z</time>
      </trkpt>
      <trkpt lat="33.74615" lon="77.63799">
        <ele>5068.8</ele>
        <time>2015-09-05T08:30:09Z</time>
      </trkpt>
      <trkpt lat="33.74611" lon="77.63805">
        <ele>5067.8</ele>
        <time>2015-09-05T08:30:18Z</time>
      </trkpt>
      <trkpt lat="33.74609" lon="77.6381">
        <ele>5066.6</ele>
        <time>2015-09-05T08:30:26Z</time>
      </trkpt>
      <trkpt lat="33.74604" lon="77.63815">
        <ele>5065.6</ele>
        <time>2015-09-05T08:30:35Z</time>
      </trkpt>
      <trkpt lat="33.74604" lon="77.63818">
        <ele>5064.4</ele>
        <time>2015-09-05T08:30:40Z</time>
      </trkpt>
      <trkpt lat="33.74604" lon="77.63821">
        <ele>5064</ele>
        <time>2015-09-05T08:30:43Z</time>
      </trkpt>
      <trkpt lat="33.74599" lon="77.63826">
        <ele>5063.2</ele>
        <time>2015-09-05T08:30:49Z</time>
      </trkpt>
      <trkpt lat="33.74599" lon="77.63827">
        <ele>5063</ele>
        <time>2015-09-05T08:30:50Z</time>
      </trkpt>
      <trkpt lat="33.74598" lon="77.63829">
        <ele>5062.6</ele>
        <time>2015-09-05T08:30:52Z</time>
      </trkpt>
      <trkpt lat="33.74593" lon="77.63833">
        <ele>5062</ele>
        <time>2015-09-05T08:30:59Z</time>
      </trkpt>
      <trkpt lat="33.74591" lon="77.63838">
        <ele>5061</ele>
        <time>2015-09-05T08:31:05Z</time>
      </trkpt>
      <trkpt lat="33.74588" lon="77.63843">
        <ele>5060</ele>
        <time>2015-09-05T08:31:12Z</time>
      </trkpt>
      <trkpt lat="33.74583" lon="77.63852">
        <ele>5059</ele>
        <time>2015-09-05T08:31:20Z</time>
      </trkpt>
      <trkpt lat="33.74582" lon="77.63856">
        <ele>5058.6</ele>
        <time>2015-09-05T08:31:25Z</time>
      </trkpt>
      <trkpt lat="33.74581" lon="77.6386">
        <ele>5058.6</ele>
        <time>2015-09-05T08:31:27Z</time>
      </trkpt>
      <trkpt lat="33.74583" lon="77.63866">
        <ele>5057.8</ele>
        <time>2015-09-05T08:31:31Z</time>
      </trkpt>
      <trkpt lat="33.74585" lon="77.63869">
        <ele>5057.2</ele>
        <time>2015-09-05T08:31:34Z</time>
      </trkpt>
      <trkpt lat="33.74585" lon="77.63873">
        <ele>5057.4</ele>
        <time>2015-09-05T08:31:39Z</time>
      </trkpt>
      <trkpt lat="33.74586" lon="77.6388">
        <ele>5057.2</ele>
        <time>2015-09-05T08:31:42Z</time>
      </trkpt>
      <trkpt lat="33.74585" lon="77.63886">
        <ele>5056.8</ele>
        <time>2015-09-05T08:31:47Z</time>
      </trkpt>
      <trkpt lat="33.74585" lon="77.63886">
        <ele>5056.8</ele>
        <time>2015-09-05T08:31:48Z</time>
      </trkpt>
      <trkpt lat="33.74588" lon="77.63883">
        <ele>5058</ele>
        <time>2015-09-05T08:32:14Z</time>
      </trkpt>
      <trkpt lat="33.7459" lon="77.63884">
        <ele>5057.6</ele>
        <time>2015-09-05T08:32:44Z</time>
      </trkpt>
      <trkpt lat="33.74588" lon="77.63886">
        <ele>5058</ele>
        <time>2015-09-05T08:32:54Z</time>
      </trkpt>
      <trkpt lat="33.74587" lon="77.63884">
        <ele>5057.2</ele>
        <time>2015-09-05T08:32:56Z</time>
      </trkpt>
      <trkpt lat="33.74582" lon="77.63885">
        <ele>5056.8</ele>
        <time>2015-09-05T08:33:00Z</time>
      </trkpt>
      <trkpt lat="33.74578" lon="77.63886">
        <ele>5055.6</ele>
        <time>2015-09-05T08:33:07Z</time>
      </trkpt>
      <trkpt lat="33.74576" lon="77.63887">
        <ele>5054.2</ele>
        <time>2015-09-05T08:33:10Z</time>
      </trkpt>
      <trkpt lat="33.74572" lon="77.63888">
        <ele>5053.4</ele>
        <time>2015-09-05T08:33:13Z</time>
      </trkpt>
      <trkpt lat="33.7457" lon="77.6389">
        <ele>5053</ele>
        <time>2015-09-05T08:33:15Z</time>
      </trkpt>
      <trkpt lat="33.74567" lon="77.63897">
        <ele>5052</ele>
        <time>2015-09-05T08:33:21Z</time>
      </trkpt>
      <trkpt lat="33.74562" lon="77.63899">
        <ele>5051.2</ele>
        <time>2015-09-05T08:33:27Z</time>
      </trkpt>
      <trkpt lat="33.74559" lon="77.63901">
        <ele>5050.8</ele>
        <time>2015-09-05T08:33:31Z</time>
      </trkpt>
      <trkpt lat="33.74555" lon="77.63906">
        <ele>5050</ele>
        <time>2015-09-05T08:33:37Z</time>
      </trkpt>
      <trkpt lat="33.74554" lon="77.63909">
        <ele>5049.8</ele>
        <time>2015-09-05T08:33:38Z</time>
      </trkpt>
      <trkpt lat="33.74552" lon="77.63913">
        <ele>5049.4</ele>
        <time>2015-09-05T08:33:42Z</time>
      </trkpt>
      <trkpt lat="33.74548" lon="77.6392">
        <ele>5048.6</ele>
        <time>2015-09-05T08:33:50Z</time>
      </trkpt>
      <trkpt lat="33.74541" lon="77.63926">
        <ele>5047.6</ele>
        <time>2015-09-05T08:34:03Z</time>
      </trkpt>
      <trkpt lat="33.74536" lon="77.63927">
        <ele>5046.2</ele>
        <time>2015-09-05T08:34:08Z</time>
      </trkpt>
      <trkpt lat="33.74535" lon="77.63928">
        <ele>5045.8</ele>
        <time>2015-09-05T08:34:10Z</time>
      </trkpt>
      <trkpt lat="33.74535" lon="77.63926">
        <ele>5045.2</ele>
        <time>2015-09-05T08:34:14Z</time>
      </trkpt>
      <trkpt lat="33.74533" lon="77.63929">
        <ele>5044.6</ele>
        <time>2015-09-05T08:34:17Z</time>
      </trkpt>
      <trkpt lat="33.74532" lon="77.63931">
        <ele>5044</ele>
        <time>2015-09-05T08:34:19Z</time>
      </trkpt>
      <trkpt lat="33.74532" lon="77.63933">
        <ele>5043.6</ele>
        <time>2015-09-05T08:34:21Z</time>
      </trkpt>
      <trkpt lat="33.74529" lon="77.63935">
        <ele>5042.8</ele>
        <time>2015-09-05T08:34:24Z</time>
      </trkpt>
      <trkpt lat="33.74527" lon="77.63943">
        <ele>5042</ele>
        <time>2015-09-05T08:34:29Z</time>
      </trkpt>
      <trkpt lat="33.74527" lon="77.63943">
        <ele>5041.8</ele>
        <time>2015-09-05T08:34:30Z</time>
      </trkpt>
      <trkpt lat="33.74529" lon="77.63948">
        <ele>5040.6</ele>
        <time>2015-09-05T08:34:36Z</time>
      </trkpt>
      <trkpt lat="33.7453" lon="77.63952">
        <ele>5039.4</ele>
        <time>2015-09-05T08:34:42Z</time>
      </trkpt>
      <trkpt lat="33.74527" lon="77.63956">
        <ele>5038.4</ele>
        <time>2015-09-05T08:34:51Z</time>
      </trkpt>
      <trkpt lat="33.74527" lon="77.6396">
        <ele>5037.4</ele>
        <time>2015-09-05T08:34:56Z</time>
      </trkpt>
      <trkpt lat="33.74526" lon="77.63964">
        <ele>5036.4</ele>
        <time>2015-09-05T08:35:01Z</time>
      </trkpt>
      <trkpt lat="33.74524" lon="77.63969">
        <ele>5035.2</ele>
        <time>2015-09-05T08:35:11Z</time>
      </trkpt>
      <trkpt lat="33.74523" lon="77.63975">
        <ele>5034.2</ele>
        <time>2015-09-05T08:35:18Z</time>
      </trkpt>
      <trkpt lat="33.74521" lon="77.63983">
        <ele>5033.2</ele>
        <time>2015-09-05T08:35:25Z</time>
      </trkpt>
      <trkpt lat="33.7452" lon="77.63988">
        <ele>5032</ele>
        <time>2015-09-05T08:35:31Z</time>
      </trkpt>
      <trkpt lat="33.7452" lon="77.63995">
        <ele>5030.8</ele>
        <time>2015-09-05T08:35:39Z</time>
      </trkpt>
      <trkpt lat="33.74519" lon="77.63999">
        <ele>5029.8</ele>
        <time>2015-09-05T08:35:44Z</time>
      </trkpt>
      <trkpt lat="33.74517" lon="77.64003">
        <ele>5028.6</ele>
        <time>2015-09-05T08:35:50Z</time>
      </trkpt>
      <trkpt lat="33.74514" lon="77.64006">
        <ele>5027.4</ele>
        <time>2015-09-05T08:35:56Z</time>
      </trkpt>
      <trkpt lat="33.74512" lon="77.64008">
        <ele>5026.8</ele>
        <time>2015-09-05T08:35:59Z</time>
      </trkpt>
      <trkpt lat="33.74513" lon="77.6401">
        <ele>5026.4</ele>
        <time>2015-09-05T08:36:08Z</time>
      </trkpt>
      <trkpt lat="33.74513" lon="77.64012">
        <ele>5026</ele>
        <time>2015-09-05T08:36:10Z</time>
      </trkpt>
      <trkpt lat="33.74514" lon="77.64015">
        <ele>5025.2</ele>
        <time>2015-09-05T08:36:14Z</time>
      </trkpt>
      <trkpt lat="33.74517" lon="77.64019">
        <ele>5024</ele>
        <time>2015-09-05T08:36:19Z</time>
      </trkpt>
      <trkpt lat="33.7452" lon="77.64023">
        <ele>5023</ele>
        <time>2015-09-05T08:36:25Z</time>
      </trkpt>
      <trkpt lat="33.74523" lon="77.64026">
        <ele>5021.8</ele>
        <time>2015-09-05T08:36:34Z</time>
      </trkpt>
      <trkpt lat="33.74526" lon="77.64028">
        <ele>5021</ele>
        <time>2015-09-05T08:36:37Z</time>
      </trkpt>
      <trkpt lat="33.74526" lon="77.6403">
        <ele>5020.4</ele>
        <time>2015-09-05T08:36:39Z</time>
      </trkpt>
      <trkpt lat="33.74523" lon="77.64033">
        <ele>5019.4</ele>
        <time>2015-09-05T08:36:44Z</time>
      </trkpt>
      <trkpt lat="33.74518" lon="77.64037">
        <ele>5018.4</ele>
        <time>2015-09-05T08:36:52Z</time>
      </trkpt>
      <trkpt lat="33.74515" lon="77.64043">
        <ele>5017.2</ele>
        <time>2015-09-05T08:36:58Z</time>
      </trkpt>
      <trkpt lat="33.74515" lon="77.64046">
        <ele>5017</ele>
        <time>2015-09-05T08:36:59Z</time>
      </trkpt>
      <trkpt lat="33.74518" lon="77.6405">
        <ele>5015.8</ele>
        <time>2015-09-05T08:37:03Z</time>
      </trkpt>
      <trkpt lat="33.74519" lon="77.64051">
        <ele>5015.4</ele>
        <time>2015-09-05T08:37:05Z</time>
      </trkpt>
      <trkpt lat="33.74521" lon="77.64052">
        <ele>5014.6</ele>
        <time>2015-09-05T08:37:08Z</time>
      </trkpt>
      <trkpt lat="33.74525" lon="77.64056">
        <ele>5013.6</ele>
        <time>2015-09-05T08:37:13Z</time>
      </trkpt>
      <trkpt lat="33.74526" lon="77.64056">
        <ele>5013.4</ele>
        <time>2015-09-05T08:37:14Z</time>
      </trkpt>
      <trkpt lat="33.74525" lon="77.6406">
        <ele>5012.6</ele>
        <time>2015-09-05T08:37:23Z</time>
      </trkpt>
      <trkpt lat="33.74518" lon="77.64062">
        <ele>5011.4</ele>
        <time>2015-09-05T08:37:32Z</time>
      </trkpt>
      <trkpt lat="33.74516" lon="77.64069">
        <ele>5010.4</ele>
        <time>2015-09-05T08:37:37Z</time>
      </trkpt>
      <trkpt lat="33.74519" lon="77.64072">
        <ele>5009.2</ele>
        <time>2015-09-05T08:37:41Z</time>
      </trkpt>
      <trkpt lat="33.7452" lon="77.64073">
        <ele>5008.8</ele>
        <time>2015-09-05T08:37:43Z</time>
      </trkpt>
      <trkpt lat="33.74517" lon="77.64076">
        <ele>5008.2</ele>
        <time>2015-09-05T08:37:51Z</time>
      </trkpt>
      <trkpt lat="33.74514" lon="77.64076">
        <ele>5007.8</ele>
        <time>2015-09-05T08:37:54Z</time>
      </trkpt>
      <trkpt lat="33.74512" lon="77.64076">
        <ele>5007.2</ele>
        <time>2015-09-05T08:37:58Z</time>
      </trkpt>
      <trkpt lat="33.74512" lon="77.64083">
        <ele>5005.8</ele>
        <time>2015-09-05T08:38:03Z</time>
      </trkpt>
      <trkpt lat="33.74514" lon="77.64086">
        <ele>5005</ele>
        <time>2015-09-05T08:38:06Z</time>
      </trkpt>
      <trkpt lat="33.74515" lon="77.64088">
        <ele>5004.6</ele>
        <time>2015-09-05T08:38:08Z</time>
      </trkpt>
      <trkpt lat="33.74512" lon="77.64091">
        <ele>5003.4</ele>
        <time>2015-09-05T08:38:16Z</time>
      </trkpt>
      <trkpt lat="33.7451" lon="77.64094">
        <ele>5002.4</ele>
        <time>2015-09-05T08:38:21Z</time>
      </trkpt>
      <trkpt lat="33.74508" lon="77.64102">
        <ele>5001.2</ele>
        <time>2015-09-05T08:38:27Z</time>
      </trkpt>
      <trkpt lat="33.74505" lon="77.64107">
        <ele>5000.2</ele>
        <time>2015-09-05T08:38:34Z</time>
      </trkpt>
      <trkpt lat="33.74507" lon="77.64112">
        <ele>4999</ele>
        <time>2015-09-05T08:38:41Z</time>
      </trkpt>
      <trkpt lat="33.7451" lon="77.64114">
        <ele>4997.8</ele>
        <time>2015-09-05T08:38:46Z</time>
      </trkpt>
      <trkpt lat="33.74508" lon="77.64118">
        <ele>4996.8</ele>
        <time>2015-09-05T08:38:54Z</time>
      </trkpt>
      <trkpt lat="33.74505" lon="77.64125">
        <ele>4995.6</ele>
        <time>2015-09-05T08:39:04Z</time>
      </trkpt>
      <trkpt lat="33.74498" lon="77.64132">
        <ele>4994.6</ele>
        <time>2015-09-05T08:39:13Z</time>
      </trkpt>
      <trkpt lat="33.74498" lon="77.64134">
        <ele>4993.4</ele>
        <time>2015-09-05T08:39:19Z</time>
      </trkpt>
      <trkpt lat="33.74496" lon="77.64135">
        <ele>4992.2</ele>
        <time>2015-09-05T08:39:24Z</time>
      </trkpt>
      <trkpt lat="33.74491" lon="77.64139">
        <ele>4991</ele>
        <time>2015-09-05T08:39:30Z</time>
      </trkpt>
      <trkpt lat="33.7449" lon="77.64141">
        <ele>4990.8</ele>
        <time>2015-09-05T08:39:31Z</time>
      </trkpt>
      <trkpt lat="33.74488" lon="77.64149">
        <ele>4990.2</ele>
        <time>2015-09-05T08:39:38Z</time>
      </trkpt>
      <trkpt lat="33.74487" lon="77.6415">
        <ele>4990</ele>
        <time>2015-09-05T08:39:40Z</time>
      </trkpt>
      <trkpt lat="33.74485" lon="77.64155">
        <ele>4988.8</ele>
        <time>2015-09-05T08:39:48Z</time>
      </trkpt>
      <trkpt lat="33.74487" lon="77.64161">
        <ele>4987.6</ele>
        <time>2015-09-05T08:39:55Z</time>
      </trkpt>
      <trkpt lat="33.74486" lon="77.64161">
        <ele>4987.4</ele>
        <time>2015-09-05T08:39:56Z</time>
      </trkpt>
      <trkpt lat="33.74493" lon="77.64164">
        <ele>4986.6</ele>
        <time>2015-09-05T08:40:08Z</time>
      </trkpt>
      <trkpt lat="33.74495" lon="77.64167">
        <ele>4985.6</ele>
        <time>2015-09-05T08:40:12Z</time>
      </trkpt>
      <trkpt lat="33.74494" lon="77.64171">
        <ele>4984.6</ele>
        <time>2015-09-05T08:40:16Z</time>
      </trkpt>
      <trkpt lat="33.74492" lon="77.64174">
        <ele>4983.6</ele>
        <time>2015-09-05T08:40:19Z</time>
      </trkpt>
      <trkpt lat="33.74491" lon="77.64174">
        <ele>4983.4</ele>
        <time>2015-09-05T08:40:20Z</time>
      </trkpt>
      <trkpt lat="33.74488" lon="77.64174">
        <ele>4983.2</ele>
        <time>2015-09-05T08:40:22Z</time>
      </trkpt>
      <trkpt lat="33.74486" lon="77.64174">
        <ele>4982.8</ele>
        <time>2015-09-05T08:40:24Z</time>
      </trkpt>
      <trkpt lat="33.74484" lon="77.64175">
        <ele>4982.2</ele>
        <time>2015-09-05T08:40:26Z</time>
      </trkpt>
      <trkpt lat="33.74479" lon="77.64175">
        <ele>4981.2</ele>
        <time>2015-09-05T08:40:32Z</time>
      </trkpt>
      <trkpt lat="33.74475" lon="77.64182">
        <ele>4980</ele>
        <time>2015-09-05T08:40:39Z</time>
      </trkpt>
      <trkpt lat="33.74471" lon="77.64187">
        <ele>4979</ele>
        <time>2015-09-05T08:40:45Z</time>
      </trkpt>
      <trkpt lat="33.74471" lon="77.64188">
        <ele>4978.6</ele>
        <time>2015-09-05T08:40:47Z</time>
      </trkpt>
      <trkpt lat="33.74469" lon="77.64196">
        <ele>4978</ele>
        <time>2015-09-05T08:41:02Z</time>
      </trkpt>
      <trkpt lat="33.74472" lon="77.64199">
        <ele>4977.6</ele>
        <time>2015-09-05T08:41:16Z</time>
      </trkpt>
      <trkpt lat="33.7447" lon="77.64196">
        <ele>4977.4</ele>
        <time>2015-09-05T08:41:30Z</time>
      </trkpt>
      <trkpt lat="33.74467" lon="77.64198">
        <ele>4977.6</ele>
        <time>2015-09-05T08:41:53Z</time>
      </trkpt>
      <trkpt lat="33.74464" lon="77.64206">
        <ele>4976.8</ele>
        <time>2015-09-05T08:42:17Z</time>
      </trkpt>
      <trkpt lat="33.74465" lon="77.64209">
        <ele>4976.8</ele>
        <time>2015-09-05T08:42:19Z</time>
      </trkpt>
      <trkpt lat="33.74466" lon="77.64212">
        <ele>4976.4</ele>
        <time>2015-09-05T08:42:22Z</time>
      </trkpt>
      <trkpt lat="33.74467" lon="77.64213">
        <ele>4976.4</ele>
        <time>2015-09-05T08:42:24Z</time>
      </trkpt>
      <trkpt lat="33.74468" lon="77.64216">
        <ele>4975.8</ele>
        <time>2015-09-05T08:42:27Z</time>
      </trkpt>
      <trkpt lat="33.74468" lon="77.64217">
        <ele>4975.8</ele>
        <time>2015-09-05T08:42:28Z</time>
      </trkpt>
      <trkpt lat="33.74467" lon="77.64226">
        <ele>4974.8</ele>
        <time>2015-09-05T08:42:38Z</time>
      </trkpt>
      <trkpt lat="33.74468" lon="77.64226">
        <ele>4974.6</ele>
        <time>2015-09-05T08:42:39Z</time>
      </trkpt>
      <trkpt lat="33.74477" lon="77.6423">
        <ele>4973.8</ele>
        <time>2015-09-05T08:43:06Z</time>
      </trkpt>
      <trkpt lat="33.74476" lon="77.64236">
        <ele>4972.8</ele>
        <time>2015-09-05T08:43:15Z</time>
      </trkpt>
      <trkpt lat="33.74479" lon="77.64242">
        <ele>4971.8</ele>
        <time>2015-09-05T08:43:27Z</time>
      </trkpt>
      <trkpt lat="33.74478" lon="77.64252">
        <ele>4970.6</ele>
        <time>2015-09-05T08:43:41Z</time>
      </trkpt>
      <trkpt lat="33.74476" lon="77.64261">
        <ele>4969.8</ele>
        <time>2015-09-05T08:43:49Z</time>
      </trkpt>
      <trkpt lat="33.74476" lon="77.64263">
        <ele>4969.6</ele>
        <time>2015-09-05T08:43:50Z</time>
      </trkpt>
      <trkpt lat="33.7448" lon="77.64269">
        <ele>4968.6</ele>
        <time>2015-09-05T08:43:57Z</time>
      </trkpt>
      <trkpt lat="33.74481" lon="77.6427">
        <ele>4968.4</ele>
        <time>2015-09-05T08:43:58Z</time>
      </trkpt>
      <trkpt lat="33.74483" lon="77.6427">
        <ele>4968</ele>
        <time>2015-09-05T08:44:01Z</time>
      </trkpt>
      <trkpt lat="33.74487" lon="77.64271">
        <ele>4967.6</ele>
        <time>2015-09-05T08:44:09Z</time>
      </trkpt>
      <trkpt lat="33.74494" lon="77.64276">
        <ele>4966.4</ele>
        <time>2015-09-05T08:44:20Z</time>
      </trkpt>
      <trkpt lat="33.74495" lon="77.64277">
        <ele>4966.4</ele>
        <time>2015-09-05T08:44:21Z</time>
      </trkpt>
      <trkpt lat="33.74496" lon="77.64279">
        <ele>4966</ele>
        <time>2015-09-05T08:44:23Z</time>
      </trkpt>
      <trkpt lat="33.74501" lon="77.64282">
        <ele>4965.4</ele>
        <time>2015-09-05T08:44:27Z</time>
      </trkpt>
      <trkpt lat="33.74505" lon="77.64285">
        <ele>4964.2</ele>
        <time>2015-09-05T08:44:33Z</time>
      </trkpt>
      <trkpt lat="33.74505" lon="77.64289">
        <ele>4963.8</ele>
        <time>2015-09-05T08:44:37Z</time>
      </trkpt>
      <trkpt lat="33.74504" lon="77.64291">
        <ele>4963.4</ele>
        <time>2015-09-05T08:44:41Z</time>
      </trkpt>
      <trkpt lat="33.74507" lon="77.64293">
        <ele>4963.2</ele>
        <time>2015-09-05T08:44:43Z</time>
      </trkpt>
      <trkpt lat="33.74509" lon="77.64295">
        <ele>4962.8</ele>
        <time>2015-09-05T08:44:46Z</time>
      </trkpt>
      <trkpt lat="33.74511" lon="77.64297">
        <ele>4962.2</ele>
        <time>2015-09-05T08:44:49Z</time>
      </trkpt>
      <trkpt lat="33.74513" lon="77.64296">
        <ele>4962</ele>
        <time>2015-09-05T08:45:06Z</time>
      </trkpt>
      <trkpt lat="33.74513" lon="77.64297">
        <ele>4961.8</ele>
        <time>2015-09-05T08:45:08Z</time>
      </trkpt>
      <trkpt lat="33.74509" lon="77.64297">
        <ele>4961.6</ele>
        <time>2015-09-05T08:45:13Z</time>
      </trkpt>
      <trkpt lat="33.74508" lon="77.64299">
        <ele>4961.6</ele>
        <time>2015-09-05T08:45:15Z</time>
      </trkpt>
      <trkpt lat="33.74511" lon="77.64302">
        <ele>4961</ele>
        <time>2015-09-05T08:45:20Z</time>
      </trkpt>
      <trkpt lat="33.74515" lon="77.64308">
        <ele>4960</ele>
        <time>2015-09-05T08:45:29Z</time>
      </trkpt>
      <trkpt lat="33.74526" lon="77.64314">
        <ele>4959.2</ele>
        <time>2015-09-05T08:45:41Z</time>
      </trkpt>
      <trkpt lat="33.74527" lon="77.64315">
        <ele>4959</ele>
        <time>2015-09-05T08:45:42Z</time>
      </trkpt>
      <trkpt lat="33.74533" lon="77.64322">
        <ele>4957.8</ele>
        <time>2015-09-05T08:45:52Z</time>
      </trkpt>
      <trkpt lat="33.7454" lon="77.64327">
        <ele>4956.8</ele>
        <time>2015-09-05T08:46:00Z</time>
      </trkpt>
      <trkpt lat="33.74541" lon="77.64328">
        <ele>4956.6</ele>
        <time>2015-09-05T08:46:01Z</time>
      </trkpt>
      <trkpt lat="33.74543" lon="77.64331">
        <ele>4956.2</ele>
        <time>2015-09-05T08:46:05Z</time>
      </trkpt>
      <trkpt lat="33.74545" lon="77.64333">
        <ele>4955.8</ele>
        <time>2015-09-05T08:46:08Z</time>
      </trkpt>
      <trkpt lat="33.74551" lon="77.64337">
        <ele>4954.8</ele>
        <time>2015-09-05T08:46:15Z</time>
      </trkpt>
      <trkpt lat="33.74553" lon="77.64339">
        <ele>4954.6</ele>
        <time>2015-09-05T08:46:17Z</time>
      </trkpt>
      <trkpt lat="33.74556" lon="77.6434">
        <ele>4954.2</ele>
        <time>2015-09-05T08:46:24Z</time>
      </trkpt>
      <trkpt lat="33.74559" lon="77.64344">
        <ele>4953.6</ele>
        <time>2015-09-05T08:46:30Z</time>
      </trkpt>
      <trkpt lat="33.74564" lon="77.64347">
        <ele>4952.6</ele>
        <time>2015-09-05T08:46:37Z</time>
      </trkpt>
      <trkpt lat="33.74569" lon="77.6435">
        <ele>4951.4</ele>
        <time>2015-09-05T08:46:45Z</time>
      </trkpt>
      <trkpt lat="33.7457" lon="77.64352">
        <ele>4950.2</ele>
        <time>2015-09-05T08:46:53Z</time>
      </trkpt>
      <trkpt lat="33.74575" lon="77.64355">
        <ele>4949.2</ele>
        <time>2015-09-05T08:46:59Z</time>
      </trkpt>
      <trkpt lat="33.74577" lon="77.64359">
        <ele>4948</ele>
        <time>2015-09-05T08:47:05Z</time>
      </trkpt>
      <trkpt lat="33.74584" lon="77.64362">
        <ele>4947</ele>
        <time>2015-09-05T08:47:12Z</time>
      </trkpt>
      <trkpt lat="33.7459" lon="77.64363">
        <ele>4945.8</ele>
        <time>2015-09-05T08:47:20Z</time>
      </trkpt>
      <trkpt lat="33.74595" lon="77.64365">
        <ele>4944.8</ele>
        <time>2015-09-05T08:47:27Z</time>
      </trkpt>
      <trkpt lat="33.74603" lon="77.64369">
        <ele>4943.6</ele>
        <time>2015-09-05T08:47:36Z</time>
      </trkpt>
      <trkpt lat="33.74605" lon="77.64371">
        <ele>4943.2</ele>
        <time>2015-09-05T08:47:39Z</time>
      </trkpt>
      <trkpt lat="33.74609" lon="77.64372">
        <ele>4942.6</ele>
        <time>2015-09-05T08:47:43Z</time>
      </trkpt>
      <trkpt lat="33.74616" lon="77.64379">
        <ele>4941.6</ele>
        <time>2015-09-05T08:47:55Z</time>
      </trkpt>
      <trkpt lat="33.74621" lon="77.64384">
        <ele>4940.4</ele>
        <time>2015-09-05T08:48:04Z</time>
      </trkpt>
      <trkpt lat="33.7463" lon="77.6439">
        <ele>4939.4</ele>
        <time>2015-09-05T08:48:13Z</time>
      </trkpt>
      <trkpt lat="33.74635" lon="77.64396">
        <ele>4938.4</ele>
        <time>2015-09-05T08:48:22Z</time>
      </trkpt>
      <trkpt lat="33.74636" lon="77.64399">
        <ele>4938</ele>
        <time>2015-09-05T08:48:25Z</time>
      </trkpt>
      <trkpt lat="33.7464" lon="77.64403">
        <ele>4937.8</ele>
        <time>2015-09-05T08:48:31Z</time>
      </trkpt>
      <trkpt lat="33.74646" lon="77.6441">
        <ele>4937.4</ele>
        <time>2015-09-05T08:48:43Z</time>
      </trkpt>
      <trkpt lat="33.74649" lon="77.64414">
        <ele>4936.2</ele>
        <time>2015-09-05T08:48:49Z</time>
      </trkpt>
      <trkpt lat="33.7465" lon="77.64416">
        <ele>4936</ele>
        <time>2015-09-05T08:48:51Z</time>
      </trkpt>
      <trkpt lat="33.74652" lon="77.6442">
        <ele>4935.8</ele>
        <time>2015-09-05T08:48:55Z</time>
      </trkpt>
      <trkpt lat="33.74657" lon="77.64423">
        <ele>4935.2</ele>
        <time>2015-09-05T08:48:58Z</time>
      </trkpt>
      <trkpt lat="33.74658" lon="77.64424">
        <ele>4935</ele>
        <time>2015-09-05T08:48:59Z</time>
      </trkpt>
      <trkpt lat="33.74665" lon="77.64432">
        <ele>4934.2</ele>
        <time>2015-09-05T08:49:12Z</time>
      </trkpt>
      <trkpt lat="33.74672" lon="77.64438">
        <ele>4933.2</ele>
        <time>2015-09-05T08:49:21Z</time>
      </trkpt>
      <trkpt lat="33.74675" lon="77.64441">
        <ele>4932.8</ele>
        <time>2015-09-05T08:49:25Z</time>
      </trkpt>
      <trkpt lat="33.7468" lon="77.64445">
        <ele>4932.2</ele>
        <time>2015-09-05T08:49:30Z</time>
      </trkpt>
      <trkpt lat="33.74686" lon="77.64453">
        <ele>4931.2</ele>
        <time>2015-09-05T08:49:39Z</time>
      </trkpt>
      <trkpt lat="33.74692" lon="77.64465">
        <ele>4930.2</ele>
        <time>2015-09-05T08:49:51Z</time>
      </trkpt>
      <trkpt lat="33.74692" lon="77.64465">
        <ele>4930</ele>
        <time>2015-09-05T08:49:52Z</time>
      </trkpt>
      <trkpt lat="33.74695" lon="77.64471">
        <ele>4929</ele>
        <time>2015-09-05T08:50:00Z</time>
      </trkpt>
      <trkpt lat="33.747" lon="77.64482">
        <ele>4928</ele>
        <time>2015-09-05T08:50:10Z</time>
      </trkpt>
      <trkpt lat="33.747" lon="77.64487">
        <ele>4927.6</ele>
        <time>2015-09-05T08:50:15Z</time>
      </trkpt>
      <trkpt lat="33.74699" lon="77.64489">
        <ele>4927.4</ele>
        <time>2015-09-05T08:50:17Z</time>
      </trkpt>
      <trkpt lat="33.747" lon="77.64492">
        <ele>4926.8</ele>
        <time>2015-09-05T08:50:21Z</time>
      </trkpt>
      <trkpt lat="33.74706" lon="77.64502">
        <ele>4925.8</ele>
        <time>2015-09-05T08:50:32Z</time>
      </trkpt>
      <trkpt lat="33.74714" lon="77.6451">
        <ele>4924.8</ele>
        <time>2015-09-05T08:50:41Z</time>
      </trkpt>
      <trkpt lat="33.74714" lon="77.64512">
        <ele>4923.6</ele>
        <time>2015-09-05T08:50:47Z</time>
      </trkpt>
      <trkpt lat="33.74716" lon="77.64518">
        <ele>4922.6</ele>
        <time>2015-09-05T08:50:54Z</time>
      </trkpt>
      <trkpt lat="33.7472" lon="77.64526">
        <ele>4921.6</ele>
        <time>2015-09-05T08:51:03Z</time>
      </trkpt>
      <trkpt lat="33.74723" lon="77.6453">
        <ele>4921</ele>
        <time>2015-09-05T08:51:07Z</time>
      </trkpt>
      <trkpt lat="33.74725" lon="77.64534">
        <ele>4920.4</ele>
        <time>2015-09-05T08:51:11Z</time>
      </trkpt>
      <trkpt lat="33.74726" lon="77.64543">
        <ele>4919.2</ele>
        <time>2015-09-05T08:51:21Z</time>
      </trkpt>
      <trkpt lat="33.74731" lon="77.64551">
        <ele>4918.2</ele>
        <time>2015-09-05T08:51:29Z</time>
      </trkpt>
      <trkpt lat="33.74739" lon="77.64558">
        <ele>4917</ele>
        <time>2015-09-05T08:51:38Z</time>
      </trkpt>
      <trkpt lat="33.7474" lon="77.64562">
        <ele>4916</ele>
        <time>2015-09-05T08:51:47Z</time>
      </trkpt>
      <trkpt lat="33.7475" lon="77.64568">
        <ele>4915.6</ele>
        <time>2015-09-05T08:51:56Z</time>
      </trkpt>
      <trkpt lat="33.74752" lon="77.64571">
        <ele>4915.2</ele>
        <time>2015-09-05T08:51:59Z</time>
      </trkpt>
      <trkpt lat="33.74753" lon="77.64572">
        <ele>4915</ele>
        <time>2015-09-05T08:52:01Z</time>
      </trkpt>
      <trkpt lat="33.74755" lon="77.64574">
        <ele>4914.8</ele>
        <time>2015-09-05T08:52:03Z</time>
      </trkpt>
      <trkpt lat="33.74755" lon="77.64576">
        <ele>4914.6</ele>
        <time>2015-09-05T08:52:06Z</time>
      </trkpt>
      <trkpt lat="33.74755" lon="77.64566">
        <ele>4914</ele>
        <time>2015-09-05T08:52:14Z</time>
      </trkpt>
      <trkpt lat="33.74754" lon="77.64566">
        <ele>4913.8</ele>
        <time>2015-09-05T08:52:16Z</time>
      </trkpt>
      <trkpt lat="33.74751" lon="77.64571">
        <ele>4913.8</ele>
        <time>2015-09-05T08:52:18Z</time>
      </trkpt>
      <trkpt lat="33.74754" lon="77.64581">
        <ele>4913.6</ele>
        <time>2015-09-05T08:52:24Z</time>
      </trkpt>
      <trkpt lat="33.74757" lon="77.64585">
        <ele>4912.8</ele>
        <time>2015-09-05T08:52:28Z</time>
      </trkpt>
      <trkpt lat="33.74761" lon="77.64592">
        <ele>4912</ele>
        <time>2015-09-05T08:52:35Z</time>
      </trkpt>
      <trkpt lat="33.74765" lon="77.64598">
        <ele>4911.8</ele>
        <time>2015-09-05T08:52:56Z</time>
      </trkpt>
      <trkpt lat="33.74765" lon="77.64598">
        <ele>4911.6</ele>
        <time>2015-09-05T08:52:57Z</time>
      </trkpt>
      <trkpt lat="33.74768" lon="77.64602">
        <ele>4910.8</ele>
        <time>2015-09-05T08:53:03Z</time>
      </trkpt>
      <trkpt lat="33.74769" lon="77.64604">
        <ele>4910.6</ele>
        <time>2015-09-05T08:53:05Z</time>
      </trkpt>
      <trkpt lat="33.74771" lon="77.64609">
        <ele>4909.6</ele>
        <time>2015-09-05T08:53:11Z</time>
      </trkpt>
      <trkpt lat="33.74778" lon="77.64616">
        <ele>4909.4</ele>
        <time>2015-09-05T08:53:22Z</time>
      </trkpt>
      <trkpt lat="33.74788" lon="77.64625">
        <ele>4908.6</ele>
        <time>2015-09-05T08:53:33Z</time>
      </trkpt>
      <trkpt lat="33.74793" lon="77.64633">
        <ele>4907.4</ele>
        <time>2015-09-05T08:53:41Z</time>
      </trkpt>
      <trkpt lat="33.74801" lon="77.6464">
        <ele>4906.4</ele>
        <time>2015-09-05T08:53:50Z</time>
      </trkpt>
      <trkpt lat="33.74808" lon="77.64645">
        <ele>4905.4</ele>
        <time>2015-09-05T08:53:57Z</time>
      </trkpt>
      <trkpt lat="33.74811" lon="77.64655">
        <ele>4904.2</ele>
        <time>2015-09-05T08:54:06Z</time>
      </trkpt>
      <trkpt lat="33.74811" lon="77.64661">
        <ele>4903.6</ele>
        <time>2015-09-05T08:54:12Z</time>
      </trkpt>
      <trkpt lat="33.74811" lon="77.64663">
        <ele>4903.2</ele>
        <time>2015-09-05T08:54:15Z</time>
      </trkpt>
      <trkpt lat="33.74809" lon="77.64666">
        <ele>4902.8</ele>
        <time>2015-09-05T08:54:18Z</time>
      </trkpt>
      <trkpt lat="33.7481" lon="77.64674">
        <ele>4902.2</ele>
        <time>2015-09-05T08:54:26Z</time>
      </trkpt>
      <trkpt lat="33.74814" lon="77.64681">
        <ele>4901.6</ele>
        <time>2015-09-05T08:54:33Z</time>
      </trkpt>
      <trkpt lat="33.74818" lon="77.64685">
        <ele>4901.2</ele>
        <time>2015-09-05T08:54:36Z</time>
      </trkpt>
      <trkpt lat="33.74822" lon="77.64695">
        <ele>4900</ele>
        <time>2015-09-05T08:54:45Z</time>
      </trkpt>
      <trkpt lat="33.74826" lon="77.64707">
        <ele>4899</ele>
        <time>2015-09-05T08:54:55Z</time>
      </trkpt>
      <trkpt lat="33.74828" lon="77.64721">
        <ele>4897.8</ele>
        <time>2015-09-05T08:55:08Z</time>
      </trkpt>
      <trkpt lat="33.74833" lon="77.64737">
        <ele>4896.8</ele>
        <time>2015-09-05T08:55:24Z</time>
      </trkpt>
      <trkpt lat="33.74836" lon="77.64752">
        <ele>4895.8</ele>
        <time>2015-09-05T08:55:38Z</time>
      </trkpt>
      <trkpt lat="33.74835" lon="77.64762">
        <ele>4894.6</ele>
        <time>2015-09-05T08:55:48Z</time>
      </trkpt>
      <trkpt lat="33.74833" lon="77.64765">
        <ele>4894</ele>
        <time>2015-09-05T08:56:02Z</time>
      </trkpt>
      <trkpt lat="33.74835" lon="77.64774">
        <ele>4893.6</ele>
        <time>2015-09-05T08:56:10Z</time>
      </trkpt>
      <trkpt lat="33.74837" lon="77.64776">
        <ele>4893.4</ele>
        <time>2015-09-05T08:56:12Z</time>
      </trkpt>
      <trkpt lat="33.74838" lon="77.6478">
        <ele>4892.8</ele>
        <time>2015-09-05T08:56:17Z</time>
      </trkpt>
      <trkpt lat="33.74838" lon="77.64781">
        <ele>4892.6</ele>
        <time>2015-09-05T08:56:18Z</time>
      </trkpt>
      <trkpt lat="33.74837" lon="77.64788">
        <ele>4892</ele>
        <time>2015-09-05T08:56:23Z</time>
      </trkpt>
      <trkpt lat="33.74837" lon="77.64795">
        <ele>4891.6</ele>
        <time>2015-09-05T08:56:29Z</time>
      </trkpt>
      <trkpt lat="33.74837" lon="77.648">
        <ele>4891.2</ele>
        <time>2015-09-05T08:56:35Z</time>
      </trkpt>
      <trkpt lat="33.74834" lon="77.64805">
        <ele>4890.4</ele>
        <time>2015-09-05T08:56:41Z</time>
      </trkpt>
      <trkpt lat="33.74835" lon="77.64812">
        <ele>4890</ele>
        <time>2015-09-05T08:56:47Z</time>
      </trkpt>
      <trkpt lat="33.74836" lon="77.64818">
        <ele>4889.4</ele>
        <time>2015-09-05T08:56:53Z</time>
      </trkpt>
      <trkpt lat="33.74841" lon="77.64834">
        <ele>4888.4</ele>
        <time>2015-09-05T08:57:06Z</time>
      </trkpt>
      <trkpt lat="33.74839" lon="77.64849">
        <ele>4887.4</ele>
        <time>2015-09-05T08:57:17Z</time>
      </trkpt>
      <trkpt lat="33.74841" lon="77.64858">
        <ele>4886.6</ele>
        <time>2015-09-05T08:57:26Z</time>
      </trkpt>
      <trkpt lat="33.7484" lon="77.64862">
        <ele>4886.2</ele>
        <time>2015-09-05T08:57:29Z</time>
      </trkpt>
      <trkpt lat="33.74842" lon="77.64875">
        <ele>4885</ele>
        <time>2015-09-05T08:57:39Z</time>
      </trkpt>
      <trkpt lat="33.74841" lon="77.6488">
        <ele>4884.6</ele>
        <time>2015-09-05T08:57:43Z</time>
      </trkpt>
      <trkpt lat="33.74836" lon="77.64891">
        <ele>4884</ele>
        <time>2015-09-05T08:57:54Z</time>
      </trkpt>
      <trkpt lat="33.74833" lon="77.64899">
        <ele>4883.4</ele>
        <time>2015-09-05T08:58:03Z</time>
      </trkpt>
      <trkpt lat="33.74832" lon="77.64903">
        <ele>4883</ele>
        <time>2015-09-05T08:58:07Z</time>
      </trkpt>
      <trkpt lat="33.74834" lon="77.64907">
        <ele>4882.6</ele>
        <time>2015-09-05T08:58:10Z</time>
      </trkpt>
      <trkpt lat="33.74833" lon="77.6491">
        <ele>4882.4</ele>
        <time>2015-09-05T08:58:13Z</time>
      </trkpt>
      <trkpt lat="33.7483" lon="77.64914">
        <ele>4882.2</ele>
        <time>2015-09-05T08:58:16Z</time>
      </trkpt>
      <trkpt lat="33.74829" lon="77.64916">
        <ele>4882</ele>
        <time>2015-09-05T08:58:18Z</time>
      </trkpt>
      <trkpt lat="33.74828" lon="77.64917">
        <ele>4881.8</ele>
        <time>2015-09-05T08:58:19Z</time>
      </trkpt>
      <trkpt lat="33.7483" lon="77.64924">
        <ele>4881.4</ele>
        <time>2015-09-05T08:58:38Z</time>
      </trkpt>
      <trkpt lat="33.74829" lon="77.64925">
        <ele>4881.4</ele>
        <time>2015-09-05T08:58:39Z</time>
      </trkpt>
      <trkpt lat="33.7483" lon="77.64924">
        <ele>4880.8</ele>
        <time>2015-09-05T08:58:43Z</time>
      </trkpt>
      <trkpt lat="33.74836" lon="77.64928">
        <ele>4880.4</ele>
        <time>2015-09-05T08:59:00Z</time>
      </trkpt>
      <trkpt lat="33.74838" lon="77.64933">
        <ele>4880.2</ele>
        <time>2015-09-05T08:59:04Z</time>
      </trkpt>
      <trkpt lat="33.74835" lon="77.64938">
        <ele>4879.8</ele>
        <time>2015-09-05T08:59:08Z</time>
      </trkpt>
      <trkpt lat="33.74834" lon="77.6494">
        <ele>4880</ele>
        <time>2015-09-05T08:59:11Z</time>
      </trkpt>
      <trkpt lat="33.74833" lon="77.6494">
        <ele>4879.8</ele>
        <time>2015-09-05T08:59:15Z</time>
      </trkpt>
      <trkpt lat="33.74835" lon="77.64934">
        <ele>4879.6</ele>
        <time>2015-09-05T08:59:22Z</time>
      </trkpt>
      <trkpt lat="33.74835" lon="77.64947">
        <ele>4879.4</ele>
        <time>2015-09-05T08:59:42Z</time>
      </trkpt>
      <trkpt lat="33.74838" lon="77.64952">
        <ele>4878.8</ele>
        <time>2015-09-05T08:59:47Z</time>
      </trkpt>
      <trkpt lat="33.7484" lon="77.64953">
        <ele>4878.4</ele>
        <time>2015-09-05T08:59:49Z</time>
      </trkpt>
      <trkpt lat="33.74842" lon="77.64955">
        <ele>4878.2</ele>
        <time>2015-09-05T08:59:52Z</time>
      </trkpt>
      <trkpt lat="33.74844" lon="77.64956">
        <ele>4878</ele>
        <time>2015-09-05T08:59:54Z</time>
      </trkpt>
      <trkpt lat="33.74845" lon="77.64959">
        <ele>4877.8</ele>
        <time>2015-09-05T08:59:58Z</time>
      </trkpt>
      <trkpt lat="33.74839" lon="77.64958">
        <ele>4877.2</ele>
        <time>2015-09-05T09:00:15Z</time>
      </trkpt>
      <trkpt lat="33.74835" lon="77.64956">
        <ele>4877.2</ele>
        <time>2015-09-05T09:00:18Z</time>
      </trkpt>
      <trkpt lat="33.74832" lon="77.64955">
        <ele>4877.4</ele>
        <time>2015-09-05T09:00:22Z</time>
      </trkpt>
      <trkpt lat="33.74834" lon="77.64953">
        <ele>4877.6</ele>
        <time>2015-09-05T09:00:33Z</time>
      </trkpt>
      <trkpt lat="33.74833" lon="77.64956">
        <ele>4877.8</ele>
        <time>2015-09-05T09:00:36Z</time>
      </trkpt>
      <trkpt lat="33.74835" lon="77.64953">
        <ele>4877.6</ele>
        <time>2015-09-05T09:00:39Z</time>
      </trkpt>
      <trkpt lat="33.74836" lon="77.64953">
        <ele>4877.4</ele>
        <time>2015-09-05T09:00:43Z</time>
      </trkpt>
      <trkpt lat="33.74838" lon="77.64953">
        <ele>4877.2</ele>
        <time>2015-09-05T09:00:45Z</time>
      </trkpt>
      <trkpt lat="33.74841" lon="77.64954">
        <ele>4877.2</ele>
        <time>2015-09-05T09:00:48Z</time>
      </trkpt>
      <trkpt lat="33.7484" lon="77.64958">
        <ele>4876.8</ele>
        <time>2015-09-05T09:00:55Z</time>
      </trkpt>
      <trkpt lat="33.74841" lon="77.6496">
        <ele>4876.6</ele>
        <time>2015-09-05T09:00:57Z</time>
      </trkpt>
      <trkpt lat="33.7484" lon="77.64962">
        <ele>4889</ele>
        <time>2015-09-05T09:01:04Z</time>
      </trkpt>
    </trkseg>
  </trk>
  <trk>
    <name><![CDATA[Camp de Chaktsang La (4900m) - Pose La (4950m) - Camp de Lato (4010m)]]></name>
    <trkseg>
      <trkpt lat="33.7483" lon="77.64931">
        <ele>4902</ele>
        <time>2015-09-06T02:06:05Z</time>
      </trkpt>
      <trkpt lat="33.74829" lon="77.64934">
        <ele>4902.4</ele>
        <time>2015-09-06T02:06:07Z</time>
      </trkpt>
      <trkpt lat="33.74829" lon="77.64936">
        <ele>4902.4</ele>
        <time>2015-09-06T02:06:09Z</time>
      </trkpt>
      <trkpt lat="33.74826" lon="77.64931">
        <ele>4902.6</ele>
        <time>2015-09-06T02:06:11Z</time>
      </trkpt>
      <trkpt lat="33.74817" lon="77.6493">
        <ele>4902.2</ele>
        <time>2015-09-06T02:06:26Z</time>
      </trkpt>
      <trkpt lat="33.74814" lon="77.64931">
        <ele>4902.2</ele>
        <time>2015-09-06T02:06:28Z</time>
      </trkpt>
      <trkpt lat="33.74814" lon="77.64937">
        <ele>4901.4</ele>
        <time>2015-09-06T02:07:05Z</time>
      </trkpt>
      <trkpt lat="33.7481" lon="77.64936">
        <ele>4901</ele>
        <time>2015-09-06T02:07:27Z</time>
      </trkpt>
      <trkpt lat="33.74814" lon="77.64934">
        <ele>4900.8</ele>
        <time>2015-09-06T02:07:41Z</time>
      </trkpt>
      <trkpt lat="33.74818" lon="77.64933">
        <ele>4901</ele>
        <time>2015-09-06T02:07:44Z</time>
      </trkpt>
      <trkpt lat="33.74824" lon="77.64943">
        <ele>4900</ele>
        <time>2015-09-06T02:08:13Z</time>
      </trkpt>
      <trkpt lat="33.74822" lon="77.64944">
        <ele>4899.8</ele>
        <time>2015-09-06T02:08:14Z</time>
      </trkpt>
      <trkpt lat="33.74819" lon="77.64942">
        <ele>4899.4</ele>
        <time>2015-09-06T02:08:19Z</time>
      </trkpt>
      <trkpt lat="33.74821" lon="77.64942">
        <ele>4898.8</ele>
        <time>2015-09-06T02:08:34Z</time>
      </trkpt>
      <trkpt lat="33.74825" lon="77.64951">
        <ele>4897.6</ele>
        <time>2015-09-06T02:08:49Z</time>
      </trkpt>
      <trkpt lat="33.74824" lon="77.64958">
        <ele>4896.6</ele>
        <time>2015-09-06T02:08:56Z</time>
      </trkpt>
      <trkpt lat="33.74826" lon="77.64961">
        <ele>4896.6</ele>
        <time>2015-09-06T02:08:57Z</time>
      </trkpt>
      <trkpt lat="33.74827" lon="77.64964">
        <ele>4896.4</ele>
        <time>2015-09-06T02:08:59Z</time>
      </trkpt>
      <trkpt lat="33.74826" lon="77.64973">
        <ele>4895.6</ele>
        <time>2015-09-06T02:09:06Z</time>
      </trkpt>
      <trkpt lat="33.74823" lon="77.64979">
        <ele>4894.6</ele>
        <time>2015-09-06T02:09:18Z</time>
      </trkpt>
      <trkpt lat="33.74827" lon="77.6498">
        <ele>4893.6</ele>
        <time>2015-09-06T02:09:59Z</time>
      </trkpt>
      <trkpt lat="33.74832" lon="77.64986">
        <ele>4892.6</ele>
        <time>2015-09-06T02:10:19Z</time>
      </trkpt>
      <trkpt lat="33.74835" lon="77.64992">
        <ele>4891.4</ele>
        <time>2015-09-06T02:10:26Z</time>
      </trkpt>
      <trkpt lat="33.74835" lon="77.64993">
        <ele>4891.2</ele>
        <time>2015-09-06T02:10:27Z</time>
      </trkpt>
      <trkpt lat="33.7484" lon="77.65003">
        <ele>4890.4</ele>
        <time>2015-09-06T02:10:36Z</time>
      </trkpt>
      <trkpt lat="33.74842" lon="77.65007">
        <ele>4889.2</ele>
        <time>2015-09-06T02:10:45Z</time>
      </trkpt>
      <trkpt lat="33.74846" lon="77.65013">
        <ele>4889.2</ele>
        <time>2015-09-06T02:10:51Z</time>
      </trkpt>
      <trkpt lat="33.74848" lon="77.65023">
        <ele>4888.2</ele>
        <time>2015-09-06T02:11:00Z</time>
      </trkpt>
      <trkpt lat="33.74851" lon="77.65033">
        <ele>4887.2</ele>
        <time>2015-09-06T02:11:09Z</time>
      </trkpt>
      <trkpt lat="33.74851" lon="77.65038">
        <ele>4886.2</ele>
        <time>2015-09-06T02:11:15Z</time>
      </trkpt>
      <trkpt lat="33.74852" lon="77.65048">
        <ele>4885</ele>
        <time>2015-09-06T02:11:25Z</time>
      </trkpt>
      <trkpt lat="33.74855" lon="77.65058">
        <ele>4884</ele>
        <time>2015-09-06T02:11:33Z</time>
      </trkpt>
      <trkpt lat="33.74856" lon="77.65064">
        <ele>4882.8</ele>
        <time>2015-09-06T02:11:39Z</time>
      </trkpt>
      <trkpt lat="33.74858" lon="77.65074">
        <ele>4881.8</ele>
        <time>2015-09-06T02:11:48Z</time>
      </trkpt>
      <trkpt lat="33.74857" lon="77.65084">
        <ele>4880.6</ele>
        <time>2015-09-06T02:11:56Z</time>
      </trkpt>
      <trkpt lat="33.74858" lon="77.65095">
        <ele>4879.6</ele>
        <time>2015-09-06T02:12:07Z</time>
      </trkpt>
      <trkpt lat="33.74859" lon="77.651">
        <ele>4879.2</ele>
        <time>2015-09-06T02:12:12Z</time>
      </trkpt>
      <trkpt lat="33.74863" lon="77.65108">
        <ele>4878.6</ele>
        <time>2015-09-06T02:12:19Z</time>
      </trkpt>
      <trkpt lat="33.74868" lon="77.6512">
        <ele>4877.4</ele>
        <time>2015-09-06T02:12:27Z</time>
      </trkpt>
      <trkpt lat="33.7487" lon="77.65134">
        <ele>4876.4</ele>
        <time>2015-09-06T02:12:37Z</time>
      </trkpt>
      <trkpt lat="33.7487" lon="77.65142">
        <ele>4875.4</ele>
        <time>2015-09-06T02:12:44Z</time>
      </trkpt>
      <trkpt lat="33.74872" lon="77.65154">
        <ele>4874.2</ele>
        <time>2015-09-06T02:12:51Z</time>
      </trkpt>
      <trkpt lat="33.74874" lon="77.65161">
        <ele>4873</ele>
        <time>2015-09-06T02:12:57Z</time>
      </trkpt>
      <trkpt lat="33.74876" lon="77.65172">
        <ele>4872</ele>
        <time>2015-09-06T02:13:07Z</time>
      </trkpt>
      <trkpt lat="33.74876" lon="77.6518">
        <ele>4870.8</ele>
        <time>2015-09-06T02:13:12Z</time>
      </trkpt>
      <trkpt lat="33.74872" lon="77.65177">
        <ele>4870.6</ele>
        <time>2015-09-06T02:13:14Z</time>
      </trkpt>
      <trkpt lat="33.74869" lon="77.65178">
        <ele>4870.2</ele>
        <time>2015-09-06T02:13:17Z</time>
      </trkpt>
      <trkpt lat="33.74868" lon="77.6518">
        <ele>4870</ele>
        <time>2015-09-06T02:13:21Z</time>
      </trkpt>
      <trkpt lat="33.74864" lon="77.65185">
        <ele>4869.8</ele>
        <time>2015-09-06T02:13:26Z</time>
      </trkpt>
      <trkpt lat="33.74864" lon="77.65186">
        <ele>4869.8</ele>
        <time>2015-09-06T02:13:27Z</time>
      </trkpt>
      <trkpt lat="33.74864" lon="77.65191">
        <ele>4868.8</ele>
        <time>2015-09-06T02:13:31Z</time>
      </trkpt>
      <trkpt lat="33.74865" lon="77.65206">
        <ele>4867.8</ele>
        <time>2015-09-06T02:13:41Z</time>
      </trkpt>
      <trkpt lat="33.74862" lon="77.6521">
        <ele>4867.2</ele>
        <time>2015-09-06T02:13:45Z</time>
      </trkpt>
      <trkpt lat="33.74858" lon="77.65211">
        <ele>4866.6</ele>
        <time>2015-09-06T02:13:49Z</time>
      </trkpt>
      <trkpt lat="33.74853" lon="77.65215">
        <ele>4865.6</ele>
        <time>2015-09-06T02:13:54Z</time>
      </trkpt>
      <trkpt lat="33.74851" lon="77.65222">
        <ele>4864.4</ele>
        <time>2015-09-06T02:13:59Z</time>
      </trkpt>
      <trkpt lat="33.7485" lon="77.65232">
        <ele>4863.4</ele>
        <time>2015-09-06T02:14:05Z</time>
      </trkpt>
      <trkpt lat="33.74849" lon="77.65232">
        <ele>4863.2</ele>
        <time>2015-09-06T02:14:06Z</time>
      </trkpt>
      <trkpt lat="33.74847" lon="77.65232">
        <ele>4862.6</ele>
        <time>2015-09-06T02:14:08Z</time>
      </trkpt>
      <trkpt lat="33.74846" lon="77.65232">
        <ele>4862.2</ele>
        <time>2015-09-06T02:14:09Z</time>
      </trkpt>
      <trkpt lat="33.74842" lon="77.65233">
        <ele>4861.8</ele>
        <time>2015-09-06T02:14:13Z</time>
      </trkpt>
      <trkpt lat="33.74841" lon="77.65237">
        <ele>4861.2</ele>
        <time>2015-09-06T02:14:17Z</time>
      </trkpt>
      <trkpt lat="33.74842" lon="77.65249">
        <ele>4860.2</ele>
        <time>2015-09-06T02:14:24Z</time>
      </trkpt>
      <trkpt lat="33.7484" lon="77.65251">
        <ele>4859.4</ele>
        <time>2015-09-06T02:14:27Z</time>
      </trkpt>
      <trkpt lat="33.74838" lon="77.65252">
        <ele>4859</ele>
        <time>2015-09-06T02:14:29Z</time>
      </trkpt>
      <trkpt lat="33.74836" lon="77.65256">
        <ele>4858.4</ele>
        <time>2015-09-06T02:14:35Z</time>
      </trkpt>
      <trkpt lat="33.74834" lon="77.65259">
        <ele>4858</ele>
        <time>2015-09-06T02:14:39Z</time>
      </trkpt>
      <trkpt lat="33.74834" lon="77.6526">
        <ele>4858</ele>
        <time>2015-09-06T02:14:40Z</time>
      </trkpt>
      <trkpt lat="33.74833" lon="77.65261">
        <ele>4857.8</ele>
        <time>2015-09-06T02:14:41Z</time>
      </trkpt>
      <trkpt lat="33.74832" lon="77.65264">
        <ele>4857.4</ele>
        <time>2015-09-06T02:14:43Z</time>
      </trkpt>
      <trkpt lat="33.74831" lon="77.65267">
        <ele>4856.8</ele>
        <time>2015-09-06T02:14:47Z</time>
      </trkpt>
      <trkpt lat="33.74829" lon="77.65274">
        <ele>4855.6</ele>
        <time>2015-09-06T02:14:54Z</time>
      </trkpt>
      <trkpt lat="33.74829" lon="77.6528">
        <ele>4854.8</ele>
        <time>2015-09-06T02:14:59Z</time>
      </trkpt>
      <trkpt lat="33.74829" lon="77.65282">
        <ele>4854.6</ele>
        <time>2015-09-06T02:15:01Z</time>
      </trkpt>
      <trkpt lat="33.7483" lon="77.65285">
        <ele>4854.4</ele>
        <time>2015-09-06T02:15:03Z</time>
      </trkpt>
      <trkpt lat="33.74831" lon="77.65287">
        <ele>4854</ele>
        <time>2015-09-06T02:15:06Z</time>
      </trkpt>
      <trkpt lat="33.74831" lon="77.65293">
        <ele>4853.4</ele>
        <time>2015-09-06T02:15:13Z</time>
      </trkpt>
      <trkpt lat="33.74832" lon="77.65299">
        <ele>4852.8</ele>
        <time>2015-09-06T02:15:18Z</time>
      </trkpt>
      <trkpt lat="33.74832" lon="77.65301">
        <ele>4852.4</ele>
        <time>2015-09-06T02:15:20Z</time>
      </trkpt>
      <trkpt lat="33.74833" lon="77.65312">
        <ele>4851.4</ele>
        <time>2015-09-06T02:15:30Z</time>
      </trkpt>
      <trkpt lat="33.74835" lon="77.65318">
        <ele>4850.6</ele>
        <time>2015-09-06T02:15:36Z</time>
      </trkpt>
      <trkpt lat="33.74835" lon="77.6532">
        <ele>4850.2</ele>
        <time>2015-09-06T02:15:38Z</time>
      </trkpt>
      <trkpt lat="33.74836" lon="77.65321">
        <ele>4850.2</ele>
        <time>2015-09-06T02:15:39Z</time>
      </trkpt>
      <trkpt lat="33.74838" lon="77.65324">
        <ele>4850</ele>
        <time>2015-09-06T02:15:41Z</time>
      </trkpt>
      <trkpt lat="33.74839" lon="77.65323">
        <ele>4849.6</ele>
        <time>2015-09-06T02:15:43Z</time>
      </trkpt>
      <trkpt lat="33.7484" lon="77.65326">
        <ele>4849.2</ele>
        <time>2015-09-06T02:15:48Z</time>
      </trkpt>
      <trkpt lat="33.74836" lon="77.65334">
        <ele>4848.2</ele>
        <time>2015-09-06T02:15:56Z</time>
      </trkpt>
      <trkpt lat="33.74834" lon="77.65343">
        <ele>4847.2</ele>
        <time>2015-09-06T02:16:06Z</time>
      </trkpt>
      <trkpt lat="33.74834" lon="77.65345">
        <ele>4847</ele>
        <time>2015-09-06T02:16:07Z</time>
      </trkpt>
      <trkpt lat="33.74836" lon="77.65347">
        <ele>4846.8</ele>
        <time>2015-09-06T02:16:09Z</time>
      </trkpt>
      <trkpt lat="33.74833" lon="77.65355">
        <ele>4846</ele>
        <time>2015-09-06T02:16:15Z</time>
      </trkpt>
      <trkpt lat="33.74829" lon="77.65367">
        <ele>4845</ele>
        <time>2015-09-06T02:16:25Z</time>
      </trkpt>
      <trkpt lat="33.74828" lon="77.65371">
        <ele>4843.8</ele>
        <time>2015-09-06T02:16:32Z</time>
      </trkpt>
      <trkpt lat="33.74827" lon="77.65375">
        <ele>4843.4</ele>
        <time>2015-09-06T02:16:35Z</time>
      </trkpt>
      <trkpt lat="33.74826" lon="77.65381">
        <ele>4842.8</ele>
        <time>2015-09-06T02:16:43Z</time>
      </trkpt>
      <trkpt lat="33.74822" lon="77.65384">
        <ele>4841.6</ele>
        <time>2015-09-06T02:17:11Z</time>
      </trkpt>
      <trkpt lat="33.74822" lon="77.65382">
        <ele>4841</ele>
        <time>2015-09-06T02:17:16Z</time>
      </trkpt>
      <trkpt lat="33.74818" lon="77.65385">
        <ele>4840.8</ele>
        <time>2015-09-06T02:17:21Z</time>
      </trkpt>
      <trkpt lat="33.7482" lon="77.65391">
        <ele>4840.6</ele>
        <time>2015-09-06T02:17:32Z</time>
      </trkpt>
      <trkpt lat="33.74818" lon="77.65393">
        <ele>4839.6</ele>
        <time>2015-09-06T02:17:59Z</time>
      </trkpt>
      <trkpt lat="33.7482" lon="77.65398">
        <ele>4838.6</ele>
        <time>2015-09-06T02:18:32Z</time>
      </trkpt>
      <trkpt lat="33.74821" lon="77.65399">
        <ele>4838.6</ele>
        <time>2015-09-06T02:18:35Z</time>
      </trkpt>
      <trkpt lat="33.74821" lon="77.65398">
        <ele>4838.6</ele>
        <time>2015-09-06T02:18:36Z</time>
      </trkpt>
      <trkpt lat="33.74821" lon="77.65397">
        <ele>4838.4</ele>
        <time>2015-09-06T02:18:38Z</time>
      </trkpt>
      <trkpt lat="33.74815" lon="77.65397">
        <ele>4837.4</ele>
        <time>2015-09-06T02:19:12Z</time>
      </trkpt>
      <trkpt lat="33.74813" lon="77.65399">
        <ele>4836.8</ele>
        <time>2015-09-06T02:19:14Z</time>
      </trkpt>
      <trkpt lat="33.74812" lon="77.654">
        <ele>4836.4</ele>
        <time>2015-09-06T02:19:16Z</time>
      </trkpt>
      <trkpt lat="33.74805" lon="77.65406">
        <ele>4835.2</ele>
        <time>2015-09-06T02:19:31Z</time>
      </trkpt>
      <trkpt lat="33.74803" lon="77.65416">
        <ele>4834.2</ele>
        <time>2015-09-06T02:19:39Z</time>
      </trkpt>
      <trkpt lat="33.74802" lon="77.65424">
        <ele>4833.2</ele>
        <time>2015-09-06T02:19:45Z</time>
      </trkpt>
      <trkpt lat="33.74799" lon="77.65441">
        <ele>4832.2</ele>
        <time>2015-09-06T02:19:58Z</time>
      </trkpt>
      <trkpt lat="33.74799" lon="77.65444">
        <ele>4832</ele>
        <time>2015-09-06T02:20:00Z</time>
      </trkpt>
      <trkpt lat="33.74798" lon="77.65447">
        <ele>4831.8</ele>
        <time>2015-09-06T02:20:03Z</time>
      </trkpt>
      <trkpt lat="33.74796" lon="77.65455">
        <ele>4831.2</ele>
        <time>2015-09-06T02:20:09Z</time>
      </trkpt>
      <trkpt lat="33.74789" lon="77.65475">
        <ele>4830.4</ele>
        <time>2015-09-06T02:20:25Z</time>
      </trkpt>
      <trkpt lat="33.7479" lon="77.65478">
        <ele>4830.2</ele>
        <time>2015-09-06T02:20:28Z</time>
      </trkpt>
      <trkpt lat="33.7479" lon="77.65479">
        <ele>4830</ele>
        <time>2015-09-06T02:20:29Z</time>
      </trkpt>
      <trkpt lat="33.7479" lon="77.65498">
        <ele>4829</ele>
        <time>2015-09-06T02:20:41Z</time>
      </trkpt>
      <trkpt lat="33.74788" lon="77.65499">
        <ele>4828.6</ele>
        <time>2015-09-06T02:20:43Z</time>
      </trkpt>
      <trkpt lat="33.74785" lon="77.655">
        <ele>4828</ele>
        <time>2015-09-06T02:20:47Z</time>
      </trkpt>
      <trkpt lat="33.74783" lon="77.65503">
        <ele>4827.8</ele>
        <time>2015-09-06T02:20:51Z</time>
      </trkpt>
      <trkpt lat="33.74781" lon="77.65521">
        <ele>4826.6</ele>
        <time>2015-09-06T02:21:04Z</time>
      </trkpt>
      <trkpt lat="33.74779" lon="77.65526">
        <ele>4825.8</ele>
        <time>2015-09-06T02:21:10Z</time>
      </trkpt>
      <trkpt lat="33.74777" lon="77.65529">
        <ele>4825.6</ele>
        <time>2015-09-06T02:21:13Z</time>
      </trkpt>
      <trkpt lat="33.74774" lon="77.65539">
        <ele>4824.6</ele>
        <time>2015-09-06T02:21:23Z</time>
      </trkpt>
      <trkpt lat="33.74772" lon="77.65545">
        <ele>4824.2</ele>
        <time>2015-09-06T02:21:27Z</time>
      </trkpt>
      <trkpt lat="33.74769" lon="77.65552">
        <ele>4823.4</ele>
        <time>2015-09-06T02:21:33Z</time>
      </trkpt>
      <trkpt lat="33.74765" lon="77.65573">
        <ele>4823.2</ele>
        <time>2015-09-06T02:21:55Z</time>
      </trkpt>
      <trkpt lat="33.74764" lon="77.65587">
        <ele>4823</ele>
        <time>2015-09-06T02:22:06Z</time>
      </trkpt>
      <trkpt lat="33.74766" lon="77.65588">
        <ele>4822.8</ele>
        <time>2015-09-06T02:22:08Z</time>
      </trkpt>
      <trkpt lat="33.74766" lon="77.65594">
        <ele>4822.4</ele>
        <time>2015-09-06T02:22:17Z</time>
      </trkpt>
      <trkpt lat="33.74763" lon="77.65598">
        <ele>4822.6</ele>
        <time>2015-09-06T02:22:29Z</time>
      </trkpt>
      <trkpt lat="33.74767" lon="77.65598">
        <ele>4822.2</ele>
        <time>2015-09-06T02:22:34Z</time>
      </trkpt>
      <trkpt lat="33.74769" lon="77.65601">
        <ele>4822</ele>
        <time>2015-09-06T02:22:37Z</time>
      </trkpt>
      <trkpt lat="33.74763" lon="77.65616">
        <ele>4821.4</ele>
        <time>2015-09-06T02:22:53Z</time>
      </trkpt>
      <trkpt lat="33.74762" lon="77.65629">
        <ele>4820.8</ele>
        <time>2015-09-06T02:23:04Z</time>
      </trkpt>
      <trkpt lat="33.74759" lon="77.6563">
        <ele>4820.4</ele>
        <time>2015-09-06T02:23:06Z</time>
      </trkpt>
      <trkpt lat="33.74752" lon="77.65649">
        <ele>4819.2</ele>
        <time>2015-09-06T02:23:21Z</time>
      </trkpt>
      <trkpt lat="33.74743" lon="77.65666">
        <ele>4818.6</ele>
        <time>2015-09-06T02:23:37Z</time>
      </trkpt>
      <trkpt lat="33.74734" lon="77.65683">
        <ele>4818.4</ele>
        <time>2015-09-06T02:24:01Z</time>
      </trkpt>
      <trkpt lat="33.74725" lon="77.65697">
        <ele>4818.6</ele>
        <time>2015-09-06T02:24:18Z</time>
      </trkpt>
      <trkpt lat="33.74722" lon="77.65701">
        <ele>4818.2</ele>
        <time>2015-09-06T02:24:42Z</time>
      </trkpt>
      <trkpt lat="33.74719" lon="77.65708">
        <ele>4818.6</ele>
        <time>2015-09-06T02:24:51Z</time>
      </trkpt>
      <trkpt lat="33.74717" lon="77.65713">
        <ele>4819.2</ele>
        <time>2015-09-06T02:25:01Z</time>
      </trkpt>
      <trkpt lat="33.74709" lon="77.65719">
        <ele>4820.4</ele>
        <time>2015-09-06T02:25:15Z</time>
      </trkpt>
      <trkpt lat="33.74707" lon="77.65722">
        <ele>4820.4</ele>
        <time>2015-09-06T02:25:19Z</time>
      </trkpt>
      <trkpt lat="33.74706" lon="77.65725">
        <ele>4820.6</ele>
        <time>2015-09-06T02:25:22Z</time>
      </trkpt>
      <trkpt lat="33.74702" lon="77.6574">
        <ele>4821.4</ele>
        <time>2015-09-06T02:25:40Z</time>
      </trkpt>
      <trkpt lat="33.74696" lon="77.65746">
        <ele>4822.4</ele>
        <time>2015-09-06T02:25:59Z</time>
      </trkpt>
      <trkpt lat="33.74691" lon="77.6575">
        <ele>4823.4</ele>
        <time>2015-09-06T02:26:11Z</time>
      </trkpt>
      <trkpt lat="33.74693" lon="77.65759">
        <ele>4824.6</ele>
        <time>2015-09-06T02:26:25Z</time>
      </trkpt>
      <trkpt lat="33.74691" lon="77.65767">
        <ele>4824.6</ele>
        <time>2015-09-06T02:26:38Z</time>
      </trkpt>
      <trkpt lat="33.74687" lon="77.65772">
        <ele>4825.4</ele>
        <time>2015-09-06T02:26:45Z</time>
      </trkpt>
      <trkpt lat="33.74686" lon="77.65774">
        <ele>4825.6</ele>
        <time>2015-09-06T02:26:48Z</time>
      </trkpt>
      <trkpt lat="33.7468" lon="77.65781">
        <ele>4826.6</ele>
        <time>2015-09-06T02:27:05Z</time>
      </trkpt>
      <trkpt lat="33.74678" lon="77.65785">
        <ele>4827.6</ele>
        <time>2015-09-06T02:27:20Z</time>
      </trkpt>
      <trkpt lat="33.74673" lon="77.658">
        <ele>4828.6</ele>
        <time>2015-09-06T02:27:51Z</time>
      </trkpt>
      <trkpt lat="33.74671" lon="77.65805">
        <ele>4828.6</ele>
        <time>2015-09-06T02:27:56Z</time>
      </trkpt>
      <trkpt lat="33.74669" lon="77.65807">
        <ele>4828.6</ele>
        <time>2015-09-06T02:28:00Z</time>
      </trkpt>
      <trkpt lat="33.74669" lon="77.65809">
        <ele>4828.8</ele>
        <time>2015-09-06T02:28:03Z</time>
      </trkpt>
      <trkpt lat="33.74668" lon="77.65812">
        <ele>4829.8</ele>
        <time>2015-09-06T02:28:23Z</time>
      </trkpt>
      <trkpt lat="33.74666" lon="77.65816">
        <ele>4830.8</ele>
        <time>2015-09-06T02:28:38Z</time>
      </trkpt>
      <trkpt lat="33.74664" lon="77.65829">
        <ele>4831.8</ele>
        <time>2015-09-06T02:28:54Z</time>
      </trkpt>
      <trkpt lat="33.74662" lon="77.65843">
        <ele>4832.8</ele>
        <time>2015-09-06T02:29:15Z</time>
      </trkpt>
      <trkpt lat="33.74662" lon="77.65843">
        <ele>4832.8</ele>
        <time>2015-09-06T02:29:16Z</time>
      </trkpt>
      <trkpt lat="33.74657" lon="77.6585">
        <ele>4834</ele>
        <time>2015-09-06T02:29:36Z</time>
      </trkpt>
      <trkpt lat="33.74655" lon="77.65853">
        <ele>4835</ele>
        <time>2015-09-06T02:29:53Z</time>
      </trkpt>
      <trkpt lat="33.74651" lon="77.65859">
        <ele>4836</ele>
        <time>2015-09-06T02:30:09Z</time>
      </trkpt>
      <trkpt lat="33.74649" lon="77.65859">
        <ele>4836.2</ele>
        <time>2015-09-06T02:30:11Z</time>
      </trkpt>
      <trkpt lat="33.74645" lon="77.65862">
        <ele>4836.6</ele>
        <time>2015-09-06T02:30:21Z</time>
      </trkpt>
      <trkpt lat="33.74644" lon="77.65866">
        <ele>4837</ele>
        <time>2015-09-06T02:30:27Z</time>
      </trkpt>
      <trkpt lat="33.74638" lon="77.6587">
        <ele>4838.2</ele>
        <time>2015-09-06T02:30:47Z</time>
      </trkpt>
      <trkpt lat="33.74633" lon="77.65875">
        <ele>4839.2</ele>
        <time>2015-09-06T02:31:10Z</time>
      </trkpt>
      <trkpt lat="33.74631" lon="77.65881">
        <ele>4840.2</ele>
        <time>2015-09-06T02:31:23Z</time>
      </trkpt>
      <trkpt lat="33.7463" lon="77.65883">
        <ele>4841.2</ele>
        <time>2015-09-06T02:31:37Z</time>
      </trkpt>
      <trkpt lat="33.74622" lon="77.65884">
        <ele>4842.4</ele>
        <time>2015-09-06T02:31:57Z</time>
      </trkpt>
      <trkpt lat="33.74622" lon="77.65887">
        <ele>4843.6</ele>
        <time>2015-09-06T02:32:10Z</time>
      </trkpt>
      <trkpt lat="33.74618" lon="77.65897">
        <ele>4844.6</ele>
        <time>2015-09-06T02:32:32Z</time>
      </trkpt>
      <trkpt lat="33.74615" lon="77.65902">
        <ele>4845.6</ele>
        <time>2015-09-06T02:32:52Z</time>
      </trkpt>
      <trkpt lat="33.74614" lon="77.65908">
        <ele>4846.8</ele>
        <time>2015-09-06T02:33:08Z</time>
      </trkpt>
      <trkpt lat="33.74609" lon="77.65918">
        <ele>4847.8</ele>
        <time>2015-09-06T02:33:34Z</time>
      </trkpt>
      <trkpt lat="33.74609" lon="77.65921">
        <ele>4848.8</ele>
        <time>2015-09-06T02:33:48Z</time>
      </trkpt>
      <trkpt lat="33.74606" lon="77.65922">
        <ele>4850</ele>
        <time>2015-09-06T02:34:01Z</time>
      </trkpt>
      <trkpt lat="33.74604" lon="77.65926">
        <ele>4851</ele>
        <time>2015-09-06T02:34:13Z</time>
      </trkpt>
      <trkpt lat="33.74599" lon="77.65926">
        <ele>4852</ele>
        <time>2015-09-06T02:34:26Z</time>
      </trkpt>
      <trkpt lat="33.74597" lon="77.65926">
        <ele>4853</ele>
        <time>2015-09-06T02:34:36Z</time>
      </trkpt>
      <trkpt lat="33.74596" lon="77.65932">
        <ele>4854</ele>
        <time>2015-09-06T02:34:51Z</time>
      </trkpt>
      <trkpt lat="33.74591" lon="77.65937">
        <ele>4855</ele>
        <time>2015-09-06T02:35:09Z</time>
      </trkpt>
      <trkpt lat="33.74592" lon="77.65943">
        <ele>4856.2</ele>
        <time>2015-09-06T02:35:26Z</time>
      </trkpt>
      <trkpt lat="33.7459" lon="77.65947">
        <ele>4856.8</ele>
        <time>2015-09-06T02:35:38Z</time>
      </trkpt>
      <trkpt lat="33.74591" lon="77.65949">
        <ele>4857.2</ele>
        <time>2015-09-06T02:35:47Z</time>
      </trkpt>
      <trkpt lat="33.74592" lon="77.65959">
        <ele>4858.2</ele>
        <time>2015-09-06T02:36:07Z</time>
      </trkpt>
      <trkpt lat="33.74589" lon="77.65964">
        <ele>4859.2</ele>
        <time>2015-09-06T02:36:28Z</time>
      </trkpt>
      <trkpt lat="33.74586" lon="77.65964">
        <ele>4860.2</ele>
        <time>2015-09-06T02:36:43Z</time>
      </trkpt>
      <trkpt lat="33.74591" lon="77.65968">
        <ele>4861.2</ele>
        <time>2015-09-06T02:36:53Z</time>
      </trkpt>
      <trkpt lat="33.74589" lon="77.65973">
        <ele>4862.2</ele>
        <time>2015-09-06T02:37:19Z</time>
      </trkpt>
      <trkpt lat="33.74597" lon="77.65983">
        <ele>4863.2</ele>
        <time>2015-09-06T02:37:40Z</time>
      </trkpt>
      <trkpt lat="33.74603" lon="77.6599">
        <ele>4864.2</ele>
        <time>2015-09-06T02:38:02Z</time>
      </trkpt>
      <trkpt lat="33.74599" lon="77.65994">
        <ele>4865.4</ele>
        <time>2015-09-06T02:38:13Z</time>
      </trkpt>
      <trkpt lat="33.74598" lon="77.65997">
        <ele>4866.4</ele>
        <time>2015-09-06T02:38:28Z</time>
      </trkpt>
      <trkpt lat="33.74597" lon="77.65999">
        <ele>4867.4</ele>
        <time>2015-09-06T02:38:41Z</time>
      </trkpt>
      <trkpt lat="33.74602" lon="77.66006">
        <ele>4868.6</ele>
        <time>2015-09-06T02:39:01Z</time>
      </trkpt>
      <trkpt lat="33.74607" lon="77.66009">
        <ele>4869.4</ele>
        <time>2015-09-06T02:39:16Z</time>
      </trkpt>
      <trkpt lat="33.74607" lon="77.66009">
        <ele>4869.6</ele>
        <time>2015-09-06T02:39:18Z</time>
      </trkpt>
      <trkpt lat="33.746" lon="77.66011">
        <ele>4870.6</ele>
        <time>2015-09-06T02:39:36Z</time>
      </trkpt>
      <trkpt lat="33.74603" lon="77.66016">
        <ele>4871.6</ele>
        <time>2015-09-06T02:39:55Z</time>
      </trkpt>
      <trkpt lat="33.74601" lon="77.66022">
        <ele>4872.6</ele>
        <time>2015-09-06T02:40:12Z</time>
      </trkpt>
      <trkpt lat="33.74597" lon="77.66024">
        <ele>4873.8</ele>
        <time>2015-09-06T02:40:24Z</time>
      </trkpt>
      <trkpt lat="33.74596" lon="77.66031">
        <ele>4874.8</ele>
        <time>2015-09-06T02:40:35Z</time>
      </trkpt>
      <trkpt lat="33.74597" lon="77.66039">
        <ele>4875.8</ele>
        <time>2015-09-06T02:40:54Z</time>
      </trkpt>
      <trkpt lat="33.74592" lon="77.66042">
        <ele>4877</ele>
        <time>2015-09-06T02:41:05Z</time>
      </trkpt>
      <trkpt lat="33.74593" lon="77.66051">
        <ele>4878</ele>
        <time>2015-09-06T02:41:30Z</time>
      </trkpt>
      <trkpt lat="33.74593" lon="77.66058">
        <ele>4879.2</ele>
        <time>2015-09-06T02:42:05Z</time>
      </trkpt>
      <trkpt lat="33.74593" lon="77.66061">
        <ele>4880.2</ele>
        <time>2015-09-06T02:42:17Z</time>
      </trkpt>
      <trkpt lat="33.74594" lon="77.66071">
        <ele>4881.4</ele>
        <time>2015-09-06T02:42:35Z</time>
      </trkpt>
      <trkpt lat="33.74593" lon="77.66075">
        <ele>4882.4</ele>
        <time>2015-09-06T02:42:47Z</time>
      </trkpt>
      <trkpt lat="33.74596" lon="77.66082">
        <ele>4883.6</ele>
        <time>2015-09-06T02:43:05Z</time>
      </trkpt>
      <trkpt lat="33.74592" lon="77.66089">
        <ele>4884.6</ele>
        <time>2015-09-06T02:43:28Z</time>
      </trkpt>
      <trkpt lat="33.74593" lon="77.66093">
        <ele>4885.6</ele>
        <time>2015-09-06T02:43:40Z</time>
      </trkpt>
      <trkpt lat="33.74591" lon="77.661">
        <ele>4886.6</ele>
        <time>2015-09-06T02:43:58Z</time>
      </trkpt>
      <trkpt lat="33.74589" lon="77.66105">
        <ele>4887.8</ele>
        <time>2015-09-06T02:44:13Z</time>
      </trkpt>
      <trkpt lat="33.7459" lon="77.66112">
        <ele>4888.8</ele>
        <time>2015-09-06T02:44:27Z</time>
      </trkpt>
      <trkpt lat="33.74593" lon="77.66116">
        <ele>4890</ele>
        <time>2015-09-06T02:44:47Z</time>
      </trkpt>
      <trkpt lat="33.74592" lon="77.66122">
        <ele>4891</ele>
        <time>2015-09-06T02:44:58Z</time>
      </trkpt>
      <trkpt lat="33.74593" lon="77.66129">
        <ele>4891.4</ele>
        <time>2015-09-06T02:45:11Z</time>
      </trkpt>
      <trkpt lat="33.74591" lon="77.66132">
        <ele>4892</ele>
        <time>2015-09-06T02:45:18Z</time>
      </trkpt>
      <trkpt lat="33.74587" lon="77.66135">
        <ele>4893</ele>
        <time>2015-09-06T02:45:29Z</time>
      </trkpt>
      <trkpt lat="33.74587" lon="77.66142">
        <ele>4894</ele>
        <time>2015-09-06T02:45:44Z</time>
      </trkpt>
      <trkpt lat="33.74587" lon="77.66149">
        <ele>4895.2</ele>
        <time>2015-09-06T02:45:58Z</time>
      </trkpt>
      <trkpt lat="33.74583" lon="77.6616">
        <ele>4896.2</ele>
        <time>2015-09-06T02:46:19Z</time>
      </trkpt>
      <trkpt lat="33.74582" lon="77.66167">
        <ele>4897.2</ele>
        <time>2015-09-06T02:46:36Z</time>
      </trkpt>
      <trkpt lat="33.74581" lon="77.66171">
        <ele>4898.2</ele>
        <time>2015-09-06T02:46:46Z</time>
      </trkpt>
      <trkpt lat="33.74582" lon="77.66176">
        <ele>4899.4</ele>
        <time>2015-09-06T02:46:58Z</time>
      </trkpt>
      <trkpt lat="33.74573" lon="77.66179">
        <ele>4900.6</ele>
        <time>2015-09-06T02:47:19Z</time>
      </trkpt>
      <trkpt lat="33.74583" lon="77.66184">
        <ele>4901.6</ele>
        <time>2015-09-06T02:47:57Z</time>
      </trkpt>
      <trkpt lat="33.74585" lon="77.6619">
        <ele>4902.8</ele>
        <time>2015-09-06T02:48:09Z</time>
      </trkpt>
      <trkpt lat="33.74589" lon="77.66196">
        <ele>4902.2</ele>
        <time>2015-09-06T02:49:18Z</time>
      </trkpt>
      <trkpt lat="33.74597" lon="77.66188">
        <ele>4902</ele>
        <time>2015-09-06T02:49:33Z</time>
      </trkpt>
      <trkpt lat="33.74595" lon="77.66188">
        <ele>4901.8</ele>
        <time>2015-09-06T02:49:35Z</time>
      </trkpt>
      <trkpt lat="33.74586" lon="77.66187">
        <ele>4902</ele>
        <time>2015-09-06T02:49:39Z</time>
      </trkpt>
      <trkpt lat="33.74583" lon="77.66186">
        <ele>4901.6</ele>
        <time>2015-09-06T02:49:42Z</time>
      </trkpt>
      <trkpt lat="33.74581" lon="77.66186">
        <ele>4901.2</ele>
        <time>2015-09-06T02:49:45Z</time>
      </trkpt>
      <trkpt lat="33.7458" lon="77.66184">
        <ele>4901</ele>
        <time>2015-09-06T02:49:47Z</time>
      </trkpt>
      <trkpt lat="33.74575" lon="77.66182">
        <ele>4900.6</ele>
        <time>2015-09-06T02:49:53Z</time>
      </trkpt>
      <trkpt lat="33.7457" lon="77.66183">
        <ele>4899.6</ele>
        <time>2015-09-06T02:50:15Z</time>
      </trkpt>
      <trkpt lat="33.74569" lon="77.66182">
        <ele>4898.4</ele>
        <time>2015-09-06T02:51:02Z</time>
      </trkpt>
      <trkpt lat="33.74568" lon="77.66185">
        <ele>4897.4</ele>
        <time>2015-09-06T02:51:12Z</time>
      </trkpt>
      <trkpt lat="33.74563" lon="77.66184">
        <ele>4896.2</ele>
        <time>2015-09-06T02:51:21Z</time>
      </trkpt>
      <trkpt lat="33.74557" lon="77.66187">
        <ele>4895.2</ele>
        <time>2015-09-06T02:51:32Z</time>
      </trkpt>
      <trkpt lat="33.74552" lon="77.6619">
        <ele>4894.4</ele>
        <time>2015-09-06T02:51:41Z</time>
      </trkpt>
      <trkpt lat="33.74551" lon="77.66191">
        <ele>4894.2</ele>
        <time>2015-09-06T02:51:43Z</time>
      </trkpt>
      <trkpt lat="33.74549" lon="77.6619">
        <ele>4893</ele>
        <time>2015-09-06T02:51:50Z</time>
      </trkpt>
      <trkpt lat="33.74542" lon="77.66191">
        <ele>4891.8</ele>
        <time>2015-09-06T02:51:59Z</time>
      </trkpt>
      <trkpt lat="33.74536" lon="77.66194">
        <ele>4890.8</ele>
        <time>2015-09-06T02:52:07Z</time>
      </trkpt>
      <trkpt lat="33.74532" lon="77.66192">
        <ele>4889.6</ele>
        <time>2015-09-06T02:52:14Z</time>
      </trkpt>
      <trkpt lat="33.74528" lon="77.66191">
        <ele>4888.6</ele>
        <time>2015-09-06T02:52:22Z</time>
      </trkpt>
      <trkpt lat="33.74518" lon="77.66195">
        <ele>4887.4</ele>
        <time>2015-09-06T02:52:37Z</time>
      </trkpt>
      <trkpt lat="33.74516" lon="77.66195">
        <ele>4886.2</ele>
        <time>2015-09-06T02:52:42Z</time>
      </trkpt>
      <trkpt lat="33.74508" lon="77.66193">
        <ele>4885.2</ele>
        <time>2015-09-06T02:52:54Z</time>
      </trkpt>
      <trkpt lat="33.74505" lon="77.66193">
        <ele>4884</ele>
        <time>2015-09-06T02:53:01Z</time>
      </trkpt>
      <trkpt lat="33.74501" lon="77.66199">
        <ele>4882.8</ele>
        <time>2015-09-06T02:53:15Z</time>
      </trkpt>
      <trkpt lat="33.74499" lon="77.66195">
        <ele>4881.8</ele>
        <time>2015-09-06T02:53:20Z</time>
      </trkpt>
      <trkpt lat="33.74496" lon="77.66196">
        <ele>4880.6</ele>
        <time>2015-09-06T02:53:24Z</time>
      </trkpt>
      <trkpt lat="33.74492" lon="77.66198">
        <ele>4879.6</ele>
        <time>2015-09-06T02:53:30Z</time>
      </trkpt>
      <trkpt lat="33.74489" lon="77.66197">
        <ele>4878.4</ele>
        <time>2015-09-06T02:53:36Z</time>
      </trkpt>
      <trkpt lat="33.74485" lon="77.66196">
        <ele>4877.4</ele>
        <time>2015-09-06T02:53:44Z</time>
      </trkpt>
      <trkpt lat="33.7448" lon="77.66191">
        <ele>4876.2</ele>
        <time>2015-09-06T02:53:51Z</time>
      </trkpt>
      <trkpt lat="33.74477" lon="77.66189">
        <ele>4875.2</ele>
        <time>2015-09-06T02:53:56Z</time>
      </trkpt>
      <trkpt lat="33.74473" lon="77.66189">
        <ele>4874</ele>
        <time>2015-09-06T02:54:03Z</time>
      </trkpt>
      <trkpt lat="33.74469" lon="77.66188">
        <ele>4873</ele>
        <time>2015-09-06T02:54:08Z</time>
      </trkpt>
      <trkpt lat="33.74465" lon="77.66191">
        <ele>4872.2</ele>
        <time>2015-09-06T02:54:13Z</time>
      </trkpt>
      <trkpt lat="33.74463" lon="77.66195">
        <ele>4872</ele>
        <time>2015-09-06T02:54:16Z</time>
      </trkpt>
      <trkpt lat="33.74462" lon="77.66199">
        <ele>4871.8</ele>
        <time>2015-09-06T02:54:18Z</time>
      </trkpt>
      <trkpt lat="33.74459" lon="77.662">
        <ele>4870.6</ele>
        <time>2015-09-06T02:54:24Z</time>
      </trkpt>
      <trkpt lat="33.74456" lon="77.66199">
        <ele>4869.6</ele>
        <time>2015-09-06T02:54:28Z</time>
      </trkpt>
      <trkpt lat="33.74453" lon="77.662">
        <ele>4868.6</ele>
        <time>2015-09-06T02:54:33Z</time>
      </trkpt>
      <trkpt lat="33.74443" lon="77.66213">
        <ele>4867.4</ele>
        <time>2015-09-06T02:54:51Z</time>
      </trkpt>
      <trkpt lat="33.74439" lon="77.66221">
        <ele>4866.4</ele>
        <time>2015-09-06T02:55:01Z</time>
      </trkpt>
      <trkpt lat="33.74434" lon="77.66226">
        <ele>4865.2</ele>
        <time>2015-09-06T02:55:09Z</time>
      </trkpt>
      <trkpt lat="33.7443" lon="77.66229">
        <ele>4864</ele>
        <time>2015-09-06T02:55:17Z</time>
      </trkpt>
      <trkpt lat="33.74428" lon="77.66232">
        <ele>4864</ele>
        <time>2015-09-06T02:55:21Z</time>
      </trkpt>
      <trkpt lat="33.74418" lon="77.66245">
        <ele>4863</ele>
        <time>2015-09-06T02:55:39Z</time>
      </trkpt>
      <trkpt lat="33.74412" lon="77.66251">
        <ele>4861.8</ele>
        <time>2015-09-06T02:55:48Z</time>
      </trkpt>
      <trkpt lat="33.74406" lon="77.66254">
        <ele>4861.4</ele>
        <time>2015-09-06T02:55:56Z</time>
      </trkpt>
      <trkpt lat="33.74402" lon="77.66258">
        <ele>4860.8</ele>
        <time>2015-09-06T02:56:02Z</time>
      </trkpt>
      <trkpt lat="33.74398" lon="77.66265">
        <ele>4859.6</ele>
        <time>2015-09-06T02:56:13Z</time>
      </trkpt>
      <trkpt lat="33.74383" lon="77.66278">
        <ele>4858.6</ele>
        <time>2015-09-06T02:56:39Z</time>
      </trkpt>
      <trkpt lat="33.74379" lon="77.66287">
        <ele>4857.6</ele>
        <time>2015-09-06T02:56:50Z</time>
      </trkpt>
      <trkpt lat="33.74375" lon="77.66297">
        <ele>4856.6</ele>
        <time>2015-09-06T02:57:00Z</time>
      </trkpt>
      <trkpt lat="33.74374" lon="77.66297">
        <ele>4856.6</ele>
        <time>2015-09-06T02:57:01Z</time>
      </trkpt>
      <trkpt lat="33.74364" lon="77.66315">
        <ele>4856.2</ele>
        <time>2015-09-06T02:57:24Z</time>
      </trkpt>
      <trkpt lat="33.74359" lon="77.66321">
        <ele>4855.6</ele>
        <time>2015-09-06T02:57:35Z</time>
      </trkpt>
      <trkpt lat="33.74358" lon="77.66325">
        <ele>4854.4</ele>
        <time>2015-09-06T02:57:39Z</time>
      </trkpt>
      <trkpt lat="33.74356" lon="77.66332">
        <ele>4853.2</ele>
        <time>2015-09-06T02:57:47Z</time>
      </trkpt>
      <trkpt lat="33.74351" lon="77.66341">
        <ele>4852.2</ele>
        <time>2015-09-06T02:57:57Z</time>
      </trkpt>
      <trkpt lat="33.74349" lon="77.6635">
        <ele>4851</ele>
        <time>2015-09-06T02:58:06Z</time>
      </trkpt>
      <trkpt lat="33.74347" lon="77.66358">
        <ele>4850.8</ele>
        <time>2015-09-06T02:58:12Z</time>
      </trkpt>
      <trkpt lat="33.74345" lon="77.66362">
        <ele>4850.6</ele>
        <time>2015-09-06T02:58:17Z</time>
      </trkpt>
      <trkpt lat="33.74342" lon="77.66374">
        <ele>4850</ele>
        <time>2015-09-06T02:58:28Z</time>
      </trkpt>
      <trkpt lat="33.74342" lon="77.66378">
        <ele>4849.4</ele>
        <time>2015-09-06T02:58:33Z</time>
      </trkpt>
      <trkpt lat="33.7434" lon="77.66382">
        <ele>4849</ele>
        <time>2015-09-06T02:58:36Z</time>
      </trkpt>
      <trkpt lat="33.74339" lon="77.66383">
        <ele>4849.2</ele>
        <time>2015-09-06T02:58:39Z</time>
      </trkpt>
      <trkpt lat="33.74338" lon="77.66389">
        <ele>4849.4</ele>
        <time>2015-09-06T02:58:44Z</time>
      </trkpt>
      <trkpt lat="33.74339" lon="77.66395">
        <ele>4849</ele>
        <time>2015-09-06T02:58:53Z</time>
      </trkpt>
      <trkpt lat="33.7434" lon="77.66417">
        <ele>4849.4</ele>
        <time>2015-09-06T02:59:17Z</time>
      </trkpt>
      <trkpt lat="33.74335" lon="77.66437">
        <ele>4848.6</ele>
        <time>2015-09-06T02:59:43Z</time>
      </trkpt>
      <trkpt lat="33.74335" lon="77.66439">
        <ele>4848.2</ele>
        <time>2015-09-06T02:59:45Z</time>
      </trkpt>
      <trkpt lat="33.74335" lon="77.6644">
        <ele>4847.8</ele>
        <time>2015-09-06T02:59:46Z</time>
      </trkpt>
      <trkpt lat="33.74335" lon="77.66445">
        <ele>4847.4</ele>
        <time>2015-09-06T02:59:51Z</time>
      </trkpt>
      <trkpt lat="33.74334" lon="77.66449">
        <ele>4847.4</ele>
        <time>2015-09-06T02:59:55Z</time>
      </trkpt>
      <trkpt lat="33.74335" lon="77.66471">
        <ele>4848.4</ele>
        <time>2015-09-06T03:00:22Z</time>
      </trkpt>
      <trkpt lat="33.7434" lon="77.66491">
        <ele>4848.4</ele>
        <time>2015-09-06T03:00:45Z</time>
      </trkpt>
      <trkpt lat="33.7434" lon="77.66508">
        <ele>4849</ele>
        <time>2015-09-06T03:01:08Z</time>
      </trkpt>
      <trkpt lat="33.74343" lon="77.66517">
        <ele>4849.8</ele>
        <time>2015-09-06T03:01:22Z</time>
      </trkpt>
      <trkpt lat="33.74342" lon="77.66519">
        <ele>4850</ele>
        <time>2015-09-06T03:01:27Z</time>
      </trkpt>
      <trkpt lat="33.74345" lon="77.66537">
        <ele>4851</ele>
        <time>2015-09-06T03:01:52Z</time>
      </trkpt>
      <trkpt lat="33.74349" lon="77.66543">
        <ele>4852</ele>
        <time>2015-09-06T03:02:05Z</time>
      </trkpt>
      <trkpt lat="33.74348" lon="77.66551">
        <ele>4853</ele>
        <time>2015-09-06T03:02:22Z</time>
      </trkpt>
      <trkpt lat="33.7435" lon="77.66554">
        <ele>4854.2</ele>
        <time>2015-09-06T03:02:28Z</time>
      </trkpt>
      <trkpt lat="33.74345" lon="77.66564">
        <ele>4855.2</ele>
        <time>2015-09-06T03:02:44Z</time>
      </trkpt>
      <trkpt lat="33.74348" lon="77.66578">
        <ele>4854.2</ele>
        <time>2015-09-06T03:03:04Z</time>
      </trkpt>
      <trkpt lat="33.74353" lon="77.66594">
        <ele>4854.6</ele>
        <time>2015-09-06T03:03:24Z</time>
      </trkpt>
      <trkpt lat="33.74355" lon="77.66611">
        <ele>4855.2</ele>
        <time>2015-09-06T03:03:48Z</time>
      </trkpt>
      <trkpt lat="33.74361" lon="77.66626">
        <ele>4856.2</ele>
        <time>2015-09-06T03:04:17Z</time>
      </trkpt>
      <trkpt lat="33.74362" lon="77.66627">
        <ele>4856.4</ele>
        <time>2015-09-06T03:04:18Z</time>
      </trkpt>
      <trkpt lat="33.7436" lon="77.66637">
        <ele>4857.4</ele>
        <time>2015-09-06T03:04:39Z</time>
      </trkpt>
      <trkpt lat="33.74359" lon="77.66652">
        <ele>4856.4</ele>
        <time>2015-09-06T03:04:56Z</time>
      </trkpt>
      <trkpt lat="33.74357" lon="77.66655">
        <ele>4856.2</ele>
        <time>2015-09-06T03:05:00Z</time>
      </trkpt>
      <trkpt lat="33.74355" lon="77.66677">
        <ele>4856.6</ele>
        <time>2015-09-06T03:05:24Z</time>
      </trkpt>
      <trkpt lat="33.74356" lon="77.66693">
        <ele>4857.4</ele>
        <time>2015-09-06T03:05:45Z</time>
      </trkpt>
      <trkpt lat="33.74355" lon="77.66705">
        <ele>4858.4</ele>
        <time>2015-09-06T03:06:05Z</time>
      </trkpt>
      <trkpt lat="33.74356" lon="77.66714">
        <ele>4859.4</ele>
        <time>2015-09-06T03:06:18Z</time>
      </trkpt>
      <trkpt lat="33.74355" lon="77.66729">
        <ele>4860.4</ele>
        <time>2015-09-06T03:06:50Z</time>
      </trkpt>
      <trkpt lat="33.74347" lon="77.66747">
        <ele>4861</ele>
        <time>2015-09-06T03:07:15Z</time>
      </trkpt>
      <trkpt lat="33.74346" lon="77.66751">
        <ele>4861.6</ele>
        <time>2015-09-06T03:07:28Z</time>
      </trkpt>
      <trkpt lat="33.74344" lon="77.66758">
        <ele>4862.6</ele>
        <time>2015-09-06T03:07:46Z</time>
      </trkpt>
      <trkpt lat="33.74343" lon="77.6676">
        <ele>4863.6</ele>
        <time>2015-09-06T03:07:57Z</time>
      </trkpt>
      <trkpt lat="33.74343" lon="77.66766">
        <ele>4864.8</ele>
        <time>2015-09-06T03:08:06Z</time>
      </trkpt>
      <trkpt lat="33.74337" lon="77.66778">
        <ele>4865.8</ele>
        <time>2015-09-06T03:08:34Z</time>
      </trkpt>
      <trkpt lat="33.74334" lon="77.66794">
        <ele>4866.8</ele>
        <time>2015-09-06T03:09:01Z</time>
      </trkpt>
      <trkpt lat="33.74331" lon="77.66803">
        <ele>4867.8</ele>
        <time>2015-09-06T03:09:32Z</time>
      </trkpt>
      <trkpt lat="33.74328" lon="77.66821">
        <ele>4868.8</ele>
        <time>2015-09-06T03:10:05Z</time>
      </trkpt>
      <trkpt lat="33.74325" lon="77.66824">
        <ele>4868.8</ele>
        <time>2015-09-06T03:10:11Z</time>
      </trkpt>
      <trkpt lat="33.74324" lon="77.66829">
        <ele>4870</ele>
        <time>2015-09-06T03:10:22Z</time>
      </trkpt>
      <trkpt lat="33.74323" lon="77.66837">
        <ele>4871</ele>
        <time>2015-09-06T03:10:29Z</time>
      </trkpt>
      <trkpt lat="33.74324" lon="77.66843">
        <ele>4871.4</ele>
        <time>2015-09-06T03:10:34Z</time>
      </trkpt>
      <trkpt lat="33.74325" lon="77.66853">
        <ele>4872</ele>
        <time>2015-09-06T03:10:59Z</time>
      </trkpt>
      <trkpt lat="33.74323" lon="77.66858">
        <ele>4873</ele>
        <time>2015-09-06T03:11:13Z</time>
      </trkpt>
      <trkpt lat="33.7432" lon="77.66866">
        <ele>4874</ele>
        <time>2015-09-06T03:11:30Z</time>
      </trkpt>
      <trkpt lat="33.74321" lon="77.66885">
        <ele>4874.4</ele>
        <time>2015-09-06T03:11:53Z</time>
      </trkpt>
      <trkpt lat="33.74322" lon="77.66886">
        <ele>4874.2</ele>
        <time>2015-09-06T03:12:16Z</time>
      </trkpt>
      <trkpt lat="33.74319" lon="77.66886">
        <ele>4873.8</ele>
        <time>2015-09-06T03:12:19Z</time>
      </trkpt>
      <trkpt lat="33.74314" lon="77.66886">
        <ele>4873</ele>
        <time>2015-09-06T03:12:35Z</time>
      </trkpt>
      <trkpt lat="33.74304" lon="77.66885">
        <ele>4873</ele>
        <time>2015-09-06T03:12:50Z</time>
      </trkpt>
      <trkpt lat="33.74292" lon="77.66891">
        <ele>4873.2</ele>
        <time>2015-09-06T03:13:02Z</time>
      </trkpt>
      <trkpt lat="33.74287" lon="77.66892">
        <ele>4873.2</ele>
        <time>2015-09-06T03:13:09Z</time>
      </trkpt>
      <trkpt lat="33.74285" lon="77.66892">
        <ele>4873.2</ele>
        <time>2015-09-06T03:13:11Z</time>
      </trkpt>
      <trkpt lat="33.74276" lon="77.66894">
        <ele>4872.6</ele>
        <time>2015-09-06T03:13:22Z</time>
      </trkpt>
      <trkpt lat="33.74269" lon="77.66898">
        <ele>4872.2</ele>
        <time>2015-09-06T03:13:32Z</time>
      </trkpt>
      <trkpt lat="33.74267" lon="77.66898">
        <ele>4872.2</ele>
        <time>2015-09-06T03:13:35Z</time>
      </trkpt>
      <trkpt lat="33.74258" lon="77.669">
        <ele>4871.8</ele>
        <time>2015-09-06T03:13:50Z</time>
      </trkpt>
      <trkpt lat="33.74244" lon="77.66916">
        <ele>4871.2</ele>
        <time>2015-09-06T03:14:11Z</time>
      </trkpt>
      <trkpt lat="33.74239" lon="77.66919">
        <ele>4870.8</ele>
        <time>2015-09-06T03:14:22Z</time>
      </trkpt>
      <trkpt lat="33.74232" lon="77.66923">
        <ele>4871.8</ele>
        <time>2015-09-06T03:14:36Z</time>
      </trkpt>
      <trkpt lat="33.74225" lon="77.66929">
        <ele>4871.6</ele>
        <time>2015-09-06T03:14:47Z</time>
      </trkpt>
      <trkpt lat="33.74221" lon="77.66934">
        <ele>4871.6</ele>
        <time>2015-09-06T03:14:54Z</time>
      </trkpt>
      <trkpt lat="33.74206" lon="77.66941">
        <ele>4871.6</ele>
        <time>2015-09-06T03:15:20Z</time>
      </trkpt>
      <trkpt lat="33.74197" lon="77.66948">
        <ele>4872.4</ele>
        <time>2015-09-06T03:15:35Z</time>
      </trkpt>
      <trkpt lat="33.74193" lon="77.66947">
        <ele>4873</ele>
        <time>2015-09-06T03:15:43Z</time>
      </trkpt>
      <trkpt lat="33.74181" lon="77.66955">
        <ele>4874</ele>
        <time>2015-09-06T03:16:03Z</time>
      </trkpt>
      <trkpt lat="33.74179" lon="77.66962">
        <ele>4873.6</ele>
        <time>2015-09-06T03:16:08Z</time>
      </trkpt>
      <trkpt lat="33.74178" lon="77.66966">
        <ele>4873.4</ele>
        <time>2015-09-06T03:16:11Z</time>
      </trkpt>
      <trkpt lat="33.74171" lon="77.66976">
        <ele>4875</ele>
        <time>2015-09-06T03:16:27Z</time>
      </trkpt>
      <trkpt lat="33.74169" lon="77.66979">
        <ele>4876</ele>
        <time>2015-09-06T03:16:35Z</time>
      </trkpt>
      <trkpt lat="33.74158" lon="77.66986">
        <ele>4875</ele>
        <time>2015-09-06T03:17:01Z</time>
      </trkpt>
      <trkpt lat="33.7415" lon="77.66988">
        <ele>4873.8</ele>
        <time>2015-09-06T03:17:22Z</time>
      </trkpt>
      <trkpt lat="33.74149" lon="77.6699">
        <ele>4872.6</ele>
        <time>2015-09-06T03:17:27Z</time>
      </trkpt>
      <trkpt lat="33.74145" lon="77.66998">
        <ele>4871.6</ele>
        <time>2015-09-06T03:17:39Z</time>
      </trkpt>
      <trkpt lat="33.74141" lon="77.66999">
        <ele>4870.6</ele>
        <time>2015-09-06T03:17:47Z</time>
      </trkpt>
      <trkpt lat="33.74132" lon="77.66997">
        <ele>4871.2</ele>
        <time>2015-09-06T03:18:03Z</time>
      </trkpt>
      <trkpt lat="33.74129" lon="77.67001">
        <ele>4871.6</ele>
        <time>2015-09-06T03:18:06Z</time>
      </trkpt>
      <trkpt lat="33.74127" lon="77.67004">
        <ele>4871.6</ele>
        <time>2015-09-06T03:18:08Z</time>
      </trkpt>
      <trkpt lat="33.74118" lon="77.67013">
        <ele>4871.4</ele>
        <time>2015-09-06T03:18:21Z</time>
      </trkpt>
      <trkpt lat="33.74106" lon="77.67027">
        <ele>4871.2</ele>
        <time>2015-09-06T03:18:52Z</time>
      </trkpt>
      <trkpt lat="33.74094" lon="77.67044">
        <ele>4871.4</ele>
        <time>2015-09-06T03:19:20Z</time>
      </trkpt>
      <trkpt lat="33.74091" lon="77.67052">
        <ele>4871</ele>
        <time>2015-09-06T03:19:25Z</time>
      </trkpt>
      <trkpt lat="33.74083" lon="77.67062">
        <ele>4872.8</ele>
        <time>2015-09-06T03:19:46Z</time>
      </trkpt>
      <trkpt lat="33.74081" lon="77.67067">
        <ele>4873.6</ele>
        <time>2015-09-06T03:19:52Z</time>
      </trkpt>
      <trkpt lat="33.74075" lon="77.67073">
        <ele>4871.8</ele>
        <time>2015-09-06T03:20:03Z</time>
      </trkpt>
      <trkpt lat="33.74066" lon="77.67087">
        <ele>4871.6</ele>
        <time>2015-09-06T03:20:23Z</time>
      </trkpt>
      <trkpt lat="33.74066" lon="77.67092">
        <ele>4870.6</ele>
        <time>2015-09-06T03:20:27Z</time>
      </trkpt>
      <trkpt lat="33.74061" lon="77.67099">
        <ele>4870</ele>
        <time>2015-09-06T03:20:37Z</time>
      </trkpt>
      <trkpt lat="33.74058" lon="77.67098">
        <ele>4871.6</ele>
        <time>2015-09-06T03:20:48Z</time>
      </trkpt>
      <trkpt lat="33.74053" lon="77.67106">
        <ele>4870.6</ele>
        <time>2015-09-06T03:21:04Z</time>
      </trkpt>
      <trkpt lat="33.74052" lon="77.67107">
        <ele>4870.6</ele>
        <time>2015-09-06T03:21:05Z</time>
      </trkpt>
      <trkpt lat="33.74051" lon="77.67116">
        <ele>4870.4</ele>
        <time>2015-09-06T03:21:09Z</time>
      </trkpt>
      <trkpt lat="33.7405" lon="77.67119">
        <ele>4870.2</ele>
        <time>2015-09-06T03:21:11Z</time>
      </trkpt>
      <trkpt lat="33.74045" lon="77.67132">
        <ele>4870.8</ele>
        <time>2015-09-06T03:21:28Z</time>
      </trkpt>
      <trkpt lat="33.74036" lon="77.67145">
        <ele>4871.6</ele>
        <time>2015-09-06T03:21:54Z</time>
      </trkpt>
      <trkpt lat="33.74031" lon="77.6716">
        <ele>4872.8</ele>
        <time>2015-09-06T03:22:08Z</time>
      </trkpt>
      <trkpt lat="33.7403" lon="77.67164">
        <ele>4873.8</ele>
        <time>2015-09-06T03:22:14Z</time>
      </trkpt>
      <trkpt lat="33.74029" lon="77.67178">
        <ele>4874</ele>
        <time>2015-09-06T03:22:33Z</time>
      </trkpt>
      <trkpt lat="33.74027" lon="77.67181">
        <ele>4875</ele>
        <time>2015-09-06T03:22:44Z</time>
      </trkpt>
      <trkpt lat="33.74028" lon="77.67188">
        <ele>4875.2</ele>
        <time>2015-09-06T03:22:51Z</time>
      </trkpt>
      <trkpt lat="33.74027" lon="77.67191">
        <ele>4876</ele>
        <time>2015-09-06T03:22:56Z</time>
      </trkpt>
      <trkpt lat="33.74027" lon="77.67195">
        <ele>4876.2</ele>
        <time>2015-09-06T03:22:57Z</time>
      </trkpt>
      <trkpt lat="33.74026" lon="77.67213">
        <ele>4876.6</ele>
        <time>2015-09-06T03:23:21Z</time>
      </trkpt>
      <trkpt lat="33.74026" lon="77.67218">
        <ele>4876.2</ele>
        <time>2015-09-06T03:23:26Z</time>
      </trkpt>
      <trkpt lat="33.74027" lon="77.67225">
        <ele>4877</ele>
        <time>2015-09-06T03:23:36Z</time>
      </trkpt>
      <trkpt lat="33.74026" lon="77.67236">
        <ele>4877.4</ele>
        <time>2015-09-06T03:23:47Z</time>
      </trkpt>
      <trkpt lat="33.74026" lon="77.67239">
        <ele>4877.4</ele>
        <time>2015-09-06T03:23:51Z</time>
      </trkpt>
      <trkpt lat="33.74022" lon="77.67259">
        <ele>4877.8</ele>
        <time>2015-09-06T03:24:12Z</time>
      </trkpt>
      <trkpt lat="33.74021" lon="77.67282">
        <ele>4876.8</ele>
        <time>2015-09-06T03:24:39Z</time>
      </trkpt>
      <trkpt lat="33.7402" lon="77.67286">
        <ele>4876.8</ele>
        <time>2015-09-06T03:24:42Z</time>
      </trkpt>
      <trkpt lat="33.74021" lon="77.67287">
        <ele>4876.6</ele>
        <time>2015-09-06T03:24:44Z</time>
      </trkpt>
      <trkpt lat="33.74024" lon="77.67295">
        <ele>4875.8</ele>
        <time>2015-09-06T03:24:57Z</time>
      </trkpt>
      <trkpt lat="33.74024" lon="77.6731">
        <ele>4877</ele>
        <time>2015-09-06T03:25:18Z</time>
      </trkpt>
      <trkpt lat="33.74026" lon="77.67321">
        <ele>4876.6</ele>
        <time>2015-09-06T03:25:30Z</time>
      </trkpt>
      <trkpt lat="33.7402" lon="77.67336">
        <ele>4877.8</ele>
        <time>2015-09-06T03:25:46Z</time>
      </trkpt>
      <trkpt lat="33.74019" lon="77.67336">
        <ele>4878</ele>
        <time>2015-09-06T03:25:48Z</time>
      </trkpt>
      <trkpt lat="33.74021" lon="77.67351">
        <ele>4879</ele>
        <time>2015-09-06T03:26:05Z</time>
      </trkpt>
      <trkpt lat="33.7402" lon="77.6736">
        <ele>4880</ele>
        <time>2015-09-06T03:26:18Z</time>
      </trkpt>
      <trkpt lat="33.7402" lon="77.67362">
        <ele>4880.4</ele>
        <time>2015-09-06T03:26:19Z</time>
      </trkpt>
      <trkpt lat="33.74022" lon="77.67365">
        <ele>4880.6</ele>
        <time>2015-09-06T03:26:21Z</time>
      </trkpt>
      <trkpt lat="33.74024" lon="77.67369">
        <ele>4880.2</ele>
        <time>2015-09-06T03:26:26Z</time>
      </trkpt>
      <trkpt lat="33.74024" lon="77.67372">
        <ele>4880.2</ele>
        <time>2015-09-06T03:26:28Z</time>
      </trkpt>
      <trkpt lat="33.74021" lon="77.67373">
        <ele>4880.6</ele>
        <time>2015-09-06T03:26:30Z</time>
      </trkpt>
      <trkpt lat="33.74014" lon="77.67377">
        <ele>4878.8</ele>
        <time>2015-09-06T03:26:35Z</time>
      </trkpt>
      <trkpt lat="33.74013" lon="77.67377">
        <ele>4878.2</ele>
        <time>2015-09-06T03:26:37Z</time>
      </trkpt>
      <trkpt lat="33.74007" lon="77.67385">
        <ele>4878.4</ele>
        <time>2015-09-06T03:27:04Z</time>
      </trkpt>
      <trkpt lat="33.74006" lon="77.67378">
        <ele>4878.8</ele>
        <time>2015-09-06T03:28:55Z</time>
      </trkpt>
      <trkpt lat="33.73999" lon="77.67385">
        <ele>4877.6</ele>
        <time>2015-09-06T03:29:17Z</time>
      </trkpt>
      <trkpt lat="33.73994" lon="77.67387">
        <ele>4877</ele>
        <time>2015-09-06T03:29:23Z</time>
      </trkpt>
      <trkpt lat="33.7399" lon="77.67389">
        <ele>4876.6</ele>
        <time>2015-09-06T03:29:28Z</time>
      </trkpt>
      <trkpt lat="33.73987" lon="77.67389">
        <ele>4876.4</ele>
        <time>2015-09-06T03:29:31Z</time>
      </trkpt>
      <trkpt lat="33.73986" lon="77.67392">
        <ele>4876.4</ele>
        <time>2015-09-06T03:29:33Z</time>
      </trkpt>
      <trkpt lat="33.73985" lon="77.67393">
        <ele>4876.6</ele>
        <time>2015-09-06T03:29:35Z</time>
      </trkpt>
      <trkpt lat="33.73976" lon="77.67394">
        <ele>4876.2</ele>
        <time>2015-09-06T03:29:48Z</time>
      </trkpt>
      <trkpt lat="33.73974" lon="77.67394">
        <ele>4876.2</ele>
        <time>2015-09-06T03:29:50Z</time>
      </trkpt>
      <trkpt lat="33.73969" lon="77.67396">
        <ele>4876</ele>
        <time>2015-09-06T03:29:57Z</time>
      </trkpt>
      <trkpt lat="33.73966" lon="77.67395">
        <ele>4875.8</ele>
        <time>2015-09-06T03:30:00Z</time>
      </trkpt>
      <trkpt lat="33.73962" lon="77.67397">
        <ele>4875.4</ele>
        <time>2015-09-06T03:30:04Z</time>
      </trkpt>
      <trkpt lat="33.73948" lon="77.67395">
        <ele>4875</ele>
        <time>2015-09-06T03:30:20Z</time>
      </trkpt>
      <trkpt lat="33.73947" lon="77.67394">
        <ele>4875</ele>
        <time>2015-09-06T03:30:22Z</time>
      </trkpt>
      <trkpt lat="33.73946" lon="77.67392">
        <ele>4876.4</ele>
        <time>2015-09-06T03:30:27Z</time>
      </trkpt>
      <trkpt lat="33.73938" lon="77.67393">
        <ele>4875.6</ele>
        <time>2015-09-06T03:30:41Z</time>
      </trkpt>
      <trkpt lat="33.7393" lon="77.6739">
        <ele>4875.4</ele>
        <time>2015-09-06T03:30:54Z</time>
      </trkpt>
      <trkpt lat="33.73912" lon="77.67381">
        <ele>4876.2</ele>
        <time>2015-09-06T03:31:25Z</time>
      </trkpt>
      <trkpt lat="33.73911" lon="77.67379">
        <ele>4876</ele>
        <time>2015-09-06T03:31:28Z</time>
      </trkpt>
      <trkpt lat="33.73907" lon="77.6736">
        <ele>4874.4</ele>
        <time>2015-09-06T03:31:56Z</time>
      </trkpt>
      <trkpt lat="33.73895" lon="77.67345">
        <ele>4874.2</ele>
        <time>2015-09-06T03:32:19Z</time>
      </trkpt>
      <trkpt lat="33.73885" lon="77.67342">
        <ele>4875</ele>
        <time>2015-09-06T03:32:31Z</time>
      </trkpt>
      <trkpt lat="33.73883" lon="77.67341">
        <ele>4875</ele>
        <time>2015-09-06T03:32:33Z</time>
      </trkpt>
      <trkpt lat="33.73881" lon="77.6734">
        <ele>4875.2</ele>
        <time>2015-09-06T03:32:36Z</time>
      </trkpt>
      <trkpt lat="33.7388" lon="77.67339">
        <ele>4875.4</ele>
        <time>2015-09-06T03:32:37Z</time>
      </trkpt>
      <trkpt lat="33.73877" lon="77.67331">
        <ele>4875.6</ele>
        <time>2015-09-06T03:33:27Z</time>
      </trkpt>
      <trkpt lat="33.7387" lon="77.67321">
        <ele>4876.4</ele>
        <time>2015-09-06T03:33:50Z</time>
      </trkpt>
      <trkpt lat="33.73864" lon="77.67313">
        <ele>4876</ele>
        <time>2015-09-06T03:34:07Z</time>
      </trkpt>
      <trkpt lat="33.73864" lon="77.67308">
        <ele>4875.4</ele>
        <time>2015-09-06T03:34:12Z</time>
      </trkpt>
      <trkpt lat="33.73857" lon="77.67311">
        <ele>4874.4</ele>
        <time>2015-09-06T03:34:23Z</time>
      </trkpt>
      <trkpt lat="33.73851" lon="77.67316">
        <ele>4873.2</ele>
        <time>2015-09-06T03:34:31Z</time>
      </trkpt>
      <trkpt lat="33.73842" lon="77.67308">
        <ele>4874.4</ele>
        <time>2015-09-06T03:34:52Z</time>
      </trkpt>
      <trkpt lat="33.73834" lon="77.67303">
        <ele>4874.4</ele>
        <time>2015-09-06T03:35:08Z</time>
      </trkpt>
      <trkpt lat="33.73818" lon="77.67292">
        <ele>4874.4</ele>
        <time>2015-09-06T03:35:37Z</time>
      </trkpt>
      <trkpt lat="33.73818" lon="77.67286">
        <ele>4873.4</ele>
        <time>2015-09-06T03:36:00Z</time>
      </trkpt>
      <trkpt lat="33.73814" lon="77.67283">
        <ele>4873</ele>
        <time>2015-09-06T03:36:14Z</time>
      </trkpt>
      <trkpt lat="33.73812" lon="77.67281">
        <ele>4872.2</ele>
        <time>2015-09-06T03:36:20Z</time>
      </trkpt>
      <trkpt lat="33.73795" lon="77.67274">
        <ele>4871.8</ele>
        <time>2015-09-06T03:36:55Z</time>
      </trkpt>
      <trkpt lat="33.73789" lon="77.67273">
        <ele>4871.2</ele>
        <time>2015-09-06T03:37:06Z</time>
      </trkpt>
      <trkpt lat="33.73775" lon="77.6726">
        <ele>4871.2</ele>
        <time>2015-09-06T03:37:35Z</time>
      </trkpt>
      <trkpt lat="33.7377" lon="77.67254">
        <ele>4870.2</ele>
        <time>2015-09-06T03:37:42Z</time>
      </trkpt>
      <trkpt lat="33.73753" lon="77.67245">
        <ele>4870.6</ele>
        <time>2015-09-06T03:38:12Z</time>
      </trkpt>
      <trkpt lat="33.73748" lon="77.67241">
        <ele>4871.2</ele>
        <time>2015-09-06T03:38:20Z</time>
      </trkpt>
      <trkpt lat="33.73739" lon="77.67235">
        <ele>4870</ele>
        <time>2015-09-06T03:38:38Z</time>
      </trkpt>
      <trkpt lat="33.73734" lon="77.67227">
        <ele>4869</ele>
        <time>2015-09-06T03:38:48Z</time>
      </trkpt>
      <trkpt lat="33.73731" lon="77.67222">
        <ele>4868</ele>
        <time>2015-09-06T03:38:55Z</time>
      </trkpt>
      <trkpt lat="33.7373" lon="77.67221">
        <ele>4867.8</ele>
        <time>2015-09-06T03:38:57Z</time>
      </trkpt>
      <trkpt lat="33.73724" lon="77.67215">
        <ele>4866.8</ele>
        <time>2015-09-06T03:39:09Z</time>
      </trkpt>
      <trkpt lat="33.73722" lon="77.67209">
        <ele>4865.8</ele>
        <time>2015-09-06T03:39:20Z</time>
      </trkpt>
      <trkpt lat="33.73719" lon="77.67199">
        <ele>4864.6</ele>
        <time>2015-09-06T03:39:29Z</time>
      </trkpt>
      <trkpt lat="33.73714" lon="77.67196">
        <ele>4863.6</ele>
        <time>2015-09-06T03:39:35Z</time>
      </trkpt>
      <trkpt lat="33.73707" lon="77.67193">
        <ele>4862.6</ele>
        <time>2015-09-06T03:39:42Z</time>
      </trkpt>
      <trkpt lat="33.73706" lon="77.67193">
        <ele>4862.4</ele>
        <time>2015-09-06T03:39:43Z</time>
      </trkpt>
      <trkpt lat="33.73706" lon="77.67194">
        <ele>4861.4</ele>
        <time>2015-09-06T03:39:55Z</time>
      </trkpt>
      <trkpt lat="33.73702" lon="77.67189">
        <ele>4860.4</ele>
        <time>2015-09-06T03:40:03Z</time>
      </trkpt>
      <trkpt lat="33.73698" lon="77.67187">
        <ele>4859</ele>
        <time>2015-09-06T03:40:08Z</time>
      </trkpt>
      <trkpt lat="33.73697" lon="77.67182">
        <ele>4858.4</ele>
        <time>2015-09-06T03:40:11Z</time>
      </trkpt>
      <trkpt lat="33.73698" lon="77.6718">
        <ele>4858</ele>
        <time>2015-09-06T03:40:13Z</time>
      </trkpt>
      <trkpt lat="33.73694" lon="77.67176">
        <ele>4857</ele>
        <time>2015-09-06T03:40:20Z</time>
      </trkpt>
      <trkpt lat="33.73692" lon="77.67174">
        <ele>4856.8</ele>
        <time>2015-09-06T03:40:22Z</time>
      </trkpt>
      <trkpt lat="33.73687" lon="77.67172">
        <ele>4855.6</ele>
        <time>2015-09-06T03:40:27Z</time>
      </trkpt>
      <trkpt lat="33.73682" lon="77.67171">
        <ele>4854.6</ele>
        <time>2015-09-06T03:40:34Z</time>
      </trkpt>
      <trkpt lat="33.73684" lon="77.67168">
        <ele>4854.2</ele>
        <time>2015-09-06T03:40:37Z</time>
      </trkpt>
      <trkpt lat="33.73682" lon="77.67163">
        <ele>4853.4</ele>
        <time>2015-09-06T03:40:47Z</time>
      </trkpt>
      <trkpt lat="33.73676" lon="77.67158">
        <ele>4852.4</ele>
        <time>2015-09-06T03:40:55Z</time>
      </trkpt>
      <trkpt lat="33.73671" lon="77.67157">
        <ele>4851.8</ele>
        <time>2015-09-06T03:41:02Z</time>
      </trkpt>
      <trkpt lat="33.7367" lon="77.67157">
        <ele>4851.4</ele>
        <time>2015-09-06T03:41:04Z</time>
      </trkpt>
      <trkpt lat="33.73668" lon="77.67153">
        <ele>4850.2</ele>
        <time>2015-09-06T03:41:10Z</time>
      </trkpt>
      <trkpt lat="33.73668" lon="77.67149">
        <ele>4849.2</ele>
        <time>2015-09-06T03:41:17Z</time>
      </trkpt>
      <trkpt lat="33.73665" lon="77.67146">
        <ele>4848.2</ele>
        <time>2015-09-06T03:41:24Z</time>
      </trkpt>
      <trkpt lat="33.73658" lon="77.67144">
        <ele>4847</ele>
        <time>2015-09-06T03:41:32Z</time>
      </trkpt>
      <trkpt lat="33.73655" lon="77.67141">
        <ele>4846</ele>
        <time>2015-09-06T03:41:37Z</time>
      </trkpt>
      <trkpt lat="33.73652" lon="77.67138">
        <ele>4844.8</ele>
        <time>2015-09-06T03:41:42Z</time>
      </trkpt>
      <trkpt lat="33.73652" lon="77.67137">
        <ele>4844.6</ele>
        <time>2015-09-06T03:41:43Z</time>
      </trkpt>
      <trkpt lat="33.7365" lon="77.67136">
        <ele>4843.8</ele>
        <time>2015-09-06T03:41:47Z</time>
      </trkpt>
      <trkpt lat="33.73648" lon="77.6713">
        <ele>4842.6</ele>
        <time>2015-09-06T03:41:57Z</time>
      </trkpt>
      <trkpt lat="33.73646" lon="77.67126">
        <ele>4841.6</ele>
        <time>2015-09-06T03:42:03Z</time>
      </trkpt>
      <trkpt lat="33.73641" lon="77.67122">
        <ele>4840.4</ele>
        <time>2015-09-06T03:42:12Z</time>
      </trkpt>
      <trkpt lat="33.73644" lon="77.67116">
        <ele>4839.4</ele>
        <time>2015-09-06T03:42:19Z</time>
      </trkpt>
      <trkpt lat="33.73637" lon="77.67114">
        <ele>4838.2</ele>
        <time>2015-09-06T03:42:27Z</time>
      </trkpt>
      <trkpt lat="33.73633" lon="77.67113">
        <ele>4837.4</ele>
        <time>2015-09-06T03:42:31Z</time>
      </trkpt>
      <trkpt lat="33.73632" lon="77.67113">
        <ele>4837.2</ele>
        <time>2015-09-06T03:42:32Z</time>
      </trkpt>
      <trkpt lat="33.73629" lon="77.67111">
        <ele>4836.2</ele>
        <time>2015-09-06T03:42:39Z</time>
      </trkpt>
      <trkpt lat="33.73625" lon="77.67108">
        <ele>4835</ele>
        <time>2015-09-06T03:42:49Z</time>
      </trkpt>
      <trkpt lat="33.73626" lon="77.67104">
        <ele>4834</ele>
        <time>2015-09-06T03:42:54Z</time>
      </trkpt>
      <trkpt lat="33.73626" lon="77.67102">
        <ele>4832.8</ele>
        <time>2015-09-06T03:42:59Z</time>
      </trkpt>
      <trkpt lat="33.73624" lon="77.67098">
        <ele>4831.8</ele>
        <time>2015-09-06T03:43:03Z</time>
      </trkpt>
      <trkpt lat="33.73622" lon="77.67098">
        <ele>4830.8</ele>
        <time>2015-09-06T03:43:06Z</time>
      </trkpt>
      <trkpt lat="33.7362" lon="77.67099">
        <ele>4830.6</ele>
        <time>2015-09-06T03:43:07Z</time>
      </trkpt>
      <trkpt lat="33.73614" lon="77.67097">
        <ele>4829.6</ele>
        <time>2015-09-06T03:43:14Z</time>
      </trkpt>
      <trkpt lat="33.73613" lon="77.67096">
        <ele>4829.4</ele>
        <time>2015-09-06T03:43:16Z</time>
      </trkpt>
      <trkpt lat="33.73611" lon="77.67092">
        <ele>4828.6</ele>
        <time>2015-09-06T03:43:21Z</time>
      </trkpt>
      <trkpt lat="33.73608" lon="77.67088">
        <ele>4827.6</ele>
        <time>2015-09-06T03:43:26Z</time>
      </trkpt>
      <trkpt lat="33.73607" lon="77.67087">
        <ele>4827.4</ele>
        <time>2015-09-06T03:43:28Z</time>
      </trkpt>
      <trkpt lat="33.73603" lon="77.67082">
        <ele>4826.8</ele>
        <time>2015-09-06T03:43:34Z</time>
      </trkpt>
      <trkpt lat="33.73602" lon="77.6708">
        <ele>4826.8</ele>
        <time>2015-09-06T03:43:36Z</time>
      </trkpt>
      <trkpt lat="33.73601" lon="77.67079">
        <ele>4826.8</ele>
        <time>2015-09-06T03:43:38Z</time>
      </trkpt>
      <trkpt lat="33.73596" lon="77.67076">
        <ele>4826.4</ele>
        <time>2015-09-06T03:43:43Z</time>
      </trkpt>
      <trkpt lat="33.73592" lon="77.67076">
        <ele>4825.4</ele>
        <time>2015-09-06T03:43:49Z</time>
      </trkpt>
      <trkpt lat="33.73587" lon="77.67076">
        <ele>4824.2</ele>
        <time>2015-09-06T03:43:55Z</time>
      </trkpt>
      <trkpt lat="33.73585" lon="77.67076">
        <ele>4823.2</ele>
        <time>2015-09-06T03:43:59Z</time>
      </trkpt>
      <trkpt lat="33.73582" lon="77.67072">
        <ele>4822</ele>
        <time>2015-09-06T03:44:13Z</time>
      </trkpt>
      <trkpt lat="33.73577" lon="77.67071">
        <ele>4820.8</ele>
        <time>2015-09-06T03:44:19Z</time>
      </trkpt>
      <trkpt lat="33.73575" lon="77.67069">
        <ele>4819.8</ele>
        <time>2015-09-06T03:44:23Z</time>
      </trkpt>
      <trkpt lat="33.73573" lon="77.67068">
        <ele>4818.8</ele>
        <time>2015-09-06T03:44:27Z</time>
      </trkpt>
      <trkpt lat="33.73569" lon="77.67065">
        <ele>4818.2</ele>
        <time>2015-09-06T03:44:31Z</time>
      </trkpt>
      <trkpt lat="33.73569" lon="77.67062">
        <ele>4818</ele>
        <time>2015-09-06T03:44:34Z</time>
      </trkpt>
      <trkpt lat="33.73567" lon="77.67061">
        <ele>4817.8</ele>
        <time>2015-09-06T03:44:36Z</time>
      </trkpt>
      <trkpt lat="33.73564" lon="77.67058">
        <ele>4817.2</ele>
        <time>2015-09-06T03:44:40Z</time>
      </trkpt>
      <trkpt lat="33.73557" lon="77.67055">
        <ele>4816.8</ele>
        <time>2015-09-06T03:44:48Z</time>
      </trkpt>
      <trkpt lat="33.73557" lon="77.67055">
        <ele>4816.4</ele>
        <time>2015-09-06T03:44:49Z</time>
      </trkpt>
      <trkpt lat="33.73551" lon="77.67056">
        <ele>4815.6</ele>
        <time>2015-09-06T03:44:56Z</time>
      </trkpt>
      <trkpt lat="33.73546" lon="77.67049">
        <ele>4814.6</ele>
        <time>2015-09-06T03:45:05Z</time>
      </trkpt>
      <trkpt lat="33.73545" lon="77.67048">
        <ele>4814.6</ele>
        <time>2015-09-06T03:45:06Z</time>
      </trkpt>
      <trkpt lat="33.73544" lon="77.67046">
        <ele>4814.4</ele>
        <time>2015-09-06T03:45:08Z</time>
      </trkpt>
      <trkpt lat="33.73537" lon="77.67047">
        <ele>4813.4</ele>
        <time>2015-09-06T03:45:15Z</time>
      </trkpt>
      <trkpt lat="33.73533" lon="77.67045">
        <ele>4812.4</ele>
        <time>2015-09-06T03:45:20Z</time>
      </trkpt>
      <trkpt lat="33.73531" lon="77.67046">
        <ele>4812.2</ele>
        <time>2015-09-06T03:45:21Z</time>
      </trkpt>
      <trkpt lat="33.73527" lon="77.67044">
        <ele>4811.2</ele>
        <time>2015-09-06T03:45:26Z</time>
      </trkpt>
      <trkpt lat="33.73523" lon="77.67043">
        <ele>4810.6</ele>
        <time>2015-09-06T03:45:30Z</time>
      </trkpt>
      <trkpt lat="33.73519" lon="77.67046">
        <ele>4810.2</ele>
        <time>2015-09-06T03:45:37Z</time>
      </trkpt>
      <trkpt lat="33.73517" lon="77.67046">
        <ele>4810</ele>
        <time>2015-09-06T03:45:39Z</time>
      </trkpt>
      <trkpt lat="33.73514" lon="77.67043">
        <ele>4809</ele>
        <time>2015-09-06T03:45:44Z</time>
      </trkpt>
      <trkpt lat="33.73513" lon="77.67043">
        <ele>4808.6</ele>
        <time>2015-09-06T03:45:45Z</time>
      </trkpt>
      <trkpt lat="33.73511" lon="77.67042">
        <ele>4808.2</ele>
        <time>2015-09-06T03:45:48Z</time>
      </trkpt>
      <trkpt lat="33.7351" lon="77.67041">
        <ele>4808</ele>
        <time>2015-09-06T03:45:50Z</time>
      </trkpt>
      <trkpt lat="33.73509" lon="77.6704">
        <ele>4807.6</ele>
        <time>2015-09-06T03:45:52Z</time>
      </trkpt>
      <trkpt lat="33.73503" lon="77.67036">
        <ele>4807</ele>
        <time>2015-09-06T03:46:04Z</time>
      </trkpt>
      <trkpt lat="33.73502" lon="77.67033">
        <ele>4806</ele>
        <time>2015-09-06T03:46:32Z</time>
      </trkpt>
      <trkpt lat="33.73491" lon="77.67022">
        <ele>4804.6</ele>
        <time>2015-09-06T03:46:48Z</time>
      </trkpt>
      <trkpt lat="33.73487" lon="77.67017">
        <ele>4803.6</ele>
        <time>2015-09-06T03:46:57Z</time>
      </trkpt>
      <trkpt lat="33.73484" lon="77.67012">
        <ele>4802.6</ele>
        <time>2015-09-06T03:47:04Z</time>
      </trkpt>
      <trkpt lat="33.73483" lon="77.67011">
        <ele>4802.2</ele>
        <time>2015-09-06T03:47:05Z</time>
      </trkpt>
      <trkpt lat="33.73482" lon="77.6701">
        <ele>4801.8</ele>
        <time>2015-09-06T03:47:07Z</time>
      </trkpt>
      <trkpt lat="33.7348" lon="77.67009">
        <ele>4801.4</ele>
        <time>2015-09-06T03:47:09Z</time>
      </trkpt>
      <trkpt lat="33.73477" lon="77.67004">
        <ele>4800.4</ele>
        <time>2015-09-06T03:47:16Z</time>
      </trkpt>
      <trkpt lat="33.73473" lon="77.67001">
        <ele>4799.2</ele>
        <time>2015-09-06T03:47:24Z</time>
      </trkpt>
      <trkpt lat="33.73469" lon="77.66998">
        <ele>4798</ele>
        <time>2015-09-06T03:47:29Z</time>
      </trkpt>
      <trkpt lat="33.73466" lon="77.66996">
        <ele>4796.8</ele>
        <time>2015-09-06T03:47:35Z</time>
      </trkpt>
      <trkpt lat="33.73461" lon="77.66997">
        <ele>4795.4</ele>
        <time>2015-09-06T03:47:40Z</time>
      </trkpt>
      <trkpt lat="33.73456" lon="77.66998">
        <ele>4794.2</ele>
        <time>2015-09-06T03:47:43Z</time>
      </trkpt>
      <trkpt lat="33.73451" lon="77.67">
        <ele>4793</ele>
        <time>2015-09-06T03:47:47Z</time>
      </trkpt>
      <trkpt lat="33.73436" lon="77.66997">
        <ele>4793</ele>
        <time>2015-09-06T03:48:14Z</time>
      </trkpt>
      <trkpt lat="33.73431" lon="77.66998">
        <ele>4793.4</ele>
        <time>2015-09-06T03:48:20Z</time>
      </trkpt>
      <trkpt lat="33.73427" lon="77.66996">
        <ele>4793.6</ele>
        <time>2015-09-06T03:48:25Z</time>
      </trkpt>
      <trkpt lat="33.73427" lon="77.66995">
        <ele>4794</ele>
        <time>2015-09-06T03:48:28Z</time>
      </trkpt>
      <trkpt lat="33.73426" lon="77.6699">
        <ele>4795.2</ele>
        <time>2015-09-06T03:48:40Z</time>
      </trkpt>
      <trkpt lat="33.73428" lon="77.66989">
        <ele>4795.2</ele>
        <time>2015-09-06T03:49:57Z</time>
      </trkpt>
      <trkpt lat="33.73426" lon="77.66992">
        <ele>4795</ele>
        <time>2015-09-06T03:49:59Z</time>
      </trkpt>
      <trkpt lat="33.73423" lon="77.66991">
        <ele>4794.4</ele>
        <time>2015-09-06T03:50:02Z</time>
      </trkpt>
      <trkpt lat="33.73422" lon="77.66991">
        <ele>4794</ele>
        <time>2015-09-06T03:50:04Z</time>
      </trkpt>
      <trkpt lat="33.73414" lon="77.66989">
        <ele>4792.8</ele>
        <time>2015-09-06T03:50:15Z</time>
      </trkpt>
      <trkpt lat="33.7341" lon="77.66989">
        <ele>4791.8</ele>
        <time>2015-09-06T03:50:23Z</time>
      </trkpt>
      <trkpt lat="33.73398" lon="77.66987">
        <ele>4790.8</ele>
        <time>2015-09-06T03:50:40Z</time>
      </trkpt>
      <trkpt lat="33.73395" lon="77.66987">
        <ele>4790</ele>
        <time>2015-09-06T03:50:47Z</time>
      </trkpt>
      <trkpt lat="33.73392" lon="77.66992">
        <ele>4789.8</ele>
        <time>2015-09-06T03:51:07Z</time>
      </trkpt>
      <trkpt lat="33.73391" lon="77.66991">
        <ele>4789.4</ele>
        <time>2015-09-06T03:51:09Z</time>
      </trkpt>
      <trkpt lat="33.7339" lon="77.66991">
        <ele>4788.6</ele>
        <time>2015-09-06T03:51:31Z</time>
      </trkpt>
      <trkpt lat="33.73387" lon="77.66988">
        <ele>4788.2</ele>
        <time>2015-09-06T03:52:00Z</time>
      </trkpt>
      <trkpt lat="33.73386" lon="77.66987">
        <ele>4787.6</ele>
        <time>2015-09-06T03:52:04Z</time>
      </trkpt>
      <trkpt lat="33.73381" lon="77.66984">
        <ele>4786.6</ele>
        <time>2015-09-06T03:52:12Z</time>
      </trkpt>
      <trkpt lat="33.73379" lon="77.66983">
        <ele>4786.4</ele>
        <time>2015-09-06T03:52:13Z</time>
      </trkpt>
      <trkpt lat="33.73378" lon="77.66982">
        <ele>4786</ele>
        <time>2015-09-06T03:52:15Z</time>
      </trkpt>
      <trkpt lat="33.73376" lon="77.6698">
        <ele>4785.4</ele>
        <time>2015-09-06T03:52:19Z</time>
      </trkpt>
      <trkpt lat="33.73371" lon="77.66982">
        <ele>4784.4</ele>
        <time>2015-09-06T03:52:24Z</time>
      </trkpt>
      <trkpt lat="33.7337" lon="77.66982">
        <ele>4784.2</ele>
        <time>2015-09-06T03:52:25Z</time>
      </trkpt>
      <trkpt lat="33.73367" lon="77.66989">
        <ele>4783.4</ele>
        <time>2015-09-06T03:52:31Z</time>
      </trkpt>
      <trkpt lat="33.73367" lon="77.6699">
        <ele>4783.2</ele>
        <time>2015-09-06T03:52:32Z</time>
      </trkpt>
      <trkpt lat="33.73364" lon="77.66992">
        <ele>4782.6</ele>
        <time>2015-09-06T03:52:36Z</time>
      </trkpt>
      <trkpt lat="33.73363" lon="77.66994">
        <ele>4782.4</ele>
        <time>2015-09-06T03:52:38Z</time>
      </trkpt>
      <trkpt lat="33.73362" lon="77.66992">
        <ele>4782</ele>
        <time>2015-09-06T03:52:40Z</time>
      </trkpt>
      <trkpt lat="33.73361" lon="77.66992">
        <ele>4782</ele>
        <time>2015-09-06T03:52:41Z</time>
      </trkpt>
      <trkpt lat="33.73357" lon="77.66995">
        <ele>4781.6</ele>
        <time>2015-09-06T03:52:54Z</time>
      </trkpt>
      <trkpt lat="33.73353" lon="77.66998">
        <ele>4781</ele>
        <time>2015-09-06T03:52:59Z</time>
      </trkpt>
      <trkpt lat="33.73349" lon="77.67004">
        <ele>4780</ele>
        <time>2015-09-06T03:53:25Z</time>
      </trkpt>
      <trkpt lat="33.73346" lon="77.67005">
        <ele>4779</ele>
        <time>2015-09-06T03:53:40Z</time>
      </trkpt>
      <trkpt lat="33.73342" lon="77.67005">
        <ele>4778.4</ele>
        <time>2015-09-06T03:53:46Z</time>
      </trkpt>
      <trkpt lat="33.73333" lon="77.6702">
        <ele>4777.8</ele>
        <time>2015-09-06T03:54:10Z</time>
      </trkpt>
      <trkpt lat="33.73329" lon="77.67022">
        <ele>4776.6</ele>
        <time>2015-09-06T03:54:18Z</time>
      </trkpt>
      <trkpt lat="33.73323" lon="77.67022">
        <ele>4775.4</ele>
        <time>2015-09-06T03:54:26Z</time>
      </trkpt>
      <trkpt lat="33.7332" lon="77.67023">
        <ele>4774.8</ele>
        <time>2015-09-06T03:54:29Z</time>
      </trkpt>
      <trkpt lat="33.73319" lon="77.67022">
        <ele>4774.6</ele>
        <time>2015-09-06T03:54:31Z</time>
      </trkpt>
      <trkpt lat="33.73318" lon="77.67021">
        <ele>4774.8</ele>
        <time>2015-09-06T03:54:34Z</time>
      </trkpt>
      <trkpt lat="33.73316" lon="77.6702">
        <ele>4775</ele>
        <time>2015-09-06T03:54:37Z</time>
      </trkpt>
      <trkpt lat="33.73312" lon="77.67022">
        <ele>4775</ele>
        <time>2015-09-06T03:54:44Z</time>
      </trkpt>
      <trkpt lat="33.73312" lon="77.67021">
        <ele>4774.8</ele>
        <time>2015-09-06T03:54:46Z</time>
      </trkpt>
      <trkpt lat="33.7331" lon="77.6702">
        <ele>4774.8</ele>
        <time>2015-09-06T03:54:48Z</time>
      </trkpt>
      <trkpt lat="33.73309" lon="77.67021">
        <ele>4774.8</ele>
        <time>2015-09-06T03:54:50Z</time>
      </trkpt>
      <trkpt lat="33.73297" lon="77.67035">
        <ele>4775.8</ele>
        <time>2015-09-06T03:55:18Z</time>
      </trkpt>
      <trkpt lat="33.73282" lon="77.67039">
        <ele>4776</ele>
        <time>2015-09-06T03:55:48Z</time>
      </trkpt>
      <trkpt lat="33.73274" lon="77.67058">
        <ele>4775.2</ele>
        <time>2015-09-06T03:56:13Z</time>
      </trkpt>
      <trkpt lat="33.73264" lon="77.67071">
        <ele>4776.4</ele>
        <time>2015-09-06T03:56:47Z</time>
      </trkpt>
      <trkpt lat="33.73266" lon="77.67083">
        <ele>4777.4</ele>
        <time>2015-09-06T03:57:18Z</time>
      </trkpt>
      <trkpt lat="33.73265" lon="77.67083">
        <ele>4778.4</ele>
        <time>2015-09-06T03:57:24Z</time>
      </trkpt>
      <trkpt lat="33.73266" lon="77.67083">
        <ele>4778.4</ele>
        <time>2015-09-06T03:58:01Z</time>
      </trkpt>
      <trkpt lat="33.73263" lon="77.67089">
        <ele>4779</ele>
        <time>2015-09-06T03:58:09Z</time>
      </trkpt>
      <trkpt lat="33.73261" lon="77.67092">
        <ele>4779.4</ele>
        <time>2015-09-06T03:58:19Z</time>
      </trkpt>
      <trkpt lat="33.73256" lon="77.67097">
        <ele>4780.6</ele>
        <time>2015-09-06T03:59:08Z</time>
      </trkpt>
      <trkpt lat="33.73253" lon="77.67101">
        <ele>4781.6</ele>
        <time>2015-09-06T03:59:16Z</time>
      </trkpt>
      <trkpt lat="33.73253" lon="77.67102">
        <ele>4781.8</ele>
        <time>2015-09-06T03:59:17Z</time>
      </trkpt>
      <trkpt lat="33.73253" lon="77.67108">
        <ele>4782.8</ele>
        <time>2015-09-06T03:59:34Z</time>
      </trkpt>
      <trkpt lat="33.73251" lon="77.67114">
        <ele>4783.8</ele>
        <time>2015-09-06T03:59:41Z</time>
      </trkpt>
      <trkpt lat="33.7325" lon="77.6712">
        <ele>4784.8</ele>
        <time>2015-09-06T03:59:53Z</time>
      </trkpt>
      <trkpt lat="33.73246" lon="77.67119">
        <ele>4785.8</ele>
        <time>2015-09-06T04:00:08Z</time>
      </trkpt>
      <trkpt lat="33.73245" lon="77.67124">
        <ele>4786.4</ele>
        <time>2015-09-06T04:00:15Z</time>
      </trkpt>
      <trkpt lat="33.73244" lon="77.67124">
        <ele>4786.8</ele>
        <time>2015-09-06T04:00:19Z</time>
      </trkpt>
      <trkpt lat="33.73239" lon="77.6713">
        <ele>4787.4</ele>
        <time>2015-09-06T04:00:32Z</time>
      </trkpt>
      <trkpt lat="33.73238" lon="77.67137">
        <ele>4787.8</ele>
        <time>2015-09-06T04:00:39Z</time>
      </trkpt>
      <trkpt lat="33.73237" lon="77.67137">
        <ele>4788</ele>
        <time>2015-09-06T04:00:40Z</time>
      </trkpt>
      <trkpt lat="33.73236" lon="77.67155">
        <ele>4788.2</ele>
        <time>2015-09-06T04:01:20Z</time>
      </trkpt>
      <trkpt lat="33.73232" lon="77.67156">
        <ele>4789</ele>
        <time>2015-09-06T04:01:29Z</time>
      </trkpt>
      <trkpt lat="33.73228" lon="77.67162">
        <ele>4790</ele>
        <time>2015-09-06T04:01:41Z</time>
      </trkpt>
      <trkpt lat="33.73223" lon="77.67166">
        <ele>4791.2</ele>
        <time>2015-09-06T04:01:54Z</time>
      </trkpt>
      <trkpt lat="33.73219" lon="77.67171">
        <ele>4792.2</ele>
        <time>2015-09-06T04:02:05Z</time>
      </trkpt>
      <trkpt lat="33.73212" lon="77.67183">
        <ele>4793.2</ele>
        <time>2015-09-06T04:02:24Z</time>
      </trkpt>
      <trkpt lat="33.73203" lon="77.67194">
        <ele>4794</ele>
        <time>2015-09-06T04:02:45Z</time>
      </trkpt>
      <trkpt lat="33.73202" lon="77.67195">
        <ele>4794.2</ele>
        <time>2015-09-06T04:02:47Z</time>
      </trkpt>
      <trkpt lat="33.73201" lon="77.67196">
        <ele>4794.2</ele>
        <time>2015-09-06T04:02:50Z</time>
      </trkpt>
      <trkpt lat="33.73192" lon="77.67197">
        <ele>4795.2</ele>
        <time>2015-09-06T04:03:07Z</time>
      </trkpt>
      <trkpt lat="33.73186" lon="77.67205">
        <ele>4796.2</ele>
        <time>2015-09-06T04:03:21Z</time>
      </trkpt>
      <trkpt lat="33.73179" lon="77.67212">
        <ele>4797.4</ele>
        <time>2015-09-06T04:03:37Z</time>
      </trkpt>
      <trkpt lat="33.73177" lon="77.67216">
        <ele>4797.8</ele>
        <time>2015-09-06T04:03:42Z</time>
      </trkpt>
      <trkpt lat="33.73176" lon="77.67219">
        <ele>4797.8</ele>
        <time>2015-09-06T04:03:45Z</time>
      </trkpt>
      <trkpt lat="33.73175" lon="77.6722">
        <ele>4797.8</ele>
        <time>2015-09-06T04:03:47Z</time>
      </trkpt>
      <trkpt lat="33.73169" lon="77.67224">
        <ele>4798.6</ele>
        <time>2015-09-06T04:03:58Z</time>
      </trkpt>
      <trkpt lat="33.73167" lon="77.67224">
        <ele>4798.8</ele>
        <time>2015-09-06T04:04:07Z</time>
      </trkpt>
      <trkpt lat="33.73168" lon="77.67224">
        <ele>4798.8</ele>
        <time>2015-09-06T04:04:59Z</time>
      </trkpt>
      <trkpt lat="33.73167" lon="77.67227">
        <ele>4799.6</ele>
        <time>2015-09-06T04:05:48Z</time>
      </trkpt>
      <trkpt lat="33.73161" lon="77.67233">
        <ele>4800.6</ele>
        <time>2015-09-06T04:06:01Z</time>
      </trkpt>
      <trkpt lat="33.73156" lon="77.67238">
        <ele>4801.8</ele>
        <time>2015-09-06T04:06:11Z</time>
      </trkpt>
      <trkpt lat="33.73154" lon="77.67251">
        <ele>4802.8</ele>
        <time>2015-09-06T04:06:35Z</time>
      </trkpt>
      <trkpt lat="33.73151" lon="77.67255">
        <ele>4803.8</ele>
        <time>2015-09-06T04:06:50Z</time>
      </trkpt>
      <trkpt lat="33.73145" lon="77.67264">
        <ele>4805</ele>
        <time>2015-09-06T04:07:09Z</time>
      </trkpt>
      <trkpt lat="33.73139" lon="77.67269">
        <ele>4806</ele>
        <time>2015-09-06T04:07:21Z</time>
      </trkpt>
      <trkpt lat="33.73136" lon="77.67278">
        <ele>4806.2</ele>
        <time>2015-09-06T04:07:31Z</time>
      </trkpt>
      <trkpt lat="33.73135" lon="77.67281">
        <ele>4807</ele>
        <time>2015-09-06T04:07:38Z</time>
      </trkpt>
      <trkpt lat="33.73135" lon="77.67285">
        <ele>4807.2</ele>
        <time>2015-09-06T04:07:47Z</time>
      </trkpt>
      <trkpt lat="33.73127" lon="77.67286">
        <ele>4807.4</ele>
        <time>2015-09-06T04:08:04Z</time>
      </trkpt>
      <trkpt lat="33.7312" lon="77.673">
        <ele>4808</ele>
        <time>2015-09-06T04:08:29Z</time>
      </trkpt>
      <trkpt lat="33.73112" lon="77.67314">
        <ele>4808.6</ele>
        <time>2015-09-06T04:08:55Z</time>
      </trkpt>
      <trkpt lat="33.73109" lon="77.67316">
        <ele>4809</ele>
        <time>2015-09-06T04:08:59Z</time>
      </trkpt>
      <trkpt lat="33.73102" lon="77.67322">
        <ele>4809.6</ele>
        <time>2015-09-06T04:09:15Z</time>
      </trkpt>
      <trkpt lat="33.73095" lon="77.6733">
        <ele>4810</ele>
        <time>2015-09-06T04:09:28Z</time>
      </trkpt>
      <trkpt lat="33.73092" lon="77.67339">
        <ele>4811</ele>
        <time>2015-09-06T04:09:43Z</time>
      </trkpt>
      <trkpt lat="33.73084" lon="77.67359">
        <ele>4811.4</ele>
        <time>2015-09-06T04:10:08Z</time>
      </trkpt>
      <trkpt lat="33.73083" lon="77.67359">
        <ele>4811.4</ele>
        <time>2015-09-06T04:10:09Z</time>
      </trkpt>
      <trkpt lat="33.7308" lon="77.67362">
        <ele>4812.2</ele>
        <time>2015-09-06T04:10:16Z</time>
      </trkpt>
      <trkpt lat="33.73077" lon="77.67364">
        <ele>4813.4</ele>
        <time>2015-09-06T04:10:28Z</time>
      </trkpt>
      <trkpt lat="33.73069" lon="77.67368">
        <ele>4814.4</ele>
        <time>2015-09-06T04:10:46Z</time>
      </trkpt>
      <trkpt lat="33.73064" lon="77.67369">
        <ele>4815.4</ele>
        <time>2015-09-06T04:10:56Z</time>
      </trkpt>
      <trkpt lat="33.73058" lon="77.67377">
        <ele>4816.4</ele>
        <time>2015-09-06T04:11:17Z</time>
      </trkpt>
      <trkpt lat="33.7306" lon="77.67375">
        <ele>4816.4</ele>
        <time>2015-09-06T04:11:28Z</time>
      </trkpt>
      <trkpt lat="33.73052" lon="77.67379">
        <ele>4816.6</ele>
        <time>2015-09-06T04:11:39Z</time>
      </trkpt>
      <trkpt lat="33.73042" lon="77.67391">
        <ele>4817.4</ele>
        <time>2015-09-06T04:12:00Z</time>
      </trkpt>
      <trkpt lat="33.73036" lon="77.67399">
        <ele>4818.6</ele>
        <time>2015-09-06T04:12:14Z</time>
      </trkpt>
      <trkpt lat="33.73032" lon="77.67401">
        <ele>4819.8</ele>
        <time>2015-09-06T04:12:27Z</time>
      </trkpt>
      <trkpt lat="33.73029" lon="77.67407">
        <ele>4820.8</ele>
        <time>2015-09-06T04:12:39Z</time>
      </trkpt>
      <trkpt lat="33.73026" lon="77.67413">
        <ele>4821.8</ele>
        <time>2015-09-06T04:12:54Z</time>
      </trkpt>
      <trkpt lat="33.73024" lon="77.67421">
        <ele>4822.8</ele>
        <time>2015-09-06T04:13:12Z</time>
      </trkpt>
      <trkpt lat="33.73024" lon="77.67428">
        <ele>4822.8</ele>
        <time>2015-09-06T04:13:18Z</time>
      </trkpt>
      <trkpt lat="33.73024" lon="77.6743">
        <ele>4822.8</ele>
        <time>2015-09-06T04:13:20Z</time>
      </trkpt>
      <trkpt lat="33.73021" lon="77.67434">
        <ele>4823.8</ele>
        <time>2015-09-06T04:13:27Z</time>
      </trkpt>
      <trkpt lat="33.73019" lon="77.67436">
        <ele>4824.8</ele>
        <time>2015-09-06T04:13:44Z</time>
      </trkpt>
      <trkpt lat="33.73015" lon="77.67444">
        <ele>4826</ele>
        <time>2015-09-06T04:13:58Z</time>
      </trkpt>
      <trkpt lat="33.73011" lon="77.67445">
        <ele>4827</ele>
        <time>2015-09-06T04:14:08Z</time>
      </trkpt>
      <trkpt lat="33.73008" lon="77.67444">
        <ele>4828</ele>
        <time>2015-09-06T04:14:22Z</time>
      </trkpt>
      <trkpt lat="33.73006" lon="77.67448">
        <ele>4828.8</ele>
        <time>2015-09-06T04:14:28Z</time>
      </trkpt>
      <trkpt lat="33.73004" lon="77.67454">
        <ele>4829.2</ele>
        <time>2015-09-06T04:14:35Z</time>
      </trkpt>
      <trkpt lat="33.73002" lon="77.67457">
        <ele>4829.6</ele>
        <time>2015-09-06T04:14:39Z</time>
      </trkpt>
      <trkpt lat="33.72999" lon="77.67462">
        <ele>4830.4</ele>
        <time>2015-09-06T04:14:47Z</time>
      </trkpt>
      <trkpt lat="33.72997" lon="77.67465">
        <ele>4831.4</ele>
        <time>2015-09-06T04:14:57Z</time>
      </trkpt>
      <trkpt lat="33.72994" lon="77.67461">
        <ele>4832.4</ele>
        <time>2015-09-06T04:15:06Z</time>
      </trkpt>
      <trkpt lat="33.7299" lon="77.67458">
        <ele>4833.4</ele>
        <time>2015-09-06T04:15:14Z</time>
      </trkpt>
      <trkpt lat="33.72987" lon="77.6746">
        <ele>4834.6</ele>
        <time>2015-09-06T04:15:23Z</time>
      </trkpt>
      <trkpt lat="33.72984" lon="77.6746">
        <ele>4835.6</ele>
        <time>2015-09-06T04:15:30Z</time>
      </trkpt>
      <trkpt lat="33.72979" lon="77.67464">
        <ele>4836.8</ele>
        <time>2015-09-06T04:15:41Z</time>
      </trkpt>
      <trkpt lat="33.72975" lon="77.67466">
        <ele>4837.8</ele>
        <time>2015-09-06T04:15:52Z</time>
      </trkpt>
      <trkpt lat="33.72973" lon="77.67471">
        <ele>4838.8</ele>
        <time>2015-09-06T04:16:01Z</time>
      </trkpt>
      <trkpt lat="33.72973" lon="77.67473">
        <ele>4838.8</ele>
        <time>2015-09-06T04:16:02Z</time>
      </trkpt>
      <trkpt lat="33.72972" lon="77.67476">
        <ele>4838.8</ele>
        <time>2015-09-06T04:16:07Z</time>
      </trkpt>
      <trkpt lat="33.72969" lon="77.67485">
        <ele>4839.6</ele>
        <time>2015-09-06T04:16:20Z</time>
      </trkpt>
      <trkpt lat="33.72969" lon="77.67486">
        <ele>4839.8</ele>
        <time>2015-09-06T04:16:22Z</time>
      </trkpt>
      <trkpt lat="33.72966" lon="77.67486">
        <ele>4841</ele>
        <time>2015-09-06T04:16:30Z</time>
      </trkpt>
      <trkpt lat="33.72963" lon="77.67486">
        <ele>4842</ele>
        <time>2015-09-06T04:16:41Z</time>
      </trkpt>
      <trkpt lat="33.7296" lon="77.67485">
        <ele>4843</ele>
        <time>2015-09-06T04:16:48Z</time>
      </trkpt>
      <trkpt lat="33.72958" lon="77.67483">
        <ele>4844.2</ele>
        <time>2015-09-06T04:16:58Z</time>
      </trkpt>
      <trkpt lat="33.72955" lon="77.6748">
        <ele>4845.2</ele>
        <time>2015-09-06T04:17:09Z</time>
      </trkpt>
      <trkpt lat="33.72952" lon="77.67479">
        <ele>4846.2</ele>
        <time>2015-09-06T04:17:16Z</time>
      </trkpt>
      <trkpt lat="33.72946" lon="77.67479">
        <ele>4847.2</ele>
        <time>2015-09-06T04:17:25Z</time>
      </trkpt>
      <trkpt lat="33.72942" lon="77.67478">
        <ele>4848.2</ele>
        <time>2015-09-06T04:17:34Z</time>
      </trkpt>
      <trkpt lat="33.72941" lon="77.67482">
        <ele>4849.2</ele>
        <time>2015-09-06T04:17:43Z</time>
      </trkpt>
      <trkpt lat="33.72934" lon="77.6749">
        <ele>4850.4</ele>
        <time>2015-09-06T04:18:03Z</time>
      </trkpt>
      <trkpt lat="33.7293" lon="77.67492">
        <ele>4851.4</ele>
        <time>2015-09-06T04:18:12Z</time>
      </trkpt>
      <trkpt lat="33.72926" lon="77.67499">
        <ele>4852.6</ele>
        <time>2015-09-06T04:18:26Z</time>
      </trkpt>
      <trkpt lat="33.72923" lon="77.67507">
        <ele>4853.6</ele>
        <time>2015-09-06T04:18:40Z</time>
      </trkpt>
      <trkpt lat="33.7292" lon="77.67515">
        <ele>4854.8</ele>
        <time>2015-09-06T04:18:52Z</time>
      </trkpt>
      <trkpt lat="33.72915" lon="77.67516">
        <ele>4855.8</ele>
        <time>2015-09-06T04:19:03Z</time>
      </trkpt>
      <trkpt lat="33.7291" lon="77.67523">
        <ele>4857</ele>
        <time>2015-09-06T04:19:18Z</time>
      </trkpt>
      <trkpt lat="33.72908" lon="77.67524">
        <ele>4857.4</ele>
        <time>2015-09-06T04:19:23Z</time>
      </trkpt>
      <trkpt lat="33.72908" lon="77.67526">
        <ele>4858</ele>
        <time>2015-09-06T04:19:32Z</time>
      </trkpt>
      <trkpt lat="33.72908" lon="77.67527">
        <ele>4858</ele>
        <time>2015-09-06T04:19:38Z</time>
      </trkpt>
      <trkpt lat="33.72899" lon="77.67542">
        <ele>4858.8</ele>
        <time>2015-09-06T04:20:00Z</time>
      </trkpt>
      <trkpt lat="33.72897" lon="77.67543">
        <ele>4858.6</ele>
        <time>2015-09-06T04:20:04Z</time>
      </trkpt>
      <trkpt lat="33.72896" lon="77.67545">
        <ele>4859.2</ele>
        <time>2015-09-06T04:20:08Z</time>
      </trkpt>
      <trkpt lat="33.72893" lon="77.67551">
        <ele>4860.2</ele>
        <time>2015-09-06T04:20:19Z</time>
      </trkpt>
      <trkpt lat="33.72891" lon="77.67555">
        <ele>4861.2</ele>
        <time>2015-09-06T04:20:27Z</time>
      </trkpt>
      <trkpt lat="33.7289" lon="77.67555">
        <ele>4861.2</ele>
        <time>2015-09-06T04:20:28Z</time>
      </trkpt>
      <trkpt lat="33.72887" lon="77.67559">
        <ele>4862.2</ele>
        <time>2015-09-06T04:20:39Z</time>
      </trkpt>
      <trkpt lat="33.72882" lon="77.67563">
        <ele>4863.4</ele>
        <time>2015-09-06T04:21:00Z</time>
      </trkpt>
      <trkpt lat="33.72878" lon="77.67569">
        <ele>4864.4</ele>
        <time>2015-09-06T04:21:10Z</time>
      </trkpt>
      <trkpt lat="33.72872" lon="77.67581">
        <ele>4865.4</ele>
        <time>2015-09-06T04:21:26Z</time>
      </trkpt>
      <trkpt lat="33.72868" lon="77.67585">
        <ele>4866.4</ele>
        <time>2015-09-06T04:21:40Z</time>
      </trkpt>
      <trkpt lat="33.72869" lon="77.67581">
        <ele>4867.4</ele>
        <time>2015-09-06T04:21:52Z</time>
      </trkpt>
      <trkpt lat="33.72866" lon="77.67591">
        <ele>4868.4</ele>
        <time>2015-09-06T04:22:03Z</time>
      </trkpt>
      <trkpt lat="33.72861" lon="77.67596">
        <ele>4869.4</ele>
        <time>2015-09-06T04:22:13Z</time>
      </trkpt>
      <trkpt lat="33.72854" lon="77.67606">
        <ele>4870.6</ele>
        <time>2015-09-06T04:22:33Z</time>
      </trkpt>
      <trkpt lat="33.72852" lon="77.67611">
        <ele>4871.6</ele>
        <time>2015-09-06T04:22:44Z</time>
      </trkpt>
      <trkpt lat="33.72848" lon="77.67612">
        <ele>4872.8</ele>
        <time>2015-09-06T04:22:51Z</time>
      </trkpt>
      <trkpt lat="33.72845" lon="77.67611">
        <ele>4873.8</ele>
        <time>2015-09-06T04:23:04Z</time>
      </trkpt>
      <trkpt lat="33.72844" lon="77.67609">
        <ele>4874.8</ele>
        <time>2015-09-06T04:23:10Z</time>
      </trkpt>
      <trkpt lat="33.72841" lon="77.67601">
        <ele>4875.8</ele>
        <time>2015-09-06T04:23:28Z</time>
      </trkpt>
      <trkpt lat="33.72838" lon="77.67599">
        <ele>4876.8</ele>
        <time>2015-09-06T04:23:40Z</time>
      </trkpt>
      <trkpt lat="33.72833" lon="77.67596">
        <ele>4877.8</ele>
        <time>2015-09-06T04:23:56Z</time>
      </trkpt>
      <trkpt lat="33.72832" lon="77.67594">
        <ele>4879</ele>
        <time>2015-09-06T04:24:05Z</time>
      </trkpt>
      <trkpt lat="33.72831" lon="77.67594">
        <ele>4880</ele>
        <time>2015-09-06T04:24:10Z</time>
      </trkpt>
      <trkpt lat="33.72818" lon="77.67607">
        <ele>4880.8</ele>
        <time>2015-09-06T04:24:37Z</time>
      </trkpt>
      <trkpt lat="33.72819" lon="77.67612">
        <ele>4881</ele>
        <time>2015-09-06T04:24:45Z</time>
      </trkpt>
      <trkpt lat="33.72822" lon="77.67621">
        <ele>4881.2</ele>
        <time>2015-09-06T04:24:53Z</time>
      </trkpt>
      <trkpt lat="33.72822" lon="77.67624">
        <ele>4881.2</ele>
        <time>2015-09-06T04:24:56Z</time>
      </trkpt>
      <trkpt lat="33.72822" lon="77.67626">
        <ele>4881.2</ele>
        <time>2015-09-06T04:25:00Z</time>
      </trkpt>
      <trkpt lat="33.7282" lon="77.67627">
        <ele>4882</ele>
        <time>2015-09-06T04:25:11Z</time>
      </trkpt>
      <trkpt lat="33.72814" lon="77.67629">
        <ele>4883.2</ele>
        <time>2015-09-06T04:25:29Z</time>
      </trkpt>
      <trkpt lat="33.72818" lon="77.67638">
        <ele>4884.2</ele>
        <time>2015-09-06T04:25:42Z</time>
      </trkpt>
      <trkpt lat="33.72819" lon="77.67643">
        <ele>4885.2</ele>
        <time>2015-09-06T04:25:50Z</time>
      </trkpt>
      <trkpt lat="33.72818" lon="77.67648">
        <ele>4886.4</ele>
        <time>2015-09-06T04:26:00Z</time>
      </trkpt>
      <trkpt lat="33.72816" lon="77.67653">
        <ele>4887.4</ele>
        <time>2015-09-06T04:26:09Z</time>
      </trkpt>
      <trkpt lat="33.72818" lon="77.6766">
        <ele>4887.8</ele>
        <time>2015-09-06T04:26:14Z</time>
      </trkpt>
      <trkpt lat="33.72817" lon="77.67665">
        <ele>4888.6</ele>
        <time>2015-09-06T04:26:22Z</time>
      </trkpt>
      <trkpt lat="33.72814" lon="77.67667">
        <ele>4889.6</ele>
        <time>2015-09-06T04:26:30Z</time>
      </trkpt>
      <trkpt lat="33.7281" lon="77.67682">
        <ele>4890.8</ele>
        <time>2015-09-06T04:26:58Z</time>
      </trkpt>
      <trkpt lat="33.72801" lon="77.67686">
        <ele>4891.8</ele>
        <time>2015-09-06T04:27:11Z</time>
      </trkpt>
      <trkpt lat="33.72802" lon="77.67693">
        <ele>4892.8</ele>
        <time>2015-09-06T04:27:24Z</time>
      </trkpt>
      <trkpt lat="33.72801" lon="77.67699">
        <ele>4894</ele>
        <time>2015-09-06T04:27:36Z</time>
      </trkpt>
      <trkpt lat="33.72804" lon="77.67701">
        <ele>4895</ele>
        <time>2015-09-06T04:27:44Z</time>
      </trkpt>
      <trkpt lat="33.72807" lon="77.67702">
        <ele>4896</ele>
        <time>2015-09-06T04:27:53Z</time>
      </trkpt>
      <trkpt lat="33.72808" lon="77.67708">
        <ele>4897</ele>
        <time>2015-09-06T04:28:03Z</time>
      </trkpt>
      <trkpt lat="33.72809" lon="77.67715">
        <ele>4898.2</ele>
        <time>2015-09-06T04:28:13Z</time>
      </trkpt>
      <trkpt lat="33.7281" lon="77.67716">
        <ele>4899.8</ele>
        <time>2015-09-06T04:28:15Z</time>
      </trkpt>
      <trkpt lat="33.72812" lon="77.67721">
        <ele>4898.6</ele>
        <time>2015-09-06T04:28:25Z</time>
      </trkpt>
      <trkpt lat="33.72811" lon="77.67722">
        <ele>4898.2</ele>
        <time>2015-09-06T04:28:28Z</time>
      </trkpt>
      <trkpt lat="33.72811" lon="77.67728">
        <ele>4899.8</ele>
        <time>2015-09-06T04:28:46Z</time>
      </trkpt>
      <trkpt lat="33.72813" lon="77.67733">
        <ele>4900.8</ele>
        <time>2015-09-06T04:28:53Z</time>
      </trkpt>
      <trkpt lat="33.7281" lon="77.67738">
        <ele>4901</ele>
        <time>2015-09-06T04:29:03Z</time>
      </trkpt>
      <trkpt lat="33.72807" lon="77.67743">
        <ele>4902</ele>
        <time>2015-09-06T04:29:20Z</time>
      </trkpt>
      <trkpt lat="33.72811" lon="77.67748">
        <ele>4902.4</ele>
        <time>2015-09-06T04:29:26Z</time>
      </trkpt>
      <trkpt lat="33.72814" lon="77.67756">
        <ele>4903</ele>
        <time>2015-09-06T04:29:38Z</time>
      </trkpt>
      <trkpt lat="33.72814" lon="77.67758">
        <ele>4903.2</ele>
        <time>2015-09-06T04:29:40Z</time>
      </trkpt>
      <trkpt lat="33.72814" lon="77.67765">
        <ele>4904</ele>
        <time>2015-09-06T04:29:53Z</time>
      </trkpt>
      <trkpt lat="33.72814" lon="77.67774">
        <ele>4905</ele>
        <time>2015-09-06T04:30:05Z</time>
      </trkpt>
      <trkpt lat="33.72814" lon="77.67774">
        <ele>4905.2</ele>
        <time>2015-09-06T04:30:06Z</time>
      </trkpt>
      <trkpt lat="33.72808" lon="77.67779">
        <ele>4906.2</ele>
        <time>2015-09-06T04:30:17Z</time>
      </trkpt>
      <trkpt lat="33.72809" lon="77.67788">
        <ele>4907.2</ele>
        <time>2015-09-06T04:30:33Z</time>
      </trkpt>
      <trkpt lat="33.72813" lon="77.67797">
        <ele>4907.6</ele>
        <time>2015-09-06T04:30:45Z</time>
      </trkpt>
      <trkpt lat="33.72813" lon="77.67798">
        <ele>4908.4</ele>
        <time>2015-09-06T04:30:51Z</time>
      </trkpt>
      <trkpt lat="33.72813" lon="77.67802">
        <ele>4909.4</ele>
        <time>2015-09-06T04:30:57Z</time>
      </trkpt>
      <trkpt lat="33.72813" lon="77.67808">
        <ele>4910.6</ele>
        <time>2015-09-06T04:31:09Z</time>
      </trkpt>
      <trkpt lat="33.72816" lon="77.67811">
        <ele>4911.8</ele>
        <time>2015-09-06T04:31:16Z</time>
      </trkpt>
      <trkpt lat="33.72811" lon="77.67815">
        <ele>4912.8</ele>
        <time>2015-09-06T04:31:28Z</time>
      </trkpt>
      <trkpt lat="33.72812" lon="77.67818">
        <ele>4913.8</ele>
        <time>2015-09-06T04:31:36Z</time>
      </trkpt>
      <trkpt lat="33.72816" lon="77.67826">
        <ele>4914.8</ele>
        <time>2015-09-06T04:31:52Z</time>
      </trkpt>
      <trkpt lat="33.7282" lon="77.67831">
        <ele>4915.4</ele>
        <time>2015-09-06T04:31:59Z</time>
      </trkpt>
      <trkpt lat="33.72827" lon="77.67835">
        <ele>4915.8</ele>
        <time>2015-09-06T04:32:11Z</time>
      </trkpt>
      <trkpt lat="33.7283" lon="77.67838">
        <ele>4916.2</ele>
        <time>2015-09-06T04:32:15Z</time>
      </trkpt>
      <trkpt lat="33.72833" lon="77.67842">
        <ele>4916.8</ele>
        <time>2015-09-06T04:32:20Z</time>
      </trkpt>
      <trkpt lat="33.72834" lon="77.67844">
        <ele>4917</ele>
        <time>2015-09-06T04:32:22Z</time>
      </trkpt>
      <trkpt lat="33.72837" lon="77.67845">
        <ele>4917.4</ele>
        <time>2015-09-06T04:32:27Z</time>
      </trkpt>
      <trkpt lat="33.72836" lon="77.67844">
        <ele>4917.6</ele>
        <time>2015-09-06T04:32:29Z</time>
      </trkpt>
      <trkpt lat="33.72835" lon="77.67845">
        <ele>4918</ele>
        <time>2015-09-06T04:32:32Z</time>
      </trkpt>
      <trkpt lat="33.7283" lon="77.67845">
        <ele>4919</ele>
        <time>2015-09-06T04:32:40Z</time>
      </trkpt>
      <trkpt lat="33.72836" lon="77.67849">
        <ele>4919.4</ele>
        <time>2015-09-06T04:32:44Z</time>
      </trkpt>
      <trkpt lat="33.72838" lon="77.67851">
        <ele>4920.2</ele>
        <time>2015-09-06T04:32:49Z</time>
      </trkpt>
      <trkpt lat="33.72838" lon="77.67849">
        <ele>4921</ele>
        <time>2015-09-06T04:32:56Z</time>
      </trkpt>
      <trkpt lat="33.72838" lon="77.67849">
        <ele>4921.2</ele>
        <time>2015-09-06T04:32:58Z</time>
      </trkpt>
      <trkpt lat="33.72841" lon="77.67854">
        <ele>4922.2</ele>
        <time>2015-09-06T04:33:10Z</time>
      </trkpt>
      <trkpt lat="33.72845" lon="77.67859">
        <ele>4923.2</ele>
        <time>2015-09-06T04:33:21Z</time>
      </trkpt>
      <trkpt lat="33.72853" lon="77.67872">
        <ele>4924</ele>
        <time>2015-09-06T04:33:45Z</time>
      </trkpt>
      <trkpt lat="33.72854" lon="77.67876">
        <ele>4924.2</ele>
        <time>2015-09-06T04:33:51Z</time>
      </trkpt>
      <trkpt lat="33.72856" lon="77.67882">
        <ele>4925.4</ele>
        <time>2015-09-06T04:34:00Z</time>
      </trkpt>
      <trkpt lat="33.72852" lon="77.67896">
        <ele>4926.4</ele>
        <time>2015-09-06T04:34:25Z</time>
      </trkpt>
      <trkpt lat="33.7285" lon="77.67902">
        <ele>4927.4</ele>
        <time>2015-09-06T04:34:39Z</time>
      </trkpt>
      <trkpt lat="33.72849" lon="77.67908">
        <ele>4928.6</ele>
        <time>2015-09-06T04:34:50Z</time>
      </trkpt>
      <trkpt lat="33.72848" lon="77.67913">
        <ele>4929.6</ele>
        <time>2015-09-06T04:34:56Z</time>
      </trkpt>
      <trkpt lat="33.72845" lon="77.67918">
        <ele>4929.4</ele>
        <time>2015-09-06T04:35:11Z</time>
      </trkpt>
      <trkpt lat="33.72844" lon="77.6792">
        <ele>4930.6</ele>
        <time>2015-09-06T04:35:15Z</time>
      </trkpt>
      <trkpt lat="33.72841" lon="77.67924">
        <ele>4931.6</ele>
        <time>2015-09-06T04:35:26Z</time>
      </trkpt>
      <trkpt lat="33.72839" lon="77.67925">
        <ele>4932.8</ele>
        <time>2015-09-06T04:35:31Z</time>
      </trkpt>
      <trkpt lat="33.72837" lon="77.67931">
        <ele>4933.8</ele>
        <time>2015-09-06T04:35:46Z</time>
      </trkpt>
      <trkpt lat="33.72837" lon="77.67938">
        <ele>4934.8</ele>
        <time>2015-09-06T04:35:54Z</time>
      </trkpt>
      <trkpt lat="33.72831" lon="77.67948">
        <ele>4935.8</ele>
        <time>2015-09-06T04:36:13Z</time>
      </trkpt>
      <trkpt lat="33.7283" lon="77.6795">
        <ele>4937</ele>
        <time>2015-09-06T04:36:17Z</time>
      </trkpt>
      <trkpt lat="33.7283" lon="77.67952">
        <ele>4938</ele>
        <time>2015-09-06T04:36:21Z</time>
      </trkpt>
      <trkpt lat="33.72829" lon="77.67953">
        <ele>4939.2</ele>
        <time>2015-09-06T04:36:24Z</time>
      </trkpt>
      <trkpt lat="33.72823" lon="77.67969">
        <ele>4940.4</ele>
        <time>2015-09-06T04:36:54Z</time>
      </trkpt>
      <trkpt lat="33.72822" lon="77.6799">
        <ele>4941.4</ele>
        <time>2015-09-06T04:37:23Z</time>
      </trkpt>
      <trkpt lat="33.72817" lon="77.6799">
        <ele>4942</ele>
        <time>2015-09-06T04:37:30Z</time>
      </trkpt>
      <trkpt lat="33.72816" lon="77.67991">
        <ele>4942.4</ele>
        <time>2015-09-06T04:37:35Z</time>
      </trkpt>
      <trkpt lat="33.72806" lon="77.68">
        <ele>4943.6</ele>
        <time>2015-09-06T04:37:54Z</time>
      </trkpt>
      <trkpt lat="33.72801" lon="77.68001">
        <ele>4944.6</ele>
        <time>2015-09-06T04:38:02Z</time>
      </trkpt>
      <trkpt lat="33.72793" lon="77.68008">
        <ele>4945.6</ele>
        <time>2015-09-06T04:38:18Z</time>
      </trkpt>
      <trkpt lat="33.72787" lon="77.68011">
        <ele>4946</ele>
        <time>2015-09-06T04:38:28Z</time>
      </trkpt>
      <trkpt lat="33.72778" lon="77.68016">
        <ele>4946.6</ele>
        <time>2015-09-06T04:38:38Z</time>
      </trkpt>
      <trkpt lat="33.72775" lon="77.68017">
        <ele>4946.8</ele>
        <time>2015-09-06T04:38:41Z</time>
      </trkpt>
      <trkpt lat="33.72774" lon="77.68016">
        <ele>4946.8</ele>
        <time>2015-09-06T04:38:43Z</time>
      </trkpt>
      <trkpt lat="33.72772" lon="77.68014">
        <ele>4947.8</ele>
        <time>2015-09-06T04:38:48Z</time>
      </trkpt>
      <trkpt lat="33.72768" lon="77.68014">
        <ele>4946.8</ele>
        <time>2015-09-06T04:38:56Z</time>
      </trkpt>
      <trkpt lat="33.72769" lon="77.68016">
        <ele>4948</ele>
        <time>2015-09-06T04:39:21Z</time>
      </trkpt>
      <trkpt lat="33.72769" lon="77.68018">
        <ele>4948</ele>
        <time>2015-09-06T04:39:36Z</time>
      </trkpt>
      <trkpt lat="33.7277" lon="77.68017">
        <ele>4948</ele>
        <time>2015-09-06T04:39:39Z</time>
      </trkpt>
      <trkpt lat="33.72765" lon="77.68021">
        <ele>4946.8</ele>
        <time>2015-09-06T04:39:51Z</time>
      </trkpt>
      <trkpt lat="33.72763" lon="77.68018">
        <ele>4947.8</ele>
        <time>2015-09-06T04:39:59Z</time>
      </trkpt>
      <trkpt lat="33.72763" lon="77.6802">
        <ele>4947.8</ele>
        <time>2015-09-06T04:40:19Z</time>
      </trkpt>
      <trkpt lat="33.72766" lon="77.68019">
        <ele>4948.2</ele>
        <time>2015-09-06T04:40:53Z</time>
      </trkpt>
      <trkpt lat="33.72763" lon="77.68021">
        <ele>4949</ele>
        <time>2015-09-06T04:41:18Z</time>
      </trkpt>
      <trkpt lat="33.72765" lon="77.68017">
        <ele>4950.2</ele>
        <time>2015-09-06T04:41:46Z</time>
      </trkpt>
      <trkpt lat="33.72767" lon="77.6802">
        <ele>4949.8</ele>
        <time>2015-09-06T04:42:47Z</time>
      </trkpt>
      <trkpt lat="33.72767" lon="77.6802">
        <ele>4949.2</ele>
        <time>2015-09-06T04:42:52Z</time>
      </trkpt>
      <trkpt lat="33.72767" lon="77.68018">
        <ele>4949</ele>
        <time>2015-09-06T04:43:08Z</time>
      </trkpt>
      <trkpt lat="33.72764" lon="77.68021">
        <ele>4950.2</ele>
        <time>2015-09-06T04:43:31Z</time>
      </trkpt>
      <trkpt lat="33.72766" lon="77.68023">
        <ele>4951.2</ele>
        <time>2015-09-06T04:43:49Z</time>
      </trkpt>
      <trkpt lat="33.72764" lon="77.6802">
        <ele>4950.2</ele>
        <time>2015-09-06T04:44:07Z</time>
      </trkpt>
      <trkpt lat="33.72761" lon="77.68019">
        <ele>4949</ele>
        <time>2015-09-06T04:44:31Z</time>
      </trkpt>
      <trkpt lat="33.72761" lon="77.6802">
        <ele>4949.2</ele>
        <time>2015-09-06T04:44:32Z</time>
      </trkpt>
      <trkpt lat="33.72762" lon="77.68022">
        <ele>4950</ele>
        <time>2015-09-06T04:44:34Z</time>
      </trkpt>
      <trkpt lat="33.72763" lon="77.68023">
        <ele>4950.2</ele>
        <time>2015-09-06T04:44:35Z</time>
      </trkpt>
      <trkpt lat="33.72766" lon="77.68024">
        <ele>4950.4</ele>
        <time>2015-09-06T04:44:38Z</time>
      </trkpt>
      <trkpt lat="33.72764" lon="77.68024">
        <ele>4950.4</ele>
        <time>2015-09-06T04:44:40Z</time>
      </trkpt>
      <trkpt lat="33.72763" lon="77.68018">
        <ele>4949</ele>
        <time>2015-09-06T04:44:54Z</time>
      </trkpt>
      <trkpt lat="33.7276" lon="77.68017">
        <ele>4950</ele>
        <time>2015-09-06T04:45:10Z</time>
      </trkpt>
      <trkpt lat="33.72761" lon="77.68013">
        <ele>4951</ele>
        <time>2015-09-06T04:45:43Z</time>
      </trkpt>
      <trkpt lat="33.72762" lon="77.68015">
        <ele>4951.2</ele>
        <time>2015-09-06T04:45:47Z</time>
      </trkpt>
      <trkpt lat="33.72763" lon="77.68017">
        <ele>4950</ele>
        <time>2015-09-06T04:45:56Z</time>
      </trkpt>
      <trkpt lat="33.72761" lon="77.68023">
        <ele>4951.2</ele>
        <time>2015-09-06T04:46:45Z</time>
      </trkpt>
      <trkpt lat="33.72765" lon="77.68015">
        <ele>4951.6</ele>
        <time>2015-09-06T04:47:04Z</time>
      </trkpt>
      <trkpt lat="33.72767" lon="77.68015">
        <ele>4950.2</ele>
        <time>2015-09-06T04:48:01Z</time>
      </trkpt>
      <trkpt lat="33.72767" lon="77.68019">
        <ele>4950</ele>
        <time>2015-09-06T04:48:03Z</time>
      </trkpt>
      <trkpt lat="33.72765" lon="77.68021">
        <ele>4949.4</ele>
        <time>2015-09-06T04:48:06Z</time>
      </trkpt>
      <trkpt lat="33.72764" lon="77.68022">
        <ele>4949.2</ele>
        <time>2015-09-06T04:48:08Z</time>
      </trkpt>
      <trkpt lat="33.72762" lon="77.68023">
        <ele>4949.2</ele>
        <time>2015-09-06T04:48:10Z</time>
      </trkpt>
      <trkpt lat="33.72761" lon="77.68022">
        <ele>4949</ele>
        <time>2015-09-06T04:48:12Z</time>
      </trkpt>
      <trkpt lat="33.72761" lon="77.68021">
        <ele>4949</ele>
        <time>2015-09-06T04:48:13Z</time>
      </trkpt>
      <trkpt lat="33.72749" lon="77.6803">
        <ele>4948.8</ele>
        <time>2015-09-06T04:48:49Z</time>
      </trkpt>
      <trkpt lat="33.72741" lon="77.68039">
        <ele>4948.6</ele>
        <time>2015-09-06T04:49:03Z</time>
      </trkpt>
      <trkpt lat="33.7273" lon="77.68054">
        <ele>4948</ele>
        <time>2015-09-06T04:49:19Z</time>
      </trkpt>
      <trkpt lat="33.72729" lon="77.68055">
        <ele>4947.8</ele>
        <time>2015-09-06T04:49:21Z</time>
      </trkpt>
      <trkpt lat="33.72721" lon="77.68066">
        <ele>4947</ele>
        <time>2015-09-06T04:49:45Z</time>
      </trkpt>
      <trkpt lat="33.72719" lon="77.68067">
        <ele>4947</ele>
        <time>2015-09-06T04:49:46Z</time>
      </trkpt>
      <trkpt lat="33.72708" lon="77.68083">
        <ele>4947.2</ele>
        <time>2015-09-06T04:50:04Z</time>
      </trkpt>
      <trkpt lat="33.72704" lon="77.68091">
        <ele>4945.8</ele>
        <time>2015-09-06T04:50:12Z</time>
      </trkpt>
      <trkpt lat="33.72699" lon="77.68097">
        <ele>4944.6</ele>
        <time>2015-09-06T04:50:18Z</time>
      </trkpt>
      <trkpt lat="33.72692" lon="77.68103">
        <ele>4943.6</ele>
        <time>2015-09-06T04:50:29Z</time>
      </trkpt>
      <trkpt lat="33.72682" lon="77.68113">
        <ele>4942.2</ele>
        <time>2015-09-06T04:50:40Z</time>
      </trkpt>
      <trkpt lat="33.72677" lon="77.68114">
        <ele>4941</ele>
        <time>2015-09-06T04:50:44Z</time>
      </trkpt>
      <trkpt lat="33.72663" lon="77.68129">
        <ele>4940.8</ele>
        <time>2015-09-06T04:50:55Z</time>
      </trkpt>
      <trkpt lat="33.72659" lon="77.68136">
        <ele>4940.6</ele>
        <time>2015-09-06T04:51:00Z</time>
      </trkpt>
      <trkpt lat="33.72656" lon="77.68141">
        <ele>4940</ele>
        <time>2015-09-06T04:51:04Z</time>
      </trkpt>
      <trkpt lat="33.72653" lon="77.68145">
        <ele>4939</ele>
        <time>2015-09-06T04:51:09Z</time>
      </trkpt>
      <trkpt lat="33.72648" lon="77.68149">
        <ele>4937.8</ele>
        <time>2015-09-06T04:51:14Z</time>
      </trkpt>
      <trkpt lat="33.72642" lon="77.68153">
        <ele>4936.8</ele>
        <time>2015-09-06T04:51:19Z</time>
      </trkpt>
      <trkpt lat="33.72641" lon="77.68154">
        <ele>4936.4</ele>
        <time>2015-09-06T04:51:21Z</time>
      </trkpt>
      <trkpt lat="33.72638" lon="77.68159">
        <ele>4935.8</ele>
        <time>2015-09-06T04:51:26Z</time>
      </trkpt>
      <trkpt lat="33.72635" lon="77.68165">
        <ele>4934.6</ele>
        <time>2015-09-06T04:51:31Z</time>
      </trkpt>
      <trkpt lat="33.72631" lon="77.68171">
        <ele>4933.6</ele>
        <time>2015-09-06T04:51:36Z</time>
      </trkpt>
      <trkpt lat="33.72625" lon="77.68179">
        <ele>4932.6</ele>
        <time>2015-09-06T04:51:41Z</time>
      </trkpt>
      <trkpt lat="33.72622" lon="77.68182">
        <ele>4931.2</ele>
        <time>2015-09-06T04:51:45Z</time>
      </trkpt>
      <trkpt lat="33.7262" lon="77.68183">
        <ele>4930.4</ele>
        <time>2015-09-06T04:51:47Z</time>
      </trkpt>
      <trkpt lat="33.72619" lon="77.68183">
        <ele>4930.2</ele>
        <time>2015-09-06T04:51:48Z</time>
      </trkpt>
      <trkpt lat="33.72612" lon="77.68184">
        <ele>4929</ele>
        <time>2015-09-06T04:51:56Z</time>
      </trkpt>
      <trkpt lat="33.72611" lon="77.68184">
        <ele>4928.8</ele>
        <time>2015-09-06T04:51:58Z</time>
      </trkpt>
      <trkpt lat="33.72609" lon="77.68186">
        <ele>4928.8</ele>
        <time>2015-09-06T04:52:01Z</time>
      </trkpt>
      <trkpt lat="33.72606" lon="77.68188">
        <ele>4928.6</ele>
        <time>2015-09-06T04:52:04Z</time>
      </trkpt>
      <trkpt lat="33.72605" lon="77.6819">
        <ele>4928.4</ele>
        <time>2015-09-06T04:52:06Z</time>
      </trkpt>
      <trkpt lat="33.72602" lon="77.68193">
        <ele>4928</ele>
        <time>2015-09-06T04:52:09Z</time>
      </trkpt>
      <trkpt lat="33.72596" lon="77.68196">
        <ele>4927.4</ele>
        <time>2015-09-06T04:52:14Z</time>
      </trkpt>
      <trkpt lat="33.72595" lon="77.68199">
        <ele>4927</ele>
        <time>2015-09-06T04:52:18Z</time>
      </trkpt>
      <trkpt lat="33.72594" lon="77.682">
        <ele>4926.8</ele>
        <time>2015-09-06T04:52:19Z</time>
      </trkpt>
      <trkpt lat="33.72588" lon="77.68204">
        <ele>4925.8</ele>
        <time>2015-09-06T04:52:26Z</time>
      </trkpt>
      <trkpt lat="33.72582" lon="77.68206">
        <ele>4924.8</ele>
        <time>2015-09-06T04:52:31Z</time>
      </trkpt>
      <trkpt lat="33.72581" lon="77.68206">
        <ele>4924.6</ele>
        <time>2015-09-06T04:52:33Z</time>
      </trkpt>
      <trkpt lat="33.72578" lon="77.68208">
        <ele>4924.4</ele>
        <time>2015-09-06T04:52:37Z</time>
      </trkpt>
      <trkpt lat="33.72575" lon="77.68211">
        <ele>4923.8</ele>
        <time>2015-09-06T04:52:41Z</time>
      </trkpt>
      <trkpt lat="33.72574" lon="77.68212">
        <ele>4923.4</ele>
        <time>2015-09-06T04:52:42Z</time>
      </trkpt>
      <trkpt lat="33.7257" lon="77.68219">
        <ele>4922.4</ele>
        <time>2015-09-06T04:52:46Z</time>
      </trkpt>
      <trkpt lat="33.72563" lon="77.68228">
        <ele>4921.4</ele>
        <time>2015-09-06T04:52:53Z</time>
      </trkpt>
      <trkpt lat="33.7256" lon="77.68233">
        <ele>4921</ele>
        <time>2015-09-06T04:52:58Z</time>
      </trkpt>
      <trkpt lat="33.72559" lon="77.68235">
        <ele>4920.4</ele>
        <time>2015-09-06T04:53:00Z</time>
      </trkpt>
      <trkpt lat="33.72556" lon="77.68235">
        <ele>4919.2</ele>
        <time>2015-09-06T04:53:02Z</time>
      </trkpt>
      <trkpt lat="33.72554" lon="77.68235">
        <ele>4918</ele>
        <time>2015-09-06T04:53:04Z</time>
      </trkpt>
      <trkpt lat="33.72549" lon="77.68242">
        <ele>4917.4</ele>
        <time>2015-09-06T04:53:09Z</time>
      </trkpt>
      <trkpt lat="33.72545" lon="77.68249">
        <ele>4917</ele>
        <time>2015-09-06T04:53:16Z</time>
      </trkpt>
      <trkpt lat="33.72542" lon="77.68251">
        <ele>4915.8</ele>
        <time>2015-09-06T04:53:18Z</time>
      </trkpt>
      <trkpt lat="33.72537" lon="77.68255">
        <ele>4915</ele>
        <time>2015-09-06T04:53:24Z</time>
      </trkpt>
      <trkpt lat="33.72535" lon="77.6826">
        <ele>4914.8</ele>
        <time>2015-09-06T04:53:29Z</time>
      </trkpt>
      <trkpt lat="33.72529" lon="77.68268">
        <ele>4913.6</ele>
        <time>2015-09-06T04:53:36Z</time>
      </trkpt>
      <trkpt lat="33.72523" lon="77.68276">
        <ele>4912.8</ele>
        <time>2015-09-06T04:53:42Z</time>
      </trkpt>
      <trkpt lat="33.72522" lon="77.68276">
        <ele>4912.6</ele>
        <time>2015-09-06T04:53:43Z</time>
      </trkpt>
      <trkpt lat="33.72519" lon="77.68277">
        <ele>4912.4</ele>
        <time>2015-09-06T04:53:45Z</time>
      </trkpt>
      <trkpt lat="33.72515" lon="77.68281">
        <ele>4911.6</ele>
        <time>2015-09-06T04:53:52Z</time>
      </trkpt>
      <trkpt lat="33.72511" lon="77.68285">
        <ele>4910.4</ele>
        <time>2015-09-06T04:53:56Z</time>
      </trkpt>
      <trkpt lat="33.72507" lon="77.68289">
        <ele>4909.2</ele>
        <time>2015-09-06T04:54:00Z</time>
      </trkpt>
      <trkpt lat="33.72504" lon="77.68294">
        <ele>4908.2</ele>
        <time>2015-09-06T04:54:05Z</time>
      </trkpt>
      <trkpt lat="33.72494" lon="77.68304">
        <ele>4907.2</ele>
        <time>2015-09-06T04:54:14Z</time>
      </trkpt>
      <trkpt lat="33.72492" lon="77.68304">
        <ele>4906.4</ele>
        <time>2015-09-06T04:54:17Z</time>
      </trkpt>
      <trkpt lat="33.72491" lon="77.68304">
        <ele>4906</ele>
        <time>2015-09-06T04:54:18Z</time>
      </trkpt>
      <trkpt lat="33.7249" lon="77.68304">
        <ele>4905.8</ele>
        <time>2015-09-06T04:54:19Z</time>
      </trkpt>
      <trkpt lat="33.72485" lon="77.68308">
        <ele>4904.8</ele>
        <time>2015-09-06T04:54:23Z</time>
      </trkpt>
      <trkpt lat="33.72481" lon="77.68312">
        <ele>4903.6</ele>
        <time>2015-09-06T04:54:28Z</time>
      </trkpt>
      <trkpt lat="33.72473" lon="77.68322">
        <ele>4902.6</ele>
        <time>2015-09-06T04:54:38Z</time>
      </trkpt>
      <trkpt lat="33.72467" lon="77.68324">
        <ele>4901.6</ele>
        <time>2015-09-06T04:54:43Z</time>
      </trkpt>
      <trkpt lat="33.72461" lon="77.68327">
        <ele>4901.2</ele>
        <time>2015-09-06T04:54:48Z</time>
      </trkpt>
      <trkpt lat="33.72457" lon="77.68331">
        <ele>4900.6</ele>
        <time>2015-09-06T04:54:52Z</time>
      </trkpt>
      <trkpt lat="33.72452" lon="77.68333">
        <ele>4899.2</ele>
        <time>2015-09-06T04:54:56Z</time>
      </trkpt>
      <trkpt lat="33.72448" lon="77.68327">
        <ele>4898.2</ele>
        <time>2015-09-06T04:55:00Z</time>
      </trkpt>
      <trkpt lat="33.72445" lon="77.68325">
        <ele>4897</ele>
        <time>2015-09-06T04:55:03Z</time>
      </trkpt>
      <trkpt lat="33.72444" lon="77.68324">
        <ele>4896.4</ele>
        <time>2015-09-06T04:55:05Z</time>
      </trkpt>
      <trkpt lat="33.72441" lon="77.68326">
        <ele>4895.6</ele>
        <time>2015-09-06T04:55:07Z</time>
      </trkpt>
      <trkpt lat="33.72436" lon="77.6833">
        <ele>4895</ele>
        <time>2015-09-06T04:55:11Z</time>
      </trkpt>
      <trkpt lat="33.72427" lon="77.68337">
        <ele>4894.6</ele>
        <time>2015-09-06T04:55:22Z</time>
      </trkpt>
      <trkpt lat="33.72423" lon="77.68341">
        <ele>4894.2</ele>
        <time>2015-09-06T04:55:25Z</time>
      </trkpt>
      <trkpt lat="33.72421" lon="77.68344">
        <ele>4893.8</ele>
        <time>2015-09-06T04:55:28Z</time>
      </trkpt>
      <trkpt lat="33.7242" lon="77.68346">
        <ele>4893.6</ele>
        <time>2015-09-06T04:55:29Z</time>
      </trkpt>
      <trkpt lat="33.72416" lon="77.6835">
        <ele>4892.4</ele>
        <time>2015-09-06T04:55:35Z</time>
      </trkpt>
      <trkpt lat="33.72413" lon="77.68351">
        <ele>4891.2</ele>
        <time>2015-09-06T04:55:40Z</time>
      </trkpt>
      <trkpt lat="33.72402" lon="77.68358">
        <ele>4890</ele>
        <time>2015-09-06T04:55:51Z</time>
      </trkpt>
      <trkpt lat="33.72397" lon="77.68365">
        <ele>4888.8</ele>
        <time>2015-09-06T04:55:58Z</time>
      </trkpt>
      <trkpt lat="33.72393" lon="77.68369">
        <ele>4887.8</ele>
        <time>2015-09-06T04:56:03Z</time>
      </trkpt>
      <trkpt lat="33.72389" lon="77.68373">
        <ele>4886.6</ele>
        <time>2015-09-06T04:56:07Z</time>
      </trkpt>
      <trkpt lat="33.72381" lon="77.68386">
        <ele>4885.6</ele>
        <time>2015-09-06T04:56:19Z</time>
      </trkpt>
      <trkpt lat="33.72378" lon="77.6839">
        <ele>4884.4</ele>
        <time>2015-09-06T04:56:23Z</time>
      </trkpt>
      <trkpt lat="33.72375" lon="77.6839">
        <ele>4883.4</ele>
        <time>2015-09-06T04:56:27Z</time>
      </trkpt>
      <trkpt lat="33.72372" lon="77.68391">
        <ele>4882.2</ele>
        <time>2015-09-06T04:56:32Z</time>
      </trkpt>
      <trkpt lat="33.72367" lon="77.68394">
        <ele>4881.2</ele>
        <time>2015-09-06T04:56:37Z</time>
      </trkpt>
      <trkpt lat="33.72362" lon="77.684">
        <ele>4880</ele>
        <time>2015-09-06T04:56:42Z</time>
      </trkpt>
      <trkpt lat="33.7236" lon="77.68404">
        <ele>4878.8</ele>
        <time>2015-09-06T04:56:46Z</time>
      </trkpt>
      <trkpt lat="33.72349" lon="77.68416">
        <ele>4877.8</ele>
        <time>2015-09-06T04:56:57Z</time>
      </trkpt>
      <trkpt lat="33.72344" lon="77.6842">
        <ele>4876.8</ele>
        <time>2015-09-06T04:57:02Z</time>
      </trkpt>
      <trkpt lat="33.72337" lon="77.68426">
        <ele>4875.6</ele>
        <time>2015-09-06T04:57:09Z</time>
      </trkpt>
      <trkpt lat="33.72335" lon="77.68431">
        <ele>4874.6</ele>
        <time>2015-09-06T04:57:14Z</time>
      </trkpt>
      <trkpt lat="33.72331" lon="77.68435">
        <ele>4873.4</ele>
        <time>2015-09-06T04:57:19Z</time>
      </trkpt>
      <trkpt lat="33.72323" lon="77.68441">
        <ele>4872.4</ele>
        <time>2015-09-06T04:57:27Z</time>
      </trkpt>
      <trkpt lat="33.72322" lon="77.68442">
        <ele>4872.2</ele>
        <time>2015-09-06T04:57:28Z</time>
      </trkpt>
      <trkpt lat="33.72315" lon="77.68447">
        <ele>4871.4</ele>
        <time>2015-09-06T04:57:34Z</time>
      </trkpt>
      <trkpt lat="33.72314" lon="77.68448">
        <ele>4871.2</ele>
        <time>2015-09-06T04:57:35Z</time>
      </trkpt>
      <trkpt lat="33.72309" lon="77.68454">
        <ele>4870.2</ele>
        <time>2015-09-06T04:57:41Z</time>
      </trkpt>
      <trkpt lat="33.72307" lon="77.68454">
        <ele>4869.2</ele>
        <time>2015-09-06T04:57:45Z</time>
      </trkpt>
      <trkpt lat="33.72303" lon="77.68458">
        <ele>4868</ele>
        <time>2015-09-06T04:57:50Z</time>
      </trkpt>
      <trkpt lat="33.72298" lon="77.68462">
        <ele>4867</ele>
        <time>2015-09-06T04:57:55Z</time>
      </trkpt>
      <trkpt lat="33.72297" lon="77.68462">
        <ele>4867</ele>
        <time>2015-09-06T04:57:57Z</time>
      </trkpt>
      <trkpt lat="33.72296" lon="77.68466">
        <ele>4868.2</ele>
        <time>2015-09-06T04:58:01Z</time>
      </trkpt>
      <trkpt lat="33.72293" lon="77.68464">
        <ele>4867.2</ele>
        <time>2015-09-06T04:58:15Z</time>
      </trkpt>
      <trkpt lat="33.72295" lon="77.68471">
        <ele>4866.2</ele>
        <time>2015-09-06T04:58:26Z</time>
      </trkpt>
      <trkpt lat="33.72295" lon="77.68468">
        <ele>4865.2</ele>
        <time>2015-09-06T04:58:38Z</time>
      </trkpt>
      <trkpt lat="33.72296" lon="77.6846">
        <ele>4865.4</ele>
        <time>2015-09-06T04:59:16Z</time>
      </trkpt>
      <trkpt lat="33.72296" lon="77.68458">
        <ele>4865.2</ele>
        <time>2015-09-06T04:59:19Z</time>
      </trkpt>
      <trkpt lat="33.72289" lon="77.68462">
        <ele>4864.8</ele>
        <time>2015-09-06T05:00:07Z</time>
      </trkpt>
      <trkpt lat="33.72287" lon="77.68464">
        <ele>4864.2</ele>
        <time>2015-09-06T05:00:24Z</time>
      </trkpt>
      <trkpt lat="33.72285" lon="77.6847">
        <ele>4863</ele>
        <time>2015-09-06T05:00:30Z</time>
      </trkpt>
      <trkpt lat="33.72282" lon="77.68475">
        <ele>4862</ele>
        <time>2015-09-06T05:00:35Z</time>
      </trkpt>
      <trkpt lat="33.72278" lon="77.68479">
        <ele>4860.6</ele>
        <time>2015-09-06T05:00:41Z</time>
      </trkpt>
      <trkpt lat="33.72275" lon="77.68482">
        <ele>4859.6</ele>
        <time>2015-09-06T05:00:47Z</time>
      </trkpt>
      <trkpt lat="33.72273" lon="77.68487">
        <ele>4858.4</ele>
        <time>2015-09-06T05:00:52Z</time>
      </trkpt>
      <trkpt lat="33.72269" lon="77.68491">
        <ele>4857.4</ele>
        <time>2015-09-06T05:00:59Z</time>
      </trkpt>
      <trkpt lat="33.72264" lon="77.68497">
        <ele>4856.4</ele>
        <time>2015-09-06T05:01:06Z</time>
      </trkpt>
      <trkpt lat="33.72263" lon="77.68498">
        <ele>4856.2</ele>
        <time>2015-09-06T05:01:08Z</time>
      </trkpt>
      <trkpt lat="33.7226" lon="77.68503">
        <ele>4855.2</ele>
        <time>2015-09-06T05:01:14Z</time>
      </trkpt>
      <trkpt lat="33.72259" lon="77.68504">
        <ele>4855.2</ele>
        <time>2015-09-06T05:01:15Z</time>
      </trkpt>
      <trkpt lat="33.72258" lon="77.68506">
        <ele>4854.6</ele>
        <time>2015-09-06T05:01:18Z</time>
      </trkpt>
      <trkpt lat="33.72258" lon="77.68508">
        <ele>4854.2</ele>
        <time>2015-09-06T05:01:20Z</time>
      </trkpt>
      <trkpt lat="33.72257" lon="77.68511">
        <ele>4853.6</ele>
        <time>2015-09-06T05:01:23Z</time>
      </trkpt>
      <trkpt lat="33.72254" lon="77.68513">
        <ele>4853</ele>
        <time>2015-09-06T05:01:27Z</time>
      </trkpt>
      <trkpt lat="33.7225" lon="77.68515">
        <ele>4851.8</ele>
        <time>2015-09-06T05:01:33Z</time>
      </trkpt>
      <trkpt lat="33.72245" lon="77.6852">
        <ele>4850.6</ele>
        <time>2015-09-06T05:01:40Z</time>
      </trkpt>
      <trkpt lat="33.72243" lon="77.68523">
        <ele>4850</ele>
        <time>2015-09-06T05:01:44Z</time>
      </trkpt>
      <trkpt lat="33.72242" lon="77.68526">
        <ele>4849.6</ele>
        <time>2015-09-06T05:01:47Z</time>
      </trkpt>
      <trkpt lat="33.72238" lon="77.6853">
        <ele>4848.8</ele>
        <time>2015-09-06T05:01:52Z</time>
      </trkpt>
      <trkpt lat="33.72237" lon="77.68531">
        <ele>4848.4</ele>
        <time>2015-09-06T05:01:54Z</time>
      </trkpt>
      <trkpt lat="33.72232" lon="77.68533">
        <ele>4847.4</ele>
        <time>2015-09-06T05:02:00Z</time>
      </trkpt>
      <trkpt lat="33.72228" lon="77.68538">
        <ele>4846.2</ele>
        <time>2015-09-06T05:02:06Z</time>
      </trkpt>
      <trkpt lat="33.72227" lon="77.68543">
        <ele>4845</ele>
        <time>2015-09-06T05:02:13Z</time>
      </trkpt>
      <trkpt lat="33.72225" lon="77.68548">
        <ele>4844</ele>
        <time>2015-09-06T05:02:18Z</time>
      </trkpt>
      <trkpt lat="33.72221" lon="77.68552">
        <ele>4843</ele>
        <time>2015-09-06T05:02:24Z</time>
      </trkpt>
      <trkpt lat="33.72221" lon="77.68553">
        <ele>4842.8</ele>
        <time>2015-09-06T05:02:25Z</time>
      </trkpt>
      <trkpt lat="33.72219" lon="77.68553">
        <ele>4842.8</ele>
        <time>2015-09-06T05:02:27Z</time>
      </trkpt>
      <trkpt lat="33.72219" lon="77.68563">
        <ele>4841.8</ele>
        <time>2015-09-06T05:02:33Z</time>
      </trkpt>
      <trkpt lat="33.7222" lon="77.68565">
        <ele>4841.6</ele>
        <time>2015-09-06T05:02:35Z</time>
      </trkpt>
      <trkpt lat="33.72217" lon="77.68568">
        <ele>4841.2</ele>
        <time>2015-09-06T05:02:39Z</time>
      </trkpt>
      <trkpt lat="33.72216" lon="77.68572">
        <ele>4840.8</ele>
        <time>2015-09-06T05:02:45Z</time>
      </trkpt>
      <trkpt lat="33.7221" lon="77.68585">
        <ele>4839.8</ele>
        <time>2015-09-06T05:02:56Z</time>
      </trkpt>
      <trkpt lat="33.72206" lon="77.68591">
        <ele>4838.4</ele>
        <time>2015-09-06T05:03:02Z</time>
      </trkpt>
      <trkpt lat="33.72203" lon="77.68595">
        <ele>4837.4</ele>
        <time>2015-09-06T05:03:07Z</time>
      </trkpt>
      <trkpt lat="33.722" lon="77.68601">
        <ele>4836.4</ele>
        <time>2015-09-06T05:03:12Z</time>
      </trkpt>
      <trkpt lat="33.72197" lon="77.68603">
        <ele>4835.2</ele>
        <time>2015-09-06T05:03:17Z</time>
      </trkpt>
      <trkpt lat="33.72195" lon="77.68605">
        <ele>4834</ele>
        <time>2015-09-06T05:03:21Z</time>
      </trkpt>
      <trkpt lat="33.72191" lon="77.68609">
        <ele>4832.8</ele>
        <time>2015-09-06T05:03:26Z</time>
      </trkpt>
      <trkpt lat="33.72188" lon="77.68612">
        <ele>4831.6</ele>
        <time>2015-09-06T05:03:30Z</time>
      </trkpt>
      <trkpt lat="33.72182" lon="77.68619">
        <ele>4830.4</ele>
        <time>2015-09-06T05:03:37Z</time>
      </trkpt>
      <trkpt lat="33.72181" lon="77.68621">
        <ele>4829.2</ele>
        <time>2015-09-06T05:03:39Z</time>
      </trkpt>
      <trkpt lat="33.72179" lon="77.68624">
        <ele>4828</ele>
        <time>2015-09-06T05:03:42Z</time>
      </trkpt>
      <trkpt lat="33.72175" lon="77.6863">
        <ele>4827</ele>
        <time>2015-09-06T05:03:46Z</time>
      </trkpt>
      <trkpt lat="33.72175" lon="77.68632">
        <ele>4826.4</ele>
        <time>2015-09-06T05:03:48Z</time>
      </trkpt>
      <trkpt lat="33.72172" lon="77.68634">
        <ele>4825.8</ele>
        <time>2015-09-06T05:03:51Z</time>
      </trkpt>
      <trkpt lat="33.72172" lon="77.68632">
        <ele>4825.4</ele>
        <time>2015-09-06T05:03:53Z</time>
      </trkpt>
      <trkpt lat="33.72172" lon="77.68631">
        <ele>4824.6</ele>
        <time>2015-09-06T05:03:57Z</time>
      </trkpt>
      <trkpt lat="33.72175" lon="77.68622">
        <ele>4824</ele>
        <time>2015-09-06T05:04:13Z</time>
      </trkpt>
      <trkpt lat="33.72171" lon="77.68626">
        <ele>4824</ele>
        <time>2015-09-06T05:04:15Z</time>
      </trkpt>
      <trkpt lat="33.7217" lon="77.68625">
        <ele>4823.6</ele>
        <time>2015-09-06T05:04:18Z</time>
      </trkpt>
      <trkpt lat="33.72174" lon="77.68622">
        <ele>4823.2</ele>
        <time>2015-09-06T05:04:25Z</time>
      </trkpt>
      <trkpt lat="33.72163" lon="77.68627">
        <ele>4822.8</ele>
        <time>2015-09-06T05:04:29Z</time>
      </trkpt>
      <trkpt lat="33.7216" lon="77.6863">
        <ele>4822.6</ele>
        <time>2015-09-06T05:04:32Z</time>
      </trkpt>
      <trkpt lat="33.72157" lon="77.68634">
        <ele>4821.6</ele>
        <time>2015-09-06T05:04:39Z</time>
      </trkpt>
      <trkpt lat="33.72154" lon="77.6864">
        <ele>4820.6</ele>
        <time>2015-09-06T05:04:48Z</time>
      </trkpt>
      <trkpt lat="33.72153" lon="77.68647">
        <ele>4819.8</ele>
        <time>2015-09-06T05:04:54Z</time>
      </trkpt>
      <trkpt lat="33.72153" lon="77.68648">
        <ele>4819.4</ele>
        <time>2015-09-06T05:04:56Z</time>
      </trkpt>
      <trkpt lat="33.72152" lon="77.68651">
        <ele>4818.8</ele>
        <time>2015-09-06T05:04:59Z</time>
      </trkpt>
      <trkpt lat="33.72152" lon="77.68653">
        <ele>4818.4</ele>
        <time>2015-09-06T05:05:01Z</time>
      </trkpt>
      <trkpt lat="33.72152" lon="77.68654">
        <ele>4818.2</ele>
        <time>2015-09-06T05:05:02Z</time>
      </trkpt>
      <trkpt lat="33.7215" lon="77.68656">
        <ele>4817.2</ele>
        <time>2015-09-06T05:05:08Z</time>
      </trkpt>
      <trkpt lat="33.72148" lon="77.68661">
        <ele>4816.2</ele>
        <time>2015-09-06T05:05:13Z</time>
      </trkpt>
      <trkpt lat="33.72146" lon="77.68665">
        <ele>4815</ele>
        <time>2015-09-06T05:05:17Z</time>
      </trkpt>
      <trkpt lat="33.72143" lon="77.68673">
        <ele>4814</ele>
        <time>2015-09-06T05:05:27Z</time>
      </trkpt>
      <trkpt lat="33.72143" lon="77.68679">
        <ele>4812.8</ele>
        <time>2015-09-06T05:05:32Z</time>
      </trkpt>
      <trkpt lat="33.72141" lon="77.68682">
        <ele>4811.8</ele>
        <time>2015-09-06T05:05:35Z</time>
      </trkpt>
      <trkpt lat="33.7214" lon="77.68684">
        <ele>4811.2</ele>
        <time>2015-09-06T05:05:37Z</time>
      </trkpt>
      <trkpt lat="33.72141" lon="77.68685">
        <ele>4810.8</ele>
        <time>2015-09-06T05:05:42Z</time>
      </trkpt>
      <trkpt lat="33.72135" lon="77.68676">
        <ele>4809.8</ele>
        <time>2015-09-06T05:06:13Z</time>
      </trkpt>
      <trkpt lat="33.7214" lon="77.68684">
        <ele>4810</ele>
        <time>2015-09-06T05:06:43Z</time>
      </trkpt>
      <trkpt lat="33.72139" lon="77.68686">
        <ele>4810</ele>
        <time>2015-09-06T05:06:45Z</time>
      </trkpt>
      <trkpt lat="33.72136" lon="77.68693">
        <ele>4809</ele>
        <time>2015-09-06T05:06:51Z</time>
      </trkpt>
      <trkpt lat="33.72135" lon="77.68694">
        <ele>4808.6</ele>
        <time>2015-09-06T05:06:53Z</time>
      </trkpt>
      <trkpt lat="33.72132" lon="77.68694">
        <ele>4807.6</ele>
        <time>2015-09-06T05:07:00Z</time>
      </trkpt>
      <trkpt lat="33.7213" lon="77.68695">
        <ele>4806.6</ele>
        <time>2015-09-06T05:07:03Z</time>
      </trkpt>
      <trkpt lat="33.72128" lon="77.68699">
        <ele>4806.4</ele>
        <time>2015-09-06T05:07:06Z</time>
      </trkpt>
      <trkpt lat="33.72128" lon="77.68699">
        <ele>4806.4</ele>
        <time>2015-09-06T05:07:07Z</time>
      </trkpt>
      <trkpt lat="33.72127" lon="77.68699">
        <ele>4805.8</ele>
        <time>2015-09-06T05:07:09Z</time>
      </trkpt>
      <trkpt lat="33.72126" lon="77.687">
        <ele>4805.4</ele>
        <time>2015-09-06T05:07:10Z</time>
      </trkpt>
      <trkpt lat="33.72124" lon="77.68701">
        <ele>4804.4</ele>
        <time>2015-09-06T05:07:15Z</time>
      </trkpt>
      <trkpt lat="33.72123" lon="77.68707">
        <ele>4804.4</ele>
        <time>2015-09-06T05:07:19Z</time>
      </trkpt>
      <trkpt lat="33.72123" lon="77.68714">
        <ele>4803.6</ele>
        <time>2015-09-06T05:07:24Z</time>
      </trkpt>
      <trkpt lat="33.72123" lon="77.68714">
        <ele>4803.2</ele>
        <time>2015-09-06T05:07:25Z</time>
      </trkpt>
      <trkpt lat="33.72119" lon="77.68717">
        <ele>4802</ele>
        <time>2015-09-06T05:07:29Z</time>
      </trkpt>
      <trkpt lat="33.72117" lon="77.68718">
        <ele>4801.4</ele>
        <time>2015-09-06T05:07:31Z</time>
      </trkpt>
      <trkpt lat="33.72115" lon="77.68719">
        <ele>4800.8</ele>
        <time>2015-09-06T05:07:32Z</time>
      </trkpt>
      <trkpt lat="33.72114" lon="77.68721">
        <ele>4800.4</ele>
        <time>2015-09-06T05:07:34Z</time>
      </trkpt>
      <trkpt lat="33.72112" lon="77.68717">
        <ele>4800</ele>
        <time>2015-09-06T05:07:38Z</time>
      </trkpt>
      <trkpt lat="33.72111" lon="77.68718">
        <ele>4799.8</ele>
        <time>2015-09-06T05:07:39Z</time>
      </trkpt>
      <trkpt lat="33.72109" lon="77.68718">
        <ele>4799.4</ele>
        <time>2015-09-06T05:07:41Z</time>
      </trkpt>
      <trkpt lat="33.72106" lon="77.68719">
        <ele>4799.2</ele>
        <time>2015-09-06T05:07:45Z</time>
      </trkpt>
      <trkpt lat="33.72101" lon="77.68729">
        <ele>4799</ele>
        <time>2015-09-06T05:07:56Z</time>
      </trkpt>
      <trkpt lat="33.72101" lon="77.6873">
        <ele>4798.6</ele>
        <time>2015-09-06T05:07:59Z</time>
      </trkpt>
      <trkpt lat="33.72096" lon="77.68732">
        <ele>4798.4</ele>
        <time>2015-09-06T05:08:35Z</time>
      </trkpt>
      <trkpt lat="33.72092" lon="77.6874">
        <ele>4797.6</ele>
        <time>2015-09-06T05:08:42Z</time>
      </trkpt>
      <trkpt lat="33.72089" lon="77.68746">
        <ele>4796.6</ele>
        <time>2015-09-06T05:08:46Z</time>
      </trkpt>
      <trkpt lat="33.72087" lon="77.68748">
        <ele>4795.4</ele>
        <time>2015-09-06T05:08:49Z</time>
      </trkpt>
      <trkpt lat="33.72086" lon="77.68752">
        <ele>4794.4</ele>
        <time>2015-09-06T05:08:53Z</time>
      </trkpt>
      <trkpt lat="33.72082" lon="77.68757">
        <ele>4794</ele>
        <time>2015-09-06T05:09:00Z</time>
      </trkpt>
      <trkpt lat="33.7208" lon="77.68758">
        <ele>4793.4</ele>
        <time>2015-09-06T05:09:02Z</time>
      </trkpt>
      <trkpt lat="33.72079" lon="77.6876">
        <ele>4793</ele>
        <time>2015-09-06T05:09:03Z</time>
      </trkpt>
      <trkpt lat="33.72075" lon="77.68764">
        <ele>4792</ele>
        <time>2015-09-06T05:09:08Z</time>
      </trkpt>
      <trkpt lat="33.72073" lon="77.68768">
        <ele>4791</ele>
        <time>2015-09-06T05:09:12Z</time>
      </trkpt>
      <trkpt lat="33.72071" lon="77.6877">
        <ele>4790.2</ele>
        <time>2015-09-06T05:09:15Z</time>
      </trkpt>
      <trkpt lat="33.7207" lon="77.68771">
        <ele>4790</ele>
        <time>2015-09-06T05:09:16Z</time>
      </trkpt>
      <trkpt lat="33.72068" lon="77.68776">
        <ele>4789</ele>
        <time>2015-09-06T05:09:21Z</time>
      </trkpt>
      <trkpt lat="33.72066" lon="77.68782">
        <ele>4787.8</ele>
        <time>2015-09-06T05:09:25Z</time>
      </trkpt>
      <trkpt lat="33.72062" lon="77.68788">
        <ele>4786.6</ele>
        <time>2015-09-06T05:09:29Z</time>
      </trkpt>
      <trkpt lat="33.72062" lon="77.68787">
        <ele>4786.4</ele>
        <time>2015-09-06T05:09:30Z</time>
      </trkpt>
      <trkpt lat="33.72062" lon="77.68789">
        <ele>4786</ele>
        <time>2015-09-06T05:09:32Z</time>
      </trkpt>
      <trkpt lat="33.7206" lon="77.68794">
        <ele>4785.6</ele>
        <time>2015-09-06T05:09:36Z</time>
      </trkpt>
      <trkpt lat="33.72059" lon="77.68795">
        <ele>4785.2</ele>
        <time>2015-09-06T05:09:38Z</time>
      </trkpt>
      <trkpt lat="33.72058" lon="77.68797">
        <ele>4784.6</ele>
        <time>2015-09-06T05:09:40Z</time>
      </trkpt>
      <trkpt lat="33.72055" lon="77.68802">
        <ele>4783.6</ele>
        <time>2015-09-06T05:09:45Z</time>
      </trkpt>
      <trkpt lat="33.72051" lon="77.68814">
        <ele>4782.6</ele>
        <time>2015-09-06T05:09:53Z</time>
      </trkpt>
      <trkpt lat="33.72045" lon="77.68823">
        <ele>4781.4</ele>
        <time>2015-09-06T05:09:59Z</time>
      </trkpt>
      <trkpt lat="33.72045" lon="77.68824">
        <ele>4781.2</ele>
        <time>2015-09-06T05:10:00Z</time>
      </trkpt>
      <trkpt lat="33.72041" lon="77.68824">
        <ele>4780.2</ele>
        <time>2015-09-06T05:10:05Z</time>
      </trkpt>
      <trkpt lat="33.72038" lon="77.68819">
        <ele>4779.4</ele>
        <time>2015-09-06T05:10:08Z</time>
      </trkpt>
      <trkpt lat="33.72037" lon="77.68818">
        <ele>4779.2</ele>
        <time>2015-09-06T05:10:09Z</time>
      </trkpt>
      <trkpt lat="33.72036" lon="77.68817">
        <ele>4779</ele>
        <time>2015-09-06T05:10:10Z</time>
      </trkpt>
      <trkpt lat="33.72034" lon="77.68816">
        <ele>4778.2</ele>
        <time>2015-09-06T05:10:12Z</time>
      </trkpt>
      <trkpt lat="33.72022" lon="77.68816">
        <ele>4777</ele>
        <time>2015-09-06T05:10:20Z</time>
      </trkpt>
      <trkpt lat="33.7202" lon="77.68815">
        <ele>4775.8</ele>
        <time>2015-09-06T05:10:23Z</time>
      </trkpt>
      <trkpt lat="33.72011" lon="77.68816">
        <ele>4774.8</ele>
        <time>2015-09-06T05:10:35Z</time>
      </trkpt>
      <trkpt lat="33.7201" lon="77.68816">
        <ele>4773.6</ele>
        <time>2015-09-06T05:10:38Z</time>
      </trkpt>
      <trkpt lat="33.72007" lon="77.68815">
        <ele>4772.4</ele>
        <time>2015-09-06T05:10:41Z</time>
      </trkpt>
      <trkpt lat="33.72004" lon="77.68815">
        <ele>4771.8</ele>
        <time>2015-09-06T05:10:44Z</time>
      </trkpt>
      <trkpt lat="33.72001" lon="77.68818">
        <ele>4771.4</ele>
        <time>2015-09-06T05:10:47Z</time>
      </trkpt>
      <trkpt lat="33.71999" lon="77.68819">
        <ele>4771.2</ele>
        <time>2015-09-06T05:10:48Z</time>
      </trkpt>
      <trkpt lat="33.71997" lon="77.6882">
        <ele>4770</ele>
        <time>2015-09-06T05:10:50Z</time>
      </trkpt>
      <trkpt lat="33.71993" lon="77.68822">
        <ele>4768.8</ele>
        <time>2015-09-06T05:10:53Z</time>
      </trkpt>
      <trkpt lat="33.7199" lon="77.68825">
        <ele>4767.6</ele>
        <time>2015-09-06T05:10:57Z</time>
      </trkpt>
      <trkpt lat="33.71986" lon="77.68825">
        <ele>4766.6</ele>
        <time>2015-09-06T05:11:01Z</time>
      </trkpt>
      <trkpt lat="33.71984" lon="77.68824">
        <ele>4766</ele>
        <time>2015-09-06T05:11:03Z</time>
      </trkpt>
      <trkpt lat="33.71975" lon="77.68835">
        <ele>4766</ele>
        <time>2015-09-06T05:11:13Z</time>
      </trkpt>
      <trkpt lat="33.7197" lon="77.68833">
        <ele>4765.8</ele>
        <time>2015-09-06T05:11:17Z</time>
      </trkpt>
      <trkpt lat="33.71967" lon="77.68833">
        <ele>4765.6</ele>
        <time>2015-09-06T05:11:19Z</time>
      </trkpt>
      <trkpt lat="33.71959" lon="77.68838">
        <ele>4764.6</ele>
        <time>2015-09-06T05:11:27Z</time>
      </trkpt>
      <trkpt lat="33.71956" lon="77.6884">
        <ele>4763.4</ele>
        <time>2015-09-06T05:11:30Z</time>
      </trkpt>
      <trkpt lat="33.71949" lon="77.68843">
        <ele>4762.2</ele>
        <time>2015-09-06T05:11:36Z</time>
      </trkpt>
      <trkpt lat="33.71945" lon="77.68844">
        <ele>4761</ele>
        <time>2015-09-06T05:11:39Z</time>
      </trkpt>
      <trkpt lat="33.71942" lon="77.68844">
        <ele>4760.6</ele>
        <time>2015-09-06T05:11:42Z</time>
      </trkpt>
      <trkpt lat="33.71936" lon="77.68847">
        <ele>4760</ele>
        <time>2015-09-06T05:11:49Z</time>
      </trkpt>
      <trkpt lat="33.71935" lon="77.6885">
        <ele>4759.4</ele>
        <time>2015-09-06T05:11:51Z</time>
      </trkpt>
      <trkpt lat="33.71933" lon="77.68851">
        <ele>4758.8</ele>
        <time>2015-09-06T05:11:54Z</time>
      </trkpt>
      <trkpt lat="33.71928" lon="77.68852">
        <ele>4758.2</ele>
        <time>2015-09-06T05:11:59Z</time>
      </trkpt>
      <trkpt lat="33.71927" lon="77.68854">
        <ele>4758</ele>
        <time>2015-09-06T05:12:01Z</time>
      </trkpt>
      <trkpt lat="33.71926" lon="77.68854">
        <ele>4757.8</ele>
        <time>2015-09-06T05:12:02Z</time>
      </trkpt>
      <trkpt lat="33.71919" lon="77.68851">
        <ele>4756.6</ele>
        <time>2015-09-06T05:12:08Z</time>
      </trkpt>
      <trkpt lat="33.71915" lon="77.6885">
        <ele>4755.8</ele>
        <time>2015-09-06T05:12:13Z</time>
      </trkpt>
      <trkpt lat="33.71908" lon="77.68851">
        <ele>4755.4</ele>
        <time>2015-09-06T05:12:19Z</time>
      </trkpt>
      <trkpt lat="33.71903" lon="77.68855">
        <ele>4754.4</ele>
        <time>2015-09-06T05:12:24Z</time>
      </trkpt>
      <trkpt lat="33.71901" lon="77.68858">
        <ele>4753.2</ele>
        <time>2015-09-06T05:12:29Z</time>
      </trkpt>
      <trkpt lat="33.71896" lon="77.68862">
        <ele>4752.2</ele>
        <time>2015-09-06T05:12:36Z</time>
      </trkpt>
      <trkpt lat="33.71891" lon="77.68864">
        <ele>4751.2</ele>
        <time>2015-09-06T05:12:43Z</time>
      </trkpt>
      <trkpt lat="33.71884" lon="77.68866">
        <ele>4751.2</ele>
        <time>2015-09-06T05:12:52Z</time>
      </trkpt>
      <trkpt lat="33.7188" lon="77.68866">
        <ele>4750</ele>
        <time>2015-09-06T05:12:56Z</time>
      </trkpt>
      <trkpt lat="33.71876" lon="77.68863">
        <ele>4749</ele>
        <time>2015-09-06T05:13:01Z</time>
      </trkpt>
      <trkpt lat="33.71875" lon="77.68864">
        <ele>4749</ele>
        <time>2015-09-06T05:13:03Z</time>
      </trkpt>
      <trkpt lat="33.71871" lon="77.68868">
        <ele>4748.6</ele>
        <time>2015-09-06T05:13:08Z</time>
      </trkpt>
      <trkpt lat="33.71868" lon="77.6887">
        <ele>4747.6</ele>
        <time>2015-09-06T05:13:11Z</time>
      </trkpt>
      <trkpt lat="33.71862" lon="77.68876">
        <ele>4746.6</ele>
        <time>2015-09-06T05:13:19Z</time>
      </trkpt>
      <trkpt lat="33.71855" lon="77.6888">
        <ele>4745.6</ele>
        <time>2015-09-06T05:13:28Z</time>
      </trkpt>
      <trkpt lat="33.71845" lon="77.68885">
        <ele>4744.4</ele>
        <time>2015-09-06T05:13:36Z</time>
      </trkpt>
      <trkpt lat="33.71841" lon="77.68889">
        <ele>4743.4</ele>
        <time>2015-09-06T05:13:40Z</time>
      </trkpt>
      <trkpt lat="33.71832" lon="77.68893">
        <ele>4742.4</ele>
        <time>2015-09-06T05:13:48Z</time>
      </trkpt>
      <trkpt lat="33.71829" lon="77.68896">
        <ele>4741.2</ele>
        <time>2015-09-06T05:13:52Z</time>
      </trkpt>
      <trkpt lat="33.71821" lon="77.68911">
        <ele>4740</ele>
        <time>2015-09-06T05:14:04Z</time>
      </trkpt>
      <trkpt lat="33.71819" lon="77.68918">
        <ele>4739.4</ele>
        <time>2015-09-06T05:14:08Z</time>
      </trkpt>
      <trkpt lat="33.71818" lon="77.68922">
        <ele>4739</ele>
        <time>2015-09-06T05:14:10Z</time>
      </trkpt>
      <trkpt lat="33.71808" lon="77.68926">
        <ele>4739</ele>
        <time>2015-09-06T05:14:19Z</time>
      </trkpt>
      <trkpt lat="33.71805" lon="77.68917">
        <ele>4737.8</ele>
        <time>2015-09-06T05:14:24Z</time>
      </trkpt>
      <trkpt lat="33.71805" lon="77.68917">
        <ele>4736.8</ele>
        <time>2015-09-06T05:14:27Z</time>
      </trkpt>
      <trkpt lat="33.71803" lon="77.68919">
        <ele>4735.6</ele>
        <time>2015-09-06T05:14:32Z</time>
      </trkpt>
      <trkpt lat="33.71801" lon="77.6892">
        <ele>4734.6</ele>
        <time>2015-09-06T05:14:36Z</time>
      </trkpt>
      <trkpt lat="33.71794" lon="77.68918">
        <ele>4734.6</ele>
        <time>2015-09-06T05:14:44Z</time>
      </trkpt>
      <trkpt lat="33.71791" lon="77.68923">
        <ele>4735.8</ele>
        <time>2015-09-06T05:14:51Z</time>
      </trkpt>
      <trkpt lat="33.71791" lon="77.68924">
        <ele>4737</ele>
        <time>2015-09-06T05:14:53Z</time>
      </trkpt>
      <trkpt lat="33.71791" lon="77.6893">
        <ele>4735.8</ele>
        <time>2015-09-06T05:15:09Z</time>
      </trkpt>
      <trkpt lat="33.71791" lon="77.68932">
        <ele>4735.2</ele>
        <time>2015-09-06T05:15:11Z</time>
      </trkpt>
      <trkpt lat="33.71791" lon="77.68935">
        <ele>4734.6</ele>
        <time>2015-09-06T05:15:13Z</time>
      </trkpt>
      <trkpt lat="33.71791" lon="77.6894">
        <ele>4733.6</ele>
        <time>2015-09-06T05:15:17Z</time>
      </trkpt>
      <trkpt lat="33.71791" lon="77.68941">
        <ele>4733.4</ele>
        <time>2015-09-06T05:15:18Z</time>
      </trkpt>
      <trkpt lat="33.71789" lon="77.68943">
        <ele>4732.6</ele>
        <time>2015-09-06T05:15:21Z</time>
      </trkpt>
      <trkpt lat="33.71783" lon="77.68945">
        <ele>4731.6</ele>
        <time>2015-09-06T05:15:25Z</time>
      </trkpt>
      <trkpt lat="33.71781" lon="77.68947">
        <ele>4731.2</ele>
        <time>2015-09-06T05:15:27Z</time>
      </trkpt>
      <trkpt lat="33.71778" lon="77.6895">
        <ele>4730.6</ele>
        <time>2015-09-06T05:15:30Z</time>
      </trkpt>
      <trkpt lat="33.71777" lon="77.68951">
        <ele>4730.4</ele>
        <time>2015-09-06T05:15:32Z</time>
      </trkpt>
      <trkpt lat="33.71775" lon="77.68954">
        <ele>4730.2</ele>
        <time>2015-09-06T05:15:34Z</time>
      </trkpt>
      <trkpt lat="33.71771" lon="77.68957">
        <ele>4729.2</ele>
        <time>2015-09-06T05:15:38Z</time>
      </trkpt>
      <trkpt lat="33.71764" lon="77.68969">
        <ele>4728.2</ele>
        <time>2015-09-06T05:15:50Z</time>
      </trkpt>
      <trkpt lat="33.71762" lon="77.68971">
        <ele>4727</ele>
        <time>2015-09-06T05:15:53Z</time>
      </trkpt>
      <trkpt lat="33.71762" lon="77.68972">
        <ele>4726.8</ele>
        <time>2015-09-06T05:15:54Z</time>
      </trkpt>
      <trkpt lat="33.71761" lon="77.68974">
        <ele>4726.4</ele>
        <time>2015-09-06T05:15:56Z</time>
      </trkpt>
      <trkpt lat="33.71761" lon="77.68977">
        <ele>4726</ele>
        <time>2015-09-06T05:15:58Z</time>
      </trkpt>
      <trkpt lat="33.7176" lon="77.6898">
        <ele>4725.4</ele>
        <time>2015-09-06T05:16:01Z</time>
      </trkpt>
      <trkpt lat="33.7176" lon="77.68981">
        <ele>4724.8</ele>
        <time>2015-09-06T05:16:02Z</time>
      </trkpt>
      <trkpt lat="33.71759" lon="77.68981">
        <ele>4724.2</ele>
        <time>2015-09-06T05:16:03Z</time>
      </trkpt>
      <trkpt lat="33.71759" lon="77.68981">
        <ele>4723.8</ele>
        <time>2015-09-06T05:16:04Z</time>
      </trkpt>
      <trkpt lat="33.71755" lon="77.68975">
        <ele>4722.8</ele>
        <time>2015-09-06T05:16:07Z</time>
      </trkpt>
      <trkpt lat="33.71753" lon="77.68972">
        <ele>4721.6</ele>
        <time>2015-09-06T05:16:10Z</time>
      </trkpt>
      <trkpt lat="33.71748" lon="77.68974">
        <ele>4721.6</ele>
        <time>2015-09-06T05:16:15Z</time>
      </trkpt>
      <trkpt lat="33.71746" lon="77.68983">
        <ele>4720.6</ele>
        <time>2015-09-06T05:16:31Z</time>
      </trkpt>
      <trkpt lat="33.71743" lon="77.68985">
        <ele>4720.6</ele>
        <time>2015-09-06T05:16:35Z</time>
      </trkpt>
      <trkpt lat="33.71739" lon="77.68987">
        <ele>4720</ele>
        <time>2015-09-06T05:16:40Z</time>
      </trkpt>
      <trkpt lat="33.71739" lon="77.68983">
        <ele>4719.8</ele>
        <time>2015-09-06T05:16:50Z</time>
      </trkpt>
      <trkpt lat="33.71741" lon="77.68985">
        <ele>4719.6</ele>
        <time>2015-09-06T05:16:55Z</time>
      </trkpt>
      <trkpt lat="33.71743" lon="77.68988">
        <ele>4719.6</ele>
        <time>2015-09-06T05:16:59Z</time>
      </trkpt>
      <trkpt lat="33.71739" lon="77.68987">
        <ele>4718.4</ele>
        <time>2015-09-06T05:17:41Z</time>
      </trkpt>
      <trkpt lat="33.71737" lon="77.68993">
        <ele>4718</ele>
        <time>2015-09-06T05:18:42Z</time>
      </trkpt>
      <trkpt lat="33.7174" lon="77.68988">
        <ele>4717.4</ele>
        <time>2015-09-06T05:19:04Z</time>
      </trkpt>
      <trkpt lat="33.7174" lon="77.68987">
        <ele>4717.4</ele>
        <time>2015-09-06T05:19:05Z</time>
      </trkpt>
      <trkpt lat="33.71738" lon="77.68986">
        <ele>4717.8</ele>
        <time>2015-09-06T05:20:12Z</time>
      </trkpt>
      <trkpt lat="33.71734" lon="77.68982">
        <ele>4716.2</ele>
        <time>2015-09-06T05:20:19Z</time>
      </trkpt>
      <trkpt lat="33.71734" lon="77.68981">
        <ele>4717.2</ele>
        <time>2015-09-06T05:20:25Z</time>
      </trkpt>
      <trkpt lat="33.71741" lon="77.68987">
        <ele>4717.2</ele>
        <time>2015-09-06T05:20:55Z</time>
      </trkpt>
      <trkpt lat="33.7174" lon="77.68987">
        <ele>4716.2</ele>
        <time>2015-09-06T05:21:12Z</time>
      </trkpt>
      <trkpt lat="33.71734" lon="77.68985">
        <ele>4716</ele>
        <time>2015-09-06T05:22:18Z</time>
      </trkpt>
      <trkpt lat="33.71731" lon="77.6898">
        <ele>4716.6</ele>
        <time>2015-09-06T05:22:23Z</time>
      </trkpt>
      <trkpt lat="33.71734" lon="77.68981">
        <ele>4715.2</ele>
        <time>2015-09-06T05:22:56Z</time>
      </trkpt>
      <trkpt lat="33.71745" lon="77.68988">
        <ele>4714.8</ele>
        <time>2015-09-06T05:23:38Z</time>
      </trkpt>
      <trkpt lat="33.71743" lon="77.68987">
        <ele>4714.2</ele>
        <time>2015-09-06T05:23:45Z</time>
      </trkpt>
      <trkpt lat="33.71742" lon="77.68987">
        <ele>4715.2</ele>
        <time>2015-09-06T05:24:07Z</time>
      </trkpt>
      <trkpt lat="33.71739" lon="77.68988">
        <ele>4714.8</ele>
        <time>2015-09-06T05:24:14Z</time>
      </trkpt>
      <trkpt lat="33.71742" lon="77.68989">
        <ele>4715</ele>
        <time>2015-09-06T05:24:24Z</time>
      </trkpt>
      <trkpt lat="33.71739" lon="77.68986">
        <ele>4715.2</ele>
        <time>2015-09-06T05:24:34Z</time>
      </trkpt>
      <trkpt lat="33.71739" lon="77.68983">
        <ele>4714.2</ele>
        <time>2015-09-06T05:24:47Z</time>
      </trkpt>
      <trkpt lat="33.71744" lon="77.68984">
        <ele>4713.2</ele>
        <time>2015-09-06T05:25:51Z</time>
      </trkpt>
      <trkpt lat="33.71744" lon="77.68984">
        <ele>4713.2</ele>
        <time>2015-09-06T05:25:53Z</time>
      </trkpt>
      <trkpt lat="33.7174" lon="77.6899">
        <ele>4713.6</ele>
        <time>2015-09-06T05:26:34Z</time>
      </trkpt>
      <trkpt lat="33.71738" lon="77.68991">
        <ele>4713.6</ele>
        <time>2015-09-06T05:26:36Z</time>
      </trkpt>
      <trkpt lat="33.71738" lon="77.68989">
        <ele>4713</ele>
        <time>2015-09-06T05:26:48Z</time>
      </trkpt>
      <trkpt lat="33.71736" lon="77.68988">
        <ele>4712.8</ele>
        <time>2015-09-06T05:27:08Z</time>
      </trkpt>
      <trkpt lat="33.71738" lon="77.68985">
        <ele>4712.2</ele>
        <time>2015-09-06T05:27:12Z</time>
      </trkpt>
      <trkpt lat="33.71732" lon="77.68979">
        <ele>4711.8</ele>
        <time>2015-09-06T05:27:26Z</time>
      </trkpt>
      <trkpt lat="33.71729" lon="77.68979">
        <ele>4711.2</ele>
        <time>2015-09-06T05:27:31Z</time>
      </trkpt>
      <trkpt lat="33.71726" lon="77.6898">
        <ele>4710.8</ele>
        <time>2015-09-06T05:27:34Z</time>
      </trkpt>
      <trkpt lat="33.71723" lon="77.68982">
        <ele>4710.8</ele>
        <time>2015-09-06T05:27:38Z</time>
      </trkpt>
      <trkpt lat="33.71722" lon="77.68982">
        <ele>4710.8</ele>
        <time>2015-09-06T05:27:39Z</time>
      </trkpt>
      <trkpt lat="33.7172" lon="77.68984">
        <ele>4710.6</ele>
        <time>2015-09-06T05:27:41Z</time>
      </trkpt>
      <trkpt lat="33.71718" lon="77.68986">
        <ele>4710.4</ele>
        <time>2015-09-06T05:27:43Z</time>
      </trkpt>
      <trkpt lat="33.71715" lon="77.68988">
        <ele>4710</ele>
        <time>2015-09-06T05:27:46Z</time>
      </trkpt>
      <trkpt lat="33.71711" lon="77.68989">
        <ele>4709.2</ele>
        <time>2015-09-06T05:27:50Z</time>
      </trkpt>
      <trkpt lat="33.7171" lon="77.68991">
        <ele>4709.2</ele>
        <time>2015-09-06T05:27:53Z</time>
      </trkpt>
      <trkpt lat="33.71706" lon="77.68997">
        <ele>4708.8</ele>
        <time>2015-09-06T05:28:00Z</time>
      </trkpt>
      <trkpt lat="33.71704" lon="77.69">
        <ele>4707.8</ele>
        <time>2015-09-06T05:28:04Z</time>
      </trkpt>
      <trkpt lat="33.71698" lon="77.69002">
        <ele>4706.8</ele>
        <time>2015-09-06T05:28:12Z</time>
      </trkpt>
      <trkpt lat="33.71694" lon="77.69007">
        <ele>4705.6</ele>
        <time>2015-09-06T05:28:20Z</time>
      </trkpt>
      <trkpt lat="33.71691" lon="77.69011">
        <ele>4705.6</ele>
        <time>2015-09-06T05:28:24Z</time>
      </trkpt>
      <trkpt lat="33.71689" lon="77.69012">
        <ele>4705.4</ele>
        <time>2015-09-06T05:28:26Z</time>
      </trkpt>
      <trkpt lat="33.71685" lon="77.69013">
        <ele>4704.6</ele>
        <time>2015-09-06T05:28:30Z</time>
      </trkpt>
      <trkpt lat="33.71678" lon="77.69015">
        <ele>4703.4</ele>
        <time>2015-09-06T05:28:38Z</time>
      </trkpt>
      <trkpt lat="33.7167" lon="77.69015">
        <ele>4702.6</ele>
        <time>2015-09-06T05:28:46Z</time>
      </trkpt>
      <trkpt lat="33.71668" lon="77.69015">
        <ele>4702.2</ele>
        <time>2015-09-06T05:28:47Z</time>
      </trkpt>
      <trkpt lat="33.71659" lon="77.69014">
        <ele>4701.2</ele>
        <time>2015-09-06T05:28:56Z</time>
      </trkpt>
      <trkpt lat="33.71651" lon="77.69014">
        <ele>4700</ele>
        <time>2015-09-06T05:29:04Z</time>
      </trkpt>
      <trkpt lat="33.71644" lon="77.69015">
        <ele>4699</ele>
        <time>2015-09-06T05:29:10Z</time>
      </trkpt>
      <trkpt lat="33.71636" lon="77.69018">
        <ele>4698</ele>
        <time>2015-09-06T05:29:18Z</time>
      </trkpt>
      <trkpt lat="33.71632" lon="77.69019">
        <ele>4696.8</ele>
        <time>2015-09-06T05:29:24Z</time>
      </trkpt>
      <trkpt lat="33.71626" lon="77.69018">
        <ele>4696.4</ele>
        <time>2015-09-06T05:29:30Z</time>
      </trkpt>
      <trkpt lat="33.7162" lon="77.69016">
        <ele>4695.8</ele>
        <time>2015-09-06T05:29:36Z</time>
      </trkpt>
      <trkpt lat="33.71617" lon="77.69016">
        <ele>4694.6</ele>
        <time>2015-09-06T05:29:40Z</time>
      </trkpt>
      <trkpt lat="33.71608" lon="77.69016">
        <ele>4693.6</ele>
        <time>2015-09-06T05:29:48Z</time>
      </trkpt>
      <trkpt lat="33.71598" lon="77.69014">
        <ele>4692.4</ele>
        <time>2015-09-06T05:30:00Z</time>
      </trkpt>
      <trkpt lat="33.71592" lon="77.69015">
        <ele>4691.4</ele>
        <time>2015-09-06T05:30:05Z</time>
      </trkpt>
      <trkpt lat="33.7159" lon="77.69019">
        <ele>4690.8</ele>
        <time>2015-09-06T05:30:08Z</time>
      </trkpt>
      <trkpt lat="33.71589" lon="77.69023">
        <ele>4690.4</ele>
        <time>2015-09-06T05:30:11Z</time>
      </trkpt>
      <trkpt lat="33.71587" lon="77.69025">
        <ele>4690.4</ele>
        <time>2015-09-06T05:30:14Z</time>
      </trkpt>
      <trkpt lat="33.71587" lon="77.6902">
        <ele>4690.6</ele>
        <time>2015-09-06T05:30:18Z</time>
      </trkpt>
      <trkpt lat="33.71585" lon="77.69016">
        <ele>4690.8</ele>
        <time>2015-09-06T05:30:21Z</time>
      </trkpt>
      <trkpt lat="33.71588" lon="77.69019">
        <ele>4690.8</ele>
        <time>2015-09-06T05:30:31Z</time>
      </trkpt>
      <trkpt lat="33.71586" lon="77.69024">
        <ele>4690</ele>
        <time>2015-09-06T05:30:34Z</time>
      </trkpt>
      <trkpt lat="33.71583" lon="77.69027">
        <ele>4689.2</ele>
        <time>2015-09-06T05:30:37Z</time>
      </trkpt>
      <trkpt lat="33.7158" lon="77.69031">
        <ele>4688.2</ele>
        <time>2015-09-06T05:30:41Z</time>
      </trkpt>
      <trkpt lat="33.71578" lon="77.69033">
        <ele>4688.2</ele>
        <time>2015-09-06T05:30:43Z</time>
      </trkpt>
      <trkpt lat="33.71574" lon="77.69042">
        <ele>4687</ele>
        <time>2015-09-06T05:30:49Z</time>
      </trkpt>
      <trkpt lat="33.71568" lon="77.69043">
        <ele>4685.8</ele>
        <time>2015-09-06T05:30:54Z</time>
      </trkpt>
      <trkpt lat="33.71563" lon="77.69042">
        <ele>4684.8</ele>
        <time>2015-09-06T05:31:01Z</time>
      </trkpt>
      <trkpt lat="33.71546" lon="77.69046">
        <ele>4683.6</ele>
        <time>2015-09-06T05:31:15Z</time>
      </trkpt>
      <trkpt lat="33.7154" lon="77.69049">
        <ele>4683.2</ele>
        <time>2015-09-06T05:31:20Z</time>
      </trkpt>
      <trkpt lat="33.71538" lon="77.69049">
        <ele>4682.8</ele>
        <time>2015-09-06T05:31:22Z</time>
      </trkpt>
      <trkpt lat="33.71535" lon="77.69052">
        <ele>4682.6</ele>
        <time>2015-09-06T05:31:25Z</time>
      </trkpt>
      <trkpt lat="33.71526" lon="77.69053">
        <ele>4681.6</ele>
        <time>2015-09-06T05:31:33Z</time>
      </trkpt>
      <trkpt lat="33.7152" lon="77.69053">
        <ele>4680.4</ele>
        <time>2015-09-06T05:31:40Z</time>
      </trkpt>
      <trkpt lat="33.71518" lon="77.69053">
        <ele>4680</ele>
        <time>2015-09-06T05:31:43Z</time>
      </trkpt>
      <trkpt lat="33.71515" lon="77.69052">
        <ele>4679.4</ele>
        <time>2015-09-06T05:31:46Z</time>
      </trkpt>
      <trkpt lat="33.71508" lon="77.69056">
        <ele>4678.4</ele>
        <time>2015-09-06T05:31:53Z</time>
      </trkpt>
      <trkpt lat="33.71504" lon="77.69059">
        <ele>4677.8</ele>
        <time>2015-09-06T05:31:57Z</time>
      </trkpt>
      <trkpt lat="33.71499" lon="77.6906">
        <ele>4677.2</ele>
        <time>2015-09-06T05:32:02Z</time>
      </trkpt>
      <trkpt lat="33.71495" lon="77.69062">
        <ele>4676.6</ele>
        <time>2015-09-06T05:32:05Z</time>
      </trkpt>
      <trkpt lat="33.71494" lon="77.69063">
        <ele>4676.2</ele>
        <time>2015-09-06T05:32:06Z</time>
      </trkpt>
      <trkpt lat="33.71488" lon="77.69067">
        <ele>4675.2</ele>
        <time>2015-09-06T05:32:11Z</time>
      </trkpt>
      <trkpt lat="33.71481" lon="77.69069">
        <ele>4674.2</ele>
        <time>2015-09-06T05:32:18Z</time>
      </trkpt>
      <trkpt lat="33.71473" lon="77.69073">
        <ele>4673</ele>
        <time>2015-09-06T05:32:25Z</time>
      </trkpt>
      <trkpt lat="33.71468" lon="77.69076">
        <ele>4672</ele>
        <time>2015-09-06T05:32:30Z</time>
      </trkpt>
      <trkpt lat="33.71464" lon="77.69078">
        <ele>4671.4</ele>
        <time>2015-09-06T05:32:35Z</time>
      </trkpt>
      <trkpt lat="33.7146" lon="77.6908">
        <ele>4670.8</ele>
        <time>2015-09-06T05:32:40Z</time>
      </trkpt>
      <trkpt lat="33.71456" lon="77.69081">
        <ele>4669.6</ele>
        <time>2015-09-06T05:32:47Z</time>
      </trkpt>
      <trkpt lat="33.71451" lon="77.69084">
        <ele>4668.4</ele>
        <time>2015-09-06T05:32:53Z</time>
      </trkpt>
      <trkpt lat="33.71447" lon="77.69091">
        <ele>4668</ele>
        <time>2015-09-06T05:32:57Z</time>
      </trkpt>
      <trkpt lat="33.71444" lon="77.69096">
        <ele>4667.4</ele>
        <time>2015-09-06T05:33:00Z</time>
      </trkpt>
      <trkpt lat="33.71438" lon="77.69109">
        <ele>4666.4</ele>
        <time>2015-09-06T05:33:07Z</time>
      </trkpt>
      <trkpt lat="33.71435" lon="77.69111">
        <ele>4665.6</ele>
        <time>2015-09-06T05:33:10Z</time>
      </trkpt>
      <trkpt lat="33.71433" lon="77.69112">
        <ele>4665.4</ele>
        <time>2015-09-06T05:33:12Z</time>
      </trkpt>
      <trkpt lat="33.71423" lon="77.69114">
        <ele>4664.4</ele>
        <time>2015-09-06T05:33:20Z</time>
      </trkpt>
      <trkpt lat="33.71418" lon="77.69111">
        <ele>4663.4</ele>
        <time>2015-09-06T05:33:26Z</time>
      </trkpt>
      <trkpt lat="33.71417" lon="77.69111">
        <ele>4663.2</ele>
        <time>2015-09-06T05:33:27Z</time>
      </trkpt>
      <trkpt lat="33.71414" lon="77.6911">
        <ele>4662.6</ele>
        <time>2015-09-06T05:33:30Z</time>
      </trkpt>
      <trkpt lat="33.71412" lon="77.6911">
        <ele>4662</ele>
        <time>2015-09-06T05:33:32Z</time>
      </trkpt>
      <trkpt lat="33.71402" lon="77.69118">
        <ele>4661</ele>
        <time>2015-09-06T05:33:40Z</time>
      </trkpt>
      <trkpt lat="33.71394" lon="77.69119">
        <ele>4660</ele>
        <time>2015-09-06T05:33:47Z</time>
      </trkpt>
      <trkpt lat="33.71385" lon="77.69119">
        <ele>4658.8</ele>
        <time>2015-09-06T05:33:55Z</time>
      </trkpt>
      <trkpt lat="33.71367" lon="77.69127">
        <ele>4657.8</ele>
        <time>2015-09-06T05:34:11Z</time>
      </trkpt>
      <trkpt lat="33.71366" lon="77.69127">
        <ele>4657.8</ele>
        <time>2015-09-06T05:34:12Z</time>
      </trkpt>
      <trkpt lat="33.71354" lon="77.69132">
        <ele>4656.6</ele>
        <time>2015-09-06T05:34:23Z</time>
      </trkpt>
      <trkpt lat="33.71345" lon="77.69138">
        <ele>4656</ele>
        <time>2015-09-06T05:34:32Z</time>
      </trkpt>
      <trkpt lat="33.71342" lon="77.69138">
        <ele>4655.6</ele>
        <time>2015-09-06T05:34:34Z</time>
      </trkpt>
      <trkpt lat="33.71341" lon="77.69138">
        <ele>4655.4</ele>
        <time>2015-09-06T05:34:35Z</time>
      </trkpt>
      <trkpt lat="33.71334" lon="77.6914">
        <ele>4654.6</ele>
        <time>2015-09-06T05:34:41Z</time>
      </trkpt>
      <trkpt lat="33.71332" lon="77.69141">
        <ele>4654.2</ele>
        <time>2015-09-06T05:34:43Z</time>
      </trkpt>
      <trkpt lat="33.7133" lon="77.69142">
        <ele>4654</ele>
        <time>2015-09-06T05:34:45Z</time>
      </trkpt>
      <trkpt lat="33.71327" lon="77.69143">
        <ele>4653.6</ele>
        <time>2015-09-06T05:34:48Z</time>
      </trkpt>
      <trkpt lat="33.71326" lon="77.69143">
        <ele>4653.6</ele>
        <time>2015-09-06T05:34:49Z</time>
      </trkpt>
      <trkpt lat="33.71325" lon="77.69143">
        <ele>4653.4</ele>
        <time>2015-09-06T05:34:50Z</time>
      </trkpt>
      <trkpt lat="33.71323" lon="77.69145">
        <ele>4652.8</ele>
        <time>2015-09-06T05:34:53Z</time>
      </trkpt>
      <trkpt lat="33.71321" lon="77.69145">
        <ele>4652.4</ele>
        <time>2015-09-06T05:34:55Z</time>
      </trkpt>
      <trkpt lat="33.71307" lon="77.69148">
        <ele>4652</ele>
        <time>2015-09-06T05:35:07Z</time>
      </trkpt>
      <trkpt lat="33.71304" lon="77.69148">
        <ele>4651.6</ele>
        <time>2015-09-06T05:35:10Z</time>
      </trkpt>
      <trkpt lat="33.71302" lon="77.69149">
        <ele>4651.2</ele>
        <time>2015-09-06T05:35:11Z</time>
      </trkpt>
      <trkpt lat="33.71301" lon="77.6915">
        <ele>4651</ele>
        <time>2015-09-06T05:35:12Z</time>
      </trkpt>
      <trkpt lat="33.71292" lon="77.69152">
        <ele>4650.4</ele>
        <time>2015-09-06T05:35:18Z</time>
      </trkpt>
      <trkpt lat="33.71291" lon="77.69152">
        <ele>4650.2</ele>
        <time>2015-09-06T05:35:19Z</time>
      </trkpt>
      <trkpt lat="33.71274" lon="77.69162">
        <ele>4649.8</ele>
        <time>2015-09-06T05:35:32Z</time>
      </trkpt>
      <trkpt lat="33.71271" lon="77.69164">
        <ele>4649.2</ele>
        <time>2015-09-06T05:35:38Z</time>
      </trkpt>
      <trkpt lat="33.71267" lon="77.69165">
        <ele>4648</ele>
        <time>2015-09-06T05:35:43Z</time>
      </trkpt>
      <trkpt lat="33.71266" lon="77.69164">
        <ele>4646.8</ele>
        <time>2015-09-06T05:35:46Z</time>
      </trkpt>
      <trkpt lat="33.71264" lon="77.69166">
        <ele>4646.2</ele>
        <time>2015-09-06T05:35:52Z</time>
      </trkpt>
      <trkpt lat="33.71261" lon="77.69166">
        <ele>4645.8</ele>
        <time>2015-09-06T05:35:55Z</time>
      </trkpt>
      <trkpt lat="33.71258" lon="77.69168">
        <ele>4645</ele>
        <time>2015-09-06T05:35:58Z</time>
      </trkpt>
      <trkpt lat="33.71256" lon="77.69168">
        <ele>4644.6</ele>
        <time>2015-09-06T05:35:59Z</time>
      </trkpt>
      <trkpt lat="33.71254" lon="77.69169">
        <ele>4643.4</ele>
        <time>2015-09-06T05:36:01Z</time>
      </trkpt>
      <trkpt lat="33.71249" lon="77.6917">
        <ele>4642.4</ele>
        <time>2015-09-06T05:36:07Z</time>
      </trkpt>
      <trkpt lat="33.71245" lon="77.69167">
        <ele>4641.2</ele>
        <time>2015-09-06T05:36:12Z</time>
      </trkpt>
      <trkpt lat="33.71245" lon="77.69167">
        <ele>4640.6</ele>
        <time>2015-09-06T05:36:13Z</time>
      </trkpt>
      <trkpt lat="33.71243" lon="77.69167">
        <ele>4640</ele>
        <time>2015-09-06T05:36:15Z</time>
      </trkpt>
      <trkpt lat="33.71241" lon="77.69167">
        <ele>4639.8</ele>
        <time>2015-09-06T05:36:17Z</time>
      </trkpt>
      <trkpt lat="33.71234" lon="77.69167">
        <ele>4639</ele>
        <time>2015-09-06T05:36:25Z</time>
      </trkpt>
      <trkpt lat="33.71227" lon="77.69172">
        <ele>4637.8</ele>
        <time>2015-09-06T05:36:32Z</time>
      </trkpt>
      <trkpt lat="33.71224" lon="77.69172">
        <ele>4637.2</ele>
        <time>2015-09-06T05:36:36Z</time>
      </trkpt>
      <trkpt lat="33.71222" lon="77.69172">
        <ele>4636.8</ele>
        <time>2015-09-06T05:36:37Z</time>
      </trkpt>
      <trkpt lat="33.71219" lon="77.69172">
        <ele>4635.6</ele>
        <time>2015-09-06T05:36:41Z</time>
      </trkpt>
      <trkpt lat="33.71217" lon="77.69173">
        <ele>4634.4</ele>
        <time>2015-09-06T05:36:44Z</time>
      </trkpt>
      <trkpt lat="33.71213" lon="77.69175">
        <ele>4633.4</ele>
        <time>2015-09-06T05:36:49Z</time>
      </trkpt>
      <trkpt lat="33.71207" lon="77.69179">
        <ele>4632.2</ele>
        <time>2015-09-06T05:36:55Z</time>
      </trkpt>
      <trkpt lat="33.71205" lon="77.69182">
        <ele>4631.6</ele>
        <time>2015-09-06T05:36:58Z</time>
      </trkpt>
      <trkpt lat="33.71203" lon="77.6918">
        <ele>4631</ele>
        <time>2015-09-06T05:37:00Z</time>
      </trkpt>
      <trkpt lat="33.71201" lon="77.69178">
        <ele>4629.4</ele>
        <time>2015-09-06T05:37:02Z</time>
      </trkpt>
      <trkpt lat="33.71199" lon="77.69175">
        <ele>4628.2</ele>
        <time>2015-09-06T05:37:05Z</time>
      </trkpt>
      <trkpt lat="33.71195" lon="77.69173">
        <ele>4627</ele>
        <time>2015-09-06T05:37:09Z</time>
      </trkpt>
      <trkpt lat="33.71194" lon="77.69173">
        <ele>4626.8</ele>
        <time>2015-09-06T05:37:10Z</time>
      </trkpt>
      <trkpt lat="33.71185" lon="77.69174">
        <ele>4626</ele>
        <time>2015-09-06T05:37:17Z</time>
      </trkpt>
      <trkpt lat="33.71176" lon="77.69173">
        <ele>4624.8</ele>
        <time>2015-09-06T05:37:26Z</time>
      </trkpt>
      <trkpt lat="33.7117" lon="77.69173">
        <ele>4623.8</ele>
        <time>2015-09-06T05:37:34Z</time>
      </trkpt>
      <trkpt lat="33.71166" lon="77.69172">
        <ele>4623.4</ele>
        <time>2015-09-06T05:37:37Z</time>
      </trkpt>
      <trkpt lat="33.7116" lon="77.69171">
        <ele>4622.4</ele>
        <time>2015-09-06T05:37:42Z</time>
      </trkpt>
      <trkpt lat="33.71158" lon="77.69171">
        <ele>4622</ele>
        <time>2015-09-06T05:37:44Z</time>
      </trkpt>
      <trkpt lat="33.7115" lon="77.69172">
        <ele>4621.2</ele>
        <time>2015-09-06T05:37:50Z</time>
      </trkpt>
      <trkpt lat="33.71131" lon="77.69169">
        <ele>4620.2</ele>
        <time>2015-09-06T05:38:05Z</time>
      </trkpt>
      <trkpt lat="33.7113" lon="77.69169">
        <ele>4620</ele>
        <time>2015-09-06T05:38:06Z</time>
      </trkpt>
      <trkpt lat="33.71129" lon="77.69169">
        <ele>4619.8</ele>
        <time>2015-09-06T05:38:07Z</time>
      </trkpt>
      <trkpt lat="33.71122" lon="77.69168">
        <ele>4619</ele>
        <time>2015-09-06T05:38:14Z</time>
      </trkpt>
      <trkpt lat="33.71119" lon="77.69169">
        <ele>4618.6</ele>
        <time>2015-09-06T05:38:16Z</time>
      </trkpt>
      <trkpt lat="33.71119" lon="77.69169">
        <ele>4618.6</ele>
        <time>2015-09-06T05:38:17Z</time>
      </trkpt>
      <trkpt lat="33.71116" lon="77.6917">
        <ele>4618.2</ele>
        <time>2015-09-06T05:38:20Z</time>
      </trkpt>
      <trkpt lat="33.71112" lon="77.69168">
        <ele>4618</ele>
        <time>2015-09-06T05:38:23Z</time>
      </trkpt>
      <trkpt lat="33.71106" lon="77.69167">
        <ele>4616.8</ele>
        <time>2015-09-06T05:38:28Z</time>
      </trkpt>
      <trkpt lat="33.71094" lon="77.69164">
        <ele>4615.6</ele>
        <time>2015-09-06T05:38:38Z</time>
      </trkpt>
      <trkpt lat="33.7109" lon="77.69162">
        <ele>4614.6</ele>
        <time>2015-09-06T05:38:44Z</time>
      </trkpt>
      <trkpt lat="33.71084" lon="77.69164">
        <ele>4613.6</ele>
        <time>2015-09-06T05:38:50Z</time>
      </trkpt>
      <trkpt lat="33.71079" lon="77.69162">
        <ele>4612.4</ele>
        <time>2015-09-06T05:38:59Z</time>
      </trkpt>
      <trkpt lat="33.71078" lon="77.69162">
        <ele>4612</ele>
        <time>2015-09-06T05:39:01Z</time>
      </trkpt>
      <trkpt lat="33.71075" lon="77.69161">
        <ele>4611.2</ele>
        <time>2015-09-06T05:39:05Z</time>
      </trkpt>
      <trkpt lat="33.7107" lon="77.69163">
        <ele>4610.4</ele>
        <time>2015-09-06T05:39:10Z</time>
      </trkpt>
      <trkpt lat="33.71068" lon="77.69164">
        <ele>4610.2</ele>
        <time>2015-09-06T05:39:12Z</time>
      </trkpt>
      <trkpt lat="33.71058" lon="77.69179">
        <ele>4609</ele>
        <time>2015-09-06T05:39:24Z</time>
      </trkpt>
      <trkpt lat="33.71056" lon="77.69179">
        <ele>4607.2</ele>
        <time>2015-09-06T05:39:26Z</time>
      </trkpt>
      <trkpt lat="33.71054" lon="77.69179">
        <ele>4606</ele>
        <time>2015-09-06T05:39:28Z</time>
      </trkpt>
      <trkpt lat="33.71045" lon="77.69179">
        <ele>4606.2</ele>
        <time>2015-09-06T05:39:37Z</time>
      </trkpt>
      <trkpt lat="33.71038" lon="77.69187">
        <ele>4605</ele>
        <time>2015-09-06T05:39:43Z</time>
      </trkpt>
      <trkpt lat="33.71031" lon="77.69192">
        <ele>4603.8</ele>
        <time>2015-09-06T05:39:54Z</time>
      </trkpt>
      <trkpt lat="33.7103" lon="77.69193">
        <ele>4603.8</ele>
        <time>2015-09-06T05:39:55Z</time>
      </trkpt>
      <trkpt lat="33.71028" lon="77.69193">
        <ele>4603.6</ele>
        <time>2015-09-06T05:39:57Z</time>
      </trkpt>
      <trkpt lat="33.71027" lon="77.69193">
        <ele>4603.2</ele>
        <time>2015-09-06T05:39:59Z</time>
      </trkpt>
      <trkpt lat="33.71024" lon="77.69195">
        <ele>4602.8</ele>
        <time>2015-09-06T05:40:02Z</time>
      </trkpt>
      <trkpt lat="33.7102" lon="77.69194">
        <ele>4601.2</ele>
        <time>2015-09-06T05:40:08Z</time>
      </trkpt>
      <trkpt lat="33.71019" lon="77.69194">
        <ele>4600.2</ele>
        <time>2015-09-06T05:40:09Z</time>
      </trkpt>
      <trkpt lat="33.71018" lon="77.69194">
        <ele>4599</ele>
        <time>2015-09-06T05:40:11Z</time>
      </trkpt>
      <trkpt lat="33.71015" lon="77.69193">
        <ele>4598.6</ele>
        <time>2015-09-06T05:40:14Z</time>
      </trkpt>
      <trkpt lat="33.71012" lon="77.69191">
        <ele>4597.8</ele>
        <time>2015-09-06T05:40:18Z</time>
      </trkpt>
      <trkpt lat="33.71011" lon="77.6919">
        <ele>4596.8</ele>
        <time>2015-09-06T05:40:20Z</time>
      </trkpt>
      <trkpt lat="33.7101" lon="77.6919">
        <ele>4596.4</ele>
        <time>2015-09-06T05:40:21Z</time>
      </trkpt>
      <trkpt lat="33.71008" lon="77.69198">
        <ele>4597</ele>
        <time>2015-09-06T05:40:29Z</time>
      </trkpt>
      <trkpt lat="33.71006" lon="77.69201">
        <ele>4596.8</ele>
        <time>2015-09-06T05:40:32Z</time>
      </trkpt>
      <trkpt lat="33.71004" lon="77.69211">
        <ele>4596</ele>
        <time>2015-09-06T05:40:37Z</time>
      </trkpt>
      <trkpt lat="33.71002" lon="77.69212">
        <ele>4595.8</ele>
        <time>2015-09-06T05:40:39Z</time>
      </trkpt>
      <trkpt lat="33.71002" lon="77.69211">
        <ele>4595.6</ele>
        <time>2015-09-06T05:40:40Z</time>
      </trkpt>
      <trkpt lat="33.70996" lon="77.69218">
        <ele>4594.8</ele>
        <time>2015-09-06T05:40:47Z</time>
      </trkpt>
      <trkpt lat="33.70991" lon="77.6922">
        <ele>4593.6</ele>
        <time>2015-09-06T05:40:52Z</time>
      </trkpt>
      <trkpt lat="33.70987" lon="77.6922">
        <ele>4592.2</ele>
        <time>2015-09-06T05:40:55Z</time>
      </trkpt>
      <trkpt lat="33.70982" lon="77.69218">
        <ele>4591</ele>
        <time>2015-09-06T05:41:00Z</time>
      </trkpt>
      <trkpt lat="33.70981" lon="77.69215">
        <ele>4590.8</ele>
        <time>2015-09-06T05:41:01Z</time>
      </trkpt>
      <trkpt lat="33.70976" lon="77.69215">
        <ele>4590.2</ele>
        <time>2015-09-06T05:41:06Z</time>
      </trkpt>
      <trkpt lat="33.70975" lon="77.69217">
        <ele>4590</ele>
        <time>2015-09-06T05:41:09Z</time>
      </trkpt>
      <trkpt lat="33.70971" lon="77.69214">
        <ele>4589</ele>
        <time>2015-09-06T05:41:14Z</time>
      </trkpt>
      <trkpt lat="33.70965" lon="77.69212">
        <ele>4588</ele>
        <time>2015-09-06T05:41:22Z</time>
      </trkpt>
      <trkpt lat="33.7095" lon="77.69213">
        <ele>4586.8</ele>
        <time>2015-09-06T05:41:39Z</time>
      </trkpt>
      <trkpt lat="33.70949" lon="77.69213">
        <ele>4586.6</ele>
        <time>2015-09-06T05:41:40Z</time>
      </trkpt>
      <trkpt lat="33.70942" lon="77.69212">
        <ele>4585.8</ele>
        <time>2015-09-06T05:41:46Z</time>
      </trkpt>
      <trkpt lat="33.70939" lon="77.69215">
        <ele>4585.6</ele>
        <time>2015-09-06T05:41:48Z</time>
      </trkpt>
      <trkpt lat="33.70935" lon="77.69216">
        <ele>4584.4</ele>
        <time>2015-09-06T05:41:52Z</time>
      </trkpt>
      <trkpt lat="33.70928" lon="77.69216">
        <ele>4583.4</ele>
        <time>2015-09-06T05:42:00Z</time>
      </trkpt>
      <trkpt lat="33.70922" lon="77.69217">
        <ele>4582.2</ele>
        <time>2015-09-06T05:42:07Z</time>
      </trkpt>
      <trkpt lat="33.70919" lon="77.69219">
        <ele>4581.2</ele>
        <time>2015-09-06T05:42:10Z</time>
      </trkpt>
      <trkpt lat="33.70918" lon="77.69219">
        <ele>4580.8</ele>
        <time>2015-09-06T05:42:12Z</time>
      </trkpt>
      <trkpt lat="33.70914" lon="77.6922">
        <ele>4580.6</ele>
        <time>2015-09-06T05:42:19Z</time>
      </trkpt>
      <trkpt lat="33.70911" lon="77.69219">
        <ele>4580</ele>
        <time>2015-09-06T05:42:21Z</time>
      </trkpt>
      <trkpt lat="33.70903" lon="77.6922">
        <ele>4579.4</ele>
        <time>2015-09-06T05:42:26Z</time>
      </trkpt>
      <trkpt lat="33.70902" lon="77.6922">
        <ele>4579.2</ele>
        <time>2015-09-06T05:42:28Z</time>
      </trkpt>
      <trkpt lat="33.70901" lon="77.6922">
        <ele>4579</ele>
        <time>2015-09-06T05:42:29Z</time>
      </trkpt>
      <trkpt lat="33.70897" lon="77.69219">
        <ele>4580</ele>
        <time>2015-09-06T05:42:36Z</time>
      </trkpt>
      <trkpt lat="33.70887" lon="77.69215">
        <ele>4579</ele>
        <time>2015-09-06T05:42:45Z</time>
      </trkpt>
      <trkpt lat="33.7088" lon="77.69218">
        <ele>4578</ele>
        <time>2015-09-06T05:42:49Z</time>
      </trkpt>
      <trkpt lat="33.70872" lon="77.69217">
        <ele>4577.6</ele>
        <time>2015-09-06T05:42:57Z</time>
      </trkpt>
      <trkpt lat="33.7087" lon="77.69219">
        <ele>4576.8</ele>
        <time>2015-09-06T05:43:00Z</time>
      </trkpt>
      <trkpt lat="33.70867" lon="77.69221">
        <ele>4575.6</ele>
        <time>2015-09-06T05:43:04Z</time>
      </trkpt>
      <trkpt lat="33.70863" lon="77.69219">
        <ele>4575</ele>
        <time>2015-09-06T05:43:07Z</time>
      </trkpt>
      <trkpt lat="33.7086" lon="77.69219">
        <ele>4574.6</ele>
        <time>2015-09-06T05:43:09Z</time>
      </trkpt>
      <trkpt lat="33.70846" lon="77.69219">
        <ele>4573.6</ele>
        <time>2015-09-06T05:43:22Z</time>
      </trkpt>
      <trkpt lat="33.70845" lon="77.69221">
        <ele>4573.4</ele>
        <time>2015-09-06T05:43:23Z</time>
      </trkpt>
      <trkpt lat="33.70841" lon="77.69229">
        <ele>4572.6</ele>
        <time>2015-09-06T05:43:28Z</time>
      </trkpt>
      <trkpt lat="33.70833" lon="77.69229">
        <ele>4572.4</ele>
        <time>2015-09-06T05:43:35Z</time>
      </trkpt>
      <trkpt lat="33.70828" lon="77.69228">
        <ele>4571.4</ele>
        <time>2015-09-06T05:43:41Z</time>
      </trkpt>
      <trkpt lat="33.70828" lon="77.69228">
        <ele>4570.8</ele>
        <time>2015-09-06T05:43:42Z</time>
      </trkpt>
      <trkpt lat="33.70828" lon="77.69224">
        <ele>4569.8</ele>
        <time>2015-09-06T05:43:46Z</time>
      </trkpt>
      <trkpt lat="33.70823" lon="77.69225">
        <ele>4568.6</ele>
        <time>2015-09-06T05:43:50Z</time>
      </trkpt>
      <trkpt lat="33.70821" lon="77.69222">
        <ele>4568</ele>
        <time>2015-09-06T05:43:52Z</time>
      </trkpt>
      <trkpt lat="33.70812" lon="77.69217">
        <ele>4567.4</ele>
        <time>2015-09-06T05:43:56Z</time>
      </trkpt>
      <trkpt lat="33.70809" lon="77.69216">
        <ele>4566</ele>
        <time>2015-09-06T05:44:01Z</time>
      </trkpt>
      <trkpt lat="33.70802" lon="77.6921">
        <ele>4565</ele>
        <time>2015-09-06T05:44:15Z</time>
      </trkpt>
      <trkpt lat="33.708" lon="77.69214">
        <ele>4564.6</ele>
        <time>2015-09-06T05:44:21Z</time>
      </trkpt>
      <trkpt lat="33.70794" lon="77.6921">
        <ele>4564</ele>
        <time>2015-09-06T05:44:29Z</time>
      </trkpt>
      <trkpt lat="33.70791" lon="77.69207">
        <ele>4563</ele>
        <time>2015-09-06T05:44:34Z</time>
      </trkpt>
      <trkpt lat="33.70775" lon="77.69197">
        <ele>4562.2</ele>
        <time>2015-09-06T05:44:47Z</time>
      </trkpt>
      <trkpt lat="33.70773" lon="77.69197">
        <ele>4562</ele>
        <time>2015-09-06T05:44:48Z</time>
      </trkpt>
      <trkpt lat="33.70767" lon="77.69197">
        <ele>4560.8</ele>
        <time>2015-09-06T05:44:52Z</time>
      </trkpt>
      <trkpt lat="33.70762" lon="77.69201">
        <ele>4559.8</ele>
        <time>2015-09-06T05:44:57Z</time>
      </trkpt>
      <trkpt lat="33.70759" lon="77.69201">
        <ele>4558.6</ele>
        <time>2015-09-06T05:45:02Z</time>
      </trkpt>
      <trkpt lat="33.70754" lon="77.69205">
        <ele>4557.4</ele>
        <time>2015-09-06T05:45:07Z</time>
      </trkpt>
      <trkpt lat="33.70751" lon="77.69205">
        <ele>4556.4</ele>
        <time>2015-09-06T05:45:11Z</time>
      </trkpt>
      <trkpt lat="33.70743" lon="77.69206">
        <ele>4556.2</ele>
        <time>2015-09-06T05:45:20Z</time>
      </trkpt>
      <trkpt lat="33.70739" lon="77.69204">
        <ele>4555.2</ele>
        <time>2015-09-06T05:45:24Z</time>
      </trkpt>
      <trkpt lat="33.70731" lon="77.692">
        <ele>4554.2</ele>
        <time>2015-09-06T05:45:32Z</time>
      </trkpt>
      <trkpt lat="33.70721" lon="77.69197">
        <ele>4553</ele>
        <time>2015-09-06T05:45:41Z</time>
      </trkpt>
      <trkpt lat="33.70707" lon="77.69205">
        <ele>4552</ele>
        <time>2015-09-06T05:45:53Z</time>
      </trkpt>
      <trkpt lat="33.70702" lon="77.6921">
        <ele>4551</ele>
        <time>2015-09-06T05:45:57Z</time>
      </trkpt>
      <trkpt lat="33.70698" lon="77.69217">
        <ele>4549.8</ele>
        <time>2015-09-06T05:46:03Z</time>
      </trkpt>
      <trkpt lat="33.70697" lon="77.69218">
        <ele>4549.2</ele>
        <time>2015-09-06T05:46:05Z</time>
      </trkpt>
      <trkpt lat="33.70696" lon="77.6922">
        <ele>4548.8</ele>
        <time>2015-09-06T05:46:06Z</time>
      </trkpt>
      <trkpt lat="33.70691" lon="77.69221">
        <ele>4547.6</ele>
        <time>2015-09-06T05:46:12Z</time>
      </trkpt>
      <trkpt lat="33.70686" lon="77.69222">
        <ele>4547.2</ele>
        <time>2015-09-06T05:46:17Z</time>
      </trkpt>
      <trkpt lat="33.70683" lon="77.69224">
        <ele>4546.6</ele>
        <time>2015-09-06T05:46:21Z</time>
      </trkpt>
      <trkpt lat="33.70672" lon="77.69231">
        <ele>4545.6</ele>
        <time>2015-09-06T05:46:32Z</time>
      </trkpt>
      <trkpt lat="33.70669" lon="77.69231">
        <ele>4545.4</ele>
        <time>2015-09-06T05:46:35Z</time>
      </trkpt>
      <trkpt lat="33.70668" lon="77.69231">
        <ele>4545.4</ele>
        <time>2015-09-06T05:46:37Z</time>
      </trkpt>
      <trkpt lat="33.70665" lon="77.6923">
        <ele>4545.2</ele>
        <time>2015-09-06T05:46:40Z</time>
      </trkpt>
      <trkpt lat="33.70662" lon="77.69231">
        <ele>4544.8</ele>
        <time>2015-09-06T05:46:45Z</time>
      </trkpt>
      <trkpt lat="33.70658" lon="77.69233">
        <ele>4544.8</ele>
        <time>2015-09-06T05:46:49Z</time>
      </trkpt>
      <trkpt lat="33.70655" lon="77.69232">
        <ele>4544.8</ele>
        <time>2015-09-06T05:46:54Z</time>
      </trkpt>
      <trkpt lat="33.70649" lon="77.69242">
        <ele>4544.6</ele>
        <time>2015-09-06T05:46:59Z</time>
      </trkpt>
      <trkpt lat="33.70645" lon="77.69248">
        <ele>4544.2</ele>
        <time>2015-09-06T05:47:03Z</time>
      </trkpt>
      <trkpt lat="33.70641" lon="77.69254">
        <ele>4543.4</ele>
        <time>2015-09-06T05:47:07Z</time>
      </trkpt>
      <trkpt lat="33.70639" lon="77.69254">
        <ele>4543</ele>
        <time>2015-09-06T05:47:09Z</time>
      </trkpt>
      <trkpt lat="33.70631" lon="77.69258">
        <ele>4543.2</ele>
        <time>2015-09-06T05:47:16Z</time>
      </trkpt>
      <trkpt lat="33.70624" lon="77.69276">
        <ele>4542.2</ele>
        <time>2015-09-06T05:47:33Z</time>
      </trkpt>
      <trkpt lat="33.70621" lon="77.69275">
        <ele>4541.2</ele>
        <time>2015-09-06T05:47:36Z</time>
      </trkpt>
      <trkpt lat="33.70613" lon="77.69274">
        <ele>4540.8</ele>
        <time>2015-09-06T05:47:43Z</time>
      </trkpt>
      <trkpt lat="33.70602" lon="77.69279">
        <ele>4541</ele>
        <time>2015-09-06T05:47:53Z</time>
      </trkpt>
      <trkpt lat="33.70599" lon="77.69279">
        <ele>4540.2</ele>
        <time>2015-09-06T05:47:57Z</time>
      </trkpt>
      <trkpt lat="33.70598" lon="77.6928">
        <ele>4540</ele>
        <time>2015-09-06T05:47:58Z</time>
      </trkpt>
      <trkpt lat="33.70595" lon="77.69283">
        <ele>4539.4</ele>
        <time>2015-09-06T05:48:02Z</time>
      </trkpt>
      <trkpt lat="33.70592" lon="77.69285">
        <ele>4539</ele>
        <time>2015-09-06T05:48:05Z</time>
      </trkpt>
      <trkpt lat="33.70591" lon="77.69286">
        <ele>4538.8</ele>
        <time>2015-09-06T05:48:06Z</time>
      </trkpt>
      <trkpt lat="33.70581" lon="77.69294">
        <ele>4537.8</ele>
        <time>2015-09-06T05:48:13Z</time>
      </trkpt>
      <trkpt lat="33.70581" lon="77.69292">
        <ele>4537.4</ele>
        <time>2015-09-06T05:48:14Z</time>
      </trkpt>
      <trkpt lat="33.70579" lon="77.69291">
        <ele>4536.6</ele>
        <time>2015-09-06T05:48:16Z</time>
      </trkpt>
      <trkpt lat="33.70575" lon="77.69294">
        <ele>4536</ele>
        <time>2015-09-06T05:48:19Z</time>
      </trkpt>
      <trkpt lat="33.70569" lon="77.693">
        <ele>4535.6</ele>
        <time>2015-09-06T05:48:24Z</time>
      </trkpt>
      <trkpt lat="33.7056" lon="77.69301">
        <ele>4534.4</ele>
        <time>2015-09-06T05:48:34Z</time>
      </trkpt>
      <trkpt lat="33.70556" lon="77.69302">
        <ele>4533.4</ele>
        <time>2015-09-06T05:48:40Z</time>
      </trkpt>
      <trkpt lat="33.70551" lon="77.69303">
        <ele>4532.2</ele>
        <time>2015-09-06T05:48:46Z</time>
      </trkpt>
      <trkpt lat="33.70548" lon="77.69303">
        <ele>4531.8</ele>
        <time>2015-09-06T05:48:50Z</time>
      </trkpt>
      <trkpt lat="33.70543" lon="77.69305">
        <ele>4531.6</ele>
        <time>2015-09-06T05:48:55Z</time>
      </trkpt>
      <trkpt lat="33.70541" lon="77.69306">
        <ele>4531.2</ele>
        <time>2015-09-06T05:48:58Z</time>
      </trkpt>
      <trkpt lat="33.7054" lon="77.69306">
        <ele>4531.2</ele>
        <time>2015-09-06T05:48:59Z</time>
      </trkpt>
      <trkpt lat="33.70538" lon="77.69306">
        <ele>4531</ele>
        <time>2015-09-06T05:49:01Z</time>
      </trkpt>
      <trkpt lat="33.70533" lon="77.6931">
        <ele>4530.2</ele>
        <time>2015-09-06T05:49:07Z</time>
      </trkpt>
      <trkpt lat="33.70529" lon="77.69313">
        <ele>4529.4</ele>
        <time>2015-09-06T05:49:11Z</time>
      </trkpt>
      <trkpt lat="33.70527" lon="77.69317">
        <ele>4529</ele>
        <time>2015-09-06T05:49:13Z</time>
      </trkpt>
      <trkpt lat="33.70518" lon="77.69321">
        <ele>4527.8</ele>
        <time>2015-09-06T05:49:22Z</time>
      </trkpt>
      <trkpt lat="33.70518" lon="77.69322">
        <ele>4527.6</ele>
        <time>2015-09-06T05:49:23Z</time>
      </trkpt>
      <trkpt lat="33.70513" lon="77.69323">
        <ele>4526.8</ele>
        <time>2015-09-06T05:49:27Z</time>
      </trkpt>
      <trkpt lat="33.70512" lon="77.69324">
        <ele>4526.6</ele>
        <time>2015-09-06T05:49:28Z</time>
      </trkpt>
      <trkpt lat="33.70505" lon="77.69327">
        <ele>4525.6</ele>
        <time>2015-09-06T05:49:36Z</time>
      </trkpt>
      <trkpt lat="33.70503" lon="77.6933">
        <ele>4525</ele>
        <time>2015-09-06T05:49:40Z</time>
      </trkpt>
      <trkpt lat="33.705" lon="77.69334">
        <ele>4524.6</ele>
        <time>2015-09-06T05:49:44Z</time>
      </trkpt>
      <trkpt lat="33.70494" lon="77.69344">
        <ele>4523.6</ele>
        <time>2015-09-06T05:49:54Z</time>
      </trkpt>
      <trkpt lat="33.70493" lon="77.69345">
        <ele>4523.2</ele>
        <time>2015-09-06T05:49:56Z</time>
      </trkpt>
      <trkpt lat="33.70489" lon="77.69347">
        <ele>4522.4</ele>
        <time>2015-09-06T05:50:00Z</time>
      </trkpt>
      <trkpt lat="33.70483" lon="77.6935">
        <ele>4521.4</ele>
        <time>2015-09-06T05:50:07Z</time>
      </trkpt>
      <trkpt lat="33.7048" lon="77.69356">
        <ele>4520.2</ele>
        <time>2015-09-06T05:50:14Z</time>
      </trkpt>
      <trkpt lat="33.70478" lon="77.69358">
        <ele>4519.4</ele>
        <time>2015-09-06T05:50:17Z</time>
      </trkpt>
      <trkpt lat="33.70476" lon="77.6936">
        <ele>4519</ele>
        <time>2015-09-06T05:50:19Z</time>
      </trkpt>
      <trkpt lat="33.70474" lon="77.69364">
        <ele>4518.4</ele>
        <time>2015-09-06T05:50:22Z</time>
      </trkpt>
      <trkpt lat="33.70472" lon="77.69367">
        <ele>4518</ele>
        <time>2015-09-06T05:50:25Z</time>
      </trkpt>
      <trkpt lat="33.70469" lon="77.6937">
        <ele>4517.4</ele>
        <time>2015-09-06T05:50:30Z</time>
      </trkpt>
      <trkpt lat="33.70465" lon="77.69372">
        <ele>4516.8</ele>
        <time>2015-09-06T05:50:34Z</time>
      </trkpt>
      <trkpt lat="33.70456" lon="77.69378">
        <ele>4515.8</ele>
        <time>2015-09-06T05:50:42Z</time>
      </trkpt>
      <trkpt lat="33.70443" lon="77.69387">
        <ele>4515</ele>
        <time>2015-09-06T05:50:57Z</time>
      </trkpt>
      <trkpt lat="33.70435" lon="77.6939">
        <ele>4514.6</ele>
        <time>2015-09-06T05:51:05Z</time>
      </trkpt>
      <trkpt lat="33.70428" lon="77.69402">
        <ele>4513.6</ele>
        <time>2015-09-06T05:51:16Z</time>
      </trkpt>
      <trkpt lat="33.70425" lon="77.69409">
        <ele>4513.4</ele>
        <time>2015-09-06T05:51:21Z</time>
      </trkpt>
      <trkpt lat="33.70423" lon="77.69411">
        <ele>4512.6</ele>
        <time>2015-09-06T05:51:25Z</time>
      </trkpt>
      <trkpt lat="33.70418" lon="77.69419">
        <ele>4511.8</ele>
        <time>2015-09-06T05:51:32Z</time>
      </trkpt>
      <trkpt lat="33.70417" lon="77.6942">
        <ele>4511.6</ele>
        <time>2015-09-06T05:51:34Z</time>
      </trkpt>
      <trkpt lat="33.704" lon="77.69431">
        <ele>4511</ele>
        <time>2015-09-06T05:51:52Z</time>
      </trkpt>
      <trkpt lat="33.70396" lon="77.69432">
        <ele>4510.6</ele>
        <time>2015-09-06T05:51:55Z</time>
      </trkpt>
      <trkpt lat="33.70391" lon="77.69435">
        <ele>4510.8</ele>
        <time>2015-09-06T05:51:59Z</time>
      </trkpt>
      <trkpt lat="33.70388" lon="77.69435">
        <ele>4510.4</ele>
        <time>2015-09-06T05:52:02Z</time>
      </trkpt>
      <trkpt lat="33.70384" lon="77.69437">
        <ele>4509.4</ele>
        <time>2015-09-06T05:52:08Z</time>
      </trkpt>
      <trkpt lat="33.70378" lon="77.69436">
        <ele>4508.4</ele>
        <time>2015-09-06T05:52:16Z</time>
      </trkpt>
      <trkpt lat="33.70374" lon="77.69436">
        <ele>4507.4</ele>
        <time>2015-09-06T05:52:21Z</time>
      </trkpt>
      <trkpt lat="33.70373" lon="77.69436">
        <ele>4507.2</ele>
        <time>2015-09-06T05:52:22Z</time>
      </trkpt>
      <trkpt lat="33.7037" lon="77.69436">
        <ele>4507</ele>
        <time>2015-09-06T05:52:24Z</time>
      </trkpt>
      <trkpt lat="33.70368" lon="77.69437">
        <ele>4507</ele>
        <time>2015-09-06T05:52:26Z</time>
      </trkpt>
      <trkpt lat="33.70365" lon="77.69433">
        <ele>4506</ele>
        <time>2015-09-06T05:52:31Z</time>
      </trkpt>
      <trkpt lat="33.70362" lon="77.6944">
        <ele>4506.4</ele>
        <time>2015-09-06T05:52:37Z</time>
      </trkpt>
      <trkpt lat="33.7036" lon="77.69438">
        <ele>4505</ele>
        <time>2015-09-06T05:52:44Z</time>
      </trkpt>
      <trkpt lat="33.70357" lon="77.69437">
        <ele>4504.4</ele>
        <time>2015-09-06T05:52:47Z</time>
      </trkpt>
      <trkpt lat="33.70355" lon="77.69442">
        <ele>4504.4</ele>
        <time>2015-09-06T05:52:55Z</time>
      </trkpt>
      <trkpt lat="33.70354" lon="77.69442">
        <ele>4503.8</ele>
        <time>2015-09-06T05:52:58Z</time>
      </trkpt>
      <trkpt lat="33.70352" lon="77.69442">
        <ele>4504</ele>
        <time>2015-09-06T05:53:03Z</time>
      </trkpt>
      <trkpt lat="33.70345" lon="77.69437">
        <ele>4503.4</ele>
        <time>2015-09-06T05:53:17Z</time>
      </trkpt>
      <trkpt lat="33.70343" lon="77.69436">
        <ele>4504.8</ele>
        <time>2015-09-06T05:53:30Z</time>
      </trkpt>
      <trkpt lat="33.70351" lon="77.6944">
        <ele>4504.2</ele>
        <time>2015-09-06T05:53:55Z</time>
      </trkpt>
      <trkpt lat="33.70353" lon="77.69439">
        <ele>4504.4</ele>
        <time>2015-09-06T05:54:16Z</time>
      </trkpt>
      <trkpt lat="33.70354" lon="77.69442">
        <ele>4504.2</ele>
        <time>2015-09-06T05:54:21Z</time>
      </trkpt>
      <trkpt lat="33.7035" lon="77.69444">
        <ele>4503.6</ele>
        <time>2015-09-06T05:54:26Z</time>
      </trkpt>
      <trkpt lat="33.70348" lon="77.69447">
        <ele>4502.4</ele>
        <time>2015-09-06T05:54:29Z</time>
      </trkpt>
      <trkpt lat="33.70344" lon="77.69451">
        <ele>4501</ele>
        <time>2015-09-06T05:54:37Z</time>
      </trkpt>
      <trkpt lat="33.70341" lon="77.69456">
        <ele>4500</ele>
        <time>2015-09-06T05:54:43Z</time>
      </trkpt>
      <trkpt lat="33.70335" lon="77.69459">
        <ele>4499</ele>
        <time>2015-09-06T05:54:50Z</time>
      </trkpt>
      <trkpt lat="33.70334" lon="77.69459">
        <ele>4498.8</ele>
        <time>2015-09-06T05:54:51Z</time>
      </trkpt>
      <trkpt lat="33.70327" lon="77.69464">
        <ele>4497.8</ele>
        <time>2015-09-06T05:55:01Z</time>
      </trkpt>
      <trkpt lat="33.70325" lon="77.69466">
        <ele>4497.8</ele>
        <time>2015-09-06T05:55:03Z</time>
      </trkpt>
      <trkpt lat="33.70323" lon="77.69467">
        <ele>4497.4</ele>
        <time>2015-09-06T05:55:05Z</time>
      </trkpt>
      <trkpt lat="33.70322" lon="77.69469">
        <ele>4497</ele>
        <time>2015-09-06T05:55:07Z</time>
      </trkpt>
      <trkpt lat="33.70321" lon="77.6947">
        <ele>4496.8</ele>
        <time>2015-09-06T05:55:08Z</time>
      </trkpt>
      <trkpt lat="33.70315" lon="77.6948">
        <ele>4495.8</ele>
        <time>2015-09-06T05:55:16Z</time>
      </trkpt>
      <trkpt lat="33.70308" lon="77.69487">
        <ele>4494.6</ele>
        <time>2015-09-06T05:55:24Z</time>
      </trkpt>
      <trkpt lat="33.70301" lon="77.6949">
        <ele>4494</ele>
        <time>2015-09-06T05:55:32Z</time>
      </trkpt>
      <trkpt lat="33.70296" lon="77.69492">
        <ele>4493.8</ele>
        <time>2015-09-06T05:55:36Z</time>
      </trkpt>
      <trkpt lat="33.70295" lon="77.69495">
        <ele>4493.6</ele>
        <time>2015-09-06T05:55:38Z</time>
      </trkpt>
      <trkpt lat="33.70288" lon="77.695">
        <ele>4492.6</ele>
        <time>2015-09-06T05:55:46Z</time>
      </trkpt>
      <trkpt lat="33.70279" lon="77.69505">
        <ele>4491.4</ele>
        <time>2015-09-06T05:55:55Z</time>
      </trkpt>
      <trkpt lat="33.70272" lon="77.69507">
        <ele>4490.6</ele>
        <time>2015-09-06T05:56:01Z</time>
      </trkpt>
      <trkpt lat="33.70271" lon="77.69507">
        <ele>4490.2</ele>
        <time>2015-09-06T05:56:03Z</time>
      </trkpt>
      <trkpt lat="33.70269" lon="77.69507">
        <ele>4489.6</ele>
        <time>2015-09-06T05:56:06Z</time>
      </trkpt>
      <trkpt lat="33.70267" lon="77.69511">
        <ele>4489.2</ele>
        <time>2015-09-06T05:56:08Z</time>
      </trkpt>
      <trkpt lat="33.70266" lon="77.69512">
        <ele>4489</ele>
        <time>2015-09-06T05:56:09Z</time>
      </trkpt>
      <trkpt lat="33.70256" lon="77.69516">
        <ele>4488</ele>
        <time>2015-09-06T05:56:21Z</time>
      </trkpt>
      <trkpt lat="33.70252" lon="77.69516">
        <ele>4487.8</ele>
        <time>2015-09-06T05:56:24Z</time>
      </trkpt>
      <trkpt lat="33.70248" lon="77.69518">
        <ele>4487.6</ele>
        <time>2015-09-06T05:56:28Z</time>
      </trkpt>
      <trkpt lat="33.70241" lon="77.69524">
        <ele>4487.2</ele>
        <time>2015-09-06T05:56:34Z</time>
      </trkpt>
      <trkpt lat="33.7024" lon="77.69527">
        <ele>4487</ele>
        <time>2015-09-06T05:56:36Z</time>
      </trkpt>
      <trkpt lat="33.70239" lon="77.69528">
        <ele>4486.8</ele>
        <time>2015-09-06T05:56:38Z</time>
      </trkpt>
      <trkpt lat="33.70236" lon="77.6953">
        <ele>4486</ele>
        <time>2015-09-06T05:56:41Z</time>
      </trkpt>
      <trkpt lat="33.70227" lon="77.6954">
        <ele>4485</ele>
        <time>2015-09-06T05:56:52Z</time>
      </trkpt>
      <trkpt lat="33.70226" lon="77.69541">
        <ele>4484.8</ele>
        <time>2015-09-06T05:56:53Z</time>
      </trkpt>
      <trkpt lat="33.70224" lon="77.69548">
        <ele>4484</ele>
        <time>2015-09-06T05:56:58Z</time>
      </trkpt>
      <trkpt lat="33.70223" lon="77.6955">
        <ele>4483.8</ele>
        <time>2015-09-06T05:56:59Z</time>
      </trkpt>
      <trkpt lat="33.70219" lon="77.69557">
        <ele>4483.4</ele>
        <time>2015-09-06T05:57:04Z</time>
      </trkpt>
      <trkpt lat="33.70216" lon="77.69569">
        <ele>4482.8</ele>
        <time>2015-09-06T05:57:13Z</time>
      </trkpt>
      <trkpt lat="33.70215" lon="77.69574">
        <ele>4482.6</ele>
        <time>2015-09-06T05:57:19Z</time>
      </trkpt>
      <trkpt lat="33.70215" lon="77.69577">
        <ele>4481.8</ele>
        <time>2015-09-06T05:57:24Z</time>
      </trkpt>
      <trkpt lat="33.70215" lon="77.69582">
        <ele>4480.6</ele>
        <time>2015-09-06T05:57:32Z</time>
      </trkpt>
      <trkpt lat="33.70213" lon="77.69593">
        <ele>4479.8</ele>
        <time>2015-09-06T05:57:40Z</time>
      </trkpt>
      <trkpt lat="33.70212" lon="77.69597">
        <ele>4480</ele>
        <time>2015-09-06T05:57:42Z</time>
      </trkpt>
      <trkpt lat="33.70211" lon="77.69605">
        <ele>4479.6</ele>
        <time>2015-09-06T05:57:49Z</time>
      </trkpt>
      <trkpt lat="33.70209" lon="77.69611">
        <ele>4479.8</ele>
        <time>2015-09-06T05:57:54Z</time>
      </trkpt>
      <trkpt lat="33.70207" lon="77.69616">
        <ele>4480.2</ele>
        <time>2015-09-06T05:57:59Z</time>
      </trkpt>
      <trkpt lat="33.70207" lon="77.69618">
        <ele>4480.2</ele>
        <time>2015-09-06T05:58:01Z</time>
      </trkpt>
      <trkpt lat="33.70204" lon="77.69625">
        <ele>4480.6</ele>
        <time>2015-09-06T05:58:09Z</time>
      </trkpt>
      <trkpt lat="33.70199" lon="77.69637">
        <ele>4479.6</ele>
        <time>2015-09-06T05:58:29Z</time>
      </trkpt>
      <trkpt lat="33.70201" lon="77.69637">
        <ele>4479.4</ele>
        <time>2015-09-06T05:58:40Z</time>
      </trkpt>
      <trkpt lat="33.70197" lon="77.69643">
        <ele>4478.6</ele>
        <time>2015-09-06T05:59:03Z</time>
      </trkpt>
      <trkpt lat="33.70196" lon="77.69644">
        <ele>4478.4</ele>
        <time>2015-09-06T05:59:04Z</time>
      </trkpt>
      <trkpt lat="33.70191" lon="77.69648">
        <ele>4477.2</ele>
        <time>2015-09-06T05:59:09Z</time>
      </trkpt>
      <trkpt lat="33.70188" lon="77.69656">
        <ele>4476.2</ele>
        <time>2015-09-06T05:59:19Z</time>
      </trkpt>
      <trkpt lat="33.70185" lon="77.69667">
        <ele>4475.2</ele>
        <time>2015-09-06T05:59:32Z</time>
      </trkpt>
      <trkpt lat="33.70182" lon="77.69672">
        <ele>4474.2</ele>
        <time>2015-09-06T05:59:40Z</time>
      </trkpt>
      <trkpt lat="33.70177" lon="77.69674">
        <ele>4473.2</ele>
        <time>2015-09-06T05:59:55Z</time>
      </trkpt>
      <trkpt lat="33.70174" lon="77.69669">
        <ele>4473.2</ele>
        <time>2015-09-06T05:59:59Z</time>
      </trkpt>
      <trkpt lat="33.70178" lon="77.69678">
        <ele>4473.4</ele>
        <time>2015-09-06T06:00:06Z</time>
      </trkpt>
      <trkpt lat="33.70178" lon="77.69682">
        <ele>4473</ele>
        <time>2015-09-06T06:00:09Z</time>
      </trkpt>
      <trkpt lat="33.70175" lon="77.69684">
        <ele>4472</ele>
        <time>2015-09-06T06:00:12Z</time>
      </trkpt>
      <trkpt lat="33.70172" lon="77.69683">
        <ele>4471.8</ele>
        <time>2015-09-06T06:00:15Z</time>
      </trkpt>
      <trkpt lat="33.70168" lon="77.6969">
        <ele>4471</ele>
        <time>2015-09-06T06:00:21Z</time>
      </trkpt>
      <trkpt lat="33.70164" lon="77.69694">
        <ele>4469.8</ele>
        <time>2015-09-06T06:00:29Z</time>
      </trkpt>
      <trkpt lat="33.7016" lon="77.69698">
        <ele>4468.6</ele>
        <time>2015-09-06T06:00:35Z</time>
      </trkpt>
      <trkpt lat="33.70157" lon="77.69704">
        <ele>4467.6</ele>
        <time>2015-09-06T06:00:39Z</time>
      </trkpt>
      <trkpt lat="33.70153" lon="77.69711">
        <ele>4466.4</ele>
        <time>2015-09-06T06:00:46Z</time>
      </trkpt>
      <trkpt lat="33.7015" lon="77.69714">
        <ele>4465.6</ele>
        <time>2015-09-06T06:00:50Z</time>
      </trkpt>
      <trkpt lat="33.70149" lon="77.69715">
        <ele>4465.2</ele>
        <time>2015-09-06T06:00:51Z</time>
      </trkpt>
      <trkpt lat="33.70143" lon="77.69724">
        <ele>4464.2</ele>
        <time>2015-09-06T06:01:02Z</time>
      </trkpt>
      <trkpt lat="33.70141" lon="77.69726">
        <ele>4463</ele>
        <time>2015-09-06T06:01:06Z</time>
      </trkpt>
      <trkpt lat="33.7014" lon="77.69728">
        <ele>4461.8</ele>
        <time>2015-09-06T06:01:10Z</time>
      </trkpt>
      <trkpt lat="33.70137" lon="77.69733">
        <ele>4460.8</ele>
        <time>2015-09-06T06:01:14Z</time>
      </trkpt>
      <trkpt lat="33.70134" lon="77.69739">
        <ele>4459.6</ele>
        <time>2015-09-06T06:01:19Z</time>
      </trkpt>
      <trkpt lat="33.70133" lon="77.6974">
        <ele>4459.2</ele>
        <time>2015-09-06T06:01:21Z</time>
      </trkpt>
      <trkpt lat="33.70131" lon="77.69744">
        <ele>4458.4</ele>
        <time>2015-09-06T06:01:25Z</time>
      </trkpt>
      <trkpt lat="33.7013" lon="77.69746">
        <ele>4458</ele>
        <time>2015-09-06T06:01:27Z</time>
      </trkpt>
      <trkpt lat="33.70128" lon="77.69749">
        <ele>4457.4</ele>
        <time>2015-09-06T06:01:30Z</time>
      </trkpt>
      <trkpt lat="33.70126" lon="77.69758">
        <ele>4456.4</ele>
        <time>2015-09-06T06:01:40Z</time>
      </trkpt>
      <trkpt lat="33.70125" lon="77.69763">
        <ele>4455.2</ele>
        <time>2015-09-06T06:01:46Z</time>
      </trkpt>
      <trkpt lat="33.70125" lon="77.69764">
        <ele>4455</ele>
        <time>2015-09-06T06:01:47Z</time>
      </trkpt>
      <trkpt lat="33.70124" lon="77.69768">
        <ele>4454.2</ele>
        <time>2015-09-06T06:01:50Z</time>
      </trkpt>
      <trkpt lat="33.70123" lon="77.69773">
        <ele>4453</ele>
        <time>2015-09-06T06:01:54Z</time>
      </trkpt>
      <trkpt lat="33.70123" lon="77.69779">
        <ele>4451.8</ele>
        <time>2015-09-06T06:01:59Z</time>
      </trkpt>
      <trkpt lat="33.70121" lon="77.69781">
        <ele>4451.4</ele>
        <time>2015-09-06T06:02:01Z</time>
      </trkpt>
      <trkpt lat="33.70119" lon="77.69784">
        <ele>4450.8</ele>
        <time>2015-09-06T06:02:05Z</time>
      </trkpt>
      <trkpt lat="33.70113" lon="77.69787">
        <ele>4449.6</ele>
        <time>2015-09-06T06:02:13Z</time>
      </trkpt>
      <trkpt lat="33.70111" lon="77.6979">
        <ele>4448.4</ele>
        <time>2015-09-06T06:02:17Z</time>
      </trkpt>
      <trkpt lat="33.70106" lon="77.698">
        <ele>4447.6</ele>
        <time>2015-09-06T06:02:28Z</time>
      </trkpt>
      <trkpt lat="33.70106" lon="77.69801">
        <ele>4447.4</ele>
        <time>2015-09-06T06:02:30Z</time>
      </trkpt>
      <trkpt lat="33.70104" lon="77.69812">
        <ele>4446.2</ele>
        <time>2015-09-06T06:02:45Z</time>
      </trkpt>
      <trkpt lat="33.70104" lon="77.69813">
        <ele>4446.2</ele>
        <time>2015-09-06T06:02:46Z</time>
      </trkpt>
      <trkpt lat="33.70103" lon="77.69814">
        <ele>4446</ele>
        <time>2015-09-06T06:02:48Z</time>
      </trkpt>
      <trkpt lat="33.70104" lon="77.69818">
        <ele>4445</ele>
        <time>2015-09-06T06:02:55Z</time>
      </trkpt>
      <trkpt lat="33.70103" lon="77.69824">
        <ele>4444.2</ele>
        <time>2015-09-06T06:03:00Z</time>
      </trkpt>
      <trkpt lat="33.70103" lon="77.69825">
        <ele>4444</ele>
        <time>2015-09-06T06:03:01Z</time>
      </trkpt>
      <trkpt lat="33.70102" lon="77.69834">
        <ele>4443</ele>
        <time>2015-09-06T06:03:08Z</time>
      </trkpt>
      <trkpt lat="33.70099" lon="77.6984">
        <ele>4441.8</ele>
        <time>2015-09-06T06:03:15Z</time>
      </trkpt>
      <trkpt lat="33.70097" lon="77.69842">
        <ele>4441.2</ele>
        <time>2015-09-06T06:03:18Z</time>
      </trkpt>
      <trkpt lat="33.70094" lon="77.69843">
        <ele>4440.8</ele>
        <time>2015-09-06T06:03:21Z</time>
      </trkpt>
      <trkpt lat="33.7009" lon="77.69851">
        <ele>4439.8</ele>
        <time>2015-09-06T06:03:27Z</time>
      </trkpt>
      <trkpt lat="33.7009" lon="77.69863">
        <ele>4438.8</ele>
        <time>2015-09-06T06:03:36Z</time>
      </trkpt>
      <trkpt lat="33.70091" lon="77.69869">
        <ele>4438</ele>
        <time>2015-09-06T06:03:41Z</time>
      </trkpt>
      <trkpt lat="33.70091" lon="77.69877">
        <ele>4437.6</ele>
        <time>2015-09-06T06:03:48Z</time>
      </trkpt>
      <trkpt lat="33.70091" lon="77.69881">
        <ele>4437</ele>
        <time>2015-09-06T06:03:52Z</time>
      </trkpt>
      <trkpt lat="33.70091" lon="77.69883">
        <ele>4436.8</ele>
        <time>2015-09-06T06:03:54Z</time>
      </trkpt>
      <trkpt lat="33.70092" lon="77.69885">
        <ele>4436.6</ele>
        <time>2015-09-06T06:03:56Z</time>
      </trkpt>
      <trkpt lat="33.70092" lon="77.69887">
        <ele>4436.4</ele>
        <time>2015-09-06T06:03:57Z</time>
      </trkpt>
      <trkpt lat="33.70092" lon="77.69886">
        <ele>4435.6</ele>
        <time>2015-09-06T06:04:01Z</time>
      </trkpt>
      <trkpt lat="33.70094" lon="77.69893">
        <ele>4434.6</ele>
        <time>2015-09-06T06:04:17Z</time>
      </trkpt>
      <trkpt lat="33.70091" lon="77.69899">
        <ele>4434</ele>
        <time>2015-09-06T06:04:31Z</time>
      </trkpt>
      <trkpt lat="33.70094" lon="77.69901">
        <ele>4433.6</ele>
        <time>2015-09-06T06:04:33Z</time>
      </trkpt>
      <trkpt lat="33.70093" lon="77.69903">
        <ele>4433.4</ele>
        <time>2015-09-06T06:04:35Z</time>
      </trkpt>
      <trkpt lat="33.70089" lon="77.69908">
        <ele>4432.4</ele>
        <time>2015-09-06T06:04:40Z</time>
      </trkpt>
      <trkpt lat="33.70085" lon="77.69912">
        <ele>4431.2</ele>
        <time>2015-09-06T06:04:46Z</time>
      </trkpt>
      <trkpt lat="33.70082" lon="77.69921">
        <ele>4430.2</ele>
        <time>2015-09-06T06:04:53Z</time>
      </trkpt>
      <trkpt lat="33.70081" lon="77.69928">
        <ele>4429</ele>
        <time>2015-09-06T06:05:00Z</time>
      </trkpt>
      <trkpt lat="33.7008" lon="77.69934">
        <ele>4428</ele>
        <time>2015-09-06T06:05:05Z</time>
      </trkpt>
      <trkpt lat="33.70078" lon="77.69939">
        <ele>4427.4</ele>
        <time>2015-09-06T06:05:09Z</time>
      </trkpt>
      <trkpt lat="33.70076" lon="77.69942">
        <ele>4426.8</ele>
        <time>2015-09-06T06:05:13Z</time>
      </trkpt>
      <trkpt lat="33.70072" lon="77.69943">
        <ele>4426</ele>
        <time>2015-09-06T06:05:17Z</time>
      </trkpt>
      <trkpt lat="33.70071" lon="77.69944">
        <ele>4425.6</ele>
        <time>2015-09-06T06:05:18Z</time>
      </trkpt>
      <trkpt lat="33.70071" lon="77.69944">
        <ele>4425.4</ele>
        <time>2015-09-06T06:05:19Z</time>
      </trkpt>
      <trkpt lat="33.70069" lon="77.6995">
        <ele>4425</ele>
        <time>2015-09-06T06:05:24Z</time>
      </trkpt>
      <trkpt lat="33.7007" lon="77.69952">
        <ele>4424.6</ele>
        <time>2015-09-06T06:05:26Z</time>
      </trkpt>
      <trkpt lat="33.70073" lon="77.69955">
        <ele>4423.6</ele>
        <time>2015-09-06T06:05:35Z</time>
      </trkpt>
      <trkpt lat="33.70072" lon="77.69957">
        <ele>4422.6</ele>
        <time>2015-09-06T06:05:40Z</time>
      </trkpt>
      <trkpt lat="33.70067" lon="77.69966">
        <ele>4421.4</ele>
        <time>2015-09-06T06:05:52Z</time>
      </trkpt>
      <trkpt lat="33.70063" lon="77.69963">
        <ele>4420.6</ele>
        <time>2015-09-06T06:06:00Z</time>
      </trkpt>
      <trkpt lat="33.70061" lon="77.69963">
        <ele>4420.2</ele>
        <time>2015-09-06T06:06:02Z</time>
      </trkpt>
      <trkpt lat="33.70058" lon="77.69964">
        <ele>4419.4</ele>
        <time>2015-09-06T06:06:06Z</time>
      </trkpt>
      <trkpt lat="33.70056" lon="77.69966">
        <ele>4419</ele>
        <time>2015-09-06T06:06:08Z</time>
      </trkpt>
      <trkpt lat="33.70056" lon="77.69971">
        <ele>4418</ele>
        <time>2015-09-06T06:06:15Z</time>
      </trkpt>
      <trkpt lat="33.70056" lon="77.69971">
        <ele>4417.8</ele>
        <time>2015-09-06T06:06:16Z</time>
      </trkpt>
      <trkpt lat="33.70056" lon="77.69972">
        <ele>4417</ele>
        <time>2015-09-06T06:06:22Z</time>
      </trkpt>
      <trkpt lat="33.70046" lon="77.69984">
        <ele>4416.8</ele>
        <time>2015-09-06T06:06:52Z</time>
      </trkpt>
      <trkpt lat="33.70048" lon="77.69992">
        <ele>4417.2</ele>
        <time>2015-09-06T06:07:03Z</time>
      </trkpt>
      <trkpt lat="33.70043" lon="77.70001">
        <ele>4416.8</ele>
        <time>2015-09-06T06:07:17Z</time>
      </trkpt>
      <trkpt lat="33.70044" lon="77.70001">
        <ele>4417</ele>
        <time>2015-09-06T06:07:19Z</time>
      </trkpt>
      <trkpt lat="33.70042" lon="77.7">
        <ele>4416</ele>
        <time>2015-09-06T06:07:40Z</time>
      </trkpt>
      <trkpt lat="33.70041" lon="77.70002">
        <ele>4416.4</ele>
        <time>2015-09-06T06:08:00Z</time>
      </trkpt>
      <trkpt lat="33.70041" lon="77.70004">
        <ele>4416.4</ele>
        <time>2015-09-06T06:08:03Z</time>
      </trkpt>
      <trkpt lat="33.70045" lon="77.70007">
        <ele>4416.2</ele>
        <time>2015-09-06T06:08:07Z</time>
      </trkpt>
      <trkpt lat="33.7004" lon="77.70002">
        <ele>4415.4</ele>
        <time>2015-09-06T06:08:30Z</time>
      </trkpt>
      <trkpt lat="33.70042" lon="77.7">
        <ele>4414.8</ele>
        <time>2015-09-06T06:08:38Z</time>
      </trkpt>
      <trkpt lat="33.7004" lon="77.70003">
        <ele>4413.6</ele>
        <time>2015-09-06T06:08:43Z</time>
      </trkpt>
      <trkpt lat="33.70041" lon="77.70003">
        <ele>4413.4</ele>
        <time>2015-09-06T06:08:44Z</time>
      </trkpt>
      <trkpt lat="33.70039" lon="77.70003">
        <ele>4413.2</ele>
        <time>2015-09-06T06:08:48Z</time>
      </trkpt>
      <trkpt lat="33.70037" lon="77.7">
        <ele>4414</ele>
        <time>2015-09-06T06:10:00Z</time>
      </trkpt>
      <trkpt lat="33.70035" lon="77.70003">
        <ele>4413.2</ele>
        <time>2015-09-06T06:10:40Z</time>
      </trkpt>
      <trkpt lat="33.70038" lon="77.70001">
        <ele>4412.4</ele>
        <time>2015-09-06T06:11:19Z</time>
      </trkpt>
      <trkpt lat="33.70038" lon="77.70001">
        <ele>4412.2</ele>
        <time>2015-09-06T06:11:20Z</time>
      </trkpt>
      <trkpt lat="33.7004" lon="77.7">
        <ele>4412.4</ele>
        <time>2015-09-06T06:11:57Z</time>
      </trkpt>
      <trkpt lat="33.70044" lon="77.69998">
        <ele>4412.8</ele>
        <time>2015-09-06T06:12:30Z</time>
      </trkpt>
      <trkpt lat="33.70041" lon="77.70001">
        <ele>4412.8</ele>
        <time>2015-09-06T06:12:32Z</time>
      </trkpt>
      <trkpt lat="33.7004" lon="77.70001">
        <ele>4412.8</ele>
        <time>2015-09-06T06:12:33Z</time>
      </trkpt>
      <trkpt lat="33.70039" lon="77.70001">
        <ele>4412.8</ele>
        <time>2015-09-06T06:12:35Z</time>
      </trkpt>
      <trkpt lat="33.70038" lon="77.7">
        <ele>4412</ele>
        <time>2015-09-06T06:13:05Z</time>
      </trkpt>
      <trkpt lat="33.70043" lon="77.70004">
        <ele>4412.6</ele>
        <time>2015-09-06T06:13:50Z</time>
      </trkpt>
      <trkpt lat="33.70045" lon="77.70002">
        <ele>4412.6</ele>
        <time>2015-09-06T06:13:59Z</time>
      </trkpt>
      <trkpt lat="33.70044" lon="77.70002">
        <ele>4412.6</ele>
        <time>2015-09-06T06:14:39Z</time>
      </trkpt>
      <trkpt lat="33.70043" lon="77.70002">
        <ele>4412.8</ele>
        <time>2015-09-06T06:14:41Z</time>
      </trkpt>
      <trkpt lat="33.70037" lon="77.70002">
        <ele>4412.8</ele>
        <time>2015-09-06T06:15:50Z</time>
      </trkpt>
      <trkpt lat="33.70034" lon="77.70002">
        <ele>4413.4</ele>
        <time>2015-09-06T06:16:08Z</time>
      </trkpt>
      <trkpt lat="33.70038" lon="77.69999">
        <ele>4413.6</ele>
        <time>2015-09-06T06:17:02Z</time>
      </trkpt>
      <trkpt lat="33.70042" lon="77.70001">
        <ele>4414</ele>
        <time>2015-09-06T06:17:56Z</time>
      </trkpt>
      <trkpt lat="33.70041" lon="77.70002">
        <ele>4414.4</ele>
        <time>2015-09-06T06:18:40Z</time>
      </trkpt>
      <trkpt lat="33.70041" lon="77.69996">
        <ele>4414.2</ele>
        <time>2015-09-06T06:19:07Z</time>
      </trkpt>
      <trkpt lat="33.70038" lon="77.70003">
        <ele>4414.4</ele>
        <time>2015-09-06T06:19:41Z</time>
      </trkpt>
      <trkpt lat="33.70041" lon="77.70002">
        <ele>4413.4</ele>
        <time>2015-09-06T06:20:45Z</time>
      </trkpt>
      <trkpt lat="33.70039" lon="77.69999">
        <ele>4412.4</ele>
        <time>2015-09-06T06:21:02Z</time>
      </trkpt>
      <trkpt lat="33.70042" lon="77.70001">
        <ele>4413.2</ele>
        <time>2015-09-06T06:22:03Z</time>
      </trkpt>
      <trkpt lat="33.7004" lon="77.69999">
        <ele>4413.4</ele>
        <time>2015-09-06T06:22:29Z</time>
      </trkpt>
      <trkpt lat="33.70037" lon="77.69999">
        <ele>4414.6</ele>
        <time>2015-09-06T06:22:58Z</time>
      </trkpt>
      <trkpt lat="33.70036" lon="77.69999">
        <ele>4414.8</ele>
        <time>2015-09-06T06:22:59Z</time>
      </trkpt>
      <trkpt lat="33.70035" lon="77.70001">
        <ele>4415.2</ele>
        <time>2015-09-06T06:23:02Z</time>
      </trkpt>
      <trkpt lat="33.70036" lon="77.70002">
        <ele>4413.6</ele>
        <time>2015-09-06T06:23:19Z</time>
      </trkpt>
      <trkpt lat="33.70044" lon="77.69996">
        <ele>4412.6</ele>
        <time>2015-09-06T06:24:18Z</time>
      </trkpt>
      <trkpt lat="33.70042" lon="77.69998">
        <ele>4413.6</ele>
        <time>2015-09-06T06:25:13Z</time>
      </trkpt>
      <trkpt lat="33.70043" lon="77.69998">
        <ele>4412.6</ele>
        <time>2015-09-06T06:25:24Z</time>
      </trkpt>
      <trkpt lat="33.70043" lon="77.69998">
        <ele>4412.2</ele>
        <time>2015-09-06T06:25:35Z</time>
      </trkpt>
      <trkpt lat="33.70043" lon="77.69999">
        <ele>4411.6</ele>
        <time>2015-09-06T06:25:38Z</time>
      </trkpt>
      <trkpt lat="33.70043" lon="77.7">
        <ele>4410.4</ele>
        <time>2015-09-06T06:26:11Z</time>
      </trkpt>
      <trkpt lat="33.70042" lon="77.69997">
        <ele>4411.6</ele>
        <time>2015-09-06T06:26:26Z</time>
      </trkpt>
      <trkpt lat="33.70041" lon="77.7">
        <ele>4411.4</ele>
        <time>2015-09-06T06:26:35Z</time>
      </trkpt>
      <trkpt lat="33.70039" lon="77.70001">
        <ele>4410.8</ele>
        <time>2015-09-06T06:26:53Z</time>
      </trkpt>
      <trkpt lat="33.70045" lon="77.69998">
        <ele>4411.8</ele>
        <time>2015-09-06T06:29:24Z</time>
      </trkpt>
      <trkpt lat="33.70045" lon="77.70003">
        <ele>4411.2</ele>
        <time>2015-09-06T06:30:30Z</time>
      </trkpt>
      <trkpt lat="33.70052" lon="77.70002">
        <ele>4410.8</ele>
        <time>2015-09-06T06:31:27Z</time>
      </trkpt>
      <trkpt lat="33.70054" lon="77.7">
        <ele>4410.6</ele>
        <time>2015-09-06T06:32:04Z</time>
      </trkpt>
      <trkpt lat="33.70058" lon="77.70001">
        <ele>4409.8</ele>
        <time>2015-09-06T06:32:57Z</time>
      </trkpt>
      <trkpt lat="33.70059" lon="77.70001">
        <ele>4409.6</ele>
        <time>2015-09-06T06:33:22Z</time>
      </trkpt>
      <trkpt lat="33.7005" lon="77.69997">
        <ele>4408.8</ele>
        <time>2015-09-06T06:34:20Z</time>
      </trkpt>
      <trkpt lat="33.70058" lon="77.69997">
        <ele>4408.4</ele>
        <time>2015-09-06T06:34:30Z</time>
      </trkpt>
      <trkpt lat="33.70061" lon="77.69998">
        <ele>4408.2</ele>
        <time>2015-09-06T06:34:35Z</time>
      </trkpt>
      <trkpt lat="33.70049" lon="77.69995">
        <ele>4408.2</ele>
        <time>2015-09-06T06:34:38Z</time>
      </trkpt>
      <trkpt lat="33.70052" lon="77.69996">
        <ele>4408</ele>
        <time>2015-09-06T06:35:03Z</time>
      </trkpt>
      <trkpt lat="33.70063" lon="77.69994">
        <ele>4407.4</ele>
        <time>2015-09-06T06:35:35Z</time>
      </trkpt>
      <trkpt lat="33.70066" lon="77.69993">
        <ele>4406.4</ele>
        <time>2015-09-06T06:36:02Z</time>
      </trkpt>
      <trkpt lat="33.70066" lon="77.69992">
        <ele>4405.4</ele>
        <time>2015-09-06T06:36:28Z</time>
      </trkpt>
      <trkpt lat="33.70041" lon="77.69999">
        <ele>4405.6</ele>
        <time>2015-09-06T06:39:27Z</time>
      </trkpt>
      <trkpt lat="33.70041" lon="77.69997">
        <ele>4406.2</ele>
        <time>2015-09-06T06:40:40Z</time>
      </trkpt>
      <trkpt lat="33.70041" lon="77.69998">
        <ele>4406</ele>
        <time>2015-09-06T06:41:52Z</time>
      </trkpt>
      <trkpt lat="33.7004" lon="77.69997">
        <ele>4404.4</ele>
        <time>2015-09-06T06:42:58Z</time>
      </trkpt>
      <trkpt lat="33.70041" lon="77.69998">
        <ele>4404.6</ele>
        <time>2015-09-06T06:43:16Z</time>
      </trkpt>
      <trkpt lat="33.70042" lon="77.69998">
        <ele>4405.4</ele>
        <time>2015-09-06T06:43:55Z</time>
      </trkpt>
      <trkpt lat="33.7004" lon="77.69997">
        <ele>4406.4</ele>
        <time>2015-09-06T06:44:27Z</time>
      </trkpt>
      <trkpt lat="33.7004" lon="77.69998">
        <ele>4407</ele>
        <time>2015-09-06T06:44:38Z</time>
      </trkpt>
      <trkpt lat="33.70043" lon="77.69999">
        <ele>4407.6</ele>
        <time>2015-09-06T06:46:21Z</time>
      </trkpt>
      <trkpt lat="33.70045" lon="77.69999">
        <ele>4408.6</ele>
        <time>2015-09-06T06:46:29Z</time>
      </trkpt>
      <trkpt lat="33.70042" lon="77.69998">
        <ele>4409.6</ele>
        <time>2015-09-06T06:47:11Z</time>
      </trkpt>
      <trkpt lat="33.70046" lon="77.69999">
        <ele>4409.6</ele>
        <time>2015-09-06T06:47:14Z</time>
      </trkpt>
      <trkpt lat="33.70048" lon="77.69999">
        <ele>4409.6</ele>
        <time>2015-09-06T06:47:16Z</time>
      </trkpt>
      <trkpt lat="33.70051" lon="77.69999">
        <ele>4409.4</ele>
        <time>2015-09-06T06:47:19Z</time>
      </trkpt>
      <trkpt lat="33.70045" lon="77.70003">
        <ele>4409.6</ele>
        <time>2015-09-06T06:47:37Z</time>
      </trkpt>
      <trkpt lat="33.70049" lon="77.69994">
        <ele>4410.8</ele>
        <time>2015-09-06T06:48:21Z</time>
      </trkpt>
      <trkpt lat="33.70046" lon="77.69996">
        <ele>4411.8</ele>
        <time>2015-09-06T06:49:08Z</time>
      </trkpt>
      <trkpt lat="33.70047" lon="77.69997">
        <ele>4412</ele>
        <time>2015-09-06T06:49:09Z</time>
      </trkpt>
      <trkpt lat="33.70047" lon="77.69994">
        <ele>4412.6</ele>
        <time>2015-09-06T06:49:17Z</time>
      </trkpt>
      <trkpt lat="33.70047" lon="77.69994">
        <ele>4412.8</ele>
        <time>2015-09-06T06:49:19Z</time>
      </trkpt>
      <trkpt lat="33.70043" lon="77.69998">
        <ele>4411.4</ele>
        <time>2015-09-06T06:49:24Z</time>
      </trkpt>
      <trkpt lat="33.70051" lon="77.70001">
        <ele>4411.8</ele>
        <time>2015-09-06T06:49:41Z</time>
      </trkpt>
      <trkpt lat="33.70058" lon="77.69995">
        <ele>4411</ele>
        <time>2015-09-06T06:49:45Z</time>
      </trkpt>
      <trkpt lat="33.70057" lon="77.69995">
        <ele>4410.8</ele>
        <time>2015-09-06T06:49:48Z</time>
      </trkpt>
      <trkpt lat="33.70055" lon="77.69995">
        <ele>4410.8</ele>
        <time>2015-09-06T06:49:50Z</time>
      </trkpt>
      <trkpt lat="33.70039" lon="77.70005">
        <ele>4410.8</ele>
        <time>2015-09-06T06:50:05Z</time>
      </trkpt>
      <trkpt lat="33.70037" lon="77.70007">
        <ele>4410.4</ele>
        <time>2015-09-06T06:50:08Z</time>
      </trkpt>
      <trkpt lat="33.70035" lon="77.7001">
        <ele>4410.2</ele>
        <time>2015-09-06T06:50:12Z</time>
      </trkpt>
      <trkpt lat="33.70034" lon="77.70013">
        <ele>4409.6</ele>
        <time>2015-09-06T06:50:15Z</time>
      </trkpt>
      <trkpt lat="33.70031" lon="77.70018">
        <ele>4408.6</ele>
        <time>2015-09-06T06:50:22Z</time>
      </trkpt>
      <trkpt lat="33.70032" lon="77.7002">
        <ele>4408</ele>
        <time>2015-09-06T06:50:24Z</time>
      </trkpt>
      <trkpt lat="33.70032" lon="77.70022">
        <ele>4407.8</ele>
        <time>2015-09-06T06:50:26Z</time>
      </trkpt>
      <trkpt lat="33.70031" lon="77.70024">
        <ele>4407.4</ele>
        <time>2015-09-06T06:50:28Z</time>
      </trkpt>
      <trkpt lat="33.70031" lon="77.70026">
        <ele>4407</ele>
        <time>2015-09-06T06:50:30Z</time>
      </trkpt>
      <trkpt lat="33.70029" lon="77.70028">
        <ele>4406.8</ele>
        <time>2015-09-06T06:50:32Z</time>
      </trkpt>
      <trkpt lat="33.70027" lon="77.7003">
        <ele>4406.4</ele>
        <time>2015-09-06T06:50:35Z</time>
      </trkpt>
      <trkpt lat="33.70019" lon="77.70034">
        <ele>4405.6</ele>
        <time>2015-09-06T06:50:43Z</time>
      </trkpt>
      <trkpt lat="33.70018" lon="77.70036">
        <ele>4405.2</ele>
        <time>2015-09-06T06:50:46Z</time>
      </trkpt>
      <trkpt lat="33.70018" lon="77.70038">
        <ele>4404</ele>
        <time>2015-09-06T06:50:53Z</time>
      </trkpt>
      <trkpt lat="33.70015" lon="77.70042">
        <ele>4404.4</ele>
        <time>2015-09-06T06:51:05Z</time>
      </trkpt>
      <trkpt lat="33.7001" lon="77.70043">
        <ele>4404.4</ele>
        <time>2015-09-06T06:51:07Z</time>
      </trkpt>
      <trkpt lat="33.70005" lon="77.70047">
        <ele>4404.2</ele>
        <time>2015-09-06T06:51:09Z</time>
      </trkpt>
      <trkpt lat="33.70002" lon="77.70052">
        <ele>4402.4</ele>
        <time>2015-09-06T06:51:13Z</time>
      </trkpt>
      <trkpt lat="33.70001" lon="77.70057">
        <ele>4401.6</ele>
        <time>2015-09-06T06:51:17Z</time>
      </trkpt>
      <trkpt lat="33.70003" lon="77.7006">
        <ele>4401.4</ele>
        <time>2015-09-06T06:51:19Z</time>
      </trkpt>
      <trkpt lat="33.70002" lon="77.70063">
        <ele>4401.2</ele>
        <time>2015-09-06T06:51:22Z</time>
      </trkpt>
      <trkpt lat="33.70004" lon="77.70067">
        <ele>4400.4</ele>
        <time>2015-09-06T06:51:26Z</time>
      </trkpt>
      <trkpt lat="33.70002" lon="77.70071">
        <ele>4399.8</ele>
        <time>2015-09-06T06:51:30Z</time>
      </trkpt>
      <trkpt lat="33.69996" lon="77.70075">
        <ele>4399.8</ele>
        <time>2015-09-06T06:51:33Z</time>
      </trkpt>
      <trkpt lat="33.69993" lon="77.70079">
        <ele>4399.2</ele>
        <time>2015-09-06T06:51:36Z</time>
      </trkpt>
      <trkpt lat="33.69993" lon="77.70079">
        <ele>4399</ele>
        <time>2015-09-06T06:51:37Z</time>
      </trkpt>
      <trkpt lat="33.69989" lon="77.70081">
        <ele>4398.6</ele>
        <time>2015-09-06T06:51:40Z</time>
      </trkpt>
      <trkpt lat="33.69982" lon="77.70085">
        <ele>4398.2</ele>
        <time>2015-09-06T06:51:50Z</time>
      </trkpt>
      <trkpt lat="33.69984" lon="77.70085">
        <ele>4398</ele>
        <time>2015-09-06T06:51:51Z</time>
      </trkpt>
      <trkpt lat="33.69984" lon="77.70094">
        <ele>4397</ele>
        <time>2015-09-06T06:52:04Z</time>
      </trkpt>
      <trkpt lat="33.69985" lon="77.701">
        <ele>4396.4</ele>
        <time>2015-09-06T06:52:08Z</time>
      </trkpt>
      <trkpt lat="33.6998" lon="77.70102">
        <ele>4395.8</ele>
        <time>2015-09-06T06:52:10Z</time>
      </trkpt>
      <trkpt lat="33.69976" lon="77.70106">
        <ele>4394.8</ele>
        <time>2015-09-06T06:52:14Z</time>
      </trkpt>
      <trkpt lat="33.69975" lon="77.70106">
        <ele>4394.6</ele>
        <time>2015-09-06T06:52:15Z</time>
      </trkpt>
      <trkpt lat="33.69964" lon="77.70115">
        <ele>4393.6</ele>
        <time>2015-09-06T06:52:22Z</time>
      </trkpt>
      <trkpt lat="33.69957" lon="77.70121">
        <ele>4392.4</ele>
        <time>2015-09-06T06:52:27Z</time>
      </trkpt>
      <trkpt lat="33.6995" lon="77.70132">
        <ele>4391.2</ele>
        <time>2015-09-06T06:52:38Z</time>
      </trkpt>
      <trkpt lat="33.69943" lon="77.7014">
        <ele>4390.2</ele>
        <time>2015-09-06T06:52:44Z</time>
      </trkpt>
      <trkpt lat="33.69942" lon="77.70141">
        <ele>4390.2</ele>
        <time>2015-09-06T06:52:45Z</time>
      </trkpt>
      <trkpt lat="33.69931" lon="77.70147">
        <ele>4388.8</ele>
        <time>2015-09-06T06:52:52Z</time>
      </trkpt>
      <trkpt lat="33.69928" lon="77.70149">
        <ele>4388.4</ele>
        <time>2015-09-06T06:52:54Z</time>
      </trkpt>
      <trkpt lat="33.69926" lon="77.70154">
        <ele>4388.8</ele>
        <time>2015-09-06T06:53:00Z</time>
      </trkpt>
      <trkpt lat="33.69926" lon="77.70172">
        <ele>4387.6</ele>
        <time>2015-09-06T06:53:15Z</time>
      </trkpt>
      <trkpt lat="33.69921" lon="77.70176">
        <ele>4387</ele>
        <time>2015-09-06T06:53:20Z</time>
      </trkpt>
      <trkpt lat="33.69921" lon="77.70176">
        <ele>4386.4</ele>
        <time>2015-09-06T06:53:22Z</time>
      </trkpt>
      <trkpt lat="33.69921" lon="77.70179">
        <ele>4385.4</ele>
        <time>2015-09-06T06:53:26Z</time>
      </trkpt>
      <trkpt lat="33.69919" lon="77.70181">
        <ele>4384.2</ele>
        <time>2015-09-06T06:53:32Z</time>
      </trkpt>
      <trkpt lat="33.69916" lon="77.70181">
        <ele>4383</ele>
        <time>2015-09-06T06:53:35Z</time>
      </trkpt>
      <trkpt lat="33.69913" lon="77.7018">
        <ele>4381.8</ele>
        <time>2015-09-06T06:53:39Z</time>
      </trkpt>
      <trkpt lat="33.69908" lon="77.7018">
        <ele>4380.8</ele>
        <time>2015-09-06T06:53:45Z</time>
      </trkpt>
      <trkpt lat="33.69905" lon="77.70179">
        <ele>4379.6</ele>
        <time>2015-09-06T06:53:50Z</time>
      </trkpt>
      <trkpt lat="33.69904" lon="77.70179">
        <ele>4379.6</ele>
        <time>2015-09-06T06:53:51Z</time>
      </trkpt>
      <trkpt lat="33.69899" lon="77.70183">
        <ele>4379</ele>
        <time>2015-09-06T06:53:55Z</time>
      </trkpt>
      <trkpt lat="33.69898" lon="77.70184">
        <ele>4378.8</ele>
        <time>2015-09-06T06:53:57Z</time>
      </trkpt>
      <trkpt lat="33.69896" lon="77.70184">
        <ele>4378.4</ele>
        <time>2015-09-06T06:53:59Z</time>
      </trkpt>
      <trkpt lat="33.69895" lon="77.70186">
        <ele>4377.8</ele>
        <time>2015-09-06T06:54:02Z</time>
      </trkpt>
      <trkpt lat="33.69894" lon="77.70189">
        <ele>4377.4</ele>
        <time>2015-09-06T06:54:06Z</time>
      </trkpt>
      <trkpt lat="33.69899" lon="77.70189">
        <ele>4376.2</ele>
        <time>2015-09-06T06:54:11Z</time>
      </trkpt>
      <trkpt lat="33.699" lon="77.7019">
        <ele>4375.8</ele>
        <time>2015-09-06T06:54:12Z</time>
      </trkpt>
      <trkpt lat="33.69891" lon="77.70196">
        <ele>4376.6</ele>
        <time>2015-09-06T06:54:24Z</time>
      </trkpt>
      <trkpt lat="33.69885" lon="77.70203">
        <ele>4376.2</ele>
        <time>2015-09-06T06:54:32Z</time>
      </trkpt>
      <trkpt lat="33.69883" lon="77.70205">
        <ele>4376.6</ele>
        <time>2015-09-06T06:54:35Z</time>
      </trkpt>
      <trkpt lat="33.69876" lon="77.70202">
        <ele>4376.4</ele>
        <time>2015-09-06T06:54:42Z</time>
      </trkpt>
      <trkpt lat="33.69866" lon="77.70196">
        <ele>4377</ele>
        <time>2015-09-06T06:54:52Z</time>
      </trkpt>
      <trkpt lat="33.69865" lon="77.70197">
        <ele>4377.2</ele>
        <time>2015-09-06T06:54:55Z</time>
      </trkpt>
      <trkpt lat="33.69873" lon="77.70202">
        <ele>4377</ele>
        <time>2015-09-06T06:54:58Z</time>
      </trkpt>
      <trkpt lat="33.69869" lon="77.70201">
        <ele>4377</ele>
        <time>2015-09-06T06:55:00Z</time>
      </trkpt>
      <trkpt lat="33.69865" lon="77.70198">
        <ele>4377</ele>
        <time>2015-09-06T06:55:02Z</time>
      </trkpt>
      <trkpt lat="33.69862" lon="77.70197">
        <ele>4377.2</ele>
        <time>2015-09-06T06:55:04Z</time>
      </trkpt>
      <trkpt lat="33.69859" lon="77.70193">
        <ele>4377.2</ele>
        <time>2015-09-06T06:55:09Z</time>
      </trkpt>
      <trkpt lat="33.6986" lon="77.70206">
        <ele>4377.4</ele>
        <time>2015-09-06T06:55:28Z</time>
      </trkpt>
      <trkpt lat="33.69843" lon="77.70215">
        <ele>4377.2</ele>
        <time>2015-09-06T06:55:46Z</time>
      </trkpt>
      <trkpt lat="33.69837" lon="77.70217">
        <ele>4376.8</ele>
        <time>2015-09-06T06:55:52Z</time>
      </trkpt>
      <trkpt lat="33.69836" lon="77.70219">
        <ele>4376.8</ele>
        <time>2015-09-06T06:55:54Z</time>
      </trkpt>
      <trkpt lat="33.69834" lon="77.7022">
        <ele>4376.6</ele>
        <time>2015-09-06T06:55:56Z</time>
      </trkpt>
      <trkpt lat="33.69823" lon="77.70238">
        <ele>4377.8</ele>
        <time>2015-09-06T06:56:08Z</time>
      </trkpt>
      <trkpt lat="33.69817" lon="77.7025">
        <ele>4376</ele>
        <time>2015-09-06T06:56:17Z</time>
      </trkpt>
      <trkpt lat="33.69812" lon="77.70258">
        <ele>4375</ele>
        <time>2015-09-06T06:56:24Z</time>
      </trkpt>
      <trkpt lat="33.6981" lon="77.70261">
        <ele>4374.8</ele>
        <time>2015-09-06T06:56:27Z</time>
      </trkpt>
      <trkpt lat="33.69806" lon="77.70266">
        <ele>4373.8</ele>
        <time>2015-09-06T06:56:32Z</time>
      </trkpt>
      <trkpt lat="33.69795" lon="77.70283">
        <ele>4372.8</ele>
        <time>2015-09-06T06:56:51Z</time>
      </trkpt>
      <trkpt lat="33.69797" lon="77.70284">
        <ele>4371.6</ele>
        <time>2015-09-06T06:56:59Z</time>
      </trkpt>
      <trkpt lat="33.69794" lon="77.70288">
        <ele>4370.6</ele>
        <time>2015-09-06T06:57:07Z</time>
      </trkpt>
      <trkpt lat="33.69793" lon="77.70291">
        <ele>4370.2</ele>
        <time>2015-09-06T06:57:11Z</time>
      </trkpt>
      <trkpt lat="33.69799" lon="77.70294">
        <ele>4369.6</ele>
        <time>2015-09-06T06:57:30Z</time>
      </trkpt>
      <trkpt lat="33.69797" lon="77.70296">
        <ele>4369.6</ele>
        <time>2015-09-06T06:57:32Z</time>
      </trkpt>
      <trkpt lat="33.69796" lon="77.70296">
        <ele>4369.4</ele>
        <time>2015-09-06T06:57:33Z</time>
      </trkpt>
      <trkpt lat="33.69795" lon="77.70298">
        <ele>4369.2</ele>
        <time>2015-09-06T06:57:35Z</time>
      </trkpt>
      <trkpt lat="33.69791" lon="77.70301">
        <ele>4368.2</ele>
        <time>2015-09-06T06:57:41Z</time>
      </trkpt>
      <trkpt lat="33.69789" lon="77.70301">
        <ele>4367.2</ele>
        <time>2015-09-06T06:57:48Z</time>
      </trkpt>
      <trkpt lat="33.69787" lon="77.70301">
        <ele>4366</ele>
        <time>2015-09-06T06:57:53Z</time>
      </trkpt>
      <trkpt lat="33.69786" lon="77.70299">
        <ele>4365</ele>
        <time>2015-09-06T06:58:03Z</time>
      </trkpt>
      <trkpt lat="33.69783" lon="77.70303">
        <ele>4363.8</ele>
        <time>2015-09-06T06:58:09Z</time>
      </trkpt>
      <trkpt lat="33.6978" lon="77.70306">
        <ele>4362.8</ele>
        <time>2015-09-06T06:58:17Z</time>
      </trkpt>
      <trkpt lat="33.69777" lon="77.70309">
        <ele>4362.8</ele>
        <time>2015-09-06T06:58:21Z</time>
      </trkpt>
      <trkpt lat="33.69774" lon="77.70312">
        <ele>4363.2</ele>
        <time>2015-09-06T06:58:24Z</time>
      </trkpt>
      <trkpt lat="33.69772" lon="77.70314">
        <ele>4363.2</ele>
        <time>2015-09-06T06:58:26Z</time>
      </trkpt>
      <trkpt lat="33.69767" lon="77.70318">
        <ele>4362.6</ele>
        <time>2015-09-06T06:58:34Z</time>
      </trkpt>
      <trkpt lat="33.69763" lon="77.70323">
        <ele>4362</ele>
        <time>2015-09-06T06:58:37Z</time>
      </trkpt>
      <trkpt lat="33.69761" lon="77.70325">
        <ele>4361.8</ele>
        <time>2015-09-06T06:58:39Z</time>
      </trkpt>
      <trkpt lat="33.69751" lon="77.70334">
        <ele>4360.6</ele>
        <time>2015-09-06T06:58:49Z</time>
      </trkpt>
      <trkpt lat="33.69745" lon="77.70336">
        <ele>4359.6</ele>
        <time>2015-09-06T06:58:56Z</time>
      </trkpt>
      <trkpt lat="33.69743" lon="77.70336">
        <ele>4358.4</ele>
        <time>2015-09-06T06:59:02Z</time>
      </trkpt>
      <trkpt lat="33.6974" lon="77.70335">
        <ele>4357.2</ele>
        <time>2015-09-06T06:59:06Z</time>
      </trkpt>
      <trkpt lat="33.69736" lon="77.70334">
        <ele>4356</ele>
        <time>2015-09-06T06:59:11Z</time>
      </trkpt>
      <trkpt lat="33.69732" lon="77.70334">
        <ele>4354.8</ele>
        <time>2015-09-06T06:59:14Z</time>
      </trkpt>
      <trkpt lat="33.69731" lon="77.70335">
        <ele>4354.4</ele>
        <time>2015-09-06T06:59:15Z</time>
      </trkpt>
      <trkpt lat="33.69727" lon="77.70337">
        <ele>4353.6</ele>
        <time>2015-09-06T06:59:18Z</time>
      </trkpt>
      <trkpt lat="33.69717" lon="77.70343">
        <ele>4352.6</ele>
        <time>2015-09-06T06:59:30Z</time>
      </trkpt>
      <trkpt lat="33.69716" lon="77.70344">
        <ele>4351</ele>
        <time>2015-09-06T06:59:32Z</time>
      </trkpt>
      <trkpt lat="33.69716" lon="77.70344">
        <ele>4350.4</ele>
        <time>2015-09-06T06:59:33Z</time>
      </trkpt>
      <trkpt lat="33.69715" lon="77.70345">
        <ele>4349.8</ele>
        <time>2015-09-06T06:59:34Z</time>
      </trkpt>
      <trkpt lat="33.69714" lon="77.70345">
        <ele>4349.6</ele>
        <time>2015-09-06T06:59:35Z</time>
      </trkpt>
      <trkpt lat="33.69712" lon="77.70346">
        <ele>4349.4</ele>
        <time>2015-09-06T06:59:37Z</time>
      </trkpt>
      <trkpt lat="33.69712" lon="77.70347">
        <ele>4349.4</ele>
        <time>2015-09-06T06:59:38Z</time>
      </trkpt>
      <trkpt lat="33.69709" lon="77.7035">
        <ele>4349.4</ele>
        <time>2015-09-06T06:59:41Z</time>
      </trkpt>
      <trkpt lat="33.69707" lon="77.70356">
        <ele>4348.4</ele>
        <time>2015-09-06T06:59:47Z</time>
      </trkpt>
      <trkpt lat="33.69706" lon="77.70356">
        <ele>4347.4</ele>
        <time>2015-09-06T06:59:49Z</time>
      </trkpt>
      <trkpt lat="33.69703" lon="77.70362">
        <ele>4346.8</ele>
        <time>2015-09-06T06:59:54Z</time>
      </trkpt>
      <trkpt lat="33.69702" lon="77.70366">
        <ele>4346.2</ele>
        <time>2015-09-06T06:59:57Z</time>
      </trkpt>
      <trkpt lat="33.69699" lon="77.7037">
        <ele>4345</ele>
        <time>2015-09-06T07:00:02Z</time>
      </trkpt>
      <trkpt lat="33.69698" lon="77.70373">
        <ele>4343.8</ele>
        <time>2015-09-06T07:00:06Z</time>
      </trkpt>
      <trkpt lat="33.69695" lon="77.70378">
        <ele>4343.6</ele>
        <time>2015-09-06T07:00:13Z</time>
      </trkpt>
      <trkpt lat="33.69694" lon="77.7038">
        <ele>4343</ele>
        <time>2015-09-06T07:00:15Z</time>
      </trkpt>
      <trkpt lat="33.69694" lon="77.70381">
        <ele>4342.6</ele>
        <time>2015-09-06T07:00:16Z</time>
      </trkpt>
      <trkpt lat="33.69696" lon="77.70386">
        <ele>4341.4</ele>
        <time>2015-09-06T07:00:21Z</time>
      </trkpt>
      <trkpt lat="33.69694" lon="77.70391">
        <ele>4340.2</ele>
        <time>2015-09-06T07:00:25Z</time>
      </trkpt>
      <trkpt lat="33.69693" lon="77.70393">
        <ele>4339.6</ele>
        <time>2015-09-06T07:00:27Z</time>
      </trkpt>
      <trkpt lat="33.69692" lon="77.70396">
        <ele>4339</ele>
        <time>2015-09-06T07:00:29Z</time>
      </trkpt>
      <trkpt lat="33.69692" lon="77.70399">
        <ele>4338.4</ele>
        <time>2015-09-06T07:00:32Z</time>
      </trkpt>
      <trkpt lat="33.69688" lon="77.70404">
        <ele>4337.4</ele>
        <time>2015-09-06T07:00:41Z</time>
      </trkpt>
      <trkpt lat="33.69685" lon="77.70405">
        <ele>4336.2</ele>
        <time>2015-09-06T07:00:44Z</time>
      </trkpt>
      <trkpt lat="33.69683" lon="77.70406">
        <ele>4336</ele>
        <time>2015-09-06T07:00:47Z</time>
      </trkpt>
      <trkpt lat="33.69678" lon="77.70409">
        <ele>4334.6</ele>
        <time>2015-09-06T07:00:54Z</time>
      </trkpt>
      <trkpt lat="33.69672" lon="77.70413">
        <ele>4333.6</ele>
        <time>2015-09-06T07:01:01Z</time>
      </trkpt>
      <trkpt lat="33.69671" lon="77.70413">
        <ele>4333.6</ele>
        <time>2015-09-06T07:01:02Z</time>
      </trkpt>
      <trkpt lat="33.69664" lon="77.7042">
        <ele>4332.4</ele>
        <time>2015-09-06T07:01:07Z</time>
      </trkpt>
      <trkpt lat="33.69659" lon="77.70426">
        <ele>4331.2</ele>
        <time>2015-09-06T07:01:13Z</time>
      </trkpt>
      <trkpt lat="33.69658" lon="77.70427">
        <ele>4330.8</ele>
        <time>2015-09-06T07:01:14Z</time>
      </trkpt>
      <trkpt lat="33.69655" lon="77.70428">
        <ele>4330.2</ele>
        <time>2015-09-06T07:01:19Z</time>
      </trkpt>
      <trkpt lat="33.69653" lon="77.70431">
        <ele>4328.8</ele>
        <time>2015-09-06T07:01:22Z</time>
      </trkpt>
      <trkpt lat="33.69653" lon="77.70432">
        <ele>4328</ele>
        <time>2015-09-06T07:01:23Z</time>
      </trkpt>
      <trkpt lat="33.69653" lon="77.70432">
        <ele>4327</ele>
        <time>2015-09-06T07:01:24Z</time>
      </trkpt>
      <trkpt lat="33.69653" lon="77.70433">
        <ele>4326</ele>
        <time>2015-09-06T07:01:26Z</time>
      </trkpt>
      <trkpt lat="33.69653" lon="77.70438">
        <ele>4325</ele>
        <time>2015-09-06T07:01:30Z</time>
      </trkpt>
      <trkpt lat="33.69649" lon="77.70452">
        <ele>4323.8</ele>
        <time>2015-09-06T07:01:51Z</time>
      </trkpt>
      <trkpt lat="33.69646" lon="77.70456">
        <ele>4323</ele>
        <time>2015-09-06T07:01:54Z</time>
      </trkpt>
      <trkpt lat="33.69645" lon="77.70457">
        <ele>4322.8</ele>
        <time>2015-09-06T07:01:55Z</time>
      </trkpt>
      <trkpt lat="33.6965" lon="77.70451">
        <ele>4322.2</ele>
        <time>2015-09-06T07:01:57Z</time>
      </trkpt>
      <trkpt lat="33.69651" lon="77.70448">
        <ele>4321.6</ele>
        <time>2015-09-06T07:01:59Z</time>
      </trkpt>
      <trkpt lat="33.69649" lon="77.70451">
        <ele>4320.4</ele>
        <time>2015-09-06T07:02:03Z</time>
      </trkpt>
      <trkpt lat="33.69645" lon="77.70454">
        <ele>4319.4</ele>
        <time>2015-09-06T07:02:08Z</time>
      </trkpt>
      <trkpt lat="33.69643" lon="77.70455">
        <ele>4318.6</ele>
        <time>2015-09-06T07:02:10Z</time>
      </trkpt>
      <trkpt lat="33.69642" lon="77.70455">
        <ele>4318.2</ele>
        <time>2015-09-06T07:02:11Z</time>
      </trkpt>
      <trkpt lat="33.69638" lon="77.70457">
        <ele>4317.2</ele>
        <time>2015-09-06T07:02:14Z</time>
      </trkpt>
      <trkpt lat="33.69632" lon="77.70457">
        <ele>4316.4</ele>
        <time>2015-09-06T07:02:19Z</time>
      </trkpt>
      <trkpt lat="33.69631" lon="77.70457">
        <ele>4316.2</ele>
        <time>2015-09-06T07:02:21Z</time>
      </trkpt>
      <trkpt lat="33.6963" lon="77.70457">
        <ele>4315</ele>
        <time>2015-09-06T07:02:26Z</time>
      </trkpt>
      <trkpt lat="33.69625" lon="77.70463">
        <ele>4315</ele>
        <time>2015-09-06T07:02:31Z</time>
      </trkpt>
      <trkpt lat="33.69623" lon="77.70472">
        <ele>4314</ele>
        <time>2015-09-06T07:02:45Z</time>
      </trkpt>
      <trkpt lat="33.6962" lon="77.70474">
        <ele>4312.8</ele>
        <time>2015-09-06T07:02:48Z</time>
      </trkpt>
      <trkpt lat="33.69618" lon="77.70475">
        <ele>4312.4</ele>
        <time>2015-09-06T07:02:51Z</time>
      </trkpt>
      <trkpt lat="33.69614" lon="77.70481">
        <ele>4311.8</ele>
        <time>2015-09-06T07:03:00Z</time>
      </trkpt>
      <trkpt lat="33.69614" lon="77.70483">
        <ele>4310.6</ele>
        <time>2015-09-06T07:03:05Z</time>
      </trkpt>
      <trkpt lat="33.69613" lon="77.70482">
        <ele>4309.4</ele>
        <time>2015-09-06T07:03:07Z</time>
      </trkpt>
      <trkpt lat="33.6961" lon="77.70484">
        <ele>4308.6</ele>
        <time>2015-09-06T07:03:13Z</time>
      </trkpt>
      <trkpt lat="33.69606" lon="77.70489">
        <ele>4308.4</ele>
        <time>2015-09-06T07:03:17Z</time>
      </trkpt>
      <trkpt lat="33.69602" lon="77.70496">
        <ele>4307.4</ele>
        <time>2015-09-06T07:03:24Z</time>
      </trkpt>
      <trkpt lat="33.69601" lon="77.70498">
        <ele>4307.2</ele>
        <time>2015-09-06T07:03:26Z</time>
      </trkpt>
      <trkpt lat="33.696" lon="77.70504">
        <ele>4306.2</ele>
        <time>2015-09-06T07:03:30Z</time>
      </trkpt>
      <trkpt lat="33.69598" lon="77.7051">
        <ele>4306</ele>
        <time>2015-09-06T07:03:34Z</time>
      </trkpt>
      <trkpt lat="33.69593" lon="77.70515">
        <ele>4305.2</ele>
        <time>2015-09-06T07:03:38Z</time>
      </trkpt>
      <trkpt lat="33.69585" lon="77.70521">
        <ele>4304</ele>
        <time>2015-09-06T07:03:45Z</time>
      </trkpt>
      <trkpt lat="33.69581" lon="77.70526">
        <ele>4303</ele>
        <time>2015-09-06T07:03:51Z</time>
      </trkpt>
      <trkpt lat="33.69572" lon="77.70538">
        <ele>4301.6</ele>
        <time>2015-09-06T07:04:01Z</time>
      </trkpt>
      <trkpt lat="33.69568" lon="77.70544">
        <ele>4300.6</ele>
        <time>2015-09-06T07:04:08Z</time>
      </trkpt>
      <trkpt lat="33.69563" lon="77.70547">
        <ele>4299.4</ele>
        <time>2015-09-06T07:04:12Z</time>
      </trkpt>
      <trkpt lat="33.69563" lon="77.70548">
        <ele>4298.4</ele>
        <time>2015-09-06T07:04:15Z</time>
      </trkpt>
      <trkpt lat="33.69562" lon="77.70549">
        <ele>4298</ele>
        <time>2015-09-06T07:04:16Z</time>
      </trkpt>
      <trkpt lat="33.6956" lon="77.70549">
        <ele>4297.2</ele>
        <time>2015-09-06T07:04:21Z</time>
      </trkpt>
      <trkpt lat="33.69553" lon="77.70552">
        <ele>4297</ele>
        <time>2015-09-06T07:04:31Z</time>
      </trkpt>
      <trkpt lat="33.69548" lon="77.70555">
        <ele>4296.6</ele>
        <time>2015-09-06T07:04:35Z</time>
      </trkpt>
      <trkpt lat="33.69543" lon="77.70554">
        <ele>4296.2</ele>
        <time>2015-09-06T07:04:39Z</time>
      </trkpt>
      <trkpt lat="33.69542" lon="77.70554">
        <ele>4296</ele>
        <time>2015-09-06T07:04:40Z</time>
      </trkpt>
      <trkpt lat="33.69537" lon="77.70556">
        <ele>4295</ele>
        <time>2015-09-06T07:04:45Z</time>
      </trkpt>
      <trkpt lat="33.69535" lon="77.70557">
        <ele>4294.6</ele>
        <time>2015-09-06T07:04:47Z</time>
      </trkpt>
      <trkpt lat="33.69534" lon="77.70559">
        <ele>4294.2</ele>
        <time>2015-09-06T07:04:49Z</time>
      </trkpt>
      <trkpt lat="33.69532" lon="77.70562">
        <ele>4294</ele>
        <time>2015-09-06T07:04:51Z</time>
      </trkpt>
      <trkpt lat="33.69529" lon="77.70562">
        <ele>4293.2</ele>
        <time>2015-09-06T07:04:55Z</time>
      </trkpt>
      <trkpt lat="33.69529" lon="77.70562">
        <ele>4292.8</ele>
        <time>2015-09-06T07:04:56Z</time>
      </trkpt>
      <trkpt lat="33.69528" lon="77.70563">
        <ele>4291.8</ele>
        <time>2015-09-06T07:05:02Z</time>
      </trkpt>
      <trkpt lat="33.69523" lon="77.70565">
        <ele>4290.8</ele>
        <time>2015-09-06T07:05:09Z</time>
      </trkpt>
      <trkpt lat="33.69518" lon="77.7057">
        <ele>4289.6</ele>
        <time>2015-09-06T07:05:17Z</time>
      </trkpt>
      <trkpt lat="33.69515" lon="77.70572">
        <ele>4288.6</ele>
        <time>2015-09-06T07:05:21Z</time>
      </trkpt>
      <trkpt lat="33.69513" lon="77.70577">
        <ele>4287.6</ele>
        <time>2015-09-06T07:05:39Z</time>
      </trkpt>
      <trkpt lat="33.69511" lon="77.70575">
        <ele>4286.6</ele>
        <time>2015-09-06T07:05:42Z</time>
      </trkpt>
      <trkpt lat="33.69501" lon="77.70578">
        <ele>4285.4</ele>
        <time>2015-09-06T07:06:03Z</time>
      </trkpt>
      <trkpt lat="33.69501" lon="77.70581">
        <ele>4284</ele>
        <time>2015-09-06T07:06:06Z</time>
      </trkpt>
      <trkpt lat="33.69499" lon="77.70583">
        <ele>4282.6</ele>
        <time>2015-09-06T07:06:09Z</time>
      </trkpt>
      <trkpt lat="33.69499" lon="77.70585">
        <ele>4282</ele>
        <time>2015-09-06T07:06:11Z</time>
      </trkpt>
      <trkpt lat="33.69499" lon="77.7059">
        <ele>4281.6</ele>
        <time>2015-09-06T07:06:15Z</time>
      </trkpt>
      <trkpt lat="33.69498" lon="77.70593">
        <ele>4281</ele>
        <time>2015-09-06T07:06:18Z</time>
      </trkpt>
      <trkpt lat="33.69496" lon="77.70595">
        <ele>4280.2</ele>
        <time>2015-09-06T07:06:21Z</time>
      </trkpt>
      <trkpt lat="33.69493" lon="77.70597">
        <ele>4279</ele>
        <time>2015-09-06T07:06:24Z</time>
      </trkpt>
      <trkpt lat="33.6949" lon="77.70595">
        <ele>4278.2</ele>
        <time>2015-09-06T07:06:27Z</time>
      </trkpt>
      <trkpt lat="33.69488" lon="77.70596">
        <ele>4278</ele>
        <time>2015-09-06T07:06:30Z</time>
      </trkpt>
      <trkpt lat="33.69485" lon="77.706">
        <ele>4277</ele>
        <time>2015-09-06T07:06:38Z</time>
      </trkpt>
      <trkpt lat="33.69482" lon="77.706">
        <ele>4275.8</ele>
        <time>2015-09-06T07:06:44Z</time>
      </trkpt>
      <trkpt lat="33.69478" lon="77.706">
        <ele>4275</ele>
        <time>2015-09-06T07:06:47Z</time>
      </trkpt>
      <trkpt lat="33.69476" lon="77.706">
        <ele>4274.6</ele>
        <time>2015-09-06T07:06:50Z</time>
      </trkpt>
      <trkpt lat="33.69472" lon="77.706">
        <ele>4273.2</ele>
        <time>2015-09-06T07:06:53Z</time>
      </trkpt>
      <trkpt lat="33.69469" lon="77.70602">
        <ele>4272</ele>
        <time>2015-09-06T07:06:56Z</time>
      </trkpt>
      <trkpt lat="33.69466" lon="77.70602">
        <ele>4270.8</ele>
        <time>2015-09-06T07:07:00Z</time>
      </trkpt>
      <trkpt lat="33.69462" lon="77.70603">
        <ele>4269.6</ele>
        <time>2015-09-06T07:07:04Z</time>
      </trkpt>
      <trkpt lat="33.69461" lon="77.70603">
        <ele>4269.4</ele>
        <time>2015-09-06T07:07:05Z</time>
      </trkpt>
      <trkpt lat="33.69459" lon="77.70603">
        <ele>4268.4</ele>
        <time>2015-09-06T07:07:08Z</time>
      </trkpt>
      <trkpt lat="33.69458" lon="77.70604">
        <ele>4268</ele>
        <time>2015-09-06T07:07:09Z</time>
      </trkpt>
      <trkpt lat="33.69458" lon="77.70605">
        <ele>4267.4</ele>
        <time>2015-09-06T07:07:11Z</time>
      </trkpt>
      <trkpt lat="33.69455" lon="77.70612">
        <ele>4266.2</ele>
        <time>2015-09-06T07:07:17Z</time>
      </trkpt>
      <trkpt lat="33.69453" lon="77.70615">
        <ele>4265.8</ele>
        <time>2015-09-06T07:07:20Z</time>
      </trkpt>
      <trkpt lat="33.69448" lon="77.70619">
        <ele>4265.2</ele>
        <time>2015-09-06T07:07:27Z</time>
      </trkpt>
      <trkpt lat="33.6944" lon="77.70621">
        <ele>4264.6</ele>
        <time>2015-09-06T07:07:40Z</time>
      </trkpt>
      <trkpt lat="33.69438" lon="77.70621">
        <ele>4264.4</ele>
        <time>2015-09-06T07:07:42Z</time>
      </trkpt>
      <trkpt lat="33.69436" lon="77.70622">
        <ele>4264.2</ele>
        <time>2015-09-06T07:07:44Z</time>
      </trkpt>
      <trkpt lat="33.69435" lon="77.70623">
        <ele>4264</ele>
        <time>2015-09-06T07:07:46Z</time>
      </trkpt>
      <trkpt lat="33.69435" lon="77.70641">
        <ele>4263.8</ele>
        <time>2015-09-06T07:07:51Z</time>
      </trkpt>
      <trkpt lat="33.69433" lon="77.70639">
        <ele>4263.8</ele>
        <time>2015-09-06T07:07:54Z</time>
      </trkpt>
      <trkpt lat="33.69427" lon="77.70634">
        <ele>4264.4</ele>
        <time>2015-09-06T07:08:02Z</time>
      </trkpt>
      <trkpt lat="33.69425" lon="77.70634">
        <ele>4265.4</ele>
        <time>2015-09-06T07:08:07Z</time>
      </trkpt>
      <trkpt lat="33.69419" lon="77.70636">
        <ele>4266</ele>
        <time>2015-09-06T07:08:17Z</time>
      </trkpt>
      <trkpt lat="33.69417" lon="77.70637">
        <ele>4266</ele>
        <time>2015-09-06T07:08:19Z</time>
      </trkpt>
      <trkpt lat="33.6941" lon="77.70638">
        <ele>4265.4</ele>
        <time>2015-09-06T07:08:27Z</time>
      </trkpt>
      <trkpt lat="33.69407" lon="77.70637">
        <ele>4265.2</ele>
        <time>2015-09-06T07:08:31Z</time>
      </trkpt>
      <trkpt lat="33.69402" lon="77.70639">
        <ele>4264.4</ele>
        <time>2015-09-06T07:08:37Z</time>
      </trkpt>
      <trkpt lat="33.69398" lon="77.70642">
        <ele>4263.2</ele>
        <time>2015-09-06T07:08:43Z</time>
      </trkpt>
      <trkpt lat="33.69395" lon="77.70642">
        <ele>4262.8</ele>
        <time>2015-09-06T07:08:46Z</time>
      </trkpt>
      <trkpt lat="33.69394" lon="77.70637">
        <ele>4262.4</ele>
        <time>2015-09-06T07:08:51Z</time>
      </trkpt>
      <trkpt lat="33.69397" lon="77.70629">
        <ele>4262</ele>
        <time>2015-09-06T07:08:54Z</time>
      </trkpt>
      <trkpt lat="33.69394" lon="77.70632">
        <ele>4261</ele>
        <time>2015-09-06T07:09:04Z</time>
      </trkpt>
      <trkpt lat="33.69389" lon="77.70635">
        <ele>4260</ele>
        <time>2015-09-06T07:09:10Z</time>
      </trkpt>
      <trkpt lat="33.69386" lon="77.70637">
        <ele>4259.4</ele>
        <time>2015-09-06T07:09:13Z</time>
      </trkpt>
      <trkpt lat="33.69384" lon="77.70638">
        <ele>4258.8</ele>
        <time>2015-09-06T07:09:16Z</time>
      </trkpt>
      <trkpt lat="33.6938" lon="77.70641">
        <ele>4257.8</ele>
        <time>2015-09-06T07:09:21Z</time>
      </trkpt>
      <trkpt lat="33.69377" lon="77.70639">
        <ele>4256.8</ele>
        <time>2015-09-06T07:09:25Z</time>
      </trkpt>
      <trkpt lat="33.69374" lon="77.7064">
        <ele>4255.6</ele>
        <time>2015-09-06T07:09:30Z</time>
      </trkpt>
      <trkpt lat="33.69371" lon="77.70641">
        <ele>4254.4</ele>
        <time>2015-09-06T07:09:36Z</time>
      </trkpt>
      <trkpt lat="33.69369" lon="77.70642">
        <ele>4253.2</ele>
        <time>2015-09-06T07:09:41Z</time>
      </trkpt>
      <trkpt lat="33.69366" lon="77.70644">
        <ele>4252.6</ele>
        <time>2015-09-06T07:09:44Z</time>
      </trkpt>
      <trkpt lat="33.69365" lon="77.70646">
        <ele>4252.2</ele>
        <time>2015-09-06T07:09:46Z</time>
      </trkpt>
      <trkpt lat="33.69362" lon="77.70648">
        <ele>4251.2</ele>
        <time>2015-09-06T07:09:50Z</time>
      </trkpt>
      <trkpt lat="33.69362" lon="77.7065">
        <ele>4251</ele>
        <time>2015-09-06T07:09:51Z</time>
      </trkpt>
      <trkpt lat="33.6936" lon="77.70651">
        <ele>4250.6</ele>
        <time>2015-09-06T07:09:53Z</time>
      </trkpt>
      <trkpt lat="33.69357" lon="77.70655">
        <ele>4249.8</ele>
        <time>2015-09-06T07:09:56Z</time>
      </trkpt>
      <trkpt lat="33.69358" lon="77.70657">
        <ele>4248.8</ele>
        <time>2015-09-06T07:10:01Z</time>
      </trkpt>
      <trkpt lat="33.69354" lon="77.70653">
        <ele>4247.6</ele>
        <time>2015-09-06T07:10:07Z</time>
      </trkpt>
      <trkpt lat="33.69353" lon="77.70649">
        <ele>4246.6</ele>
        <time>2015-09-06T07:10:15Z</time>
      </trkpt>
      <trkpt lat="33.69346" lon="77.70645">
        <ele>4246.2</ele>
        <time>2015-09-06T07:10:31Z</time>
      </trkpt>
      <trkpt lat="33.69348" lon="77.70652">
        <ele>4247.6</ele>
        <time>2015-09-06T07:10:43Z</time>
      </trkpt>
      <trkpt lat="33.69345" lon="77.70653">
        <ele>4248</ele>
        <time>2015-09-06T07:10:47Z</time>
      </trkpt>
      <trkpt lat="33.69341" lon="77.70655">
        <ele>4248.8</ele>
        <time>2015-09-06T07:10:52Z</time>
      </trkpt>
      <trkpt lat="33.69337" lon="77.70657">
        <ele>4249.6</ele>
        <time>2015-09-06T07:10:57Z</time>
      </trkpt>
      <trkpt lat="33.69336" lon="77.70658">
        <ele>4249.8</ele>
        <time>2015-09-06T07:10:59Z</time>
      </trkpt>
      <trkpt lat="33.69333" lon="77.7066">
        <ele>4250.2</ele>
        <time>2015-09-06T07:11:03Z</time>
      </trkpt>
      <trkpt lat="33.69327" lon="77.7066">
        <ele>4250.8</ele>
        <time>2015-09-06T07:11:09Z</time>
      </trkpt>
      <trkpt lat="33.69325" lon="77.70661">
        <ele>4250.8</ele>
        <time>2015-09-06T07:11:11Z</time>
      </trkpt>
      <trkpt lat="33.69321" lon="77.70664">
        <ele>4251</ele>
        <time>2015-09-06T07:11:15Z</time>
      </trkpt>
      <trkpt lat="33.69307" lon="77.70669">
        <ele>4250</ele>
        <time>2015-09-06T07:11:37Z</time>
      </trkpt>
      <trkpt lat="33.69303" lon="77.70673">
        <ele>4249.8</ele>
        <time>2015-09-06T07:11:39Z</time>
      </trkpt>
      <trkpt lat="33.69301" lon="77.70676">
        <ele>4249.8</ele>
        <time>2015-09-06T07:11:40Z</time>
      </trkpt>
      <trkpt lat="33.69299" lon="77.70676">
        <ele>4249.8</ele>
        <time>2015-09-06T07:11:42Z</time>
      </trkpt>
      <trkpt lat="33.69298" lon="77.70676">
        <ele>4249.8</ele>
        <time>2015-09-06T07:11:44Z</time>
      </trkpt>
      <trkpt lat="33.69294" lon="77.70679">
        <ele>4249.8</ele>
        <time>2015-09-06T07:11:49Z</time>
      </trkpt>
      <trkpt lat="33.6929" lon="77.70679">
        <ele>4248.8</ele>
        <time>2015-09-06T07:11:53Z</time>
      </trkpt>
      <trkpt lat="33.69287" lon="77.70679">
        <ele>4248</ele>
        <time>2015-09-06T07:11:57Z</time>
      </trkpt>
      <trkpt lat="33.69286" lon="77.70678">
        <ele>4247.8</ele>
        <time>2015-09-06T07:11:59Z</time>
      </trkpt>
      <trkpt lat="33.69285" lon="77.70677">
        <ele>4247.6</ele>
        <time>2015-09-06T07:12:00Z</time>
      </trkpt>
      <trkpt lat="33.69284" lon="77.70675">
        <ele>4247.6</ele>
        <time>2015-09-06T07:12:02Z</time>
      </trkpt>
      <trkpt lat="33.69281" lon="77.70677">
        <ele>4246.6</ele>
        <time>2015-09-06T07:12:07Z</time>
      </trkpt>
      <trkpt lat="33.69273" lon="77.70685">
        <ele>4245.6</ele>
        <time>2015-09-06T07:12:24Z</time>
      </trkpt>
      <trkpt lat="33.69272" lon="77.70683">
        <ele>4244.6</ele>
        <time>2015-09-06T07:12:32Z</time>
      </trkpt>
      <trkpt lat="33.69263" lon="77.70687">
        <ele>4243.4</ele>
        <time>2015-09-06T07:12:46Z</time>
      </trkpt>
      <trkpt lat="33.69257" lon="77.70693">
        <ele>4242.2</ele>
        <time>2015-09-06T07:12:53Z</time>
      </trkpt>
      <trkpt lat="33.69254" lon="77.70694">
        <ele>4241</ele>
        <time>2015-09-06T07:12:57Z</time>
      </trkpt>
      <trkpt lat="33.69251" lon="77.70695">
        <ele>4240</ele>
        <time>2015-09-06T07:13:01Z</time>
      </trkpt>
      <trkpt lat="33.69242" lon="77.70702">
        <ele>4239</ele>
        <time>2015-09-06T07:13:09Z</time>
      </trkpt>
      <trkpt lat="33.69238" lon="77.70706">
        <ele>4238.6</ele>
        <time>2015-09-06T07:13:13Z</time>
      </trkpt>
      <trkpt lat="33.69236" lon="77.70708">
        <ele>4238.4</ele>
        <time>2015-09-06T07:13:15Z</time>
      </trkpt>
      <trkpt lat="33.69233" lon="77.7071">
        <ele>4238</ele>
        <time>2015-09-06T07:13:19Z</time>
      </trkpt>
      <trkpt lat="33.69232" lon="77.7071">
        <ele>4237.8</ele>
        <time>2015-09-06T07:13:20Z</time>
      </trkpt>
      <trkpt lat="33.69232" lon="77.70713">
        <ele>4237.2</ele>
        <time>2015-09-06T07:13:24Z</time>
      </trkpt>
      <trkpt lat="33.6923" lon="77.70717">
        <ele>4236.6</ele>
        <time>2015-09-06T07:13:31Z</time>
      </trkpt>
      <trkpt lat="33.69228" lon="77.70717">
        <ele>4235.6</ele>
        <time>2015-09-06T07:13:39Z</time>
      </trkpt>
      <trkpt lat="33.69226" lon="77.70719">
        <ele>4234.6</ele>
        <time>2015-09-06T07:13:45Z</time>
      </trkpt>
      <trkpt lat="33.69225" lon="77.70723">
        <ele>4233.4</ele>
        <time>2015-09-06T07:13:50Z</time>
      </trkpt>
      <trkpt lat="33.69222" lon="77.70729">
        <ele>4232.2</ele>
        <time>2015-09-06T07:13:55Z</time>
      </trkpt>
      <trkpt lat="33.69219" lon="77.70733">
        <ele>4231.2</ele>
        <time>2015-09-06T07:13:59Z</time>
      </trkpt>
      <trkpt lat="33.69213" lon="77.70737">
        <ele>4231.4</ele>
        <time>2015-09-06T07:14:09Z</time>
      </trkpt>
      <trkpt lat="33.6921" lon="77.70737">
        <ele>4231</ele>
        <time>2015-09-06T07:14:11Z</time>
      </trkpt>
      <trkpt lat="33.69206" lon="77.70737">
        <ele>4230.2</ele>
        <time>2015-09-06T07:14:15Z</time>
      </trkpt>
      <trkpt lat="33.69205" lon="77.70737">
        <ele>4230</ele>
        <time>2015-09-06T07:14:16Z</time>
      </trkpt>
      <trkpt lat="33.69199" lon="77.7074">
        <ele>4229.6</ele>
        <time>2015-09-06T07:14:20Z</time>
      </trkpt>
      <trkpt lat="33.69193" lon="77.7074">
        <ele>4229.2</ele>
        <time>2015-09-06T07:14:28Z</time>
      </trkpt>
      <trkpt lat="33.69193" lon="77.70735">
        <ele>4229</ele>
        <time>2015-09-06T07:14:31Z</time>
      </trkpt>
      <trkpt lat="33.69192" lon="77.70731">
        <ele>4228.2</ele>
        <time>2015-09-06T07:14:35Z</time>
      </trkpt>
      <trkpt lat="33.69189" lon="77.7073">
        <ele>4228</ele>
        <time>2015-09-06T07:14:38Z</time>
      </trkpt>
      <trkpt lat="33.69189" lon="77.70729">
        <ele>4227.8</ele>
        <time>2015-09-06T07:14:39Z</time>
      </trkpt>
      <trkpt lat="33.69187" lon="77.70728">
        <ele>4226.8</ele>
        <time>2015-09-06T07:14:43Z</time>
      </trkpt>
      <trkpt lat="33.69185" lon="77.70727">
        <ele>4226</ele>
        <time>2015-09-06T07:14:47Z</time>
      </trkpt>
      <trkpt lat="33.69184" lon="77.70726">
        <ele>4225.8</ele>
        <time>2015-09-06T07:14:48Z</time>
      </trkpt>
      <trkpt lat="33.69181" lon="77.70725">
        <ele>4225</ele>
        <time>2015-09-06T07:14:52Z</time>
      </trkpt>
      <trkpt lat="33.6918" lon="77.70725">
        <ele>4224.6</ele>
        <time>2015-09-06T07:14:53Z</time>
      </trkpt>
      <trkpt lat="33.69178" lon="77.70725">
        <ele>4224.4</ele>
        <time>2015-09-06T07:14:54Z</time>
      </trkpt>
      <trkpt lat="33.69173" lon="77.70728">
        <ele>4223.6</ele>
        <time>2015-09-06T07:14:58Z</time>
      </trkpt>
      <trkpt lat="33.69168" lon="77.70731">
        <ele>4223</ele>
        <time>2015-09-06T07:15:02Z</time>
      </trkpt>
      <trkpt lat="33.69165" lon="77.70733">
        <ele>4222.6</ele>
        <time>2015-09-06T07:15:04Z</time>
      </trkpt>
      <trkpt lat="33.69162" lon="77.70734">
        <ele>4222.2</ele>
        <time>2015-09-06T07:15:06Z</time>
      </trkpt>
      <trkpt lat="33.69153" lon="77.70741">
        <ele>4221.4</ele>
        <time>2015-09-06T07:15:11Z</time>
      </trkpt>
      <trkpt lat="33.69152" lon="77.70741">
        <ele>4221.4</ele>
        <time>2015-09-06T07:15:12Z</time>
      </trkpt>
      <trkpt lat="33.69148" lon="77.70741">
        <ele>4220.8</ele>
        <time>2015-09-06T07:15:16Z</time>
      </trkpt>
      <trkpt lat="33.69145" lon="77.7074">
        <ele>4220.4</ele>
        <time>2015-09-06T07:15:19Z</time>
      </trkpt>
      <trkpt lat="33.69141" lon="77.70736">
        <ele>4219.8</ele>
        <time>2015-09-06T07:15:24Z</time>
      </trkpt>
      <trkpt lat="33.69139" lon="77.70734">
        <ele>4219.4</ele>
        <time>2015-09-06T07:15:28Z</time>
      </trkpt>
      <trkpt lat="33.69136" lon="77.70729">
        <ele>4218.4</ele>
        <time>2015-09-06T07:15:34Z</time>
      </trkpt>
      <trkpt lat="33.69135" lon="77.70724">
        <ele>4217.6</ele>
        <time>2015-09-06T07:15:37Z</time>
      </trkpt>
      <trkpt lat="33.69133" lon="77.70722">
        <ele>4217.2</ele>
        <time>2015-09-06T07:15:39Z</time>
      </trkpt>
      <trkpt lat="33.69131" lon="77.70719">
        <ele>4216.8</ele>
        <time>2015-09-06T07:15:42Z</time>
      </trkpt>
      <trkpt lat="33.69128" lon="77.70717">
        <ele>4216.2</ele>
        <time>2015-09-06T07:15:46Z</time>
      </trkpt>
      <trkpt lat="33.69115" lon="77.70715">
        <ele>4215.2</ele>
        <time>2015-09-06T07:15:58Z</time>
      </trkpt>
      <trkpt lat="33.69109" lon="77.70716">
        <ele>4214</ele>
        <time>2015-09-06T07:16:04Z</time>
      </trkpt>
      <trkpt lat="33.69107" lon="77.70718">
        <ele>4213.8</ele>
        <time>2015-09-06T07:16:05Z</time>
      </trkpt>
      <trkpt lat="33.69104" lon="77.70721">
        <ele>4213</ele>
        <time>2015-09-06T07:16:08Z</time>
      </trkpt>
      <trkpt lat="33.69103" lon="77.70722">
        <ele>4212.8</ele>
        <time>2015-09-06T07:16:09Z</time>
      </trkpt>
      <trkpt lat="33.691" lon="77.70723">
        <ele>4212.4</ele>
        <time>2015-09-06T07:16:11Z</time>
      </trkpt>
      <trkpt lat="33.69099" lon="77.70725">
        <ele>4212</ele>
        <time>2015-09-06T07:16:13Z</time>
      </trkpt>
      <trkpt lat="33.69099" lon="77.70728">
        <ele>4211.8</ele>
        <time>2015-09-06T07:16:15Z</time>
      </trkpt>
      <trkpt lat="33.69098" lon="77.7073">
        <ele>4211.8</ele>
        <time>2015-09-06T07:16:16Z</time>
      </trkpt>
      <trkpt lat="33.69092" lon="77.70741">
        <ele>4211.2</ele>
        <time>2015-09-06T07:16:31Z</time>
      </trkpt>
      <trkpt lat="33.6909" lon="77.70746">
        <ele>4211.4</ele>
        <time>2015-09-06T07:16:33Z</time>
      </trkpt>
      <trkpt lat="33.69096" lon="77.7073">
        <ele>4210.8</ele>
        <time>2015-09-06T07:16:40Z</time>
      </trkpt>
      <trkpt lat="33.69094" lon="77.70729">
        <ele>4209.8</ele>
        <time>2015-09-06T07:16:45Z</time>
      </trkpt>
      <trkpt lat="33.69091" lon="77.70727">
        <ele>4208.6</ele>
        <time>2015-09-06T07:16:51Z</time>
      </trkpt>
      <trkpt lat="33.69091" lon="77.70726">
        <ele>4207.4</ele>
        <time>2015-09-06T07:16:56Z</time>
      </trkpt>
      <trkpt lat="33.69091" lon="77.70724">
        <ele>4206.4</ele>
        <time>2015-09-06T07:17:01Z</time>
      </trkpt>
      <trkpt lat="33.69091" lon="77.70723">
        <ele>4205.8</ele>
        <time>2015-09-06T07:17:04Z</time>
      </trkpt>
      <trkpt lat="33.69091" lon="77.70721">
        <ele>4205.2</ele>
        <time>2015-09-06T07:17:07Z</time>
      </trkpt>
      <trkpt lat="33.69093" lon="77.7072">
        <ele>4204</ele>
        <time>2015-09-06T07:17:12Z</time>
      </trkpt>
      <trkpt lat="33.69095" lon="77.70727">
        <ele>4204.2</ele>
        <time>2015-09-06T07:17:30Z</time>
      </trkpt>
      <trkpt lat="33.69088" lon="77.70728">
        <ele>4203.8</ele>
        <time>2015-09-06T07:17:41Z</time>
      </trkpt>
      <trkpt lat="33.69084" lon="77.70728">
        <ele>4203.6</ele>
        <time>2015-09-06T07:17:44Z</time>
      </trkpt>
      <trkpt lat="33.69079" lon="77.70735">
        <ele>4203.2</ele>
        <time>2015-09-06T07:17:47Z</time>
      </trkpt>
      <trkpt lat="33.69078" lon="77.70736">
        <ele>4203</ele>
        <time>2015-09-06T07:17:48Z</time>
      </trkpt>
      <trkpt lat="33.69071" lon="77.70741">
        <ele>4202</ele>
        <time>2015-09-06T07:17:58Z</time>
      </trkpt>
      <trkpt lat="33.69065" lon="77.70745">
        <ele>4201.4</ele>
        <time>2015-09-06T07:18:06Z</time>
      </trkpt>
      <trkpt lat="33.69066" lon="77.70745">
        <ele>4201</ele>
        <time>2015-09-06T07:18:09Z</time>
      </trkpt>
      <trkpt lat="33.69064" lon="77.70745">
        <ele>4199.8</ele>
        <time>2015-09-06T07:18:22Z</time>
      </trkpt>
      <trkpt lat="33.69061" lon="77.70745">
        <ele>4198.8</ele>
        <time>2015-09-06T07:18:26Z</time>
      </trkpt>
      <trkpt lat="33.69058" lon="77.70748">
        <ele>4197.8</ele>
        <time>2015-09-06T07:18:31Z</time>
      </trkpt>
      <trkpt lat="33.69056" lon="77.70759">
        <ele>4196.6</ele>
        <time>2015-09-06T07:18:41Z</time>
      </trkpt>
      <trkpt lat="33.69052" lon="77.70758">
        <ele>4195.6</ele>
        <time>2015-09-06T07:18:52Z</time>
      </trkpt>
      <trkpt lat="33.69051" lon="77.70762">
        <ele>4195</ele>
        <time>2015-09-06T07:19:03Z</time>
      </trkpt>
      <trkpt lat="33.6905" lon="77.70761">
        <ele>4194.6</ele>
        <time>2015-09-06T07:19:06Z</time>
      </trkpt>
      <trkpt lat="33.69057" lon="77.70755">
        <ele>4194.4</ele>
        <time>2015-09-06T07:19:17Z</time>
      </trkpt>
      <trkpt lat="33.69053" lon="77.70758">
        <ele>4194</ele>
        <time>2015-09-06T07:19:32Z</time>
      </trkpt>
      <trkpt lat="33.6905" lon="77.70765">
        <ele>4194</ele>
        <time>2015-09-06T07:19:34Z</time>
      </trkpt>
      <trkpt lat="33.69047" lon="77.7077">
        <ele>4194.4</ele>
        <time>2015-09-06T07:19:37Z</time>
      </trkpt>
      <trkpt lat="33.69045" lon="77.70772">
        <ele>4194.4</ele>
        <time>2015-09-06T07:19:39Z</time>
      </trkpt>
      <trkpt lat="33.69041" lon="77.70782">
        <ele>4195</ele>
        <time>2015-09-06T07:19:47Z</time>
      </trkpt>
      <trkpt lat="33.69039" lon="77.70786">
        <ele>4195</ele>
        <time>2015-09-06T07:19:51Z</time>
      </trkpt>
      <trkpt lat="33.69039" lon="77.70788">
        <ele>4195.2</ele>
        <time>2015-09-06T07:19:59Z</time>
      </trkpt>
      <trkpt lat="33.69035" lon="77.70784">
        <ele>4195.2</ele>
        <time>2015-09-06T07:20:01Z</time>
      </trkpt>
      <trkpt lat="33.69036" lon="77.70773">
        <ele>4195.6</ele>
        <time>2015-09-06T07:20:06Z</time>
      </trkpt>
      <trkpt lat="33.69041" lon="77.70783">
        <ele>4195.8</ele>
        <time>2015-09-06T07:20:12Z</time>
      </trkpt>
      <trkpt lat="33.6904" lon="77.70779">
        <ele>4195.6</ele>
        <time>2015-09-06T07:20:50Z</time>
      </trkpt>
      <trkpt lat="33.69041" lon="77.70777">
        <ele>4195.6</ele>
        <time>2015-09-06T07:20:52Z</time>
      </trkpt>
      <trkpt lat="33.69045" lon="77.70768">
        <ele>4195.6</ele>
        <time>2015-09-06T07:21:02Z</time>
      </trkpt>
      <trkpt lat="33.69047" lon="77.70763">
        <ele>4195.6</ele>
        <time>2015-09-06T07:21:05Z</time>
      </trkpt>
      <trkpt lat="33.6904" lon="77.70766">
        <ele>4195.6</ele>
        <time>2015-09-06T07:21:42Z</time>
      </trkpt>
      <trkpt lat="33.69041" lon="77.70763">
        <ele>4195.4</ele>
        <time>2015-09-06T07:21:58Z</time>
      </trkpt>
      <trkpt lat="33.69039" lon="77.70765">
        <ele>4196.6</ele>
        <time>2015-09-06T07:22:25Z</time>
      </trkpt>
      <trkpt lat="33.69037" lon="77.70771">
        <ele>4196.4</ele>
        <time>2015-09-06T07:22:34Z</time>
      </trkpt>
      <trkpt lat="33.6903" lon="77.70786">
        <ele>4196.4</ele>
        <time>2015-09-06T07:22:44Z</time>
      </trkpt>
      <trkpt lat="33.69029" lon="77.7078">
        <ele>4197.6</ele>
        <time>2015-09-06T07:23:08Z</time>
      </trkpt>
      <trkpt lat="33.6904" lon="77.70758">
        <ele>4198</ele>
        <time>2015-09-06T07:23:24Z</time>
      </trkpt>
      <trkpt lat="33.6904" lon="77.70755">
        <ele>4198</ele>
        <time>2015-09-06T07:23:26Z</time>
      </trkpt>
      <trkpt lat="33.69042" lon="77.70747">
        <ele>4198</ele>
        <time>2015-09-06T07:23:29Z</time>
      </trkpt>
      <trkpt lat="33.69047" lon="77.70739">
        <ele>4198.2</ele>
        <time>2015-09-06T07:23:35Z</time>
      </trkpt>
      <trkpt lat="33.69049" lon="77.70746">
        <ele>4197.8</ele>
        <time>2015-09-06T07:23:56Z</time>
      </trkpt>
      <trkpt lat="33.69048" lon="77.70747">
        <ele>4197.6</ele>
        <time>2015-09-06T07:23:58Z</time>
      </trkpt>
      <trkpt lat="33.69048" lon="77.70758">
        <ele>4197</ele>
        <time>2015-09-06T07:24:08Z</time>
      </trkpt>
      <trkpt lat="33.69046" lon="77.70775">
        <ele>4196.8</ele>
        <time>2015-09-06T07:24:13Z</time>
      </trkpt>
      <trkpt lat="33.69036" lon="77.70786">
        <ele>4196.6</ele>
        <time>2015-09-06T07:24:37Z</time>
      </trkpt>
      <trkpt lat="33.69036" lon="77.70782">
        <ele>4196.4</ele>
        <time>2015-09-06T07:24:41Z</time>
      </trkpt>
      <trkpt lat="33.69043" lon="77.70762">
        <ele>4196.8</ele>
        <time>2015-09-06T07:24:48Z</time>
      </trkpt>
      <trkpt lat="33.69044" lon="77.70759">
        <ele>4196.8</ele>
        <time>2015-09-06T07:24:50Z</time>
      </trkpt>
      <trkpt lat="33.69044" lon="77.7076">
        <ele>4196.8</ele>
        <time>2015-09-06T07:25:02Z</time>
      </trkpt>
      <trkpt lat="33.69042" lon="77.70758">
        <ele>4196.8</ele>
        <time>2015-09-06T07:25:04Z</time>
      </trkpt>
      <trkpt lat="33.69038" lon="77.70762">
        <ele>4197</ele>
        <time>2015-09-06T07:25:07Z</time>
      </trkpt>
      <trkpt lat="33.69037" lon="77.7077">
        <ele>4196.8</ele>
        <time>2015-09-06T07:25:16Z</time>
      </trkpt>
      <trkpt lat="33.69038" lon="77.70769">
        <ele>4196.8</ele>
        <time>2015-09-06T07:25:18Z</time>
      </trkpt>
      <trkpt lat="33.69028" lon="77.70761">
        <ele>4197.4</ele>
        <time>2015-09-06T07:25:35Z</time>
      </trkpt>
      <trkpt lat="33.69036" lon="77.70761">
        <ele>4197</ele>
        <time>2015-09-06T07:25:43Z</time>
      </trkpt>
      <trkpt lat="33.6904" lon="77.70776">
        <ele>4196.2</ele>
        <time>2015-09-06T07:26:00Z</time>
      </trkpt>
      <trkpt lat="33.69035" lon="77.70783">
        <ele>4196</ele>
        <time>2015-09-06T07:26:34Z</time>
      </trkpt>
      <trkpt lat="33.69028" lon="77.7079">
        <ele>4195.4</ele>
        <time>2015-09-06T07:26:50Z</time>
      </trkpt>
      <trkpt lat="33.69023" lon="77.70791">
        <ele>4194.4</ele>
        <time>2015-09-06T07:26:57Z</time>
      </trkpt>
      <trkpt lat="33.69022" lon="77.70791">
        <ele>4194.4</ele>
        <time>2015-09-06T07:26:58Z</time>
      </trkpt>
      <trkpt lat="33.69015" lon="77.70804">
        <ele>4193.4</ele>
        <time>2015-09-06T07:27:31Z</time>
      </trkpt>
      <trkpt lat="33.69012" lon="77.70814">
        <ele>4192.4</ele>
        <time>2015-09-06T07:27:43Z</time>
      </trkpt>
      <trkpt lat="33.69011" lon="77.7082">
        <ele>4191.4</ele>
        <time>2015-09-06T07:27:48Z</time>
      </trkpt>
      <trkpt lat="33.69004" lon="77.7084">
        <ele>4190.8</ele>
        <time>2015-09-06T07:28:05Z</time>
      </trkpt>
      <trkpt lat="33.69001" lon="77.70845">
        <ele>4190.4</ele>
        <time>2015-09-06T07:28:08Z</time>
      </trkpt>
      <trkpt lat="33.69001" lon="77.70846">
        <ele>4190.2</ele>
        <time>2015-09-06T07:28:09Z</time>
      </trkpt>
      <trkpt lat="33.69001" lon="77.70847">
        <ele>4190.2</ele>
        <time>2015-09-06T07:28:11Z</time>
      </trkpt>
      <trkpt lat="33.69013" lon="77.7085">
        <ele>4190.2</ele>
        <time>2015-09-06T07:28:17Z</time>
      </trkpt>
      <trkpt lat="33.69015" lon="77.7085">
        <ele>4190.2</ele>
        <time>2015-09-06T07:28:19Z</time>
      </trkpt>
      <trkpt lat="33.69019" lon="77.70852">
        <ele>4190</ele>
        <time>2015-09-06T07:28:24Z</time>
      </trkpt>
      <trkpt lat="33.69023" lon="77.70855">
        <ele>4189.6</ele>
        <time>2015-09-06T07:28:33Z</time>
      </trkpt>
      <trkpt lat="33.69017" lon="77.70853">
        <ele>4189.4</ele>
        <time>2015-09-06T07:28:37Z</time>
      </trkpt>
      <trkpt lat="33.69013" lon="77.70855">
        <ele>4189.2</ele>
        <time>2015-09-06T07:28:41Z</time>
      </trkpt>
      <trkpt lat="33.69009" lon="77.70857">
        <ele>4189.2</ele>
        <time>2015-09-06T07:28:44Z</time>
      </trkpt>
      <trkpt lat="33.69" lon="77.70861">
        <ele>4188.2</ele>
        <time>2015-09-06T07:28:51Z</time>
      </trkpt>
      <trkpt lat="33.68995" lon="77.70868">
        <ele>4187</ele>
        <time>2015-09-06T07:29:02Z</time>
      </trkpt>
      <trkpt lat="33.68988" lon="77.70883">
        <ele>4186.2</ele>
        <time>2015-09-06T07:29:24Z</time>
      </trkpt>
      <trkpt lat="33.68986" lon="77.70884">
        <ele>4186</ele>
        <time>2015-09-06T07:29:26Z</time>
      </trkpt>
      <trkpt lat="33.68981" lon="77.70892">
        <ele>4185</ele>
        <time>2015-09-06T07:29:47Z</time>
      </trkpt>
      <trkpt lat="33.68974" lon="77.70907">
        <ele>4184</ele>
        <time>2015-09-06T07:30:04Z</time>
      </trkpt>
      <trkpt lat="33.68973" lon="77.70909">
        <ele>4183.6</ele>
        <time>2015-09-06T07:30:07Z</time>
      </trkpt>
      <trkpt lat="33.68971" lon="77.70913">
        <ele>4183.6</ele>
        <time>2015-09-06T07:30:11Z</time>
      </trkpt>
      <trkpt lat="33.68969" lon="77.70915">
        <ele>4183.6</ele>
        <time>2015-09-06T07:30:13Z</time>
      </trkpt>
      <trkpt lat="33.68956" lon="77.70928">
        <ele>4183</ele>
        <time>2015-09-06T07:30:38Z</time>
      </trkpt>
      <trkpt lat="33.68955" lon="77.70929">
        <ele>4183</ele>
        <time>2015-09-06T07:30:39Z</time>
      </trkpt>
      <trkpt lat="33.68952" lon="77.70932">
        <ele>4181.8</ele>
        <time>2015-09-06T07:30:47Z</time>
      </trkpt>
      <trkpt lat="33.68945" lon="77.70933">
        <ele>4180.8</ele>
        <time>2015-09-06T07:31:01Z</time>
      </trkpt>
      <trkpt lat="33.68942" lon="77.70939">
        <ele>4180.2</ele>
        <time>2015-09-06T07:31:07Z</time>
      </trkpt>
      <trkpt lat="33.6894" lon="77.70941">
        <ele>4180</ele>
        <time>2015-09-06T07:31:09Z</time>
      </trkpt>
      <trkpt lat="33.68939" lon="77.70942">
        <ele>4179.8</ele>
        <time>2015-09-06T07:31:11Z</time>
      </trkpt>
      <trkpt lat="33.68928" lon="77.70948">
        <ele>4178.6</ele>
        <time>2015-09-06T07:31:28Z</time>
      </trkpt>
      <trkpt lat="33.68923" lon="77.70952">
        <ele>4177.4</ele>
        <time>2015-09-06T07:31:35Z</time>
      </trkpt>
      <trkpt lat="33.68921" lon="77.70958">
        <ele>4176.8</ele>
        <time>2015-09-06T07:31:40Z</time>
      </trkpt>
      <trkpt lat="33.68913" lon="77.70963">
        <ele>4177</ele>
        <time>2015-09-06T07:31:46Z</time>
      </trkpt>
      <trkpt lat="33.6891" lon="77.70968">
        <ele>4177</ele>
        <time>2015-09-06T07:31:50Z</time>
      </trkpt>
      <trkpt lat="33.68906" lon="77.7097">
        <ele>4176.4</ele>
        <time>2015-09-06T07:32:00Z</time>
      </trkpt>
      <trkpt lat="33.68901" lon="77.70973">
        <ele>4175.4</ele>
        <time>2015-09-06T07:32:08Z</time>
      </trkpt>
      <trkpt lat="33.68889" lon="77.70986">
        <ele>4174.2</ele>
        <time>2015-09-06T07:32:32Z</time>
      </trkpt>
      <trkpt lat="33.68882" lon="77.70987">
        <ele>4173.4</ele>
        <time>2015-09-06T07:32:54Z</time>
      </trkpt>
      <trkpt lat="33.68879" lon="77.70988">
        <ele>4173.2</ele>
        <time>2015-09-06T07:32:58Z</time>
      </trkpt>
      <trkpt lat="33.68867" lon="77.70998">
        <ele>4173.8</ele>
        <time>2015-09-06T07:33:13Z</time>
      </trkpt>
      <trkpt lat="33.68862" lon="77.70999">
        <ele>4172.4</ele>
        <time>2015-09-06T07:33:24Z</time>
      </trkpt>
      <trkpt lat="33.6886" lon="77.70998">
        <ele>4172.2</ele>
        <time>2015-09-06T07:33:26Z</time>
      </trkpt>
      <trkpt lat="33.6886" lon="77.70998">
        <ele>4172</ele>
        <time>2015-09-06T07:33:28Z</time>
      </trkpt>
      <trkpt lat="33.68858" lon="77.71001">
        <ele>4172.2</ele>
        <time>2015-09-06T07:33:30Z</time>
      </trkpt>
      <trkpt lat="33.68853" lon="77.71005">
        <ele>4171.2</ele>
        <time>2015-09-06T07:33:41Z</time>
      </trkpt>
      <trkpt lat="33.68852" lon="77.71006">
        <ele>4171</ele>
        <time>2015-09-06T07:33:42Z</time>
      </trkpt>
      <trkpt lat="33.68848" lon="77.71007">
        <ele>4171</ele>
        <time>2015-09-06T07:33:45Z</time>
      </trkpt>
      <trkpt lat="33.68845" lon="77.7101">
        <ele>4170.6</ele>
        <time>2015-09-06T07:33:51Z</time>
      </trkpt>
      <trkpt lat="33.68843" lon="77.71012">
        <ele>4170.2</ele>
        <time>2015-09-06T07:33:55Z</time>
      </trkpt>
      <trkpt lat="33.68841" lon="77.71015">
        <ele>4169.6</ele>
        <time>2015-09-06T07:33:57Z</time>
      </trkpt>
      <trkpt lat="33.68839" lon="77.71017">
        <ele>4169</ele>
        <time>2015-09-06T07:34:02Z</time>
      </trkpt>
      <trkpt lat="33.68833" lon="77.71028">
        <ele>4167.8</ele>
        <time>2015-09-06T07:34:14Z</time>
      </trkpt>
      <trkpt lat="33.68831" lon="77.71034">
        <ele>4167.2</ele>
        <time>2015-09-06T07:34:20Z</time>
      </trkpt>
      <trkpt lat="33.6883" lon="77.71035">
        <ele>4167.2</ele>
        <time>2015-09-06T07:34:22Z</time>
      </trkpt>
      <trkpt lat="33.6882" lon="77.71041">
        <ele>4166.8</ele>
        <time>2015-09-06T07:34:36Z</time>
      </trkpt>
      <trkpt lat="33.68819" lon="77.71042">
        <ele>4166.8</ele>
        <time>2015-09-06T07:34:39Z</time>
      </trkpt>
      <trkpt lat="33.68817" lon="77.71042">
        <ele>4166.6</ele>
        <time>2015-09-06T07:34:41Z</time>
      </trkpt>
      <trkpt lat="33.68814" lon="77.7104">
        <ele>4166.6</ele>
        <time>2015-09-06T07:34:44Z</time>
      </trkpt>
      <trkpt lat="33.68813" lon="77.7104">
        <ele>4166.4</ele>
        <time>2015-09-06T07:34:46Z</time>
      </trkpt>
      <trkpt lat="33.68811" lon="77.71042">
        <ele>4166.4</ele>
        <time>2015-09-06T07:34:48Z</time>
      </trkpt>
      <trkpt lat="33.68809" lon="77.71044">
        <ele>4166.2</ele>
        <time>2015-09-06T07:34:50Z</time>
      </trkpt>
      <trkpt lat="33.68807" lon="77.71045">
        <ele>4165.8</ele>
        <time>2015-09-06T07:34:53Z</time>
      </trkpt>
      <trkpt lat="33.68802" lon="77.71054">
        <ele>4164.8</ele>
        <time>2015-09-06T07:35:04Z</time>
      </trkpt>
      <trkpt lat="33.68801" lon="77.71056">
        <ele>4164.8</ele>
        <time>2015-09-06T07:35:06Z</time>
      </trkpt>
      <trkpt lat="33.68795" lon="77.71068">
        <ele>4163.6</ele>
        <time>2015-09-06T07:35:24Z</time>
      </trkpt>
      <trkpt lat="33.68793" lon="77.71077">
        <ele>4162.6</ele>
        <time>2015-09-06T07:35:37Z</time>
      </trkpt>
      <trkpt lat="33.68784" lon="77.71087">
        <ele>4161.6</ele>
        <time>2015-09-06T07:35:54Z</time>
      </trkpt>
      <trkpt lat="33.68777" lon="77.71087">
        <ele>4160.6</ele>
        <time>2015-09-06T07:36:10Z</time>
      </trkpt>
      <trkpt lat="33.68769" lon="77.71102">
        <ele>4159.6</ele>
        <time>2015-09-06T07:36:30Z</time>
      </trkpt>
      <trkpt lat="33.68765" lon="77.71107">
        <ele>4158.6</ele>
        <time>2015-09-06T07:36:46Z</time>
      </trkpt>
      <trkpt lat="33.68769" lon="77.71111">
        <ele>4159.6</ele>
        <time>2015-09-06T07:37:02Z</time>
      </trkpt>
      <trkpt lat="33.68771" lon="77.71116">
        <ele>4158.6</ele>
        <time>2015-09-06T07:37:58Z</time>
      </trkpt>
      <trkpt lat="33.6877" lon="77.71124">
        <ele>4158.8</ele>
        <time>2015-09-06T07:38:54Z</time>
      </trkpt>
      <trkpt lat="33.6877" lon="77.71131">
        <ele>4157.8</ele>
        <time>2015-09-06T07:40:01Z</time>
      </trkpt>
      <trkpt lat="33.68766" lon="77.7114">
        <ele>4157.4</ele>
        <time>2015-09-06T07:40:15Z</time>
      </trkpt>
      <trkpt lat="33.68767" lon="77.71144">
        <ele>4156.6</ele>
        <time>2015-09-06T07:40:21Z</time>
      </trkpt>
      <trkpt lat="33.68767" lon="77.71147">
        <ele>4156.6</ele>
        <time>2015-09-06T07:40:24Z</time>
      </trkpt>
      <trkpt lat="33.68768" lon="77.7115">
        <ele>4156.4</ele>
        <time>2015-09-06T07:40:28Z</time>
      </trkpt>
      <trkpt lat="33.68765" lon="77.71158">
        <ele>4155.2</ele>
        <time>2015-09-06T07:40:37Z</time>
      </trkpt>
      <trkpt lat="33.68766" lon="77.71167">
        <ele>4154.2</ele>
        <time>2015-09-06T07:40:48Z</time>
      </trkpt>
      <trkpt lat="33.6877" lon="77.71189">
        <ele>4154.4</ele>
        <time>2015-09-06T07:41:19Z</time>
      </trkpt>
      <trkpt lat="33.6877" lon="77.71195">
        <ele>4153.2</ele>
        <time>2015-09-06T07:41:32Z</time>
      </trkpt>
      <trkpt lat="33.6877" lon="77.71197">
        <ele>4153</ele>
        <time>2015-09-06T07:41:34Z</time>
      </trkpt>
      <trkpt lat="33.68768" lon="77.71197">
        <ele>4153.2</ele>
        <time>2015-09-06T07:41:40Z</time>
      </trkpt>
      <trkpt lat="33.68767" lon="77.71199">
        <ele>4153</ele>
        <time>2015-09-06T07:41:43Z</time>
      </trkpt>
      <trkpt lat="33.68767" lon="77.71203">
        <ele>4152.8</ele>
        <time>2015-09-06T07:41:45Z</time>
      </trkpt>
      <trkpt lat="33.68771" lon="77.71211">
        <ele>4152.2</ele>
        <time>2015-09-06T07:41:57Z</time>
      </trkpt>
      <trkpt lat="33.6877" lon="77.71217">
        <ele>4151</ele>
        <time>2015-09-06T07:42:06Z</time>
      </trkpt>
      <trkpt lat="33.68765" lon="77.71221">
        <ele>4150</ele>
        <time>2015-09-06T07:42:16Z</time>
      </trkpt>
      <trkpt lat="33.6876" lon="77.71224">
        <ele>4149.8</ele>
        <time>2015-09-06T07:42:23Z</time>
      </trkpt>
      <trkpt lat="33.68759" lon="77.71232">
        <ele>4150.4</ele>
        <time>2015-09-06T07:42:29Z</time>
      </trkpt>
      <trkpt lat="33.68754" lon="77.71236">
        <ele>4149</ele>
        <time>2015-09-06T07:42:43Z</time>
      </trkpt>
      <trkpt lat="33.68751" lon="77.71237">
        <ele>4148.8</ele>
        <time>2015-09-06T07:42:45Z</time>
      </trkpt>
      <trkpt lat="33.68751" lon="77.71237">
        <ele>4148.6</ele>
        <time>2015-09-06T07:42:47Z</time>
      </trkpt>
      <trkpt lat="33.68752" lon="77.71243">
        <ele>4148.8</ele>
        <time>2015-09-06T07:42:53Z</time>
      </trkpt>
      <trkpt lat="33.68752" lon="77.7125">
        <ele>4149.2</ele>
        <time>2015-09-06T07:43:02Z</time>
      </trkpt>
      <trkpt lat="33.68751" lon="77.71253">
        <ele>4149</ele>
        <time>2015-09-06T07:43:04Z</time>
      </trkpt>
      <trkpt lat="33.68751" lon="77.71256">
        <ele>4148</ele>
        <time>2015-09-06T07:43:07Z</time>
      </trkpt>
      <trkpt lat="33.68751" lon="77.71257">
        <ele>4147.8</ele>
        <time>2015-09-06T07:43:08Z</time>
      </trkpt>
      <trkpt lat="33.68751" lon="77.71258">
        <ele>4147.6</ele>
        <time>2015-09-06T07:43:10Z</time>
      </trkpt>
      <trkpt lat="33.6875" lon="77.71263">
        <ele>4147</ele>
        <time>2015-09-06T07:43:17Z</time>
      </trkpt>
      <trkpt lat="33.68748" lon="77.71263">
        <ele>4146.8</ele>
        <time>2015-09-06T07:43:19Z</time>
      </trkpt>
      <trkpt lat="33.68742" lon="77.71263">
        <ele>4145.8</ele>
        <time>2015-09-06T07:43:30Z</time>
      </trkpt>
      <trkpt lat="33.68735" lon="77.71273">
        <ele>4145.2</ele>
        <time>2015-09-06T07:43:44Z</time>
      </trkpt>
      <trkpt lat="33.68735" lon="77.71277">
        <ele>4145</ele>
        <time>2015-09-06T07:43:48Z</time>
      </trkpt>
      <trkpt lat="33.68734" lon="77.7128">
        <ele>4144.8</ele>
        <time>2015-09-06T07:43:55Z</time>
      </trkpt>
      <trkpt lat="33.68732" lon="77.71282">
        <ele>4143.6</ele>
        <time>2015-09-06T07:44:01Z</time>
      </trkpt>
      <trkpt lat="33.68728" lon="77.71284">
        <ele>4142.6</ele>
        <time>2015-09-06T07:44:06Z</time>
      </trkpt>
      <trkpt lat="33.68728" lon="77.71285">
        <ele>4142.6</ele>
        <time>2015-09-06T07:44:07Z</time>
      </trkpt>
      <trkpt lat="33.68726" lon="77.71288">
        <ele>4142.4</ele>
        <time>2015-09-06T07:44:10Z</time>
      </trkpt>
      <trkpt lat="33.68727" lon="77.71289">
        <ele>4142</ele>
        <time>2015-09-06T07:44:12Z</time>
      </trkpt>
      <trkpt lat="33.68724" lon="77.71295">
        <ele>4142</ele>
        <time>2015-09-06T07:44:19Z</time>
      </trkpt>
      <trkpt lat="33.68721" lon="77.71295">
        <ele>4141.6</ele>
        <time>2015-09-06T07:44:24Z</time>
      </trkpt>
      <trkpt lat="33.68721" lon="77.71296">
        <ele>4141.4</ele>
        <time>2015-09-06T07:44:25Z</time>
      </trkpt>
      <trkpt lat="33.6872" lon="77.71304">
        <ele>4141</ele>
        <time>2015-09-06T07:44:31Z</time>
      </trkpt>
      <trkpt lat="33.6872" lon="77.71305">
        <ele>4140.8</ele>
        <time>2015-09-06T07:44:33Z</time>
      </trkpt>
      <trkpt lat="33.68718" lon="77.71305">
        <ele>4140.6</ele>
        <time>2015-09-06T07:44:36Z</time>
      </trkpt>
      <trkpt lat="33.68716" lon="77.71309">
        <ele>4139.6</ele>
        <time>2015-09-06T07:44:42Z</time>
      </trkpt>
      <trkpt lat="33.68712" lon="77.71313">
        <ele>4139</ele>
        <time>2015-09-06T07:44:48Z</time>
      </trkpt>
      <trkpt lat="33.68708" lon="77.71316">
        <ele>4138.4</ele>
        <time>2015-09-06T07:44:54Z</time>
      </trkpt>
      <trkpt lat="33.68702" lon="77.71315">
        <ele>4137.4</ele>
        <time>2015-09-06T07:45:03Z</time>
      </trkpt>
      <trkpt lat="33.687" lon="77.71315">
        <ele>4137.4</ele>
        <time>2015-09-06T07:45:13Z</time>
      </trkpt>
      <trkpt lat="33.68698" lon="77.71312">
        <ele>4138.6</ele>
        <time>2015-09-06T07:45:26Z</time>
      </trkpt>
      <trkpt lat="33.68688" lon="77.71319">
        <ele>4137.4</ele>
        <time>2015-09-06T07:46:02Z</time>
      </trkpt>
      <trkpt lat="33.68681" lon="77.71321">
        <ele>4136.8</ele>
        <time>2015-09-06T07:46:24Z</time>
      </trkpt>
      <trkpt lat="33.6868" lon="77.71324">
        <ele>4136.8</ele>
        <time>2015-09-06T07:46:28Z</time>
      </trkpt>
      <trkpt lat="33.68675" lon="77.71325">
        <ele>4136.4</ele>
        <time>2015-09-06T07:46:58Z</time>
      </trkpt>
      <trkpt lat="33.68674" lon="77.71323">
        <ele>4135.4</ele>
        <time>2015-09-06T07:47:07Z</time>
      </trkpt>
      <trkpt lat="33.68677" lon="77.71324">
        <ele>4135.4</ele>
        <time>2015-09-06T07:47:14Z</time>
      </trkpt>
      <trkpt lat="33.68679" lon="77.71325">
        <ele>4135.4</ele>
        <time>2015-09-06T07:47:16Z</time>
      </trkpt>
      <trkpt lat="33.6868" lon="77.71326">
        <ele>4135.6</ele>
        <time>2015-09-06T07:47:19Z</time>
      </trkpt>
      <trkpt lat="33.68673" lon="77.71324">
        <ele>4136</ele>
        <time>2015-09-06T07:48:25Z</time>
      </trkpt>
      <trkpt lat="33.68668" lon="77.71336">
        <ele>4135.2</ele>
        <time>2015-09-06T07:49:17Z</time>
      </trkpt>
      <trkpt lat="33.6867" lon="77.71345">
        <ele>4134.4</ele>
        <time>2015-09-06T07:49:26Z</time>
      </trkpt>
      <trkpt lat="33.6867" lon="77.71346">
        <ele>4134.4</ele>
        <time>2015-09-06T07:49:28Z</time>
      </trkpt>
      <trkpt lat="33.68659" lon="77.71355">
        <ele>4133.2</ele>
        <time>2015-09-06T07:49:52Z</time>
      </trkpt>
      <trkpt lat="33.68646" lon="77.71369">
        <ele>4133.2</ele>
        <time>2015-09-06T07:50:20Z</time>
      </trkpt>
      <trkpt lat="33.68641" lon="77.71372">
        <ele>4134.2</ele>
        <time>2015-09-06T07:50:28Z</time>
      </trkpt>
      <trkpt lat="33.68638" lon="77.71377">
        <ele>4135.4</ele>
        <time>2015-09-06T07:50:37Z</time>
      </trkpt>
      <trkpt lat="33.68633" lon="77.71388">
        <ele>4134.2</ele>
        <time>2015-09-06T07:51:00Z</time>
      </trkpt>
      <trkpt lat="33.68632" lon="77.7139">
        <ele>4133.8</ele>
        <time>2015-09-06T07:51:02Z</time>
      </trkpt>
      <trkpt lat="33.6863" lon="77.71398">
        <ele>4134</ele>
        <time>2015-09-06T07:51:16Z</time>
      </trkpt>
      <trkpt lat="33.68628" lon="77.71404">
        <ele>4133.2</ele>
        <time>2015-09-06T07:51:29Z</time>
      </trkpt>
      <trkpt lat="33.68629" lon="77.7141">
        <ele>4132</ele>
        <time>2015-09-06T07:51:42Z</time>
      </trkpt>
      <trkpt lat="33.68627" lon="77.7142">
        <ele>4131</ele>
        <time>2015-09-06T07:51:54Z</time>
      </trkpt>
      <trkpt lat="33.68622" lon="77.71428">
        <ele>4130</ele>
        <time>2015-09-06T07:52:05Z</time>
      </trkpt>
      <trkpt lat="33.68617" lon="77.71433">
        <ele>4129</ele>
        <time>2015-09-06T07:52:14Z</time>
      </trkpt>
      <trkpt lat="33.68613" lon="77.71436">
        <ele>4127.8</ele>
        <time>2015-09-06T07:52:22Z</time>
      </trkpt>
      <trkpt lat="33.68608" lon="77.71441">
        <ele>4126.8</ele>
        <time>2015-09-06T07:52:33Z</time>
      </trkpt>
      <trkpt lat="33.68605" lon="77.71447">
        <ele>4125.8</ele>
        <time>2015-09-06T07:52:46Z</time>
      </trkpt>
      <trkpt lat="33.68601" lon="77.7146">
        <ele>4124.8</ele>
        <time>2015-09-06T07:53:05Z</time>
      </trkpt>
      <trkpt lat="33.68596" lon="77.71473">
        <ele>4123.6</ele>
        <time>2015-09-06T07:53:25Z</time>
      </trkpt>
      <trkpt lat="33.68594" lon="77.71491">
        <ele>4122.6</ele>
        <time>2015-09-06T07:53:53Z</time>
      </trkpt>
      <trkpt lat="33.68589" lon="77.71505">
        <ele>4121.6</ele>
        <time>2015-09-06T07:54:13Z</time>
      </trkpt>
      <trkpt lat="33.68582" lon="77.71518">
        <ele>4121</ele>
        <time>2015-09-06T07:54:26Z</time>
      </trkpt>
      <trkpt lat="33.6858" lon="77.7152">
        <ele>4120.4</ele>
        <time>2015-09-06T07:54:28Z</time>
      </trkpt>
      <trkpt lat="33.68579" lon="77.71522">
        <ele>4120.4</ele>
        <time>2015-09-06T07:54:31Z</time>
      </trkpt>
      <trkpt lat="33.68575" lon="77.71533">
        <ele>4119.4</ele>
        <time>2015-09-06T07:54:48Z</time>
      </trkpt>
      <trkpt lat="33.68567" lon="77.71546">
        <ele>4118.4</ele>
        <time>2015-09-06T07:55:08Z</time>
      </trkpt>
      <trkpt lat="33.68567" lon="77.71555">
        <ele>4117.2</ele>
        <time>2015-09-06T07:55:22Z</time>
      </trkpt>
      <trkpt lat="33.68557" lon="77.71573">
        <ele>4117.4</ele>
        <time>2015-09-06T07:55:49Z</time>
      </trkpt>
      <trkpt lat="33.68554" lon="77.71579">
        <ele>4117.8</ele>
        <time>2015-09-06T07:55:56Z</time>
      </trkpt>
      <trkpt lat="33.68556" lon="77.71597">
        <ele>4116.2</ele>
        <time>2015-09-06T07:56:27Z</time>
      </trkpt>
      <trkpt lat="33.68551" lon="77.71603">
        <ele>4115.4</ele>
        <time>2015-09-06T07:56:39Z</time>
      </trkpt>
      <trkpt lat="33.68548" lon="77.71606">
        <ele>4115.2</ele>
        <time>2015-09-06T07:56:43Z</time>
      </trkpt>
      <trkpt lat="33.68547" lon="77.71607">
        <ele>4115</ele>
        <time>2015-09-06T07:56:45Z</time>
      </trkpt>
      <trkpt lat="33.68543" lon="77.71611">
        <ele>4114</ele>
        <time>2015-09-06T07:56:56Z</time>
      </trkpt>
      <trkpt lat="33.68542" lon="77.71613">
        <ele>4113.8</ele>
        <time>2015-09-06T07:56:58Z</time>
      </trkpt>
      <trkpt lat="33.68542" lon="77.71625">
        <ele>4113</ele>
        <time>2015-09-06T07:57:08Z</time>
      </trkpt>
      <trkpt lat="33.68538" lon="77.71639">
        <ele>4112</ele>
        <time>2015-09-06T07:57:29Z</time>
      </trkpt>
      <trkpt lat="33.6853" lon="77.7164">
        <ele>4111.4</ele>
        <time>2015-09-06T07:57:37Z</time>
      </trkpt>
      <trkpt lat="33.68526" lon="77.71643">
        <ele>4111</ele>
        <time>2015-09-06T07:57:42Z</time>
      </trkpt>
      <trkpt lat="33.6852" lon="77.71651">
        <ele>4110</ele>
        <time>2015-09-06T07:57:56Z</time>
      </trkpt>
      <trkpt lat="33.6852" lon="77.71652">
        <ele>4109.8</ele>
        <time>2015-09-06T07:57:57Z</time>
      </trkpt>
      <trkpt lat="33.6852" lon="77.71657">
        <ele>4109.6</ele>
        <time>2015-09-06T07:58:01Z</time>
      </trkpt>
      <trkpt lat="33.68512" lon="77.71658">
        <ele>4111</ele>
        <time>2015-09-06T07:58:17Z</time>
      </trkpt>
      <trkpt lat="33.68498" lon="77.7167">
        <ele>4111.4</ele>
        <time>2015-09-06T07:58:42Z</time>
      </trkpt>
      <trkpt lat="33.68497" lon="77.71672">
        <ele>4111.4</ele>
        <time>2015-09-06T07:58:43Z</time>
      </trkpt>
      <trkpt lat="33.68496" lon="77.7168">
        <ele>4110.8</ele>
        <time>2015-09-06T07:58:51Z</time>
      </trkpt>
      <trkpt lat="33.68494" lon="77.71693">
        <ele>4110</ele>
        <time>2015-09-06T07:59:22Z</time>
      </trkpt>
      <trkpt lat="33.6849" lon="77.71714">
        <ele>4109</ele>
        <time>2015-09-06T07:59:49Z</time>
      </trkpt>
      <trkpt lat="33.6849" lon="77.71715">
        <ele>4109</ele>
        <time>2015-09-06T07:59:50Z</time>
      </trkpt>
      <trkpt lat="33.6849" lon="77.71716">
        <ele>4108.8</ele>
        <time>2015-09-06T07:59:51Z</time>
      </trkpt>
      <trkpt lat="33.68489" lon="77.71717">
        <ele>4108.6</ele>
        <time>2015-09-06T07:59:53Z</time>
      </trkpt>
      <trkpt lat="33.68486" lon="77.71723">
        <ele>4107.8</ele>
        <time>2015-09-06T08:00:03Z</time>
      </trkpt>
      <trkpt lat="33.68489" lon="77.71732">
        <ele>4106.8</ele>
        <time>2015-09-06T08:00:17Z</time>
      </trkpt>
      <trkpt lat="33.68493" lon="77.71738">
        <ele>4106</ele>
        <time>2015-09-06T08:00:22Z</time>
      </trkpt>
      <trkpt lat="33.68493" lon="77.7174">
        <ele>4105.8</ele>
        <time>2015-09-06T08:00:23Z</time>
      </trkpt>
      <trkpt lat="33.6849" lon="77.71742">
        <ele>4105.4</ele>
        <time>2015-09-06T08:00:26Z</time>
      </trkpt>
      <trkpt lat="33.68482" lon="77.7175">
        <ele>4105</ele>
        <time>2015-09-06T08:00:37Z</time>
      </trkpt>
      <trkpt lat="33.68479" lon="77.71754">
        <ele>4105</ele>
        <time>2015-09-06T08:00:41Z</time>
      </trkpt>
      <trkpt lat="33.68477" lon="77.71758">
        <ele>4104.8</ele>
        <time>2015-09-06T08:00:47Z</time>
      </trkpt>
      <trkpt lat="33.68474" lon="77.71772">
        <ele>4103.6</ele>
        <time>2015-09-06T08:01:09Z</time>
      </trkpt>
      <trkpt lat="33.68473" lon="77.71778">
        <ele>4102.6</ele>
        <time>2015-09-06T08:01:18Z</time>
      </trkpt>
      <trkpt lat="33.68474" lon="77.71783">
        <ele>4101.6</ele>
        <time>2015-09-06T08:01:27Z</time>
      </trkpt>
      <trkpt lat="33.68473" lon="77.71787">
        <ele>4100.4</ele>
        <time>2015-09-06T08:01:35Z</time>
      </trkpt>
      <trkpt lat="33.68473" lon="77.71802">
        <ele>4099.4</ele>
        <time>2015-09-06T08:02:00Z</time>
      </trkpt>
      <trkpt lat="33.68472" lon="77.71816">
        <ele>4098.4</ele>
        <time>2015-09-06T08:02:21Z</time>
      </trkpt>
      <trkpt lat="33.68472" lon="77.71819">
        <ele>4098.4</ele>
        <time>2015-09-06T08:02:24Z</time>
      </trkpt>
      <trkpt lat="33.68468" lon="77.71828">
        <ele>4097.4</ele>
        <time>2015-09-06T08:02:38Z</time>
      </trkpt>
      <trkpt lat="33.68463" lon="77.71836">
        <ele>4096.2</ele>
        <time>2015-09-06T08:02:55Z</time>
      </trkpt>
      <trkpt lat="33.68459" lon="77.71842">
        <ele>4095.2</ele>
        <time>2015-09-06T08:03:05Z</time>
      </trkpt>
      <trkpt lat="33.68456" lon="77.71843">
        <ele>4095</ele>
        <time>2015-09-06T08:03:09Z</time>
      </trkpt>
      <trkpt lat="33.68451" lon="77.71843">
        <ele>4094.2</ele>
        <time>2015-09-06T08:03:15Z</time>
      </trkpt>
      <trkpt lat="33.68447" lon="77.71844">
        <ele>4093.6</ele>
        <time>2015-09-06T08:03:20Z</time>
      </trkpt>
      <trkpt lat="33.68445" lon="77.71846">
        <ele>4093.2</ele>
        <time>2015-09-06T08:03:23Z</time>
      </trkpt>
      <trkpt lat="33.68444" lon="77.71847">
        <ele>4093</ele>
        <time>2015-09-06T08:03:25Z</time>
      </trkpt>
      <trkpt lat="33.68442" lon="77.71847">
        <ele>4093</ele>
        <time>2015-09-06T08:03:27Z</time>
      </trkpt>
      <trkpt lat="33.68439" lon="77.71848">
        <ele>4092.8</ele>
        <time>2015-09-06T08:03:29Z</time>
      </trkpt>
      <trkpt lat="33.68438" lon="77.71853">
        <ele>4092</ele>
        <time>2015-09-06T08:03:34Z</time>
      </trkpt>
      <trkpt lat="33.68438" lon="77.71857">
        <ele>4091.6</ele>
        <time>2015-09-06T08:03:38Z</time>
      </trkpt>
      <trkpt lat="33.68438" lon="77.71862">
        <ele>4091</ele>
        <time>2015-09-06T08:03:45Z</time>
      </trkpt>
      <trkpt lat="33.68437" lon="77.7187">
        <ele>4090</ele>
        <time>2015-09-06T08:03:53Z</time>
      </trkpt>
      <trkpt lat="33.68438" lon="77.71874">
        <ele>4089.8</ele>
        <time>2015-09-06T08:03:56Z</time>
      </trkpt>
      <trkpt lat="33.68438" lon="77.71883">
        <ele>4089.4</ele>
        <time>2015-09-06T08:04:05Z</time>
      </trkpt>
      <trkpt lat="33.6843" lon="77.71885">
        <ele>4088.8</ele>
        <time>2015-09-06T08:04:11Z</time>
      </trkpt>
      <trkpt lat="33.68429" lon="77.71886">
        <ele>4088.8</ele>
        <time>2015-09-06T08:04:12Z</time>
      </trkpt>
      <trkpt lat="33.68427" lon="77.71888">
        <ele>4088.8</ele>
        <time>2015-09-06T08:04:14Z</time>
      </trkpt>
      <trkpt lat="33.68421" lon="77.71892">
        <ele>4088.4</ele>
        <time>2015-09-06T08:04:20Z</time>
      </trkpt>
      <trkpt lat="33.68418" lon="77.71894">
        <ele>4088.4</ele>
        <time>2015-09-06T08:04:24Z</time>
      </trkpt>
      <trkpt lat="33.68414" lon="77.71903">
        <ele>4088.8</ele>
        <time>2015-09-06T08:04:34Z</time>
      </trkpt>
      <trkpt lat="33.68414" lon="77.71908">
        <ele>4087.8</ele>
        <time>2015-09-06T08:04:38Z</time>
      </trkpt>
      <trkpt lat="33.68413" lon="77.71914">
        <ele>4087</ele>
        <time>2015-09-06T08:04:43Z</time>
      </trkpt>
      <trkpt lat="33.68413" lon="77.71918">
        <ele>4086.6</ele>
        <time>2015-09-06T08:04:46Z</time>
      </trkpt>
      <trkpt lat="33.68409" lon="77.71921">
        <ele>4087</ele>
        <time>2015-09-06T08:04:51Z</time>
      </trkpt>
      <trkpt lat="33.68406" lon="77.71922">
        <ele>4087.8</ele>
        <time>2015-09-06T08:04:54Z</time>
      </trkpt>
      <trkpt lat="33.68402" lon="77.71923">
        <ele>4088.6</ele>
        <time>2015-09-06T08:04:59Z</time>
      </trkpt>
      <trkpt lat="33.684" lon="77.71924">
        <ele>4088.8</ele>
        <time>2015-09-06T08:05:01Z</time>
      </trkpt>
      <trkpt lat="33.68397" lon="77.71926">
        <ele>4088.4</ele>
        <time>2015-09-06T08:05:06Z</time>
      </trkpt>
      <trkpt lat="33.68394" lon="77.71927">
        <ele>4088.4</ele>
        <time>2015-09-06T08:05:09Z</time>
      </trkpt>
      <trkpt lat="33.68393" lon="77.71927">
        <ele>4088.4</ele>
        <time>2015-09-06T08:05:11Z</time>
      </trkpt>
      <trkpt lat="33.68389" lon="77.7193">
        <ele>4087.8</ele>
        <time>2015-09-06T08:05:19Z</time>
      </trkpt>
      <trkpt lat="33.68388" lon="77.71932">
        <ele>4087.6</ele>
        <time>2015-09-06T08:05:20Z</time>
      </trkpt>
      <trkpt lat="33.68387" lon="77.71936">
        <ele>4087.4</ele>
        <time>2015-09-06T08:05:22Z</time>
      </trkpt>
      <trkpt lat="33.68387" lon="77.71938">
        <ele>4087</ele>
        <time>2015-09-06T08:05:24Z</time>
      </trkpt>
      <trkpt lat="33.68385" lon="77.71939">
        <ele>4086.8</ele>
        <time>2015-09-06T08:05:26Z</time>
      </trkpt>
      <trkpt lat="33.68384" lon="77.71939">
        <ele>4086.6</ele>
        <time>2015-09-06T08:05:27Z</time>
      </trkpt>
      <trkpt lat="33.68373" lon="77.71941">
        <ele>4085.8</ele>
        <time>2015-09-06T08:05:37Z</time>
      </trkpt>
      <trkpt lat="33.68366" lon="77.71944">
        <ele>4084.8</ele>
        <time>2015-09-06T08:05:51Z</time>
      </trkpt>
      <trkpt lat="33.6836" lon="77.71959">
        <ele>4083.6</ele>
        <time>2015-09-06T08:06:18Z</time>
      </trkpt>
      <trkpt lat="33.6836" lon="77.71975">
        <ele>4083</ele>
        <time>2015-09-06T08:07:07Z</time>
      </trkpt>
      <trkpt lat="33.6836" lon="77.71979">
        <ele>4084</ele>
        <time>2015-09-06T08:07:22Z</time>
      </trkpt>
      <trkpt lat="33.68358" lon="77.72">
        <ele>4083</ele>
        <time>2015-09-06T08:07:55Z</time>
      </trkpt>
      <trkpt lat="33.68358" lon="77.72001">
        <ele>4083.2</ele>
        <time>2015-09-06T08:07:56Z</time>
      </trkpt>
      <trkpt lat="33.68355" lon="77.72013">
        <ele>4082.6</ele>
        <time>2015-09-06T08:08:12Z</time>
      </trkpt>
      <trkpt lat="33.68355" lon="77.72026">
        <ele>4081.6</ele>
        <time>2015-09-06T08:08:30Z</time>
      </trkpt>
      <trkpt lat="33.68351" lon="77.72028">
        <ele>4080.4</ele>
        <time>2015-09-06T08:08:37Z</time>
      </trkpt>
      <trkpt lat="33.6835" lon="77.7203">
        <ele>4080</ele>
        <time>2015-09-06T08:08:39Z</time>
      </trkpt>
      <trkpt lat="33.68351" lon="77.72041">
        <ele>4080.4</ele>
        <time>2015-09-06T08:08:49Z</time>
      </trkpt>
      <trkpt lat="33.68349" lon="77.72049">
        <ele>4080.6</ele>
        <time>2015-09-06T08:08:56Z</time>
      </trkpt>
      <trkpt lat="33.68339" lon="77.72062">
        <ele>4079.2</ele>
        <time>2015-09-06T08:09:09Z</time>
      </trkpt>
      <trkpt lat="33.68336" lon="77.72065">
        <ele>4079</ele>
        <time>2015-09-06T08:09:13Z</time>
      </trkpt>
      <trkpt lat="33.68327" lon="77.72067">
        <ele>4079.4</ele>
        <time>2015-09-06T08:09:23Z</time>
      </trkpt>
      <trkpt lat="33.68325" lon="77.72066">
        <ele>4079.6</ele>
        <time>2015-09-06T08:09:25Z</time>
      </trkpt>
      <trkpt lat="33.68322" lon="77.72067">
        <ele>4079.6</ele>
        <time>2015-09-06T08:09:30Z</time>
      </trkpt>
      <trkpt lat="33.68319" lon="77.7207">
        <ele>4079.6</ele>
        <time>2015-09-06T08:09:33Z</time>
      </trkpt>
      <trkpt lat="33.68318" lon="77.72071">
        <ele>4079.4</ele>
        <time>2015-09-06T08:09:35Z</time>
      </trkpt>
      <trkpt lat="33.68316" lon="77.72077">
        <ele>4079.8</ele>
        <time>2015-09-06T08:09:39Z</time>
      </trkpt>
      <trkpt lat="33.68314" lon="77.7208">
        <ele>4080.4</ele>
        <time>2015-09-06T08:09:42Z</time>
      </trkpt>
      <trkpt lat="33.68314" lon="77.72081">
        <ele>4080.6</ele>
        <time>2015-09-06T08:09:43Z</time>
      </trkpt>
      <trkpt lat="33.68308" lon="77.72095">
        <ele>4081</ele>
        <time>2015-09-06T08:10:02Z</time>
      </trkpt>
      <trkpt lat="33.68296" lon="77.72102">
        <ele>4079.8</ele>
        <time>2015-09-06T08:10:15Z</time>
      </trkpt>
      <trkpt lat="33.68293" lon="77.72105">
        <ele>4079.4</ele>
        <time>2015-09-06T08:10:22Z</time>
      </trkpt>
      <trkpt lat="33.68286" lon="77.72113">
        <ele>4078.6</ele>
        <time>2015-09-06T08:10:33Z</time>
      </trkpt>
      <trkpt lat="33.68284" lon="77.72116">
        <ele>4078.6</ele>
        <time>2015-09-06T08:10:36Z</time>
      </trkpt>
      <trkpt lat="33.68283" lon="77.72117">
        <ele>4078.8</ele>
        <time>2015-09-06T08:10:38Z</time>
      </trkpt>
      <trkpt lat="33.68278" lon="77.72123">
        <ele>4078.6</ele>
        <time>2015-09-06T08:10:47Z</time>
      </trkpt>
      <trkpt lat="33.68277" lon="77.72125">
        <ele>4078.6</ele>
        <time>2015-09-06T08:10:50Z</time>
      </trkpt>
      <trkpt lat="33.68274" lon="77.72129">
        <ele>4078.6</ele>
        <time>2015-09-06T08:10:54Z</time>
      </trkpt>
      <trkpt lat="33.6827" lon="77.72132">
        <ele>4078.4</ele>
        <time>2015-09-06T08:11:00Z</time>
      </trkpt>
      <trkpt lat="33.68269" lon="77.72135">
        <ele>4077.6</ele>
        <time>2015-09-06T08:11:05Z</time>
      </trkpt>
      <trkpt lat="33.68274" lon="77.72131">
        <ele>4077.6</ele>
        <time>2015-09-06T08:11:14Z</time>
      </trkpt>
      <trkpt lat="33.6829" lon="77.72136">
        <ele>4077.8</ele>
        <time>2015-09-06T08:11:33Z</time>
      </trkpt>
      <trkpt lat="33.68288" lon="77.72137">
        <ele>4077.8</ele>
        <time>2015-09-06T08:11:34Z</time>
      </trkpt>
      <trkpt lat="33.68282" lon="77.7214">
        <ele>4077.2</ele>
        <time>2015-09-06T08:11:38Z</time>
      </trkpt>
      <trkpt lat="33.6828" lon="77.72142">
        <ele>4077</ele>
        <time>2015-09-06T08:11:41Z</time>
      </trkpt>
      <trkpt lat="33.68277" lon="77.72145">
        <ele>4076.4</ele>
        <time>2015-09-06T08:11:44Z</time>
      </trkpt>
      <trkpt lat="33.68275" lon="77.72147">
        <ele>4076.2</ele>
        <time>2015-09-06T08:11:46Z</time>
      </trkpt>
      <trkpt lat="33.68273" lon="77.72149">
        <ele>4076.2</ele>
        <time>2015-09-06T08:11:48Z</time>
      </trkpt>
      <trkpt lat="33.68268" lon="77.72153">
        <ele>4075.4</ele>
        <time>2015-09-06T08:11:52Z</time>
      </trkpt>
      <trkpt lat="33.68267" lon="77.72154">
        <ele>4075.2</ele>
        <time>2015-09-06T08:11:53Z</time>
      </trkpt>
      <trkpt lat="33.68267" lon="77.72155">
        <ele>4075</ele>
        <time>2015-09-06T08:11:54Z</time>
      </trkpt>
      <trkpt lat="33.68264" lon="77.7216">
        <ele>4074.8</ele>
        <time>2015-09-06T08:11:58Z</time>
      </trkpt>
      <trkpt lat="33.68263" lon="77.72162">
        <ele>4074.6</ele>
        <time>2015-09-06T08:12:00Z</time>
      </trkpt>
      <trkpt lat="33.6826" lon="77.72166">
        <ele>4074.2</ele>
        <time>2015-09-06T08:12:06Z</time>
      </trkpt>
      <trkpt lat="33.68261" lon="77.72168">
        <ele>4074</ele>
        <time>2015-09-06T08:12:08Z</time>
      </trkpt>
      <trkpt lat="33.68259" lon="77.72173">
        <ele>4073.8</ele>
        <time>2015-09-06T08:12:12Z</time>
      </trkpt>
      <trkpt lat="33.68259" lon="77.72175">
        <ele>4073.6</ele>
        <time>2015-09-06T08:12:14Z</time>
      </trkpt>
      <trkpt lat="33.68255" lon="77.7218">
        <ele>4073.4</ele>
        <time>2015-09-06T08:12:19Z</time>
      </trkpt>
      <trkpt lat="33.68253" lon="77.7218">
        <ele>4073.2</ele>
        <time>2015-09-06T08:12:21Z</time>
      </trkpt>
      <trkpt lat="33.68251" lon="77.72181">
        <ele>4073.4</ele>
        <time>2015-09-06T08:12:23Z</time>
      </trkpt>
      <trkpt lat="33.6825" lon="77.72183">
        <ele>4073</ele>
        <time>2015-09-06T08:12:32Z</time>
      </trkpt>
      <trkpt lat="33.68251" lon="77.72186">
        <ele>4072.6</ele>
        <time>2015-09-06T08:12:49Z</time>
      </trkpt>
      <trkpt lat="33.68251" lon="77.72185">
        <ele>4072.2</ele>
        <time>2015-09-06T08:13:06Z</time>
      </trkpt>
      <trkpt lat="33.68248" lon="77.72189">
        <ele>4072</ele>
        <time>2015-09-06T08:13:10Z</time>
      </trkpt>
      <trkpt lat="33.68249" lon="77.72201">
        <ele>4071.6</ele>
        <time>2015-09-06T08:13:43Z</time>
      </trkpt>
      <trkpt lat="33.68245" lon="77.72205">
        <ele>4071.2</ele>
        <time>2015-09-06T08:13:48Z</time>
      </trkpt>
      <trkpt lat="33.68244" lon="77.72207">
        <ele>4071</ele>
        <time>2015-09-06T08:13:51Z</time>
      </trkpt>
      <trkpt lat="33.68243" lon="77.72213">
        <ele>4070.8</ele>
        <time>2015-09-06T08:13:57Z</time>
      </trkpt>
      <trkpt lat="33.68241" lon="77.72221">
        <ele>4069.8</ele>
        <time>2015-09-06T08:14:10Z</time>
      </trkpt>
      <trkpt lat="33.68241" lon="77.72224">
        <ele>4069.4</ele>
        <time>2015-09-06T08:14:13Z</time>
      </trkpt>
      <trkpt lat="33.68239" lon="77.72226">
        <ele>4068.8</ele>
        <time>2015-09-06T08:14:16Z</time>
      </trkpt>
      <trkpt lat="33.68235" lon="77.72233">
        <ele>4068.4</ele>
        <time>2015-09-06T08:14:21Z</time>
      </trkpt>
      <trkpt lat="33.68234" lon="77.72241">
        <ele>4067.8</ele>
        <time>2015-09-06T08:14:27Z</time>
      </trkpt>
      <trkpt lat="33.68232" lon="77.72245">
        <ele>4067.6</ele>
        <time>2015-09-06T08:14:29Z</time>
      </trkpt>
      <trkpt lat="33.68223" lon="77.72264">
        <ele>4067.2</ele>
        <time>2015-09-06T08:14:44Z</time>
      </trkpt>
      <trkpt lat="33.68221" lon="77.72271">
        <ele>4066.4</ele>
        <time>2015-09-06T08:14:50Z</time>
      </trkpt>
      <trkpt lat="33.68221" lon="77.72273">
        <ele>4065.2</ele>
        <time>2015-09-06T08:14:53Z</time>
      </trkpt>
      <trkpt lat="33.68219" lon="77.72276">
        <ele>4064</ele>
        <time>2015-09-06T08:14:56Z</time>
      </trkpt>
      <trkpt lat="33.68215" lon="77.72281">
        <ele>4062.8</ele>
        <time>2015-09-06T08:15:04Z</time>
      </trkpt>
      <trkpt lat="33.68214" lon="77.72286">
        <ele>4061.8</ele>
        <time>2015-09-06T08:15:08Z</time>
      </trkpt>
      <trkpt lat="33.68211" lon="77.72291">
        <ele>4060.6</ele>
        <time>2015-09-06T08:15:13Z</time>
      </trkpt>
      <trkpt lat="33.68209" lon="77.72294">
        <ele>4060.4</ele>
        <time>2015-09-06T08:15:16Z</time>
      </trkpt>
      <trkpt lat="33.68207" lon="77.72301">
        <ele>4059.6</ele>
        <time>2015-09-06T08:15:30Z</time>
      </trkpt>
      <trkpt lat="33.68204" lon="77.72302">
        <ele>4058.6</ele>
        <time>2015-09-06T08:15:36Z</time>
      </trkpt>
      <trkpt lat="33.68201" lon="77.723">
        <ele>4057.8</ele>
        <time>2015-09-06T08:15:40Z</time>
      </trkpt>
      <trkpt lat="33.68198" lon="77.72302">
        <ele>4057.4</ele>
        <time>2015-09-06T08:15:44Z</time>
      </trkpt>
      <trkpt lat="33.68195" lon="77.72304">
        <ele>4056.4</ele>
        <time>2015-09-06T08:15:50Z</time>
      </trkpt>
      <trkpt lat="33.68192" lon="77.72306">
        <ele>4056</ele>
        <time>2015-09-06T08:15:53Z</time>
      </trkpt>
      <trkpt lat="33.68189" lon="77.72306">
        <ele>4055.6</ele>
        <time>2015-09-06T08:15:55Z</time>
      </trkpt>
      <trkpt lat="33.68187" lon="77.72306">
        <ele>4055.4</ele>
        <time>2015-09-06T08:15:57Z</time>
      </trkpt>
      <trkpt lat="33.68183" lon="77.72312">
        <ele>4055</ele>
        <time>2015-09-06T08:16:06Z</time>
      </trkpt>
      <trkpt lat="33.68183" lon="77.72313">
        <ele>4054.8</ele>
        <time>2015-09-06T08:16:07Z</time>
      </trkpt>
      <trkpt lat="33.68181" lon="77.72314">
        <ele>4054.6</ele>
        <time>2015-09-06T08:16:09Z</time>
      </trkpt>
      <trkpt lat="33.68178" lon="77.72319">
        <ele>4054.4</ele>
        <time>2015-09-06T08:16:14Z</time>
      </trkpt>
      <trkpt lat="33.68176" lon="77.72322">
        <ele>4054.2</ele>
        <time>2015-09-06T08:16:17Z</time>
      </trkpt>
      <trkpt lat="33.68173" lon="77.7233">
        <ele>4054.4</ele>
        <time>2015-09-06T08:16:27Z</time>
      </trkpt>
      <trkpt lat="33.68169" lon="77.72334">
        <ele>4054</ele>
        <time>2015-09-06T08:16:32Z</time>
      </trkpt>
      <trkpt lat="33.68154" lon="77.72342">
        <ele>4054.2</ele>
        <time>2015-09-06T08:16:51Z</time>
      </trkpt>
      <trkpt lat="33.68144" lon="77.72346">
        <ele>4053.2</ele>
        <time>2015-09-06T08:17:10Z</time>
      </trkpt>
      <trkpt lat="33.68144" lon="77.72348">
        <ele>4052.8</ele>
        <time>2015-09-06T08:17:12Z</time>
      </trkpt>
      <trkpt lat="33.68144" lon="77.72352">
        <ele>4052.6</ele>
        <time>2015-09-06T08:17:15Z</time>
      </trkpt>
      <trkpt lat="33.68143" lon="77.72361">
        <ele>4052.8</ele>
        <time>2015-09-06T08:17:23Z</time>
      </trkpt>
      <trkpt lat="33.6814" lon="77.72371">
        <ele>4052.2</ele>
        <time>2015-09-06T08:17:49Z</time>
      </trkpt>
      <trkpt lat="33.68136" lon="77.72366">
        <ele>4053</ele>
        <time>2015-09-06T08:18:07Z</time>
      </trkpt>
      <trkpt lat="33.68136" lon="77.72367">
        <ele>4051.2</ele>
        <time>2015-09-06T08:18:12Z</time>
      </trkpt>
      <trkpt lat="33.68141" lon="77.72372">
        <ele>4052.2</ele>
        <time>2015-09-06T08:18:59Z</time>
      </trkpt>
      <trkpt lat="33.68135" lon="77.72373">
        <ele>4051.2</ele>
        <time>2015-09-06T08:19:25Z</time>
      </trkpt>
      <trkpt lat="33.68134" lon="77.72373">
        <ele>4050.2</ele>
        <time>2015-09-06T08:19:36Z</time>
      </trkpt>
      <trkpt lat="33.6813" lon="77.72375">
        <ele>4050</ele>
        <time>2015-09-06T08:20:45Z</time>
      </trkpt>
      <trkpt lat="33.68133" lon="77.72378">
        <ele>4050.2</ele>
        <time>2015-09-06T08:21:24Z</time>
      </trkpt>
      <trkpt lat="33.68128" lon="77.7239">
        <ele>4050</ele>
        <time>2015-09-06T08:21:39Z</time>
      </trkpt>
      <trkpt lat="33.68124" lon="77.72408">
        <ele>4049.6</ele>
        <time>2015-09-06T08:21:55Z</time>
      </trkpt>
      <trkpt lat="33.68124" lon="77.72415">
        <ele>4049.2</ele>
        <time>2015-09-06T08:22:02Z</time>
      </trkpt>
      <trkpt lat="33.68123" lon="77.7242">
        <ele>4049.2</ele>
        <time>2015-09-06T08:22:07Z</time>
      </trkpt>
      <trkpt lat="33.68115" lon="77.72433">
        <ele>4048.4</ele>
        <time>2015-09-06T08:22:23Z</time>
      </trkpt>
      <trkpt lat="33.68114" lon="77.72437">
        <ele>4048.2</ele>
        <time>2015-09-06T08:22:27Z</time>
      </trkpt>
      <trkpt lat="33.68113" lon="77.72438">
        <ele>4048.2</ele>
        <time>2015-09-06T08:22:29Z</time>
      </trkpt>
      <trkpt lat="33.68111" lon="77.72447">
        <ele>4048.2</ele>
        <time>2015-09-06T08:22:40Z</time>
      </trkpt>
      <trkpt lat="33.68109" lon="77.7245">
        <ele>4048.2</ele>
        <time>2015-09-06T08:22:42Z</time>
      </trkpt>
      <trkpt lat="33.68106" lon="77.72466">
        <ele>4047.6</ele>
        <time>2015-09-06T08:22:56Z</time>
      </trkpt>
      <trkpt lat="33.68106" lon="77.72476">
        <ele>4047.4</ele>
        <time>2015-09-06T08:23:06Z</time>
      </trkpt>
      <trkpt lat="33.68101" lon="77.72487">
        <ele>4047.2</ele>
        <time>2015-09-06T08:23:18Z</time>
      </trkpt>
      <trkpt lat="33.68096" lon="77.72492">
        <ele>4047.2</ele>
        <time>2015-09-06T08:23:23Z</time>
      </trkpt>
      <trkpt lat="33.68091" lon="77.725">
        <ele>4047.2</ele>
        <time>2015-09-06T08:23:31Z</time>
      </trkpt>
      <trkpt lat="33.6809" lon="77.72501">
        <ele>4047.2</ele>
        <time>2015-09-06T08:23:33Z</time>
      </trkpt>
      <trkpt lat="33.68089" lon="77.72502">
        <ele>4047</ele>
        <time>2015-09-06T08:23:34Z</time>
      </trkpt>
      <trkpt lat="33.6808" lon="77.72521">
        <ele>4046.6</ele>
        <time>2015-09-06T08:23:58Z</time>
      </trkpt>
      <trkpt lat="33.68079" lon="77.72522">
        <ele>4046.6</ele>
        <time>2015-09-06T08:24:00Z</time>
      </trkpt>
      <trkpt lat="33.68075" lon="77.72526">
        <ele>4046.4</ele>
        <time>2015-09-06T08:24:06Z</time>
      </trkpt>
      <trkpt lat="33.68063" lon="77.72538">
        <ele>4047</ele>
        <time>2015-09-06T08:24:34Z</time>
      </trkpt>
      <trkpt lat="33.68061" lon="77.72538">
        <ele>4047</ele>
        <time>2015-09-06T08:24:35Z</time>
      </trkpt>
      <trkpt lat="33.68057" lon="77.72538">
        <ele>4046.8</ele>
        <time>2015-09-06T08:24:37Z</time>
      </trkpt>
      <trkpt lat="33.68056" lon="77.72538">
        <ele>4046</ele>
        <time>2015-09-06T08:24:44Z</time>
      </trkpt>
      <trkpt lat="33.68066" lon="77.72539">
        <ele>4046.4</ele>
        <time>2015-09-06T08:25:16Z</time>
      </trkpt>
      <trkpt lat="33.68064" lon="77.72537">
        <ele>4046.4</ele>
        <time>2015-09-06T08:25:19Z</time>
      </trkpt>
      <trkpt lat="33.68068" lon="77.72535">
        <ele>4046.2</ele>
        <time>2015-09-06T08:25:37Z</time>
      </trkpt>
      <trkpt lat="33.68066" lon="77.72537">
        <ele>4046.4</ele>
        <time>2015-09-06T08:25:53Z</time>
      </trkpt>
      <trkpt lat="33.68067" lon="77.72538">
        <ele>4047.2</ele>
        <time>2015-09-06T08:25:58Z</time>
      </trkpt>
      <trkpt lat="33.68066" lon="77.72544">
        <ele>4046.2</ele>
        <time>2015-09-06T08:26:09Z</time>
      </trkpt>
      <trkpt lat="33.68061" lon="77.72555">
        <ele>4046.2</ele>
        <time>2015-09-06T08:26:23Z</time>
      </trkpt>
      <trkpt lat="33.68056" lon="77.72563">
        <ele>4045.2</ele>
        <time>2015-09-06T08:26:34Z</time>
      </trkpt>
      <trkpt lat="33.68056" lon="77.72569">
        <ele>4044.2</ele>
        <time>2015-09-06T08:26:38Z</time>
      </trkpt>
      <trkpt lat="33.68054" lon="77.72571">
        <ele>4044</ele>
        <time>2015-09-06T08:26:40Z</time>
      </trkpt>
      <trkpt lat="33.68051" lon="77.72579">
        <ele>4044</ele>
        <time>2015-09-06T08:26:49Z</time>
      </trkpt>
      <trkpt lat="33.68049" lon="77.72585">
        <ele>4043.2</ele>
        <time>2015-09-06T08:26:54Z</time>
      </trkpt>
      <trkpt lat="33.68048" lon="77.72606">
        <ele>4042.2</ele>
        <time>2015-09-06T08:27:10Z</time>
      </trkpt>
      <trkpt lat="33.68047" lon="77.72619">
        <ele>4041</ele>
        <time>2015-09-06T08:27:21Z</time>
      </trkpt>
      <trkpt lat="33.68044" lon="77.72626">
        <ele>4039.8</ele>
        <time>2015-09-06T08:27:30Z</time>
      </trkpt>
      <trkpt lat="33.68044" lon="77.72645">
        <ele>4039.8</ele>
        <time>2015-09-06T08:27:53Z</time>
      </trkpt>
      <trkpt lat="33.68039" lon="77.72656">
        <ele>4039.2</ele>
        <time>2015-09-06T08:28:04Z</time>
      </trkpt>
      <trkpt lat="33.68034" lon="77.72665">
        <ele>4039.4</ele>
        <time>2015-09-06T08:28:13Z</time>
      </trkpt>
      <trkpt lat="33.68034" lon="77.72668">
        <ele>4039.4</ele>
        <time>2015-09-06T08:28:16Z</time>
      </trkpt>
      <trkpt lat="33.68033" lon="77.72677">
        <ele>4038.6</ele>
        <time>2015-09-06T08:28:29Z</time>
      </trkpt>
      <trkpt lat="33.68034" lon="77.72678">
        <ele>4037.4</ele>
        <time>2015-09-06T08:28:35Z</time>
      </trkpt>
      <trkpt lat="33.68033" lon="77.72686">
        <ele>4036.4</ele>
        <time>2015-09-06T08:28:49Z</time>
      </trkpt>
      <trkpt lat="33.68034" lon="77.72691">
        <ele>4035.4</ele>
        <time>2015-09-06T08:28:56Z</time>
      </trkpt>
      <trkpt lat="33.68035" lon="77.72698">
        <ele>4034.4</ele>
        <time>2015-09-06T08:29:08Z</time>
      </trkpt>
      <trkpt lat="33.68037" lon="77.72703">
        <ele>4033.4</ele>
        <time>2015-09-06T08:29:14Z</time>
      </trkpt>
      <trkpt lat="33.68039" lon="77.72714">
        <ele>4032.4</ele>
        <time>2015-09-06T08:29:25Z</time>
      </trkpt>
      <trkpt lat="33.68039" lon="77.72716">
        <ele>4032.2</ele>
        <time>2015-09-06T08:29:27Z</time>
      </trkpt>
      <trkpt lat="33.68038" lon="77.72725">
        <ele>4032</ele>
        <time>2015-09-06T08:29:35Z</time>
      </trkpt>
      <trkpt lat="33.68036" lon="77.72727">
        <ele>4031.8</ele>
        <time>2015-09-06T08:29:37Z</time>
      </trkpt>
      <trkpt lat="33.68033" lon="77.72742">
        <ele>4031.2</ele>
        <time>2015-09-06T08:29:49Z</time>
      </trkpt>
      <trkpt lat="33.68033" lon="77.72765">
        <ele>4031</ele>
        <time>2015-09-06T08:30:06Z</time>
      </trkpt>
      <trkpt lat="33.68028" lon="77.72776">
        <ele>4030.2</ele>
        <time>2015-09-06T08:30:17Z</time>
      </trkpt>
      <trkpt lat="33.68029" lon="77.72777">
        <ele>4030</ele>
        <time>2015-09-06T08:30:18Z</time>
      </trkpt>
      <trkpt lat="33.6803" lon="77.72787">
        <ele>4029.2</ele>
        <time>2015-09-06T08:30:25Z</time>
      </trkpt>
      <trkpt lat="33.68034" lon="77.72808">
        <ele>4028.4</ele>
        <time>2015-09-06T08:30:44Z</time>
      </trkpt>
      <trkpt lat="33.68034" lon="77.72811">
        <ele>4028.2</ele>
        <time>2015-09-06T08:30:46Z</time>
      </trkpt>
      <trkpt lat="33.68033" lon="77.72833">
        <ele>4027.2</ele>
        <time>2015-09-06T08:31:05Z</time>
      </trkpt>
      <trkpt lat="33.68033" lon="77.72835">
        <ele>4027.2</ele>
        <time>2015-09-06T08:31:07Z</time>
      </trkpt>
      <trkpt lat="33.68031" lon="77.72841">
        <ele>4027</ele>
        <time>2015-09-06T08:31:12Z</time>
      </trkpt>
      <trkpt lat="33.68031" lon="77.7285">
        <ele>4026.8</ele>
        <time>2015-09-06T08:31:20Z</time>
      </trkpt>
      <trkpt lat="33.68032" lon="77.72852">
        <ele>4026.6</ele>
        <time>2015-09-06T08:31:31Z</time>
      </trkpt>
      <trkpt lat="33.6803" lon="77.72857">
        <ele>4026.6</ele>
        <time>2015-09-06T08:31:36Z</time>
      </trkpt>
      <trkpt lat="33.6803" lon="77.72863">
        <ele>4026.2</ele>
        <time>2015-09-06T08:31:41Z</time>
      </trkpt>
      <trkpt lat="33.68029" lon="77.72877">
        <ele>4025.2</ele>
        <time>2015-09-06T08:31:53Z</time>
      </trkpt>
      <trkpt lat="33.68029" lon="77.72879">
        <ele>4025.2</ele>
        <time>2015-09-06T08:31:54Z</time>
      </trkpt>
      <trkpt lat="33.68029" lon="77.7288">
        <ele>4025</ele>
        <time>2015-09-06T08:31:55Z</time>
      </trkpt>
      <trkpt lat="33.68028" lon="77.72882">
        <ele>4025</ele>
        <time>2015-09-06T08:31:57Z</time>
      </trkpt>
      <trkpt lat="33.68026" lon="77.72883">
        <ele>4025</ele>
        <time>2015-09-06T08:31:59Z</time>
      </trkpt>
      <trkpt lat="33.68021" lon="77.72887">
        <ele>4024.6</ele>
        <time>2015-09-06T08:32:11Z</time>
      </trkpt>
      <trkpt lat="33.68018" lon="77.72893">
        <ele>4024.8</ele>
        <time>2015-09-06T08:32:16Z</time>
      </trkpt>
      <trkpt lat="33.68025" lon="77.72888">
        <ele>4025</ele>
        <time>2015-09-06T08:32:21Z</time>
      </trkpt>
      <trkpt lat="33.68027" lon="77.72886">
        <ele>4025</ele>
        <time>2015-09-06T08:32:23Z</time>
      </trkpt>
      <trkpt lat="33.68026" lon="77.72884">
        <ele>4024.8</ele>
        <time>2015-09-06T08:32:25Z</time>
      </trkpt>
      <trkpt lat="33.68026" lon="77.72882">
        <ele>4024.8</ele>
        <time>2015-09-06T08:32:28Z</time>
      </trkpt>
      <trkpt lat="33.68014" lon="77.72883">
        <ele>4024.6</ele>
        <time>2015-09-06T08:32:53Z</time>
      </trkpt>
      <trkpt lat="33.68004" lon="77.72881">
        <ele>4024.6</ele>
        <time>2015-09-06T08:33:03Z</time>
      </trkpt>
      <trkpt lat="33.67992" lon="77.72874">
        <ele>4024</ele>
        <time>2015-09-06T08:33:18Z</time>
      </trkpt>
      <trkpt lat="33.67985" lon="77.7287">
        <ele>4024.2</ele>
        <time>2015-09-06T08:33:27Z</time>
      </trkpt>
      <trkpt lat="33.67967" lon="77.72868">
        <ele>4024.4</ele>
        <time>2015-09-06T08:33:46Z</time>
      </trkpt>
      <trkpt lat="33.67966" lon="77.72867">
        <ele>4024.2</ele>
        <time>2015-09-06T08:33:47Z</time>
      </trkpt>
      <trkpt lat="33.6796" lon="77.72866">
        <ele>4025.2</ele>
        <time>2015-09-06T08:33:57Z</time>
      </trkpt>
      <trkpt lat="33.67937" lon="77.72866">
        <ele>4025.2</ele>
        <time>2015-09-06T08:34:17Z</time>
      </trkpt>
      <trkpt lat="33.67928" lon="77.7286">
        <ele>4025.4</ele>
        <time>2015-09-06T08:34:28Z</time>
      </trkpt>
      <trkpt lat="33.67929" lon="77.72858">
        <ele>4025.6</ele>
        <time>2015-09-06T08:34:35Z</time>
      </trkpt>
      <trkpt lat="33.67928" lon="77.72856">
        <ele>4026.2</ele>
        <time>2015-09-06T08:34:46Z</time>
      </trkpt>
      <trkpt lat="33.67943" lon="77.72867">
        <ele>4025.4</ele>
        <time>2015-09-06T08:35:06Z</time>
      </trkpt>
      <trkpt lat="33.67945" lon="77.72871">
        <ele>4025.2</ele>
        <time>2015-09-06T08:35:12Z</time>
      </trkpt>
      <trkpt lat="33.67946" lon="77.72872">
        <ele>4025.2</ele>
        <time>2015-09-06T08:35:13Z</time>
      </trkpt>
      <trkpt lat="33.67948" lon="77.72874">
        <ele>4025</ele>
        <time>2015-09-06T08:35:16Z</time>
      </trkpt>
      <trkpt lat="33.6795" lon="77.72871">
        <ele>4024.8</ele>
        <time>2015-09-06T08:35:18Z</time>
      </trkpt>
      <trkpt lat="33.67953" lon="77.72871">
        <ele>4024.6</ele>
        <time>2015-09-06T08:35:22Z</time>
      </trkpt>
      <trkpt lat="33.67953" lon="77.72872">
        <ele>4024.2</ele>
        <time>2015-09-06T08:35:36Z</time>
      </trkpt>
      <trkpt lat="33.67959" lon="77.72865">
        <ele>4023.8</ele>
        <time>2015-09-06T08:36:18Z</time>
      </trkpt>
      <trkpt lat="33.67955" lon="77.72868">
        <ele>4024.4</ele>
        <time>2015-09-06T08:36:34Z</time>
      </trkpt>
      <trkpt lat="33.67954" lon="77.72871">
        <ele>4024.6</ele>
        <time>2015-09-06T08:36:37Z</time>
      </trkpt>
      <trkpt lat="33.67955" lon="77.72866">
        <ele>4024.2</ele>
        <time>2015-09-06T08:37:10Z</time>
      </trkpt>
      <trkpt lat="33.6795" lon="77.72868">
        <ele>4023</ele>
        <time>2015-09-06T08:37:40Z</time>
      </trkpt>
      <trkpt lat="33.67949" lon="77.72878">
        <ele>4022.8</ele>
        <time>2015-09-06T08:37:55Z</time>
      </trkpt>
      <trkpt lat="33.67945" lon="77.72886">
        <ele>4022</ele>
        <time>2015-09-06T08:38:07Z</time>
      </trkpt>
      <trkpt lat="33.67944" lon="77.72887">
        <ele>4022</ele>
        <time>2015-09-06T08:38:08Z</time>
      </trkpt>
      <trkpt lat="33.67943" lon="77.72887">
        <ele>4021.8</ele>
        <time>2015-09-06T08:38:09Z</time>
      </trkpt>
      <trkpt lat="33.67941" lon="77.72887">
        <ele>4020.8</ele>
        <time>2015-09-06T08:38:13Z</time>
      </trkpt>
      <trkpt lat="33.67953" lon="77.72897">
        <ele>4020.6</ele>
        <time>2015-09-06T08:38:27Z</time>
      </trkpt>
      <trkpt lat="33.67949" lon="77.72901">
        <ele>4020.4</ele>
        <time>2015-09-06T08:38:33Z</time>
      </trkpt>
      <trkpt lat="33.6794" lon="77.72904">
        <ele>4020</ele>
        <time>2015-09-06T08:38:40Z</time>
      </trkpt>
      <trkpt lat="33.67938" lon="77.72904">
        <ele>4019.8</ele>
        <time>2015-09-06T08:38:43Z</time>
      </trkpt>
      <trkpt lat="33.67939" lon="77.72902">
        <ele>4142.8</ele>
        <time>2015-09-06T08:38:48Z</time>
      </trkpt>
    </trkseg>
  </trk>
  <trk>
    <name><![CDATA[Camp de Thukjay (4550m) près du lac Tso Kar et visite du monastère de Gonpa]]></name>
    <trkseg>
      <trkpt lat="33.36019" lon="78.02101">
        <ele>4559.6</ele>
        <time>2015-09-07T10:39:03Z</time>
      </trkpt>
      <trkpt lat="33.36019" lon="78.02103">
        <ele>4559.8</ele>
        <time>2015-09-07T10:39:05Z</time>
      </trkpt>
      <trkpt lat="33.36017" lon="78.02105">
        <ele>4560.8</ele>
        <time>2015-09-07T10:39:08Z</time>
      </trkpt>
      <trkpt lat="33.36017" lon="78.02105">
        <ele>4561</ele>
        <time>2015-09-07T10:39:09Z</time>
      </trkpt>
      <trkpt lat="33.36013" lon="78.02124">
        <ele>4560.4</ele>
        <time>2015-09-07T10:39:23Z</time>
      </trkpt>
      <trkpt lat="33.36018" lon="78.02121">
        <ele>4560.4</ele>
        <time>2015-09-07T10:39:27Z</time>
      </trkpt>
      <trkpt lat="33.36018" lon="78.02122">
        <ele>4560.4</ele>
        <time>2015-09-07T10:39:29Z</time>
      </trkpt>
      <trkpt lat="33.36015" lon="78.0213">
        <ele>4560.8</ele>
        <time>2015-09-07T10:39:34Z</time>
      </trkpt>
      <trkpt lat="33.36014" lon="78.02136">
        <ele>4561.6</ele>
        <time>2015-09-07T10:39:53Z</time>
      </trkpt>
      <trkpt lat="33.36011" lon="78.02142">
        <ele>4561.6</ele>
        <time>2015-09-07T10:39:56Z</time>
      </trkpt>
      <trkpt lat="33.36007" lon="78.02149">
        <ele>4561.8</ele>
        <time>2015-09-07T10:40:01Z</time>
      </trkpt>
      <trkpt lat="33.35998" lon="78.02167">
        <ele>4562.4</ele>
        <time>2015-09-07T10:40:20Z</time>
      </trkpt>
      <trkpt lat="33.35999" lon="78.02168">
        <ele>4563</ele>
        <time>2015-09-07T10:40:27Z</time>
      </trkpt>
      <trkpt lat="33.35994" lon="78.02186">
        <ele>4563.2</ele>
        <time>2015-09-07T10:41:00Z</time>
      </trkpt>
      <trkpt lat="33.35995" lon="78.02189">
        <ele>4563.2</ele>
        <time>2015-09-07T10:41:02Z</time>
      </trkpt>
      <trkpt lat="33.35999" lon="78.02195">
        <ele>4563.2</ele>
        <time>2015-09-07T10:41:16Z</time>
      </trkpt>
      <trkpt lat="33.35996" lon="78.02202">
        <ele>4563.4</ele>
        <time>2015-09-07T10:41:25Z</time>
      </trkpt>
      <trkpt lat="33.35997" lon="78.02192">
        <ele>4563.2</ele>
        <time>2015-09-07T10:41:30Z</time>
      </trkpt>
      <trkpt lat="33.35993" lon="78.022">
        <ele>4562.8</ele>
        <time>2015-09-07T10:41:46Z</time>
      </trkpt>
      <trkpt lat="33.35988" lon="78.02218">
        <ele>4562.6</ele>
        <time>2015-09-07T10:42:02Z</time>
      </trkpt>
      <trkpt lat="33.35992" lon="78.02221">
        <ele>4562.2</ele>
        <time>2015-09-07T10:42:23Z</time>
      </trkpt>
      <trkpt lat="33.35992" lon="78.02225">
        <ele>4562.8</ele>
        <time>2015-09-07T10:42:26Z</time>
      </trkpt>
      <trkpt lat="33.35995" lon="78.02244">
        <ele>4564</ele>
        <time>2015-09-07T10:42:44Z</time>
      </trkpt>
      <trkpt lat="33.35994" lon="78.02253">
        <ele>4565</ele>
        <time>2015-09-07T10:42:53Z</time>
      </trkpt>
      <trkpt lat="33.35995" lon="78.02267">
        <ele>4565.2</ele>
        <time>2015-09-07T10:43:04Z</time>
      </trkpt>
      <trkpt lat="33.35995" lon="78.02274">
        <ele>4566.2</ele>
        <time>2015-09-07T10:43:32Z</time>
      </trkpt>
      <trkpt lat="33.35998" lon="78.02288">
        <ele>4567.2</ele>
        <time>2015-09-07T10:43:49Z</time>
      </trkpt>
      <trkpt lat="33.36" lon="78.02292">
        <ele>4567.6</ele>
        <time>2015-09-07T10:43:53Z</time>
      </trkpt>
      <trkpt lat="33.36001" lon="78.02294">
        <ele>4567.6</ele>
        <time>2015-09-07T10:43:55Z</time>
      </trkpt>
      <trkpt lat="33.36002" lon="78.02296">
        <ele>4567.6</ele>
        <time>2015-09-07T10:43:57Z</time>
      </trkpt>
      <trkpt lat="33.36003" lon="78.02298">
        <ele>4567.6</ele>
        <time>2015-09-07T10:44:00Z</time>
      </trkpt>
      <trkpt lat="33.36006" lon="78.02301">
        <ele>4568.4</ele>
        <time>2015-09-07T10:44:05Z</time>
      </trkpt>
      <trkpt lat="33.36015" lon="78.02302">
        <ele>4569.2</ele>
        <time>2015-09-07T10:44:15Z</time>
      </trkpt>
      <trkpt lat="33.36012" lon="78.02299">
        <ele>4569.6</ele>
        <time>2015-09-07T10:44:39Z</time>
      </trkpt>
      <trkpt lat="33.36017" lon="78.02305">
        <ele>4570.6</ele>
        <time>2015-09-07T10:44:52Z</time>
      </trkpt>
      <trkpt lat="33.36025" lon="78.02307">
        <ele>4571.8</ele>
        <time>2015-09-07T10:45:05Z</time>
      </trkpt>
      <trkpt lat="33.36027" lon="78.02308">
        <ele>4572.8</ele>
        <time>2015-09-07T10:45:12Z</time>
      </trkpt>
      <trkpt lat="33.36034" lon="78.02315">
        <ele>4573.8</ele>
        <time>2015-09-07T10:45:25Z</time>
      </trkpt>
      <trkpt lat="33.3604" lon="78.02324">
        <ele>4574.4</ele>
        <time>2015-09-07T10:45:36Z</time>
      </trkpt>
      <trkpt lat="33.36043" lon="78.02325">
        <ele>4575</ele>
        <time>2015-09-07T10:45:41Z</time>
      </trkpt>
      <trkpt lat="33.36044" lon="78.02328">
        <ele>4576.2</ele>
        <time>2015-09-07T10:45:49Z</time>
      </trkpt>
      <trkpt lat="33.3605" lon="78.02336">
        <ele>4577.4</ele>
        <time>2015-09-07T10:46:06Z</time>
      </trkpt>
      <trkpt lat="33.36052" lon="78.02339">
        <ele>4578.4</ele>
        <time>2015-09-07T10:46:12Z</time>
      </trkpt>
      <trkpt lat="33.36052" lon="78.02337">
        <ele>4579.6</ele>
        <time>2015-09-07T10:46:16Z</time>
      </trkpt>
      <trkpt lat="33.3606" lon="78.02345">
        <ele>4580.6</ele>
        <time>2015-09-07T10:46:38Z</time>
      </trkpt>
      <trkpt lat="33.36064" lon="78.02346">
        <ele>4581.6</ele>
        <time>2015-09-07T10:46:49Z</time>
      </trkpt>
      <trkpt lat="33.36066" lon="78.02345">
        <ele>4582.6</ele>
        <time>2015-09-07T10:46:53Z</time>
      </trkpt>
      <trkpt lat="33.36071" lon="78.02345">
        <ele>4584</ele>
        <time>2015-09-07T10:47:07Z</time>
      </trkpt>
      <trkpt lat="33.36064" lon="78.0235">
        <ele>4585</ele>
        <time>2015-09-07T10:47:15Z</time>
      </trkpt>
      <trkpt lat="33.36061" lon="78.02348">
        <ele>4585.2</ele>
        <time>2015-09-07T10:47:17Z</time>
      </trkpt>
      <trkpt lat="33.36062" lon="78.02344">
        <ele>4585.6</ele>
        <time>2015-09-07T10:47:19Z</time>
      </trkpt>
      <trkpt lat="33.36062" lon="78.02343">
        <ele>4586.2</ele>
        <time>2015-09-07T10:47:21Z</time>
      </trkpt>
      <trkpt lat="33.36065" lon="78.02346">
        <ele>4587.2</ele>
        <time>2015-09-07T10:47:27Z</time>
      </trkpt>
      <trkpt lat="33.36067" lon="78.02351">
        <ele>4588.4</ele>
        <time>2015-09-07T10:47:37Z</time>
      </trkpt>
      <trkpt lat="33.36072" lon="78.02347">
        <ele>4589.4</ele>
        <time>2015-09-07T10:47:46Z</time>
      </trkpt>
      <trkpt lat="33.36071" lon="78.0235">
        <ele>4590.6</ele>
        <time>2015-09-07T10:47:53Z</time>
      </trkpt>
      <trkpt lat="33.36073" lon="78.02353">
        <ele>4591.6</ele>
        <time>2015-09-07T10:48:03Z</time>
      </trkpt>
      <trkpt lat="33.36079" lon="78.02354">
        <ele>4593</ele>
        <time>2015-09-07T10:48:13Z</time>
      </trkpt>
      <trkpt lat="33.36079" lon="78.02356">
        <ele>4594</ele>
        <time>2015-09-07T10:48:19Z</time>
      </trkpt>
      <trkpt lat="33.36077" lon="78.0236">
        <ele>4595</ele>
        <time>2015-09-07T10:48:26Z</time>
      </trkpt>
      <trkpt lat="33.36081" lon="78.0237">
        <ele>4596.2</ele>
        <time>2015-09-07T10:48:36Z</time>
      </trkpt>
      <trkpt lat="33.36087" lon="78.0238">
        <ele>4597.2</ele>
        <time>2015-09-07T10:48:52Z</time>
      </trkpt>
      <trkpt lat="33.36092" lon="78.02384">
        <ele>4598.4</ele>
        <time>2015-09-07T10:49:03Z</time>
      </trkpt>
      <trkpt lat="33.36093" lon="78.02387">
        <ele>4599.4</ele>
        <time>2015-09-07T10:49:08Z</time>
      </trkpt>
      <trkpt lat="33.36094" lon="78.02392">
        <ele>4600.4</ele>
        <time>2015-09-07T10:49:15Z</time>
      </trkpt>
      <trkpt lat="33.36095" lon="78.02391">
        <ele>4601.6</ele>
        <time>2015-09-07T10:49:23Z</time>
      </trkpt>
      <trkpt lat="33.36099" lon="78.02394">
        <ele>4602.6</ele>
        <time>2015-09-07T10:49:30Z</time>
      </trkpt>
      <trkpt lat="33.361" lon="78.02391">
        <ele>4603.6</ele>
        <time>2015-09-07T10:49:40Z</time>
      </trkpt>
      <trkpt lat="33.36106" lon="78.02395">
        <ele>4604.8</ele>
        <time>2015-09-07T10:49:50Z</time>
      </trkpt>
      <trkpt lat="33.36103" lon="78.02393">
        <ele>4606</ele>
        <time>2015-09-07T10:49:55Z</time>
      </trkpt>
      <trkpt lat="33.36101" lon="78.02398">
        <ele>4607.2</ele>
        <time>2015-09-07T10:50:03Z</time>
      </trkpt>
      <trkpt lat="33.36103" lon="78.024">
        <ele>4608.2</ele>
        <time>2015-09-07T10:50:17Z</time>
      </trkpt>
      <trkpt lat="33.36112" lon="78.02408">
        <ele>4609.2</ele>
        <time>2015-09-07T10:50:29Z</time>
      </trkpt>
      <trkpt lat="33.3612" lon="78.02416">
        <ele>4610</ele>
        <time>2015-09-07T10:50:37Z</time>
      </trkpt>
      <trkpt lat="33.36122" lon="78.02419">
        <ele>4610.2</ele>
        <time>2015-09-07T10:50:40Z</time>
      </trkpt>
      <trkpt lat="33.36125" lon="78.02422">
        <ele>4611.4</ele>
        <time>2015-09-07T10:50:47Z</time>
      </trkpt>
      <trkpt lat="33.36125" lon="78.02423">
        <ele>4611.8</ele>
        <time>2015-09-07T10:50:52Z</time>
      </trkpt>
      <trkpt lat="33.36122" lon="78.02427">
        <ele>4612.4</ele>
        <time>2015-09-07T10:50:57Z</time>
      </trkpt>
      <trkpt lat="33.36118" lon="78.02427">
        <ele>4613.6</ele>
        <time>2015-09-07T10:51:08Z</time>
      </trkpt>
      <trkpt lat="33.36121" lon="78.02431">
        <ele>4614.6</ele>
        <time>2015-09-07T10:51:25Z</time>
      </trkpt>
      <trkpt lat="33.36119" lon="78.02435">
        <ele>4616</ele>
        <time>2015-09-07T10:51:30Z</time>
      </trkpt>
      <trkpt lat="33.3612" lon="78.02435">
        <ele>4617.2</ele>
        <time>2015-09-07T10:51:32Z</time>
      </trkpt>
      <trkpt lat="33.3612" lon="78.02438">
        <ele>4618.4</ele>
        <time>2015-09-07T10:51:36Z</time>
      </trkpt>
      <trkpt lat="33.3612" lon="78.02442">
        <ele>4619.4</ele>
        <time>2015-09-07T10:51:53Z</time>
      </trkpt>
      <trkpt lat="33.36121" lon="78.02446">
        <ele>4620.6</ele>
        <time>2015-09-07T10:52:02Z</time>
      </trkpt>
      <trkpt lat="33.36122" lon="78.02451">
        <ele>4621.6</ele>
        <time>2015-09-07T10:52:11Z</time>
      </trkpt>
      <trkpt lat="33.36125" lon="78.02453">
        <ele>4621.8</ele>
        <time>2015-09-07T10:52:14Z</time>
      </trkpt>
      <trkpt lat="33.36128" lon="78.02453">
        <ele>4621.8</ele>
        <time>2015-09-07T10:52:16Z</time>
      </trkpt>
      <trkpt lat="33.36135" lon="78.02454">
        <ele>4621.8</ele>
        <time>2015-09-07T10:52:21Z</time>
      </trkpt>
      <trkpt lat="33.36137" lon="78.02454">
        <ele>4622.6</ele>
        <time>2015-09-07T10:52:27Z</time>
      </trkpt>
      <trkpt lat="33.36138" lon="78.02452">
        <ele>4623.2</ele>
        <time>2015-09-07T10:52:30Z</time>
      </trkpt>
      <trkpt lat="33.36139" lon="78.02449">
        <ele>4623.6</ele>
        <time>2015-09-07T10:52:33Z</time>
      </trkpt>
      <trkpt lat="33.3614" lon="78.02447">
        <ele>4624.2</ele>
        <time>2015-09-07T10:52:35Z</time>
      </trkpt>
      <trkpt lat="33.3614" lon="78.02447">
        <ele>4624.8</ele>
        <time>2015-09-07T10:52:37Z</time>
      </trkpt>
      <trkpt lat="33.36142" lon="78.02453">
        <ele>4626</ele>
        <time>2015-09-07T10:52:46Z</time>
      </trkpt>
      <trkpt lat="33.36142" lon="78.02455">
        <ele>4627</ele>
        <time>2015-09-07T10:52:54Z</time>
      </trkpt>
      <trkpt lat="33.36142" lon="78.02456">
        <ele>4627.4</ele>
        <time>2015-09-07T10:52:57Z</time>
      </trkpt>
      <trkpt lat="33.36139" lon="78.02459">
        <ele>4628</ele>
        <time>2015-09-07T10:53:02Z</time>
      </trkpt>
      <trkpt lat="33.36138" lon="78.0246">
        <ele>4629</ele>
        <time>2015-09-07T10:53:11Z</time>
      </trkpt>
      <trkpt lat="33.36141" lon="78.02459">
        <ele>4629.6</ele>
        <time>2015-09-07T10:53:17Z</time>
      </trkpt>
      <trkpt lat="33.36143" lon="78.0246">
        <ele>4630</ele>
        <time>2015-09-07T10:53:19Z</time>
      </trkpt>
      <trkpt lat="33.36144" lon="78.0246">
        <ele>4630.2</ele>
        <time>2015-09-07T10:53:20Z</time>
      </trkpt>
      <trkpt lat="33.36143" lon="78.02462">
        <ele>4630.2</ele>
        <time>2015-09-07T10:53:21Z</time>
      </trkpt>
      <trkpt lat="33.36142" lon="78.02463">
        <ele>4631.2</ele>
        <time>2015-09-07T10:53:47Z</time>
      </trkpt>
      <trkpt lat="33.36144" lon="78.02463">
        <ele>4632.4</ele>
        <time>2015-09-07T10:53:54Z</time>
      </trkpt>
      <trkpt lat="33.36146" lon="78.02463">
        <ele>4633.4</ele>
        <time>2015-09-07T10:53:57Z</time>
      </trkpt>
      <trkpt lat="33.36147" lon="78.02462">
        <ele>4634.6</ele>
        <time>2015-09-07T10:53:59Z</time>
      </trkpt>
      <trkpt lat="33.36148" lon="78.02462">
        <ele>4636.4</ele>
        <time>2015-09-07T10:54:01Z</time>
      </trkpt>
      <trkpt lat="33.36149" lon="78.02462">
        <ele>4637.6</ele>
        <time>2015-09-07T10:54:03Z</time>
      </trkpt>
      <trkpt lat="33.3615" lon="78.02462">
        <ele>4638.6</ele>
        <time>2015-09-07T10:54:05Z</time>
      </trkpt>
      <trkpt lat="33.36151" lon="78.02463">
        <ele>4639.8</ele>
        <time>2015-09-07T10:54:07Z</time>
      </trkpt>
      <trkpt lat="33.36151" lon="78.02474">
        <ele>4639.8</ele>
        <time>2015-09-07T10:54:22Z</time>
      </trkpt>
      <trkpt lat="33.36147" lon="78.02479">
        <ele>4639.8</ele>
        <time>2015-09-07T10:54:28Z</time>
      </trkpt>
      <trkpt lat="33.3615" lon="78.02493">
        <ele>4639.6</ele>
        <time>2015-09-07T10:54:43Z</time>
      </trkpt>
      <trkpt lat="33.36149" lon="78.02499">
        <ele>4640.2</ele>
        <time>2015-09-07T10:55:26Z</time>
      </trkpt>
      <trkpt lat="33.36151" lon="78.02497">
        <ele>4640.4</ele>
        <time>2015-09-07T10:55:29Z</time>
      </trkpt>
      <trkpt lat="33.36152" lon="78.02496">
        <ele>4640.8</ele>
        <time>2015-09-07T10:55:32Z</time>
      </trkpt>
      <trkpt lat="33.36152" lon="78.02492">
        <ele>4641.8</ele>
        <time>2015-09-07T10:55:39Z</time>
      </trkpt>
      <trkpt lat="33.36151" lon="78.02489">
        <ele>4641.6</ele>
        <time>2015-09-07T10:55:41Z</time>
      </trkpt>
      <trkpt lat="33.36148" lon="78.02488">
        <ele>4641.4</ele>
        <time>2015-09-07T10:55:43Z</time>
      </trkpt>
      <trkpt lat="33.36146" lon="78.02487">
        <ele>4640.6</ele>
        <time>2015-09-07T10:55:45Z</time>
      </trkpt>
      <trkpt lat="33.36147" lon="78.0249">
        <ele>4639.8</ele>
        <time>2015-09-07T10:55:59Z</time>
      </trkpt>
      <trkpt lat="33.36149" lon="78.0249">
        <ele>4640.4</ele>
        <time>2015-09-07T10:56:02Z</time>
      </trkpt>
      <trkpt lat="33.36149" lon="78.02491">
        <ele>4640.8</ele>
        <time>2015-09-07T10:56:03Z</time>
      </trkpt>
      <trkpt lat="33.3615" lon="78.02492">
        <ele>4641.2</ele>
        <time>2015-09-07T10:56:04Z</time>
      </trkpt>
      <trkpt lat="33.3615" lon="78.02492">
        <ele>4641.6</ele>
        <time>2015-09-07T10:56:07Z</time>
      </trkpt>
      <trkpt lat="33.36157" lon="78.02491">
        <ele>4641.8</ele>
        <time>2015-09-07T10:56:17Z</time>
      </trkpt>
      <trkpt lat="33.36155" lon="78.02495">
        <ele>4641.4</ele>
        <time>2015-09-07T10:56:25Z</time>
      </trkpt>
      <trkpt lat="33.3615" lon="78.02498">
        <ele>4640.4</ele>
        <time>2015-09-07T10:56:31Z</time>
      </trkpt>
      <trkpt lat="33.36148" lon="78.02503">
        <ele>4640.2</ele>
        <time>2015-09-07T10:57:05Z</time>
      </trkpt>
      <trkpt lat="33.36152" lon="78.025">
        <ele>4641.2</ele>
        <time>2015-09-07T10:57:40Z</time>
      </trkpt>
      <trkpt lat="33.36152" lon="78.02501">
        <ele>4641.2</ele>
        <time>2015-09-07T10:57:42Z</time>
      </trkpt>
      <trkpt lat="33.36152" lon="78.02501">
        <ele>4641.6</ele>
        <time>2015-09-07T10:57:44Z</time>
      </trkpt>
      <trkpt lat="33.36148" lon="78.02494">
        <ele>4640.4</ele>
        <time>2015-09-07T10:58:05Z</time>
      </trkpt>
      <trkpt lat="33.36149" lon="78.02494">
        <ele>4640.2</ele>
        <time>2015-09-07T10:58:13Z</time>
      </trkpt>
      <trkpt lat="33.36152" lon="78.02482">
        <ele>4640.2</ele>
        <time>2015-09-07T10:58:43Z</time>
      </trkpt>
      <trkpt lat="33.36153" lon="78.0248">
        <ele>4640</ele>
        <time>2015-09-07T10:58:44Z</time>
      </trkpt>
      <trkpt lat="33.36157" lon="78.02478">
        <ele>4639.8</ele>
        <time>2015-09-07T10:58:47Z</time>
      </trkpt>
      <trkpt lat="33.3616" lon="78.02475">
        <ele>4640.6</ele>
        <time>2015-09-07T10:58:50Z</time>
      </trkpt>
      <trkpt lat="33.3616" lon="78.02471">
        <ele>4641.4</ele>
        <time>2015-09-07T10:59:08Z</time>
      </trkpt>
      <trkpt lat="33.36159" lon="78.02477">
        <ele>4642.4</ele>
        <time>2015-09-07T10:59:27Z</time>
      </trkpt>
      <trkpt lat="33.36152" lon="78.02477">
        <ele>4642.6</ele>
        <time>2015-09-07T10:59:32Z</time>
      </trkpt>
      <trkpt lat="33.36156" lon="78.02473">
        <ele>4643.4</ele>
        <time>2015-09-07T10:59:40Z</time>
      </trkpt>
      <trkpt lat="33.36156" lon="78.02469">
        <ele>4643.6</ele>
        <time>2015-09-07T10:59:43Z</time>
      </trkpt>
      <trkpt lat="33.36157" lon="78.02469">
        <ele>4643.4</ele>
        <time>2015-09-07T11:00:16Z</time>
      </trkpt>
      <trkpt lat="33.36158" lon="78.02467">
        <ele>4644</ele>
        <time>2015-09-07T11:00:21Z</time>
      </trkpt>
      <trkpt lat="33.36159" lon="78.02466">
        <ele>4644</ele>
        <time>2015-09-07T11:00:23Z</time>
      </trkpt>
      <trkpt lat="33.36162" lon="78.02465">
        <ele>4644.2</ele>
        <time>2015-09-07T11:00:25Z</time>
      </trkpt>
      <trkpt lat="33.3616" lon="78.02464">
        <ele>4644.4</ele>
        <time>2015-09-07T11:00:37Z</time>
      </trkpt>
      <trkpt lat="33.36159" lon="78.02461">
        <ele>4644.6</ele>
        <time>2015-09-07T11:00:41Z</time>
      </trkpt>
      <trkpt lat="33.36122" lon="78.02449">
        <ele>4644</ele>
        <time>2015-09-07T11:02:44Z</time>
      </trkpt>
      <trkpt lat="33.36125" lon="78.02446">
        <ele>4644.6</ele>
        <time>2015-09-07T11:03:04Z</time>
      </trkpt>
      <trkpt lat="33.36133" lon="78.02434">
        <ele>4644.6</ele>
        <time>2015-09-07T11:04:02Z</time>
      </trkpt>
      <trkpt lat="33.36173" lon="78.02449">
        <ele>4645.6</ele>
        <time>2015-09-07T11:04:53Z</time>
      </trkpt>
      <trkpt lat="33.36157" lon="78.02431">
        <ele>4644.6</ele>
        <time>2015-09-07T11:10:35Z</time>
      </trkpt>
      <trkpt lat="33.36177" lon="78.02474">
        <ele>4645</ele>
        <time>2015-09-07T11:11:36Z</time>
      </trkpt>
      <trkpt lat="33.36181" lon="78.02481">
        <ele>4645</ele>
        <time>2015-09-07T11:12:19Z</time>
      </trkpt>
      <trkpt lat="33.36235" lon="78.02491">
        <ele>4643.6</ele>
        <time>2015-09-07T11:13:04Z</time>
      </trkpt>
      <trkpt lat="33.36146" lon="78.02478">
        <ele>4642.4</ele>
        <time>2015-09-07T11:16:43Z</time>
      </trkpt>
      <trkpt lat="33.36163" lon="78.02474">
        <ele>4643.2</ele>
        <time>2015-09-07T11:17:34Z</time>
      </trkpt>
      <trkpt lat="33.36163" lon="78.02476">
        <ele>4643.4</ele>
        <time>2015-09-07T11:17:43Z</time>
      </trkpt>
      <trkpt lat="33.36164" lon="78.02475">
        <ele>4643.4</ele>
        <time>2015-09-07T11:17:45Z</time>
      </trkpt>
      <trkpt lat="33.3616" lon="78.02474">
        <ele>4643.4</ele>
        <time>2015-09-07T11:17:48Z</time>
      </trkpt>
      <trkpt lat="33.36157" lon="78.02476">
        <ele>4643.6</ele>
        <time>2015-09-07T11:17:49Z</time>
      </trkpt>
      <trkpt lat="33.36157" lon="78.02476">
        <ele>4643.6</ele>
        <time>2015-09-07T11:17:50Z</time>
      </trkpt>
      <trkpt lat="33.36155" lon="78.02477">
        <ele>4643.6</ele>
        <time>2015-09-07T11:17:52Z</time>
      </trkpt>
      <trkpt lat="33.36151" lon="78.02478">
        <ele>4643.2</ele>
        <time>2015-09-07T11:17:56Z</time>
      </trkpt>
      <trkpt lat="33.3615" lon="78.02477">
        <ele>4643.2</ele>
        <time>2015-09-07T11:17:59Z</time>
      </trkpt>
      <trkpt lat="33.36165" lon="78.02466">
        <ele>4643</ele>
        <time>2015-09-07T11:18:27Z</time>
      </trkpt>
      <trkpt lat="33.36155" lon="78.02476">
        <ele>4643.4</ele>
        <time>2015-09-07T11:18:35Z</time>
      </trkpt>
      <trkpt lat="33.36153" lon="78.0248">
        <ele>4643.4</ele>
        <time>2015-09-07T11:18:37Z</time>
      </trkpt>
      <trkpt lat="33.36153" lon="78.0248">
        <ele>4643.4</ele>
        <time>2015-09-07T11:18:39Z</time>
      </trkpt>
      <trkpt lat="33.36155" lon="78.02476">
        <ele>4643.8</ele>
        <time>2015-09-07T11:18:54Z</time>
      </trkpt>
      <trkpt lat="33.36156" lon="78.02475">
        <ele>4643.8</ele>
        <time>2015-09-07T11:18:56Z</time>
      </trkpt>
      <trkpt lat="33.36161" lon="78.02476">
        <ele>4643.8</ele>
        <time>2015-09-07T11:18:58Z</time>
      </trkpt>
      <trkpt lat="33.36161" lon="78.02473">
        <ele>4644.6</ele>
        <time>2015-09-07T11:19:07Z</time>
      </trkpt>
      <trkpt lat="33.36161" lon="78.02472">
        <ele>4645.6</ele>
        <time>2015-09-07T11:19:09Z</time>
      </trkpt>
      <trkpt lat="33.36191" lon="78.02471">
        <ele>4644.6</ele>
        <time>2015-09-07T11:19:34Z</time>
      </trkpt>
      <trkpt lat="33.36188" lon="78.0246">
        <ele>4645.4</ele>
        <time>2015-09-07T11:19:44Z</time>
      </trkpt>
      <trkpt lat="33.36189" lon="78.02455">
        <ele>4645.6</ele>
        <time>2015-09-07T11:19:47Z</time>
      </trkpt>
      <trkpt lat="33.36189" lon="78.02455">
        <ele>4645.6</ele>
        <time>2015-09-07T11:19:48Z</time>
      </trkpt>
      <trkpt lat="33.36177" lon="78.02459">
        <ele>4644.8</ele>
        <time>2015-09-07T11:19:52Z</time>
      </trkpt>
      <trkpt lat="33.36169" lon="78.02464">
        <ele>4644.8</ele>
        <time>2015-09-07T11:19:54Z</time>
      </trkpt>
      <trkpt lat="33.36152" lon="78.02491">
        <ele>4646.6</ele>
        <time>2015-09-07T11:20:57Z</time>
      </trkpt>
      <trkpt lat="33.36143" lon="78.02484">
        <ele>4647.4</ele>
        <time>2015-09-07T11:24:32Z</time>
      </trkpt>
      <trkpt lat="33.36155" lon="78.02484">
        <ele>4647.8</ele>
        <time>2015-09-07T11:25:16Z</time>
      </trkpt>
      <trkpt lat="33.36186" lon="78.0247">
        <ele>4648.4</ele>
        <time>2015-09-07T11:26:25Z</time>
      </trkpt>
      <trkpt lat="33.36174" lon="78.02475">
        <ele>4648.8</ele>
        <time>2015-09-07T11:27:00Z</time>
      </trkpt>
      <trkpt lat="33.36162" lon="78.02484">
        <ele>4650</ele>
        <time>2015-09-07T11:27:40Z</time>
      </trkpt>
      <trkpt lat="33.36154" lon="78.02509">
        <ele>4650.4</ele>
        <time>2015-09-07T11:28:44Z</time>
      </trkpt>
      <trkpt lat="33.3613" lon="78.02512">
        <ele>4651</ele>
        <time>2015-09-07T11:29:28Z</time>
      </trkpt>
      <trkpt lat="33.36127" lon="78.02515">
        <ele>4651.2</ele>
        <time>2015-09-07T11:29:30Z</time>
      </trkpt>
      <trkpt lat="33.36154" lon="78.02516">
        <ele>4652</ele>
        <time>2015-09-07T11:30:34Z</time>
      </trkpt>
      <trkpt lat="33.36163" lon="78.02504">
        <ele>4651.8</ele>
        <time>2015-09-07T11:30:43Z</time>
      </trkpt>
      <trkpt lat="33.36156" lon="78.02501">
        <ele>4652</ele>
        <time>2015-09-07T11:30:55Z</time>
      </trkpt>
      <trkpt lat="33.36158" lon="78.02494">
        <ele>4653.2</ele>
        <time>2015-09-07T11:32:05Z</time>
      </trkpt>
      <trkpt lat="33.36161" lon="78.02495">
        <ele>4653</ele>
        <time>2015-09-07T11:32:36Z</time>
      </trkpt>
      <trkpt lat="33.3616" lon="78.02488">
        <ele>4653.6</ele>
        <time>2015-09-07T11:32:44Z</time>
      </trkpt>
      <trkpt lat="33.36159" lon="78.02486">
        <ele>4653</ele>
        <time>2015-09-07T11:32:46Z</time>
      </trkpt>
      <trkpt lat="33.36157" lon="78.02483">
        <ele>4653</ele>
        <time>2015-09-07T11:32:50Z</time>
      </trkpt>
      <trkpt lat="33.36153" lon="78.02464">
        <ele>4653.6</ele>
        <time>2015-09-07T11:33:08Z</time>
      </trkpt>
      <trkpt lat="33.36155" lon="78.02459">
        <ele>4654.2</ele>
        <time>2015-09-07T11:33:13Z</time>
      </trkpt>
      <trkpt lat="33.36156" lon="78.02458">
        <ele>4654.2</ele>
        <time>2015-09-07T11:33:14Z</time>
      </trkpt>
      <trkpt lat="33.36158" lon="78.0247">
        <ele>4654.2</ele>
        <time>2015-09-07T11:33:24Z</time>
      </trkpt>
      <trkpt lat="33.36151" lon="78.0248">
        <ele>4653.4</ele>
        <time>2015-09-07T11:33:31Z</time>
      </trkpt>
      <trkpt lat="33.36152" lon="78.0248">
        <ele>4653.2</ele>
        <time>2015-09-07T11:33:33Z</time>
      </trkpt>
      <trkpt lat="33.36155" lon="78.02482">
        <ele>4653.2</ele>
        <time>2015-09-07T11:33:36Z</time>
      </trkpt>
      <trkpt lat="33.36153" lon="78.02479">
        <ele>4654</ele>
        <time>2015-09-07T11:33:42Z</time>
      </trkpt>
      <trkpt lat="33.36152" lon="78.02473">
        <ele>4654.2</ele>
        <time>2015-09-07T11:33:45Z</time>
      </trkpt>
      <trkpt lat="33.36155" lon="78.02468">
        <ele>4654.6</ele>
        <time>2015-09-07T11:33:50Z</time>
      </trkpt>
      <trkpt lat="33.3616" lon="78.02465">
        <ele>4653</ele>
        <time>2015-09-07T11:33:56Z</time>
      </trkpt>
      <trkpt lat="33.36169" lon="78.02462">
        <ele>4653.6</ele>
        <time>2015-09-07T11:34:24Z</time>
      </trkpt>
      <trkpt lat="33.36165" lon="78.0246">
        <ele>4654.2</ele>
        <time>2015-09-07T11:34:31Z</time>
      </trkpt>
      <trkpt lat="33.36164" lon="78.02469">
        <ele>4654.4</ele>
        <time>2015-09-07T11:34:45Z</time>
      </trkpt>
      <trkpt lat="33.36167" lon="78.02469">
        <ele>4654.4</ele>
        <time>2015-09-07T11:34:48Z</time>
      </trkpt>
      <trkpt lat="33.36158" lon="78.02473">
        <ele>4654.6</ele>
        <time>2015-09-07T11:35:19Z</time>
      </trkpt>
      <trkpt lat="33.36158" lon="78.02475">
        <ele>4654.6</ele>
        <time>2015-09-07T11:35:21Z</time>
      </trkpt>
      <trkpt lat="33.36161" lon="78.02473">
        <ele>4654.4</ele>
        <time>2015-09-07T11:35:33Z</time>
      </trkpt>
      <trkpt lat="33.36161" lon="78.0247">
        <ele>4655</ele>
        <time>2015-09-07T11:36:05Z</time>
      </trkpt>
      <trkpt lat="33.36164" lon="78.02469">
        <ele>4654.6</ele>
        <time>2015-09-07T11:36:09Z</time>
      </trkpt>
      <trkpt lat="33.36163" lon="78.02475">
        <ele>4655.2</ele>
        <time>2015-09-07T11:36:29Z</time>
      </trkpt>
      <trkpt lat="33.36171" lon="78.02469">
        <ele>4655</ele>
        <time>2015-09-07T11:36:57Z</time>
      </trkpt>
      <trkpt lat="33.3617" lon="78.02465">
        <ele>4654.6</ele>
        <time>2015-09-07T11:37:06Z</time>
      </trkpt>
      <trkpt lat="33.36163" lon="78.0247">
        <ele>4655.8</ele>
        <time>2015-09-07T11:38:00Z</time>
      </trkpt>
      <trkpt lat="33.36155" lon="78.02472">
        <ele>4654.6</ele>
        <time>2015-09-07T11:38:38Z</time>
      </trkpt>
      <trkpt lat="33.36153" lon="78.02475">
        <ele>4655.2</ele>
        <time>2015-09-07T11:38:48Z</time>
      </trkpt>
      <trkpt lat="33.36153" lon="78.02474">
        <ele>4654.8</ele>
        <time>2015-09-07T11:38:50Z</time>
      </trkpt>
      <trkpt lat="33.36146" lon="78.02464">
        <ele>4654.2</ele>
        <time>2015-09-07T11:39:02Z</time>
      </trkpt>
      <trkpt lat="33.36146" lon="78.02463">
        <ele>4654</ele>
        <time>2015-09-07T11:39:03Z</time>
      </trkpt>
      <trkpt lat="33.36144" lon="78.02465">
        <ele>4652.4</ele>
        <time>2015-09-07T11:39:08Z</time>
      </trkpt>
      <trkpt lat="33.36144" lon="78.02466">
        <ele>4651.2</ele>
        <time>2015-09-07T11:39:10Z</time>
      </trkpt>
      <trkpt lat="33.36143" lon="78.02466">
        <ele>4650.2</ele>
        <time>2015-09-07T11:39:12Z</time>
      </trkpt>
      <trkpt lat="33.36144" lon="78.02465">
        <ele>4648.6</ele>
        <time>2015-09-07T11:39:14Z</time>
      </trkpt>
      <trkpt lat="33.36143" lon="78.02464">
        <ele>4647.4</ele>
        <time>2015-09-07T11:39:21Z</time>
      </trkpt>
      <trkpt lat="33.36141" lon="78.0246">
        <ele>4646.4</ele>
        <time>2015-09-07T11:39:49Z</time>
      </trkpt>
      <trkpt lat="33.36137" lon="78.02458">
        <ele>4645</ele>
        <time>2015-09-07T11:40:07Z</time>
      </trkpt>
      <trkpt lat="33.36126" lon="78.02457">
        <ele>4644.6</ele>
        <time>2015-09-07T11:40:14Z</time>
      </trkpt>
      <trkpt lat="33.36125" lon="78.02456">
        <ele>4644.6</ele>
        <time>2015-09-07T11:40:16Z</time>
      </trkpt>
      <trkpt lat="33.36127" lon="78.02454">
        <ele>4643.8</ele>
        <time>2015-09-07T11:40:21Z</time>
      </trkpt>
      <trkpt lat="33.36128" lon="78.0245">
        <ele>4642.8</ele>
        <time>2015-09-07T11:40:29Z</time>
      </trkpt>
      <trkpt lat="33.36128" lon="78.0245">
        <ele>4641.6</ele>
        <time>2015-09-07T11:40:32Z</time>
      </trkpt>
      <trkpt lat="33.36124" lon="78.02445">
        <ele>4640.4</ele>
        <time>2015-09-07T11:40:41Z</time>
      </trkpt>
      <trkpt lat="33.36126" lon="78.02448">
        <ele>4640.2</ele>
        <time>2015-09-07T11:40:44Z</time>
      </trkpt>
      <trkpt lat="33.36126" lon="78.02449">
        <ele>4639.4</ele>
        <time>2015-09-07T11:40:49Z</time>
      </trkpt>
      <trkpt lat="33.36123" lon="78.02451">
        <ele>4638.2</ele>
        <time>2015-09-07T11:40:54Z</time>
      </trkpt>
      <trkpt lat="33.36124" lon="78.02451">
        <ele>4637.2</ele>
        <time>2015-09-07T11:41:03Z</time>
      </trkpt>
      <trkpt lat="33.36124" lon="78.0245">
        <ele>4637</ele>
        <time>2015-09-07T11:41:04Z</time>
      </trkpt>
      <trkpt lat="33.36122" lon="78.02445">
        <ele>4635.8</ele>
        <time>2015-09-07T11:41:09Z</time>
      </trkpt>
      <trkpt lat="33.3612" lon="78.02443">
        <ele>4634.4</ele>
        <time>2015-09-07T11:41:12Z</time>
      </trkpt>
      <trkpt lat="33.36117" lon="78.02436">
        <ele>4633.4</ele>
        <time>2015-09-07T11:41:19Z</time>
      </trkpt>
      <trkpt lat="33.36113" lon="78.02429">
        <ele>4632.2</ele>
        <time>2015-09-07T11:41:26Z</time>
      </trkpt>
      <trkpt lat="33.36111" lon="78.02425">
        <ele>4631</ele>
        <time>2015-09-07T11:41:31Z</time>
      </trkpt>
      <trkpt lat="33.36108" lon="78.02421">
        <ele>4629.8</ele>
        <time>2015-09-07T11:41:36Z</time>
      </trkpt>
      <trkpt lat="33.36106" lon="78.02418">
        <ele>4628.8</ele>
        <time>2015-09-07T11:41:39Z</time>
      </trkpt>
      <trkpt lat="33.361" lon="78.02412">
        <ele>4627.4</ele>
        <time>2015-09-07T11:41:46Z</time>
      </trkpt>
      <trkpt lat="33.36099" lon="78.02408">
        <ele>4626.4</ele>
        <time>2015-09-07T11:41:53Z</time>
      </trkpt>
      <trkpt lat="33.36101" lon="78.02406">
        <ele>4625.2</ele>
        <time>2015-09-07T11:41:57Z</time>
      </trkpt>
      <trkpt lat="33.36096" lon="78.02401">
        <ele>4623.8</ele>
        <time>2015-09-07T11:42:06Z</time>
      </trkpt>
      <trkpt lat="33.36096" lon="78.024">
        <ele>4622.8</ele>
        <time>2015-09-07T11:42:12Z</time>
      </trkpt>
      <trkpt lat="33.36094" lon="78.02398">
        <ele>4621.8</ele>
        <time>2015-09-07T11:42:16Z</time>
      </trkpt>
      <trkpt lat="33.36091" lon="78.02395">
        <ele>4620.6</ele>
        <time>2015-09-07T11:42:23Z</time>
      </trkpt>
      <trkpt lat="33.36089" lon="78.0239">
        <ele>4620</ele>
        <time>2015-09-07T11:42:28Z</time>
      </trkpt>
      <trkpt lat="33.36091" lon="78.02387">
        <ele>4619.4</ele>
        <time>2015-09-07T11:42:31Z</time>
      </trkpt>
      <trkpt lat="33.36091" lon="78.02382">
        <ele>4618.4</ele>
        <time>2015-09-07T11:42:38Z</time>
      </trkpt>
      <trkpt lat="33.3609" lon="78.02381">
        <ele>4618</ele>
        <time>2015-09-07T11:42:39Z</time>
      </trkpt>
      <trkpt lat="33.36089" lon="78.02377">
        <ele>4617.2</ele>
        <time>2015-09-07T11:42:42Z</time>
      </trkpt>
      <trkpt lat="33.36084" lon="78.02376">
        <ele>4616</ele>
        <time>2015-09-07T11:42:48Z</time>
      </trkpt>
      <trkpt lat="33.3608" lon="78.02375">
        <ele>4614.8</ele>
        <time>2015-09-07T11:42:52Z</time>
      </trkpt>
      <trkpt lat="33.36077" lon="78.02373">
        <ele>4613.6</ele>
        <time>2015-09-07T11:42:57Z</time>
      </trkpt>
      <trkpt lat="33.36073" lon="78.02368">
        <ele>4612.4</ele>
        <time>2015-09-07T11:43:06Z</time>
      </trkpt>
      <trkpt lat="33.36072" lon="78.02367">
        <ele>4611.4</ele>
        <time>2015-09-07T11:43:08Z</time>
      </trkpt>
      <trkpt lat="33.36071" lon="78.02364">
        <ele>4610.4</ele>
        <time>2015-09-07T11:43:12Z</time>
      </trkpt>
      <trkpt lat="33.36069" lon="78.02361">
        <ele>4609.2</ele>
        <time>2015-09-07T11:43:19Z</time>
      </trkpt>
      <trkpt lat="33.36066" lon="78.02357">
        <ele>4608</ele>
        <time>2015-09-07T11:43:27Z</time>
      </trkpt>
      <trkpt lat="33.36064" lon="78.02356">
        <ele>4607.6</ele>
        <time>2015-09-07T11:43:29Z</time>
      </trkpt>
      <trkpt lat="33.36064" lon="78.02355">
        <ele>4606.8</ele>
        <time>2015-09-07T11:43:31Z</time>
      </trkpt>
      <trkpt lat="33.36066" lon="78.02354">
        <ele>4606.6</ele>
        <time>2015-09-07T11:43:35Z</time>
      </trkpt>
      <trkpt lat="33.36059" lon="78.0235">
        <ele>4605.4</ele>
        <time>2015-09-07T11:43:40Z</time>
      </trkpt>
      <trkpt lat="33.36058" lon="78.02347">
        <ele>4604.4</ele>
        <time>2015-09-07T11:43:45Z</time>
      </trkpt>
      <trkpt lat="33.36055" lon="78.02344">
        <ele>4603.4</ele>
        <time>2015-09-07T11:43:49Z</time>
      </trkpt>
      <trkpt lat="33.36055" lon="78.02343">
        <ele>4603</ele>
        <time>2015-09-07T11:43:50Z</time>
      </trkpt>
      <trkpt lat="33.36053" lon="78.02343">
        <ele>4602</ele>
        <time>2015-09-07T11:43:54Z</time>
      </trkpt>
      <trkpt lat="33.36048" lon="78.02338">
        <ele>4601</ele>
        <time>2015-09-07T11:44:02Z</time>
      </trkpt>
      <trkpt lat="33.36047" lon="78.02337">
        <ele>4600.6</ele>
        <time>2015-09-07T11:44:03Z</time>
      </trkpt>
      <trkpt lat="33.36048" lon="78.02336">
        <ele>4599.6</ele>
        <time>2015-09-07T11:44:05Z</time>
      </trkpt>
      <trkpt lat="33.36046" lon="78.02334">
        <ele>4598.6</ele>
        <time>2015-09-07T11:44:09Z</time>
      </trkpt>
      <trkpt lat="33.3604" lon="78.02329">
        <ele>4597.6</ele>
        <time>2015-09-07T11:44:20Z</time>
      </trkpt>
      <trkpt lat="33.36037" lon="78.02324">
        <ele>4596.4</ele>
        <time>2015-09-07T11:44:26Z</time>
      </trkpt>
      <trkpt lat="33.36035" lon="78.0232">
        <ele>4595.4</ele>
        <time>2015-09-07T11:44:32Z</time>
      </trkpt>
      <trkpt lat="33.36032" lon="78.02316">
        <ele>4594.4</ele>
        <time>2015-09-07T11:44:38Z</time>
      </trkpt>
      <trkpt lat="33.36026" lon="78.02312">
        <ele>4593.4</ele>
        <time>2015-09-07T11:44:41Z</time>
      </trkpt>
      <trkpt lat="33.36025" lon="78.02312">
        <ele>4593</ele>
        <time>2015-09-07T11:44:42Z</time>
      </trkpt>
      <trkpt lat="33.3602" lon="78.02317">
        <ele>4592</ele>
        <time>2015-09-07T11:44:47Z</time>
      </trkpt>
      <trkpt lat="33.36019" lon="78.02317">
        <ele>4592</ele>
        <time>2015-09-07T11:44:48Z</time>
      </trkpt>
      <trkpt lat="33.36005" lon="78.02331">
        <ele>4591.2</ele>
        <time>2015-09-07T11:45:16Z</time>
      </trkpt>
      <trkpt lat="33.35997" lon="78.02338">
        <ele>4591</ele>
        <time>2015-09-07T11:45:27Z</time>
      </trkpt>
      <trkpt lat="33.3599" lon="78.02351">
        <ele>4589.8</ele>
        <time>2015-09-07T11:45:49Z</time>
      </trkpt>
      <trkpt lat="33.35985" lon="78.02357">
        <ele>4589.6</ele>
        <time>2015-09-07T11:45:58Z</time>
      </trkpt>
      <trkpt lat="33.35985" lon="78.02365">
        <ele>4590.8</ele>
        <time>2015-09-07T11:46:15Z</time>
      </trkpt>
      <trkpt lat="33.35977" lon="78.02365">
        <ele>4590.2</ele>
        <time>2015-09-07T11:47:02Z</time>
      </trkpt>
      <trkpt lat="33.35983" lon="78.02364">
        <ele>4589.6</ele>
        <time>2015-09-07T11:47:33Z</time>
      </trkpt>
      <trkpt lat="33.35981" lon="78.02362">
        <ele>4589.8</ele>
        <time>2015-09-07T11:47:47Z</time>
      </trkpt>
      <trkpt lat="33.35978" lon="78.02366">
        <ele>4590</ele>
        <time>2015-09-07T11:47:50Z</time>
      </trkpt>
      <trkpt lat="33.35976" lon="78.02367">
        <ele>4589.8</ele>
        <time>2015-09-07T11:47:53Z</time>
      </trkpt>
      <trkpt lat="33.35969" lon="78.02372">
        <ele>4589.6</ele>
        <time>2015-09-07T11:48:11Z</time>
      </trkpt>
      <trkpt lat="33.35962" lon="78.02379">
        <ele>4588.8</ele>
        <time>2015-09-07T11:48:41Z</time>
      </trkpt>
      <trkpt lat="33.35963" lon="78.02376">
        <ele>4589</ele>
        <time>2015-09-07T11:48:46Z</time>
      </trkpt>
      <trkpt lat="33.35973" lon="78.02368">
        <ele>4588</ele>
        <time>2015-09-07T11:49:39Z</time>
      </trkpt>
      <trkpt lat="33.3597" lon="78.02371">
        <ele>4588.4</ele>
        <time>2015-09-07T11:49:43Z</time>
      </trkpt>
      <trkpt lat="33.35963" lon="78.02376">
        <ele>4588.4</ele>
        <time>2015-09-07T11:49:48Z</time>
      </trkpt>
      <trkpt lat="33.35959" lon="78.02377">
        <ele>4588.2</ele>
        <time>2015-09-07T11:49:54Z</time>
      </trkpt>
      <trkpt lat="33.35956" lon="78.02378">
        <ele>4588.2</ele>
        <time>2015-09-07T11:49:57Z</time>
      </trkpt>
      <trkpt lat="33.35961" lon="78.02377">
        <ele>4588.4</ele>
        <time>2015-09-07T11:50:11Z</time>
      </trkpt>
      <trkpt lat="33.35962" lon="78.02374">
        <ele>4588.4</ele>
        <time>2015-09-07T11:50:14Z</time>
      </trkpt>
      <trkpt lat="33.35961" lon="78.02374">
        <ele>4587.8</ele>
        <time>2015-09-07T11:50:49Z</time>
      </trkpt>
      <trkpt lat="33.35967" lon="78.02372">
        <ele>4587.8</ele>
        <time>2015-09-07T11:51:12Z</time>
      </trkpt>
      <trkpt lat="33.35969" lon="78.02372">
        <ele>4588</ele>
        <time>2015-09-07T11:51:14Z</time>
      </trkpt>
      <trkpt lat="33.35968" lon="78.02368">
        <ele>4587.6</ele>
        <time>2015-09-07T11:51:30Z</time>
      </trkpt>
      <trkpt lat="33.35969" lon="78.02372">
        <ele>4587.4</ele>
        <time>2015-09-07T11:52:02Z</time>
      </trkpt>
      <trkpt lat="33.35966" lon="78.02372">
        <ele>4587.4</ele>
        <time>2015-09-07T11:52:05Z</time>
      </trkpt>
      <trkpt lat="33.3597" lon="78.02366">
        <ele>4587.6</ele>
        <time>2015-09-07T11:52:24Z</time>
      </trkpt>
      <trkpt lat="33.35974" lon="78.02358">
        <ele>4588</ele>
        <time>2015-09-07T11:52:34Z</time>
      </trkpt>
      <trkpt lat="33.35974" lon="78.02341">
        <ele>4586.8</ele>
        <time>2015-09-07T11:52:52Z</time>
      </trkpt>
      <trkpt lat="33.35969" lon="78.0233">
        <ele>4585.8</ele>
        <time>2015-09-07T11:53:02Z</time>
      </trkpt>
      <trkpt lat="33.35966" lon="78.02322">
        <ele>4584.6</ele>
        <time>2015-09-07T11:53:09Z</time>
      </trkpt>
      <trkpt lat="33.35969" lon="78.02313">
        <ele>4583.6</ele>
        <time>2015-09-07T11:53:21Z</time>
      </trkpt>
      <trkpt lat="33.3597" lon="78.02299">
        <ele>4582.6</ele>
        <time>2015-09-07T11:53:35Z</time>
      </trkpt>
      <trkpt lat="33.35975" lon="78.02278">
        <ele>4581.6</ele>
        <time>2015-09-07T11:53:57Z</time>
      </trkpt>
      <trkpt lat="33.35975" lon="78.02277">
        <ele>4581.4</ele>
        <time>2015-09-07T11:53:58Z</time>
      </trkpt>
      <trkpt lat="33.35981" lon="78.02255">
        <ele>4581.2</ele>
        <time>2015-09-07T11:54:13Z</time>
      </trkpt>
      <trkpt lat="33.35987" lon="78.02238">
        <ele>4581</ele>
        <time>2015-09-07T11:54:33Z</time>
      </trkpt>
      <trkpt lat="33.35987" lon="78.02226">
        <ele>4580.4</ele>
        <time>2015-09-07T11:54:46Z</time>
      </trkpt>
      <trkpt lat="33.35987" lon="78.02223">
        <ele>4580</ele>
        <time>2015-09-07T11:54:48Z</time>
      </trkpt>
      <trkpt lat="33.3599" lon="78.02206">
        <ele>4579.8</ele>
        <time>2015-09-07T11:55:21Z</time>
      </trkpt>
      <trkpt lat="33.35992" lon="78.02191">
        <ele>4579.4</ele>
        <time>2015-09-07T11:55:39Z</time>
      </trkpt>
      <trkpt lat="33.35992" lon="78.02189">
        <ele>4579.4</ele>
        <time>2015-09-07T11:55:40Z</time>
      </trkpt>
      <trkpt lat="33.35997" lon="78.0217">
        <ele>4580</ele>
        <time>2015-09-07T11:56:13Z</time>
      </trkpt>
      <trkpt lat="33.35998" lon="78.02149">
        <ele>4578.4</ele>
        <time>2015-09-07T11:56:33Z</time>
      </trkpt>
      <trkpt lat="33.36002" lon="78.02143">
        <ele>4578.4</ele>
        <time>2015-09-07T11:57:00Z</time>
      </trkpt>
      <trkpt lat="33.36006" lon="78.02136">
        <ele>4578</ele>
        <time>2015-09-07T11:57:45Z</time>
      </trkpt>
      <trkpt lat="33.36006" lon="78.02129">
        <ele>4577.2</ele>
        <time>2015-09-07T11:58:29Z</time>
      </trkpt>
      <trkpt lat="33.36005" lon="78.02127">
        <ele>4577.2</ele>
        <time>2015-09-07T11:58:31Z</time>
      </trkpt>
      <trkpt lat="33.36002" lon="78.02126">
        <ele>4576.8</ele>
        <time>2015-09-07T11:58:34Z</time>
      </trkpt>
      <trkpt lat="33.36" lon="78.02118">
        <ele>4576.2</ele>
        <time>2015-09-07T11:58:45Z</time>
      </trkpt>
      <trkpt lat="33.35997" lon="78.02108">
        <ele>4575.4</ele>
        <time>2015-09-07T11:58:54Z</time>
      </trkpt>
      <trkpt lat="33.35995" lon="78.02106">
        <ele>4575.2</ele>
        <time>2015-09-07T11:58:58Z</time>
      </trkpt>
      <trkpt lat="33.35987" lon="78.02088">
        <ele>4574.2</ele>
        <time>2015-09-07T11:59:17Z</time>
      </trkpt>
      <trkpt lat="33.35986" lon="78.02082">
        <ele>4573</ele>
        <time>2015-09-07T11:59:24Z</time>
      </trkpt>
      <trkpt lat="33.3599" lon="78.02078">
        <ele>4572</ele>
        <time>2015-09-07T11:59:30Z</time>
      </trkpt>
      <trkpt lat="33.35984" lon="78.02057">
        <ele>4571.4</ele>
        <time>2015-09-07T11:59:55Z</time>
      </trkpt>
      <trkpt lat="33.35984" lon="78.02054">
        <ele>4571</ele>
        <time>2015-09-07T11:59:59Z</time>
      </trkpt>
      <trkpt lat="33.35985" lon="78.02043">
        <ele>4570</ele>
        <time>2015-09-07T12:00:14Z</time>
      </trkpt>
      <trkpt lat="33.35983" lon="78.02038">
        <ele>4568.8</ele>
        <time>2015-09-07T12:00:18Z</time>
      </trkpt>
      <trkpt lat="33.35983" lon="78.02035">
        <ele>4568.2</ele>
        <time>2015-09-07T12:00:21Z</time>
      </trkpt>
      <trkpt lat="33.35982" lon="78.02027">
        <ele>4567.8</ele>
        <time>2015-09-07T12:00:29Z</time>
      </trkpt>
      <trkpt lat="33.35985" lon="78.02023">
        <ele>4567.4</ele>
        <time>2015-09-07T12:00:33Z</time>
      </trkpt>
      <trkpt lat="33.35989" lon="78.0201">
        <ele>4549.8</ele>
        <time>2015-09-07T12:00:43Z</time>
      </trkpt>
    </trkseg>
  </trk>
  <trk>
    <name><![CDATA[Camp de Korzog (4630m) et ballade autour du lac de Tso Moriri (4550m)]]></name>
    <trkseg>
      <trkpt lat="32.94957" lon="78.27139">
        <ele>4568.2</ele>
        <time>2015-09-08T08:42:09Z</time>
      </trkpt>
      <trkpt lat="32.94953" lon="78.27138">
        <ele>4569.4</ele>
        <time>2015-09-08T08:42:13Z</time>
      </trkpt>
      <trkpt lat="32.94941" lon="78.27133">
        <ele>4570.6</ele>
        <time>2015-09-08T08:42:31Z</time>
      </trkpt>
      <trkpt lat="32.94935" lon="78.27128">
        <ele>4571.2</ele>
        <time>2015-09-08T08:42:46Z</time>
      </trkpt>
      <trkpt lat="32.94934" lon="78.27129">
        <ele>4571.6</ele>
        <time>2015-09-08T08:42:48Z</time>
      </trkpt>
      <trkpt lat="32.94931" lon="78.27131">
        <ele>4573</ele>
        <time>2015-09-08T08:42:51Z</time>
      </trkpt>
      <trkpt lat="32.94926" lon="78.27132">
        <ele>4574</ele>
        <time>2015-09-08T08:42:57Z</time>
      </trkpt>
      <trkpt lat="32.94921" lon="78.27136">
        <ele>4574.6</ele>
        <time>2015-09-08T08:43:01Z</time>
      </trkpt>
      <trkpt lat="32.94919" lon="78.27138">
        <ele>4575</ele>
        <time>2015-09-08T08:43:05Z</time>
      </trkpt>
      <trkpt lat="32.94917" lon="78.27142">
        <ele>4575.2</ele>
        <time>2015-09-08T08:43:06Z</time>
      </trkpt>
      <trkpt lat="32.94914" lon="78.27143">
        <ele>4575.2</ele>
        <time>2015-09-08T08:43:09Z</time>
      </trkpt>
      <trkpt lat="32.94912" lon="78.27142">
        <ele>4575.6</ele>
        <time>2015-09-08T08:43:12Z</time>
      </trkpt>
      <trkpt lat="32.94908" lon="78.27144">
        <ele>4576.2</ele>
        <time>2015-09-08T08:43:18Z</time>
      </trkpt>
      <trkpt lat="32.94904" lon="78.27142">
        <ele>4576.2</ele>
        <time>2015-09-08T08:43:24Z</time>
      </trkpt>
      <trkpt lat="32.94887" lon="78.27143">
        <ele>4576</ele>
        <time>2015-09-08T08:43:45Z</time>
      </trkpt>
      <trkpt lat="32.94881" lon="78.27148">
        <ele>4577.4</ele>
        <time>2015-09-08T08:43:54Z</time>
      </trkpt>
      <trkpt lat="32.94874" lon="78.27156">
        <ele>4578.4</ele>
        <time>2015-09-08T08:44:06Z</time>
      </trkpt>
      <trkpt lat="32.94871" lon="78.27156">
        <ele>4579.6</ele>
        <time>2015-09-08T08:44:11Z</time>
      </trkpt>
      <trkpt lat="32.94862" lon="78.27156">
        <ele>4580.6</ele>
        <time>2015-09-08T08:44:21Z</time>
      </trkpt>
      <trkpt lat="32.94858" lon="78.27156">
        <ele>4581.2</ele>
        <time>2015-09-08T08:44:26Z</time>
      </trkpt>
      <trkpt lat="32.94857" lon="78.27156">
        <ele>4581.4</ele>
        <time>2015-09-08T08:44:28Z</time>
      </trkpt>
      <trkpt lat="32.94855" lon="78.27156">
        <ele>4582</ele>
        <time>2015-09-08T08:44:30Z</time>
      </trkpt>
      <trkpt lat="32.94838" lon="78.27162">
        <ele>4582</ele>
        <time>2015-09-08T08:44:56Z</time>
      </trkpt>
      <trkpt lat="32.94833" lon="78.27165">
        <ele>4583.2</ele>
        <time>2015-09-08T08:45:05Z</time>
      </trkpt>
      <trkpt lat="32.94817" lon="78.27173">
        <ele>4584</ele>
        <time>2015-09-08T08:45:24Z</time>
      </trkpt>
      <trkpt lat="32.94816" lon="78.27172">
        <ele>4584.2</ele>
        <time>2015-09-08T08:45:25Z</time>
      </trkpt>
      <trkpt lat="32.94813" lon="78.27169">
        <ele>4585.2</ele>
        <time>2015-09-08T08:45:39Z</time>
      </trkpt>
      <trkpt lat="32.94811" lon="78.27171">
        <ele>4586.4</ele>
        <time>2015-09-08T08:45:52Z</time>
      </trkpt>
      <trkpt lat="32.94811" lon="78.27171">
        <ele>4587.6</ele>
        <time>2015-09-08T08:45:55Z</time>
      </trkpt>
      <trkpt lat="32.94806" lon="78.27169">
        <ele>4586.4</ele>
        <time>2015-09-08T08:46:06Z</time>
      </trkpt>
      <trkpt lat="32.94801" lon="78.27167">
        <ele>4587.4</ele>
        <time>2015-09-08T08:46:13Z</time>
      </trkpt>
      <trkpt lat="32.94796" lon="78.2717">
        <ele>4586.2</ele>
        <time>2015-09-08T08:46:18Z</time>
      </trkpt>
      <trkpt lat="32.94792" lon="78.27171">
        <ele>4587.2</ele>
        <time>2015-09-08T08:46:32Z</time>
      </trkpt>
      <trkpt lat="32.94788" lon="78.27168">
        <ele>4588.4</ele>
        <time>2015-09-08T08:46:42Z</time>
      </trkpt>
      <trkpt lat="32.94783" lon="78.27168">
        <ele>4589.4</ele>
        <time>2015-09-08T08:46:53Z</time>
      </trkpt>
      <trkpt lat="32.94776" lon="78.27173">
        <ele>4589.8</ele>
        <time>2015-09-08T08:47:04Z</time>
      </trkpt>
      <trkpt lat="32.94772" lon="78.27173">
        <ele>4589.2</ele>
        <time>2015-09-08T08:47:07Z</time>
      </trkpt>
      <trkpt lat="32.9477" lon="78.27174">
        <ele>4588.2</ele>
        <time>2015-09-08T08:47:09Z</time>
      </trkpt>
      <trkpt lat="32.94768" lon="78.27176">
        <ele>4587</ele>
        <time>2015-09-08T08:47:12Z</time>
      </trkpt>
      <trkpt lat="32.94765" lon="78.27177">
        <ele>4586.8</ele>
        <time>2015-09-08T08:47:15Z</time>
      </trkpt>
      <trkpt lat="32.94764" lon="78.27179">
        <ele>4587</ele>
        <time>2015-09-08T08:47:17Z</time>
      </trkpt>
      <trkpt lat="32.94763" lon="78.27181">
        <ele>4587.8</ele>
        <time>2015-09-08T08:47:19Z</time>
      </trkpt>
      <trkpt lat="32.94763" lon="78.27182">
        <ele>4588.4</ele>
        <time>2015-09-08T08:47:21Z</time>
      </trkpt>
      <trkpt lat="32.94761" lon="78.27183">
        <ele>4589.4</ele>
        <time>2015-09-08T08:47:24Z</time>
      </trkpt>
      <trkpt lat="32.9476" lon="78.27182">
        <ele>4588.4</ele>
        <time>2015-09-08T08:47:40Z</time>
      </trkpt>
      <trkpt lat="32.94759" lon="78.27181">
        <ele>4587</ele>
        <time>2015-09-08T08:47:43Z</time>
      </trkpt>
      <trkpt lat="32.94759" lon="78.2718">
        <ele>4586</ele>
        <time>2015-09-08T08:47:45Z</time>
      </trkpt>
      <trkpt lat="32.94762" lon="78.2718">
        <ele>4587.4</ele>
        <time>2015-09-08T08:47:50Z</time>
      </trkpt>
      <trkpt lat="32.9476" lon="78.27179">
        <ele>4586.4</ele>
        <time>2015-09-08T08:47:59Z</time>
      </trkpt>
      <trkpt lat="32.94761" lon="78.27179">
        <ele>4587.4</ele>
        <time>2015-09-08T08:48:03Z</time>
      </trkpt>
      <trkpt lat="32.94764" lon="78.27177">
        <ele>4588.4</ele>
        <time>2015-09-08T08:48:12Z</time>
      </trkpt>
      <trkpt lat="32.94766" lon="78.27177">
        <ele>4589.6</ele>
        <time>2015-09-08T08:48:18Z</time>
      </trkpt>
      <trkpt lat="32.9478" lon="78.27172">
        <ele>4588.4</ele>
        <time>2015-09-08T08:48:59Z</time>
      </trkpt>
      <trkpt lat="32.9478" lon="78.27174">
        <ele>4589.6</ele>
        <time>2015-09-08T08:49:22Z</time>
      </trkpt>
      <trkpt lat="32.9478" lon="78.27175">
        <ele>4588.4</ele>
        <time>2015-09-08T08:49:39Z</time>
      </trkpt>
      <trkpt lat="32.9478" lon="78.27176">
        <ele>4589.4</ele>
        <time>2015-09-08T08:50:03Z</time>
      </trkpt>
      <trkpt lat="32.94785" lon="78.27176">
        <ele>4590.4</ele>
        <time>2015-09-08T08:53:23Z</time>
      </trkpt>
      <trkpt lat="32.94785" lon="78.27176">
        <ele>4590.4</ele>
        <time>2015-09-08T08:53:24Z</time>
      </trkpt>
      <trkpt lat="32.94783" lon="78.27175">
        <ele>4591.6</ele>
        <time>2015-09-08T08:54:21Z</time>
      </trkpt>
      <trkpt lat="32.94783" lon="78.27175">
        <ele>4592.8</ele>
        <time>2015-09-08T08:54:25Z</time>
      </trkpt>
      <trkpt lat="32.94782" lon="78.27175">
        <ele>4594</ele>
        <time>2015-09-08T08:54:33Z</time>
      </trkpt>
      <trkpt lat="32.94782" lon="78.27174">
        <ele>4595</ele>
        <time>2015-09-08T08:54:37Z</time>
      </trkpt>
      <trkpt lat="32.94782" lon="78.27174">
        <ele>4593.8</ele>
        <time>2015-09-08T08:54:46Z</time>
      </trkpt>
      <trkpt lat="32.94782" lon="78.27175">
        <ele>4592.6</ele>
        <time>2015-09-08T08:54:51Z</time>
      </trkpt>
      <trkpt lat="32.94782" lon="78.27175">
        <ele>4591.4</ele>
        <time>2015-09-08T08:55:32Z</time>
      </trkpt>
      <trkpt lat="32.94785" lon="78.27174">
        <ele>4590.4</ele>
        <time>2015-09-08T08:55:39Z</time>
      </trkpt>
      <trkpt lat="32.94786" lon="78.27174">
        <ele>4591.4</ele>
        <time>2015-09-08T08:56:07Z</time>
      </trkpt>
      <trkpt lat="32.94783" lon="78.27176">
        <ele>4590.4</ele>
        <time>2015-09-08T08:56:54Z</time>
      </trkpt>
      <trkpt lat="32.94784" lon="78.27177">
        <ele>4589.4</ele>
        <time>2015-09-08T08:57:22Z</time>
      </trkpt>
      <trkpt lat="32.9478" lon="78.27176">
        <ele>4590.4</ele>
        <time>2015-09-08T08:59:02Z</time>
      </trkpt>
      <trkpt lat="32.9478" lon="78.27176">
        <ele>4591.4</ele>
        <time>2015-09-08T08:59:21Z</time>
      </trkpt>
      <trkpt lat="32.9478" lon="78.27175">
        <ele>4592.6</ele>
        <time>2015-09-08T08:59:35Z</time>
      </trkpt>
      <trkpt lat="32.9478" lon="78.27175">
        <ele>4593.8</ele>
        <time>2015-09-08T08:59:39Z</time>
      </trkpt>
      <trkpt lat="32.9478" lon="78.27176">
        <ele>4595.2</ele>
        <time>2015-09-08T08:59:51Z</time>
      </trkpt>
      <trkpt lat="32.9478" lon="78.27176">
        <ele>4596.4</ele>
        <time>2015-09-08T08:59:54Z</time>
      </trkpt>
      <trkpt lat="32.9478" lon="78.27176">
        <ele>4595</ele>
        <time>2015-09-08T09:00:01Z</time>
      </trkpt>
      <trkpt lat="32.9478" lon="78.27176">
        <ele>4593.6</ele>
        <time>2015-09-08T09:00:03Z</time>
      </trkpt>
      <trkpt lat="32.94779" lon="78.27176">
        <ele>4592.6</ele>
        <time>2015-09-08T09:00:32Z</time>
      </trkpt>
      <trkpt lat="32.94779" lon="78.27176">
        <ele>4592.6</ele>
        <time>2015-09-08T09:00:36Z</time>
      </trkpt>
      <trkpt lat="32.94779" lon="78.27176">
        <ele>4593.8</ele>
        <time>2015-09-08T09:01:01Z</time>
      </trkpt>
      <trkpt lat="32.94779" lon="78.27176">
        <ele>4594.8</ele>
        <time>2015-09-08T09:01:12Z</time>
      </trkpt>
      <trkpt lat="32.9478" lon="78.27175">
        <ele>4593.8</ele>
        <time>2015-09-08T09:01:28Z</time>
      </trkpt>
      <trkpt lat="32.9478" lon="78.27176">
        <ele>4592.8</ele>
        <time>2015-09-08T09:01:44Z</time>
      </trkpt>
      <trkpt lat="32.94778" lon="78.27176">
        <ele>4593.8</ele>
        <time>2015-09-08T09:02:19Z</time>
      </trkpt>
      <trkpt lat="32.9477" lon="78.27175">
        <ele>4592.8</ele>
        <time>2015-09-08T09:02:34Z</time>
      </trkpt>
      <trkpt lat="32.94766" lon="78.27175">
        <ele>4591.6</ele>
        <time>2015-09-08T09:02:37Z</time>
      </trkpt>
      <trkpt lat="32.94765" lon="78.27175">
        <ele>4590.4</ele>
        <time>2015-09-08T09:02:39Z</time>
      </trkpt>
      <trkpt lat="32.94759" lon="78.27177">
        <ele>4589.4</ele>
        <time>2015-09-08T09:02:47Z</time>
      </trkpt>
      <trkpt lat="32.94754" lon="78.27177">
        <ele>4591.2</ele>
        <time>2015-09-08T09:02:53Z</time>
      </trkpt>
      <trkpt lat="32.94753" lon="78.27177">
        <ele>4592.2</ele>
        <time>2015-09-08T09:02:54Z</time>
      </trkpt>
      <trkpt lat="32.94747" lon="78.27178">
        <ele>4591</ele>
        <time>2015-09-08T09:03:01Z</time>
      </trkpt>
      <trkpt lat="32.94747" lon="78.27178">
        <ele>4590.4</ele>
        <time>2015-09-08T09:03:03Z</time>
      </trkpt>
      <trkpt lat="32.94747" lon="78.27178">
        <ele>4590</ele>
        <time>2015-09-08T09:03:04Z</time>
      </trkpt>
      <trkpt lat="32.94747" lon="78.27178">
        <ele>4589</ele>
        <time>2015-09-08T09:03:06Z</time>
      </trkpt>
      <trkpt lat="32.94752" lon="78.27179">
        <ele>4590</ele>
        <time>2015-09-08T09:03:17Z</time>
      </trkpt>
      <trkpt lat="32.94758" lon="78.2718">
        <ele>4591</ele>
        <time>2015-09-08T09:03:23Z</time>
      </trkpt>
      <trkpt lat="32.94764" lon="78.27178">
        <ele>4592.2</ele>
        <time>2015-09-08T09:03:31Z</time>
      </trkpt>
      <trkpt lat="32.94769" lon="78.27175">
        <ele>4593.4</ele>
        <time>2015-09-08T09:03:38Z</time>
      </trkpt>
      <trkpt lat="32.94773" lon="78.27174">
        <ele>4594.6</ele>
        <time>2015-09-08T09:03:43Z</time>
      </trkpt>
      <trkpt lat="32.94774" lon="78.27174">
        <ele>4595</ele>
        <time>2015-09-08T09:03:45Z</time>
      </trkpt>
      <trkpt lat="32.94777" lon="78.27173">
        <ele>4595</ele>
        <time>2015-09-08T09:03:48Z</time>
      </trkpt>
      <trkpt lat="32.94786" lon="78.27171">
        <ele>4593.6</ele>
        <time>2015-09-08T09:04:05Z</time>
      </trkpt>
      <trkpt lat="32.94794" lon="78.27167">
        <ele>4592.4</ele>
        <time>2015-09-08T09:04:15Z</time>
      </trkpt>
      <trkpt lat="32.94795" lon="78.27166">
        <ele>4592</ele>
        <time>2015-09-08T09:04:17Z</time>
      </trkpt>
      <trkpt lat="32.948" lon="78.27163">
        <ele>4591.2</ele>
        <time>2015-09-08T09:04:23Z</time>
      </trkpt>
      <trkpt lat="32.94806" lon="78.27161">
        <ele>4590.2</ele>
        <time>2015-09-08T09:04:31Z</time>
      </trkpt>
      <trkpt lat="32.9481" lon="78.27158">
        <ele>4589.6</ele>
        <time>2015-09-08T09:04:36Z</time>
      </trkpt>
      <trkpt lat="32.94811" lon="78.27157">
        <ele>4589</ele>
        <time>2015-09-08T09:04:38Z</time>
      </trkpt>
      <trkpt lat="32.94812" lon="78.27157">
        <ele>4588.8</ele>
        <time>2015-09-08T09:04:39Z</time>
      </trkpt>
      <trkpt lat="32.94816" lon="78.27156">
        <ele>4587.8</ele>
        <time>2015-09-08T09:04:44Z</time>
      </trkpt>
      <trkpt lat="32.9482" lon="78.27155">
        <ele>4587</ele>
        <time>2015-09-08T09:04:49Z</time>
      </trkpt>
      <trkpt lat="32.94823" lon="78.27156">
        <ele>4586.8</ele>
        <time>2015-09-08T09:04:51Z</time>
      </trkpt>
      <trkpt lat="32.94827" lon="78.2716">
        <ele>4585.8</ele>
        <time>2015-09-08T09:04:57Z</time>
      </trkpt>
      <trkpt lat="32.94828" lon="78.2716">
        <ele>4585.6</ele>
        <time>2015-09-08T09:04:58Z</time>
      </trkpt>
      <trkpt lat="32.94838" lon="78.27166">
        <ele>4584.6</ele>
        <time>2015-09-08T09:05:11Z</time>
      </trkpt>
      <trkpt lat="32.94844" lon="78.27172">
        <ele>4583.6</ele>
        <time>2015-09-08T09:05:20Z</time>
      </trkpt>
      <trkpt lat="32.94846" lon="78.27174">
        <ele>4583</ele>
        <time>2015-09-08T09:05:23Z</time>
      </trkpt>
      <trkpt lat="32.94848" lon="78.27177">
        <ele>4582.6</ele>
        <time>2015-09-08T09:05:27Z</time>
      </trkpt>
      <trkpt lat="32.94849" lon="78.27178">
        <ele>4582</ele>
        <time>2015-09-08T09:05:29Z</time>
      </trkpt>
      <trkpt lat="32.94849" lon="78.27179">
        <ele>4581.6</ele>
        <time>2015-09-08T09:05:31Z</time>
      </trkpt>
      <trkpt lat="32.94851" lon="78.27184">
        <ele>4580.6</ele>
        <time>2015-09-08T09:05:37Z</time>
      </trkpt>
      <trkpt lat="32.94854" lon="78.27189">
        <ele>4579.4</ele>
        <time>2015-09-08T09:05:44Z</time>
      </trkpt>
      <trkpt lat="32.94855" lon="78.2719">
        <ele>4579.4</ele>
        <time>2015-09-08T09:05:45Z</time>
      </trkpt>
      <trkpt lat="32.94859" lon="78.27192">
        <ele>4579.2</ele>
        <time>2015-09-08T09:05:50Z</time>
      </trkpt>
      <trkpt lat="32.94865" lon="78.27196">
        <ele>4578.2</ele>
        <time>2015-09-08T09:06:00Z</time>
      </trkpt>
      <trkpt lat="32.94868" lon="78.27198">
        <ele>4577</ele>
        <time>2015-09-08T09:06:04Z</time>
      </trkpt>
      <trkpt lat="32.9487" lon="78.272">
        <ele>4576</ele>
        <time>2015-09-08T09:06:07Z</time>
      </trkpt>
      <trkpt lat="32.94873" lon="78.27202">
        <ele>4574.8</ele>
        <time>2015-09-08T09:06:11Z</time>
      </trkpt>
      <trkpt lat="32.94876" lon="78.27204">
        <ele>4574</ele>
        <time>2015-09-08T09:06:15Z</time>
      </trkpt>
      <trkpt lat="32.94877" lon="78.27205">
        <ele>4573.8</ele>
        <time>2015-09-08T09:06:16Z</time>
      </trkpt>
      <trkpt lat="32.94878" lon="78.2721">
        <ele>4572.8</ele>
        <time>2015-09-08T09:06:21Z</time>
      </trkpt>
      <trkpt lat="32.9488" lon="78.27214">
        <ele>4571.8</ele>
        <time>2015-09-08T09:06:26Z</time>
      </trkpt>
      <trkpt lat="32.94883" lon="78.2722">
        <ele>4570.6</ele>
        <time>2015-09-08T09:06:31Z</time>
      </trkpt>
      <trkpt lat="32.94884" lon="78.27227">
        <ele>4570</ele>
        <time>2015-09-08T09:06:39Z</time>
      </trkpt>
      <trkpt lat="32.94882" lon="78.27229">
        <ele>4569.4</ele>
        <time>2015-09-08T09:06:42Z</time>
      </trkpt>
      <trkpt lat="32.94882" lon="78.27229">
        <ele>4568.8</ele>
        <time>2015-09-08T09:06:43Z</time>
      </trkpt>
      <trkpt lat="32.94881" lon="78.2723">
        <ele>4568</ele>
        <time>2015-09-08T09:06:45Z</time>
      </trkpt>
      <trkpt lat="32.94881" lon="78.2723">
        <ele>4567</ele>
        <time>2015-09-08T09:06:48Z</time>
      </trkpt>
      <trkpt lat="32.94884" lon="78.27231">
        <ele>4568</ele>
        <time>2015-09-08T09:06:59Z</time>
      </trkpt>
      <trkpt lat="32.94894" lon="78.27233">
        <ele>4567.2</ele>
        <time>2015-09-08T09:07:12Z</time>
      </trkpt>
      <trkpt lat="32.94896" lon="78.27234">
        <ele>4567</ele>
        <time>2015-09-08T09:07:14Z</time>
      </trkpt>
      <trkpt lat="32.94899" lon="78.27236">
        <ele>4565.8</ele>
        <time>2015-09-08T09:07:21Z</time>
      </trkpt>
      <trkpt lat="32.94906" lon="78.27235">
        <ele>4564.8</ele>
        <time>2015-09-08T09:07:30Z</time>
      </trkpt>
      <trkpt lat="32.9492" lon="78.2722">
        <ele>4565.6</ele>
        <time>2015-09-08T09:07:50Z</time>
      </trkpt>
      <trkpt lat="32.94922" lon="78.27219">
        <ele>4565.8</ele>
        <time>2015-09-08T09:07:52Z</time>
      </trkpt>
      <trkpt lat="32.94931" lon="78.27215">
        <ele>4566</ele>
        <time>2015-09-08T09:08:02Z</time>
      </trkpt>
      <trkpt lat="32.94936" lon="78.27212">
        <ele>4565.2</ele>
        <time>2015-09-08T09:08:11Z</time>
      </trkpt>
      <trkpt lat="32.94937" lon="78.27205">
        <ele>4564.8</ele>
        <time>2015-09-08T09:08:18Z</time>
      </trkpt>
      <trkpt lat="32.94938" lon="78.27203">
        <ele>4564.6</ele>
        <time>2015-09-08T09:08:20Z</time>
      </trkpt>
      <trkpt lat="32.94939" lon="78.27203">
        <ele>4564.4</ele>
        <time>2015-09-08T09:08:22Z</time>
      </trkpt>
      <trkpt lat="32.9494" lon="78.272">
        <ele>4563.8</ele>
        <time>2015-09-08T09:08:27Z</time>
      </trkpt>
      <trkpt lat="32.94944" lon="78.272">
        <ele>4562.6</ele>
        <time>2015-09-08T09:08:33Z</time>
      </trkpt>
      <trkpt lat="32.94948" lon="78.27199">
        <ele>4561.6</ele>
        <time>2015-09-08T09:08:39Z</time>
      </trkpt>
      <trkpt lat="32.9495" lon="78.27202">
        <ele>4560.6</ele>
        <time>2015-09-08T09:08:45Z</time>
      </trkpt>
      <trkpt lat="32.94952" lon="78.27204">
        <ele>4559.4</ele>
        <time>2015-09-08T09:08:50Z</time>
      </trkpt>
      <trkpt lat="32.94954" lon="78.27205">
        <ele>4558.4</ele>
        <time>2015-09-08T09:08:55Z</time>
      </trkpt>
      <trkpt lat="32.94958" lon="78.27204">
        <ele>4557.4</ele>
        <time>2015-09-08T09:09:02Z</time>
      </trkpt>
      <trkpt lat="32.94962" lon="78.27204">
        <ele>4556.4</ele>
        <time>2015-09-08T09:09:08Z</time>
      </trkpt>
      <trkpt lat="32.94966" lon="78.27206">
        <ele>4555.2</ele>
        <time>2015-09-08T09:09:14Z</time>
      </trkpt>
      <trkpt lat="32.94969" lon="78.2721">
        <ele>4554</ele>
        <time>2015-09-08T09:09:19Z</time>
      </trkpt>
      <trkpt lat="32.94976" lon="78.27211">
        <ele>4553</ele>
        <time>2015-09-08T09:09:27Z</time>
      </trkpt>
      <trkpt lat="32.9498" lon="78.27213">
        <ele>4553</ele>
        <time>2015-09-08T09:09:31Z</time>
      </trkpt>
      <trkpt lat="32.94986" lon="78.27211">
        <ele>4552</ele>
        <time>2015-09-08T09:09:37Z</time>
      </trkpt>
      <trkpt lat="32.9499" lon="78.27211">
        <ele>4551.8</ele>
        <time>2015-09-08T09:09:41Z</time>
      </trkpt>
      <trkpt lat="32.94991" lon="78.27211">
        <ele>4551.8</ele>
        <time>2015-09-08T09:09:43Z</time>
      </trkpt>
      <trkpt lat="32.95003" lon="78.27209">
        <ele>4551.8</ele>
        <time>2015-09-08T09:09:56Z</time>
      </trkpt>
      <trkpt lat="32.95006" lon="78.27211">
        <ele>4552.2</ele>
        <time>2015-09-08T09:10:00Z</time>
      </trkpt>
      <trkpt lat="32.9501" lon="78.27215">
        <ele>4551.8</ele>
        <time>2015-09-08T09:10:05Z</time>
      </trkpt>
      <trkpt lat="32.95012" lon="78.27216">
        <ele>4551.4</ele>
        <time>2015-09-08T09:10:08Z</time>
      </trkpt>
      <trkpt lat="32.95013" lon="78.27216">
        <ele>4551</ele>
        <time>2015-09-08T09:10:11Z</time>
      </trkpt>
      <trkpt lat="32.95014" lon="78.27219">
        <ele>4551</ele>
        <time>2015-09-08T09:10:23Z</time>
      </trkpt>
      <trkpt lat="32.95022" lon="78.27215">
        <ele>4550.8</ele>
        <time>2015-09-08T09:11:26Z</time>
      </trkpt>
      <trkpt lat="32.95023" lon="78.27215">
        <ele>4550.6</ele>
        <time>2015-09-08T09:11:27Z</time>
      </trkpt>
      <trkpt lat="32.9503" lon="78.27214">
        <ele>4550.6</ele>
        <time>2015-09-08T09:11:36Z</time>
      </trkpt>
      <trkpt lat="32.95047" lon="78.27206">
        <ele>4551</ele>
        <time>2015-09-08T09:12:10Z</time>
      </trkpt>
      <trkpt lat="32.95067" lon="78.27205">
        <ele>4552</ele>
        <time>2015-09-08T09:12:56Z</time>
      </trkpt>
      <trkpt lat="32.95083" lon="78.27194">
        <ele>4551.8</ele>
        <time>2015-09-08T09:13:27Z</time>
      </trkpt>
      <trkpt lat="32.95099" lon="78.27185">
        <ele>4551.6</ele>
        <time>2015-09-08T09:14:01Z</time>
      </trkpt>
      <trkpt lat="32.95115" lon="78.27176">
        <ele>4551.4</ele>
        <time>2015-09-08T09:14:27Z</time>
      </trkpt>
      <trkpt lat="32.95133" lon="78.27174">
        <ele>4551.6</ele>
        <time>2015-09-08T09:14:55Z</time>
      </trkpt>
      <trkpt lat="32.95151" lon="78.27169">
        <ele>4551.2</ele>
        <time>2015-09-08T09:15:28Z</time>
      </trkpt>
      <trkpt lat="32.95169" lon="78.27165">
        <ele>4553</ele>
        <time>2015-09-08T09:15:52Z</time>
      </trkpt>
      <trkpt lat="32.9517" lon="78.27165">
        <ele>4553</ele>
        <time>2015-09-08T09:15:53Z</time>
      </trkpt>
      <trkpt lat="32.95187" lon="78.2716">
        <ele>4553.2</ele>
        <time>2015-09-08T09:16:16Z</time>
      </trkpt>
      <trkpt lat="32.95193" lon="78.27155">
        <ele>4551.8</ele>
        <time>2015-09-08T09:16:26Z</time>
      </trkpt>
      <trkpt lat="32.9521" lon="78.27148">
        <ele>4551.4</ele>
        <time>2015-09-08T09:16:49Z</time>
      </trkpt>
      <trkpt lat="32.95228" lon="78.27143">
        <ele>4551.4</ele>
        <time>2015-09-08T09:17:17Z</time>
      </trkpt>
      <trkpt lat="32.95232" lon="78.27141">
        <ele>4551.6</ele>
        <time>2015-09-08T09:17:23Z</time>
      </trkpt>
      <trkpt lat="32.95247" lon="78.27139">
        <ele>4553.2</ele>
        <time>2015-09-08T09:17:46Z</time>
      </trkpt>
      <trkpt lat="32.95249" lon="78.27137">
        <ele>4554.4</ele>
        <time>2015-09-08T09:17:50Z</time>
      </trkpt>
      <trkpt lat="32.95259" lon="78.27132">
        <ele>4553.4</ele>
        <time>2015-09-08T09:18:03Z</time>
      </trkpt>
      <trkpt lat="32.95267" lon="78.2713">
        <ele>4554.4</ele>
        <time>2015-09-08T09:18:14Z</time>
      </trkpt>
      <trkpt lat="32.95269" lon="78.2713">
        <ele>4554.8</ele>
        <time>2015-09-08T09:18:17Z</time>
      </trkpt>
      <trkpt lat="32.95271" lon="78.27125">
        <ele>4555.4</ele>
        <time>2015-09-08T09:18:22Z</time>
      </trkpt>
      <trkpt lat="32.95272" lon="78.27125">
        <ele>4556.4</ele>
        <time>2015-09-08T09:18:30Z</time>
      </trkpt>
      <trkpt lat="32.95276" lon="78.27127">
        <ele>4557</ele>
        <time>2015-09-08T09:18:34Z</time>
      </trkpt>
      <trkpt lat="32.95283" lon="78.27128">
        <ele>4555.2</ele>
        <time>2015-09-08T09:18:42Z</time>
      </trkpt>
      <trkpt lat="32.95286" lon="78.27128">
        <ele>4554.2</ele>
        <time>2015-09-08T09:18:46Z</time>
      </trkpt>
      <trkpt lat="32.95296" lon="78.27129">
        <ele>4553.2</ele>
        <time>2015-09-08T09:18:59Z</time>
      </trkpt>
      <trkpt lat="32.95307" lon="78.27129">
        <ele>4552.2</ele>
        <time>2015-09-08T09:19:11Z</time>
      </trkpt>
      <trkpt lat="32.95311" lon="78.27123">
        <ele>4551</ele>
        <time>2015-09-08T09:19:17Z</time>
      </trkpt>
      <trkpt lat="32.95312" lon="78.27122">
        <ele>4550</ele>
        <time>2015-09-08T09:19:25Z</time>
      </trkpt>
      <trkpt lat="32.95314" lon="78.27122">
        <ele>4551</ele>
        <time>2015-09-08T09:19:41Z</time>
      </trkpt>
      <trkpt lat="32.95314" lon="78.27122">
        <ele>4552.2</ele>
        <time>2015-09-08T09:19:59Z</time>
      </trkpt>
      <trkpt lat="32.95314" lon="78.27123">
        <ele>4552.8</ele>
        <time>2015-09-08T09:20:04Z</time>
      </trkpt>
      <trkpt lat="32.95314" lon="78.27123">
        <ele>4550.8</ele>
        <time>2015-09-08T09:20:20Z</time>
      </trkpt>
      <trkpt lat="32.95312" lon="78.27122">
        <ele>4550.2</ele>
        <time>2015-09-08T09:20:30Z</time>
      </trkpt>
      <trkpt lat="32.95314" lon="78.27122">
        <ele>4552</ele>
        <time>2015-09-08T09:21:00Z</time>
      </trkpt>
      <trkpt lat="32.95314" lon="78.27121">
        <ele>4550.8</ele>
        <time>2015-09-08T09:21:08Z</time>
      </trkpt>
      <trkpt lat="32.95314" lon="78.27124">
        <ele>4549.6</ele>
        <time>2015-09-08T09:21:43Z</time>
      </trkpt>
      <trkpt lat="32.95315" lon="78.27122">
        <ele>4551</ele>
        <time>2015-09-08T09:21:59Z</time>
      </trkpt>
      <trkpt lat="32.95317" lon="78.27117">
        <ele>4550.8</ele>
        <time>2015-09-08T09:22:17Z</time>
      </trkpt>
      <trkpt lat="32.95329" lon="78.271">
        <ele>4550.2</ele>
        <time>2015-09-08T09:22:33Z</time>
      </trkpt>
      <trkpt lat="32.95338" lon="78.2708">
        <ele>4551.8</ele>
        <time>2015-09-08T09:22:50Z</time>
      </trkpt>
      <trkpt lat="32.95347" lon="78.27062">
        <ele>4550.8</ele>
        <time>2015-09-08T09:23:06Z</time>
      </trkpt>
      <trkpt lat="32.95362" lon="78.27049">
        <ele>4549.6</ele>
        <time>2015-09-08T09:23:22Z</time>
      </trkpt>
      <trkpt lat="32.95362" lon="78.27038">
        <ele>4551</ele>
        <time>2015-09-08T09:23:30Z</time>
      </trkpt>
      <trkpt lat="32.95358" lon="78.27018">
        <ele>4551</ele>
        <time>2015-09-08T09:23:46Z</time>
      </trkpt>
      <trkpt lat="32.95354" lon="78.26996">
        <ele>4550.4</ele>
        <time>2015-09-08T09:24:02Z</time>
      </trkpt>
      <trkpt lat="32.95354" lon="78.26985">
        <ele>4550</ele>
        <time>2015-09-08T09:24:10Z</time>
      </trkpt>
      <trkpt lat="32.9535" lon="78.26964">
        <ele>4549.4</ele>
        <time>2015-09-08T09:24:26Z</time>
      </trkpt>
      <trkpt lat="32.95354" lon="78.26952">
        <ele>4548.8</ele>
        <time>2015-09-08T09:24:35Z</time>
      </trkpt>
      <trkpt lat="32.95358" lon="78.2693">
        <ele>4548.8</ele>
        <time>2015-09-08T09:24:50Z</time>
      </trkpt>
      <trkpt lat="32.95362" lon="78.26921">
        <ele>4547.8</ele>
        <time>2015-09-08T09:25:00Z</time>
      </trkpt>
      <trkpt lat="32.95364" lon="78.26916">
        <ele>4548</ele>
        <time>2015-09-08T09:25:11Z</time>
      </trkpt>
      <trkpt lat="32.95367" lon="78.26907">
        <ele>4548.8</ele>
        <time>2015-09-08T09:25:17Z</time>
      </trkpt>
      <trkpt lat="32.95375" lon="78.26888">
        <ele>4549</ele>
        <time>2015-09-08T09:25:31Z</time>
      </trkpt>
      <trkpt lat="32.95382" lon="78.26868">
        <ele>4549.4</ele>
        <time>2015-09-08T09:25:46Z</time>
      </trkpt>
      <trkpt lat="32.95391" lon="78.26848">
        <ele>4549.2</ele>
        <time>2015-09-08T09:26:02Z</time>
      </trkpt>
      <trkpt lat="32.95401" lon="78.2683">
        <ele>4549.4</ele>
        <time>2015-09-08T09:26:18Z</time>
      </trkpt>
      <trkpt lat="32.9541" lon="78.2681">
        <ele>4549.2</ele>
        <time>2015-09-08T09:26:33Z</time>
      </trkpt>
      <trkpt lat="32.9542" lon="78.26791">
        <ele>4548.8</ele>
        <time>2015-09-08T09:26:51Z</time>
      </trkpt>
      <trkpt lat="32.95426" lon="78.26783">
        <ele>4548.6</ele>
        <time>2015-09-08T09:27:00Z</time>
      </trkpt>
      <trkpt lat="32.95437" lon="78.26764">
        <ele>4548.4</ele>
        <time>2015-09-08T09:27:18Z</time>
      </trkpt>
      <trkpt lat="32.95456" lon="78.26757">
        <ele>4548.4</ele>
        <time>2015-09-08T09:27:39Z</time>
      </trkpt>
      <trkpt lat="32.95467" lon="78.2674">
        <ele>4549.2</ele>
        <time>2015-09-08T09:27:57Z</time>
      </trkpt>
      <trkpt lat="32.95475" lon="78.26721">
        <ele>4549.6</ele>
        <time>2015-09-08T09:28:12Z</time>
      </trkpt>
      <trkpt lat="32.95478" lon="78.26718">
        <ele>4549.8</ele>
        <time>2015-09-08T09:28:17Z</time>
      </trkpt>
      <trkpt lat="32.9548" lon="78.26715">
        <ele>4550.2</ele>
        <time>2015-09-08T09:28:21Z</time>
      </trkpt>
      <trkpt lat="32.95493" lon="78.26699">
        <ele>4550.8</ele>
        <time>2015-09-08T09:28:39Z</time>
      </trkpt>
      <trkpt lat="32.95495" lon="78.26699">
        <ele>4550.8</ele>
        <time>2015-09-08T09:28:41Z</time>
      </trkpt>
      <trkpt lat="32.95511" lon="78.26687">
        <ele>4550.6</ele>
        <time>2015-09-08T09:28:59Z</time>
      </trkpt>
      <trkpt lat="32.95528" lon="78.2668">
        <ele>4550.8</ele>
        <time>2015-09-08T09:29:16Z</time>
      </trkpt>
      <trkpt lat="32.95533" lon="78.26672">
        <ele>4551</ele>
        <time>2015-09-08T09:29:25Z</time>
      </trkpt>
      <trkpt lat="32.95538" lon="78.26666">
        <ele>4551.8</ele>
        <time>2015-09-08T09:29:34Z</time>
      </trkpt>
      <trkpt lat="32.95539" lon="78.26666">
        <ele>4552</ele>
        <time>2015-09-08T09:29:35Z</time>
      </trkpt>
      <trkpt lat="32.95543" lon="78.26663">
        <ele>4551.8</ele>
        <time>2015-09-08T09:29:40Z</time>
      </trkpt>
      <trkpt lat="32.95545" lon="78.26657">
        <ele>4551</ele>
        <time>2015-09-08T09:29:45Z</time>
      </trkpt>
      <trkpt lat="32.95545" lon="78.26655">
        <ele>4550.8</ele>
        <time>2015-09-08T09:29:46Z</time>
      </trkpt>
      <trkpt lat="32.95557" lon="78.26638">
        <ele>4552</ele>
        <time>2015-09-08T09:30:04Z</time>
      </trkpt>
      <trkpt lat="32.95561" lon="78.26634">
        <ele>4551.8</ele>
        <time>2015-09-08T09:30:09Z</time>
      </trkpt>
      <trkpt lat="32.9556" lon="78.26626">
        <ele>4550</ele>
        <time>2015-09-08T09:30:17Z</time>
      </trkpt>
      <trkpt lat="32.95557" lon="78.26612">
        <ele>4551</ele>
        <time>2015-09-08T09:30:29Z</time>
      </trkpt>
      <trkpt lat="32.95556" lon="78.2661">
        <ele>4551.2</ele>
        <time>2015-09-08T09:30:31Z</time>
      </trkpt>
      <trkpt lat="32.95547" lon="78.26604">
        <ele>4552</ele>
        <time>2015-09-08T09:30:41Z</time>
      </trkpt>
      <trkpt lat="32.95547" lon="78.26604">
        <ele>4552</ele>
        <time>2015-09-08T09:30:42Z</time>
      </trkpt>
      <trkpt lat="32.95551" lon="78.266">
        <ele>4551.2</ele>
        <time>2015-09-08T09:31:01Z</time>
      </trkpt>
    </trkseg>
  </trk>
</gpx>